<?xml version="1.0" encoding="UTF-8" standalone="no" ?>
<gpx xmlns="http://www.topografix.com/GPX/1/1" xmlns:xsi="http://www.w3.org/2001/XMLSchema-instance" xsi:schemaLocation="http://www.topografix.com/GPX/1/1 http://www.topografix.com/GPX/1/1/gpx.xsd" version="1.1" creator="VisuGPX - https://www.visugpx.com">
  <metadata>
    <name>BesançonAmancey</name>
  </metadata>
  <trk>
    <name><![CDATA[BesançonAmancey_1]]></name>
    <trkseg>
      <trkpt lat="47.22947" lon="6.04722">
        <ele>274.6</ele>
        <time>2026-07-08T12:14:19Z</time>
      </trkpt>
      <trkpt lat="47.22945" lon="6.04716">
        <ele>342.2</ele>
        <time>2026-07-08T12:14:20Z</time>
      </trkpt>
      <trkpt lat="47.22943" lon="6.04709">
        <ele>341.6</ele>
        <time>2026-07-08T12:14:21Z</time>
      </trkpt>
      <trkpt lat="47.22941" lon="6.04701">
        <ele>340.8</ele>
        <time>2026-07-08T12:14:22Z</time>
      </trkpt>
      <trkpt lat="47.22937" lon="6.04692">
        <ele>339.6</ele>
        <time>2026-07-08T12:14:23Z</time>
      </trkpt>
      <trkpt lat="47.22934" lon="6.04682">
        <ele>338.2</ele>
        <time>2026-07-08T12:14:24Z</time>
      </trkpt>
      <trkpt lat="47.2293" lon="6.04671">
        <ele>336.6</ele>
        <time>2026-07-08T12:14:25Z</time>
      </trkpt>
      <trkpt lat="47.22926" lon="6.04659">
        <ele>335</ele>
        <time>2026-07-08T12:14:26Z</time>
      </trkpt>
      <trkpt lat="47.22921" lon="6.04647">
        <ele>333.4</ele>
        <time>2026-07-08T12:14:27Z</time>
      </trkpt>
      <trkpt lat="47.22916" lon="6.04634">
        <ele>331.6</ele>
        <time>2026-07-08T12:14:28Z</time>
      </trkpt>
      <trkpt lat="47.22911" lon="6.04621">
        <ele>330</ele>
        <time>2026-07-08T12:14:29Z</time>
      </trkpt>
      <trkpt lat="47.22906" lon="6.04605">
        <ele>328.2</ele>
        <time>2026-07-08T12:14:30Z</time>
      </trkpt>
      <trkpt lat="47.22901" lon="6.0459">
        <ele>327</ele>
        <time>2026-07-08T12:14:31Z</time>
      </trkpt>
      <trkpt lat="47.22899" lon="6.04574">
        <ele>326.2</ele>
        <time>2026-07-08T12:14:32Z</time>
      </trkpt>
      <trkpt lat="47.22898" lon="6.04557">
        <ele>325.4</ele>
        <time>2026-07-08T12:14:33Z</time>
      </trkpt>
      <trkpt lat="47.22897" lon="6.0454">
        <ele>324.6</ele>
        <time>2026-07-08T12:14:34Z</time>
      </trkpt>
      <trkpt lat="47.22896" lon="6.04524">
        <ele>324.2</ele>
        <time>2026-07-08T12:14:35Z</time>
      </trkpt>
      <trkpt lat="47.22894" lon="6.04507">
        <ele>324.2</ele>
        <time>2026-07-08T12:14:36Z</time>
      </trkpt>
      <trkpt lat="47.22894" lon="6.0449">
        <ele>323.6</ele>
        <time>2026-07-08T12:14:37Z</time>
      </trkpt>
      <trkpt lat="47.22893" lon="6.04474">
        <ele>323</ele>
        <time>2026-07-08T12:14:38Z</time>
      </trkpt>
      <trkpt lat="47.22894" lon="6.04458">
        <ele>325.6</ele>
        <time>2026-07-08T12:14:39Z</time>
      </trkpt>
      <trkpt lat="47.22895" lon="6.04442">
        <ele>326.2</ele>
        <time>2026-07-08T12:14:40Z</time>
      </trkpt>
      <trkpt lat="47.22896" lon="6.04428">
        <ele>325.8</ele>
        <time>2026-07-08T12:14:41Z</time>
      </trkpt>
      <trkpt lat="47.22897" lon="6.04415">
        <ele>325.6</ele>
        <time>2026-07-08T12:14:42Z</time>
      </trkpt>
      <trkpt lat="47.22897" lon="6.04402">
        <ele>325.2</ele>
        <time>2026-07-08T12:14:43Z</time>
      </trkpt>
      <trkpt lat="47.22896" lon="6.04389">
        <ele>324.6</ele>
        <time>2026-07-08T12:14:44Z</time>
      </trkpt>
      <trkpt lat="47.22895" lon="6.04375">
        <ele>324</ele>
        <time>2026-07-08T12:14:45Z</time>
      </trkpt>
      <trkpt lat="47.22893" lon="6.04361">
        <ele>323.6</ele>
        <time>2026-07-08T12:14:46Z</time>
      </trkpt>
      <trkpt lat="47.22891" lon="6.04346">
        <ele>323.2</ele>
        <time>2026-07-08T12:14:47Z</time>
      </trkpt>
      <trkpt lat="47.2289" lon="6.04331">
        <ele>322.8</ele>
        <time>2026-07-08T12:14:48Z</time>
      </trkpt>
      <trkpt lat="47.22889" lon="6.04315">
        <ele>322.6</ele>
        <time>2026-07-08T12:14:49Z</time>
      </trkpt>
      <trkpt lat="47.22889" lon="6.04299">
        <ele>322.6</ele>
        <time>2026-07-08T12:14:50Z</time>
      </trkpt>
      <trkpt lat="47.22889" lon="6.04283">
        <ele>322.4</ele>
        <time>2026-07-08T12:14:51Z</time>
      </trkpt>
      <trkpt lat="47.2289" lon="6.04268">
        <ele>322.2</ele>
        <time>2026-07-08T12:14:52Z</time>
      </trkpt>
      <trkpt lat="47.22893" lon="6.04252">
        <ele>322</ele>
        <time>2026-07-08T12:14:53Z</time>
      </trkpt>
      <trkpt lat="47.22896" lon="6.04237">
        <ele>321.2</ele>
        <time>2026-07-08T12:14:54Z</time>
      </trkpt>
      <trkpt lat="47.22899" lon="6.04222">
        <ele>320.4</ele>
        <time>2026-07-08T12:14:55Z</time>
      </trkpt>
      <trkpt lat="47.22904" lon="6.04209">
        <ele>319.2</ele>
        <time>2026-07-08T12:14:56Z</time>
      </trkpt>
      <trkpt lat="47.22909" lon="6.04197">
        <ele>317.6</ele>
        <time>2026-07-08T12:14:57Z</time>
      </trkpt>
      <trkpt lat="47.22914" lon="6.04185">
        <ele>317.6</ele>
        <time>2026-07-08T12:14:58Z</time>
      </trkpt>
      <trkpt lat="47.22918" lon="6.04174">
        <ele>316.4</ele>
        <time>2026-07-08T12:14:59Z</time>
      </trkpt>
      <trkpt lat="47.22922" lon="6.04164">
        <ele>315</ele>
        <time>2026-07-08T12:15:00Z</time>
      </trkpt>
      <trkpt lat="47.22925" lon="6.04153">
        <ele>313.6</ele>
        <time>2026-07-08T12:15:01Z</time>
      </trkpt>
      <trkpt lat="47.22928" lon="6.04142">
        <ele>312.4</ele>
        <time>2026-07-08T12:15:02Z</time>
      </trkpt>
      <trkpt lat="47.22931" lon="6.04131">
        <ele>311.2</ele>
        <time>2026-07-08T12:15:03Z</time>
      </trkpt>
      <trkpt lat="47.22934" lon="6.04121">
        <ele>310.2</ele>
        <time>2026-07-08T12:15:04Z</time>
      </trkpt>
      <trkpt lat="47.22937" lon="6.04111">
        <ele>309.6</ele>
        <time>2026-07-08T12:15:05Z</time>
      </trkpt>
      <trkpt lat="47.22942" lon="6.04102">
        <ele>309</ele>
        <time>2026-07-08T12:15:06Z</time>
      </trkpt>
      <trkpt lat="47.22947" lon="6.04093">
        <ele>308.4</ele>
        <time>2026-07-08T12:15:07Z</time>
      </trkpt>
      <trkpt lat="47.22952" lon="6.04085">
        <ele>307.4</ele>
        <time>2026-07-08T12:15:08Z</time>
      </trkpt>
      <trkpt lat="47.22958" lon="6.04077">
        <ele>306.6</ele>
        <time>2026-07-08T12:15:09Z</time>
      </trkpt>
      <trkpt lat="47.22963" lon="6.04069">
        <ele>305.6</ele>
        <time>2026-07-08T12:15:10Z</time>
      </trkpt>
      <trkpt lat="47.22969" lon="6.04064">
        <ele>304.6</ele>
        <time>2026-07-08T12:15:11Z</time>
      </trkpt>
      <trkpt lat="47.22975" lon="6.04057">
        <ele>303.8</ele>
        <time>2026-07-08T12:15:12Z</time>
      </trkpt>
      <trkpt lat="47.2298" lon="6.04051">
        <ele>303</ele>
        <time>2026-07-08T12:15:13Z</time>
      </trkpt>
      <trkpt lat="47.22985" lon="6.04046">
        <ele>302.8</ele>
        <time>2026-07-08T12:15:14Z</time>
      </trkpt>
      <trkpt lat="47.2299" lon="6.04041">
        <ele>302.4</ele>
        <time>2026-07-08T12:15:15Z</time>
      </trkpt>
      <trkpt lat="47.22995" lon="6.04036">
        <ele>302</ele>
        <time>2026-07-08T12:15:16Z</time>
      </trkpt>
      <trkpt lat="47.23" lon="6.04031">
        <ele>301.6</ele>
        <time>2026-07-08T12:15:17Z</time>
      </trkpt>
      <trkpt lat="47.23004" lon="6.04026">
        <ele>301.6</ele>
        <time>2026-07-08T12:15:18Z</time>
      </trkpt>
      <trkpt lat="47.23009" lon="6.04022">
        <ele>301.4</ele>
        <time>2026-07-08T12:15:19Z</time>
      </trkpt>
      <trkpt lat="47.23014" lon="6.04018">
        <ele>301.2</ele>
        <time>2026-07-08T12:15:20Z</time>
      </trkpt>
      <trkpt lat="47.23018" lon="6.04014">
        <ele>301.2</ele>
        <time>2026-07-08T12:15:21Z</time>
      </trkpt>
      <trkpt lat="47.23022" lon="6.0401">
        <ele>301.2</ele>
        <time>2026-07-08T12:15:22Z</time>
      </trkpt>
      <trkpt lat="47.23026" lon="6.04006">
        <ele>301</ele>
        <time>2026-07-08T12:15:23Z</time>
      </trkpt>
      <trkpt lat="47.2303" lon="6.04002">
        <ele>300.8</ele>
        <time>2026-07-08T12:15:24Z</time>
      </trkpt>
      <trkpt lat="47.23034" lon="6.03997">
        <ele>300.8</ele>
        <time>2026-07-08T12:15:25Z</time>
      </trkpt>
      <trkpt lat="47.23038" lon="6.03993">
        <ele>300.6</ele>
        <time>2026-07-08T12:15:26Z</time>
      </trkpt>
      <trkpt lat="47.23043" lon="6.03989">
        <ele>300.4</ele>
        <time>2026-07-08T12:15:27Z</time>
      </trkpt>
      <trkpt lat="47.23047" lon="6.03984">
        <ele>300.2</ele>
        <time>2026-07-08T12:15:28Z</time>
      </trkpt>
      <trkpt lat="47.23051" lon="6.03979">
        <ele>300.2</ele>
        <time>2026-07-08T12:15:29Z</time>
      </trkpt>
      <trkpt lat="47.23055" lon="6.03974">
        <ele>300.2</ele>
        <time>2026-07-08T12:15:30Z</time>
      </trkpt>
      <trkpt lat="47.23059" lon="6.0397">
        <ele>300.2</ele>
        <time>2026-07-08T12:15:31Z</time>
      </trkpt>
      <trkpt lat="47.23063" lon="6.03974">
        <ele>300.2</ele>
        <time>2026-07-08T12:15:32Z</time>
      </trkpt>
      <trkpt lat="47.23067" lon="6.03973">
        <ele>300.2</ele>
        <time>2026-07-08T12:15:33Z</time>
      </trkpt>
      <trkpt lat="47.23071" lon="6.03971">
        <ele>300</ele>
        <time>2026-07-08T12:15:34Z</time>
      </trkpt>
      <trkpt lat="47.23076" lon="6.03976">
        <ele>300.2</ele>
        <time>2026-07-08T12:15:35Z</time>
      </trkpt>
      <trkpt lat="47.2308" lon="6.03977">
        <ele>300.2</ele>
        <time>2026-07-08T12:15:36Z</time>
      </trkpt>
      <trkpt lat="47.23085" lon="6.03975">
        <ele>300.2</ele>
        <time>2026-07-08T12:15:37Z</time>
      </trkpt>
      <trkpt lat="47.2309" lon="6.03971">
        <ele>300.2</ele>
        <time>2026-07-08T12:15:38Z</time>
      </trkpt>
      <trkpt lat="47.23094" lon="6.03967">
        <ele>300</ele>
        <time>2026-07-08T12:15:39Z</time>
      </trkpt>
      <trkpt lat="47.23098" lon="6.03963">
        <ele>300.2</ele>
        <time>2026-07-08T12:15:40Z</time>
      </trkpt>
      <trkpt lat="47.23103" lon="6.0396">
        <ele>300.2</ele>
        <time>2026-07-08T12:15:41Z</time>
      </trkpt>
      <trkpt lat="47.23107" lon="6.03959">
        <ele>300.2</ele>
        <time>2026-07-08T12:15:42Z</time>
      </trkpt>
      <trkpt lat="47.23112" lon="6.03958">
        <ele>300.2</ele>
        <time>2026-07-08T12:15:43Z</time>
      </trkpt>
      <trkpt lat="47.23116" lon="6.03958">
        <ele>300.2</ele>
        <time>2026-07-08T12:15:44Z</time>
      </trkpt>
      <trkpt lat="47.2312" lon="6.03955">
        <ele>300.2</ele>
        <time>2026-07-08T12:15:45Z</time>
      </trkpt>
      <trkpt lat="47.23124" lon="6.03952">
        <ele>300.2</ele>
        <time>2026-07-08T12:15:46Z</time>
      </trkpt>
      <trkpt lat="47.23128" lon="6.03948">
        <ele>300.4</ele>
        <time>2026-07-08T12:15:47Z</time>
      </trkpt>
      <trkpt lat="47.23132" lon="6.03945">
        <ele>300.6</ele>
        <time>2026-07-08T12:15:48Z</time>
      </trkpt>
      <trkpt lat="47.23137" lon="6.03942">
        <ele>300.4</ele>
        <time>2026-07-08T12:15:49Z</time>
      </trkpt>
      <trkpt lat="47.23141" lon="6.03937">
        <ele>300.6</ele>
        <time>2026-07-08T12:15:50Z</time>
      </trkpt>
      <trkpt lat="47.23145" lon="6.03933">
        <ele>300.6</ele>
        <time>2026-07-08T12:15:51Z</time>
      </trkpt>
      <trkpt lat="47.23149" lon="6.03929">
        <ele>300.8</ele>
        <time>2026-07-08T12:15:52Z</time>
      </trkpt>
      <trkpt lat="47.23154" lon="6.03925">
        <ele>300.8</ele>
        <time>2026-07-08T12:15:53Z</time>
      </trkpt>
      <trkpt lat="47.23158" lon="6.03921">
        <ele>300.8</ele>
        <time>2026-07-08T12:15:54Z</time>
      </trkpt>
      <trkpt lat="47.23163" lon="6.03916">
        <ele>301</ele>
        <time>2026-07-08T12:15:55Z</time>
      </trkpt>
      <trkpt lat="47.23167" lon="6.03912">
        <ele>300.8</ele>
        <time>2026-07-08T12:15:56Z</time>
      </trkpt>
      <trkpt lat="47.23172" lon="6.03908">
        <ele>301</ele>
        <time>2026-07-08T12:15:57Z</time>
      </trkpt>
      <trkpt lat="47.23177" lon="6.03904">
        <ele>301</ele>
        <time>2026-07-08T12:15:58Z</time>
      </trkpt>
      <trkpt lat="47.23181" lon="6.039">
        <ele>300.8</ele>
        <time>2026-07-08T12:15:59Z</time>
      </trkpt>
      <trkpt lat="47.23186" lon="6.03896">
        <ele>301</ele>
        <time>2026-07-08T12:16:00Z</time>
      </trkpt>
      <trkpt lat="47.23191" lon="6.03891">
        <ele>300.8</ele>
        <time>2026-07-08T12:16:01Z</time>
      </trkpt>
      <trkpt lat="47.23196" lon="6.03887">
        <ele>300.8</ele>
        <time>2026-07-08T12:16:02Z</time>
      </trkpt>
      <trkpt lat="47.232" lon="6.03882">
        <ele>300.8</ele>
        <time>2026-07-08T12:16:03Z</time>
      </trkpt>
      <trkpt lat="47.23206" lon="6.03879">
        <ele>300.8</ele>
        <time>2026-07-08T12:16:04Z</time>
      </trkpt>
      <trkpt lat="47.23211" lon="6.03874">
        <ele>300.8</ele>
        <time>2026-07-08T12:16:05Z</time>
      </trkpt>
      <trkpt lat="47.23216" lon="6.0387">
        <ele>300.8</ele>
        <time>2026-07-08T12:16:06Z</time>
      </trkpt>
      <trkpt lat="47.2322" lon="6.03865">
        <ele>300.8</ele>
        <time>2026-07-08T12:16:07Z</time>
      </trkpt>
      <trkpt lat="47.23225" lon="6.03861">
        <ele>300.6</ele>
        <time>2026-07-08T12:16:08Z</time>
      </trkpt>
      <trkpt lat="47.23229" lon="6.03856">
        <ele>300.6</ele>
        <time>2026-07-08T12:16:09Z</time>
      </trkpt>
      <trkpt lat="47.23234" lon="6.03851">
        <ele>300.6</ele>
        <time>2026-07-08T12:16:10Z</time>
      </trkpt>
      <trkpt lat="47.23238" lon="6.03845">
        <ele>300.6</ele>
        <time>2026-07-08T12:16:11Z</time>
      </trkpt>
      <trkpt lat="47.23242" lon="6.0384">
        <ele>300.6</ele>
        <time>2026-07-08T12:16:12Z</time>
      </trkpt>
      <trkpt lat="47.23246" lon="6.03834">
        <ele>300.4</ele>
        <time>2026-07-08T12:16:13Z</time>
      </trkpt>
      <trkpt lat="47.23251" lon="6.03829">
        <ele>300.6</ele>
        <time>2026-07-08T12:16:14Z</time>
      </trkpt>
      <trkpt lat="47.23255" lon="6.03824">
        <ele>300.6</ele>
        <time>2026-07-08T12:16:15Z</time>
      </trkpt>
      <trkpt lat="47.23259" lon="6.0382">
        <ele>300.4</ele>
        <time>2026-07-08T12:16:16Z</time>
      </trkpt>
      <trkpt lat="47.23264" lon="6.03815">
        <ele>300.4</ele>
        <time>2026-07-08T12:16:17Z</time>
      </trkpt>
      <trkpt lat="47.23269" lon="6.03811">
        <ele>300.2</ele>
        <time>2026-07-08T12:16:18Z</time>
      </trkpt>
      <trkpt lat="47.23274" lon="6.03807">
        <ele>300.2</ele>
        <time>2026-07-08T12:16:19Z</time>
      </trkpt>
      <trkpt lat="47.23279" lon="6.03803">
        <ele>300.4</ele>
        <time>2026-07-08T12:16:20Z</time>
      </trkpt>
      <trkpt lat="47.23283" lon="6.03799">
        <ele>300.2</ele>
        <time>2026-07-08T12:16:21Z</time>
      </trkpt>
      <trkpt lat="47.23288" lon="6.03794">
        <ele>300</ele>
        <time>2026-07-08T12:16:22Z</time>
      </trkpt>
      <trkpt lat="47.23293" lon="6.03789">
        <ele>300.2</ele>
        <time>2026-07-08T12:16:23Z</time>
      </trkpt>
      <trkpt lat="47.23298" lon="6.03784">
        <ele>300</ele>
        <time>2026-07-08T12:16:24Z</time>
      </trkpt>
      <trkpt lat="47.23302" lon="6.03779">
        <ele>300</ele>
        <time>2026-07-08T12:16:25Z</time>
      </trkpt>
      <trkpt lat="47.23307" lon="6.03775">
        <ele>299.6</ele>
        <time>2026-07-08T12:16:26Z</time>
      </trkpt>
      <trkpt lat="47.23312" lon="6.03771">
        <ele>299.6</ele>
        <time>2026-07-08T12:16:27Z</time>
      </trkpt>
      <trkpt lat="47.23316" lon="6.03767">
        <ele>299.6</ele>
        <time>2026-07-08T12:16:28Z</time>
      </trkpt>
      <trkpt lat="47.23321" lon="6.03763">
        <ele>299.6</ele>
        <time>2026-07-08T12:16:29Z</time>
      </trkpt>
      <trkpt lat="47.23325" lon="6.03757">
        <ele>299.6</ele>
        <time>2026-07-08T12:16:30Z</time>
      </trkpt>
      <trkpt lat="47.23326" lon="6.03751">
        <ele>299.4</ele>
        <time>2026-07-08T12:16:31Z</time>
      </trkpt>
      <trkpt lat="47.23325" lon="6.03744">
        <ele>299.4</ele>
        <time>2026-07-08T12:16:32Z</time>
      </trkpt>
      <trkpt lat="47.23324" lon="6.03738">
        <ele>299.2</ele>
        <time>2026-07-08T12:16:33Z</time>
      </trkpt>
      <trkpt lat="47.23324" lon="6.03733">
        <ele>299.2</ele>
        <time>2026-07-08T12:16:34Z</time>
      </trkpt>
      <trkpt lat="47.23325" lon="6.03728">
        <ele>299.4</ele>
        <time>2026-07-08T12:16:35Z</time>
      </trkpt>
      <trkpt lat="47.23327" lon="6.03724">
        <ele>299.2</ele>
        <time>2026-07-08T12:16:36Z</time>
      </trkpt>
      <trkpt lat="47.2333" lon="6.03721">
        <ele>299.4</ele>
        <time>2026-07-08T12:16:37Z</time>
      </trkpt>
      <trkpt lat="47.23332" lon="6.03718">
        <ele>299.2</ele>
        <time>2026-07-08T12:16:38Z</time>
      </trkpt>
      <trkpt lat="47.23335" lon="6.03715">
        <ele>299.2</ele>
        <time>2026-07-08T12:16:39Z</time>
      </trkpt>
      <trkpt lat="47.23337" lon="6.03712">
        <ele>299.2</ele>
        <time>2026-07-08T12:16:40Z</time>
      </trkpt>
      <trkpt lat="47.2334" lon="6.03708">
        <ele>299.4</ele>
        <time>2026-07-08T12:16:41Z</time>
      </trkpt>
      <trkpt lat="47.23343" lon="6.03705">
        <ele>299.2</ele>
        <time>2026-07-08T12:16:42Z</time>
      </trkpt>
      <trkpt lat="47.23346" lon="6.03702">
        <ele>299.4</ele>
        <time>2026-07-08T12:16:43Z</time>
      </trkpt>
      <trkpt lat="47.23349" lon="6.03699">
        <ele>299.4</ele>
        <time>2026-07-08T12:16:44Z</time>
      </trkpt>
      <trkpt lat="47.23352" lon="6.03695">
        <ele>299.6</ele>
        <time>2026-07-08T12:16:45Z</time>
      </trkpt>
      <trkpt lat="47.23355" lon="6.03691">
        <ele>299.8</ele>
        <time>2026-07-08T12:16:46Z</time>
      </trkpt>
      <trkpt lat="47.23358" lon="6.03687">
        <ele>300</ele>
        <time>2026-07-08T12:16:47Z</time>
      </trkpt>
      <trkpt lat="47.23361" lon="6.03684">
        <ele>300</ele>
        <time>2026-07-08T12:16:48Z</time>
      </trkpt>
      <trkpt lat="47.23364" lon="6.0368">
        <ele>300.2</ele>
        <time>2026-07-08T12:16:49Z</time>
      </trkpt>
      <trkpt lat="47.23367" lon="6.03676">
        <ele>300.2</ele>
        <time>2026-07-08T12:16:50Z</time>
      </trkpt>
      <trkpt lat="47.2337" lon="6.03673">
        <ele>300.2</ele>
        <time>2026-07-08T12:16:51Z</time>
      </trkpt>
      <trkpt lat="47.23373" lon="6.03669">
        <ele>300.2</ele>
        <time>2026-07-08T12:16:52Z</time>
      </trkpt>
      <trkpt lat="47.23376" lon="6.03665">
        <ele>300.2</ele>
        <time>2026-07-08T12:16:53Z</time>
      </trkpt>
      <trkpt lat="47.23379" lon="6.0366">
        <ele>300.2</ele>
        <time>2026-07-08T12:16:54Z</time>
      </trkpt>
      <trkpt lat="47.23382" lon="6.03655">
        <ele>300.4</ele>
        <time>2026-07-08T12:16:55Z</time>
      </trkpt>
      <trkpt lat="47.23386" lon="6.0365">
        <ele>300.4</ele>
        <time>2026-07-08T12:16:56Z</time>
      </trkpt>
      <trkpt lat="47.23389" lon="6.03645">
        <ele>300.2</ele>
        <time>2026-07-08T12:16:57Z</time>
      </trkpt>
      <trkpt lat="47.23392" lon="6.0364">
        <ele>300.4</ele>
        <time>2026-07-08T12:16:58Z</time>
      </trkpt>
      <trkpt lat="47.23394" lon="6.03635">
        <ele>300.6</ele>
        <time>2026-07-08T12:16:59Z</time>
      </trkpt>
      <trkpt lat="47.23396" lon="6.03631">
        <ele>300.4</ele>
        <time>2026-07-08T12:17:00Z</time>
      </trkpt>
      <trkpt lat="47.23399" lon="6.03626">
        <ele>300.4</ele>
        <time>2026-07-08T12:17:01Z</time>
      </trkpt>
      <trkpt lat="47.23401" lon="6.03621">
        <ele>300.6</ele>
        <time>2026-07-08T12:17:02Z</time>
      </trkpt>
      <trkpt lat="47.23403" lon="6.03617">
        <ele>300.6</ele>
        <time>2026-07-08T12:17:03Z</time>
      </trkpt>
      <trkpt lat="47.23406" lon="6.03612">
        <ele>300.8</ele>
        <time>2026-07-08T12:17:04Z</time>
      </trkpt>
      <trkpt lat="47.23408" lon="6.03607">
        <ele>300.8</ele>
        <time>2026-07-08T12:17:05Z</time>
      </trkpt>
      <trkpt lat="47.23411" lon="6.03602">
        <ele>301</ele>
        <time>2026-07-08T12:17:06Z</time>
      </trkpt>
      <trkpt lat="47.23413" lon="6.03597">
        <ele>301</ele>
        <time>2026-07-08T12:17:07Z</time>
      </trkpt>
      <trkpt lat="47.23415" lon="6.03591">
        <ele>301.2</ele>
        <time>2026-07-08T12:17:08Z</time>
      </trkpt>
      <trkpt lat="47.23418" lon="6.03586">
        <ele>301</ele>
        <time>2026-07-08T12:17:09Z</time>
      </trkpt>
      <trkpt lat="47.2342" lon="6.03581">
        <ele>301.2</ele>
        <time>2026-07-08T12:17:10Z</time>
      </trkpt>
      <trkpt lat="47.23422" lon="6.03575">
        <ele>301.2</ele>
        <time>2026-07-08T12:17:11Z</time>
      </trkpt>
      <trkpt lat="47.23424" lon="6.0357">
        <ele>301.2</ele>
        <time>2026-07-08T12:17:12Z</time>
      </trkpt>
      <trkpt lat="47.23426" lon="6.03564">
        <ele>301.2</ele>
        <time>2026-07-08T12:17:13Z</time>
      </trkpt>
      <trkpt lat="47.23429" lon="6.03559">
        <ele>301.2</ele>
        <time>2026-07-08T12:17:14Z</time>
      </trkpt>
      <trkpt lat="47.23431" lon="6.03553">
        <ele>301</ele>
        <time>2026-07-08T12:17:15Z</time>
      </trkpt>
      <trkpt lat="47.23433" lon="6.03548">
        <ele>301.2</ele>
        <time>2026-07-08T12:17:16Z</time>
      </trkpt>
      <trkpt lat="47.23436" lon="6.03542">
        <ele>301.2</ele>
        <time>2026-07-08T12:17:17Z</time>
      </trkpt>
      <trkpt lat="47.23438" lon="6.03536">
        <ele>301</ele>
        <time>2026-07-08T12:17:18Z</time>
      </trkpt>
      <trkpt lat="47.23441" lon="6.03531">
        <ele>301</ele>
        <time>2026-07-08T12:17:19Z</time>
      </trkpt>
      <trkpt lat="47.23443" lon="6.03525">
        <ele>301</ele>
        <time>2026-07-08T12:17:20Z</time>
      </trkpt>
      <trkpt lat="47.23446" lon="6.0352">
        <ele>300.8</ele>
        <time>2026-07-08T12:17:21Z</time>
      </trkpt>
      <trkpt lat="47.23449" lon="6.03514">
        <ele>300.6</ele>
        <time>2026-07-08T12:17:22Z</time>
      </trkpt>
      <trkpt lat="47.23451" lon="6.03508">
        <ele>300.6</ele>
        <time>2026-07-08T12:17:23Z</time>
      </trkpt>
      <trkpt lat="47.23454" lon="6.03503">
        <ele>300.6</ele>
        <time>2026-07-08T12:17:24Z</time>
      </trkpt>
      <trkpt lat="47.23456" lon="6.03497">
        <ele>300.4</ele>
        <time>2026-07-08T12:17:25Z</time>
      </trkpt>
      <trkpt lat="47.23456" lon="6.03492">
        <ele>300.4</ele>
        <time>2026-07-08T12:17:26Z</time>
      </trkpt>
      <trkpt lat="47.23455" lon="6.03487">
        <ele>300.4</ele>
        <time>2026-07-08T12:17:27Z</time>
      </trkpt>
      <trkpt lat="47.23453" lon="6.03483">
        <ele>300.2</ele>
        <time>2026-07-08T12:17:28Z</time>
      </trkpt>
      <trkpt lat="47.23451" lon="6.03481">
        <ele>300.2</ele>
        <time>2026-07-08T12:17:29Z</time>
      </trkpt>
      <trkpt lat="47.23448" lon="6.03481">
        <ele>300.2</ele>
        <time>2026-07-08T12:17:30Z</time>
      </trkpt>
      <trkpt lat="47.23444" lon="6.03483">
        <ele>300</ele>
        <time>2026-07-08T12:17:31Z</time>
      </trkpt>
      <trkpt lat="47.2344" lon="6.03485">
        <ele>300</ele>
        <time>2026-07-08T12:17:32Z</time>
      </trkpt>
      <trkpt lat="47.23437" lon="6.03487">
        <ele>299.8</ele>
        <time>2026-07-08T12:17:33Z</time>
      </trkpt>
      <trkpt lat="47.23432" lon="6.03489">
        <ele>299.8</ele>
        <time>2026-07-08T12:17:34Z</time>
      </trkpt>
      <trkpt lat="47.23428" lon="6.03491">
        <ele>299.8</ele>
        <time>2026-07-08T12:17:35Z</time>
      </trkpt>
      <trkpt lat="47.23424" lon="6.03494">
        <ele>299.8</ele>
        <time>2026-07-08T12:17:36Z</time>
      </trkpt>
      <trkpt lat="47.23419" lon="6.03497">
        <ele>299.8</ele>
        <time>2026-07-08T12:17:37Z</time>
      </trkpt>
      <trkpt lat="47.23414" lon="6.035">
        <ele>299.6</ele>
        <time>2026-07-08T12:17:38Z</time>
      </trkpt>
      <trkpt lat="47.2341" lon="6.03502">
        <ele>299.6</ele>
        <time>2026-07-08T12:17:39Z</time>
      </trkpt>
      <trkpt lat="47.23405" lon="6.03504">
        <ele>299.6</ele>
        <time>2026-07-08T12:17:40Z</time>
      </trkpt>
      <trkpt lat="47.234" lon="6.03507">
        <ele>299.6</ele>
        <time>2026-07-08T12:17:41Z</time>
      </trkpt>
      <trkpt lat="47.23396" lon="6.0351">
        <ele>299.6</ele>
        <time>2026-07-08T12:17:42Z</time>
      </trkpt>
      <trkpt lat="47.23391" lon="6.03513">
        <ele>299.8</ele>
        <time>2026-07-08T12:17:43Z</time>
      </trkpt>
      <trkpt lat="47.23386" lon="6.03515">
        <ele>299.6</ele>
        <time>2026-07-08T12:17:44Z</time>
      </trkpt>
      <trkpt lat="47.23382" lon="6.03518">
        <ele>299.6</ele>
        <time>2026-07-08T12:17:45Z</time>
      </trkpt>
      <trkpt lat="47.23377" lon="6.03521">
        <ele>299.6</ele>
        <time>2026-07-08T12:17:46Z</time>
      </trkpt>
      <trkpt lat="47.23372" lon="6.03524">
        <ele>299.8</ele>
        <time>2026-07-08T12:17:47Z</time>
      </trkpt>
      <trkpt lat="47.23368" lon="6.03526">
        <ele>299.6</ele>
        <time>2026-07-08T12:17:48Z</time>
      </trkpt>
      <trkpt lat="47.23364" lon="6.03528">
        <ele>299.6</ele>
        <time>2026-07-08T12:17:49Z</time>
      </trkpt>
      <trkpt lat="47.2336" lon="6.03531">
        <ele>299.6</ele>
        <time>2026-07-08T12:17:50Z</time>
      </trkpt>
      <trkpt lat="47.23355" lon="6.03533">
        <ele>299.6</ele>
        <time>2026-07-08T12:17:51Z</time>
      </trkpt>
      <trkpt lat="47.23351" lon="6.03535">
        <ele>299.6</ele>
        <time>2026-07-08T12:17:52Z</time>
      </trkpt>
      <trkpt lat="47.23346" lon="6.03538">
        <ele>299.6</ele>
        <time>2026-07-08T12:17:53Z</time>
      </trkpt>
      <trkpt lat="47.23342" lon="6.0354">
        <ele>299.6</ele>
        <time>2026-07-08T12:17:54Z</time>
      </trkpt>
      <trkpt lat="47.23337" lon="6.03542">
        <ele>299.6</ele>
        <time>2026-07-08T12:17:55Z</time>
      </trkpt>
      <trkpt lat="47.23333" lon="6.03545">
        <ele>299.6</ele>
        <time>2026-07-08T12:17:56Z</time>
      </trkpt>
      <trkpt lat="47.23328" lon="6.03547">
        <ele>299.6</ele>
        <time>2026-07-08T12:17:57Z</time>
      </trkpt>
      <trkpt lat="47.23324" lon="6.0355">
        <ele>299.6</ele>
        <time>2026-07-08T12:17:58Z</time>
      </trkpt>
      <trkpt lat="47.23319" lon="6.03552">
        <ele>299.6</ele>
        <time>2026-07-08T12:17:59Z</time>
      </trkpt>
      <trkpt lat="47.23315" lon="6.03554">
        <ele>299.6</ele>
        <time>2026-07-08T12:18:00Z</time>
      </trkpt>
      <trkpt lat="47.2331" lon="6.03557">
        <ele>299.6</ele>
        <time>2026-07-08T12:18:01Z</time>
      </trkpt>
      <trkpt lat="47.23306" lon="6.03559">
        <ele>299.6</ele>
        <time>2026-07-08T12:18:02Z</time>
      </trkpt>
      <trkpt lat="47.23301" lon="6.03562">
        <ele>299.6</ele>
        <time>2026-07-08T12:18:03Z</time>
      </trkpt>
      <trkpt lat="47.23297" lon="6.03564">
        <ele>299.6</ele>
        <time>2026-07-08T12:18:04Z</time>
      </trkpt>
      <trkpt lat="47.23293" lon="6.03567">
        <ele>299.6</ele>
        <time>2026-07-08T12:18:05Z</time>
      </trkpt>
      <trkpt lat="47.23288" lon="6.03569">
        <ele>299.6</ele>
        <time>2026-07-08T12:18:06Z</time>
      </trkpt>
      <trkpt lat="47.23283" lon="6.03572">
        <ele>299.6</ele>
        <time>2026-07-08T12:18:07Z</time>
      </trkpt>
      <trkpt lat="47.23279" lon="6.03574">
        <ele>299.6</ele>
        <time>2026-07-08T12:18:08Z</time>
      </trkpt>
      <trkpt lat="47.23275" lon="6.03576">
        <ele>299.6</ele>
        <time>2026-07-08T12:18:09Z</time>
      </trkpt>
      <trkpt lat="47.2327" lon="6.03578">
        <ele>299.4</ele>
        <time>2026-07-08T12:18:10Z</time>
      </trkpt>
      <trkpt lat="47.23266" lon="6.0358">
        <ele>299.6</ele>
        <time>2026-07-08T12:18:11Z</time>
      </trkpt>
      <trkpt lat="47.23262" lon="6.03581">
        <ele>299.4</ele>
        <time>2026-07-08T12:18:12Z</time>
      </trkpt>
      <trkpt lat="47.23258" lon="6.03583">
        <ele>299.6</ele>
        <time>2026-07-08T12:18:13Z</time>
      </trkpt>
      <trkpt lat="47.23253" lon="6.03585">
        <ele>299.6</ele>
        <time>2026-07-08T12:18:14Z</time>
      </trkpt>
      <trkpt lat="47.23249" lon="6.03587">
        <ele>299.6</ele>
        <time>2026-07-08T12:18:15Z</time>
      </trkpt>
      <trkpt lat="47.23245" lon="6.03588">
        <ele>299.4</ele>
        <time>2026-07-08T12:18:16Z</time>
      </trkpt>
      <trkpt lat="47.23241" lon="6.03589">
        <ele>299.6</ele>
        <time>2026-07-08T12:18:17Z</time>
      </trkpt>
      <trkpt lat="47.23236" lon="6.0359">
        <ele>299.6</ele>
        <time>2026-07-08T12:18:18Z</time>
      </trkpt>
      <trkpt lat="47.23231" lon="6.03591">
        <ele>299.6</ele>
        <time>2026-07-08T12:18:19Z</time>
      </trkpt>
      <trkpt lat="47.23226" lon="6.03591">
        <ele>299.6</ele>
        <time>2026-07-08T12:18:20Z</time>
      </trkpt>
      <trkpt lat="47.23221" lon="6.03591">
        <ele>299.4</ele>
        <time>2026-07-08T12:18:21Z</time>
      </trkpt>
      <trkpt lat="47.23217" lon="6.03591">
        <ele>299.6</ele>
        <time>2026-07-08T12:18:22Z</time>
      </trkpt>
      <trkpt lat="47.23212" lon="6.03591">
        <ele>299.6</ele>
        <time>2026-07-08T12:18:23Z</time>
      </trkpt>
      <trkpt lat="47.23208" lon="6.0359">
        <ele>299.4</ele>
        <time>2026-07-08T12:18:24Z</time>
      </trkpt>
      <trkpt lat="47.23203" lon="6.03589">
        <ele>299.6</ele>
        <time>2026-07-08T12:18:25Z</time>
      </trkpt>
      <trkpt lat="47.23199" lon="6.03588">
        <ele>299.6</ele>
        <time>2026-07-08T12:18:26Z</time>
      </trkpt>
      <trkpt lat="47.23195" lon="6.03587">
        <ele>299.6</ele>
        <time>2026-07-08T12:18:27Z</time>
      </trkpt>
      <trkpt lat="47.23191" lon="6.03586">
        <ele>299.8</ele>
        <time>2026-07-08T12:18:28Z</time>
      </trkpt>
      <trkpt lat="47.23186" lon="6.03586">
        <ele>299.8</ele>
        <time>2026-07-08T12:18:29Z</time>
      </trkpt>
      <trkpt lat="47.23182" lon="6.03584">
        <ele>299.8</ele>
        <time>2026-07-08T12:18:30Z</time>
      </trkpt>
      <trkpt lat="47.23178" lon="6.03583">
        <ele>300</ele>
        <time>2026-07-08T12:18:31Z</time>
      </trkpt>
      <trkpt lat="47.23174" lon="6.03582">
        <ele>300</ele>
        <time>2026-07-08T12:18:32Z</time>
      </trkpt>
      <trkpt lat="47.2317" lon="6.03581">
        <ele>300</ele>
        <time>2026-07-08T12:18:33Z</time>
      </trkpt>
      <trkpt lat="47.23166" lon="6.0358">
        <ele>300.2</ele>
        <time>2026-07-08T12:18:34Z</time>
      </trkpt>
      <trkpt lat="47.23162" lon="6.03579">
        <ele>300.4</ele>
        <time>2026-07-08T12:18:35Z</time>
      </trkpt>
      <trkpt lat="47.23159" lon="6.03578">
        <ele>300.4</ele>
        <time>2026-07-08T12:18:36Z</time>
      </trkpt>
      <trkpt lat="47.23155" lon="6.03578">
        <ele>300.6</ele>
        <time>2026-07-08T12:18:37Z</time>
      </trkpt>
      <trkpt lat="47.23152" lon="6.03579">
        <ele>300.6</ele>
        <time>2026-07-08T12:18:38Z</time>
      </trkpt>
      <trkpt lat="47.23148" lon="6.03581">
        <ele>300.6</ele>
        <time>2026-07-08T12:18:39Z</time>
      </trkpt>
      <trkpt lat="47.23145" lon="6.03584">
        <ele>300.8</ele>
        <time>2026-07-08T12:18:40Z</time>
      </trkpt>
      <trkpt lat="47.23142" lon="6.03587">
        <ele>300.8</ele>
        <time>2026-07-08T12:18:41Z</time>
      </trkpt>
      <trkpt lat="47.23138" lon="6.03589">
        <ele>301</ele>
        <time>2026-07-08T12:18:42Z</time>
      </trkpt>
      <trkpt lat="47.23135" lon="6.03592">
        <ele>301</ele>
        <time>2026-07-08T12:18:43Z</time>
      </trkpt>
      <trkpt lat="47.23131" lon="6.03594">
        <ele>301.4</ele>
        <time>2026-07-08T12:18:44Z</time>
      </trkpt>
      <trkpt lat="47.23127" lon="6.03595">
        <ele>301.6</ele>
        <time>2026-07-08T12:18:45Z</time>
      </trkpt>
      <trkpt lat="47.23123" lon="6.03595">
        <ele>301.8</ele>
        <time>2026-07-08T12:18:46Z</time>
      </trkpt>
      <trkpt lat="47.2312" lon="6.03596">
        <ele>301.6</ele>
        <time>2026-07-08T12:18:47Z</time>
      </trkpt>
      <trkpt lat="47.23116" lon="6.03598">
        <ele>301.8</ele>
        <time>2026-07-08T12:18:48Z</time>
      </trkpt>
      <trkpt lat="47.23112" lon="6.036">
        <ele>301.6</ele>
        <time>2026-07-08T12:18:49Z</time>
      </trkpt>
      <trkpt lat="47.23108" lon="6.03603">
        <ele>301.8</ele>
        <time>2026-07-08T12:18:50Z</time>
      </trkpt>
      <trkpt lat="47.23104" lon="6.03606">
        <ele>301.8</ele>
        <time>2026-07-08T12:18:51Z</time>
      </trkpt>
      <trkpt lat="47.23101" lon="6.0361">
        <ele>301.8</ele>
        <time>2026-07-08T12:18:52Z</time>
      </trkpt>
      <trkpt lat="47.23097" lon="6.03614">
        <ele>301.8</ele>
        <time>2026-07-08T12:18:53Z</time>
      </trkpt>
      <trkpt lat="47.23093" lon="6.03618">
        <ele>301.8</ele>
        <time>2026-07-08T12:18:54Z</time>
      </trkpt>
      <trkpt lat="47.2309" lon="6.03621">
        <ele>301.8</ele>
        <time>2026-07-08T12:18:55Z</time>
      </trkpt>
      <trkpt lat="47.23086" lon="6.03625">
        <ele>301.6</ele>
        <time>2026-07-08T12:18:56Z</time>
      </trkpt>
      <trkpt lat="47.23082" lon="6.03629">
        <ele>301.8</ele>
        <time>2026-07-08T12:18:57Z</time>
      </trkpt>
      <trkpt lat="47.23079" lon="6.03632">
        <ele>301.8</ele>
        <time>2026-07-08T12:18:58Z</time>
      </trkpt>
      <trkpt lat="47.23075" lon="6.03636">
        <ele>301.8</ele>
        <time>2026-07-08T12:18:59Z</time>
      </trkpt>
      <trkpt lat="47.23071" lon="6.0364">
        <ele>301.8</ele>
        <time>2026-07-08T12:19:00Z</time>
      </trkpt>
      <trkpt lat="47.23067" lon="6.03643">
        <ele>301.8</ele>
        <time>2026-07-08T12:19:01Z</time>
      </trkpt>
      <trkpt lat="47.23063" lon="6.03646">
        <ele>301.8</ele>
        <time>2026-07-08T12:19:02Z</time>
      </trkpt>
      <trkpt lat="47.23059" lon="6.0365">
        <ele>301.8</ele>
        <time>2026-07-08T12:19:03Z</time>
      </trkpt>
      <trkpt lat="47.23055" lon="6.03653">
        <ele>301.6</ele>
        <time>2026-07-08T12:19:04Z</time>
      </trkpt>
      <trkpt lat="47.23051" lon="6.03656">
        <ele>301.6</ele>
        <time>2026-07-08T12:19:05Z</time>
      </trkpt>
      <trkpt lat="47.23047" lon="6.03659">
        <ele>301.6</ele>
        <time>2026-07-08T12:19:06Z</time>
      </trkpt>
      <trkpt lat="47.23044" lon="6.03663">
        <ele>301.8</ele>
        <time>2026-07-08T12:19:07Z</time>
      </trkpt>
      <trkpt lat="47.2304" lon="6.03666">
        <ele>302</ele>
        <time>2026-07-08T12:19:08Z</time>
      </trkpt>
      <trkpt lat="47.23036" lon="6.0367">
        <ele>302</ele>
        <time>2026-07-08T12:19:09Z</time>
      </trkpt>
      <trkpt lat="47.23032" lon="6.03673">
        <ele>302</ele>
        <time>2026-07-08T12:19:10Z</time>
      </trkpt>
      <trkpt lat="47.23028" lon="6.03676">
        <ele>302</ele>
        <time>2026-07-08T12:19:11Z</time>
      </trkpt>
      <trkpt lat="47.23025" lon="6.0368">
        <ele>302</ele>
        <time>2026-07-08T12:19:12Z</time>
      </trkpt>
      <trkpt lat="47.23021" lon="6.03683">
        <ele>302.2</ele>
        <time>2026-07-08T12:19:13Z</time>
      </trkpt>
      <trkpt lat="47.23017" lon="6.03687">
        <ele>302.4</ele>
        <time>2026-07-08T12:19:14Z</time>
      </trkpt>
      <trkpt lat="47.23013" lon="6.0369">
        <ele>302.4</ele>
        <time>2026-07-08T12:19:15Z</time>
      </trkpt>
      <trkpt lat="47.23009" lon="6.03692">
        <ele>302.4</ele>
        <time>2026-07-08T12:19:16Z</time>
      </trkpt>
      <trkpt lat="47.23005" lon="6.03695">
        <ele>302.6</ele>
        <time>2026-07-08T12:19:17Z</time>
      </trkpt>
      <trkpt lat="47.23" lon="6.03697">
        <ele>302.4</ele>
        <time>2026-07-08T12:19:18Z</time>
      </trkpt>
      <trkpt lat="47.22996" lon="6.037">
        <ele>302.4</ele>
        <time>2026-07-08T12:19:19Z</time>
      </trkpt>
      <trkpt lat="47.22992" lon="6.03703">
        <ele>302.6</ele>
        <time>2026-07-08T12:19:20Z</time>
      </trkpt>
      <trkpt lat="47.22988" lon="6.03707">
        <ele>302.6</ele>
        <time>2026-07-08T12:19:21Z</time>
      </trkpt>
      <trkpt lat="47.22985" lon="6.03712">
        <ele>302.8</ele>
        <time>2026-07-08T12:19:22Z</time>
      </trkpt>
      <trkpt lat="47.22981" lon="6.03716">
        <ele>303</ele>
        <time>2026-07-08T12:19:23Z</time>
      </trkpt>
      <trkpt lat="47.22977" lon="6.03721">
        <ele>302.8</ele>
        <time>2026-07-08T12:19:24Z</time>
      </trkpt>
      <trkpt lat="47.22973" lon="6.03725">
        <ele>302.8</ele>
        <time>2026-07-08T12:19:25Z</time>
      </trkpt>
      <trkpt lat="47.22969" lon="6.03728">
        <ele>303</ele>
        <time>2026-07-08T12:19:26Z</time>
      </trkpt>
      <trkpt lat="47.22965" lon="6.03732">
        <ele>303</ele>
        <time>2026-07-08T12:19:27Z</time>
      </trkpt>
      <trkpt lat="47.22962" lon="6.03735">
        <ele>303</ele>
        <time>2026-07-08T12:19:28Z</time>
      </trkpt>
      <trkpt lat="47.22958" lon="6.03739">
        <ele>303</ele>
        <time>2026-07-08T12:19:29Z</time>
      </trkpt>
      <trkpt lat="47.22954" lon="6.03742">
        <ele>303.2</ele>
        <time>2026-07-08T12:19:30Z</time>
      </trkpt>
      <trkpt lat="47.2295" lon="6.03745">
        <ele>303</ele>
        <time>2026-07-08T12:19:31Z</time>
      </trkpt>
      <trkpt lat="47.22946" lon="6.03748">
        <ele>303.2</ele>
        <time>2026-07-08T12:19:32Z</time>
      </trkpt>
      <trkpt lat="47.22942" lon="6.03752">
        <ele>303.2</ele>
        <time>2026-07-08T12:19:33Z</time>
      </trkpt>
      <trkpt lat="47.22938" lon="6.03755">
        <ele>303.2</ele>
        <time>2026-07-08T12:19:34Z</time>
      </trkpt>
      <trkpt lat="47.22935" lon="6.03758">
        <ele>303.4</ele>
        <time>2026-07-08T12:19:35Z</time>
      </trkpt>
      <trkpt lat="47.22931" lon="6.03761">
        <ele>303.2</ele>
        <time>2026-07-08T12:19:36Z</time>
      </trkpt>
      <trkpt lat="47.22928" lon="6.03764">
        <ele>303.4</ele>
        <time>2026-07-08T12:19:37Z</time>
      </trkpt>
      <trkpt lat="47.22925" lon="6.03768">
        <ele>303.2</ele>
        <time>2026-07-08T12:19:38Z</time>
      </trkpt>
      <trkpt lat="47.22921" lon="6.03771">
        <ele>303.6</ele>
        <time>2026-07-08T12:19:39Z</time>
      </trkpt>
      <trkpt lat="47.22918" lon="6.03773">
        <ele>303.8</ele>
        <time>2026-07-08T12:19:40Z</time>
      </trkpt>
      <trkpt lat="47.22915" lon="6.03776">
        <ele>303.8</ele>
        <time>2026-07-08T12:19:41Z</time>
      </trkpt>
      <trkpt lat="47.22911" lon="6.03779">
        <ele>304</ele>
        <time>2026-07-08T12:19:42Z</time>
      </trkpt>
      <trkpt lat="47.22909" lon="6.03782">
        <ele>304</ele>
        <time>2026-07-08T12:19:43Z</time>
      </trkpt>
      <trkpt lat="47.22906" lon="6.03785">
        <ele>304</ele>
        <time>2026-07-08T12:19:44Z</time>
      </trkpt>
      <trkpt lat="47.22903" lon="6.03788">
        <ele>304.2</ele>
        <time>2026-07-08T12:19:45Z</time>
      </trkpt>
      <trkpt lat="47.229" lon="6.03791">
        <ele>304.2</ele>
        <time>2026-07-08T12:19:46Z</time>
      </trkpt>
      <trkpt lat="47.22897" lon="6.03794">
        <ele>304.4</ele>
        <time>2026-07-08T12:19:47Z</time>
      </trkpt>
      <trkpt lat="47.22894" lon="6.03797">
        <ele>304.4</ele>
        <time>2026-07-08T12:19:48Z</time>
      </trkpt>
      <trkpt lat="47.22891" lon="6.03799">
        <ele>304.6</ele>
        <time>2026-07-08T12:19:49Z</time>
      </trkpt>
      <trkpt lat="47.22888" lon="6.03802">
        <ele>304.6</ele>
        <time>2026-07-08T12:19:50Z</time>
      </trkpt>
      <trkpt lat="47.22885" lon="6.03804">
        <ele>305</ele>
        <time>2026-07-08T12:19:51Z</time>
      </trkpt>
      <trkpt lat="47.22882" lon="6.03807">
        <ele>305</ele>
        <time>2026-07-08T12:19:52Z</time>
      </trkpt>
      <trkpt lat="47.2288" lon="6.0381">
        <ele>305</ele>
        <time>2026-07-08T12:19:53Z</time>
      </trkpt>
      <trkpt lat="47.22877" lon="6.03812">
        <ele>305.4</ele>
        <time>2026-07-08T12:19:54Z</time>
      </trkpt>
      <trkpt lat="47.22875" lon="6.03814">
        <ele>305.8</ele>
        <time>2026-07-08T12:19:55Z</time>
      </trkpt>
      <trkpt lat="47.22872" lon="6.03816">
        <ele>305.8</ele>
        <time>2026-07-08T12:19:56Z</time>
      </trkpt>
      <trkpt lat="47.2287" lon="6.03818">
        <ele>306</ele>
        <time>2026-07-08T12:19:57Z</time>
      </trkpt>
      <trkpt lat="47.22868" lon="6.03819">
        <ele>306.2</ele>
        <time>2026-07-08T12:19:58Z</time>
      </trkpt>
      <trkpt lat="47.22866" lon="6.0382">
        <ele>306.4</ele>
        <time>2026-07-08T12:19:59Z</time>
      </trkpt>
      <trkpt lat="47.22863" lon="6.03821">
        <ele>306.6</ele>
        <time>2026-07-08T12:20:00Z</time>
      </trkpt>
      <trkpt lat="47.22861" lon="6.03822">
        <ele>307</ele>
        <time>2026-07-08T12:20:01Z</time>
      </trkpt>
      <trkpt lat="47.2286" lon="6.03824">
        <ele>307</ele>
        <time>2026-07-08T12:20:02Z</time>
      </trkpt>
      <trkpt lat="47.22858" lon="6.03826">
        <ele>307.2</ele>
        <time>2026-07-08T12:20:03Z</time>
      </trkpt>
      <trkpt lat="47.22857" lon="6.03827">
        <ele>307.4</ele>
        <time>2026-07-08T12:20:04Z</time>
      </trkpt>
      <trkpt lat="47.22852" lon="6.03826">
        <ele>307.8</ele>
        <time>2026-07-08T12:20:05Z</time>
      </trkpt>
      <trkpt lat="47.22848" lon="6.03825">
        <ele>308</ele>
        <time>2026-07-08T12:20:06Z</time>
      </trkpt>
      <trkpt lat="47.22844" lon="6.03825">
        <ele>308</ele>
        <time>2026-07-08T12:20:07Z</time>
      </trkpt>
      <trkpt lat="47.22841" lon="6.03824">
        <ele>308.2</ele>
        <time>2026-07-08T12:20:08Z</time>
      </trkpt>
      <trkpt lat="47.22837" lon="6.03822">
        <ele>308.6</ele>
        <time>2026-07-08T12:20:09Z</time>
      </trkpt>
      <trkpt lat="47.22832" lon="6.0382">
        <ele>308.8</ele>
        <time>2026-07-08T12:20:10Z</time>
      </trkpt>
      <trkpt lat="47.22828" lon="6.0382">
        <ele>309</ele>
        <time>2026-07-08T12:20:11Z</time>
      </trkpt>
      <trkpt lat="47.22825" lon="6.03821">
        <ele>309</ele>
        <time>2026-07-08T12:20:12Z</time>
      </trkpt>
      <trkpt lat="47.2282" lon="6.03821">
        <ele>309.2</ele>
        <time>2026-07-08T12:20:13Z</time>
      </trkpt>
      <trkpt lat="47.22817" lon="6.03821">
        <ele>309.2</ele>
        <time>2026-07-08T12:20:14Z</time>
      </trkpt>
      <trkpt lat="47.22814" lon="6.03821">
        <ele>309.6</ele>
        <time>2026-07-08T12:20:15Z</time>
      </trkpt>
      <trkpt lat="47.2281" lon="6.03821">
        <ele>309.6</ele>
        <time>2026-07-08T12:20:16Z</time>
      </trkpt>
      <trkpt lat="47.22807" lon="6.03822">
        <ele>309.8</ele>
        <time>2026-07-08T12:20:17Z</time>
      </trkpt>
      <trkpt lat="47.22804" lon="6.03822">
        <ele>310</ele>
        <time>2026-07-08T12:20:18Z</time>
      </trkpt>
      <trkpt lat="47.22801" lon="6.03823">
        <ele>310.2</ele>
        <time>2026-07-08T12:20:19Z</time>
      </trkpt>
      <trkpt lat="47.22799" lon="6.03824">
        <ele>310.4</ele>
        <time>2026-07-08T12:20:20Z</time>
      </trkpt>
      <trkpt lat="47.22797" lon="6.03824">
        <ele>310.8</ele>
        <time>2026-07-08T12:20:21Z</time>
      </trkpt>
      <trkpt lat="47.22794" lon="6.03825">
        <ele>310.8</ele>
        <time>2026-07-08T12:20:22Z</time>
      </trkpt>
      <trkpt lat="47.22792" lon="6.03826">
        <ele>311</ele>
        <time>2026-07-08T12:20:23Z</time>
      </trkpt>
      <trkpt lat="47.22789" lon="6.03828">
        <ele>311.4</ele>
        <time>2026-07-08T12:20:24Z</time>
      </trkpt>
      <trkpt lat="47.22786" lon="6.03831">
        <ele>311.8</ele>
        <time>2026-07-08T12:20:25Z</time>
      </trkpt>
      <trkpt lat="47.22784" lon="6.03833">
        <ele>312</ele>
        <time>2026-07-08T12:20:26Z</time>
      </trkpt>
      <trkpt lat="47.22781" lon="6.03836">
        <ele>312</ele>
        <time>2026-07-08T12:20:27Z</time>
      </trkpt>
      <trkpt lat="47.22778" lon="6.03837">
        <ele>312.4</ele>
        <time>2026-07-08T12:20:28Z</time>
      </trkpt>
      <trkpt lat="47.22776" lon="6.0384">
        <ele>312.4</ele>
        <time>2026-07-08T12:20:29Z</time>
      </trkpt>
      <trkpt lat="47.22773" lon="6.03843">
        <ele>312.6</ele>
        <time>2026-07-08T12:20:30Z</time>
      </trkpt>
      <trkpt lat="47.22769" lon="6.03848">
        <ele>312.6</ele>
        <time>2026-07-08T12:20:31Z</time>
      </trkpt>
      <trkpt lat="47.22766" lon="6.03852">
        <ele>312.6</ele>
        <time>2026-07-08T12:20:32Z</time>
      </trkpt>
      <trkpt lat="47.22763" lon="6.03856">
        <ele>312.8</ele>
        <time>2026-07-08T12:20:33Z</time>
      </trkpt>
      <trkpt lat="47.2276" lon="6.0386">
        <ele>312.6</ele>
        <time>2026-07-08T12:20:34Z</time>
      </trkpt>
      <trkpt lat="47.22758" lon="6.03864">
        <ele>312.6</ele>
        <time>2026-07-08T12:20:35Z</time>
      </trkpt>
      <trkpt lat="47.22755" lon="6.03867">
        <ele>312.8</ele>
        <time>2026-07-08T12:20:36Z</time>
      </trkpt>
      <trkpt lat="47.22752" lon="6.0387">
        <ele>312.8</ele>
        <time>2026-07-08T12:20:37Z</time>
      </trkpt>
      <trkpt lat="47.2275" lon="6.03872">
        <ele>312.8</ele>
        <time>2026-07-08T12:20:38Z</time>
      </trkpt>
      <trkpt lat="47.22748" lon="6.03872">
        <ele>313</ele>
        <time>2026-07-08T12:20:39Z</time>
      </trkpt>
      <trkpt lat="47.22746" lon="6.03872">
        <ele>313</ele>
        <time>2026-07-08T12:20:40Z</time>
      </trkpt>
      <trkpt lat="47.22745" lon="6.03872">
        <ele>313</ele>
        <time>2026-07-08T12:20:41Z</time>
      </trkpt>
      <trkpt lat="47.22744" lon="6.0387">
        <ele>312.8</ele>
        <time>2026-07-08T12:20:42Z</time>
      </trkpt>
      <trkpt lat="47.22743" lon="6.03869">
        <ele>313</ele>
        <time>2026-07-08T12:20:43Z</time>
      </trkpt>
      <trkpt lat="47.22742" lon="6.03867">
        <ele>313</ele>
        <time>2026-07-08T12:20:44Z</time>
      </trkpt>
      <trkpt lat="47.22743" lon="6.03865">
        <ele>313</ele>
        <time>2026-07-08T12:20:45Z</time>
      </trkpt>
      <trkpt lat="47.22743" lon="6.03863">
        <ele>313.2</ele>
        <time>2026-07-08T12:20:46Z</time>
      </trkpt>
      <trkpt lat="47.22744" lon="6.03861">
        <ele>313.2</ele>
        <time>2026-07-08T12:20:47Z</time>
      </trkpt>
      <trkpt lat="47.22745" lon="6.03859">
        <ele>313.4</ele>
        <time>2026-07-08T12:20:48Z</time>
      </trkpt>
      <trkpt lat="47.22745" lon="6.03858">
        <ele>313.6</ele>
        <time>2026-07-08T12:20:49Z</time>
      </trkpt>
      <trkpt lat="47.22746" lon="6.03856">
        <ele>313.8</ele>
        <time>2026-07-08T12:20:50Z</time>
      </trkpt>
      <trkpt lat="47.22747" lon="6.03854">
        <ele>314</ele>
        <time>2026-07-08T12:20:51Z</time>
      </trkpt>
      <trkpt lat="47.22748" lon="6.03852">
        <ele>314.2</ele>
        <time>2026-07-08T12:20:52Z</time>
      </trkpt>
      <trkpt lat="47.2275" lon="6.03851">
        <ele>314.6</ele>
        <time>2026-07-08T12:20:53Z</time>
      </trkpt>
      <trkpt lat="47.22751" lon="6.03849">
        <ele>314.8</ele>
        <time>2026-07-08T12:20:54Z</time>
      </trkpt>
      <trkpt lat="47.22752" lon="6.03847">
        <ele>315</ele>
        <time>2026-07-08T12:20:55Z</time>
      </trkpt>
      <trkpt lat="47.22753" lon="6.03845">
        <ele>315</ele>
        <time>2026-07-08T12:20:56Z</time>
      </trkpt>
      <trkpt lat="47.22754" lon="6.03843">
        <ele>315</ele>
        <time>2026-07-08T12:20:57Z</time>
      </trkpt>
      <trkpt lat="47.22754" lon="6.03842">
        <ele>315.2</ele>
        <time>2026-07-08T12:20:58Z</time>
      </trkpt>
      <trkpt lat="47.22756" lon="6.0384">
        <ele>315.6</ele>
        <time>2026-07-08T12:20:59Z</time>
      </trkpt>
      <trkpt lat="47.22757" lon="6.03839">
        <ele>315.6</ele>
        <time>2026-07-08T12:21:00Z</time>
      </trkpt>
      <trkpt lat="47.22759" lon="6.03838">
        <ele>316</ele>
        <time>2026-07-08T12:21:01Z</time>
      </trkpt>
      <trkpt lat="47.22759" lon="6.03837">
        <ele>316.4</ele>
        <time>2026-07-08T12:21:02Z</time>
      </trkpt>
      <trkpt lat="47.2276" lon="6.03836">
        <ele>316.6</ele>
        <time>2026-07-08T12:21:03Z</time>
      </trkpt>
      <trkpt lat="47.22762" lon="6.03835">
        <ele>316.8</ele>
        <time>2026-07-08T12:21:04Z</time>
      </trkpt>
      <trkpt lat="47.22763" lon="6.03833">
        <ele>317</ele>
        <time>2026-07-08T12:21:05Z</time>
      </trkpt>
      <trkpt lat="47.22765" lon="6.03832">
        <ele>317.2</ele>
        <time>2026-07-08T12:21:06Z</time>
      </trkpt>
      <trkpt lat="47.22766" lon="6.03831">
        <ele>317.6</ele>
        <time>2026-07-08T12:21:07Z</time>
      </trkpt>
      <trkpt lat="47.22767" lon="6.03829">
        <ele>317.8</ele>
        <time>2026-07-08T12:21:08Z</time>
      </trkpt>
      <trkpt lat="47.22769" lon="6.03828">
        <ele>318</ele>
        <time>2026-07-08T12:21:09Z</time>
      </trkpt>
      <trkpt lat="47.2277" lon="6.03826">
        <ele>318.4</ele>
        <time>2026-07-08T12:21:10Z</time>
      </trkpt>
      <trkpt lat="47.22771" lon="6.03825">
        <ele>318.6</ele>
        <time>2026-07-08T12:21:11Z</time>
      </trkpt>
      <trkpt lat="47.22772" lon="6.03824">
        <ele>318.8</ele>
        <time>2026-07-08T12:21:12Z</time>
      </trkpt>
      <trkpt lat="47.22774" lon="6.03823">
        <ele>318.8</ele>
        <time>2026-07-08T12:21:13Z</time>
      </trkpt>
      <trkpt lat="47.22775" lon="6.03821">
        <ele>319.2</ele>
        <time>2026-07-08T12:21:14Z</time>
      </trkpt>
      <trkpt lat="47.22776" lon="6.0382">
        <ele>319.4</ele>
        <time>2026-07-08T12:21:15Z</time>
      </trkpt>
      <trkpt lat="47.22778" lon="6.03818">
        <ele>319.4</ele>
        <time>2026-07-08T12:21:16Z</time>
      </trkpt>
      <trkpt lat="47.22779" lon="6.03817">
        <ele>319.6</ele>
        <time>2026-07-08T12:21:17Z</time>
      </trkpt>
      <trkpt lat="47.2278" lon="6.03815">
        <ele>319.8</ele>
        <time>2026-07-08T12:21:18Z</time>
      </trkpt>
      <trkpt lat="47.22781" lon="6.03814">
        <ele>320</ele>
        <time>2026-07-08T12:21:19Z</time>
      </trkpt>
      <trkpt lat="47.22781" lon="6.03813">
        <ele>320</ele>
        <time>2026-07-08T12:21:20Z</time>
      </trkpt>
      <trkpt lat="47.22782" lon="6.03811">
        <ele>320.4</ele>
        <time>2026-07-08T12:21:21Z</time>
      </trkpt>
      <trkpt lat="47.22783" lon="6.03809">
        <ele>320.6</ele>
        <time>2026-07-08T12:21:22Z</time>
      </trkpt>
      <trkpt lat="47.22784" lon="6.03808">
        <ele>320.8</ele>
        <time>2026-07-08T12:21:23Z</time>
      </trkpt>
      <trkpt lat="47.22785" lon="6.03806">
        <ele>321</ele>
        <time>2026-07-08T12:21:24Z</time>
      </trkpt>
      <trkpt lat="47.22785" lon="6.03805">
        <ele>321.2</ele>
        <time>2026-07-08T12:21:25Z</time>
      </trkpt>
      <trkpt lat="47.22785" lon="6.03803">
        <ele>321.4</ele>
        <time>2026-07-08T12:21:26Z</time>
      </trkpt>
      <trkpt lat="47.22785" lon="6.03802">
        <ele>321.6</ele>
        <time>2026-07-08T12:21:27Z</time>
      </trkpt>
      <trkpt lat="47.22785" lon="6.03801">
        <ele>321.8</ele>
        <time>2026-07-08T12:21:28Z</time>
      </trkpt>
      <trkpt lat="47.22785" lon="6.038">
        <ele>322</ele>
        <time>2026-07-08T12:21:29Z</time>
      </trkpt>
      <trkpt lat="47.22785" lon="6.03799">
        <ele>322.2</ele>
        <time>2026-07-08T12:21:30Z</time>
      </trkpt>
      <trkpt lat="47.22784" lon="6.03798">
        <ele>322.4</ele>
        <time>2026-07-08T12:21:31Z</time>
      </trkpt>
      <trkpt lat="47.22784" lon="6.03797">
        <ele>322.8</ele>
        <time>2026-07-08T12:21:32Z</time>
      </trkpt>
      <trkpt lat="47.22783" lon="6.03796">
        <ele>322.8</ele>
        <time>2026-07-08T12:21:33Z</time>
      </trkpt>
      <trkpt lat="47.22783" lon="6.03795">
        <ele>323</ele>
        <time>2026-07-08T12:21:34Z</time>
      </trkpt>
      <trkpt lat="47.22783" lon="6.03794">
        <ele>323.4</ele>
        <time>2026-07-08T12:21:35Z</time>
      </trkpt>
      <trkpt lat="47.22782" lon="6.03792">
        <ele>323.6</ele>
        <time>2026-07-08T12:21:36Z</time>
      </trkpt>
      <trkpt lat="47.22781" lon="6.03792">
        <ele>323.8</ele>
        <time>2026-07-08T12:21:37Z</time>
      </trkpt>
      <trkpt lat="47.2278" lon="6.03791">
        <ele>323.8</ele>
        <time>2026-07-08T12:21:38Z</time>
      </trkpt>
      <trkpt lat="47.22778" lon="6.0379">
        <ele>324.4</ele>
        <time>2026-07-08T12:21:39Z</time>
      </trkpt>
      <trkpt lat="47.22777" lon="6.0379">
        <ele>324.4</ele>
        <time>2026-07-08T12:21:40Z</time>
      </trkpt>
      <trkpt lat="47.22775" lon="6.0379">
        <ele>324.6</ele>
        <time>2026-07-08T12:21:41Z</time>
      </trkpt>
      <trkpt lat="47.22774" lon="6.0379">
        <ele>324.6</ele>
        <time>2026-07-08T12:21:42Z</time>
      </trkpt>
      <trkpt lat="47.22773" lon="6.0379">
        <ele>324.8</ele>
        <time>2026-07-08T12:21:43Z</time>
      </trkpt>
      <trkpt lat="47.22772" lon="6.03789">
        <ele>325</ele>
        <time>2026-07-08T12:21:44Z</time>
      </trkpt>
      <trkpt lat="47.22771" lon="6.03789">
        <ele>325.2</ele>
        <time>2026-07-08T12:21:45Z</time>
      </trkpt>
      <trkpt lat="47.22771" lon="6.03788">
        <ele>325.4</ele>
        <time>2026-07-08T12:21:46Z</time>
      </trkpt>
      <trkpt lat="47.2277" lon="6.03786">
        <ele>325.4</ele>
        <time>2026-07-08T12:21:47Z</time>
      </trkpt>
      <trkpt lat="47.22769" lon="6.03785">
        <ele>325.8</ele>
        <time>2026-07-08T12:21:48Z</time>
      </trkpt>
      <trkpt lat="47.22768" lon="6.03785">
        <ele>326</ele>
        <time>2026-07-08T12:21:49Z</time>
      </trkpt>
      <trkpt lat="47.22767" lon="6.03784">
        <ele>326.2</ele>
        <time>2026-07-08T12:21:50Z</time>
      </trkpt>
      <trkpt lat="47.22765" lon="6.03785">
        <ele>326.4</ele>
        <time>2026-07-08T12:21:51Z</time>
      </trkpt>
      <trkpt lat="47.22764" lon="6.03785">
        <ele>326.4</ele>
        <time>2026-07-08T12:21:52Z</time>
      </trkpt>
      <trkpt lat="47.22763" lon="6.03785">
        <ele>326.6</ele>
        <time>2026-07-08T12:21:53Z</time>
      </trkpt>
      <trkpt lat="47.22761" lon="6.03786">
        <ele>326.8</ele>
        <time>2026-07-08T12:21:54Z</time>
      </trkpt>
      <trkpt lat="47.2276" lon="6.03787">
        <ele>327</ele>
        <time>2026-07-08T12:21:55Z</time>
      </trkpt>
      <trkpt lat="47.22759" lon="6.03787">
        <ele>327</ele>
        <time>2026-07-08T12:21:56Z</time>
      </trkpt>
      <trkpt lat="47.22757" lon="6.03787">
        <ele>327.2</ele>
        <time>2026-07-08T12:21:57Z</time>
      </trkpt>
      <trkpt lat="47.22756" lon="6.03787">
        <ele>327.4</ele>
        <time>2026-07-08T12:21:58Z</time>
      </trkpt>
      <trkpt lat="47.22755" lon="6.03787">
        <ele>327.8</ele>
        <time>2026-07-08T12:21:59Z</time>
      </trkpt>
      <trkpt lat="47.22753" lon="6.03787">
        <ele>328</ele>
        <time>2026-07-08T12:22:00Z</time>
      </trkpt>
      <trkpt lat="47.22752" lon="6.03788">
        <ele>328</ele>
        <time>2026-07-08T12:22:01Z</time>
      </trkpt>
      <trkpt lat="47.22751" lon="6.03789">
        <ele>328.2</ele>
        <time>2026-07-08T12:22:02Z</time>
      </trkpt>
      <trkpt lat="47.2275" lon="6.0379">
        <ele>328.4</ele>
        <time>2026-07-08T12:22:03Z</time>
      </trkpt>
      <trkpt lat="47.22749" lon="6.03792">
        <ele>328.4</ele>
        <time>2026-07-08T12:22:04Z</time>
      </trkpt>
      <trkpt lat="47.22748" lon="6.03793">
        <ele>328.8</ele>
        <time>2026-07-08T12:22:05Z</time>
      </trkpt>
      <trkpt lat="47.22746" lon="6.03794">
        <ele>328.8</ele>
        <time>2026-07-08T12:22:06Z</time>
      </trkpt>
      <trkpt lat="47.22745" lon="6.03795">
        <ele>329.2</ele>
        <time>2026-07-08T12:22:07Z</time>
      </trkpt>
      <trkpt lat="47.22744" lon="6.03796">
        <ele>329.2</ele>
        <time>2026-07-08T12:22:08Z</time>
      </trkpt>
      <trkpt lat="47.22743" lon="6.03797">
        <ele>329.6</ele>
        <time>2026-07-08T12:22:09Z</time>
      </trkpt>
      <trkpt lat="47.22742" lon="6.03796">
        <ele>329.8</ele>
        <time>2026-07-08T12:22:10Z</time>
      </trkpt>
      <trkpt lat="47.2274" lon="6.03795">
        <ele>330</ele>
        <time>2026-07-08T12:22:11Z</time>
      </trkpt>
      <trkpt lat="47.2274" lon="6.03794">
        <ele>330.2</ele>
        <time>2026-07-08T12:22:12Z</time>
      </trkpt>
      <trkpt lat="47.22739" lon="6.03793">
        <ele>330.6</ele>
        <time>2026-07-08T12:22:13Z</time>
      </trkpt>
      <trkpt lat="47.22738" lon="6.03791">
        <ele>330.8</ele>
        <time>2026-07-08T12:22:14Z</time>
      </trkpt>
      <trkpt lat="47.22738" lon="6.0379">
        <ele>331</ele>
        <time>2026-07-08T12:22:15Z</time>
      </trkpt>
      <trkpt lat="47.22738" lon="6.03788">
        <ele>331.2</ele>
        <time>2026-07-08T12:22:16Z</time>
      </trkpt>
      <trkpt lat="47.22737" lon="6.03786">
        <ele>331.2</ele>
        <time>2026-07-08T12:22:17Z</time>
      </trkpt>
      <trkpt lat="47.22736" lon="6.03785">
        <ele>331.6</ele>
        <time>2026-07-08T12:22:18Z</time>
      </trkpt>
      <trkpt lat="47.22736" lon="6.03783">
        <ele>331.8</ele>
        <time>2026-07-08T12:22:19Z</time>
      </trkpt>
      <trkpt lat="47.22735" lon="6.03781">
        <ele>331.8</ele>
        <time>2026-07-08T12:22:20Z</time>
      </trkpt>
      <trkpt lat="47.22734" lon="6.0378">
        <ele>332</ele>
        <time>2026-07-08T12:22:21Z</time>
      </trkpt>
      <trkpt lat="47.22734" lon="6.03778">
        <ele>332.2</ele>
        <time>2026-07-08T12:22:22Z</time>
      </trkpt>
      <trkpt lat="47.22734" lon="6.03776">
        <ele>332.4</ele>
        <time>2026-07-08T12:22:23Z</time>
      </trkpt>
      <trkpt lat="47.22734" lon="6.03775">
        <ele>332.6</ele>
        <time>2026-07-08T12:22:24Z</time>
      </trkpt>
      <trkpt lat="47.22734" lon="6.03774">
        <ele>332.8</ele>
        <time>2026-07-08T12:22:25Z</time>
      </trkpt>
      <trkpt lat="47.22735" lon="6.03773">
        <ele>333</ele>
        <time>2026-07-08T12:22:26Z</time>
      </trkpt>
      <trkpt lat="47.22735" lon="6.03772">
        <ele>333</ele>
        <time>2026-07-08T12:22:27Z</time>
      </trkpt>
      <trkpt lat="47.22736" lon="6.03772">
        <ele>333.2</ele>
        <time>2026-07-08T12:22:28Z</time>
      </trkpt>
      <trkpt lat="47.22737" lon="6.03771">
        <ele>333.4</ele>
        <time>2026-07-08T12:22:29Z</time>
      </trkpt>
      <trkpt lat="47.22737" lon="6.0377">
        <ele>333.6</ele>
        <time>2026-07-08T12:22:30Z</time>
      </trkpt>
      <trkpt lat="47.22737" lon="6.03769">
        <ele>333.8</ele>
        <time>2026-07-08T12:22:31Z</time>
      </trkpt>
      <trkpt lat="47.22737" lon="6.03769">
        <ele>333.8</ele>
        <time>2026-07-08T12:22:32Z</time>
      </trkpt>
      <trkpt lat="47.22738" lon="6.03768">
        <ele>334.2</ele>
        <time>2026-07-08T12:22:33Z</time>
      </trkpt>
      <trkpt lat="47.22739" lon="6.03768">
        <ele>334.4</ele>
        <time>2026-07-08T12:22:34Z</time>
      </trkpt>
      <trkpt lat="47.2274" lon="6.03767">
        <ele>334.8</ele>
        <time>2026-07-08T12:22:35Z</time>
      </trkpt>
      <trkpt lat="47.2274" lon="6.03766">
        <ele>335</ele>
        <time>2026-07-08T12:22:36Z</time>
      </trkpt>
      <trkpt lat="47.22741" lon="6.03765">
        <ele>335.2</ele>
        <time>2026-07-08T12:22:37Z</time>
      </trkpt>
      <trkpt lat="47.22741" lon="6.03764">
        <ele>335.2</ele>
        <time>2026-07-08T12:22:38Z</time>
      </trkpt>
      <trkpt lat="47.22742" lon="6.03763">
        <ele>335.4</ele>
        <time>2026-07-08T12:22:39Z</time>
      </trkpt>
      <trkpt lat="47.22743" lon="6.03762">
        <ele>335.8</ele>
        <time>2026-07-08T12:22:40Z</time>
      </trkpt>
      <trkpt lat="47.22745" lon="6.03761">
        <ele>336</ele>
        <time>2026-07-08T12:22:41Z</time>
      </trkpt>
      <trkpt lat="47.22747" lon="6.03761">
        <ele>336</ele>
        <time>2026-07-08T12:22:42Z</time>
      </trkpt>
      <trkpt lat="47.22748" lon="6.0376">
        <ele>336.4</ele>
        <time>2026-07-08T12:22:43Z</time>
      </trkpt>
      <trkpt lat="47.2275" lon="6.03758">
        <ele>336.6</ele>
        <time>2026-07-08T12:22:44Z</time>
      </trkpt>
      <trkpt lat="47.22751" lon="6.03757">
        <ele>336.6</ele>
        <time>2026-07-08T12:22:45Z</time>
      </trkpt>
      <trkpt lat="47.22753" lon="6.03756">
        <ele>337</ele>
        <time>2026-07-08T12:22:46Z</time>
      </trkpt>
      <trkpt lat="47.22755" lon="6.03755">
        <ele>337.2</ele>
        <time>2026-07-08T12:22:47Z</time>
      </trkpt>
      <trkpt lat="47.22756" lon="6.03754">
        <ele>337.4</ele>
        <time>2026-07-08T12:22:48Z</time>
      </trkpt>
      <trkpt lat="47.22758" lon="6.03753">
        <ele>337.4</ele>
        <time>2026-07-08T12:22:49Z</time>
      </trkpt>
      <trkpt lat="47.22759" lon="6.03752">
        <ele>337.6</ele>
        <time>2026-07-08T12:22:50Z</time>
      </trkpt>
      <trkpt lat="47.2276" lon="6.03752">
        <ele>337.8</ele>
        <time>2026-07-08T12:22:51Z</time>
      </trkpt>
      <trkpt lat="47.22761" lon="6.03751">
        <ele>338.2</ele>
        <time>2026-07-08T12:22:52Z</time>
      </trkpt>
      <trkpt lat="47.22761" lon="6.03749">
        <ele>338.4</ele>
        <time>2026-07-08T12:22:53Z</time>
      </trkpt>
      <trkpt lat="47.22761" lon="6.03748">
        <ele>338.6</ele>
        <time>2026-07-08T12:22:54Z</time>
      </trkpt>
      <trkpt lat="47.22761" lon="6.03747">
        <ele>338.8</ele>
        <time>2026-07-08T12:22:55Z</time>
      </trkpt>
      <trkpt lat="47.22761" lon="6.03745">
        <ele>339</ele>
        <time>2026-07-08T12:22:56Z</time>
      </trkpt>
      <trkpt lat="47.22761" lon="6.03744">
        <ele>339.2</ele>
        <time>2026-07-08T12:22:57Z</time>
      </trkpt>
      <trkpt lat="47.22761" lon="6.03743">
        <ele>339.4</ele>
        <time>2026-07-08T12:22:58Z</time>
      </trkpt>
      <trkpt lat="47.2276" lon="6.03742">
        <ele>339.8</ele>
        <time>2026-07-08T12:22:59Z</time>
      </trkpt>
      <trkpt lat="47.2276" lon="6.03741">
        <ele>340.2</ele>
        <time>2026-07-08T12:23:00Z</time>
      </trkpt>
      <trkpt lat="47.22759" lon="6.0374">
        <ele>340.4</ele>
        <time>2026-07-08T12:23:01Z</time>
      </trkpt>
      <trkpt lat="47.22759" lon="6.03739">
        <ele>340.6</ele>
        <time>2026-07-08T12:23:02Z</time>
      </trkpt>
      <trkpt lat="47.22758" lon="6.03739">
        <ele>340.8</ele>
        <time>2026-07-08T12:23:03Z</time>
      </trkpt>
      <trkpt lat="47.22757" lon="6.03739">
        <ele>341</ele>
        <time>2026-07-08T12:23:04Z</time>
      </trkpt>
      <trkpt lat="47.22756" lon="6.03738">
        <ele>341.4</ele>
        <time>2026-07-08T12:23:05Z</time>
      </trkpt>
      <trkpt lat="47.22755" lon="6.03738">
        <ele>341.6</ele>
        <time>2026-07-08T12:23:06Z</time>
      </trkpt>
      <trkpt lat="47.22754" lon="6.03738">
        <ele>341.6</ele>
        <time>2026-07-08T12:23:07Z</time>
      </trkpt>
      <trkpt lat="47.22753" lon="6.03738">
        <ele>341.8</ele>
        <time>2026-07-08T12:23:08Z</time>
      </trkpt>
      <trkpt lat="47.22752" lon="6.03738">
        <ele>342.2</ele>
        <time>2026-07-08T12:23:09Z</time>
      </trkpt>
      <trkpt lat="47.22751" lon="6.03739">
        <ele>342.4</ele>
        <time>2026-07-08T12:23:10Z</time>
      </trkpt>
      <trkpt lat="47.2275" lon="6.03739">
        <ele>342.4</ele>
        <time>2026-07-08T12:23:11Z</time>
      </trkpt>
      <trkpt lat="47.22749" lon="6.0374">
        <ele>342.6</ele>
        <time>2026-07-08T12:23:12Z</time>
      </trkpt>
      <trkpt lat="47.22748" lon="6.03741">
        <ele>342.8</ele>
        <time>2026-07-08T12:23:13Z</time>
      </trkpt>
      <trkpt lat="47.22748" lon="6.03741">
        <ele>342.8</ele>
        <time>2026-07-08T12:23:14Z</time>
      </trkpt>
      <trkpt lat="47.22747" lon="6.03742">
        <ele>343</ele>
        <time>2026-07-08T12:23:15Z</time>
      </trkpt>
      <trkpt lat="47.22746" lon="6.03742">
        <ele>343.2</ele>
        <time>2026-07-08T12:23:16Z</time>
      </trkpt>
      <trkpt lat="47.22745" lon="6.03743">
        <ele>343.4</ele>
        <time>2026-07-08T12:23:17Z</time>
      </trkpt>
      <trkpt lat="47.22744" lon="6.03743">
        <ele>343.6</ele>
        <time>2026-07-08T12:23:18Z</time>
      </trkpt>
      <trkpt lat="47.22742" lon="6.03743">
        <ele>343.8</ele>
        <time>2026-07-08T12:23:19Z</time>
      </trkpt>
      <trkpt lat="47.22741" lon="6.03743">
        <ele>344</ele>
        <time>2026-07-08T12:23:20Z</time>
      </trkpt>
      <trkpt lat="47.22741" lon="6.03744">
        <ele>344</ele>
        <time>2026-07-08T12:23:21Z</time>
      </trkpt>
      <trkpt lat="47.2274" lon="6.03744">
        <ele>344.2</ele>
        <time>2026-07-08T12:23:22Z</time>
      </trkpt>
      <trkpt lat="47.22739" lon="6.03744">
        <ele>344.4</ele>
        <time>2026-07-08T12:23:23Z</time>
      </trkpt>
      <trkpt lat="47.22738" lon="6.03744">
        <ele>344.6</ele>
        <time>2026-07-08T12:23:24Z</time>
      </trkpt>
      <trkpt lat="47.22737" lon="6.03745">
        <ele>344.6</ele>
        <time>2026-07-08T12:23:25Z</time>
      </trkpt>
      <trkpt lat="47.22737" lon="6.03745">
        <ele>344.8</ele>
        <time>2026-07-08T12:23:26Z</time>
      </trkpt>
      <trkpt lat="47.22736" lon="6.03745">
        <ele>345</ele>
        <time>2026-07-08T12:23:27Z</time>
      </trkpt>
      <trkpt lat="47.22734" lon="6.03745">
        <ele>345.4</ele>
        <time>2026-07-08T12:23:28Z</time>
      </trkpt>
      <trkpt lat="47.22733" lon="6.03745">
        <ele>345.4</ele>
        <time>2026-07-08T12:23:29Z</time>
      </trkpt>
      <trkpt lat="47.22732" lon="6.03746">
        <ele>345.6</ele>
        <time>2026-07-08T12:23:30Z</time>
      </trkpt>
      <trkpt lat="47.2273" lon="6.03746">
        <ele>345.8</ele>
        <time>2026-07-08T12:23:31Z</time>
      </trkpt>
      <trkpt lat="47.22728" lon="6.03747">
        <ele>346</ele>
        <time>2026-07-08T12:23:32Z</time>
      </trkpt>
      <trkpt lat="47.22727" lon="6.03747">
        <ele>346.4</ele>
        <time>2026-07-08T12:23:33Z</time>
      </trkpt>
      <trkpt lat="47.22725" lon="6.03748">
        <ele>346.4</ele>
        <time>2026-07-08T12:23:34Z</time>
      </trkpt>
      <trkpt lat="47.22723" lon="6.03749">
        <ele>346.6</ele>
        <time>2026-07-08T12:23:35Z</time>
      </trkpt>
      <trkpt lat="47.22722" lon="6.03749">
        <ele>346.6</ele>
        <time>2026-07-08T12:23:36Z</time>
      </trkpt>
      <trkpt lat="47.2272" lon="6.03749">
        <ele>347</ele>
        <time>2026-07-08T12:23:37Z</time>
      </trkpt>
      <trkpt lat="47.22719" lon="6.03747">
        <ele>347.2</ele>
        <time>2026-07-08T12:23:38Z</time>
      </trkpt>
      <trkpt lat="47.22718" lon="6.03746">
        <ele>347.6</ele>
        <time>2026-07-08T12:23:39Z</time>
      </trkpt>
      <trkpt lat="47.22718" lon="6.03744">
        <ele>347.8</ele>
        <time>2026-07-08T12:23:40Z</time>
      </trkpt>
      <trkpt lat="47.22718" lon="6.03743">
        <ele>348</ele>
        <time>2026-07-08T12:23:41Z</time>
      </trkpt>
      <trkpt lat="47.22717" lon="6.03741">
        <ele>348.2</ele>
        <time>2026-07-08T12:23:42Z</time>
      </trkpt>
      <trkpt lat="47.22716" lon="6.03739">
        <ele>348.4</ele>
        <time>2026-07-08T12:23:43Z</time>
      </trkpt>
      <trkpt lat="47.22716" lon="6.03736">
        <ele>348.6</ele>
        <time>2026-07-08T12:23:44Z</time>
      </trkpt>
      <trkpt lat="47.22716" lon="6.03734">
        <ele>348.8</ele>
        <time>2026-07-08T12:23:45Z</time>
      </trkpt>
      <trkpt lat="47.22716" lon="6.03732">
        <ele>349.2</ele>
        <time>2026-07-08T12:23:46Z</time>
      </trkpt>
      <trkpt lat="47.22716" lon="6.0373">
        <ele>349.4</ele>
        <time>2026-07-08T12:23:47Z</time>
      </trkpt>
      <trkpt lat="47.22717" lon="6.03729">
        <ele>349.6</ele>
        <time>2026-07-08T12:23:48Z</time>
      </trkpt>
      <trkpt lat="47.22717" lon="6.03728">
        <ele>349.8</ele>
        <time>2026-07-08T12:23:49Z</time>
      </trkpt>
      <trkpt lat="47.22718" lon="6.03727">
        <ele>350.2</ele>
        <time>2026-07-08T12:23:50Z</time>
      </trkpt>
      <trkpt lat="47.22719" lon="6.03727">
        <ele>350.2</ele>
        <time>2026-07-08T12:23:51Z</time>
      </trkpt>
      <trkpt lat="47.2272" lon="6.03727">
        <ele>350.2</ele>
        <time>2026-07-08T12:23:52Z</time>
      </trkpt>
      <trkpt lat="47.22721" lon="6.03727">
        <ele>350.4</ele>
        <time>2026-07-08T12:23:53Z</time>
      </trkpt>
      <trkpt lat="47.22722" lon="6.03727">
        <ele>350.4</ele>
        <time>2026-07-08T12:23:54Z</time>
      </trkpt>
      <trkpt lat="47.22723" lon="6.03727">
        <ele>350.8</ele>
        <time>2026-07-08T12:23:55Z</time>
      </trkpt>
      <trkpt lat="47.22723" lon="6.03727">
        <ele>350.8</ele>
        <time>2026-07-08T12:23:56Z</time>
      </trkpt>
      <trkpt lat="47.22723" lon="6.03727">
        <ele>350.8</ele>
        <time>2026-07-08T12:23:57Z</time>
      </trkpt>
      <trkpt lat="47.22724" lon="6.03726">
        <ele>351</ele>
        <time>2026-07-08T12:23:58Z</time>
      </trkpt>
      <trkpt lat="47.22725" lon="6.03726">
        <ele>351.4</ele>
        <time>2026-07-08T12:23:59Z</time>
      </trkpt>
      <trkpt lat="47.22726" lon="6.03725">
        <ele>351.4</ele>
        <time>2026-07-08T12:24:00Z</time>
      </trkpt>
      <trkpt lat="47.22727" lon="6.03723">
        <ele>351.6</ele>
        <time>2026-07-08T12:24:01Z</time>
      </trkpt>
      <trkpt lat="47.22728" lon="6.03722">
        <ele>351.8</ele>
        <time>2026-07-08T12:24:02Z</time>
      </trkpt>
      <trkpt lat="47.22729" lon="6.03721">
        <ele>351.8</ele>
        <time>2026-07-08T12:24:03Z</time>
      </trkpt>
      <trkpt lat="47.22731" lon="6.03719">
        <ele>352.2</ele>
        <time>2026-07-08T12:24:04Z</time>
      </trkpt>
      <trkpt lat="47.22731" lon="6.03717">
        <ele>352.4</ele>
        <time>2026-07-08T12:24:05Z</time>
      </trkpt>
      <trkpt lat="47.22732" lon="6.03716">
        <ele>352.6</ele>
        <time>2026-07-08T12:24:06Z</time>
      </trkpt>
      <trkpt lat="47.22733" lon="6.03714">
        <ele>352.8</ele>
        <time>2026-07-08T12:24:07Z</time>
      </trkpt>
      <trkpt lat="47.22734" lon="6.03712">
        <ele>352.8</ele>
        <time>2026-07-08T12:24:08Z</time>
      </trkpt>
      <trkpt lat="47.22735" lon="6.0371">
        <ele>353.2</ele>
        <time>2026-07-08T12:24:09Z</time>
      </trkpt>
      <trkpt lat="47.22735" lon="6.03708">
        <ele>353.4</ele>
        <time>2026-07-08T12:24:10Z</time>
      </trkpt>
      <trkpt lat="47.22737" lon="6.03706">
        <ele>353.4</ele>
        <time>2026-07-08T12:24:11Z</time>
      </trkpt>
      <trkpt lat="47.22738" lon="6.03705">
        <ele>353.4</ele>
        <time>2026-07-08T12:24:12Z</time>
      </trkpt>
      <trkpt lat="47.22739" lon="6.03703">
        <ele>353.8</ele>
        <time>2026-07-08T12:24:13Z</time>
      </trkpt>
      <trkpt lat="47.22741" lon="6.03702">
        <ele>354</ele>
        <time>2026-07-08T12:24:14Z</time>
      </trkpt>
      <trkpt lat="47.22742" lon="6.037">
        <ele>354.2</ele>
        <time>2026-07-08T12:24:15Z</time>
      </trkpt>
      <trkpt lat="47.22742" lon="6.03699">
        <ele>354.4</ele>
        <time>2026-07-08T12:24:16Z</time>
      </trkpt>
      <trkpt lat="47.22743" lon="6.03697">
        <ele>354.6</ele>
        <time>2026-07-08T12:24:17Z</time>
      </trkpt>
      <trkpt lat="47.22743" lon="6.03696">
        <ele>354.6</ele>
        <time>2026-07-08T12:24:18Z</time>
      </trkpt>
      <trkpt lat="47.22743" lon="6.03694">
        <ele>354.8</ele>
        <time>2026-07-08T12:24:19Z</time>
      </trkpt>
      <trkpt lat="47.22743" lon="6.03692">
        <ele>355</ele>
        <time>2026-07-08T12:24:20Z</time>
      </trkpt>
      <trkpt lat="47.22743" lon="6.03689">
        <ele>355</ele>
        <time>2026-07-08T12:24:21Z</time>
      </trkpt>
      <trkpt lat="47.22743" lon="6.03687">
        <ele>355.4</ele>
        <time>2026-07-08T12:24:22Z</time>
      </trkpt>
      <trkpt lat="47.22743" lon="6.03685">
        <ele>355.4</ele>
        <time>2026-07-08T12:24:23Z</time>
      </trkpt>
      <trkpt lat="47.22742" lon="6.03683">
        <ele>355.6</ele>
        <time>2026-07-08T12:24:24Z</time>
      </trkpt>
      <trkpt lat="47.22742" lon="6.03681">
        <ele>356</ele>
        <time>2026-07-08T12:24:25Z</time>
      </trkpt>
      <trkpt lat="47.22742" lon="6.0368">
        <ele>356.2</ele>
        <time>2026-07-08T12:24:26Z</time>
      </trkpt>
      <trkpt lat="47.22741" lon="6.03678">
        <ele>356.4</ele>
        <time>2026-07-08T12:24:27Z</time>
      </trkpt>
      <trkpt lat="47.22741" lon="6.03677">
        <ele>356.6</ele>
        <time>2026-07-08T12:24:28Z</time>
      </trkpt>
      <trkpt lat="47.22741" lon="6.03675">
        <ele>356.8</ele>
        <time>2026-07-08T12:24:29Z</time>
      </trkpt>
      <trkpt lat="47.2274" lon="6.03674">
        <ele>356.8</ele>
        <time>2026-07-08T12:24:30Z</time>
      </trkpt>
      <trkpt lat="47.22739" lon="6.03673">
        <ele>357</ele>
        <time>2026-07-08T12:24:31Z</time>
      </trkpt>
      <trkpt lat="47.22738" lon="6.03672">
        <ele>357.4</ele>
        <time>2026-07-08T12:24:32Z</time>
      </trkpt>
      <trkpt lat="47.22738" lon="6.03671">
        <ele>357.4</ele>
        <time>2026-07-08T12:24:33Z</time>
      </trkpt>
      <trkpt lat="47.22737" lon="6.0367">
        <ele>357.6</ele>
        <time>2026-07-08T12:24:34Z</time>
      </trkpt>
      <trkpt lat="47.22736" lon="6.03668">
        <ele>357.8</ele>
        <time>2026-07-08T12:24:35Z</time>
      </trkpt>
      <trkpt lat="47.22735" lon="6.03667">
        <ele>357.8</ele>
        <time>2026-07-08T12:24:36Z</time>
      </trkpt>
      <trkpt lat="47.22735" lon="6.03665">
        <ele>358.2</ele>
        <time>2026-07-08T12:24:37Z</time>
      </trkpt>
      <trkpt lat="47.22734" lon="6.03664">
        <ele>358.4</ele>
        <time>2026-07-08T12:24:38Z</time>
      </trkpt>
      <trkpt lat="47.22733" lon="6.03664">
        <ele>358.4</ele>
        <time>2026-07-08T12:24:39Z</time>
      </trkpt>
      <trkpt lat="47.22732" lon="6.03663">
        <ele>358.6</ele>
        <time>2026-07-08T12:24:40Z</time>
      </trkpt>
      <trkpt lat="47.22731" lon="6.03663">
        <ele>358.6</ele>
        <time>2026-07-08T12:24:41Z</time>
      </trkpt>
      <trkpt lat="47.2273" lon="6.03663">
        <ele>359</ele>
        <time>2026-07-08T12:24:42Z</time>
      </trkpt>
      <trkpt lat="47.22729" lon="6.03662">
        <ele>359</ele>
        <time>2026-07-08T12:24:43Z</time>
      </trkpt>
      <trkpt lat="47.22727" lon="6.03661">
        <ele>359.4</ele>
        <time>2026-07-08T12:24:44Z</time>
      </trkpt>
      <trkpt lat="47.22726" lon="6.0366">
        <ele>359.6</ele>
        <time>2026-07-08T12:24:45Z</time>
      </trkpt>
      <trkpt lat="47.22725" lon="6.03659">
        <ele>359.6</ele>
        <time>2026-07-08T12:24:46Z</time>
      </trkpt>
      <trkpt lat="47.22723" lon="6.03659">
        <ele>360</ele>
        <time>2026-07-08T12:24:47Z</time>
      </trkpt>
      <trkpt lat="47.22722" lon="6.03658">
        <ele>360.2</ele>
        <time>2026-07-08T12:24:48Z</time>
      </trkpt>
      <trkpt lat="47.22719" lon="6.03657">
        <ele>360.4</ele>
        <time>2026-07-08T12:24:49Z</time>
      </trkpt>
      <trkpt lat="47.22718" lon="6.03656">
        <ele>360.4</ele>
        <time>2026-07-08T12:24:50Z</time>
      </trkpt>
      <trkpt lat="47.22716" lon="6.03655">
        <ele>360.8</ele>
        <time>2026-07-08T12:24:51Z</time>
      </trkpt>
      <trkpt lat="47.22715" lon="6.03654">
        <ele>360.8</ele>
        <time>2026-07-08T12:24:52Z</time>
      </trkpt>
      <trkpt lat="47.22713" lon="6.03652">
        <ele>361</ele>
        <time>2026-07-08T12:24:53Z</time>
      </trkpt>
      <trkpt lat="47.22712" lon="6.03651">
        <ele>361.2</ele>
        <time>2026-07-08T12:24:54Z</time>
      </trkpt>
      <trkpt lat="47.2271" lon="6.03649">
        <ele>361.6</ele>
        <time>2026-07-08T12:24:55Z</time>
      </trkpt>
      <trkpt lat="47.22708" lon="6.03648">
        <ele>361.8</ele>
        <time>2026-07-08T12:24:56Z</time>
      </trkpt>
      <trkpt lat="47.22707" lon="6.03647">
        <ele>362</ele>
        <time>2026-07-08T12:24:57Z</time>
      </trkpt>
      <trkpt lat="47.22706" lon="6.03645">
        <ele>362</ele>
        <time>2026-07-08T12:24:58Z</time>
      </trkpt>
      <trkpt lat="47.22705" lon="6.03644">
        <ele>362.4</ele>
        <time>2026-07-08T12:24:59Z</time>
      </trkpt>
      <trkpt lat="47.22703" lon="6.03642">
        <ele>362.2</ele>
        <time>2026-07-08T12:25:00Z</time>
      </trkpt>
      <trkpt lat="47.22702" lon="6.03641">
        <ele>362.6</ele>
        <time>2026-07-08T12:25:01Z</time>
      </trkpt>
      <trkpt lat="47.22701" lon="6.0364">
        <ele>362.6</ele>
        <time>2026-07-08T12:25:02Z</time>
      </trkpt>
      <trkpt lat="47.22699" lon="6.03639">
        <ele>362.6</ele>
        <time>2026-07-08T12:25:03Z</time>
      </trkpt>
      <trkpt lat="47.22697" lon="6.03638">
        <ele>362.6</ele>
        <time>2026-07-08T12:25:04Z</time>
      </trkpt>
      <trkpt lat="47.22696" lon="6.03638">
        <ele>363</ele>
        <time>2026-07-08T12:25:05Z</time>
      </trkpt>
      <trkpt lat="47.22694" lon="6.03637">
        <ele>363.2</ele>
        <time>2026-07-08T12:25:06Z</time>
      </trkpt>
      <trkpt lat="47.22693" lon="6.03636">
        <ele>363.4</ele>
        <time>2026-07-08T12:25:07Z</time>
      </trkpt>
      <trkpt lat="47.22691" lon="6.03634">
        <ele>363.6</ele>
        <time>2026-07-08T12:25:08Z</time>
      </trkpt>
      <trkpt lat="47.2269" lon="6.03633">
        <ele>363.4</ele>
        <time>2026-07-08T12:25:09Z</time>
      </trkpt>
      <trkpt lat="47.22688" lon="6.03632">
        <ele>363.8</ele>
        <time>2026-07-08T12:25:10Z</time>
      </trkpt>
      <trkpt lat="47.22687" lon="6.0363">
        <ele>364</ele>
        <time>2026-07-08T12:25:11Z</time>
      </trkpt>
      <trkpt lat="47.22685" lon="6.03629">
        <ele>364.2</ele>
        <time>2026-07-08T12:25:12Z</time>
      </trkpt>
      <trkpt lat="47.22684" lon="6.03628">
        <ele>364.4</ele>
        <time>2026-07-08T12:25:13Z</time>
      </trkpt>
      <trkpt lat="47.22683" lon="6.03626">
        <ele>364.4</ele>
        <time>2026-07-08T12:25:14Z</time>
      </trkpt>
      <trkpt lat="47.22681" lon="6.03625">
        <ele>364.6</ele>
        <time>2026-07-08T12:25:15Z</time>
      </trkpt>
      <trkpt lat="47.2268" lon="6.03624">
        <ele>364.8</ele>
        <time>2026-07-08T12:25:16Z</time>
      </trkpt>
      <trkpt lat="47.22679" lon="6.03623">
        <ele>365</ele>
        <time>2026-07-08T12:25:17Z</time>
      </trkpt>
      <trkpt lat="47.22677" lon="6.03621">
        <ele>365.4</ele>
        <time>2026-07-08T12:25:18Z</time>
      </trkpt>
      <trkpt lat="47.22676" lon="6.0362">
        <ele>365.6</ele>
        <time>2026-07-08T12:25:19Z</time>
      </trkpt>
      <trkpt lat="47.22675" lon="6.03619">
        <ele>365.8</ele>
        <time>2026-07-08T12:25:20Z</time>
      </trkpt>
      <trkpt lat="47.22674" lon="6.03618">
        <ele>365.8</ele>
        <time>2026-07-08T12:25:21Z</time>
      </trkpt>
      <trkpt lat="47.22673" lon="6.03616">
        <ele>366</ele>
        <time>2026-07-08T12:25:22Z</time>
      </trkpt>
      <trkpt lat="47.22671" lon="6.03615">
        <ele>366.4</ele>
        <time>2026-07-08T12:25:23Z</time>
      </trkpt>
      <trkpt lat="47.2267" lon="6.03614">
        <ele>366.6</ele>
        <time>2026-07-08T12:25:24Z</time>
      </trkpt>
      <trkpt lat="47.22669" lon="6.03612">
        <ele>366.6</ele>
        <time>2026-07-08T12:25:25Z</time>
      </trkpt>
      <trkpt lat="47.22668" lon="6.03611">
        <ele>366.6</ele>
        <time>2026-07-08T12:25:26Z</time>
      </trkpt>
      <trkpt lat="47.22667" lon="6.03609">
        <ele>366.8</ele>
        <time>2026-07-08T12:25:27Z</time>
      </trkpt>
      <trkpt lat="47.22665" lon="6.03608">
        <ele>367</ele>
        <time>2026-07-08T12:25:28Z</time>
      </trkpt>
      <trkpt lat="47.22665" lon="6.03606">
        <ele>367.2</ele>
        <time>2026-07-08T12:25:29Z</time>
      </trkpt>
      <trkpt lat="47.22663" lon="6.03605">
        <ele>367.4</ele>
        <time>2026-07-08T12:25:30Z</time>
      </trkpt>
      <trkpt lat="47.22661" lon="6.03604">
        <ele>367.6</ele>
        <time>2026-07-08T12:25:31Z</time>
      </trkpt>
      <trkpt lat="47.22659" lon="6.03603">
        <ele>367.8</ele>
        <time>2026-07-08T12:25:32Z</time>
      </trkpt>
      <trkpt lat="47.22657" lon="6.03602">
        <ele>367.8</ele>
        <time>2026-07-08T12:25:33Z</time>
      </trkpt>
      <trkpt lat="47.22656" lon="6.03601">
        <ele>368</ele>
        <time>2026-07-08T12:25:34Z</time>
      </trkpt>
      <trkpt lat="47.22654" lon="6.03601">
        <ele>368.2</ele>
        <time>2026-07-08T12:25:35Z</time>
      </trkpt>
      <trkpt lat="47.22653" lon="6.036">
        <ele>368.4</ele>
        <time>2026-07-08T12:25:36Z</time>
      </trkpt>
      <trkpt lat="47.22651" lon="6.03599">
        <ele>368.6</ele>
        <time>2026-07-08T12:25:37Z</time>
      </trkpt>
      <trkpt lat="47.22649" lon="6.03598">
        <ele>368.8</ele>
        <time>2026-07-08T12:25:38Z</time>
      </trkpt>
      <trkpt lat="47.22648" lon="6.03597">
        <ele>369</ele>
        <time>2026-07-08T12:25:39Z</time>
      </trkpt>
      <trkpt lat="47.22647" lon="6.03596">
        <ele>369</ele>
        <time>2026-07-08T12:25:40Z</time>
      </trkpt>
      <trkpt lat="47.22645" lon="6.03595">
        <ele>369.2</ele>
        <time>2026-07-08T12:25:41Z</time>
      </trkpt>
      <trkpt lat="47.22644" lon="6.03595">
        <ele>369.2</ele>
        <time>2026-07-08T12:25:42Z</time>
      </trkpt>
      <trkpt lat="47.22642" lon="6.03594">
        <ele>369.6</ele>
        <time>2026-07-08T12:25:43Z</time>
      </trkpt>
      <trkpt lat="47.2264" lon="6.03594">
        <ele>369.6</ele>
        <time>2026-07-08T12:25:44Z</time>
      </trkpt>
      <trkpt lat="47.22639" lon="6.03595">
        <ele>370</ele>
        <time>2026-07-08T12:25:45Z</time>
      </trkpt>
      <trkpt lat="47.22637" lon="6.03595">
        <ele>370.2</ele>
        <time>2026-07-08T12:25:46Z</time>
      </trkpt>
      <trkpt lat="47.22636" lon="6.03595">
        <ele>370.2</ele>
        <time>2026-07-08T12:25:47Z</time>
      </trkpt>
      <trkpt lat="47.22634" lon="6.03595">
        <ele>370.2</ele>
        <time>2026-07-08T12:25:48Z</time>
      </trkpt>
      <trkpt lat="47.22632" lon="6.03595">
        <ele>370.6</ele>
        <time>2026-07-08T12:25:49Z</time>
      </trkpt>
      <trkpt lat="47.22631" lon="6.03595">
        <ele>370.8</ele>
        <time>2026-07-08T12:25:50Z</time>
      </trkpt>
      <trkpt lat="47.22631" lon="6.03594">
        <ele>371</ele>
        <time>2026-07-08T12:25:51Z</time>
      </trkpt>
      <trkpt lat="47.2263" lon="6.03593">
        <ele>371</ele>
        <time>2026-07-08T12:25:52Z</time>
      </trkpt>
      <trkpt lat="47.22629" lon="6.03593">
        <ele>371.2</ele>
        <time>2026-07-08T12:25:53Z</time>
      </trkpt>
      <trkpt lat="47.22629" lon="6.03593">
        <ele>371.2</ele>
        <time>2026-07-08T12:25:54Z</time>
      </trkpt>
      <trkpt lat="47.22627" lon="6.03592">
        <ele>371.4</ele>
        <time>2026-07-08T12:25:55Z</time>
      </trkpt>
      <trkpt lat="47.22626" lon="6.03592">
        <ele>371.6</ele>
        <time>2026-07-08T12:25:56Z</time>
      </trkpt>
      <trkpt lat="47.22625" lon="6.0359">
        <ele>371.6</ele>
        <time>2026-07-08T12:25:57Z</time>
      </trkpt>
      <trkpt lat="47.22624" lon="6.0359">
        <ele>371.8</ele>
        <time>2026-07-08T12:25:58Z</time>
      </trkpt>
      <trkpt lat="47.22622" lon="6.0359">
        <ele>371.8</ele>
        <time>2026-07-08T12:25:59Z</time>
      </trkpt>
      <trkpt lat="47.22621" lon="6.0359">
        <ele>372.2</ele>
        <time>2026-07-08T12:26:00Z</time>
      </trkpt>
      <trkpt lat="47.2262" lon="6.0359">
        <ele>372.4</ele>
        <time>2026-07-08T12:26:01Z</time>
      </trkpt>
      <trkpt lat="47.22618" lon="6.0359">
        <ele>372.6</ele>
        <time>2026-07-08T12:26:02Z</time>
      </trkpt>
      <trkpt lat="47.22616" lon="6.0359">
        <ele>372.6</ele>
        <time>2026-07-08T12:26:03Z</time>
      </trkpt>
      <trkpt lat="47.22614" lon="6.0359">
        <ele>372.8</ele>
        <time>2026-07-08T12:26:04Z</time>
      </trkpt>
      <trkpt lat="47.22612" lon="6.03589">
        <ele>372.8</ele>
        <time>2026-07-08T12:26:05Z</time>
      </trkpt>
      <trkpt lat="47.2261" lon="6.03589">
        <ele>373.2</ele>
        <time>2026-07-08T12:26:06Z</time>
      </trkpt>
      <trkpt lat="47.22608" lon="6.03589">
        <ele>373.4</ele>
        <time>2026-07-08T12:26:07Z</time>
      </trkpt>
      <trkpt lat="47.22605" lon="6.03589">
        <ele>373.4</ele>
        <time>2026-07-08T12:26:08Z</time>
      </trkpt>
      <trkpt lat="47.22603" lon="6.03589">
        <ele>373.8</ele>
        <time>2026-07-08T12:26:09Z</time>
      </trkpt>
      <trkpt lat="47.22601" lon="6.03588">
        <ele>373.8</ele>
        <time>2026-07-08T12:26:10Z</time>
      </trkpt>
      <trkpt lat="47.22599" lon="6.03588">
        <ele>374</ele>
        <time>2026-07-08T12:26:11Z</time>
      </trkpt>
      <trkpt lat="47.22597" lon="6.03587">
        <ele>374.2</ele>
        <time>2026-07-08T12:26:12Z</time>
      </trkpt>
      <trkpt lat="47.22596" lon="6.03586">
        <ele>374.4</ele>
        <time>2026-07-08T12:26:13Z</time>
      </trkpt>
      <trkpt lat="47.22594" lon="6.03585">
        <ele>374.6</ele>
        <time>2026-07-08T12:26:14Z</time>
      </trkpt>
      <trkpt lat="47.22593" lon="6.03583">
        <ele>374.8</ele>
        <time>2026-07-08T12:26:15Z</time>
      </trkpt>
      <trkpt lat="47.22591" lon="6.03582">
        <ele>374.8</ele>
        <time>2026-07-08T12:26:16Z</time>
      </trkpt>
      <trkpt lat="47.2259" lon="6.03581">
        <ele>375.2</ele>
        <time>2026-07-08T12:26:17Z</time>
      </trkpt>
      <trkpt lat="47.22588" lon="6.03581">
        <ele>375.2</ele>
        <time>2026-07-08T12:26:18Z</time>
      </trkpt>
      <trkpt lat="47.22586" lon="6.03581">
        <ele>375.4</ele>
        <time>2026-07-08T12:26:19Z</time>
      </trkpt>
      <trkpt lat="47.22585" lon="6.03581">
        <ele>375.6</ele>
        <time>2026-07-08T12:26:20Z</time>
      </trkpt>
      <trkpt lat="47.22583" lon="6.0358">
        <ele>376</ele>
        <time>2026-07-08T12:26:21Z</time>
      </trkpt>
      <trkpt lat="47.22581" lon="6.0358">
        <ele>376</ele>
        <time>2026-07-08T12:26:22Z</time>
      </trkpt>
      <trkpt lat="47.2258" lon="6.03579">
        <ele>376</ele>
        <time>2026-07-08T12:26:23Z</time>
      </trkpt>
      <trkpt lat="47.22578" lon="6.03579">
        <ele>376.2</ele>
        <time>2026-07-08T12:26:24Z</time>
      </trkpt>
      <trkpt lat="47.22577" lon="6.03577">
        <ele>376.2</ele>
        <time>2026-07-08T12:26:25Z</time>
      </trkpt>
      <trkpt lat="47.22575" lon="6.03576">
        <ele>376.6</ele>
        <time>2026-07-08T12:26:26Z</time>
      </trkpt>
      <trkpt lat="47.22574" lon="6.03574">
        <ele>376.8</ele>
        <time>2026-07-08T12:26:27Z</time>
      </trkpt>
      <trkpt lat="47.22573" lon="6.03573">
        <ele>376.8</ele>
        <time>2026-07-08T12:26:28Z</time>
      </trkpt>
      <trkpt lat="47.22571" lon="6.03572">
        <ele>377.2</ele>
        <time>2026-07-08T12:26:29Z</time>
      </trkpt>
      <trkpt lat="47.2257" lon="6.03571">
        <ele>377.2</ele>
        <time>2026-07-08T12:26:30Z</time>
      </trkpt>
      <trkpt lat="47.22568" lon="6.0357">
        <ele>377.6</ele>
        <time>2026-07-08T12:26:31Z</time>
      </trkpt>
      <trkpt lat="47.22567" lon="6.0357">
        <ele>377.6</ele>
        <time>2026-07-08T12:26:32Z</time>
      </trkpt>
      <trkpt lat="47.22565" lon="6.03569">
        <ele>377.6</ele>
        <time>2026-07-08T12:26:33Z</time>
      </trkpt>
      <trkpt lat="47.22564" lon="6.03568">
        <ele>377.8</ele>
        <time>2026-07-08T12:26:34Z</time>
      </trkpt>
      <trkpt lat="47.22562" lon="6.03568">
        <ele>378</ele>
        <time>2026-07-08T12:26:35Z</time>
      </trkpt>
      <trkpt lat="47.22561" lon="6.03567">
        <ele>378</ele>
        <time>2026-07-08T12:26:36Z</time>
      </trkpt>
      <trkpt lat="47.22559" lon="6.03566">
        <ele>378.2</ele>
        <time>2026-07-08T12:26:37Z</time>
      </trkpt>
      <trkpt lat="47.22558" lon="6.03566">
        <ele>378.6</ele>
        <time>2026-07-08T12:26:38Z</time>
      </trkpt>
      <trkpt lat="47.22557" lon="6.03565">
        <ele>378.8</ele>
        <time>2026-07-08T12:26:39Z</time>
      </trkpt>
      <trkpt lat="47.22555" lon="6.03564">
        <ele>379</ele>
        <time>2026-07-08T12:26:40Z</time>
      </trkpt>
      <trkpt lat="47.22554" lon="6.03563">
        <ele>379</ele>
        <time>2026-07-08T12:26:41Z</time>
      </trkpt>
      <trkpt lat="47.22553" lon="6.03563">
        <ele>379.2</ele>
        <time>2026-07-08T12:26:42Z</time>
      </trkpt>
      <trkpt lat="47.22551" lon="6.03562">
        <ele>379.2</ele>
        <time>2026-07-08T12:26:43Z</time>
      </trkpt>
      <trkpt lat="47.2255" lon="6.03562">
        <ele>379.4</ele>
        <time>2026-07-08T12:26:44Z</time>
      </trkpt>
      <trkpt lat="47.22548" lon="6.03561">
        <ele>379.6</ele>
        <time>2026-07-08T12:26:45Z</time>
      </trkpt>
      <trkpt lat="47.22547" lon="6.03561">
        <ele>379.6</ele>
        <time>2026-07-08T12:26:46Z</time>
      </trkpt>
      <trkpt lat="47.22545" lon="6.03561">
        <ele>379.8</ele>
        <time>2026-07-08T12:26:47Z</time>
      </trkpt>
      <trkpt lat="47.22544" lon="6.03561">
        <ele>379.8</ele>
        <time>2026-07-08T12:26:48Z</time>
      </trkpt>
      <trkpt lat="47.22542" lon="6.03562">
        <ele>380</ele>
        <time>2026-07-08T12:26:49Z</time>
      </trkpt>
      <trkpt lat="47.22541" lon="6.03562">
        <ele>380</ele>
        <time>2026-07-08T12:26:50Z</time>
      </trkpt>
      <trkpt lat="47.22539" lon="6.03562">
        <ele>380.2</ele>
        <time>2026-07-08T12:26:51Z</time>
      </trkpt>
      <trkpt lat="47.22537" lon="6.03563">
        <ele>380.6</ele>
        <time>2026-07-08T12:26:52Z</time>
      </trkpt>
      <trkpt lat="47.22536" lon="6.03564">
        <ele>380.8</ele>
        <time>2026-07-08T12:26:53Z</time>
      </trkpt>
      <trkpt lat="47.22534" lon="6.03565">
        <ele>380.8</ele>
        <time>2026-07-08T12:26:54Z</time>
      </trkpt>
      <trkpt lat="47.22533" lon="6.03565">
        <ele>380.8</ele>
        <time>2026-07-08T12:26:55Z</time>
      </trkpt>
      <trkpt lat="47.22532" lon="6.03566">
        <ele>381</ele>
        <time>2026-07-08T12:26:56Z</time>
      </trkpt>
      <trkpt lat="47.22532" lon="6.03567">
        <ele>381.4</ele>
        <time>2026-07-08T12:26:57Z</time>
      </trkpt>
      <trkpt lat="47.2253" lon="6.03568">
        <ele>381.4</ele>
        <time>2026-07-08T12:26:58Z</time>
      </trkpt>
      <trkpt lat="47.22529" lon="6.03569">
        <ele>381.6</ele>
        <time>2026-07-08T12:26:59Z</time>
      </trkpt>
      <trkpt lat="47.22528" lon="6.0357">
        <ele>381.8</ele>
        <time>2026-07-08T12:27:00Z</time>
      </trkpt>
      <trkpt lat="47.22526" lon="6.03572">
        <ele>382</ele>
        <time>2026-07-08T12:27:01Z</time>
      </trkpt>
      <trkpt lat="47.22525" lon="6.03573">
        <ele>382</ele>
        <time>2026-07-08T12:27:02Z</time>
      </trkpt>
      <trkpt lat="47.22524" lon="6.03574">
        <ele>382.2</ele>
        <time>2026-07-08T12:27:03Z</time>
      </trkpt>
      <trkpt lat="47.22523" lon="6.03575">
        <ele>382.4</ele>
        <time>2026-07-08T12:27:04Z</time>
      </trkpt>
      <trkpt lat="47.22521" lon="6.03576">
        <ele>382.4</ele>
        <time>2026-07-08T12:27:05Z</time>
      </trkpt>
      <trkpt lat="47.2252" lon="6.03577">
        <ele>382.6</ele>
        <time>2026-07-08T12:27:06Z</time>
      </trkpt>
      <trkpt lat="47.22519" lon="6.03578">
        <ele>382.8</ele>
        <time>2026-07-08T12:27:07Z</time>
      </trkpt>
      <trkpt lat="47.22518" lon="6.03579">
        <ele>382.8</ele>
        <time>2026-07-08T12:27:08Z</time>
      </trkpt>
      <trkpt lat="47.22518" lon="6.0358">
        <ele>383</ele>
        <time>2026-07-08T12:27:09Z</time>
      </trkpt>
      <trkpt lat="47.22517" lon="6.03581">
        <ele>383.2</ele>
        <time>2026-07-08T12:27:10Z</time>
      </trkpt>
      <trkpt lat="47.22515" lon="6.03582">
        <ele>383.4</ele>
        <time>2026-07-08T12:27:11Z</time>
      </trkpt>
      <trkpt lat="47.22514" lon="6.03583">
        <ele>383.6</ele>
        <time>2026-07-08T12:27:12Z</time>
      </trkpt>
      <trkpt lat="47.22514" lon="6.03585">
        <ele>384</ele>
        <time>2026-07-08T12:27:13Z</time>
      </trkpt>
      <trkpt lat="47.22512" lon="6.03587">
        <ele>384.2</ele>
        <time>2026-07-08T12:27:14Z</time>
      </trkpt>
      <trkpt lat="47.22511" lon="6.03588">
        <ele>384.4</ele>
        <time>2026-07-08T12:27:15Z</time>
      </trkpt>
      <trkpt lat="47.2251" lon="6.0359">
        <ele>384.4</ele>
        <time>2026-07-08T12:27:16Z</time>
      </trkpt>
      <trkpt lat="47.22509" lon="6.03591">
        <ele>384.4</ele>
        <time>2026-07-08T12:27:17Z</time>
      </trkpt>
      <trkpt lat="47.22507" lon="6.03593">
        <ele>384.6</ele>
        <time>2026-07-08T12:27:18Z</time>
      </trkpt>
      <trkpt lat="47.22505" lon="6.03595">
        <ele>384.6</ele>
        <time>2026-07-08T12:27:19Z</time>
      </trkpt>
      <trkpt lat="47.22504" lon="6.03596">
        <ele>384.8</ele>
        <time>2026-07-08T12:27:20Z</time>
      </trkpt>
      <trkpt lat="47.22502" lon="6.03598">
        <ele>385</ele>
        <time>2026-07-08T12:27:21Z</time>
      </trkpt>
      <trkpt lat="47.22501" lon="6.03599">
        <ele>385</ele>
        <time>2026-07-08T12:27:22Z</time>
      </trkpt>
      <trkpt lat="47.22499" lon="6.03601">
        <ele>385</ele>
        <time>2026-07-08T12:27:23Z</time>
      </trkpt>
      <trkpt lat="47.22497" lon="6.03603">
        <ele>385.2</ele>
        <time>2026-07-08T12:27:24Z</time>
      </trkpt>
      <trkpt lat="47.22496" lon="6.03605">
        <ele>385.4</ele>
        <time>2026-07-08T12:27:25Z</time>
      </trkpt>
      <trkpt lat="47.22494" lon="6.03606">
        <ele>385.4</ele>
        <time>2026-07-08T12:27:26Z</time>
      </trkpt>
      <trkpt lat="47.22492" lon="6.03608">
        <ele>385.6</ele>
        <time>2026-07-08T12:27:27Z</time>
      </trkpt>
      <trkpt lat="47.22491" lon="6.0361">
        <ele>385.8</ele>
        <time>2026-07-08T12:27:28Z</time>
      </trkpt>
      <trkpt lat="47.22489" lon="6.03611">
        <ele>386</ele>
        <time>2026-07-08T12:27:29Z</time>
      </trkpt>
      <trkpt lat="47.22488" lon="6.03613">
        <ele>386</ele>
        <time>2026-07-08T12:27:30Z</time>
      </trkpt>
      <trkpt lat="47.22486" lon="6.03614">
        <ele>386.2</ele>
        <time>2026-07-08T12:27:31Z</time>
      </trkpt>
      <trkpt lat="47.22485" lon="6.03615">
        <ele>386.4</ele>
        <time>2026-07-08T12:27:32Z</time>
      </trkpt>
      <trkpt lat="47.22483" lon="6.03616">
        <ele>386.4</ele>
        <time>2026-07-08T12:27:33Z</time>
      </trkpt>
      <trkpt lat="47.22481" lon="6.03617">
        <ele>386.6</ele>
        <time>2026-07-08T12:27:34Z</time>
      </trkpt>
      <trkpt lat="47.22479" lon="6.03618">
        <ele>386.8</ele>
        <time>2026-07-08T12:27:35Z</time>
      </trkpt>
      <trkpt lat="47.22478" lon="6.03619">
        <ele>387</ele>
        <time>2026-07-08T12:27:36Z</time>
      </trkpt>
      <trkpt lat="47.22476" lon="6.0362">
        <ele>387.4</ele>
        <time>2026-07-08T12:27:37Z</time>
      </trkpt>
      <trkpt lat="47.22474" lon="6.03621">
        <ele>387.4</ele>
        <time>2026-07-08T12:27:38Z</time>
      </trkpt>
      <trkpt lat="47.22473" lon="6.03622">
        <ele>387.4</ele>
        <time>2026-07-08T12:27:39Z</time>
      </trkpt>
      <trkpt lat="47.22471" lon="6.03623">
        <ele>387.6</ele>
        <time>2026-07-08T12:27:40Z</time>
      </trkpt>
      <trkpt lat="47.2247" lon="6.03624">
        <ele>387.8</ele>
        <time>2026-07-08T12:27:41Z</time>
      </trkpt>
      <trkpt lat="47.22468" lon="6.03625">
        <ele>388.2</ele>
        <time>2026-07-08T12:27:42Z</time>
      </trkpt>
      <trkpt lat="47.22466" lon="6.03625">
        <ele>388.2</ele>
        <time>2026-07-08T12:27:43Z</time>
      </trkpt>
      <trkpt lat="47.22464" lon="6.03625">
        <ele>388.2</ele>
        <time>2026-07-08T12:27:44Z</time>
      </trkpt>
      <trkpt lat="47.22462" lon="6.03626">
        <ele>388.4</ele>
        <time>2026-07-08T12:27:45Z</time>
      </trkpt>
      <trkpt lat="47.2246" lon="6.03626">
        <ele>388.4</ele>
        <time>2026-07-08T12:27:46Z</time>
      </trkpt>
      <trkpt lat="47.22458" lon="6.03627">
        <ele>388.4</ele>
        <time>2026-07-08T12:27:47Z</time>
      </trkpt>
      <trkpt lat="47.22456" lon="6.03628">
        <ele>388.4</ele>
        <time>2026-07-08T12:27:48Z</time>
      </trkpt>
      <trkpt lat="47.22455" lon="6.03628">
        <ele>388.6</ele>
        <time>2026-07-08T12:27:49Z</time>
      </trkpt>
      <trkpt lat="47.22453" lon="6.03628">
        <ele>388.8</ele>
        <time>2026-07-08T12:27:50Z</time>
      </trkpt>
      <trkpt lat="47.2245" lon="6.03628">
        <ele>388.8</ele>
        <time>2026-07-08T12:27:51Z</time>
      </trkpt>
      <trkpt lat="47.22448" lon="6.03628">
        <ele>389</ele>
        <time>2026-07-08T12:27:52Z</time>
      </trkpt>
      <trkpt lat="47.22446" lon="6.03628">
        <ele>389.2</ele>
        <time>2026-07-08T12:27:53Z</time>
      </trkpt>
      <trkpt lat="47.22445" lon="6.03627">
        <ele>389.2</ele>
        <time>2026-07-08T12:27:54Z</time>
      </trkpt>
      <trkpt lat="47.22443" lon="6.03625">
        <ele>389.2</ele>
        <time>2026-07-08T12:27:55Z</time>
      </trkpt>
      <trkpt lat="47.22441" lon="6.03624">
        <ele>389.4</ele>
        <time>2026-07-08T12:27:56Z</time>
      </trkpt>
      <trkpt lat="47.22439" lon="6.03623">
        <ele>389.6</ele>
        <time>2026-07-08T12:27:57Z</time>
      </trkpt>
      <trkpt lat="47.22438" lon="6.03622">
        <ele>389.8</ele>
        <time>2026-07-08T12:27:58Z</time>
      </trkpt>
      <trkpt lat="47.22436" lon="6.03621">
        <ele>390</ele>
        <time>2026-07-08T12:27:59Z</time>
      </trkpt>
      <trkpt lat="47.22435" lon="6.03619">
        <ele>390</ele>
        <time>2026-07-08T12:28:00Z</time>
      </trkpt>
      <trkpt lat="47.22434" lon="6.03618">
        <ele>390</ele>
        <time>2026-07-08T12:28:01Z</time>
      </trkpt>
      <trkpt lat="47.22433" lon="6.03617">
        <ele>390.2</ele>
        <time>2026-07-08T12:28:02Z</time>
      </trkpt>
      <trkpt lat="47.22431" lon="6.03616">
        <ele>390.4</ele>
        <time>2026-07-08T12:28:03Z</time>
      </trkpt>
      <trkpt lat="47.2243" lon="6.03615">
        <ele>390.6</ele>
        <time>2026-07-08T12:28:04Z</time>
      </trkpt>
      <trkpt lat="47.22429" lon="6.03615">
        <ele>390.8</ele>
        <time>2026-07-08T12:28:05Z</time>
      </trkpt>
      <trkpt lat="47.22428" lon="6.03615">
        <ele>391.2</ele>
        <time>2026-07-08T12:28:06Z</time>
      </trkpt>
      <trkpt lat="47.22427" lon="6.03614">
        <ele>391.2</ele>
        <time>2026-07-08T12:28:07Z</time>
      </trkpt>
      <trkpt lat="47.22426" lon="6.03615">
        <ele>391.4</ele>
        <time>2026-07-08T12:28:08Z</time>
      </trkpt>
      <trkpt lat="47.22424" lon="6.03615">
        <ele>391.4</ele>
        <time>2026-07-08T12:28:09Z</time>
      </trkpt>
      <trkpt lat="47.22423" lon="6.03616">
        <ele>391.8</ele>
        <time>2026-07-08T12:28:10Z</time>
      </trkpt>
      <trkpt lat="47.22422" lon="6.03617">
        <ele>392</ele>
        <time>2026-07-08T12:28:11Z</time>
      </trkpt>
      <trkpt lat="47.22421" lon="6.03618">
        <ele>392.2</ele>
        <time>2026-07-08T12:28:12Z</time>
      </trkpt>
      <trkpt lat="47.2242" lon="6.03619">
        <ele>392.6</ele>
        <time>2026-07-08T12:28:13Z</time>
      </trkpt>
      <trkpt lat="47.22419" lon="6.03621">
        <ele>392.8</ele>
        <time>2026-07-08T12:28:14Z</time>
      </trkpt>
      <trkpt lat="47.22418" lon="6.03622">
        <ele>393.2</ele>
        <time>2026-07-08T12:28:15Z</time>
      </trkpt>
      <trkpt lat="47.22417" lon="6.03623">
        <ele>393.2</ele>
        <time>2026-07-08T12:28:16Z</time>
      </trkpt>
      <trkpt lat="47.22416" lon="6.03624">
        <ele>393.4</ele>
        <time>2026-07-08T12:28:17Z</time>
      </trkpt>
      <trkpt lat="47.22415" lon="6.03627">
        <ele>393.6</ele>
        <time>2026-07-08T12:28:18Z</time>
      </trkpt>
      <trkpt lat="47.22414" lon="6.03629">
        <ele>394</ele>
        <time>2026-07-08T12:28:19Z</time>
      </trkpt>
      <trkpt lat="47.22413" lon="6.03631">
        <ele>394.2</ele>
        <time>2026-07-08T12:28:20Z</time>
      </trkpt>
      <trkpt lat="47.22411" lon="6.03633">
        <ele>394.4</ele>
        <time>2026-07-08T12:28:21Z</time>
      </trkpt>
      <trkpt lat="47.2241" lon="6.03636">
        <ele>394.8</ele>
        <time>2026-07-08T12:28:22Z</time>
      </trkpt>
      <trkpt lat="47.22409" lon="6.03638">
        <ele>394.8</ele>
        <time>2026-07-08T12:28:23Z</time>
      </trkpt>
      <trkpt lat="47.22405" lon="6.03642">
        <ele>395</ele>
        <time>2026-07-08T12:28:24Z</time>
      </trkpt>
      <trkpt lat="47.22403" lon="6.03645">
        <ele>395.4</ele>
        <time>2026-07-08T12:28:25Z</time>
      </trkpt>
      <trkpt lat="47.22402" lon="6.03649">
        <ele>395.4</ele>
        <time>2026-07-08T12:28:26Z</time>
      </trkpt>
      <trkpt lat="47.224" lon="6.03654">
        <ele>395.6</ele>
        <time>2026-07-08T12:28:27Z</time>
      </trkpt>
      <trkpt lat="47.224" lon="6.03659">
        <ele>395.8</ele>
        <time>2026-07-08T12:28:28Z</time>
      </trkpt>
      <trkpt lat="47.22399" lon="6.03665">
        <ele>395.6</ele>
        <time>2026-07-08T12:28:29Z</time>
      </trkpt>
      <trkpt lat="47.22398" lon="6.0367">
        <ele>395.8</ele>
        <time>2026-07-08T12:28:30Z</time>
      </trkpt>
      <trkpt lat="47.22398" lon="6.03676">
        <ele>395.8</ele>
        <time>2026-07-08T12:28:31Z</time>
      </trkpt>
      <trkpt lat="47.22396" lon="6.03683">
        <ele>395.8</ele>
        <time>2026-07-08T12:28:32Z</time>
      </trkpt>
      <trkpt lat="47.22395" lon="6.0369">
        <ele>395.8</ele>
        <time>2026-07-08T12:28:33Z</time>
      </trkpt>
      <trkpt lat="47.22393" lon="6.03696">
        <ele>395.8</ele>
        <time>2026-07-08T12:28:34Z</time>
      </trkpt>
      <trkpt lat="47.22391" lon="6.03702">
        <ele>395.6</ele>
        <time>2026-07-08T12:28:35Z</time>
      </trkpt>
      <trkpt lat="47.22387" lon="6.03709">
        <ele>395.6</ele>
        <time>2026-07-08T12:28:36Z</time>
      </trkpt>
      <trkpt lat="47.22384" lon="6.03716">
        <ele>395.4</ele>
        <time>2026-07-08T12:28:37Z</time>
      </trkpt>
      <trkpt lat="47.2238" lon="6.03723">
        <ele>395.4</ele>
        <time>2026-07-08T12:28:38Z</time>
      </trkpt>
      <trkpt lat="47.22376" lon="6.0373">
        <ele>395.4</ele>
        <time>2026-07-08T12:28:39Z</time>
      </trkpt>
      <trkpt lat="47.22371" lon="6.03737">
        <ele>395.2</ele>
        <time>2026-07-08T12:28:40Z</time>
      </trkpt>
      <trkpt lat="47.22366" lon="6.03745">
        <ele>395.2</ele>
        <time>2026-07-08T12:28:41Z</time>
      </trkpt>
      <trkpt lat="47.22361" lon="6.03753">
        <ele>395</ele>
        <time>2026-07-08T12:28:42Z</time>
      </trkpt>
      <trkpt lat="47.22356" lon="6.03761">
        <ele>395</ele>
        <time>2026-07-08T12:28:43Z</time>
      </trkpt>
      <trkpt lat="47.22351" lon="6.0377">
        <ele>394.8</ele>
        <time>2026-07-08T12:28:44Z</time>
      </trkpt>
      <trkpt lat="47.22346" lon="6.03779">
        <ele>394.6</ele>
        <time>2026-07-08T12:28:45Z</time>
      </trkpt>
      <trkpt lat="47.22341" lon="6.03788">
        <ele>394.6</ele>
        <time>2026-07-08T12:28:46Z</time>
      </trkpt>
      <trkpt lat="47.22336" lon="6.03797">
        <ele>394.2</ele>
        <time>2026-07-08T12:28:47Z</time>
      </trkpt>
      <trkpt lat="47.22332" lon="6.03806">
        <ele>394</ele>
        <time>2026-07-08T12:28:48Z</time>
      </trkpt>
      <trkpt lat="47.22328" lon="6.03816">
        <ele>393.8</ele>
        <time>2026-07-08T12:28:49Z</time>
      </trkpt>
      <trkpt lat="47.22325" lon="6.03826">
        <ele>393.4</ele>
        <time>2026-07-08T12:28:50Z</time>
      </trkpt>
      <trkpt lat="47.22324" lon="6.03837">
        <ele>392.8</ele>
        <time>2026-07-08T12:28:51Z</time>
      </trkpt>
      <trkpt lat="47.22324" lon="6.03848">
        <ele>392.4</ele>
        <time>2026-07-08T12:28:52Z</time>
      </trkpt>
      <trkpt lat="47.22324" lon="6.03859">
        <ele>391.6</ele>
        <time>2026-07-08T12:28:53Z</time>
      </trkpt>
      <trkpt lat="47.22324" lon="6.03869">
        <ele>391.4</ele>
        <time>2026-07-08T12:28:54Z</time>
      </trkpt>
      <trkpt lat="47.22326" lon="6.03878">
        <ele>391</ele>
        <time>2026-07-08T12:28:55Z</time>
      </trkpt>
      <trkpt lat="47.22327" lon="6.03887">
        <ele>390.4</ele>
        <time>2026-07-08T12:28:56Z</time>
      </trkpt>
      <trkpt lat="47.22329" lon="6.03896">
        <ele>390.4</ele>
        <time>2026-07-08T12:28:57Z</time>
      </trkpt>
      <trkpt lat="47.2233" lon="6.03905">
        <ele>390.2</ele>
        <time>2026-07-08T12:28:58Z</time>
      </trkpt>
      <trkpt lat="47.22331" lon="6.03913">
        <ele>390</ele>
        <time>2026-07-08T12:28:59Z</time>
      </trkpt>
      <trkpt lat="47.22333" lon="6.0392">
        <ele>389.8</ele>
        <time>2026-07-08T12:29:00Z</time>
      </trkpt>
      <trkpt lat="47.22333" lon="6.03927">
        <ele>389.8</ele>
        <time>2026-07-08T12:29:01Z</time>
      </trkpt>
      <trkpt lat="47.22334" lon="6.03934">
        <ele>389.8</ele>
        <time>2026-07-08T12:29:02Z</time>
      </trkpt>
      <trkpt lat="47.22335" lon="6.0394">
        <ele>389.8</ele>
        <time>2026-07-08T12:29:03Z</time>
      </trkpt>
      <trkpt lat="47.22335" lon="6.03946">
        <ele>389.8</ele>
        <time>2026-07-08T12:29:04Z</time>
      </trkpt>
      <trkpt lat="47.22335" lon="6.03952">
        <ele>389.6</ele>
        <time>2026-07-08T12:29:05Z</time>
      </trkpt>
      <trkpt lat="47.22336" lon="6.03958">
        <ele>389.6</ele>
        <time>2026-07-08T12:29:06Z</time>
      </trkpt>
      <trkpt lat="47.22336" lon="6.03964">
        <ele>389.6</ele>
        <time>2026-07-08T12:29:07Z</time>
      </trkpt>
      <trkpt lat="47.22336" lon="6.03969">
        <ele>389.6</ele>
        <time>2026-07-08T12:29:08Z</time>
      </trkpt>
      <trkpt lat="47.22335" lon="6.03974">
        <ele>389.8</ele>
        <time>2026-07-08T12:29:09Z</time>
      </trkpt>
      <trkpt lat="47.22334" lon="6.03978">
        <ele>389.8</ele>
        <time>2026-07-08T12:29:10Z</time>
      </trkpt>
      <trkpt lat="47.22332" lon="6.03983">
        <ele>389.8</ele>
        <time>2026-07-08T12:29:11Z</time>
      </trkpt>
      <trkpt lat="47.22331" lon="6.03988">
        <ele>390</ele>
        <time>2026-07-08T12:29:12Z</time>
      </trkpt>
      <trkpt lat="47.22329" lon="6.03992">
        <ele>390</ele>
        <time>2026-07-08T12:29:13Z</time>
      </trkpt>
      <trkpt lat="47.22327" lon="6.03996">
        <ele>390</ele>
        <time>2026-07-08T12:29:14Z</time>
      </trkpt>
      <trkpt lat="47.22324" lon="6.04001">
        <ele>390.2</ele>
        <time>2026-07-08T12:29:15Z</time>
      </trkpt>
      <trkpt lat="47.22322" lon="6.04006">
        <ele>390.4</ele>
        <time>2026-07-08T12:29:16Z</time>
      </trkpt>
      <trkpt lat="47.2232" lon="6.04011">
        <ele>390.6</ele>
        <time>2026-07-08T12:29:17Z</time>
      </trkpt>
      <trkpt lat="47.22318" lon="6.04016">
        <ele>390.8</ele>
        <time>2026-07-08T12:29:18Z</time>
      </trkpt>
      <trkpt lat="47.22316" lon="6.0402">
        <ele>391</ele>
        <time>2026-07-08T12:29:19Z</time>
      </trkpt>
      <trkpt lat="47.22313" lon="6.04025">
        <ele>391.2</ele>
        <time>2026-07-08T12:29:20Z</time>
      </trkpt>
      <trkpt lat="47.22312" lon="6.04029">
        <ele>391.2</ele>
        <time>2026-07-08T12:29:21Z</time>
      </trkpt>
      <trkpt lat="47.2231" lon="6.04033">
        <ele>391.6</ele>
        <time>2026-07-08T12:29:22Z</time>
      </trkpt>
      <trkpt lat="47.22308" lon="6.04038">
        <ele>391.6</ele>
        <time>2026-07-08T12:29:23Z</time>
      </trkpt>
      <trkpt lat="47.22307" lon="6.04042">
        <ele>391.8</ele>
        <time>2026-07-08T12:29:24Z</time>
      </trkpt>
      <trkpt lat="47.22306" lon="6.04046">
        <ele>391.8</ele>
        <time>2026-07-08T12:29:25Z</time>
      </trkpt>
      <trkpt lat="47.22306" lon="6.0405">
        <ele>392</ele>
        <time>2026-07-08T12:29:26Z</time>
      </trkpt>
      <trkpt lat="47.22305" lon="6.04053">
        <ele>392.2</ele>
        <time>2026-07-08T12:29:27Z</time>
      </trkpt>
      <trkpt lat="47.22305" lon="6.04057">
        <ele>392.6</ele>
        <time>2026-07-08T12:29:28Z</time>
      </trkpt>
      <trkpt lat="47.22304" lon="6.04061">
        <ele>392.8</ele>
        <time>2026-07-08T12:29:29Z</time>
      </trkpt>
      <trkpt lat="47.22305" lon="6.04064">
        <ele>392.8</ele>
        <time>2026-07-08T12:29:30Z</time>
      </trkpt>
      <trkpt lat="47.22305" lon="6.04068">
        <ele>393</ele>
        <time>2026-07-08T12:29:31Z</time>
      </trkpt>
      <trkpt lat="47.22306" lon="6.04071">
        <ele>393.4</ele>
        <time>2026-07-08T12:29:32Z</time>
      </trkpt>
      <trkpt lat="47.22306" lon="6.04075">
        <ele>393.8</ele>
        <time>2026-07-08T12:29:33Z</time>
      </trkpt>
      <trkpt lat="47.22306" lon="6.04079">
        <ele>394</ele>
        <time>2026-07-08T12:29:34Z</time>
      </trkpt>
      <trkpt lat="47.22306" lon="6.04082">
        <ele>394.4</ele>
        <time>2026-07-08T12:29:35Z</time>
      </trkpt>
      <trkpt lat="47.22306" lon="6.04086">
        <ele>394.4</ele>
        <time>2026-07-08T12:29:36Z</time>
      </trkpt>
      <trkpt lat="47.22307" lon="6.0409">
        <ele>394.8</ele>
        <time>2026-07-08T12:29:37Z</time>
      </trkpt>
      <trkpt lat="47.22307" lon="6.04094">
        <ele>395.2</ele>
        <time>2026-07-08T12:29:38Z</time>
      </trkpt>
      <trkpt lat="47.22308" lon="6.04097">
        <ele>395.4</ele>
        <time>2026-07-08T12:29:39Z</time>
      </trkpt>
      <trkpt lat="47.22308" lon="6.04101">
        <ele>395.6</ele>
        <time>2026-07-08T12:29:40Z</time>
      </trkpt>
      <trkpt lat="47.22309" lon="6.04104">
        <ele>396</ele>
        <time>2026-07-08T12:29:41Z</time>
      </trkpt>
      <trkpt lat="47.22309" lon="6.04107">
        <ele>396</ele>
        <time>2026-07-08T12:29:42Z</time>
      </trkpt>
      <trkpt lat="47.2231" lon="6.04111">
        <ele>396.4</ele>
        <time>2026-07-08T12:29:43Z</time>
      </trkpt>
      <trkpt lat="47.22311" lon="6.04113">
        <ele>396.6</ele>
        <time>2026-07-08T12:29:44Z</time>
      </trkpt>
      <trkpt lat="47.22311" lon="6.04116">
        <ele>397</ele>
        <time>2026-07-08T12:29:45Z</time>
      </trkpt>
      <trkpt lat="47.22312" lon="6.04119">
        <ele>397.2</ele>
        <time>2026-07-08T12:29:46Z</time>
      </trkpt>
      <trkpt lat="47.22312" lon="6.04121">
        <ele>397.6</ele>
        <time>2026-07-08T12:29:47Z</time>
      </trkpt>
      <trkpt lat="47.22313" lon="6.04124">
        <ele>397.8</ele>
        <time>2026-07-08T12:29:48Z</time>
      </trkpt>
      <trkpt lat="47.22313" lon="6.04126">
        <ele>398</ele>
        <time>2026-07-08T12:29:49Z</time>
      </trkpt>
      <trkpt lat="47.22313" lon="6.04128">
        <ele>398.2</ele>
        <time>2026-07-08T12:29:50Z</time>
      </trkpt>
      <trkpt lat="47.22313" lon="6.04131">
        <ele>398.4</ele>
        <time>2026-07-08T12:29:51Z</time>
      </trkpt>
      <trkpt lat="47.22313" lon="6.04133">
        <ele>398.6</ele>
        <time>2026-07-08T12:29:52Z</time>
      </trkpt>
      <trkpt lat="47.22312" lon="6.04136">
        <ele>398.6</ele>
        <time>2026-07-08T12:29:53Z</time>
      </trkpt>
      <trkpt lat="47.22312" lon="6.04139">
        <ele>398.8</ele>
        <time>2026-07-08T12:29:54Z</time>
      </trkpt>
      <trkpt lat="47.22312" lon="6.04141">
        <ele>399</ele>
        <time>2026-07-08T12:29:55Z</time>
      </trkpt>
      <trkpt lat="47.22311" lon="6.04144">
        <ele>399.4</ele>
        <time>2026-07-08T12:29:56Z</time>
      </trkpt>
      <trkpt lat="47.22311" lon="6.04146">
        <ele>399.4</ele>
        <time>2026-07-08T12:29:57Z</time>
      </trkpt>
      <trkpt lat="47.22311" lon="6.04149">
        <ele>399.6</ele>
        <time>2026-07-08T12:29:58Z</time>
      </trkpt>
      <trkpt lat="47.22311" lon="6.04152">
        <ele>399.8</ele>
        <time>2026-07-08T12:29:59Z</time>
      </trkpt>
      <trkpt lat="47.2231" lon="6.04154">
        <ele>399.8</ele>
        <time>2026-07-08T12:30:00Z</time>
      </trkpt>
      <trkpt lat="47.2231" lon="6.04157">
        <ele>400</ele>
        <time>2026-07-08T12:30:01Z</time>
      </trkpt>
      <trkpt lat="47.2231" lon="6.04159">
        <ele>400</ele>
        <time>2026-07-08T12:30:02Z</time>
      </trkpt>
      <trkpt lat="47.22309" lon="6.04161">
        <ele>400.2</ele>
        <time>2026-07-08T12:30:03Z</time>
      </trkpt>
      <trkpt lat="47.22308" lon="6.04164">
        <ele>400.6</ele>
        <time>2026-07-08T12:30:04Z</time>
      </trkpt>
      <trkpt lat="47.22308" lon="6.04166">
        <ele>401</ele>
        <time>2026-07-08T12:30:05Z</time>
      </trkpt>
      <trkpt lat="47.22307" lon="6.04169">
        <ele>401</ele>
        <time>2026-07-08T12:30:06Z</time>
      </trkpt>
      <trkpt lat="47.22306" lon="6.04171">
        <ele>401.4</ele>
        <time>2026-07-08T12:30:07Z</time>
      </trkpt>
      <trkpt lat="47.22305" lon="6.04174">
        <ele>401.6</ele>
        <time>2026-07-08T12:30:08Z</time>
      </trkpt>
      <trkpt lat="47.22305" lon="6.04176">
        <ele>401.8</ele>
        <time>2026-07-08T12:30:09Z</time>
      </trkpt>
      <trkpt lat="47.22304" lon="6.04178">
        <ele>402</ele>
        <time>2026-07-08T12:30:10Z</time>
      </trkpt>
      <trkpt lat="47.22303" lon="6.04181">
        <ele>402.2</ele>
        <time>2026-07-08T12:30:11Z</time>
      </trkpt>
      <trkpt lat="47.22303" lon="6.04183">
        <ele>402.4</ele>
        <time>2026-07-08T12:30:12Z</time>
      </trkpt>
      <trkpt lat="47.22301" lon="6.04185">
        <ele>402.6</ele>
        <time>2026-07-08T12:30:13Z</time>
      </trkpt>
      <trkpt lat="47.223" lon="6.04187">
        <ele>402.6</ele>
        <time>2026-07-08T12:30:14Z</time>
      </trkpt>
      <trkpt lat="47.22299" lon="6.04189">
        <ele>402.6</ele>
        <time>2026-07-08T12:30:15Z</time>
      </trkpt>
      <trkpt lat="47.22298" lon="6.0419">
        <ele>402.8</ele>
        <time>2026-07-08T12:30:16Z</time>
      </trkpt>
      <trkpt lat="47.22298" lon="6.04192">
        <ele>403</ele>
        <time>2026-07-08T12:30:17Z</time>
      </trkpt>
      <trkpt lat="47.22297" lon="6.04193">
        <ele>403.2</ele>
        <time>2026-07-08T12:30:18Z</time>
      </trkpt>
      <trkpt lat="47.22297" lon="6.04195">
        <ele>403.2</ele>
        <time>2026-07-08T12:30:19Z</time>
      </trkpt>
      <trkpt lat="47.22296" lon="6.04197">
        <ele>403.4</ele>
        <time>2026-07-08T12:30:20Z</time>
      </trkpt>
      <trkpt lat="47.22294" lon="6.04198">
        <ele>403.6</ele>
        <time>2026-07-08T12:30:21Z</time>
      </trkpt>
      <trkpt lat="47.22292" lon="6.04199">
        <ele>403.6</ele>
        <time>2026-07-08T12:30:22Z</time>
      </trkpt>
      <trkpt lat="47.2229" lon="6.042">
        <ele>403.8</ele>
        <time>2026-07-08T12:30:23Z</time>
      </trkpt>
      <trkpt lat="47.22289" lon="6.04201">
        <ele>404</ele>
        <time>2026-07-08T12:30:24Z</time>
      </trkpt>
      <trkpt lat="47.22288" lon="6.04202">
        <ele>404.2</ele>
        <time>2026-07-08T12:30:25Z</time>
      </trkpt>
      <trkpt lat="47.22287" lon="6.04203">
        <ele>404.4</ele>
        <time>2026-07-08T12:30:26Z</time>
      </trkpt>
      <trkpt lat="47.22286" lon="6.04205">
        <ele>404.6</ele>
        <time>2026-07-08T12:30:27Z</time>
      </trkpt>
      <trkpt lat="47.22286" lon="6.04207">
        <ele>404.6</ele>
        <time>2026-07-08T12:30:28Z</time>
      </trkpt>
      <trkpt lat="47.22285" lon="6.0421">
        <ele>405</ele>
        <time>2026-07-08T12:30:29Z</time>
      </trkpt>
      <trkpt lat="47.22285" lon="6.04212">
        <ele>405.2</ele>
        <time>2026-07-08T12:30:30Z</time>
      </trkpt>
      <trkpt lat="47.22284" lon="6.04214">
        <ele>405.4</ele>
        <time>2026-07-08T12:30:31Z</time>
      </trkpt>
      <trkpt lat="47.22283" lon="6.04216">
        <ele>405.6</ele>
        <time>2026-07-08T12:30:32Z</time>
      </trkpt>
      <trkpt lat="47.22283" lon="6.04218">
        <ele>405.8</ele>
        <time>2026-07-08T12:30:33Z</time>
      </trkpt>
      <trkpt lat="47.22282" lon="6.04221">
        <ele>406.2</ele>
        <time>2026-07-08T12:30:34Z</time>
      </trkpt>
      <trkpt lat="47.22282" lon="6.04223">
        <ele>406.4</ele>
        <time>2026-07-08T12:30:35Z</time>
      </trkpt>
      <trkpt lat="47.22281" lon="6.04226">
        <ele>406.4</ele>
        <time>2026-07-08T12:30:36Z</time>
      </trkpt>
      <trkpt lat="47.2228" lon="6.04228">
        <ele>406.4</ele>
        <time>2026-07-08T12:30:37Z</time>
      </trkpt>
      <trkpt lat="47.2228" lon="6.0423">
        <ele>406.6</ele>
        <time>2026-07-08T12:30:38Z</time>
      </trkpt>
      <trkpt lat="47.22279" lon="6.04232">
        <ele>406.8</ele>
        <time>2026-07-08T12:30:39Z</time>
      </trkpt>
      <trkpt lat="47.22278" lon="6.04234">
        <ele>407</ele>
        <time>2026-07-08T12:30:40Z</time>
      </trkpt>
      <trkpt lat="47.22278" lon="6.04235">
        <ele>407.2</ele>
        <time>2026-07-08T12:30:41Z</time>
      </trkpt>
      <trkpt lat="47.22277" lon="6.04237">
        <ele>407.6</ele>
        <time>2026-07-08T12:30:42Z</time>
      </trkpt>
      <trkpt lat="47.22276" lon="6.04239">
        <ele>407.8</ele>
        <time>2026-07-08T12:30:43Z</time>
      </trkpt>
      <trkpt lat="47.22275" lon="6.04241">
        <ele>407.8</ele>
        <time>2026-07-08T12:30:44Z</time>
      </trkpt>
      <trkpt lat="47.22274" lon="6.04242">
        <ele>408.2</ele>
        <time>2026-07-08T12:30:45Z</time>
      </trkpt>
      <trkpt lat="47.22274" lon="6.04244">
        <ele>408.6</ele>
        <time>2026-07-08T12:30:46Z</time>
      </trkpt>
      <trkpt lat="47.22273" lon="6.04246">
        <ele>408.8</ele>
        <time>2026-07-08T12:30:47Z</time>
      </trkpt>
      <trkpt lat="47.22273" lon="6.04248">
        <ele>409</ele>
        <time>2026-07-08T12:30:48Z</time>
      </trkpt>
      <trkpt lat="47.22273" lon="6.0425">
        <ele>409.2</ele>
        <time>2026-07-08T12:30:49Z</time>
      </trkpt>
      <trkpt lat="47.22272" lon="6.04253">
        <ele>409.4</ele>
        <time>2026-07-08T12:30:50Z</time>
      </trkpt>
      <trkpt lat="47.22272" lon="6.04255">
        <ele>409.8</ele>
        <time>2026-07-08T12:30:51Z</time>
      </trkpt>
      <trkpt lat="47.22272" lon="6.04257">
        <ele>410</ele>
        <time>2026-07-08T12:30:52Z</time>
      </trkpt>
      <trkpt lat="47.22271" lon="6.04259">
        <ele>410.2</ele>
        <time>2026-07-08T12:30:53Z</time>
      </trkpt>
      <trkpt lat="47.2227" lon="6.04261">
        <ele>410.2</ele>
        <time>2026-07-08T12:30:54Z</time>
      </trkpt>
      <trkpt lat="47.22269" lon="6.04263">
        <ele>410.6</ele>
        <time>2026-07-08T12:30:55Z</time>
      </trkpt>
      <trkpt lat="47.22269" lon="6.04265">
        <ele>410.8</ele>
        <time>2026-07-08T12:30:56Z</time>
      </trkpt>
      <trkpt lat="47.22268" lon="6.04267">
        <ele>411</ele>
        <time>2026-07-08T12:30:57Z</time>
      </trkpt>
      <trkpt lat="47.22267" lon="6.04268">
        <ele>411.4</ele>
        <time>2026-07-08T12:30:58Z</time>
      </trkpt>
      <trkpt lat="47.22266" lon="6.0427">
        <ele>411.6</ele>
        <time>2026-07-08T12:30:59Z</time>
      </trkpt>
      <trkpt lat="47.22265" lon="6.04272">
        <ele>411.6</ele>
        <time>2026-07-08T12:31:00Z</time>
      </trkpt>
      <trkpt lat="47.22263" lon="6.04273">
        <ele>412</ele>
        <time>2026-07-08T12:31:01Z</time>
      </trkpt>
      <trkpt lat="47.22262" lon="6.04274">
        <ele>412</ele>
        <time>2026-07-08T12:31:02Z</time>
      </trkpt>
      <trkpt lat="47.22261" lon="6.04276">
        <ele>412</ele>
        <time>2026-07-08T12:31:03Z</time>
      </trkpt>
      <trkpt lat="47.2226" lon="6.04278">
        <ele>412.4</ele>
        <time>2026-07-08T12:31:04Z</time>
      </trkpt>
      <trkpt lat="47.2226" lon="6.0428">
        <ele>412.6</ele>
        <time>2026-07-08T12:31:05Z</time>
      </trkpt>
      <trkpt lat="47.22259" lon="6.04282">
        <ele>412.6</ele>
        <time>2026-07-08T12:31:06Z</time>
      </trkpt>
      <trkpt lat="47.22258" lon="6.04284">
        <ele>412.8</ele>
        <time>2026-07-08T12:31:07Z</time>
      </trkpt>
      <trkpt lat="47.22257" lon="6.04286">
        <ele>413</ele>
        <time>2026-07-08T12:31:08Z</time>
      </trkpt>
      <trkpt lat="47.22257" lon="6.04288">
        <ele>413</ele>
        <time>2026-07-08T12:31:09Z</time>
      </trkpt>
      <trkpt lat="47.22256" lon="6.0429">
        <ele>413.2</ele>
        <time>2026-07-08T12:31:10Z</time>
      </trkpt>
      <trkpt lat="47.22255" lon="6.04293">
        <ele>413.4</ele>
        <time>2026-07-08T12:31:11Z</time>
      </trkpt>
      <trkpt lat="47.22254" lon="6.04295">
        <ele>413.6</ele>
        <time>2026-07-08T12:31:12Z</time>
      </trkpt>
      <trkpt lat="47.22253" lon="6.04297">
        <ele>413.8</ele>
        <time>2026-07-08T12:31:13Z</time>
      </trkpt>
      <trkpt lat="47.22252" lon="6.04299">
        <ele>414</ele>
        <time>2026-07-08T12:31:14Z</time>
      </trkpt>
      <trkpt lat="47.2225" lon="6.04301">
        <ele>414.2</ele>
        <time>2026-07-08T12:31:15Z</time>
      </trkpt>
      <trkpt lat="47.22248" lon="6.04302">
        <ele>414.4</ele>
        <time>2026-07-08T12:31:16Z</time>
      </trkpt>
      <trkpt lat="47.22247" lon="6.04303">
        <ele>414.6</ele>
        <time>2026-07-08T12:31:17Z</time>
      </trkpt>
      <trkpt lat="47.22245" lon="6.04304">
        <ele>414.6</ele>
        <time>2026-07-08T12:31:18Z</time>
      </trkpt>
      <trkpt lat="47.22243" lon="6.04305">
        <ele>414.6</ele>
        <time>2026-07-08T12:31:19Z</time>
      </trkpt>
      <trkpt lat="47.22241" lon="6.04306">
        <ele>414.6</ele>
        <time>2026-07-08T12:31:20Z</time>
      </trkpt>
      <trkpt lat="47.2224" lon="6.04307">
        <ele>414.8</ele>
        <time>2026-07-08T12:31:21Z</time>
      </trkpt>
      <trkpt lat="47.22238" lon="6.04308">
        <ele>414.8</ele>
        <time>2026-07-08T12:31:22Z</time>
      </trkpt>
      <trkpt lat="47.22235" lon="6.04309">
        <ele>415</ele>
        <time>2026-07-08T12:31:23Z</time>
      </trkpt>
      <trkpt lat="47.22233" lon="6.0431">
        <ele>415</ele>
        <time>2026-07-08T12:31:24Z</time>
      </trkpt>
      <trkpt lat="47.22231" lon="6.04312">
        <ele>415.2</ele>
        <time>2026-07-08T12:31:25Z</time>
      </trkpt>
      <trkpt lat="47.22229" lon="6.04313">
        <ele>415.4</ele>
        <time>2026-07-08T12:31:26Z</time>
      </trkpt>
      <trkpt lat="47.22227" lon="6.04314">
        <ele>415.6</ele>
        <time>2026-07-08T12:31:27Z</time>
      </trkpt>
      <trkpt lat="47.22225" lon="6.04316">
        <ele>415.6</ele>
        <time>2026-07-08T12:31:28Z</time>
      </trkpt>
      <trkpt lat="47.22223" lon="6.04318">
        <ele>416</ele>
        <time>2026-07-08T12:31:29Z</time>
      </trkpt>
      <trkpt lat="47.22222" lon="6.04319">
        <ele>416.4</ele>
        <time>2026-07-08T12:31:30Z</time>
      </trkpt>
      <trkpt lat="47.2222" lon="6.04321">
        <ele>416.4</ele>
        <time>2026-07-08T12:31:31Z</time>
      </trkpt>
      <trkpt lat="47.22219" lon="6.04323">
        <ele>416.4</ele>
        <time>2026-07-08T12:31:32Z</time>
      </trkpt>
      <trkpt lat="47.22217" lon="6.04326">
        <ele>416.6</ele>
        <time>2026-07-08T12:31:33Z</time>
      </trkpt>
      <trkpt lat="47.22215" lon="6.04328">
        <ele>416.6</ele>
        <time>2026-07-08T12:31:34Z</time>
      </trkpt>
      <trkpt lat="47.22213" lon="6.0433">
        <ele>416.8</ele>
        <time>2026-07-08T12:31:35Z</time>
      </trkpt>
      <trkpt lat="47.22211" lon="6.04332">
        <ele>417</ele>
        <time>2026-07-08T12:31:36Z</time>
      </trkpt>
      <trkpt lat="47.22209" lon="6.04334">
        <ele>417</ele>
        <time>2026-07-08T12:31:37Z</time>
      </trkpt>
      <trkpt lat="47.22207" lon="6.04335">
        <ele>417</ele>
        <time>2026-07-08T12:31:38Z</time>
      </trkpt>
      <trkpt lat="47.22205" lon="6.04337">
        <ele>417</ele>
        <time>2026-07-08T12:31:39Z</time>
      </trkpt>
      <trkpt lat="47.22203" lon="6.04339">
        <ele>417</ele>
        <time>2026-07-08T12:31:40Z</time>
      </trkpt>
      <trkpt lat="47.22202" lon="6.04341">
        <ele>417</ele>
        <time>2026-07-08T12:31:41Z</time>
      </trkpt>
      <trkpt lat="47.222" lon="6.04343">
        <ele>417.2</ele>
        <time>2026-07-08T12:31:42Z</time>
      </trkpt>
      <trkpt lat="47.22199" lon="6.04345">
        <ele>417.2</ele>
        <time>2026-07-08T12:31:43Z</time>
      </trkpt>
      <trkpt lat="47.22197" lon="6.04347">
        <ele>417.4</ele>
        <time>2026-07-08T12:31:44Z</time>
      </trkpt>
      <trkpt lat="47.22195" lon="6.0435">
        <ele>417.4</ele>
        <time>2026-07-08T12:31:45Z</time>
      </trkpt>
      <trkpt lat="47.22194" lon="6.04352">
        <ele>417.4</ele>
        <time>2026-07-08T12:31:46Z</time>
      </trkpt>
      <trkpt lat="47.22192" lon="6.04354">
        <ele>417.4</ele>
        <time>2026-07-08T12:31:47Z</time>
      </trkpt>
      <trkpt lat="47.22191" lon="6.04355">
        <ele>417.4</ele>
        <time>2026-07-08T12:31:48Z</time>
      </trkpt>
      <trkpt lat="47.22189" lon="6.04357">
        <ele>417.6</ele>
        <time>2026-07-08T12:31:49Z</time>
      </trkpt>
      <trkpt lat="47.22188" lon="6.04359">
        <ele>417.6</ele>
        <time>2026-07-08T12:31:50Z</time>
      </trkpt>
      <trkpt lat="47.22187" lon="6.04362">
        <ele>417.6</ele>
        <time>2026-07-08T12:31:51Z</time>
      </trkpt>
      <trkpt lat="47.22186" lon="6.04364">
        <ele>417.6</ele>
        <time>2026-07-08T12:31:52Z</time>
      </trkpt>
      <trkpt lat="47.22185" lon="6.04366">
        <ele>417.6</ele>
        <time>2026-07-08T12:31:53Z</time>
      </trkpt>
      <trkpt lat="47.22184" lon="6.04368">
        <ele>417.8</ele>
        <time>2026-07-08T12:31:54Z</time>
      </trkpt>
      <trkpt lat="47.22183" lon="6.0437">
        <ele>418</ele>
        <time>2026-07-08T12:31:55Z</time>
      </trkpt>
      <trkpt lat="47.22181" lon="6.04371">
        <ele>418</ele>
        <time>2026-07-08T12:31:56Z</time>
      </trkpt>
      <trkpt lat="47.2218" lon="6.04373">
        <ele>418.2</ele>
        <time>2026-07-08T12:31:57Z</time>
      </trkpt>
      <trkpt lat="47.22179" lon="6.04375">
        <ele>418</ele>
        <time>2026-07-08T12:31:58Z</time>
      </trkpt>
      <trkpt lat="47.22178" lon="6.04377">
        <ele>418.2</ele>
        <time>2026-07-08T12:31:59Z</time>
      </trkpt>
      <trkpt lat="47.22177" lon="6.04379">
        <ele>418.4</ele>
        <time>2026-07-08T12:32:00Z</time>
      </trkpt>
      <trkpt lat="47.22176" lon="6.04381">
        <ele>418.2</ele>
        <time>2026-07-08T12:32:01Z</time>
      </trkpt>
      <trkpt lat="47.22175" lon="6.04383">
        <ele>418.4</ele>
        <time>2026-07-08T12:32:02Z</time>
      </trkpt>
      <trkpt lat="47.22174" lon="6.04385">
        <ele>418.6</ele>
        <time>2026-07-08T12:32:03Z</time>
      </trkpt>
      <trkpt lat="47.22173" lon="6.04387">
        <ele>418.6</ele>
        <time>2026-07-08T12:32:04Z</time>
      </trkpt>
      <trkpt lat="47.22172" lon="6.04389">
        <ele>418.6</ele>
        <time>2026-07-08T12:32:05Z</time>
      </trkpt>
      <trkpt lat="47.22171" lon="6.04391">
        <ele>419</ele>
        <time>2026-07-08T12:32:06Z</time>
      </trkpt>
      <trkpt lat="47.22171" lon="6.04393">
        <ele>419</ele>
        <time>2026-07-08T12:32:07Z</time>
      </trkpt>
      <trkpt lat="47.2217" lon="6.04395">
        <ele>419</ele>
        <time>2026-07-08T12:32:08Z</time>
      </trkpt>
      <trkpt lat="47.22169" lon="6.04398">
        <ele>419</ele>
        <time>2026-07-08T12:32:09Z</time>
      </trkpt>
      <trkpt lat="47.22169" lon="6.044">
        <ele>419.4</ele>
        <time>2026-07-08T12:32:10Z</time>
      </trkpt>
      <trkpt lat="47.22168" lon="6.04403">
        <ele>419.4</ele>
        <time>2026-07-08T12:32:11Z</time>
      </trkpt>
      <trkpt lat="47.22167" lon="6.04405">
        <ele>419.6</ele>
        <time>2026-07-08T12:32:12Z</time>
      </trkpt>
      <trkpt lat="47.22166" lon="6.04408">
        <ele>419.8</ele>
        <time>2026-07-08T12:32:13Z</time>
      </trkpt>
      <trkpt lat="47.22165" lon="6.0441">
        <ele>420</ele>
        <time>2026-07-08T12:32:14Z</time>
      </trkpt>
      <trkpt lat="47.22165" lon="6.04412">
        <ele>420.4</ele>
        <time>2026-07-08T12:32:15Z</time>
      </trkpt>
      <trkpt lat="47.22164" lon="6.04414">
        <ele>420.6</ele>
        <time>2026-07-08T12:32:16Z</time>
      </trkpt>
      <trkpt lat="47.22163" lon="6.04416">
        <ele>420.6</ele>
        <time>2026-07-08T12:32:17Z</time>
      </trkpt>
      <trkpt lat="47.22163" lon="6.04419">
        <ele>420.8</ele>
        <time>2026-07-08T12:32:18Z</time>
      </trkpt>
      <trkpt lat="47.22162" lon="6.04421">
        <ele>420.8</ele>
        <time>2026-07-08T12:32:19Z</time>
      </trkpt>
      <trkpt lat="47.22161" lon="6.04424">
        <ele>421</ele>
        <time>2026-07-08T12:32:20Z</time>
      </trkpt>
      <trkpt lat="47.22161" lon="6.04426">
        <ele>421</ele>
        <time>2026-07-08T12:32:21Z</time>
      </trkpt>
      <trkpt lat="47.22161" lon="6.04429">
        <ele>421.2</ele>
        <time>2026-07-08T12:32:22Z</time>
      </trkpt>
      <trkpt lat="47.2216" lon="6.04431">
        <ele>421.4</ele>
        <time>2026-07-08T12:32:23Z</time>
      </trkpt>
      <trkpt lat="47.22159" lon="6.04433">
        <ele>421.6</ele>
        <time>2026-07-08T12:32:24Z</time>
      </trkpt>
      <trkpt lat="47.22159" lon="6.04435">
        <ele>421.8</ele>
        <time>2026-07-08T12:32:25Z</time>
      </trkpt>
      <trkpt lat="47.22158" lon="6.04437">
        <ele>421.8</ele>
        <time>2026-07-08T12:32:26Z</time>
      </trkpt>
      <trkpt lat="47.22157" lon="6.04439">
        <ele>422</ele>
        <time>2026-07-08T12:32:27Z</time>
      </trkpt>
      <trkpt lat="47.22156" lon="6.04441">
        <ele>422.2</ele>
        <time>2026-07-08T12:32:28Z</time>
      </trkpt>
      <trkpt lat="47.22155" lon="6.04443">
        <ele>422.2</ele>
        <time>2026-07-08T12:32:29Z</time>
      </trkpt>
      <trkpt lat="47.22155" lon="6.04446">
        <ele>422.4</ele>
        <time>2026-07-08T12:32:30Z</time>
      </trkpt>
      <trkpt lat="47.22154" lon="6.04448">
        <ele>422.6</ele>
        <time>2026-07-08T12:32:31Z</time>
      </trkpt>
      <trkpt lat="47.22153" lon="6.0445">
        <ele>422.8</ele>
        <time>2026-07-08T12:32:32Z</time>
      </trkpt>
      <trkpt lat="47.22153" lon="6.04453">
        <ele>422.8</ele>
        <time>2026-07-08T12:32:33Z</time>
      </trkpt>
      <trkpt lat="47.22152" lon="6.04455">
        <ele>423.2</ele>
        <time>2026-07-08T12:32:34Z</time>
      </trkpt>
      <trkpt lat="47.22151" lon="6.04457">
        <ele>423.2</ele>
        <time>2026-07-08T12:32:35Z</time>
      </trkpt>
      <trkpt lat="47.22151" lon="6.0446">
        <ele>423.4</ele>
        <time>2026-07-08T12:32:36Z</time>
      </trkpt>
      <trkpt lat="47.22151" lon="6.04463">
        <ele>423.6</ele>
        <time>2026-07-08T12:32:37Z</time>
      </trkpt>
      <trkpt lat="47.2215" lon="6.04465">
        <ele>423.8</ele>
        <time>2026-07-08T12:32:38Z</time>
      </trkpt>
      <trkpt lat="47.2215" lon="6.04468">
        <ele>424</ele>
        <time>2026-07-08T12:32:39Z</time>
      </trkpt>
      <trkpt lat="47.2215" lon="6.04471">
        <ele>424.2</ele>
        <time>2026-07-08T12:32:40Z</time>
      </trkpt>
      <trkpt lat="47.22149" lon="6.04473">
        <ele>424.4</ele>
        <time>2026-07-08T12:32:41Z</time>
      </trkpt>
      <trkpt lat="47.22149" lon="6.04475">
        <ele>424.6</ele>
        <time>2026-07-08T12:32:42Z</time>
      </trkpt>
      <trkpt lat="47.22148" lon="6.04478">
        <ele>424.6</ele>
        <time>2026-07-08T12:32:43Z</time>
      </trkpt>
      <trkpt lat="47.22148" lon="6.0448">
        <ele>425</ele>
        <time>2026-07-08T12:32:44Z</time>
      </trkpt>
      <trkpt lat="47.22147" lon="6.04483">
        <ele>425.4</ele>
        <time>2026-07-08T12:32:45Z</time>
      </trkpt>
      <trkpt lat="47.22147" lon="6.04485">
        <ele>425.6</ele>
        <time>2026-07-08T12:32:46Z</time>
      </trkpt>
      <trkpt lat="47.22146" lon="6.04487">
        <ele>425.8</ele>
        <time>2026-07-08T12:32:47Z</time>
      </trkpt>
      <trkpt lat="47.22146" lon="6.0449">
        <ele>426</ele>
        <time>2026-07-08T12:32:48Z</time>
      </trkpt>
      <trkpt lat="47.22145" lon="6.04492">
        <ele>426.4</ele>
        <time>2026-07-08T12:32:49Z</time>
      </trkpt>
      <trkpt lat="47.22144" lon="6.04494">
        <ele>426.6</ele>
        <time>2026-07-08T12:32:50Z</time>
      </trkpt>
      <trkpt lat="47.22143" lon="6.04496">
        <ele>426.8</ele>
        <time>2026-07-08T12:32:51Z</time>
      </trkpt>
      <trkpt lat="47.22142" lon="6.04498">
        <ele>426.8</ele>
        <time>2026-07-08T12:32:52Z</time>
      </trkpt>
      <trkpt lat="47.22141" lon="6.04499">
        <ele>427</ele>
        <time>2026-07-08T12:32:53Z</time>
      </trkpt>
      <trkpt lat="47.2214" lon="6.04501">
        <ele>427.2</ele>
        <time>2026-07-08T12:32:54Z</time>
      </trkpt>
      <trkpt lat="47.2214" lon="6.04503">
        <ele>427.4</ele>
        <time>2026-07-08T12:32:55Z</time>
      </trkpt>
      <trkpt lat="47.2214" lon="6.04505">
        <ele>427.6</ele>
        <time>2026-07-08T12:32:56Z</time>
      </trkpt>
      <trkpt lat="47.22139" lon="6.04506">
        <ele>427.6</ele>
        <time>2026-07-08T12:32:57Z</time>
      </trkpt>
      <trkpt lat="47.22138" lon="6.04508">
        <ele>428</ele>
        <time>2026-07-08T12:32:58Z</time>
      </trkpt>
      <trkpt lat="47.22138" lon="6.0451">
        <ele>428.2</ele>
        <time>2026-07-08T12:32:59Z</time>
      </trkpt>
      <trkpt lat="47.22137" lon="6.04512">
        <ele>428.2</ele>
        <time>2026-07-08T12:33:00Z</time>
      </trkpt>
      <trkpt lat="47.22136" lon="6.04514">
        <ele>428.6</ele>
        <time>2026-07-08T12:33:01Z</time>
      </trkpt>
      <trkpt lat="47.22135" lon="6.04515">
        <ele>428.6</ele>
        <time>2026-07-08T12:33:02Z</time>
      </trkpt>
      <trkpt lat="47.22134" lon="6.04517">
        <ele>428.8</ele>
        <time>2026-07-08T12:33:03Z</time>
      </trkpt>
      <trkpt lat="47.22133" lon="6.04519">
        <ele>429</ele>
        <time>2026-07-08T12:33:04Z</time>
      </trkpt>
      <trkpt lat="47.22132" lon="6.04521">
        <ele>429.2</ele>
        <time>2026-07-08T12:33:05Z</time>
      </trkpt>
      <trkpt lat="47.22131" lon="6.04523">
        <ele>429.4</ele>
        <time>2026-07-08T12:33:06Z</time>
      </trkpt>
      <trkpt lat="47.22131" lon="6.04526">
        <ele>429.6</ele>
        <time>2026-07-08T12:33:07Z</time>
      </trkpt>
      <trkpt lat="47.2213" lon="6.04528">
        <ele>430</ele>
        <time>2026-07-08T12:33:08Z</time>
      </trkpt>
      <trkpt lat="47.2213" lon="6.0453">
        <ele>430.2</ele>
        <time>2026-07-08T12:33:09Z</time>
      </trkpt>
      <trkpt lat="47.2213" lon="6.04533">
        <ele>430.2</ele>
        <time>2026-07-08T12:33:10Z</time>
      </trkpt>
      <trkpt lat="47.22129" lon="6.04535">
        <ele>430.4</ele>
        <time>2026-07-08T12:33:11Z</time>
      </trkpt>
      <trkpt lat="47.22128" lon="6.04537">
        <ele>430.6</ele>
        <time>2026-07-08T12:33:12Z</time>
      </trkpt>
      <trkpt lat="47.22128" lon="6.0454">
        <ele>431</ele>
        <time>2026-07-08T12:33:13Z</time>
      </trkpt>
      <trkpt lat="47.22127" lon="6.04543">
        <ele>431</ele>
        <time>2026-07-08T12:33:14Z</time>
      </trkpt>
      <trkpt lat="47.22127" lon="6.04545">
        <ele>431.2</ele>
        <time>2026-07-08T12:33:15Z</time>
      </trkpt>
      <trkpt lat="47.22126" lon="6.04547">
        <ele>431.4</ele>
        <time>2026-07-08T12:33:16Z</time>
      </trkpt>
      <trkpt lat="47.22125" lon="6.04549">
        <ele>431.6</ele>
        <time>2026-07-08T12:33:17Z</time>
      </trkpt>
      <trkpt lat="47.22125" lon="6.04551">
        <ele>431.8</ele>
        <time>2026-07-08T12:33:18Z</time>
      </trkpt>
      <trkpt lat="47.22125" lon="6.04553">
        <ele>432</ele>
        <time>2026-07-08T12:33:19Z</time>
      </trkpt>
      <trkpt lat="47.22124" lon="6.04555">
        <ele>432.2</ele>
        <time>2026-07-08T12:33:20Z</time>
      </trkpt>
      <trkpt lat="47.22124" lon="6.04557">
        <ele>432.2</ele>
        <time>2026-07-08T12:33:21Z</time>
      </trkpt>
      <trkpt lat="47.22123" lon="6.04559">
        <ele>432.4</ele>
        <time>2026-07-08T12:33:22Z</time>
      </trkpt>
      <trkpt lat="47.22123" lon="6.04559">
        <ele>432.8</ele>
        <time>2026-07-08T12:33:23Z</time>
      </trkpt>
      <trkpt lat="47.22123" lon="6.04561">
        <ele>432.8</ele>
        <time>2026-07-08T12:33:24Z</time>
      </trkpt>
      <trkpt lat="47.22123" lon="6.04561">
        <ele>433</ele>
        <time>2026-07-08T12:33:25Z</time>
      </trkpt>
      <trkpt lat="47.22123" lon="6.04562">
        <ele>433</ele>
        <time>2026-07-08T12:33:26Z</time>
      </trkpt>
      <trkpt lat="47.22124" lon="6.04563">
        <ele>433.4</ele>
        <time>2026-07-08T12:33:27Z</time>
      </trkpt>
      <trkpt lat="47.2212" lon="6.04575">
        <ele>433.8</ele>
        <time>2026-07-08T12:34:27Z</time>
      </trkpt>
      <trkpt lat="47.22119" lon="6.04577">
        <ele>434</ele>
        <time>2026-07-08T12:34:28Z</time>
      </trkpt>
      <trkpt lat="47.22118" lon="6.0458">
        <ele>434</ele>
        <time>2026-07-08T12:34:29Z</time>
      </trkpt>
      <trkpt lat="47.22117" lon="6.04581">
        <ele>434.2</ele>
        <time>2026-07-08T12:34:30Z</time>
      </trkpt>
      <trkpt lat="47.22115" lon="6.04583">
        <ele>434.4</ele>
        <time>2026-07-08T12:34:31Z</time>
      </trkpt>
      <trkpt lat="47.22113" lon="6.04585">
        <ele>434.6</ele>
        <time>2026-07-08T12:34:32Z</time>
      </trkpt>
      <trkpt lat="47.22112" lon="6.04586">
        <ele>435</ele>
        <time>2026-07-08T12:34:33Z</time>
      </trkpt>
      <trkpt lat="47.22111" lon="6.04588">
        <ele>435.2</ele>
        <time>2026-07-08T12:34:34Z</time>
      </trkpt>
      <trkpt lat="47.22109" lon="6.04589">
        <ele>435.4</ele>
        <time>2026-07-08T12:34:35Z</time>
      </trkpt>
      <trkpt lat="47.22107" lon="6.0459">
        <ele>435.6</ele>
        <time>2026-07-08T12:34:36Z</time>
      </trkpt>
      <trkpt lat="47.22105" lon="6.04591">
        <ele>435.8</ele>
        <time>2026-07-08T12:34:37Z</time>
      </trkpt>
      <trkpt lat="47.22104" lon="6.04593">
        <ele>436.2</ele>
        <time>2026-07-08T12:34:38Z</time>
      </trkpt>
      <trkpt lat="47.22102" lon="6.04594">
        <ele>436.4</ele>
        <time>2026-07-08T12:34:39Z</time>
      </trkpt>
      <trkpt lat="47.221" lon="6.04595">
        <ele>436.6</ele>
        <time>2026-07-08T12:34:40Z</time>
      </trkpt>
      <trkpt lat="47.22099" lon="6.04597">
        <ele>437</ele>
        <time>2026-07-08T12:34:41Z</time>
      </trkpt>
      <trkpt lat="47.22097" lon="6.04598">
        <ele>437.2</ele>
        <time>2026-07-08T12:34:42Z</time>
      </trkpt>
      <trkpt lat="47.22096" lon="6.046">
        <ele>437.4</ele>
        <time>2026-07-08T12:34:43Z</time>
      </trkpt>
      <trkpt lat="47.22094" lon="6.04602">
        <ele>437.6</ele>
        <time>2026-07-08T12:34:44Z</time>
      </trkpt>
      <trkpt lat="47.22093" lon="6.04604">
        <ele>437.8</ele>
        <time>2026-07-08T12:34:45Z</time>
      </trkpt>
      <trkpt lat="47.22092" lon="6.04606">
        <ele>437.8</ele>
        <time>2026-07-08T12:34:46Z</time>
      </trkpt>
      <trkpt lat="47.22091" lon="6.04609">
        <ele>438.2</ele>
        <time>2026-07-08T12:34:47Z</time>
      </trkpt>
      <trkpt lat="47.22091" lon="6.04611">
        <ele>438.4</ele>
        <time>2026-07-08T12:34:48Z</time>
      </trkpt>
      <trkpt lat="47.2209" lon="6.04613">
        <ele>438.4</ele>
        <time>2026-07-08T12:34:49Z</time>
      </trkpt>
      <trkpt lat="47.22089" lon="6.04615">
        <ele>438.8</ele>
        <time>2026-07-08T12:34:50Z</time>
      </trkpt>
      <trkpt lat="47.22088" lon="6.04617">
        <ele>438.8</ele>
        <time>2026-07-08T12:34:51Z</time>
      </trkpt>
      <trkpt lat="47.22088" lon="6.04619">
        <ele>438.8</ele>
        <time>2026-07-08T12:34:52Z</time>
      </trkpt>
      <trkpt lat="47.22088" lon="6.04621">
        <ele>439.2</ele>
        <time>2026-07-08T12:34:53Z</time>
      </trkpt>
      <trkpt lat="47.22087" lon="6.04623">
        <ele>439.8</ele>
        <time>2026-07-08T12:34:54Z</time>
      </trkpt>
      <trkpt lat="47.22087" lon="6.04625">
        <ele>440.4</ele>
        <time>2026-07-08T12:34:55Z</time>
      </trkpt>
      <trkpt lat="47.22088" lon="6.04627">
        <ele>441</ele>
        <time>2026-07-08T12:34:56Z</time>
      </trkpt>
      <trkpt lat="47.22088" lon="6.04629">
        <ele>441.4</ele>
        <time>2026-07-08T12:34:57Z</time>
      </trkpt>
      <trkpt lat="47.22088" lon="6.04632">
        <ele>442</ele>
        <time>2026-07-08T12:34:58Z</time>
      </trkpt>
      <trkpt lat="47.22089" lon="6.04634">
        <ele>442.4</ele>
        <time>2026-07-08T12:34:59Z</time>
      </trkpt>
      <trkpt lat="47.22089" lon="6.04636">
        <ele>442.8</ele>
        <time>2026-07-08T12:35:00Z</time>
      </trkpt>
      <trkpt lat="47.2209" lon="6.04638">
        <ele>443.2</ele>
        <time>2026-07-08T12:35:01Z</time>
      </trkpt>
      <trkpt lat="47.22091" lon="6.0464">
        <ele>443.6</ele>
        <time>2026-07-08T12:35:02Z</time>
      </trkpt>
      <trkpt lat="47.22091" lon="6.04642">
        <ele>444</ele>
        <time>2026-07-08T12:35:03Z</time>
      </trkpt>
      <trkpt lat="47.22091" lon="6.04643">
        <ele>444</ele>
        <time>2026-07-08T12:35:04Z</time>
      </trkpt>
      <trkpt lat="47.22091" lon="6.04645">
        <ele>444.6</ele>
        <time>2026-07-08T12:35:05Z</time>
      </trkpt>
      <trkpt lat="47.22091" lon="6.04647">
        <ele>444.6</ele>
        <time>2026-07-08T12:35:06Z</time>
      </trkpt>
      <trkpt lat="47.22091" lon="6.04649">
        <ele>445.2</ele>
        <time>2026-07-08T12:35:07Z</time>
      </trkpt>
      <trkpt lat="47.22091" lon="6.04651">
        <ele>445.6</ele>
        <time>2026-07-08T12:35:08Z</time>
      </trkpt>
      <trkpt lat="47.22092" lon="6.04653">
        <ele>445.8</ele>
        <time>2026-07-08T12:35:09Z</time>
      </trkpt>
      <trkpt lat="47.22093" lon="6.04655">
        <ele>446.4</ele>
        <time>2026-07-08T12:35:10Z</time>
      </trkpt>
      <trkpt lat="47.22093" lon="6.04658">
        <ele>446.8</ele>
        <time>2026-07-08T12:35:11Z</time>
      </trkpt>
      <trkpt lat="47.22094" lon="6.0466">
        <ele>447</ele>
        <time>2026-07-08T12:35:12Z</time>
      </trkpt>
      <trkpt lat="47.22094" lon="6.04662">
        <ele>447.4</ele>
        <time>2026-07-08T12:35:13Z</time>
      </trkpt>
      <trkpt lat="47.22095" lon="6.04663">
        <ele>447.4</ele>
        <time>2026-07-08T12:35:14Z</time>
      </trkpt>
      <trkpt lat="47.22095" lon="6.04665">
        <ele>447.6</ele>
        <time>2026-07-08T12:35:15Z</time>
      </trkpt>
      <trkpt lat="47.22096" lon="6.04667">
        <ele>447.8</ele>
        <time>2026-07-08T12:35:16Z</time>
      </trkpt>
      <trkpt lat="47.22096" lon="6.04668">
        <ele>448</ele>
        <time>2026-07-08T12:35:17Z</time>
      </trkpt>
      <trkpt lat="47.22097" lon="6.0467">
        <ele>448</ele>
        <time>2026-07-08T12:35:18Z</time>
      </trkpt>
      <trkpt lat="47.22097" lon="6.04672">
        <ele>448.4</ele>
        <time>2026-07-08T12:35:19Z</time>
      </trkpt>
      <trkpt lat="47.22098" lon="6.04674">
        <ele>448.6</ele>
        <time>2026-07-08T12:35:20Z</time>
      </trkpt>
      <trkpt lat="47.22098" lon="6.04675">
        <ele>448.8</ele>
        <time>2026-07-08T12:35:21Z</time>
      </trkpt>
      <trkpt lat="47.22098" lon="6.04677">
        <ele>449</ele>
        <time>2026-07-08T12:35:22Z</time>
      </trkpt>
      <trkpt lat="47.22098" lon="6.04679">
        <ele>449.2</ele>
        <time>2026-07-08T12:35:23Z</time>
      </trkpt>
      <trkpt lat="47.22098" lon="6.0468">
        <ele>449.4</ele>
        <time>2026-07-08T12:35:24Z</time>
      </trkpt>
      <trkpt lat="47.22098" lon="6.04682">
        <ele>449.6</ele>
        <time>2026-07-08T12:35:25Z</time>
      </trkpt>
      <trkpt lat="47.22098" lon="6.04684">
        <ele>449.8</ele>
        <time>2026-07-08T12:35:26Z</time>
      </trkpt>
      <trkpt lat="47.22098" lon="6.04686">
        <ele>450</ele>
        <time>2026-07-08T12:35:27Z</time>
      </trkpt>
      <trkpt lat="47.22098" lon="6.04688">
        <ele>450.4</ele>
        <time>2026-07-08T12:35:28Z</time>
      </trkpt>
      <trkpt lat="47.22098" lon="6.04689">
        <ele>450.4</ele>
        <time>2026-07-08T12:35:29Z</time>
      </trkpt>
      <trkpt lat="47.22098" lon="6.04691">
        <ele>450.6</ele>
        <time>2026-07-08T12:35:30Z</time>
      </trkpt>
      <trkpt lat="47.22098" lon="6.04693">
        <ele>451</ele>
        <time>2026-07-08T12:35:31Z</time>
      </trkpt>
      <trkpt lat="47.22098" lon="6.04695">
        <ele>451.2</ele>
        <time>2026-07-08T12:35:32Z</time>
      </trkpt>
      <trkpt lat="47.22098" lon="6.04697">
        <ele>451.4</ele>
        <time>2026-07-08T12:35:33Z</time>
      </trkpt>
      <trkpt lat="47.22098" lon="6.04699">
        <ele>451.6</ele>
        <time>2026-07-08T12:35:34Z</time>
      </trkpt>
      <trkpt lat="47.22098" lon="6.04701">
        <ele>451.8</ele>
        <time>2026-07-08T12:35:35Z</time>
      </trkpt>
      <trkpt lat="47.22098" lon="6.04703">
        <ele>451.8</ele>
        <time>2026-07-08T12:35:36Z</time>
      </trkpt>
      <trkpt lat="47.22098" lon="6.04705">
        <ele>452</ele>
        <time>2026-07-08T12:35:37Z</time>
      </trkpt>
      <trkpt lat="47.22099" lon="6.04707">
        <ele>452.2</ele>
        <time>2026-07-08T12:35:38Z</time>
      </trkpt>
      <trkpt lat="47.22099" lon="6.04708">
        <ele>452.4</ele>
        <time>2026-07-08T12:35:39Z</time>
      </trkpt>
      <trkpt lat="47.221" lon="6.0471">
        <ele>452.6</ele>
        <time>2026-07-08T12:35:40Z</time>
      </trkpt>
      <trkpt lat="47.22101" lon="6.04711">
        <ele>453</ele>
        <time>2026-07-08T12:35:41Z</time>
      </trkpt>
      <trkpt lat="47.22102" lon="6.04712">
        <ele>453.4</ele>
        <time>2026-07-08T12:35:42Z</time>
      </trkpt>
      <trkpt lat="47.22104" lon="6.04713">
        <ele>453.8</ele>
        <time>2026-07-08T12:35:43Z</time>
      </trkpt>
      <trkpt lat="47.22105" lon="6.04714">
        <ele>453.8</ele>
        <time>2026-07-08T12:35:44Z</time>
      </trkpt>
      <trkpt lat="47.22106" lon="6.04716">
        <ele>454</ele>
        <time>2026-07-08T12:35:45Z</time>
      </trkpt>
      <trkpt lat="47.22108" lon="6.04717">
        <ele>454.2</ele>
        <time>2026-07-08T12:35:46Z</time>
      </trkpt>
      <trkpt lat="47.22109" lon="6.04719">
        <ele>454.6</ele>
        <time>2026-07-08T12:35:47Z</time>
      </trkpt>
      <trkpt lat="47.2211" lon="6.0472">
        <ele>454.6</ele>
        <time>2026-07-08T12:35:48Z</time>
      </trkpt>
      <trkpt lat="47.22111" lon="6.04722">
        <ele>454.8</ele>
        <time>2026-07-08T12:35:49Z</time>
      </trkpt>
      <trkpt lat="47.22112" lon="6.04723">
        <ele>455</ele>
        <time>2026-07-08T12:35:50Z</time>
      </trkpt>
      <trkpt lat="47.22113" lon="6.04725">
        <ele>455.2</ele>
        <time>2026-07-08T12:35:51Z</time>
      </trkpt>
      <trkpt lat="47.22114" lon="6.04726">
        <ele>455.2</ele>
        <time>2026-07-08T12:35:52Z</time>
      </trkpt>
      <trkpt lat="47.22114" lon="6.04728">
        <ele>455.4</ele>
        <time>2026-07-08T12:35:53Z</time>
      </trkpt>
      <trkpt lat="47.22115" lon="6.0473">
        <ele>455.6</ele>
        <time>2026-07-08T12:35:54Z</time>
      </trkpt>
      <trkpt lat="47.22116" lon="6.04731">
        <ele>455.8</ele>
        <time>2026-07-08T12:35:55Z</time>
      </trkpt>
      <trkpt lat="47.22117" lon="6.04733">
        <ele>455.8</ele>
        <time>2026-07-08T12:35:56Z</time>
      </trkpt>
      <trkpt lat="47.22117" lon="6.04734">
        <ele>455.8</ele>
        <time>2026-07-08T12:35:57Z</time>
      </trkpt>
      <trkpt lat="47.22118" lon="6.04736">
        <ele>456</ele>
        <time>2026-07-08T12:35:58Z</time>
      </trkpt>
      <trkpt lat="47.22119" lon="6.04737">
        <ele>456</ele>
        <time>2026-07-08T12:35:59Z</time>
      </trkpt>
      <trkpt lat="47.2212" lon="6.04739">
        <ele>456.2</ele>
        <time>2026-07-08T12:36:00Z</time>
      </trkpt>
      <trkpt lat="47.22121" lon="6.0474">
        <ele>456.4</ele>
        <time>2026-07-08T12:36:01Z</time>
      </trkpt>
      <trkpt lat="47.22122" lon="6.04741">
        <ele>456.6</ele>
        <time>2026-07-08T12:36:02Z</time>
      </trkpt>
      <trkpt lat="47.22124" lon="6.04743">
        <ele>456.8</ele>
        <time>2026-07-08T12:36:03Z</time>
      </trkpt>
      <trkpt lat="47.22124" lon="6.04745">
        <ele>457</ele>
        <time>2026-07-08T12:36:04Z</time>
      </trkpt>
      <trkpt lat="47.22125" lon="6.04747">
        <ele>457.4</ele>
        <time>2026-07-08T12:36:05Z</time>
      </trkpt>
      <trkpt lat="47.22126" lon="6.04749">
        <ele>457.4</ele>
        <time>2026-07-08T12:36:06Z</time>
      </trkpt>
      <trkpt lat="47.22126" lon="6.04751">
        <ele>457.6</ele>
        <time>2026-07-08T12:36:07Z</time>
      </trkpt>
      <trkpt lat="47.22127" lon="6.04753">
        <ele>457.8</ele>
        <time>2026-07-08T12:36:08Z</time>
      </trkpt>
      <trkpt lat="47.22128" lon="6.04755">
        <ele>458</ele>
        <time>2026-07-08T12:36:09Z</time>
      </trkpt>
      <trkpt lat="47.22129" lon="6.04757">
        <ele>458.2</ele>
        <time>2026-07-08T12:36:10Z</time>
      </trkpt>
      <trkpt lat="47.2213" lon="6.04758">
        <ele>458.4</ele>
        <time>2026-07-08T12:36:11Z</time>
      </trkpt>
      <trkpt lat="47.22131" lon="6.0476">
        <ele>458.6</ele>
        <time>2026-07-08T12:36:12Z</time>
      </trkpt>
      <trkpt lat="47.22132" lon="6.04761">
        <ele>458.8</ele>
        <time>2026-07-08T12:36:13Z</time>
      </trkpt>
      <trkpt lat="47.22133" lon="6.04762">
        <ele>459</ele>
        <time>2026-07-08T12:36:14Z</time>
      </trkpt>
      <trkpt lat="47.22134" lon="6.04763">
        <ele>459.2</ele>
        <time>2026-07-08T12:36:15Z</time>
      </trkpt>
      <trkpt lat="47.22134" lon="6.04764">
        <ele>459.4</ele>
        <time>2026-07-08T12:36:16Z</time>
      </trkpt>
      <trkpt lat="47.22135" lon="6.04766">
        <ele>459.4</ele>
        <time>2026-07-08T12:36:17Z</time>
      </trkpt>
      <trkpt lat="47.22135" lon="6.04767">
        <ele>459.6</ele>
        <time>2026-07-08T12:36:18Z</time>
      </trkpt>
      <trkpt lat="47.22136" lon="6.04768">
        <ele>459.8</ele>
        <time>2026-07-08T12:36:19Z</time>
      </trkpt>
      <trkpt lat="47.22137" lon="6.0477">
        <ele>460.2</ele>
        <time>2026-07-08T12:36:20Z</time>
      </trkpt>
      <trkpt lat="47.22137" lon="6.04772">
        <ele>460.2</ele>
        <time>2026-07-08T12:36:21Z</time>
      </trkpt>
      <trkpt lat="47.22138" lon="6.04774">
        <ele>460.2</ele>
        <time>2026-07-08T12:36:22Z</time>
      </trkpt>
      <trkpt lat="47.22139" lon="6.04776">
        <ele>460.4</ele>
        <time>2026-07-08T12:36:23Z</time>
      </trkpt>
      <trkpt lat="47.22141" lon="6.04778">
        <ele>460.8</ele>
        <time>2026-07-08T12:36:24Z</time>
      </trkpt>
      <trkpt lat="47.22143" lon="6.0478">
        <ele>460.8</ele>
        <time>2026-07-08T12:36:25Z</time>
      </trkpt>
      <trkpt lat="47.22144" lon="6.04782">
        <ele>461</ele>
        <time>2026-07-08T12:36:26Z</time>
      </trkpt>
      <trkpt lat="47.22146" lon="6.04783">
        <ele>461</ele>
        <time>2026-07-08T12:36:27Z</time>
      </trkpt>
      <trkpt lat="47.22147" lon="6.04785">
        <ele>461.2</ele>
        <time>2026-07-08T12:36:28Z</time>
      </trkpt>
      <trkpt lat="47.22149" lon="6.04787">
        <ele>461.2</ele>
        <time>2026-07-08T12:36:29Z</time>
      </trkpt>
      <trkpt lat="47.2215" lon="6.04789">
        <ele>461.2</ele>
        <time>2026-07-08T12:36:30Z</time>
      </trkpt>
      <trkpt lat="47.22152" lon="6.04791">
        <ele>461.4</ele>
        <time>2026-07-08T12:36:31Z</time>
      </trkpt>
      <trkpt lat="47.22153" lon="6.04793">
        <ele>461.4</ele>
        <time>2026-07-08T12:36:32Z</time>
      </trkpt>
      <trkpt lat="47.22155" lon="6.04795">
        <ele>461.6</ele>
        <time>2026-07-08T12:36:33Z</time>
      </trkpt>
      <trkpt lat="47.22157" lon="6.04797">
        <ele>462</ele>
        <time>2026-07-08T12:36:34Z</time>
      </trkpt>
      <trkpt lat="47.22159" lon="6.04799">
        <ele>461.8</ele>
        <time>2026-07-08T12:36:35Z</time>
      </trkpt>
      <trkpt lat="47.22161" lon="6.04801">
        <ele>462.2</ele>
        <time>2026-07-08T12:36:36Z</time>
      </trkpt>
      <trkpt lat="47.22163" lon="6.04803">
        <ele>462.4</ele>
        <time>2026-07-08T12:36:37Z</time>
      </trkpt>
      <trkpt lat="47.22165" lon="6.04805">
        <ele>462.4</ele>
        <time>2026-07-08T12:36:38Z</time>
      </trkpt>
      <trkpt lat="47.22168" lon="6.04807">
        <ele>462.6</ele>
        <time>2026-07-08T12:36:39Z</time>
      </trkpt>
      <trkpt lat="47.2217" lon="6.0481">
        <ele>462.6</ele>
        <time>2026-07-08T12:36:40Z</time>
      </trkpt>
      <trkpt lat="47.22172" lon="6.04813">
        <ele>462.8</ele>
        <time>2026-07-08T12:36:41Z</time>
      </trkpt>
      <trkpt lat="47.22174" lon="6.04815">
        <ele>462.8</ele>
        <time>2026-07-08T12:36:42Z</time>
      </trkpt>
      <trkpt lat="47.22176" lon="6.04817">
        <ele>462.8</ele>
        <time>2026-07-08T12:36:43Z</time>
      </trkpt>
      <trkpt lat="47.22177" lon="6.0482">
        <ele>463</ele>
        <time>2026-07-08T12:36:44Z</time>
      </trkpt>
      <trkpt lat="47.22178" lon="6.04823">
        <ele>463</ele>
        <time>2026-07-08T12:36:45Z</time>
      </trkpt>
      <trkpt lat="47.22179" lon="6.04826">
        <ele>463</ele>
        <time>2026-07-08T12:36:46Z</time>
      </trkpt>
      <trkpt lat="47.2218" lon="6.04829">
        <ele>463.2</ele>
        <time>2026-07-08T12:36:47Z</time>
      </trkpt>
      <trkpt lat="47.22181" lon="6.04831">
        <ele>463.2</ele>
        <time>2026-07-08T12:36:48Z</time>
      </trkpt>
      <trkpt lat="47.22183" lon="6.04833">
        <ele>463</ele>
        <time>2026-07-08T12:36:49Z</time>
      </trkpt>
      <trkpt lat="47.22184" lon="6.04835">
        <ele>463.2</ele>
        <time>2026-07-08T12:36:50Z</time>
      </trkpt>
      <trkpt lat="47.22184" lon="6.04838">
        <ele>463.4</ele>
        <time>2026-07-08T12:36:51Z</time>
      </trkpt>
      <trkpt lat="47.22185" lon="6.0484">
        <ele>463.4</ele>
        <time>2026-07-08T12:36:52Z</time>
      </trkpt>
      <trkpt lat="47.22186" lon="6.04843">
        <ele>463.4</ele>
        <time>2026-07-08T12:36:53Z</time>
      </trkpt>
      <trkpt lat="47.22187" lon="6.04845">
        <ele>463.8</ele>
        <time>2026-07-08T12:36:54Z</time>
      </trkpt>
      <trkpt lat="47.22188" lon="6.04847">
        <ele>463.8</ele>
        <time>2026-07-08T12:36:55Z</time>
      </trkpt>
      <trkpt lat="47.22189" lon="6.04849">
        <ele>463.8</ele>
        <time>2026-07-08T12:36:56Z</time>
      </trkpt>
      <trkpt lat="47.2219" lon="6.04852">
        <ele>464</ele>
        <time>2026-07-08T12:36:57Z</time>
      </trkpt>
      <trkpt lat="47.22191" lon="6.04854">
        <ele>464.2</ele>
        <time>2026-07-08T12:36:58Z</time>
      </trkpt>
      <trkpt lat="47.22192" lon="6.04857">
        <ele>464.4</ele>
        <time>2026-07-08T12:36:59Z</time>
      </trkpt>
      <trkpt lat="47.22193" lon="6.04859">
        <ele>464.6</ele>
        <time>2026-07-08T12:37:00Z</time>
      </trkpt>
      <trkpt lat="47.22194" lon="6.04862">
        <ele>464.8</ele>
        <time>2026-07-08T12:37:01Z</time>
      </trkpt>
      <trkpt lat="47.22194" lon="6.04865">
        <ele>465.2</ele>
        <time>2026-07-08T12:37:02Z</time>
      </trkpt>
      <trkpt lat="47.22195" lon="6.04868">
        <ele>465.2</ele>
        <time>2026-07-08T12:37:03Z</time>
      </trkpt>
      <trkpt lat="47.22196" lon="6.0487">
        <ele>465.4</ele>
        <time>2026-07-08T12:37:04Z</time>
      </trkpt>
      <trkpt lat="47.22197" lon="6.04873">
        <ele>465.6</ele>
        <time>2026-07-08T12:37:05Z</time>
      </trkpt>
      <trkpt lat="47.22198" lon="6.04875">
        <ele>465.6</ele>
        <time>2026-07-08T12:37:06Z</time>
      </trkpt>
      <trkpt lat="47.22199" lon="6.04878">
        <ele>465.6</ele>
        <time>2026-07-08T12:37:07Z</time>
      </trkpt>
      <trkpt lat="47.22201" lon="6.0488">
        <ele>465.6</ele>
        <time>2026-07-08T12:37:08Z</time>
      </trkpt>
      <trkpt lat="47.22202" lon="6.04882">
        <ele>466</ele>
        <time>2026-07-08T12:37:09Z</time>
      </trkpt>
      <trkpt lat="47.22204" lon="6.04885">
        <ele>466.2</ele>
        <time>2026-07-08T12:37:10Z</time>
      </trkpt>
      <trkpt lat="47.22205" lon="6.04888">
        <ele>466.4</ele>
        <time>2026-07-08T12:37:11Z</time>
      </trkpt>
      <trkpt lat="47.22206" lon="6.04891">
        <ele>466.6</ele>
        <time>2026-07-08T12:37:12Z</time>
      </trkpt>
      <trkpt lat="47.22207" lon="6.04893">
        <ele>466.6</ele>
        <time>2026-07-08T12:37:13Z</time>
      </trkpt>
      <trkpt lat="47.22208" lon="6.04896">
        <ele>466.6</ele>
        <time>2026-07-08T12:37:14Z</time>
      </trkpt>
      <trkpt lat="47.2221" lon="6.04898">
        <ele>466.8</ele>
        <time>2026-07-08T12:37:15Z</time>
      </trkpt>
      <trkpt lat="47.2221" lon="6.04902">
        <ele>467</ele>
        <time>2026-07-08T12:37:16Z</time>
      </trkpt>
      <trkpt lat="47.22211" lon="6.04904">
        <ele>467.2</ele>
        <time>2026-07-08T12:37:17Z</time>
      </trkpt>
      <trkpt lat="47.22212" lon="6.04907">
        <ele>467.2</ele>
        <time>2026-07-08T12:37:18Z</time>
      </trkpt>
      <trkpt lat="47.22213" lon="6.04911">
        <ele>467.4</ele>
        <time>2026-07-08T12:37:19Z</time>
      </trkpt>
      <trkpt lat="47.22214" lon="6.04914">
        <ele>467.4</ele>
        <time>2026-07-08T12:37:20Z</time>
      </trkpt>
      <trkpt lat="47.22215" lon="6.04917">
        <ele>467.8</ele>
        <time>2026-07-08T12:37:21Z</time>
      </trkpt>
      <trkpt lat="47.22216" lon="6.04921">
        <ele>467.8</ele>
        <time>2026-07-08T12:37:22Z</time>
      </trkpt>
      <trkpt lat="47.22217" lon="6.04924">
        <ele>467.8</ele>
        <time>2026-07-08T12:37:23Z</time>
      </trkpt>
      <trkpt lat="47.22218" lon="6.04928">
        <ele>468</ele>
        <time>2026-07-08T12:37:24Z</time>
      </trkpt>
      <trkpt lat="47.2222" lon="6.04931">
        <ele>468.2</ele>
        <time>2026-07-08T12:37:25Z</time>
      </trkpt>
      <trkpt lat="47.22221" lon="6.04935">
        <ele>468.2</ele>
        <time>2026-07-08T12:37:26Z</time>
      </trkpt>
      <trkpt lat="47.22222" lon="6.04938">
        <ele>468.4</ele>
        <time>2026-07-08T12:37:27Z</time>
      </trkpt>
      <trkpt lat="47.22224" lon="6.04941">
        <ele>468.4</ele>
        <time>2026-07-08T12:37:28Z</time>
      </trkpt>
      <trkpt lat="47.22225" lon="6.04945">
        <ele>468.4</ele>
        <time>2026-07-08T12:37:29Z</time>
      </trkpt>
      <trkpt lat="47.22226" lon="6.04948">
        <ele>468.6</ele>
        <time>2026-07-08T12:37:30Z</time>
      </trkpt>
      <trkpt lat="47.22228" lon="6.04951">
        <ele>468.4</ele>
        <time>2026-07-08T12:37:31Z</time>
      </trkpt>
      <trkpt lat="47.22229" lon="6.04954">
        <ele>468.8</ele>
        <time>2026-07-08T12:37:32Z</time>
      </trkpt>
      <trkpt lat="47.2223" lon="6.04957">
        <ele>468.6</ele>
        <time>2026-07-08T12:37:33Z</time>
      </trkpt>
      <trkpt lat="47.22233" lon="6.04961">
        <ele>468.6</ele>
        <time>2026-07-08T12:37:34Z</time>
      </trkpt>
      <trkpt lat="47.22234" lon="6.04965">
        <ele>468.6</ele>
        <time>2026-07-08T12:37:35Z</time>
      </trkpt>
      <trkpt lat="47.22235" lon="6.04968">
        <ele>468.6</ele>
        <time>2026-07-08T12:37:36Z</time>
      </trkpt>
      <trkpt lat="47.22236" lon="6.04972">
        <ele>468.6</ele>
        <time>2026-07-08T12:37:37Z</time>
      </trkpt>
      <trkpt lat="47.22236" lon="6.04976">
        <ele>468.6</ele>
        <time>2026-07-08T12:37:38Z</time>
      </trkpt>
      <trkpt lat="47.22235" lon="6.04979">
        <ele>468.6</ele>
        <time>2026-07-08T12:37:39Z</time>
      </trkpt>
      <trkpt lat="47.22233" lon="6.04981">
        <ele>468.6</ele>
        <time>2026-07-08T12:37:40Z</time>
      </trkpt>
      <trkpt lat="47.22231" lon="6.04981">
        <ele>468.4</ele>
        <time>2026-07-08T12:37:41Z</time>
      </trkpt>
      <trkpt lat="47.22228" lon="6.04981">
        <ele>468.6</ele>
        <time>2026-07-08T12:37:42Z</time>
      </trkpt>
      <trkpt lat="47.22226" lon="6.04981">
        <ele>468.4</ele>
        <time>2026-07-08T12:37:43Z</time>
      </trkpt>
      <trkpt lat="47.22223" lon="6.04981">
        <ele>468.2</ele>
        <time>2026-07-08T12:37:44Z</time>
      </trkpt>
      <trkpt lat="47.22221" lon="6.04981">
        <ele>468</ele>
        <time>2026-07-08T12:37:45Z</time>
      </trkpt>
      <trkpt lat="47.22219" lon="6.04981">
        <ele>468</ele>
        <time>2026-07-08T12:37:46Z</time>
      </trkpt>
      <trkpt lat="47.22217" lon="6.0498">
        <ele>468</ele>
        <time>2026-07-08T12:37:47Z</time>
      </trkpt>
      <trkpt lat="47.22215" lon="6.0498">
        <ele>468</ele>
        <time>2026-07-08T12:37:48Z</time>
      </trkpt>
      <trkpt lat="47.22212" lon="6.04981">
        <ele>468</ele>
        <time>2026-07-08T12:37:49Z</time>
      </trkpt>
      <trkpt lat="47.22209" lon="6.04981">
        <ele>468</ele>
        <time>2026-07-08T12:37:50Z</time>
      </trkpt>
      <trkpt lat="47.22206" lon="6.04981">
        <ele>468</ele>
        <time>2026-07-08T12:37:51Z</time>
      </trkpt>
      <trkpt lat="47.22203" lon="6.04981">
        <ele>468</ele>
        <time>2026-07-08T12:37:52Z</time>
      </trkpt>
      <trkpt lat="47.22201" lon="6.04982">
        <ele>468</ele>
        <time>2026-07-08T12:37:53Z</time>
      </trkpt>
      <trkpt lat="47.22198" lon="6.04984">
        <ele>468</ele>
        <time>2026-07-08T12:37:54Z</time>
      </trkpt>
      <trkpt lat="47.22196" lon="6.04985">
        <ele>468</ele>
        <time>2026-07-08T12:37:55Z</time>
      </trkpt>
      <trkpt lat="47.22193" lon="6.04986">
        <ele>468</ele>
        <time>2026-07-08T12:37:56Z</time>
      </trkpt>
      <trkpt lat="47.22191" lon="6.04987">
        <ele>468.2</ele>
        <time>2026-07-08T12:37:57Z</time>
      </trkpt>
      <trkpt lat="47.22188" lon="6.04988">
        <ele>468.2</ele>
        <time>2026-07-08T12:37:58Z</time>
      </trkpt>
      <trkpt lat="47.22186" lon="6.04989">
        <ele>468.4</ele>
        <time>2026-07-08T12:37:59Z</time>
      </trkpt>
      <trkpt lat="47.22183" lon="6.04989">
        <ele>468.4</ele>
        <time>2026-07-08T12:38:00Z</time>
      </trkpt>
      <trkpt lat="47.22181" lon="6.04989">
        <ele>468.6</ele>
        <time>2026-07-08T12:38:01Z</time>
      </trkpt>
      <trkpt lat="47.22179" lon="6.04989">
        <ele>468.6</ele>
        <time>2026-07-08T12:38:02Z</time>
      </trkpt>
      <trkpt lat="47.22176" lon="6.04989">
        <ele>468.6</ele>
        <time>2026-07-08T12:38:03Z</time>
      </trkpt>
      <trkpt lat="47.22173" lon="6.0499">
        <ele>468.8</ele>
        <time>2026-07-08T12:38:04Z</time>
      </trkpt>
      <trkpt lat="47.2217" lon="6.04991">
        <ele>468.8</ele>
        <time>2026-07-08T12:38:05Z</time>
      </trkpt>
      <trkpt lat="47.22167" lon="6.04994">
        <ele>469</ele>
        <time>2026-07-08T12:38:06Z</time>
      </trkpt>
      <trkpt lat="47.22164" lon="6.04996">
        <ele>468.8</ele>
        <time>2026-07-08T12:38:07Z</time>
      </trkpt>
      <trkpt lat="47.22161" lon="6.05">
        <ele>469</ele>
        <time>2026-07-08T12:38:08Z</time>
      </trkpt>
      <trkpt lat="47.22158" lon="6.05003">
        <ele>469</ele>
        <time>2026-07-08T12:38:09Z</time>
      </trkpt>
      <trkpt lat="47.22156" lon="6.05005">
        <ele>469</ele>
        <time>2026-07-08T12:38:10Z</time>
      </trkpt>
      <trkpt lat="47.22153" lon="6.05009">
        <ele>469</ele>
        <time>2026-07-08T12:38:11Z</time>
      </trkpt>
      <trkpt lat="47.2215" lon="6.05012">
        <ele>469.2</ele>
        <time>2026-07-08T12:38:12Z</time>
      </trkpt>
      <trkpt lat="47.22147" lon="6.05015">
        <ele>469.2</ele>
        <time>2026-07-08T12:38:13Z</time>
      </trkpt>
      <trkpt lat="47.22144" lon="6.05018">
        <ele>469.2</ele>
        <time>2026-07-08T12:38:14Z</time>
      </trkpt>
      <trkpt lat="47.22141" lon="6.05021">
        <ele>469</ele>
        <time>2026-07-08T12:38:15Z</time>
      </trkpt>
      <trkpt lat="47.22137" lon="6.05024">
        <ele>469</ele>
        <time>2026-07-08T12:38:16Z</time>
      </trkpt>
      <trkpt lat="47.22135" lon="6.05026">
        <ele>469</ele>
        <time>2026-07-08T12:38:17Z</time>
      </trkpt>
      <trkpt lat="47.22132" lon="6.05029">
        <ele>469</ele>
        <time>2026-07-08T12:38:18Z</time>
      </trkpt>
      <trkpt lat="47.2213" lon="6.05032">
        <ele>469</ele>
        <time>2026-07-08T12:38:19Z</time>
      </trkpt>
      <trkpt lat="47.22128" lon="6.05035">
        <ele>469</ele>
        <time>2026-07-08T12:38:20Z</time>
      </trkpt>
      <trkpt lat="47.22126" lon="6.05039">
        <ele>469</ele>
        <time>2026-07-08T12:38:21Z</time>
      </trkpt>
      <trkpt lat="47.22125" lon="6.05042">
        <ele>469</ele>
        <time>2026-07-08T12:38:22Z</time>
      </trkpt>
      <trkpt lat="47.22124" lon="6.05045">
        <ele>469</ele>
        <time>2026-07-08T12:38:23Z</time>
      </trkpt>
      <trkpt lat="47.22124" lon="6.05048">
        <ele>469</ele>
        <time>2026-07-08T12:38:24Z</time>
      </trkpt>
      <trkpt lat="47.22124" lon="6.0505">
        <ele>469</ele>
        <time>2026-07-08T12:38:25Z</time>
      </trkpt>
      <trkpt lat="47.22125" lon="6.05053">
        <ele>469</ele>
        <time>2026-07-08T12:38:26Z</time>
      </trkpt>
      <trkpt lat="47.22125" lon="6.05055">
        <ele>469.4</ele>
        <time>2026-07-08T12:38:27Z</time>
      </trkpt>
      <trkpt lat="47.22126" lon="6.05058">
        <ele>469.4</ele>
        <time>2026-07-08T12:38:28Z</time>
      </trkpt>
      <trkpt lat="47.22125" lon="6.05061">
        <ele>469.6</ele>
        <time>2026-07-08T12:38:29Z</time>
      </trkpt>
      <trkpt lat="47.22125" lon="6.05064">
        <ele>469.8</ele>
        <time>2026-07-08T12:38:30Z</time>
      </trkpt>
      <trkpt lat="47.22125" lon="6.05067">
        <ele>469.8</ele>
        <time>2026-07-08T12:38:31Z</time>
      </trkpt>
      <trkpt lat="47.22125" lon="6.0507">
        <ele>470</ele>
        <time>2026-07-08T12:38:32Z</time>
      </trkpt>
      <trkpt lat="47.22124" lon="6.05072">
        <ele>470</ele>
        <time>2026-07-08T12:38:33Z</time>
      </trkpt>
      <trkpt lat="47.22124" lon="6.05075">
        <ele>470.2</ele>
        <time>2026-07-08T12:38:34Z</time>
      </trkpt>
      <trkpt lat="47.22124" lon="6.05077">
        <ele>470.2</ele>
        <time>2026-07-08T12:38:35Z</time>
      </trkpt>
      <trkpt lat="47.22124" lon="6.0508">
        <ele>470.2</ele>
        <time>2026-07-08T12:38:36Z</time>
      </trkpt>
      <trkpt lat="47.22124" lon="6.05082">
        <ele>470.8</ele>
        <time>2026-07-08T12:38:37Z</time>
      </trkpt>
      <trkpt lat="47.22123" lon="6.05084">
        <ele>471</ele>
        <time>2026-07-08T12:38:38Z</time>
      </trkpt>
      <trkpt lat="47.22122" lon="6.05086">
        <ele>471.4</ele>
        <time>2026-07-08T12:38:39Z</time>
      </trkpt>
      <trkpt lat="47.22122" lon="6.05088">
        <ele>471.2</ele>
        <time>2026-07-08T12:38:40Z</time>
      </trkpt>
      <trkpt lat="47.22122" lon="6.05091">
        <ele>471.4</ele>
        <time>2026-07-08T12:38:41Z</time>
      </trkpt>
      <trkpt lat="47.22122" lon="6.05095">
        <ele>471.6</ele>
        <time>2026-07-08T12:38:42Z</time>
      </trkpt>
      <trkpt lat="47.22123" lon="6.05098">
        <ele>471.6</ele>
        <time>2026-07-08T12:38:43Z</time>
      </trkpt>
      <trkpt lat="47.22123" lon="6.05101">
        <ele>471.6</ele>
        <time>2026-07-08T12:38:44Z</time>
      </trkpt>
      <trkpt lat="47.22123" lon="6.05103">
        <ele>472</ele>
        <time>2026-07-08T12:38:45Z</time>
      </trkpt>
      <trkpt lat="47.22122" lon="6.05105">
        <ele>472</ele>
        <time>2026-07-08T12:38:46Z</time>
      </trkpt>
      <trkpt lat="47.22121" lon="6.05107">
        <ele>472.2</ele>
        <time>2026-07-08T12:38:47Z</time>
      </trkpt>
      <trkpt lat="47.22121" lon="6.05109">
        <ele>472.2</ele>
        <time>2026-07-08T12:38:48Z</time>
      </trkpt>
      <trkpt lat="47.22121" lon="6.05111">
        <ele>472.4</ele>
        <time>2026-07-08T12:38:49Z</time>
      </trkpt>
      <trkpt lat="47.22122" lon="6.05113">
        <ele>472.6</ele>
        <time>2026-07-08T12:38:50Z</time>
      </trkpt>
      <trkpt lat="47.22122" lon="6.05115">
        <ele>472.8</ele>
        <time>2026-07-08T12:38:51Z</time>
      </trkpt>
      <trkpt lat="47.22121" lon="6.05117">
        <ele>473.2</ele>
        <time>2026-07-08T12:38:52Z</time>
      </trkpt>
      <trkpt lat="47.22122" lon="6.05119">
        <ele>473.6</ele>
        <time>2026-07-08T12:38:53Z</time>
      </trkpt>
      <trkpt lat="47.22122" lon="6.05121">
        <ele>473.6</ele>
        <time>2026-07-08T12:38:54Z</time>
      </trkpt>
      <trkpt lat="47.22123" lon="6.05123">
        <ele>474</ele>
        <time>2026-07-08T12:38:55Z</time>
      </trkpt>
      <trkpt lat="47.22123" lon="6.05125">
        <ele>474.2</ele>
        <time>2026-07-08T12:38:56Z</time>
      </trkpt>
      <trkpt lat="47.22123" lon="6.05127">
        <ele>474.2</ele>
        <time>2026-07-08T12:38:57Z</time>
      </trkpt>
      <trkpt lat="47.22122" lon="6.05129">
        <ele>474.4</ele>
        <time>2026-07-08T12:38:58Z</time>
      </trkpt>
      <trkpt lat="47.22122" lon="6.05131">
        <ele>474.6</ele>
        <time>2026-07-08T12:38:59Z</time>
      </trkpt>
      <trkpt lat="47.22122" lon="6.05133">
        <ele>474.8</ele>
        <time>2026-07-08T12:39:00Z</time>
      </trkpt>
      <trkpt lat="47.22121" lon="6.05135">
        <ele>475</ele>
        <time>2026-07-08T12:39:01Z</time>
      </trkpt>
      <trkpt lat="47.2212" lon="6.05137">
        <ele>475.2</ele>
        <time>2026-07-08T12:39:02Z</time>
      </trkpt>
      <trkpt lat="47.22119" lon="6.0514">
        <ele>475.4</ele>
        <time>2026-07-08T12:39:03Z</time>
      </trkpt>
      <trkpt lat="47.22119" lon="6.05142">
        <ele>475.6</ele>
        <time>2026-07-08T12:39:04Z</time>
      </trkpt>
      <trkpt lat="47.22118" lon="6.05145">
        <ele>475.8</ele>
        <time>2026-07-08T12:39:05Z</time>
      </trkpt>
      <trkpt lat="47.22117" lon="6.05147">
        <ele>476</ele>
        <time>2026-07-08T12:39:06Z</time>
      </trkpt>
      <trkpt lat="47.22117" lon="6.0515">
        <ele>476.2</ele>
        <time>2026-07-08T12:39:07Z</time>
      </trkpt>
      <trkpt lat="47.22117" lon="6.05152">
        <ele>476.6</ele>
        <time>2026-07-08T12:39:08Z</time>
      </trkpt>
      <trkpt lat="47.22116" lon="6.05155">
        <ele>476.8</ele>
        <time>2026-07-08T12:39:09Z</time>
      </trkpt>
      <trkpt lat="47.22116" lon="6.05157">
        <ele>476.8</ele>
        <time>2026-07-08T12:39:10Z</time>
      </trkpt>
      <trkpt lat="47.22115" lon="6.05159">
        <ele>476.8</ele>
        <time>2026-07-08T12:39:11Z</time>
      </trkpt>
      <trkpt lat="47.22115" lon="6.05162">
        <ele>477</ele>
        <time>2026-07-08T12:39:12Z</time>
      </trkpt>
      <trkpt lat="47.22115" lon="6.05164">
        <ele>477.2</ele>
        <time>2026-07-08T12:39:13Z</time>
      </trkpt>
      <trkpt lat="47.22115" lon="6.05166">
        <ele>477.4</ele>
        <time>2026-07-08T12:39:14Z</time>
      </trkpt>
      <trkpt lat="47.22115" lon="6.05168">
        <ele>477.6</ele>
        <time>2026-07-08T12:39:15Z</time>
      </trkpt>
      <trkpt lat="47.22115" lon="6.0517">
        <ele>477.8</ele>
        <time>2026-07-08T12:39:16Z</time>
      </trkpt>
      <trkpt lat="47.22115" lon="6.05172">
        <ele>478</ele>
        <time>2026-07-08T12:39:17Z</time>
      </trkpt>
      <trkpt lat="47.22115" lon="6.05174">
        <ele>478.2</ele>
        <time>2026-07-08T12:39:18Z</time>
      </trkpt>
      <trkpt lat="47.22114" lon="6.05176">
        <ele>478.6</ele>
        <time>2026-07-08T12:39:19Z</time>
      </trkpt>
      <trkpt lat="47.22114" lon="6.05177">
        <ele>478.6</ele>
        <time>2026-07-08T12:39:20Z</time>
      </trkpt>
      <trkpt lat="47.22114" lon="6.0518">
        <ele>478.6</ele>
        <time>2026-07-08T12:39:21Z</time>
      </trkpt>
      <trkpt lat="47.22113" lon="6.05182">
        <ele>479</ele>
        <time>2026-07-08T12:39:22Z</time>
      </trkpt>
      <trkpt lat="47.22113" lon="6.05184">
        <ele>479.2</ele>
        <time>2026-07-08T12:39:23Z</time>
      </trkpt>
      <trkpt lat="47.22114" lon="6.05186">
        <ele>479.4</ele>
        <time>2026-07-08T12:39:24Z</time>
      </trkpt>
      <trkpt lat="47.22114" lon="6.05187">
        <ele>479.6</ele>
        <time>2026-07-08T12:39:25Z</time>
      </trkpt>
      <trkpt lat="47.22114" lon="6.05189">
        <ele>479.8</ele>
        <time>2026-07-08T12:39:26Z</time>
      </trkpt>
      <trkpt lat="47.22115" lon="6.05191">
        <ele>480.2</ele>
        <time>2026-07-08T12:39:27Z</time>
      </trkpt>
      <trkpt lat="47.22115" lon="6.05193">
        <ele>480.4</ele>
        <time>2026-07-08T12:39:28Z</time>
      </trkpt>
      <trkpt lat="47.22116" lon="6.05195">
        <ele>480.4</ele>
        <time>2026-07-08T12:39:29Z</time>
      </trkpt>
      <trkpt lat="47.22117" lon="6.05197">
        <ele>480.8</ele>
        <time>2026-07-08T12:39:30Z</time>
      </trkpt>
      <trkpt lat="47.22118" lon="6.052">
        <ele>481</ele>
        <time>2026-07-08T12:39:31Z</time>
      </trkpt>
      <trkpt lat="47.22119" lon="6.05202">
        <ele>481.2</ele>
        <time>2026-07-08T12:39:32Z</time>
      </trkpt>
      <trkpt lat="47.2212" lon="6.05205">
        <ele>481.2</ele>
        <time>2026-07-08T12:39:33Z</time>
      </trkpt>
      <trkpt lat="47.2212" lon="6.05207">
        <ele>481.6</ele>
        <time>2026-07-08T12:39:34Z</time>
      </trkpt>
      <trkpt lat="47.22121" lon="6.05209">
        <ele>481.6</ele>
        <time>2026-07-08T12:39:35Z</time>
      </trkpt>
      <trkpt lat="47.22121" lon="6.05211">
        <ele>481.8</ele>
        <time>2026-07-08T12:39:36Z</time>
      </trkpt>
      <trkpt lat="47.22121" lon="6.05213">
        <ele>482</ele>
        <time>2026-07-08T12:39:37Z</time>
      </trkpt>
      <trkpt lat="47.22122" lon="6.05215">
        <ele>482.2</ele>
        <time>2026-07-08T12:39:38Z</time>
      </trkpt>
      <trkpt lat="47.22121" lon="6.05218">
        <ele>482.4</ele>
        <time>2026-07-08T12:39:39Z</time>
      </trkpt>
      <trkpt lat="47.22122" lon="6.0522">
        <ele>482.2</ele>
        <time>2026-07-08T12:39:40Z</time>
      </trkpt>
      <trkpt lat="47.22123" lon="6.05222">
        <ele>482.4</ele>
        <time>2026-07-08T12:39:41Z</time>
      </trkpt>
      <trkpt lat="47.22123" lon="6.05224">
        <ele>482.4</ele>
        <time>2026-07-08T12:39:42Z</time>
      </trkpt>
      <trkpt lat="47.22124" lon="6.05226">
        <ele>482.4</ele>
        <time>2026-07-08T12:39:43Z</time>
      </trkpt>
      <trkpt lat="47.22124" lon="6.05228">
        <ele>482.8</ele>
        <time>2026-07-08T12:39:44Z</time>
      </trkpt>
      <trkpt lat="47.22125" lon="6.0523">
        <ele>482.8</ele>
        <time>2026-07-08T12:39:45Z</time>
      </trkpt>
      <trkpt lat="47.22125" lon="6.05232">
        <ele>483</ele>
        <time>2026-07-08T12:39:46Z</time>
      </trkpt>
      <trkpt lat="47.22124" lon="6.05233">
        <ele>483.2</ele>
        <time>2026-07-08T12:39:47Z</time>
      </trkpt>
      <trkpt lat="47.22125" lon="6.05235">
        <ele>483.2</ele>
        <time>2026-07-08T12:39:48Z</time>
      </trkpt>
      <trkpt lat="47.22125" lon="6.05236">
        <ele>483.4</ele>
        <time>2026-07-08T12:39:49Z</time>
      </trkpt>
      <trkpt lat="47.22125" lon="6.05238">
        <ele>483.4</ele>
        <time>2026-07-08T12:39:50Z</time>
      </trkpt>
      <trkpt lat="47.22125" lon="6.0524">
        <ele>483.4</ele>
        <time>2026-07-08T12:39:51Z</time>
      </trkpt>
      <trkpt lat="47.22126" lon="6.05242">
        <ele>483.6</ele>
        <time>2026-07-08T12:39:52Z</time>
      </trkpt>
      <trkpt lat="47.22126" lon="6.05244">
        <ele>483.6</ele>
        <time>2026-07-08T12:39:53Z</time>
      </trkpt>
      <trkpt lat="47.22127" lon="6.05246">
        <ele>484</ele>
        <time>2026-07-08T12:39:54Z</time>
      </trkpt>
      <trkpt lat="47.22127" lon="6.05248">
        <ele>484</ele>
        <time>2026-07-08T12:39:55Z</time>
      </trkpt>
      <trkpt lat="47.22127" lon="6.0525">
        <ele>484.2</ele>
        <time>2026-07-08T12:39:56Z</time>
      </trkpt>
      <trkpt lat="47.22128" lon="6.05252">
        <ele>484.4</ele>
        <time>2026-07-08T12:39:57Z</time>
      </trkpt>
      <trkpt lat="47.22129" lon="6.05254">
        <ele>484.8</ele>
        <time>2026-07-08T12:39:58Z</time>
      </trkpt>
      <trkpt lat="47.22131" lon="6.05256">
        <ele>485</ele>
        <time>2026-07-08T12:39:59Z</time>
      </trkpt>
      <trkpt lat="47.22131" lon="6.05259">
        <ele>485.2</ele>
        <time>2026-07-08T12:40:00Z</time>
      </trkpt>
      <trkpt lat="47.22132" lon="6.05261">
        <ele>485.6</ele>
        <time>2026-07-08T12:40:01Z</time>
      </trkpt>
      <trkpt lat="47.22132" lon="6.05264">
        <ele>485.8</ele>
        <time>2026-07-08T12:40:02Z</time>
      </trkpt>
      <trkpt lat="47.22133" lon="6.05266">
        <ele>486</ele>
        <time>2026-07-08T12:40:03Z</time>
      </trkpt>
      <trkpt lat="47.22134" lon="6.05268">
        <ele>486</ele>
        <time>2026-07-08T12:40:04Z</time>
      </trkpt>
      <trkpt lat="47.22135" lon="6.05271">
        <ele>486.4</ele>
        <time>2026-07-08T12:40:05Z</time>
      </trkpt>
      <trkpt lat="47.22135" lon="6.05274">
        <ele>486.6</ele>
        <time>2026-07-08T12:40:06Z</time>
      </trkpt>
      <trkpt lat="47.22136" lon="6.05277">
        <ele>487.2</ele>
        <time>2026-07-08T12:40:07Z</time>
      </trkpt>
      <trkpt lat="47.22137" lon="6.05279">
        <ele>487.4</ele>
        <time>2026-07-08T12:40:08Z</time>
      </trkpt>
      <trkpt lat="47.22137" lon="6.05282">
        <ele>487.6</ele>
        <time>2026-07-08T12:40:09Z</time>
      </trkpt>
      <trkpt lat="47.22138" lon="6.05284">
        <ele>488</ele>
        <time>2026-07-08T12:40:10Z</time>
      </trkpt>
      <trkpt lat="47.22138" lon="6.05286">
        <ele>488.4</ele>
        <time>2026-07-08T12:40:11Z</time>
      </trkpt>
      <trkpt lat="47.22139" lon="6.05287">
        <ele>488.4</ele>
        <time>2026-07-08T12:40:12Z</time>
      </trkpt>
      <trkpt lat="47.22139" lon="6.05289">
        <ele>488.8</ele>
        <time>2026-07-08T12:40:13Z</time>
      </trkpt>
      <trkpt lat="47.22141" lon="6.05291">
        <ele>489</ele>
        <time>2026-07-08T12:40:14Z</time>
      </trkpt>
      <trkpt lat="47.22142" lon="6.05293">
        <ele>489.4</ele>
        <time>2026-07-08T12:40:15Z</time>
      </trkpt>
      <trkpt lat="47.22142" lon="6.05296">
        <ele>489.8</ele>
        <time>2026-07-08T12:40:16Z</time>
      </trkpt>
      <trkpt lat="47.22143" lon="6.05298">
        <ele>490</ele>
        <time>2026-07-08T12:40:17Z</time>
      </trkpt>
      <trkpt lat="47.22145" lon="6.053">
        <ele>490.2</ele>
        <time>2026-07-08T12:40:18Z</time>
      </trkpt>
      <trkpt lat="47.22147" lon="6.05302">
        <ele>490.4</ele>
        <time>2026-07-08T12:40:19Z</time>
      </trkpt>
      <trkpt lat="47.22147" lon="6.05305">
        <ele>490.6</ele>
        <time>2026-07-08T12:40:20Z</time>
      </trkpt>
      <trkpt lat="47.22147" lon="6.05307">
        <ele>490.8</ele>
        <time>2026-07-08T12:40:21Z</time>
      </trkpt>
      <trkpt lat="47.22147" lon="6.0531">
        <ele>491</ele>
        <time>2026-07-08T12:40:22Z</time>
      </trkpt>
      <trkpt lat="47.22147" lon="6.05312">
        <ele>491.2</ele>
        <time>2026-07-08T12:40:23Z</time>
      </trkpt>
      <trkpt lat="47.22148" lon="6.05313">
        <ele>491.4</ele>
        <time>2026-07-08T12:40:24Z</time>
      </trkpt>
      <trkpt lat="47.2215" lon="6.05315">
        <ele>491.4</ele>
        <time>2026-07-08T12:40:25Z</time>
      </trkpt>
      <trkpt lat="47.22151" lon="6.05316">
        <ele>491.8</ele>
        <time>2026-07-08T12:40:26Z</time>
      </trkpt>
      <trkpt lat="47.22151" lon="6.05318">
        <ele>491.8</ele>
        <time>2026-07-08T12:40:27Z</time>
      </trkpt>
      <trkpt lat="47.22152" lon="6.05319">
        <ele>492</ele>
        <time>2026-07-08T12:40:28Z</time>
      </trkpt>
      <trkpt lat="47.22151" lon="6.05322">
        <ele>492</ele>
        <time>2026-07-08T12:40:29Z</time>
      </trkpt>
      <trkpt lat="47.22152" lon="6.05324">
        <ele>492.2</ele>
        <time>2026-07-08T12:40:30Z</time>
      </trkpt>
      <trkpt lat="47.22152" lon="6.05327">
        <ele>492.4</ele>
        <time>2026-07-08T12:40:31Z</time>
      </trkpt>
      <trkpt lat="47.22152" lon="6.05328">
        <ele>492.4</ele>
        <time>2026-07-08T12:40:32Z</time>
      </trkpt>
      <trkpt lat="47.22152" lon="6.05329">
        <ele>492.8</ele>
        <time>2026-07-08T12:40:33Z</time>
      </trkpt>
      <trkpt lat="47.22152" lon="6.0533">
        <ele>492.8</ele>
        <time>2026-07-08T12:40:34Z</time>
      </trkpt>
      <trkpt lat="47.22166" lon="6.05429">
        <ele>510.2</ele>
        <time>2026-07-08T12:42:04Z</time>
      </trkpt>
      <trkpt lat="47.22166" lon="6.05427">
        <ele>510.4</ele>
        <time>2026-07-08T12:42:05Z</time>
      </trkpt>
      <trkpt lat="47.22164" lon="6.05424">
        <ele>510.4</ele>
        <time>2026-07-08T12:42:06Z</time>
      </trkpt>
      <trkpt lat="47.22163" lon="6.05422">
        <ele>510.6</ele>
        <time>2026-07-08T12:42:07Z</time>
      </trkpt>
      <trkpt lat="47.22162" lon="6.0542">
        <ele>510.6</ele>
        <time>2026-07-08T12:42:08Z</time>
      </trkpt>
      <trkpt lat="47.22161" lon="6.05418">
        <ele>511</ele>
        <time>2026-07-08T12:42:09Z</time>
      </trkpt>
      <trkpt lat="47.22159" lon="6.05416">
        <ele>511</ele>
        <time>2026-07-08T12:42:10Z</time>
      </trkpt>
      <trkpt lat="47.22158" lon="6.05414">
        <ele>511</ele>
        <time>2026-07-08T12:42:11Z</time>
      </trkpt>
      <trkpt lat="47.22156" lon="6.05411">
        <ele>511.2</ele>
        <time>2026-07-08T12:42:12Z</time>
      </trkpt>
      <trkpt lat="47.22154" lon="6.05409">
        <ele>511.2</ele>
        <time>2026-07-08T12:42:13Z</time>
      </trkpt>
      <trkpt lat="47.22152" lon="6.05406">
        <ele>511.2</ele>
        <time>2026-07-08T12:42:14Z</time>
      </trkpt>
      <trkpt lat="47.22151" lon="6.05404">
        <ele>511.4</ele>
        <time>2026-07-08T12:42:15Z</time>
      </trkpt>
      <trkpt lat="47.2215" lon="6.05401">
        <ele>511.4</ele>
        <time>2026-07-08T12:42:16Z</time>
      </trkpt>
      <trkpt lat="47.22149" lon="6.05399">
        <ele>511.4</ele>
        <time>2026-07-08T12:42:17Z</time>
      </trkpt>
      <trkpt lat="47.22148" lon="6.05397">
        <ele>511.6</ele>
        <time>2026-07-08T12:42:18Z</time>
      </trkpt>
      <trkpt lat="47.22147" lon="6.05395">
        <ele>511.6</ele>
        <time>2026-07-08T12:42:19Z</time>
      </trkpt>
      <trkpt lat="47.22146" lon="6.05392">
        <ele>511.8</ele>
        <time>2026-07-08T12:42:20Z</time>
      </trkpt>
      <trkpt lat="47.22144" lon="6.0539">
        <ele>511.8</ele>
        <time>2026-07-08T12:42:21Z</time>
      </trkpt>
      <trkpt lat="47.22142" lon="6.05388">
        <ele>512</ele>
        <time>2026-07-08T12:42:22Z</time>
      </trkpt>
      <trkpt lat="47.22139" lon="6.05384">
        <ele>512</ele>
        <time>2026-07-08T12:42:23Z</time>
      </trkpt>
      <trkpt lat="47.22137" lon="6.05381">
        <ele>512</ele>
        <time>2026-07-08T12:42:24Z</time>
      </trkpt>
      <trkpt lat="47.22135" lon="6.05377">
        <ele>511.8</ele>
        <time>2026-07-08T12:42:25Z</time>
      </trkpt>
      <trkpt lat="47.22132" lon="6.05374">
        <ele>512</ele>
        <time>2026-07-08T12:42:26Z</time>
      </trkpt>
      <trkpt lat="47.2213" lon="6.05371">
        <ele>512</ele>
        <time>2026-07-08T12:42:27Z</time>
      </trkpt>
      <trkpt lat="47.22128" lon="6.05368">
        <ele>512</ele>
        <time>2026-07-08T12:42:28Z</time>
      </trkpt>
      <trkpt lat="47.22126" lon="6.05365">
        <ele>512</ele>
        <time>2026-07-08T12:42:29Z</time>
      </trkpt>
      <trkpt lat="47.22124" lon="6.05362">
        <ele>511.8</ele>
        <time>2026-07-08T12:42:30Z</time>
      </trkpt>
      <trkpt lat="47.22122" lon="6.05358">
        <ele>511.8</ele>
        <time>2026-07-08T12:42:31Z</time>
      </trkpt>
      <trkpt lat="47.2212" lon="6.05355">
        <ele>512</ele>
        <time>2026-07-08T12:42:32Z</time>
      </trkpt>
      <trkpt lat="47.22118" lon="6.05351">
        <ele>511.8</ele>
        <time>2026-07-08T12:42:33Z</time>
      </trkpt>
      <trkpt lat="47.22116" lon="6.05347">
        <ele>511.8</ele>
        <time>2026-07-08T12:42:34Z</time>
      </trkpt>
      <trkpt lat="47.22114" lon="6.05343">
        <ele>511.8</ele>
        <time>2026-07-08T12:42:35Z</time>
      </trkpt>
      <trkpt lat="47.22113" lon="6.0534">
        <ele>511.8</ele>
        <time>2026-07-08T12:42:36Z</time>
      </trkpt>
      <trkpt lat="47.22111" lon="6.05337">
        <ele>511.6</ele>
        <time>2026-07-08T12:42:37Z</time>
      </trkpt>
      <trkpt lat="47.22109" lon="6.05334">
        <ele>511.8</ele>
        <time>2026-07-08T12:42:38Z</time>
      </trkpt>
      <trkpt lat="47.22108" lon="6.05332">
        <ele>511.8</ele>
        <time>2026-07-08T12:42:39Z</time>
      </trkpt>
      <trkpt lat="47.22106" lon="6.05329">
        <ele>511.8</ele>
        <time>2026-07-08T12:42:40Z</time>
      </trkpt>
      <trkpt lat="47.22104" lon="6.05327">
        <ele>511.8</ele>
        <time>2026-07-08T12:42:41Z</time>
      </trkpt>
      <trkpt lat="47.22102" lon="6.05325">
        <ele>511.6</ele>
        <time>2026-07-08T12:42:42Z</time>
      </trkpt>
      <trkpt lat="47.22101" lon="6.05323">
        <ele>511.6</ele>
        <time>2026-07-08T12:42:43Z</time>
      </trkpt>
      <trkpt lat="47.22099" lon="6.05322">
        <ele>511.8</ele>
        <time>2026-07-08T12:42:44Z</time>
      </trkpt>
      <trkpt lat="47.22098" lon="6.0532">
        <ele>512</ele>
        <time>2026-07-08T12:42:45Z</time>
      </trkpt>
      <trkpt lat="47.22097" lon="6.05318">
        <ele>512</ele>
        <time>2026-07-08T12:42:46Z</time>
      </trkpt>
      <trkpt lat="47.22096" lon="6.05315">
        <ele>512.2</ele>
        <time>2026-07-08T12:42:47Z</time>
      </trkpt>
      <trkpt lat="47.22094" lon="6.05313">
        <ele>512.4</ele>
        <time>2026-07-08T12:42:48Z</time>
      </trkpt>
      <trkpt lat="47.22093" lon="6.05311">
        <ele>512.4</ele>
        <time>2026-07-08T12:42:49Z</time>
      </trkpt>
      <trkpt lat="47.22091" lon="6.05309">
        <ele>512.4</ele>
        <time>2026-07-08T12:42:50Z</time>
      </trkpt>
      <trkpt lat="47.22088" lon="6.05308">
        <ele>512.6</ele>
        <time>2026-07-08T12:42:51Z</time>
      </trkpt>
      <trkpt lat="47.22086" lon="6.05306">
        <ele>512.8</ele>
        <time>2026-07-08T12:42:52Z</time>
      </trkpt>
      <trkpt lat="47.22084" lon="6.05305">
        <ele>512.8</ele>
        <time>2026-07-08T12:42:53Z</time>
      </trkpt>
      <trkpt lat="47.22082" lon="6.05304">
        <ele>512.8</ele>
        <time>2026-07-08T12:42:54Z</time>
      </trkpt>
      <trkpt lat="47.2208" lon="6.05303">
        <ele>513</ele>
        <time>2026-07-08T12:42:55Z</time>
      </trkpt>
      <trkpt lat="47.22078" lon="6.05302">
        <ele>513.2</ele>
        <time>2026-07-08T12:42:56Z</time>
      </trkpt>
      <trkpt lat="47.22075" lon="6.05303">
        <ele>513.2</ele>
        <time>2026-07-08T12:42:57Z</time>
      </trkpt>
      <trkpt lat="47.22072" lon="6.05303">
        <ele>513.2</ele>
        <time>2026-07-08T12:42:58Z</time>
      </trkpt>
      <trkpt lat="47.22069" lon="6.05303">
        <ele>513.4</ele>
        <time>2026-07-08T12:42:59Z</time>
      </trkpt>
      <trkpt lat="47.22066" lon="6.05302">
        <ele>513.6</ele>
        <time>2026-07-08T12:43:00Z</time>
      </trkpt>
      <trkpt lat="47.22064" lon="6.05302">
        <ele>513.4</ele>
        <time>2026-07-08T12:43:01Z</time>
      </trkpt>
      <trkpt lat="47.2206" lon="6.05302">
        <ele>513.4</ele>
        <time>2026-07-08T12:43:02Z</time>
      </trkpt>
      <trkpt lat="47.22056" lon="6.05301">
        <ele>513.4</ele>
        <time>2026-07-08T12:43:03Z</time>
      </trkpt>
      <trkpt lat="47.22052" lon="6.05298">
        <ele>513.4</ele>
        <time>2026-07-08T12:43:04Z</time>
      </trkpt>
      <trkpt lat="47.22048" lon="6.05295">
        <ele>513.4</ele>
        <time>2026-07-08T12:43:05Z</time>
      </trkpt>
      <trkpt lat="47.22042" lon="6.05292">
        <ele>513.4</ele>
        <time>2026-07-08T12:43:06Z</time>
      </trkpt>
      <trkpt lat="47.22036" lon="6.05289">
        <ele>513.4</ele>
        <time>2026-07-08T12:43:07Z</time>
      </trkpt>
      <trkpt lat="47.22031" lon="6.05286">
        <ele>513</ele>
        <time>2026-07-08T12:43:08Z</time>
      </trkpt>
      <trkpt lat="47.22026" lon="6.05283">
        <ele>512.6</ele>
        <time>2026-07-08T12:43:09Z</time>
      </trkpt>
      <trkpt lat="47.2202" lon="6.0528">
        <ele>512</ele>
        <time>2026-07-08T12:43:10Z</time>
      </trkpt>
      <trkpt lat="47.22014" lon="6.05277">
        <ele>511.2</ele>
        <time>2026-07-08T12:43:11Z</time>
      </trkpt>
      <trkpt lat="47.22008" lon="6.05275">
        <ele>511.2</ele>
        <time>2026-07-08T12:43:12Z</time>
      </trkpt>
      <trkpt lat="47.22002" lon="6.05272">
        <ele>510.8</ele>
        <time>2026-07-08T12:43:13Z</time>
      </trkpt>
      <trkpt lat="47.21997" lon="6.0527">
        <ele>510.2</ele>
        <time>2026-07-08T12:43:14Z</time>
      </trkpt>
      <trkpt lat="47.21993" lon="6.05267">
        <ele>509.8</ele>
        <time>2026-07-08T12:43:15Z</time>
      </trkpt>
      <trkpt lat="47.21989" lon="6.05265">
        <ele>509.6</ele>
        <time>2026-07-08T12:43:16Z</time>
      </trkpt>
      <trkpt lat="47.21986" lon="6.05264">
        <ele>509.6</ele>
        <time>2026-07-08T12:43:17Z</time>
      </trkpt>
      <trkpt lat="47.21983" lon="6.05263">
        <ele>509.6</ele>
        <time>2026-07-08T12:43:18Z</time>
      </trkpt>
      <trkpt lat="47.2198" lon="6.05261">
        <ele>509.4</ele>
        <time>2026-07-08T12:43:19Z</time>
      </trkpt>
      <trkpt lat="47.21977" lon="6.05259">
        <ele>509.4</ele>
        <time>2026-07-08T12:43:20Z</time>
      </trkpt>
      <trkpt lat="47.21974" lon="6.05257">
        <ele>509</ele>
        <time>2026-07-08T12:43:21Z</time>
      </trkpt>
      <trkpt lat="47.2197" lon="6.05254">
        <ele>509</ele>
        <time>2026-07-08T12:43:22Z</time>
      </trkpt>
      <trkpt lat="47.21967" lon="6.05252">
        <ele>509</ele>
        <time>2026-07-08T12:43:23Z</time>
      </trkpt>
      <trkpt lat="47.21962" lon="6.05249">
        <ele>509</ele>
        <time>2026-07-08T12:43:24Z</time>
      </trkpt>
      <trkpt lat="47.21958" lon="6.05246">
        <ele>508.8</ele>
        <time>2026-07-08T12:43:25Z</time>
      </trkpt>
      <trkpt lat="47.21953" lon="6.05243">
        <ele>509</ele>
        <time>2026-07-08T12:43:26Z</time>
      </trkpt>
      <trkpt lat="47.21949" lon="6.05241">
        <ele>509</ele>
        <time>2026-07-08T12:43:27Z</time>
      </trkpt>
      <trkpt lat="47.21945" lon="6.05239">
        <ele>508.6</ele>
        <time>2026-07-08T12:43:28Z</time>
      </trkpt>
      <trkpt lat="47.21941" lon="6.05237">
        <ele>508.6</ele>
        <time>2026-07-08T12:43:29Z</time>
      </trkpt>
      <trkpt lat="47.21937" lon="6.05236">
        <ele>508</ele>
        <time>2026-07-08T12:43:30Z</time>
      </trkpt>
      <trkpt lat="47.21933" lon="6.05237">
        <ele>507.2</ele>
        <time>2026-07-08T12:43:31Z</time>
      </trkpt>
      <trkpt lat="47.21928" lon="6.05237">
        <ele>506.6</ele>
        <time>2026-07-08T12:43:32Z</time>
      </trkpt>
      <trkpt lat="47.21925" lon="6.05238">
        <ele>506.4</ele>
        <time>2026-07-08T12:43:33Z</time>
      </trkpt>
      <trkpt lat="47.21922" lon="6.05238">
        <ele>505.8</ele>
        <time>2026-07-08T12:43:34Z</time>
      </trkpt>
      <trkpt lat="47.21918" lon="6.05239">
        <ele>505.8</ele>
        <time>2026-07-08T12:43:35Z</time>
      </trkpt>
      <trkpt lat="47.21915" lon="6.0524">
        <ele>504.8</ele>
        <time>2026-07-08T12:43:36Z</time>
      </trkpt>
      <trkpt lat="47.21912" lon="6.05241">
        <ele>504.4</ele>
        <time>2026-07-08T12:43:37Z</time>
      </trkpt>
      <trkpt lat="47.21909" lon="6.05243">
        <ele>503.4</ele>
        <time>2026-07-08T12:43:38Z</time>
      </trkpt>
      <trkpt lat="47.21905" lon="6.05246">
        <ele>503.2</ele>
        <time>2026-07-08T12:43:39Z</time>
      </trkpt>
      <trkpt lat="47.21901" lon="6.05247">
        <ele>502.4</ele>
        <time>2026-07-08T12:43:40Z</time>
      </trkpt>
      <trkpt lat="47.21897" lon="6.0525">
        <ele>502</ele>
        <time>2026-07-08T12:43:41Z</time>
      </trkpt>
      <trkpt lat="47.21892" lon="6.05252">
        <ele>501.6</ele>
        <time>2026-07-08T12:43:42Z</time>
      </trkpt>
      <trkpt lat="47.21888" lon="6.05254">
        <ele>501.2</ele>
        <time>2026-07-08T12:43:43Z</time>
      </trkpt>
      <trkpt lat="47.21882" lon="6.05257">
        <ele>500.8</ele>
        <time>2026-07-08T12:43:44Z</time>
      </trkpt>
      <trkpt lat="47.21877" lon="6.0526">
        <ele>500.4</ele>
        <time>2026-07-08T12:43:45Z</time>
      </trkpt>
      <trkpt lat="47.21872" lon="6.05263">
        <ele>500.2</ele>
        <time>2026-07-08T12:43:46Z</time>
      </trkpt>
      <trkpt lat="47.21868" lon="6.05266">
        <ele>499.8</ele>
        <time>2026-07-08T12:43:47Z</time>
      </trkpt>
      <trkpt lat="47.21863" lon="6.05269">
        <ele>499.6</ele>
        <time>2026-07-08T12:43:48Z</time>
      </trkpt>
      <trkpt lat="47.21859" lon="6.05272">
        <ele>499.6</ele>
        <time>2026-07-08T12:43:49Z</time>
      </trkpt>
      <trkpt lat="47.21855" lon="6.05275">
        <ele>499.4</ele>
        <time>2026-07-08T12:43:50Z</time>
      </trkpt>
      <trkpt lat="47.21851" lon="6.05277">
        <ele>499.4</ele>
        <time>2026-07-08T12:43:51Z</time>
      </trkpt>
      <trkpt lat="47.21847" lon="6.0528">
        <ele>499.4</ele>
        <time>2026-07-08T12:43:52Z</time>
      </trkpt>
      <trkpt lat="47.21843" lon="6.05283">
        <ele>499.4</ele>
        <time>2026-07-08T12:43:53Z</time>
      </trkpt>
      <trkpt lat="47.21839" lon="6.05285">
        <ele>499.4</ele>
        <time>2026-07-08T12:43:54Z</time>
      </trkpt>
      <trkpt lat="47.21835" lon="6.05287">
        <ele>499.4</ele>
        <time>2026-07-08T12:43:55Z</time>
      </trkpt>
      <trkpt lat="47.21831" lon="6.05289">
        <ele>499.4</ele>
        <time>2026-07-08T12:43:56Z</time>
      </trkpt>
      <trkpt lat="47.21828" lon="6.05291">
        <ele>499.4</ele>
        <time>2026-07-08T12:43:57Z</time>
      </trkpt>
      <trkpt lat="47.21824" lon="6.05294">
        <ele>499.4</ele>
        <time>2026-07-08T12:43:58Z</time>
      </trkpt>
      <trkpt lat="47.21821" lon="6.05297">
        <ele>499.4</ele>
        <time>2026-07-08T12:43:59Z</time>
      </trkpt>
      <trkpt lat="47.21817" lon="6.05299">
        <ele>499.4</ele>
        <time>2026-07-08T12:44:00Z</time>
      </trkpt>
      <trkpt lat="47.21814" lon="6.05301">
        <ele>499.4</ele>
        <time>2026-07-08T12:44:01Z</time>
      </trkpt>
      <trkpt lat="47.21811" lon="6.05303">
        <ele>499.4</ele>
        <time>2026-07-08T12:44:02Z</time>
      </trkpt>
      <trkpt lat="47.21807" lon="6.05305">
        <ele>499.6</ele>
        <time>2026-07-08T12:44:03Z</time>
      </trkpt>
      <trkpt lat="47.21804" lon="6.05307">
        <ele>499.8</ele>
        <time>2026-07-08T12:44:04Z</time>
      </trkpt>
      <trkpt lat="47.218" lon="6.05308">
        <ele>499.8</ele>
        <time>2026-07-08T12:44:05Z</time>
      </trkpt>
      <trkpt lat="47.21796" lon="6.05309">
        <ele>500</ele>
        <time>2026-07-08T12:44:06Z</time>
      </trkpt>
      <trkpt lat="47.21791" lon="6.05308">
        <ele>500</ele>
        <time>2026-07-08T12:44:07Z</time>
      </trkpt>
      <trkpt lat="47.21787" lon="6.05308">
        <ele>500</ele>
        <time>2026-07-08T12:44:08Z</time>
      </trkpt>
      <trkpt lat="47.21782" lon="6.05307">
        <ele>500</ele>
        <time>2026-07-08T12:44:09Z</time>
      </trkpt>
      <trkpt lat="47.21776" lon="6.05306">
        <ele>499.8</ele>
        <time>2026-07-08T12:44:10Z</time>
      </trkpt>
      <trkpt lat="47.2177" lon="6.05305">
        <ele>499.8</ele>
        <time>2026-07-08T12:44:11Z</time>
      </trkpt>
      <trkpt lat="47.21765" lon="6.05305">
        <ele>500</ele>
        <time>2026-07-08T12:44:12Z</time>
      </trkpt>
      <trkpt lat="47.21759" lon="6.05305">
        <ele>499.8</ele>
        <time>2026-07-08T12:44:13Z</time>
      </trkpt>
      <trkpt lat="47.21753" lon="6.05305">
        <ele>499.8</ele>
        <time>2026-07-08T12:44:14Z</time>
      </trkpt>
      <trkpt lat="47.21746" lon="6.05306">
        <ele>499.8</ele>
        <time>2026-07-08T12:44:15Z</time>
      </trkpt>
      <trkpt lat="47.21738" lon="6.05307">
        <ele>499.4</ele>
        <time>2026-07-08T12:44:16Z</time>
      </trkpt>
      <trkpt lat="47.21731" lon="6.05308">
        <ele>499.4</ele>
        <time>2026-07-08T12:44:17Z</time>
      </trkpt>
      <trkpt lat="47.21724" lon="6.05309">
        <ele>499.2</ele>
        <time>2026-07-08T12:44:18Z</time>
      </trkpt>
      <trkpt lat="47.21716" lon="6.05311">
        <ele>499.2</ele>
        <time>2026-07-08T12:44:19Z</time>
      </trkpt>
      <trkpt lat="47.21709" lon="6.05312">
        <ele>499.2</ele>
        <time>2026-07-08T12:44:20Z</time>
      </trkpt>
      <trkpt lat="47.21701" lon="6.05313">
        <ele>498.8</ele>
        <time>2026-07-08T12:44:21Z</time>
      </trkpt>
      <trkpt lat="47.21693" lon="6.05314">
        <ele>498.6</ele>
        <time>2026-07-08T12:44:22Z</time>
      </trkpt>
      <trkpt lat="47.21686" lon="6.05314">
        <ele>498</ele>
        <time>2026-07-08T12:44:23Z</time>
      </trkpt>
      <trkpt lat="47.21678" lon="6.05314">
        <ele>498</ele>
        <time>2026-07-08T12:44:24Z</time>
      </trkpt>
      <trkpt lat="47.21671" lon="6.05315">
        <ele>497.6</ele>
        <time>2026-07-08T12:44:25Z</time>
      </trkpt>
      <trkpt lat="47.21663" lon="6.05318">
        <ele>497.4</ele>
        <time>2026-07-08T12:44:26Z</time>
      </trkpt>
      <trkpt lat="47.21656" lon="6.05321">
        <ele>497.2</ele>
        <time>2026-07-08T12:44:27Z</time>
      </trkpt>
      <trkpt lat="47.21649" lon="6.05325">
        <ele>497</ele>
        <time>2026-07-08T12:44:28Z</time>
      </trkpt>
      <trkpt lat="47.21643" lon="6.0533">
        <ele>496.8</ele>
        <time>2026-07-08T12:44:29Z</time>
      </trkpt>
      <trkpt lat="47.21637" lon="6.05336">
        <ele>496.6</ele>
        <time>2026-07-08T12:44:30Z</time>
      </trkpt>
      <trkpt lat="47.21632" lon="6.05343">
        <ele>496.6</ele>
        <time>2026-07-08T12:44:31Z</time>
      </trkpt>
      <trkpt lat="47.21627" lon="6.05351">
        <ele>496.4</ele>
        <time>2026-07-08T12:44:32Z</time>
      </trkpt>
      <trkpt lat="47.21622" lon="6.05359">
        <ele>495.8</ele>
        <time>2026-07-08T12:44:33Z</time>
      </trkpt>
      <trkpt lat="47.21618" lon="6.05367">
        <ele>495.6</ele>
        <time>2026-07-08T12:44:34Z</time>
      </trkpt>
      <trkpt lat="47.21614" lon="6.05376">
        <ele>495.4</ele>
        <time>2026-07-08T12:44:35Z</time>
      </trkpt>
      <trkpt lat="47.21611" lon="6.05384">
        <ele>495.2</ele>
        <time>2026-07-08T12:44:36Z</time>
      </trkpt>
      <trkpt lat="47.21607" lon="6.05393">
        <ele>495.2</ele>
        <time>2026-07-08T12:44:37Z</time>
      </trkpt>
      <trkpt lat="47.21604" lon="6.05401">
        <ele>495</ele>
        <time>2026-07-08T12:44:38Z</time>
      </trkpt>
      <trkpt lat="47.216" lon="6.05409">
        <ele>494.8</ele>
        <time>2026-07-08T12:44:39Z</time>
      </trkpt>
      <trkpt lat="47.21596" lon="6.05417">
        <ele>494.8</ele>
        <time>2026-07-08T12:44:40Z</time>
      </trkpt>
      <trkpt lat="47.21592" lon="6.05425">
        <ele>494.8</ele>
        <time>2026-07-08T12:44:41Z</time>
      </trkpt>
      <trkpt lat="47.21588" lon="6.05434">
        <ele>494.4</ele>
        <time>2026-07-08T12:44:42Z</time>
      </trkpt>
      <trkpt lat="47.21584" lon="6.05442">
        <ele>493.8</ele>
        <time>2026-07-08T12:44:43Z</time>
      </trkpt>
      <trkpt lat="47.21579" lon="6.05449">
        <ele>493.6</ele>
        <time>2026-07-08T12:44:44Z</time>
      </trkpt>
      <trkpt lat="47.21575" lon="6.05457">
        <ele>493.4</ele>
        <time>2026-07-08T12:44:45Z</time>
      </trkpt>
      <trkpt lat="47.21572" lon="6.05464">
        <ele>493.2</ele>
        <time>2026-07-08T12:44:46Z</time>
      </trkpt>
      <trkpt lat="47.21568" lon="6.05471">
        <ele>492.8</ele>
        <time>2026-07-08T12:44:47Z</time>
      </trkpt>
      <trkpt lat="47.21564" lon="6.05478">
        <ele>492.8</ele>
        <time>2026-07-08T12:44:48Z</time>
      </trkpt>
      <trkpt lat="47.2156" lon="6.05484">
        <ele>492.8</ele>
        <time>2026-07-08T12:44:49Z</time>
      </trkpt>
      <trkpt lat="47.21557" lon="6.05491">
        <ele>492.6</ele>
        <time>2026-07-08T12:44:50Z</time>
      </trkpt>
      <trkpt lat="47.21554" lon="6.05498">
        <ele>492.4</ele>
        <time>2026-07-08T12:44:51Z</time>
      </trkpt>
      <trkpt lat="47.2155" lon="6.05505">
        <ele>492.4</ele>
        <time>2026-07-08T12:44:52Z</time>
      </trkpt>
      <trkpt lat="47.21547" lon="6.05511">
        <ele>492.4</ele>
        <time>2026-07-08T12:44:53Z</time>
      </trkpt>
      <trkpt lat="47.21543" lon="6.05516">
        <ele>492.4</ele>
        <time>2026-07-08T12:44:54Z</time>
      </trkpt>
      <trkpt lat="47.21539" lon="6.05522">
        <ele>492.2</ele>
        <time>2026-07-08T12:44:55Z</time>
      </trkpt>
      <trkpt lat="47.21535" lon="6.05528">
        <ele>492.2</ele>
        <time>2026-07-08T12:44:56Z</time>
      </trkpt>
      <trkpt lat="47.21531" lon="6.05534">
        <ele>492</ele>
        <time>2026-07-08T12:44:57Z</time>
      </trkpt>
      <trkpt lat="47.21527" lon="6.05539">
        <ele>491.8</ele>
        <time>2026-07-08T12:44:58Z</time>
      </trkpt>
      <trkpt lat="47.21523" lon="6.05544">
        <ele>491.8</ele>
        <time>2026-07-08T12:44:59Z</time>
      </trkpt>
      <trkpt lat="47.21521" lon="6.05549">
        <ele>491.6</ele>
        <time>2026-07-08T12:45:00Z</time>
      </trkpt>
      <trkpt lat="47.21519" lon="6.05554">
        <ele>491.8</ele>
        <time>2026-07-08T12:45:01Z</time>
      </trkpt>
      <trkpt lat="47.21516" lon="6.05559">
        <ele>491.4</ele>
        <time>2026-07-08T12:45:02Z</time>
      </trkpt>
      <trkpt lat="47.21514" lon="6.05564">
        <ele>491.4</ele>
        <time>2026-07-08T12:45:03Z</time>
      </trkpt>
      <trkpt lat="47.21511" lon="6.05569">
        <ele>491.2</ele>
        <time>2026-07-08T12:45:04Z</time>
      </trkpt>
      <trkpt lat="47.21507" lon="6.05573">
        <ele>491</ele>
        <time>2026-07-08T12:45:05Z</time>
      </trkpt>
      <trkpt lat="47.21503" lon="6.05578">
        <ele>491</ele>
        <time>2026-07-08T12:45:06Z</time>
      </trkpt>
      <trkpt lat="47.21499" lon="6.05583">
        <ele>490.8</ele>
        <time>2026-07-08T12:45:07Z</time>
      </trkpt>
      <trkpt lat="47.21495" lon="6.05587">
        <ele>490.6</ele>
        <time>2026-07-08T12:45:08Z</time>
      </trkpt>
      <trkpt lat="47.21491" lon="6.05591">
        <ele>490.4</ele>
        <time>2026-07-08T12:45:09Z</time>
      </trkpt>
      <trkpt lat="47.21487" lon="6.05596">
        <ele>490.4</ele>
        <time>2026-07-08T12:45:10Z</time>
      </trkpt>
      <trkpt lat="47.21482" lon="6.056">
        <ele>490.4</ele>
        <time>2026-07-08T12:45:11Z</time>
      </trkpt>
      <trkpt lat="47.21478" lon="6.05604">
        <ele>490.4</ele>
        <time>2026-07-08T12:45:12Z</time>
      </trkpt>
      <trkpt lat="47.21473" lon="6.05609">
        <ele>490.4</ele>
        <time>2026-07-08T12:45:13Z</time>
      </trkpt>
      <trkpt lat="47.21468" lon="6.05613">
        <ele>490.4</ele>
        <time>2026-07-08T12:45:14Z</time>
      </trkpt>
      <trkpt lat="47.21464" lon="6.05617">
        <ele>490</ele>
        <time>2026-07-08T12:45:15Z</time>
      </trkpt>
      <trkpt lat="47.21459" lon="6.0562">
        <ele>490</ele>
        <time>2026-07-08T12:45:16Z</time>
      </trkpt>
      <trkpt lat="47.21454" lon="6.05623">
        <ele>489.8</ele>
        <time>2026-07-08T12:45:17Z</time>
      </trkpt>
      <trkpt lat="47.2145" lon="6.05626">
        <ele>489.8</ele>
        <time>2026-07-08T12:45:18Z</time>
      </trkpt>
      <trkpt lat="47.21445" lon="6.05629">
        <ele>489.8</ele>
        <time>2026-07-08T12:45:19Z</time>
      </trkpt>
      <trkpt lat="47.21441" lon="6.05633">
        <ele>489.6</ele>
        <time>2026-07-08T12:45:20Z</time>
      </trkpt>
      <trkpt lat="47.21437" lon="6.05636">
        <ele>489.8</ele>
        <time>2026-07-08T12:45:21Z</time>
      </trkpt>
      <trkpt lat="47.21434" lon="6.05639">
        <ele>489.8</ele>
        <time>2026-07-08T12:45:22Z</time>
      </trkpt>
      <trkpt lat="47.2143" lon="6.05642">
        <ele>489.8</ele>
        <time>2026-07-08T12:45:23Z</time>
      </trkpt>
      <trkpt lat="47.21427" lon="6.05645">
        <ele>489.6</ele>
        <time>2026-07-08T12:45:24Z</time>
      </trkpt>
      <trkpt lat="47.21425" lon="6.05647">
        <ele>489.6</ele>
        <time>2026-07-08T12:45:25Z</time>
      </trkpt>
      <trkpt lat="47.21422" lon="6.05649">
        <ele>489.6</ele>
        <time>2026-07-08T12:45:26Z</time>
      </trkpt>
      <trkpt lat="47.21419" lon="6.05652">
        <ele>489.6</ele>
        <time>2026-07-08T12:45:27Z</time>
      </trkpt>
      <trkpt lat="47.21417" lon="6.05654">
        <ele>489.8</ele>
        <time>2026-07-08T12:45:28Z</time>
      </trkpt>
      <trkpt lat="47.21414" lon="6.05656">
        <ele>489.8</ele>
        <time>2026-07-08T12:45:29Z</time>
      </trkpt>
      <trkpt lat="47.21411" lon="6.05657">
        <ele>490</ele>
        <time>2026-07-08T12:45:30Z</time>
      </trkpt>
      <trkpt lat="47.21408" lon="6.05658">
        <ele>490.4</ele>
        <time>2026-07-08T12:45:31Z</time>
      </trkpt>
      <trkpt lat="47.21405" lon="6.0566">
        <ele>490.8</ele>
        <time>2026-07-08T12:45:32Z</time>
      </trkpt>
      <trkpt lat="47.21402" lon="6.05662">
        <ele>490.8</ele>
        <time>2026-07-08T12:45:33Z</time>
      </trkpt>
      <trkpt lat="47.21399" lon="6.05663">
        <ele>491.4</ele>
        <time>2026-07-08T12:45:34Z</time>
      </trkpt>
      <trkpt lat="47.21395" lon="6.05663">
        <ele>491.4</ele>
        <time>2026-07-08T12:45:35Z</time>
      </trkpt>
      <trkpt lat="47.21392" lon="6.05663">
        <ele>491.8</ele>
        <time>2026-07-08T12:45:36Z</time>
      </trkpt>
      <trkpt lat="47.21388" lon="6.05662">
        <ele>492</ele>
        <time>2026-07-08T12:45:37Z</time>
      </trkpt>
      <trkpt lat="47.21385" lon="6.05661">
        <ele>492.2</ele>
        <time>2026-07-08T12:45:38Z</time>
      </trkpt>
      <trkpt lat="47.21381" lon="6.05659">
        <ele>492.2</ele>
        <time>2026-07-08T12:45:39Z</time>
      </trkpt>
      <trkpt lat="47.21377" lon="6.05657">
        <ele>492.4</ele>
        <time>2026-07-08T12:45:40Z</time>
      </trkpt>
      <trkpt lat="47.21373" lon="6.05654">
        <ele>492.8</ele>
        <time>2026-07-08T12:45:41Z</time>
      </trkpt>
      <trkpt lat="47.21368" lon="6.05652">
        <ele>492.8</ele>
        <time>2026-07-08T12:45:42Z</time>
      </trkpt>
      <trkpt lat="47.21364" lon="6.0565">
        <ele>493</ele>
        <time>2026-07-08T12:45:43Z</time>
      </trkpt>
      <trkpt lat="47.2136" lon="6.05647">
        <ele>493</ele>
        <time>2026-07-08T12:45:44Z</time>
      </trkpt>
      <trkpt lat="47.21355" lon="6.05644">
        <ele>493</ele>
        <time>2026-07-08T12:45:45Z</time>
      </trkpt>
      <trkpt lat="47.21351" lon="6.0564">
        <ele>493</ele>
        <time>2026-07-08T12:45:46Z</time>
      </trkpt>
      <trkpt lat="47.21347" lon="6.05637">
        <ele>493</ele>
        <time>2026-07-08T12:45:47Z</time>
      </trkpt>
      <trkpt lat="47.21343" lon="6.05634">
        <ele>493</ele>
        <time>2026-07-08T12:45:48Z</time>
      </trkpt>
      <trkpt lat="47.2134" lon="6.0563">
        <ele>493.2</ele>
        <time>2026-07-08T12:45:49Z</time>
      </trkpt>
      <trkpt lat="47.21336" lon="6.05626">
        <ele>493.2</ele>
        <time>2026-07-08T12:45:50Z</time>
      </trkpt>
      <trkpt lat="47.21333" lon="6.05623">
        <ele>493.2</ele>
        <time>2026-07-08T12:45:51Z</time>
      </trkpt>
      <trkpt lat="47.21329" lon="6.0562">
        <ele>493.2</ele>
        <time>2026-07-08T12:45:52Z</time>
      </trkpt>
      <trkpt lat="47.21326" lon="6.05617">
        <ele>493.4</ele>
        <time>2026-07-08T12:45:53Z</time>
      </trkpt>
      <trkpt lat="47.21323" lon="6.05614">
        <ele>493.4</ele>
        <time>2026-07-08T12:45:54Z</time>
      </trkpt>
      <trkpt lat="47.2132" lon="6.0561">
        <ele>493.4</ele>
        <time>2026-07-08T12:45:55Z</time>
      </trkpt>
      <trkpt lat="47.21317" lon="6.05607">
        <ele>493.4</ele>
        <time>2026-07-08T12:45:56Z</time>
      </trkpt>
      <trkpt lat="47.21314" lon="6.05604">
        <ele>493.4</ele>
        <time>2026-07-08T12:45:57Z</time>
      </trkpt>
      <trkpt lat="47.21311" lon="6.05601">
        <ele>493.6</ele>
        <time>2026-07-08T12:45:58Z</time>
      </trkpt>
      <trkpt lat="47.21308" lon="6.05599">
        <ele>493.4</ele>
        <time>2026-07-08T12:45:59Z</time>
      </trkpt>
      <trkpt lat="47.21305" lon="6.05597">
        <ele>493.8</ele>
        <time>2026-07-08T12:46:00Z</time>
      </trkpt>
      <trkpt lat="47.21303" lon="6.05595">
        <ele>493.8</ele>
        <time>2026-07-08T12:46:01Z</time>
      </trkpt>
      <trkpt lat="47.213" lon="6.05593">
        <ele>494</ele>
        <time>2026-07-08T12:46:02Z</time>
      </trkpt>
      <trkpt lat="47.21297" lon="6.05591">
        <ele>494.2</ele>
        <time>2026-07-08T12:46:03Z</time>
      </trkpt>
      <trkpt lat="47.21294" lon="6.05591">
        <ele>494.4</ele>
        <time>2026-07-08T12:46:04Z</time>
      </trkpt>
      <trkpt lat="47.21291" lon="6.05591">
        <ele>494.8</ele>
        <time>2026-07-08T12:46:05Z</time>
      </trkpt>
      <trkpt lat="47.21289" lon="6.05589">
        <ele>495.2</ele>
        <time>2026-07-08T12:46:06Z</time>
      </trkpt>
      <trkpt lat="47.21286" lon="6.05588">
        <ele>495.4</ele>
        <time>2026-07-08T12:46:07Z</time>
      </trkpt>
      <trkpt lat="47.21284" lon="6.05586">
        <ele>495.4</ele>
        <time>2026-07-08T12:46:08Z</time>
      </trkpt>
      <trkpt lat="47.21283" lon="6.05585">
        <ele>495.6</ele>
        <time>2026-07-08T12:46:09Z</time>
      </trkpt>
      <trkpt lat="47.21281" lon="6.05583">
        <ele>495.6</ele>
        <time>2026-07-08T12:46:10Z</time>
      </trkpt>
      <trkpt lat="47.21278" lon="6.0558">
        <ele>496</ele>
        <time>2026-07-08T12:46:11Z</time>
      </trkpt>
      <trkpt lat="47.21276" lon="6.05577">
        <ele>496.2</ele>
        <time>2026-07-08T12:46:12Z</time>
      </trkpt>
      <trkpt lat="47.21274" lon="6.05574">
        <ele>496.4</ele>
        <time>2026-07-08T12:46:13Z</time>
      </trkpt>
      <trkpt lat="47.21272" lon="6.05571">
        <ele>496.6</ele>
        <time>2026-07-08T12:46:14Z</time>
      </trkpt>
      <trkpt lat="47.2127" lon="6.05569">
        <ele>496.8</ele>
        <time>2026-07-08T12:46:15Z</time>
      </trkpt>
      <trkpt lat="47.21268" lon="6.05566">
        <ele>497.2</ele>
        <time>2026-07-08T12:46:16Z</time>
      </trkpt>
      <trkpt lat="47.21265" lon="6.0556">
        <ele>497.4</ele>
        <time>2026-07-08T12:46:17Z</time>
      </trkpt>
      <trkpt lat="47.21261" lon="6.05555">
        <ele>497.8</ele>
        <time>2026-07-08T12:46:18Z</time>
      </trkpt>
      <trkpt lat="47.21258" lon="6.0555">
        <ele>498</ele>
        <time>2026-07-08T12:46:19Z</time>
      </trkpt>
      <trkpt lat="47.21256" lon="6.05547">
        <ele>498.2</ele>
        <time>2026-07-08T12:46:20Z</time>
      </trkpt>
      <trkpt lat="47.21253" lon="6.05544">
        <ele>498.8</ele>
        <time>2026-07-08T12:46:21Z</time>
      </trkpt>
      <trkpt lat="47.2125" lon="6.05542">
        <ele>498.8</ele>
        <time>2026-07-08T12:46:22Z</time>
      </trkpt>
      <trkpt lat="47.21248" lon="6.05539">
        <ele>499</ele>
        <time>2026-07-08T12:46:23Z</time>
      </trkpt>
      <trkpt lat="47.21245" lon="6.05536">
        <ele>499.4</ele>
        <time>2026-07-08T12:46:24Z</time>
      </trkpt>
      <trkpt lat="47.21243" lon="6.05531">
        <ele>499.6</ele>
        <time>2026-07-08T12:46:25Z</time>
      </trkpt>
      <trkpt lat="47.2124" lon="6.05527">
        <ele>500</ele>
        <time>2026-07-08T12:46:26Z</time>
      </trkpt>
      <trkpt lat="47.21238" lon="6.05524">
        <ele>500</ele>
        <time>2026-07-08T12:46:27Z</time>
      </trkpt>
      <trkpt lat="47.21235" lon="6.0552">
        <ele>500.4</ele>
        <time>2026-07-08T12:46:28Z</time>
      </trkpt>
      <trkpt lat="47.21233" lon="6.05516">
        <ele>500.4</ele>
        <time>2026-07-08T12:46:29Z</time>
      </trkpt>
      <trkpt lat="47.2123" lon="6.05512">
        <ele>500.6</ele>
        <time>2026-07-08T12:46:30Z</time>
      </trkpt>
      <trkpt lat="47.21228" lon="6.05509">
        <ele>500.8</ele>
        <time>2026-07-08T12:46:31Z</time>
      </trkpt>
      <trkpt lat="47.21225" lon="6.05506">
        <ele>500.8</ele>
        <time>2026-07-08T12:46:32Z</time>
      </trkpt>
      <trkpt lat="47.21222" lon="6.05503">
        <ele>500.8</ele>
        <time>2026-07-08T12:46:33Z</time>
      </trkpt>
      <trkpt lat="47.2122" lon="6.05499">
        <ele>501</ele>
        <time>2026-07-08T12:46:34Z</time>
      </trkpt>
      <trkpt lat="47.21217" lon="6.05495">
        <ele>501.2</ele>
        <time>2026-07-08T12:46:35Z</time>
      </trkpt>
      <trkpt lat="47.21214" lon="6.05492">
        <ele>501.2</ele>
        <time>2026-07-08T12:46:36Z</time>
      </trkpt>
      <trkpt lat="47.21211" lon="6.05487">
        <ele>501.4</ele>
        <time>2026-07-08T12:46:37Z</time>
      </trkpt>
      <trkpt lat="47.21208" lon="6.05484">
        <ele>501.6</ele>
        <time>2026-07-08T12:46:38Z</time>
      </trkpt>
      <trkpt lat="47.21206" lon="6.0548">
        <ele>501.6</ele>
        <time>2026-07-08T12:46:39Z</time>
      </trkpt>
      <trkpt lat="47.21203" lon="6.05477">
        <ele>501.6</ele>
        <time>2026-07-08T12:46:40Z</time>
      </trkpt>
      <trkpt lat="47.212" lon="6.05474">
        <ele>501.6</ele>
        <time>2026-07-08T12:46:41Z</time>
      </trkpt>
      <trkpt lat="47.21197" lon="6.05469">
        <ele>502</ele>
        <time>2026-07-08T12:46:42Z</time>
      </trkpt>
      <trkpt lat="47.21194" lon="6.05465">
        <ele>502.2</ele>
        <time>2026-07-08T12:46:43Z</time>
      </trkpt>
      <trkpt lat="47.21191" lon="6.05463">
        <ele>502.4</ele>
        <time>2026-07-08T12:46:44Z</time>
      </trkpt>
      <trkpt lat="47.21187" lon="6.05464">
        <ele>502.6</ele>
        <time>2026-07-08T12:46:45Z</time>
      </trkpt>
      <trkpt lat="47.21184" lon="6.05465">
        <ele>502.6</ele>
        <time>2026-07-08T12:46:46Z</time>
      </trkpt>
      <trkpt lat="47.21181" lon="6.05468">
        <ele>502.6</ele>
        <time>2026-07-08T12:46:47Z</time>
      </trkpt>
      <trkpt lat="47.21177" lon="6.05472">
        <ele>502.6</ele>
        <time>2026-07-08T12:46:48Z</time>
      </trkpt>
      <trkpt lat="47.21173" lon="6.05476">
        <ele>502.6</ele>
        <time>2026-07-08T12:46:49Z</time>
      </trkpt>
      <trkpt lat="47.21169" lon="6.05481">
        <ele>502.6</ele>
        <time>2026-07-08T12:46:50Z</time>
      </trkpt>
      <trkpt lat="47.21164" lon="6.05485">
        <ele>502.6</ele>
        <time>2026-07-08T12:46:51Z</time>
      </trkpt>
      <trkpt lat="47.21158" lon="6.05488">
        <ele>502.8</ele>
        <time>2026-07-08T12:46:52Z</time>
      </trkpt>
      <trkpt lat="47.21152" lon="6.0549">
        <ele>502.6</ele>
        <time>2026-07-08T12:46:53Z</time>
      </trkpt>
      <trkpt lat="47.21145" lon="6.0549">
        <ele>502.6</ele>
        <time>2026-07-08T12:46:54Z</time>
      </trkpt>
      <trkpt lat="47.21139" lon="6.05488">
        <ele>502.6</ele>
        <time>2026-07-08T12:46:55Z</time>
      </trkpt>
      <trkpt lat="47.21132" lon="6.05485">
        <ele>502.4</ele>
        <time>2026-07-08T12:46:56Z</time>
      </trkpt>
      <trkpt lat="47.21123" lon="6.05481">
        <ele>502.2</ele>
        <time>2026-07-08T12:46:57Z</time>
      </trkpt>
      <trkpt lat="47.21115" lon="6.05474">
        <ele>501.8</ele>
        <time>2026-07-08T12:46:58Z</time>
      </trkpt>
      <trkpt lat="47.21107" lon="6.05467">
        <ele>501.6</ele>
        <time>2026-07-08T12:46:59Z</time>
      </trkpt>
      <trkpt lat="47.21099" lon="6.05459">
        <ele>501.2</ele>
        <time>2026-07-08T12:47:00Z</time>
      </trkpt>
      <trkpt lat="47.21091" lon="6.0545">
        <ele>500.6</ele>
        <time>2026-07-08T12:47:01Z</time>
      </trkpt>
      <trkpt lat="47.21083" lon="6.0544">
        <ele>500.2</ele>
        <time>2026-07-08T12:47:02Z</time>
      </trkpt>
      <trkpt lat="47.21075" lon="6.05429">
        <ele>499.8</ele>
        <time>2026-07-08T12:47:03Z</time>
      </trkpt>
      <trkpt lat="47.21066" lon="6.05418">
        <ele>499.4</ele>
        <time>2026-07-08T12:47:04Z</time>
      </trkpt>
      <trkpt lat="47.21058" lon="6.05406">
        <ele>499</ele>
        <time>2026-07-08T12:47:05Z</time>
      </trkpt>
      <trkpt lat="47.2105" lon="6.05394">
        <ele>498.4</ele>
        <time>2026-07-08T12:47:06Z</time>
      </trkpt>
      <trkpt lat="47.21041" lon="6.05382">
        <ele>498</ele>
        <time>2026-07-08T12:47:07Z</time>
      </trkpt>
      <trkpt lat="47.21032" lon="6.0537">
        <ele>497.6</ele>
        <time>2026-07-08T12:47:08Z</time>
      </trkpt>
      <trkpt lat="47.21023" lon="6.05357">
        <ele>496.8</ele>
        <time>2026-07-08T12:47:09Z</time>
      </trkpt>
      <trkpt lat="47.21014" lon="6.05345">
        <ele>496.2</ele>
        <time>2026-07-08T12:47:10Z</time>
      </trkpt>
      <trkpt lat="47.21004" lon="6.05333">
        <ele>495.6</ele>
        <time>2026-07-08T12:47:11Z</time>
      </trkpt>
      <trkpt lat="47.20995" lon="6.05321">
        <ele>494.4</ele>
        <time>2026-07-08T12:47:12Z</time>
      </trkpt>
      <trkpt lat="47.20986" lon="6.05309">
        <ele>493.6</ele>
        <time>2026-07-08T12:47:13Z</time>
      </trkpt>
      <trkpt lat="47.20977" lon="6.05297">
        <ele>492.8</ele>
        <time>2026-07-08T12:47:14Z</time>
      </trkpt>
      <trkpt lat="47.20969" lon="6.05283">
        <ele>491.8</ele>
        <time>2026-07-08T12:47:15Z</time>
      </trkpt>
      <trkpt lat="47.20963" lon="6.0527">
        <ele>491</ele>
        <time>2026-07-08T12:47:16Z</time>
      </trkpt>
      <trkpt lat="47.20957" lon="6.05257">
        <ele>491</ele>
        <time>2026-07-08T12:47:17Z</time>
      </trkpt>
      <trkpt lat="47.20952" lon="6.05244">
        <ele>490</ele>
        <time>2026-07-08T12:47:18Z</time>
      </trkpt>
      <trkpt lat="47.20947" lon="6.05233">
        <ele>489.2</ele>
        <time>2026-07-08T12:47:19Z</time>
      </trkpt>
      <trkpt lat="47.20941" lon="6.05224">
        <ele>488.2</ele>
        <time>2026-07-08T12:47:20Z</time>
      </trkpt>
      <trkpt lat="47.20937" lon="6.05219">
        <ele>487.6</ele>
        <time>2026-07-08T12:47:21Z</time>
      </trkpt>
      <trkpt lat="47.2093" lon="6.05217">
        <ele>486.8</ele>
        <time>2026-07-08T12:47:22Z</time>
      </trkpt>
      <trkpt lat="47.20923" lon="6.0522">
        <ele>485.8</ele>
        <time>2026-07-08T12:47:23Z</time>
      </trkpt>
      <trkpt lat="47.20917" lon="6.05225">
        <ele>484.8</ele>
        <time>2026-07-08T12:47:24Z</time>
      </trkpt>
      <trkpt lat="47.20919" lon="6.05239">
        <ele>484</ele>
        <time>2026-07-08T12:47:25Z</time>
      </trkpt>
      <trkpt lat="47.20924" lon="6.0525">
        <ele>483.4</ele>
        <time>2026-07-08T12:47:26Z</time>
      </trkpt>
      <trkpt lat="47.2093" lon="6.0526">
        <ele>482.6</ele>
        <time>2026-07-08T12:47:27Z</time>
      </trkpt>
      <trkpt lat="47.20937" lon="6.05268">
        <ele>482.4</ele>
        <time>2026-07-08T12:47:28Z</time>
      </trkpt>
      <trkpt lat="47.20944" lon="6.05275">
        <ele>482</ele>
        <time>2026-07-08T12:47:29Z</time>
      </trkpt>
      <trkpt lat="47.20951" lon="6.05283">
        <ele>481.6</ele>
        <time>2026-07-08T12:47:30Z</time>
      </trkpt>
      <trkpt lat="47.20957" lon="6.05293">
        <ele>480.6</ele>
        <time>2026-07-08T12:47:31Z</time>
      </trkpt>
      <trkpt lat="47.20963" lon="6.05302">
        <ele>480</ele>
        <time>2026-07-08T12:47:32Z</time>
      </trkpt>
      <trkpt lat="47.20967" lon="6.05312">
        <ele>479.6</ele>
        <time>2026-07-08T12:47:33Z</time>
      </trkpt>
      <trkpt lat="47.20966" lon="6.05323">
        <ele>478.8</ele>
        <time>2026-07-08T12:47:34Z</time>
      </trkpt>
      <trkpt lat="47.20964" lon="6.05333">
        <ele>478.4</ele>
        <time>2026-07-08T12:47:35Z</time>
      </trkpt>
      <trkpt lat="47.20959" lon="6.05341">
        <ele>477.8</ele>
        <time>2026-07-08T12:47:36Z</time>
      </trkpt>
      <trkpt lat="47.20952" lon="6.05347">
        <ele>477.2</ele>
        <time>2026-07-08T12:47:37Z</time>
      </trkpt>
      <trkpt lat="47.20945" lon="6.05352">
        <ele>477</ele>
        <time>2026-07-08T12:47:38Z</time>
      </trkpt>
      <trkpt lat="47.20938" lon="6.05357">
        <ele>477</ele>
        <time>2026-07-08T12:47:39Z</time>
      </trkpt>
      <trkpt lat="47.20931" lon="6.05362">
        <ele>476.4</ele>
        <time>2026-07-08T12:47:40Z</time>
      </trkpt>
      <trkpt lat="47.20923" lon="6.05366">
        <ele>476</ele>
        <time>2026-07-08T12:47:41Z</time>
      </trkpt>
      <trkpt lat="47.20916" lon="6.05368">
        <ele>475.2</ele>
        <time>2026-07-08T12:47:42Z</time>
      </trkpt>
      <trkpt lat="47.20909" lon="6.05369">
        <ele>474.8</ele>
        <time>2026-07-08T12:47:43Z</time>
      </trkpt>
      <trkpt lat="47.20902" lon="6.05368">
        <ele>474.4</ele>
        <time>2026-07-08T12:47:44Z</time>
      </trkpt>
      <trkpt lat="47.20895" lon="6.05366">
        <ele>473.8</ele>
        <time>2026-07-08T12:47:45Z</time>
      </trkpt>
      <trkpt lat="47.20889" lon="6.05364">
        <ele>473.4</ele>
        <time>2026-07-08T12:47:46Z</time>
      </trkpt>
      <trkpt lat="47.20884" lon="6.05362">
        <ele>473</ele>
        <time>2026-07-08T12:47:47Z</time>
      </trkpt>
      <trkpt lat="47.2088" lon="6.05362">
        <ele>472.8</ele>
        <time>2026-07-08T12:47:48Z</time>
      </trkpt>
      <trkpt lat="47.20875" lon="6.05362">
        <ele>472.4</ele>
        <time>2026-07-08T12:47:49Z</time>
      </trkpt>
      <trkpt lat="47.20871" lon="6.05362">
        <ele>472.2</ele>
        <time>2026-07-08T12:47:50Z</time>
      </trkpt>
      <trkpt lat="47.20867" lon="6.05364">
        <ele>471.8</ele>
        <time>2026-07-08T12:47:51Z</time>
      </trkpt>
      <trkpt lat="47.20863" lon="6.05367">
        <ele>471.6</ele>
        <time>2026-07-08T12:47:52Z</time>
      </trkpt>
      <trkpt lat="47.20858" lon="6.0537">
        <ele>471.4</ele>
        <time>2026-07-08T12:47:53Z</time>
      </trkpt>
      <trkpt lat="47.20854" lon="6.05372">
        <ele>471.2</ele>
        <time>2026-07-08T12:47:54Z</time>
      </trkpt>
      <trkpt lat="47.20849" lon="6.05373">
        <ele>471.2</ele>
        <time>2026-07-08T12:47:55Z</time>
      </trkpt>
      <trkpt lat="47.20844" lon="6.05371">
        <ele>470.8</ele>
        <time>2026-07-08T12:47:56Z</time>
      </trkpt>
      <trkpt lat="47.20839" lon="6.05369">
        <ele>470.8</ele>
        <time>2026-07-08T12:47:57Z</time>
      </trkpt>
      <trkpt lat="47.20835" lon="6.05366">
        <ele>470.8</ele>
        <time>2026-07-08T12:47:58Z</time>
      </trkpt>
      <trkpt lat="47.20831" lon="6.05364">
        <ele>470.8</ele>
        <time>2026-07-08T12:47:59Z</time>
      </trkpt>
      <trkpt lat="47.20827" lon="6.05361">
        <ele>470.8</ele>
        <time>2026-07-08T12:48:00Z</time>
      </trkpt>
      <trkpt lat="47.20823" lon="6.05358">
        <ele>470.8</ele>
        <time>2026-07-08T12:48:01Z</time>
      </trkpt>
      <trkpt lat="47.20819" lon="6.05355">
        <ele>470.8</ele>
        <time>2026-07-08T12:48:02Z</time>
      </trkpt>
      <trkpt lat="47.20815" lon="6.05352">
        <ele>470.8</ele>
        <time>2026-07-08T12:48:03Z</time>
      </trkpt>
      <trkpt lat="47.20811" lon="6.05349">
        <ele>470.8</ele>
        <time>2026-07-08T12:48:04Z</time>
      </trkpt>
      <trkpt lat="47.20807" lon="6.05346">
        <ele>470.8</ele>
        <time>2026-07-08T12:48:05Z</time>
      </trkpt>
      <trkpt lat="47.20803" lon="6.05343">
        <ele>470.8</ele>
        <time>2026-07-08T12:48:06Z</time>
      </trkpt>
      <trkpt lat="47.20799" lon="6.0534">
        <ele>471</ele>
        <time>2026-07-08T12:48:07Z</time>
      </trkpt>
      <trkpt lat="47.20796" lon="6.05337">
        <ele>471</ele>
        <time>2026-07-08T12:48:08Z</time>
      </trkpt>
      <trkpt lat="47.20792" lon="6.05334">
        <ele>471.4</ele>
        <time>2026-07-08T12:48:09Z</time>
      </trkpt>
      <trkpt lat="47.20789" lon="6.05331">
        <ele>471.6</ele>
        <time>2026-07-08T12:48:10Z</time>
      </trkpt>
      <trkpt lat="47.20785" lon="6.05328">
        <ele>472</ele>
        <time>2026-07-08T12:48:11Z</time>
      </trkpt>
      <trkpt lat="47.20782" lon="6.05325">
        <ele>472.2</ele>
        <time>2026-07-08T12:48:12Z</time>
      </trkpt>
      <trkpt lat="47.20778" lon="6.05322">
        <ele>472.2</ele>
        <time>2026-07-08T12:48:13Z</time>
      </trkpt>
      <trkpt lat="47.20775" lon="6.05319">
        <ele>472.6</ele>
        <time>2026-07-08T12:48:14Z</time>
      </trkpt>
      <trkpt lat="47.20771" lon="6.05316">
        <ele>473</ele>
        <time>2026-07-08T12:48:15Z</time>
      </trkpt>
      <trkpt lat="47.20768" lon="6.05313">
        <ele>473.2</ele>
        <time>2026-07-08T12:48:16Z</time>
      </trkpt>
      <trkpt lat="47.20764" lon="6.0531">
        <ele>473.4</ele>
        <time>2026-07-08T12:48:17Z</time>
      </trkpt>
      <trkpt lat="47.2076" lon="6.05308">
        <ele>473.6</ele>
        <time>2026-07-08T12:48:18Z</time>
      </trkpt>
      <trkpt lat="47.20756" lon="6.05305">
        <ele>473.8</ele>
        <time>2026-07-08T12:48:19Z</time>
      </trkpt>
      <trkpt lat="47.20753" lon="6.05301">
        <ele>474</ele>
        <time>2026-07-08T12:48:20Z</time>
      </trkpt>
      <trkpt lat="47.20749" lon="6.05298">
        <ele>474.4</ele>
        <time>2026-07-08T12:48:21Z</time>
      </trkpt>
      <trkpt lat="47.20745" lon="6.05294">
        <ele>474.8</ele>
        <time>2026-07-08T12:48:22Z</time>
      </trkpt>
      <trkpt lat="47.20741" lon="6.0529">
        <ele>475</ele>
        <time>2026-07-08T12:48:23Z</time>
      </trkpt>
      <trkpt lat="47.20737" lon="6.05286">
        <ele>475</ele>
        <time>2026-07-08T12:48:24Z</time>
      </trkpt>
      <trkpt lat="47.20732" lon="6.05282">
        <ele>474.8</ele>
        <time>2026-07-08T12:48:25Z</time>
      </trkpt>
      <trkpt lat="47.20728" lon="6.05278">
        <ele>474.8</ele>
        <time>2026-07-08T12:48:26Z</time>
      </trkpt>
      <trkpt lat="47.20723" lon="6.05274">
        <ele>474.8</ele>
        <time>2026-07-08T12:48:27Z</time>
      </trkpt>
      <trkpt lat="47.20719" lon="6.0527">
        <ele>475</ele>
        <time>2026-07-08T12:48:28Z</time>
      </trkpt>
      <trkpt lat="47.20714" lon="6.05265">
        <ele>475.2</ele>
        <time>2026-07-08T12:48:29Z</time>
      </trkpt>
      <trkpt lat="47.20709" lon="6.05261">
        <ele>475</ele>
        <time>2026-07-08T12:48:30Z</time>
      </trkpt>
      <trkpt lat="47.20704" lon="6.05257">
        <ele>475</ele>
        <time>2026-07-08T12:48:31Z</time>
      </trkpt>
      <trkpt lat="47.20699" lon="6.05254">
        <ele>474.8</ele>
        <time>2026-07-08T12:48:32Z</time>
      </trkpt>
      <trkpt lat="47.20693" lon="6.05251">
        <ele>475</ele>
        <time>2026-07-08T12:48:33Z</time>
      </trkpt>
      <trkpt lat="47.20688" lon="6.05248">
        <ele>474.8</ele>
        <time>2026-07-08T12:48:34Z</time>
      </trkpt>
      <trkpt lat="47.20682" lon="6.05246">
        <ele>475</ele>
        <time>2026-07-08T12:48:35Z</time>
      </trkpt>
      <trkpt lat="47.20676" lon="6.05244">
        <ele>474.8</ele>
        <time>2026-07-08T12:48:36Z</time>
      </trkpt>
      <trkpt lat="47.20669" lon="6.05243">
        <ele>474.6</ele>
        <time>2026-07-08T12:48:37Z</time>
      </trkpt>
      <trkpt lat="47.20662" lon="6.05243">
        <ele>474.4</ele>
        <time>2026-07-08T12:48:38Z</time>
      </trkpt>
      <trkpt lat="47.20655" lon="6.05243">
        <ele>474.4</ele>
        <time>2026-07-08T12:48:39Z</time>
      </trkpt>
      <trkpt lat="47.20649" lon="6.05245">
        <ele>474.4</ele>
        <time>2026-07-08T12:48:40Z</time>
      </trkpt>
      <trkpt lat="47.20643" lon="6.05249">
        <ele>474.4</ele>
        <time>2026-07-08T12:48:41Z</time>
      </trkpt>
      <trkpt lat="47.20638" lon="6.05255">
        <ele>474</ele>
        <time>2026-07-08T12:48:42Z</time>
      </trkpt>
      <trkpt lat="47.20633" lon="6.05262">
        <ele>473.8</ele>
        <time>2026-07-08T12:48:43Z</time>
      </trkpt>
      <trkpt lat="47.20629" lon="6.0527">
        <ele>473.6</ele>
        <time>2026-07-08T12:48:44Z</time>
      </trkpt>
      <trkpt lat="47.20625" lon="6.05278">
        <ele>473.6</ele>
        <time>2026-07-08T12:48:45Z</time>
      </trkpt>
      <trkpt lat="47.20621" lon="6.05287">
        <ele>473.6</ele>
        <time>2026-07-08T12:48:46Z</time>
      </trkpt>
      <trkpt lat="47.20618" lon="6.05297">
        <ele>473.4</ele>
        <time>2026-07-08T12:48:47Z</time>
      </trkpt>
      <trkpt lat="47.20615" lon="6.05307">
        <ele>473.4</ele>
        <time>2026-07-08T12:48:48Z</time>
      </trkpt>
      <trkpt lat="47.20613" lon="6.05317">
        <ele>473.2</ele>
        <time>2026-07-08T12:48:49Z</time>
      </trkpt>
      <trkpt lat="47.20611" lon="6.05326">
        <ele>473</ele>
        <time>2026-07-08T12:48:50Z</time>
      </trkpt>
      <trkpt lat="47.2061" lon="6.05335">
        <ele>472.8</ele>
        <time>2026-07-08T12:48:51Z</time>
      </trkpt>
      <trkpt lat="47.20609" lon="6.05344">
        <ele>472.4</ele>
        <time>2026-07-08T12:48:52Z</time>
      </trkpt>
      <trkpt lat="47.20608" lon="6.05353">
        <ele>472</ele>
        <time>2026-07-08T12:48:53Z</time>
      </trkpt>
      <trkpt lat="47.20607" lon="6.05362">
        <ele>471.6</ele>
        <time>2026-07-08T12:48:54Z</time>
      </trkpt>
      <trkpt lat="47.20606" lon="6.05372">
        <ele>471.4</ele>
        <time>2026-07-08T12:48:55Z</time>
      </trkpt>
      <trkpt lat="47.20606" lon="6.05382">
        <ele>471.2</ele>
        <time>2026-07-08T12:48:56Z</time>
      </trkpt>
      <trkpt lat="47.20605" lon="6.05392">
        <ele>471</ele>
        <time>2026-07-08T12:48:57Z</time>
      </trkpt>
      <trkpt lat="47.20605" lon="6.05403">
        <ele>471</ele>
        <time>2026-07-08T12:48:58Z</time>
      </trkpt>
      <trkpt lat="47.20605" lon="6.05414">
        <ele>471</ele>
        <time>2026-07-08T12:48:59Z</time>
      </trkpt>
      <trkpt lat="47.20605" lon="6.05425">
        <ele>471</ele>
        <time>2026-07-08T12:49:00Z</time>
      </trkpt>
      <trkpt lat="47.20605" lon="6.05435">
        <ele>470.8</ele>
        <time>2026-07-08T12:49:01Z</time>
      </trkpt>
      <trkpt lat="47.20606" lon="6.05445">
        <ele>470.8</ele>
        <time>2026-07-08T12:49:02Z</time>
      </trkpt>
      <trkpt lat="47.20605" lon="6.05456">
        <ele>470.6</ele>
        <time>2026-07-08T12:49:03Z</time>
      </trkpt>
      <trkpt lat="47.20604" lon="6.05467">
        <ele>470.6</ele>
        <time>2026-07-08T12:49:04Z</time>
      </trkpt>
      <trkpt lat="47.20602" lon="6.0548">
        <ele>470.4</ele>
        <time>2026-07-08T12:49:05Z</time>
      </trkpt>
      <trkpt lat="47.20598" lon="6.05491">
        <ele>470.4</ele>
        <time>2026-07-08T12:49:06Z</time>
      </trkpt>
      <trkpt lat="47.20593" lon="6.05502">
        <ele>470.2</ele>
        <time>2026-07-08T12:49:07Z</time>
      </trkpt>
      <trkpt lat="47.20586" lon="6.0551">
        <ele>470.2</ele>
        <time>2026-07-08T12:49:08Z</time>
      </trkpt>
      <trkpt lat="47.20578" lon="6.05516">
        <ele>470</ele>
        <time>2026-07-08T12:49:09Z</time>
      </trkpt>
      <trkpt lat="47.20569" lon="6.0552">
        <ele>469.8</ele>
        <time>2026-07-08T12:49:10Z</time>
      </trkpt>
      <trkpt lat="47.20561" lon="6.05522">
        <ele>469.6</ele>
        <time>2026-07-08T12:49:11Z</time>
      </trkpt>
      <trkpt lat="47.20552" lon="6.05521">
        <ele>469.2</ele>
        <time>2026-07-08T12:49:12Z</time>
      </trkpt>
      <trkpt lat="47.20544" lon="6.05518">
        <ele>468.6</ele>
        <time>2026-07-08T12:49:13Z</time>
      </trkpt>
      <trkpt lat="47.20535" lon="6.05513">
        <ele>468.4</ele>
        <time>2026-07-08T12:49:14Z</time>
      </trkpt>
      <trkpt lat="47.20527" lon="6.05506">
        <ele>467.8</ele>
        <time>2026-07-08T12:49:15Z</time>
      </trkpt>
      <trkpt lat="47.2052" lon="6.05498">
        <ele>467.4</ele>
        <time>2026-07-08T12:49:16Z</time>
      </trkpt>
      <trkpt lat="47.20512" lon="6.05491">
        <ele>466.8</ele>
        <time>2026-07-08T12:49:17Z</time>
      </trkpt>
      <trkpt lat="47.20504" lon="6.05484">
        <ele>466.4</ele>
        <time>2026-07-08T12:49:18Z</time>
      </trkpt>
      <trkpt lat="47.20495" lon="6.05478">
        <ele>466.2</ele>
        <time>2026-07-08T12:49:19Z</time>
      </trkpt>
      <trkpt lat="47.20486" lon="6.05473">
        <ele>466</ele>
        <time>2026-07-08T12:49:20Z</time>
      </trkpt>
      <trkpt lat="47.20477" lon="6.05468">
        <ele>465.6</ele>
        <time>2026-07-08T12:49:21Z</time>
      </trkpt>
      <trkpt lat="47.20467" lon="6.05464">
        <ele>465.2</ele>
        <time>2026-07-08T12:49:22Z</time>
      </trkpt>
      <trkpt lat="47.20457" lon="6.05461">
        <ele>464.8</ele>
        <time>2026-07-08T12:49:23Z</time>
      </trkpt>
      <trkpt lat="47.20447" lon="6.05459">
        <ele>464.4</ele>
        <time>2026-07-08T12:49:24Z</time>
      </trkpt>
      <trkpt lat="47.20437" lon="6.05457">
        <ele>464</ele>
        <time>2026-07-08T12:49:25Z</time>
      </trkpt>
      <trkpt lat="47.20427" lon="6.05456">
        <ele>463.6</ele>
        <time>2026-07-08T12:49:26Z</time>
      </trkpt>
      <trkpt lat="47.20417" lon="6.05455">
        <ele>463.2</ele>
        <time>2026-07-08T12:49:27Z</time>
      </trkpt>
      <trkpt lat="47.20407" lon="6.05453">
        <ele>462.8</ele>
        <time>2026-07-08T12:49:28Z</time>
      </trkpt>
      <trkpt lat="47.20397" lon="6.05451">
        <ele>462.2</ele>
        <time>2026-07-08T12:49:29Z</time>
      </trkpt>
      <trkpt lat="47.20387" lon="6.05448">
        <ele>461.8</ele>
        <time>2026-07-08T12:49:30Z</time>
      </trkpt>
      <trkpt lat="47.20377" lon="6.05444">
        <ele>461.8</ele>
        <time>2026-07-08T12:49:31Z</time>
      </trkpt>
      <trkpt lat="47.20367" lon="6.05438">
        <ele>461</ele>
        <time>2026-07-08T12:49:32Z</time>
      </trkpt>
      <trkpt lat="47.20357" lon="6.05431">
        <ele>460.4</ele>
        <time>2026-07-08T12:49:33Z</time>
      </trkpt>
      <trkpt lat="47.20348" lon="6.05424">
        <ele>459.8</ele>
        <time>2026-07-08T12:49:34Z</time>
      </trkpt>
      <trkpt lat="47.20339" lon="6.05417">
        <ele>459.4</ele>
        <time>2026-07-08T12:49:35Z</time>
      </trkpt>
      <trkpt lat="47.2033" lon="6.0541">
        <ele>458.8</ele>
        <time>2026-07-08T12:49:36Z</time>
      </trkpt>
      <trkpt lat="47.2032" lon="6.05403">
        <ele>458</ele>
        <time>2026-07-08T12:49:37Z</time>
      </trkpt>
      <trkpt lat="47.20311" lon="6.05396">
        <ele>457.4</ele>
        <time>2026-07-08T12:49:38Z</time>
      </trkpt>
      <trkpt lat="47.20301" lon="6.0539">
        <ele>456.6</ele>
        <time>2026-07-08T12:49:39Z</time>
      </trkpt>
      <trkpt lat="47.20292" lon="6.05384">
        <ele>456</ele>
        <time>2026-07-08T12:49:40Z</time>
      </trkpt>
      <trkpt lat="47.20282" lon="6.05378">
        <ele>455.6</ele>
        <time>2026-07-08T12:49:41Z</time>
      </trkpt>
      <trkpt lat="47.20274" lon="6.0537">
        <ele>455</ele>
        <time>2026-07-08T12:49:42Z</time>
      </trkpt>
      <trkpt lat="47.20265" lon="6.05362">
        <ele>454.4</ele>
        <time>2026-07-08T12:49:43Z</time>
      </trkpt>
      <trkpt lat="47.20256" lon="6.05353">
        <ele>453.8</ele>
        <time>2026-07-08T12:49:44Z</time>
      </trkpt>
      <trkpt lat="47.20247" lon="6.05344">
        <ele>453.2</ele>
        <time>2026-07-08T12:49:45Z</time>
      </trkpt>
      <trkpt lat="47.20239" lon="6.05334">
        <ele>452.4</ele>
        <time>2026-07-08T12:49:46Z</time>
      </trkpt>
      <trkpt lat="47.2023" lon="6.05325">
        <ele>451.8</ele>
        <time>2026-07-08T12:49:47Z</time>
      </trkpt>
      <trkpt lat="47.20221" lon="6.05317">
        <ele>451.2</ele>
        <time>2026-07-08T12:49:48Z</time>
      </trkpt>
      <trkpt lat="47.20212" lon="6.0531">
        <ele>450.8</ele>
        <time>2026-07-08T12:49:49Z</time>
      </trkpt>
      <trkpt lat="47.20202" lon="6.05304">
        <ele>450</ele>
        <time>2026-07-08T12:49:50Z</time>
      </trkpt>
      <trkpt lat="47.20193" lon="6.05297">
        <ele>449.4</ele>
        <time>2026-07-08T12:49:51Z</time>
      </trkpt>
      <trkpt lat="47.20183" lon="6.0529">
        <ele>449</ele>
        <time>2026-07-08T12:49:52Z</time>
      </trkpt>
      <trkpt lat="47.20174" lon="6.05283">
        <ele>449</ele>
        <time>2026-07-08T12:49:53Z</time>
      </trkpt>
      <trkpt lat="47.20166" lon="6.05274">
        <ele>448.6</ele>
        <time>2026-07-08T12:49:54Z</time>
      </trkpt>
      <trkpt lat="47.20158" lon="6.05264">
        <ele>448.2</ele>
        <time>2026-07-08T12:49:55Z</time>
      </trkpt>
      <trkpt lat="47.20152" lon="6.05253">
        <ele>447.6</ele>
        <time>2026-07-08T12:49:56Z</time>
      </trkpt>
      <trkpt lat="47.20147" lon="6.05241">
        <ele>446.8</ele>
        <time>2026-07-08T12:49:57Z</time>
      </trkpt>
      <trkpt lat="47.20142" lon="6.05228">
        <ele>446.2</ele>
        <time>2026-07-08T12:49:58Z</time>
      </trkpt>
      <trkpt lat="47.20138" lon="6.05216">
        <ele>445.8</ele>
        <time>2026-07-08T12:49:59Z</time>
      </trkpt>
      <trkpt lat="47.20133" lon="6.05204">
        <ele>445.4</ele>
        <time>2026-07-08T12:50:00Z</time>
      </trkpt>
      <trkpt lat="47.20129" lon="6.05192">
        <ele>444.8</ele>
        <time>2026-07-08T12:50:01Z</time>
      </trkpt>
      <trkpt lat="47.20125" lon="6.0518">
        <ele>444.2</ele>
        <time>2026-07-08T12:50:02Z</time>
      </trkpt>
      <trkpt lat="47.20121" lon="6.05169">
        <ele>443.8</ele>
        <time>2026-07-08T12:50:03Z</time>
      </trkpt>
      <trkpt lat="47.20117" lon="6.05158">
        <ele>443.6</ele>
        <time>2026-07-08T12:50:04Z</time>
      </trkpt>
      <trkpt lat="47.20112" lon="6.05148">
        <ele>443.2</ele>
        <time>2026-07-08T12:50:05Z</time>
      </trkpt>
      <trkpt lat="47.20107" lon="6.05138">
        <ele>443</ele>
        <time>2026-07-08T12:50:06Z</time>
      </trkpt>
      <trkpt lat="47.20102" lon="6.05127">
        <ele>442.8</ele>
        <time>2026-07-08T12:50:07Z</time>
      </trkpt>
      <trkpt lat="47.20097" lon="6.05118">
        <ele>442.6</ele>
        <time>2026-07-08T12:50:08Z</time>
      </trkpt>
      <trkpt lat="47.2009" lon="6.05108">
        <ele>442</ele>
        <time>2026-07-08T12:50:09Z</time>
      </trkpt>
      <trkpt lat="47.20083" lon="6.051">
        <ele>441.8</ele>
        <time>2026-07-08T12:50:10Z</time>
      </trkpt>
      <trkpt lat="47.20075" lon="6.05092">
        <ele>441.6</ele>
        <time>2026-07-08T12:50:11Z</time>
      </trkpt>
      <trkpt lat="47.20067" lon="6.05084">
        <ele>441.2</ele>
        <time>2026-07-08T12:50:12Z</time>
      </trkpt>
      <trkpt lat="47.20059" lon="6.05076">
        <ele>441.2</ele>
        <time>2026-07-08T12:50:13Z</time>
      </trkpt>
      <trkpt lat="47.20051" lon="6.05067">
        <ele>440.8</ele>
        <time>2026-07-08T12:50:14Z</time>
      </trkpt>
      <trkpt lat="47.20042" lon="6.05059">
        <ele>440.8</ele>
        <time>2026-07-08T12:50:15Z</time>
      </trkpt>
      <trkpt lat="47.20033" lon="6.05054">
        <ele>440.2</ele>
        <time>2026-07-08T12:50:16Z</time>
      </trkpt>
      <trkpt lat="47.20024" lon="6.05053">
        <ele>439.6</ele>
        <time>2026-07-08T12:50:17Z</time>
      </trkpt>
      <trkpt lat="47.20015" lon="6.05057">
        <ele>439.2</ele>
        <time>2026-07-08T12:50:18Z</time>
      </trkpt>
      <trkpt lat="47.20007" lon="6.05064">
        <ele>438.6</ele>
        <time>2026-07-08T12:50:19Z</time>
      </trkpt>
      <trkpt lat="47.20001" lon="6.05076">
        <ele>438</ele>
        <time>2026-07-08T12:50:20Z</time>
      </trkpt>
      <trkpt lat="47.19995" lon="6.05088">
        <ele>437</ele>
        <time>2026-07-08T12:50:21Z</time>
      </trkpt>
      <trkpt lat="47.1999" lon="6.051">
        <ele>436.4</ele>
        <time>2026-07-08T12:50:22Z</time>
      </trkpt>
      <trkpt lat="47.19984" lon="6.05111">
        <ele>435.6</ele>
        <time>2026-07-08T12:50:23Z</time>
      </trkpt>
      <trkpt lat="47.19977" lon="6.0512">
        <ele>435</ele>
        <time>2026-07-08T12:50:24Z</time>
      </trkpt>
      <trkpt lat="47.19969" lon="6.05127">
        <ele>434</ele>
        <time>2026-07-08T12:50:25Z</time>
      </trkpt>
      <trkpt lat="47.19961" lon="6.05131">
        <ele>433.6</ele>
        <time>2026-07-08T12:50:26Z</time>
      </trkpt>
      <trkpt lat="47.19953" lon="6.0513">
        <ele>433.2</ele>
        <time>2026-07-08T12:50:27Z</time>
      </trkpt>
      <trkpt lat="47.19945" lon="6.05129">
        <ele>433.2</ele>
        <time>2026-07-08T12:50:28Z</time>
      </trkpt>
      <trkpt lat="47.19937" lon="6.05126">
        <ele>433</ele>
        <time>2026-07-08T12:50:29Z</time>
      </trkpt>
      <trkpt lat="47.1993" lon="6.05124">
        <ele>432.8</ele>
        <time>2026-07-08T12:50:30Z</time>
      </trkpt>
      <trkpt lat="47.19923" lon="6.05122">
        <ele>432.6</ele>
        <time>2026-07-08T12:50:31Z</time>
      </trkpt>
      <trkpt lat="47.19915" lon="6.05119">
        <ele>432.6</ele>
        <time>2026-07-08T12:50:32Z</time>
      </trkpt>
      <trkpt lat="47.19908" lon="6.05116">
        <ele>432.6</ele>
        <time>2026-07-08T12:50:33Z</time>
      </trkpt>
      <trkpt lat="47.19901" lon="6.05111">
        <ele>432.4</ele>
        <time>2026-07-08T12:50:34Z</time>
      </trkpt>
      <trkpt lat="47.19895" lon="6.05106">
        <ele>432.4</ele>
        <time>2026-07-08T12:50:35Z</time>
      </trkpt>
      <trkpt lat="47.19889" lon="6.05099">
        <ele>432.6</ele>
        <time>2026-07-08T12:50:36Z</time>
      </trkpt>
      <trkpt lat="47.19884" lon="6.05093">
        <ele>432.4</ele>
        <time>2026-07-08T12:50:37Z</time>
      </trkpt>
      <trkpt lat="47.19878" lon="6.05087">
        <ele>432.4</ele>
        <time>2026-07-08T12:50:38Z</time>
      </trkpt>
      <trkpt lat="47.19873" lon="6.05082">
        <ele>432.4</ele>
        <time>2026-07-08T12:50:39Z</time>
      </trkpt>
      <trkpt lat="47.19867" lon="6.05078">
        <ele>432.6</ele>
        <time>2026-07-08T12:50:40Z</time>
      </trkpt>
      <trkpt lat="47.19861" lon="6.05074">
        <ele>432.6</ele>
        <time>2026-07-08T12:50:41Z</time>
      </trkpt>
      <trkpt lat="47.19856" lon="6.05071">
        <ele>432.8</ele>
        <time>2026-07-08T12:50:42Z</time>
      </trkpt>
      <trkpt lat="47.19851" lon="6.05067">
        <ele>433</ele>
        <time>2026-07-08T12:50:43Z</time>
      </trkpt>
      <trkpt lat="47.19845" lon="6.05064">
        <ele>433.2</ele>
        <time>2026-07-08T12:50:44Z</time>
      </trkpt>
      <trkpt lat="47.1984" lon="6.0506">
        <ele>433.4</ele>
        <time>2026-07-08T12:50:45Z</time>
      </trkpt>
      <trkpt lat="47.19835" lon="6.05057">
        <ele>433.6</ele>
        <time>2026-07-08T12:50:46Z</time>
      </trkpt>
      <trkpt lat="47.1983" lon="6.05054">
        <ele>434</ele>
        <time>2026-07-08T12:50:47Z</time>
      </trkpt>
      <trkpt lat="47.19824" lon="6.05051">
        <ele>434.4</ele>
        <time>2026-07-08T12:50:48Z</time>
      </trkpt>
      <trkpt lat="47.19819" lon="6.05048">
        <ele>434.6</ele>
        <time>2026-07-08T12:50:49Z</time>
      </trkpt>
      <trkpt lat="47.19813" lon="6.05046">
        <ele>435</ele>
        <time>2026-07-08T12:50:50Z</time>
      </trkpt>
      <trkpt lat="47.19808" lon="6.05044">
        <ele>435.2</ele>
        <time>2026-07-08T12:50:51Z</time>
      </trkpt>
      <trkpt lat="47.19802" lon="6.05042">
        <ele>435.4</ele>
        <time>2026-07-08T12:50:52Z</time>
      </trkpt>
      <trkpt lat="47.19796" lon="6.05041">
        <ele>435.6</ele>
        <time>2026-07-08T12:50:53Z</time>
      </trkpt>
      <trkpt lat="47.1979" lon="6.0504">
        <ele>435.8</ele>
        <time>2026-07-08T12:50:54Z</time>
      </trkpt>
      <trkpt lat="47.19784" lon="6.0504">
        <ele>436</ele>
        <time>2026-07-08T12:50:55Z</time>
      </trkpt>
      <trkpt lat="47.19778" lon="6.05041">
        <ele>436</ele>
        <time>2026-07-08T12:50:56Z</time>
      </trkpt>
      <trkpt lat="47.19772" lon="6.05042">
        <ele>436</ele>
        <time>2026-07-08T12:50:57Z</time>
      </trkpt>
      <trkpt lat="47.19766" lon="6.05043">
        <ele>436.4</ele>
        <time>2026-07-08T12:50:58Z</time>
      </trkpt>
      <trkpt lat="47.1976" lon="6.05045">
        <ele>436.6</ele>
        <time>2026-07-08T12:50:59Z</time>
      </trkpt>
      <trkpt lat="47.19753" lon="6.05046">
        <ele>436.6</ele>
        <time>2026-07-08T12:51:00Z</time>
      </trkpt>
      <trkpt lat="47.19746" lon="6.05048">
        <ele>436.6</ele>
        <time>2026-07-08T12:51:01Z</time>
      </trkpt>
      <trkpt lat="47.1974" lon="6.0505">
        <ele>436.6</ele>
        <time>2026-07-08T12:51:02Z</time>
      </trkpt>
      <trkpt lat="47.19733" lon="6.05052">
        <ele>436.8</ele>
        <time>2026-07-08T12:51:03Z</time>
      </trkpt>
      <trkpt lat="47.19726" lon="6.05053">
        <ele>436.8</ele>
        <time>2026-07-08T12:51:04Z</time>
      </trkpt>
      <trkpt lat="47.19719" lon="6.05053">
        <ele>436.6</ele>
        <time>2026-07-08T12:51:05Z</time>
      </trkpt>
      <trkpt lat="47.19712" lon="6.05052">
        <ele>436.6</ele>
        <time>2026-07-08T12:51:06Z</time>
      </trkpt>
      <trkpt lat="47.19706" lon="6.05051">
        <ele>436.8</ele>
        <time>2026-07-08T12:51:07Z</time>
      </trkpt>
      <trkpt lat="47.19699" lon="6.05049">
        <ele>436.6</ele>
        <time>2026-07-08T12:51:08Z</time>
      </trkpt>
      <trkpt lat="47.19693" lon="6.05048">
        <ele>436.8</ele>
        <time>2026-07-08T12:51:09Z</time>
      </trkpt>
      <trkpt lat="47.19687" lon="6.05047">
        <ele>436.6</ele>
        <time>2026-07-08T12:51:10Z</time>
      </trkpt>
      <trkpt lat="47.19681" lon="6.05046">
        <ele>436.6</ele>
        <time>2026-07-08T12:51:11Z</time>
      </trkpt>
      <trkpt lat="47.19674" lon="6.05045">
        <ele>436.4</ele>
        <time>2026-07-08T12:51:12Z</time>
      </trkpt>
      <trkpt lat="47.19668" lon="6.05045">
        <ele>436.4</ele>
        <time>2026-07-08T12:51:13Z</time>
      </trkpt>
      <trkpt lat="47.19662" lon="6.05046">
        <ele>436.6</ele>
        <time>2026-07-08T12:51:14Z</time>
      </trkpt>
      <trkpt lat="47.19657" lon="6.05046">
        <ele>436.4</ele>
        <time>2026-07-08T12:51:15Z</time>
      </trkpt>
      <trkpt lat="47.19652" lon="6.05047">
        <ele>436.4</ele>
        <time>2026-07-08T12:51:16Z</time>
      </trkpt>
      <trkpt lat="47.19646" lon="6.05048">
        <ele>436.4</ele>
        <time>2026-07-08T12:51:17Z</time>
      </trkpt>
      <trkpt lat="47.19641" lon="6.05049">
        <ele>436.4</ele>
        <time>2026-07-08T12:51:18Z</time>
      </trkpt>
      <trkpt lat="47.19636" lon="6.0505">
        <ele>436.4</ele>
        <time>2026-07-08T12:51:19Z</time>
      </trkpt>
      <trkpt lat="47.1963" lon="6.05052">
        <ele>436.6</ele>
        <time>2026-07-08T12:51:20Z</time>
      </trkpt>
      <trkpt lat="47.19624" lon="6.05055">
        <ele>436.8</ele>
        <time>2026-07-08T12:51:21Z</time>
      </trkpt>
      <trkpt lat="47.19618" lon="6.05058">
        <ele>436.8</ele>
        <time>2026-07-08T12:51:22Z</time>
      </trkpt>
      <trkpt lat="47.19611" lon="6.05062">
        <ele>436.8</ele>
        <time>2026-07-08T12:51:23Z</time>
      </trkpt>
      <trkpt lat="47.19604" lon="6.05065">
        <ele>436.8</ele>
        <time>2026-07-08T12:51:24Z</time>
      </trkpt>
      <trkpt lat="47.19596" lon="6.0507">
        <ele>436.8</ele>
        <time>2026-07-08T12:51:25Z</time>
      </trkpt>
      <trkpt lat="47.19587" lon="6.05075">
        <ele>436.8</ele>
        <time>2026-07-08T12:51:26Z</time>
      </trkpt>
      <trkpt lat="47.19579" lon="6.05079">
        <ele>437</ele>
        <time>2026-07-08T12:51:27Z</time>
      </trkpt>
      <trkpt lat="47.1957" lon="6.05084">
        <ele>437</ele>
        <time>2026-07-08T12:51:28Z</time>
      </trkpt>
      <trkpt lat="47.19561" lon="6.05088">
        <ele>437</ele>
        <time>2026-07-08T12:51:29Z</time>
      </trkpt>
      <trkpt lat="47.19553" lon="6.05091">
        <ele>436.8</ele>
        <time>2026-07-08T12:51:30Z</time>
      </trkpt>
      <trkpt lat="47.19544" lon="6.05093">
        <ele>437</ele>
        <time>2026-07-08T12:51:31Z</time>
      </trkpt>
      <trkpt lat="47.19536" lon="6.05094">
        <ele>437</ele>
        <time>2026-07-08T12:51:32Z</time>
      </trkpt>
      <trkpt lat="47.19528" lon="6.05093">
        <ele>436.8</ele>
        <time>2026-07-08T12:51:33Z</time>
      </trkpt>
      <trkpt lat="47.19521" lon="6.05092">
        <ele>436.4</ele>
        <time>2026-07-08T12:51:34Z</time>
      </trkpt>
      <trkpt lat="47.19513" lon="6.05089">
        <ele>435.8</ele>
        <time>2026-07-08T12:51:35Z</time>
      </trkpt>
      <trkpt lat="47.19505" lon="6.05086">
        <ele>435.4</ele>
        <time>2026-07-08T12:51:36Z</time>
      </trkpt>
      <trkpt lat="47.19498" lon="6.05082">
        <ele>434.8</ele>
        <time>2026-07-08T12:51:37Z</time>
      </trkpt>
      <trkpt lat="47.19491" lon="6.05078">
        <ele>434.4</ele>
        <time>2026-07-08T12:51:38Z</time>
      </trkpt>
      <trkpt lat="47.19483" lon="6.05074">
        <ele>434</ele>
        <time>2026-07-08T12:51:39Z</time>
      </trkpt>
      <trkpt lat="47.19476" lon="6.05071">
        <ele>433.8</ele>
        <time>2026-07-08T12:51:40Z</time>
      </trkpt>
      <trkpt lat="47.19469" lon="6.05068">
        <ele>433.8</ele>
        <time>2026-07-08T12:51:41Z</time>
      </trkpt>
      <trkpt lat="47.19461" lon="6.05064">
        <ele>433.4</ele>
        <time>2026-07-08T12:51:42Z</time>
      </trkpt>
      <trkpt lat="47.19454" lon="6.05062">
        <ele>433.2</ele>
        <time>2026-07-08T12:51:43Z</time>
      </trkpt>
      <trkpt lat="47.19446" lon="6.05059">
        <ele>433.2</ele>
        <time>2026-07-08T12:51:44Z</time>
      </trkpt>
      <trkpt lat="47.19439" lon="6.05057">
        <ele>433.2</ele>
        <time>2026-07-08T12:51:45Z</time>
      </trkpt>
      <trkpt lat="47.19431" lon="6.05055">
        <ele>433.2</ele>
        <time>2026-07-08T12:51:46Z</time>
      </trkpt>
      <trkpt lat="47.19423" lon="6.05052">
        <ele>433</ele>
        <time>2026-07-08T12:51:47Z</time>
      </trkpt>
      <trkpt lat="47.19415" lon="6.05049">
        <ele>433</ele>
        <time>2026-07-08T12:51:48Z</time>
      </trkpt>
      <trkpt lat="47.19407" lon="6.05045">
        <ele>432.8</ele>
        <time>2026-07-08T12:51:49Z</time>
      </trkpt>
      <trkpt lat="47.194" lon="6.0504">
        <ele>432.8</ele>
        <time>2026-07-08T12:51:50Z</time>
      </trkpt>
      <trkpt lat="47.19393" lon="6.05035">
        <ele>432.8</ele>
        <time>2026-07-08T12:51:51Z</time>
      </trkpt>
      <trkpt lat="47.19385" lon="6.0503">
        <ele>432.8</ele>
        <time>2026-07-08T12:51:52Z</time>
      </trkpt>
      <trkpt lat="47.19378" lon="6.05024">
        <ele>432.6</ele>
        <time>2026-07-08T12:51:53Z</time>
      </trkpt>
      <trkpt lat="47.19371" lon="6.05019">
        <ele>432.2</ele>
        <time>2026-07-08T12:51:54Z</time>
      </trkpt>
      <trkpt lat="47.19364" lon="6.05014">
        <ele>432.2</ele>
        <time>2026-07-08T12:51:55Z</time>
      </trkpt>
      <trkpt lat="47.19357" lon="6.05009">
        <ele>432</ele>
        <time>2026-07-08T12:51:56Z</time>
      </trkpt>
      <trkpt lat="47.19349" lon="6.05004">
        <ele>431.8</ele>
        <time>2026-07-08T12:51:57Z</time>
      </trkpt>
      <trkpt lat="47.19342" lon="6.04999">
        <ele>431.6</ele>
        <time>2026-07-08T12:51:58Z</time>
      </trkpt>
      <trkpt lat="47.19335" lon="6.04994">
        <ele>431.4</ele>
        <time>2026-07-08T12:51:59Z</time>
      </trkpt>
      <trkpt lat="47.19327" lon="6.0499">
        <ele>431</ele>
        <time>2026-07-08T12:52:00Z</time>
      </trkpt>
      <trkpt lat="47.19319" lon="6.04987">
        <ele>431</ele>
        <time>2026-07-08T12:52:01Z</time>
      </trkpt>
      <trkpt lat="47.19311" lon="6.04984">
        <ele>430.8</ele>
        <time>2026-07-08T12:52:02Z</time>
      </trkpt>
      <trkpt lat="47.19303" lon="6.04982">
        <ele>430.4</ele>
        <time>2026-07-08T12:52:03Z</time>
      </trkpt>
      <trkpt lat="47.19295" lon="6.04982">
        <ele>430.2</ele>
        <time>2026-07-08T12:52:04Z</time>
      </trkpt>
      <trkpt lat="47.19286" lon="6.04983">
        <ele>430.2</ele>
        <time>2026-07-08T12:52:05Z</time>
      </trkpt>
      <trkpt lat="47.19278" lon="6.04986">
        <ele>429.8</ele>
        <time>2026-07-08T12:52:06Z</time>
      </trkpt>
      <trkpt lat="47.1927" lon="6.04991">
        <ele>429.8</ele>
        <time>2026-07-08T12:52:07Z</time>
      </trkpt>
      <trkpt lat="47.19262" lon="6.04997">
        <ele>429.4</ele>
        <time>2026-07-08T12:52:08Z</time>
      </trkpt>
      <trkpt lat="47.19255" lon="6.05003">
        <ele>429.2</ele>
        <time>2026-07-08T12:52:09Z</time>
      </trkpt>
      <trkpt lat="47.19247" lon="6.05009">
        <ele>429</ele>
        <time>2026-07-08T12:52:10Z</time>
      </trkpt>
      <trkpt lat="47.19239" lon="6.05014">
        <ele>428.8</ele>
        <time>2026-07-08T12:52:11Z</time>
      </trkpt>
      <trkpt lat="47.19231" lon="6.05017">
        <ele>428.6</ele>
        <time>2026-07-08T12:52:12Z</time>
      </trkpt>
      <trkpt lat="47.19223" lon="6.05019">
        <ele>428.6</ele>
        <time>2026-07-08T12:52:13Z</time>
      </trkpt>
      <trkpt lat="47.19216" lon="6.05019">
        <ele>428.4</ele>
        <time>2026-07-08T12:52:14Z</time>
      </trkpt>
      <trkpt lat="47.19208" lon="6.05018">
        <ele>428.2</ele>
        <time>2026-07-08T12:52:15Z</time>
      </trkpt>
      <trkpt lat="47.192" lon="6.05016">
        <ele>427.8</ele>
        <time>2026-07-08T12:52:16Z</time>
      </trkpt>
      <trkpt lat="47.19193" lon="6.05012">
        <ele>427.8</ele>
        <time>2026-07-08T12:52:17Z</time>
      </trkpt>
      <trkpt lat="47.19186" lon="6.05007">
        <ele>427.4</ele>
        <time>2026-07-08T12:52:18Z</time>
      </trkpt>
      <trkpt lat="47.19178" lon="6.05002">
        <ele>427.2</ele>
        <time>2026-07-08T12:52:19Z</time>
      </trkpt>
      <trkpt lat="47.19171" lon="6.04996">
        <ele>427.2</ele>
        <time>2026-07-08T12:52:20Z</time>
      </trkpt>
      <trkpt lat="47.19163" lon="6.04991">
        <ele>427</ele>
        <time>2026-07-08T12:52:21Z</time>
      </trkpt>
      <trkpt lat="47.19156" lon="6.04985">
        <ele>427</ele>
        <time>2026-07-08T12:52:22Z</time>
      </trkpt>
      <trkpt lat="47.19149" lon="6.04979">
        <ele>426.8</ele>
        <time>2026-07-08T12:52:23Z</time>
      </trkpt>
      <trkpt lat="47.19141" lon="6.04972">
        <ele>426.8</ele>
        <time>2026-07-08T12:52:24Z</time>
      </trkpt>
      <trkpt lat="47.19135" lon="6.04965">
        <ele>426.6</ele>
        <time>2026-07-08T12:52:25Z</time>
      </trkpt>
      <trkpt lat="47.19128" lon="6.04957">
        <ele>426.6</ele>
        <time>2026-07-08T12:52:26Z</time>
      </trkpt>
      <trkpt lat="47.19123" lon="6.0495">
        <ele>426.6</ele>
        <time>2026-07-08T12:52:27Z</time>
      </trkpt>
      <trkpt lat="47.19117" lon="6.04942">
        <ele>426.4</ele>
        <time>2026-07-08T12:52:28Z</time>
      </trkpt>
      <trkpt lat="47.19111" lon="6.04935">
        <ele>426.4</ele>
        <time>2026-07-08T12:52:29Z</time>
      </trkpt>
      <trkpt lat="47.19105" lon="6.04929">
        <ele>426</ele>
        <time>2026-07-08T12:52:30Z</time>
      </trkpt>
      <trkpt lat="47.19099" lon="6.04923">
        <ele>425.8</ele>
        <time>2026-07-08T12:52:31Z</time>
      </trkpt>
      <trkpt lat="47.19093" lon="6.04918">
        <ele>425.4</ele>
        <time>2026-07-08T12:52:32Z</time>
      </trkpt>
      <trkpt lat="47.19087" lon="6.04913">
        <ele>425.2</ele>
        <time>2026-07-08T12:52:33Z</time>
      </trkpt>
      <trkpt lat="47.1908" lon="6.04908">
        <ele>425</ele>
        <time>2026-07-08T12:52:34Z</time>
      </trkpt>
      <trkpt lat="47.19072" lon="6.04904">
        <ele>425</ele>
        <time>2026-07-08T12:52:35Z</time>
      </trkpt>
      <trkpt lat="47.19065" lon="6.04901">
        <ele>425</ele>
        <time>2026-07-08T12:52:36Z</time>
      </trkpt>
      <trkpt lat="47.19058" lon="6.04898">
        <ele>424.8</ele>
        <time>2026-07-08T12:52:37Z</time>
      </trkpt>
      <trkpt lat="47.1905" lon="6.04895">
        <ele>424.8</ele>
        <time>2026-07-08T12:52:38Z</time>
      </trkpt>
      <trkpt lat="47.19043" lon="6.04893">
        <ele>424.8</ele>
        <time>2026-07-08T12:52:39Z</time>
      </trkpt>
      <trkpt lat="47.19035" lon="6.0489">
        <ele>424.8</ele>
        <time>2026-07-08T12:52:40Z</time>
      </trkpt>
      <trkpt lat="47.19028" lon="6.04888">
        <ele>424.4</ele>
        <time>2026-07-08T12:52:41Z</time>
      </trkpt>
      <trkpt lat="47.1902" lon="6.04886">
        <ele>424.2</ele>
        <time>2026-07-08T12:52:42Z</time>
      </trkpt>
      <trkpt lat="47.19012" lon="6.04884">
        <ele>424.2</ele>
        <time>2026-07-08T12:52:43Z</time>
      </trkpt>
      <trkpt lat="47.19004" lon="6.04881">
        <ele>424</ele>
        <time>2026-07-08T12:52:44Z</time>
      </trkpt>
      <trkpt lat="47.18997" lon="6.04879">
        <ele>424</ele>
        <time>2026-07-08T12:52:45Z</time>
      </trkpt>
      <trkpt lat="47.18989" lon="6.04877">
        <ele>423.8</ele>
        <time>2026-07-08T12:52:46Z</time>
      </trkpt>
      <trkpt lat="47.18982" lon="6.04875">
        <ele>423.6</ele>
        <time>2026-07-08T12:52:47Z</time>
      </trkpt>
      <trkpt lat="47.18975" lon="6.04873">
        <ele>423.6</ele>
        <time>2026-07-08T12:52:48Z</time>
      </trkpt>
      <trkpt lat="47.18967" lon="6.04871">
        <ele>423.4</ele>
        <time>2026-07-08T12:52:49Z</time>
      </trkpt>
      <trkpt lat="47.1896" lon="6.0487">
        <ele>423</ele>
        <time>2026-07-08T12:52:50Z</time>
      </trkpt>
      <trkpt lat="47.18952" lon="6.0487">
        <ele>423</ele>
        <time>2026-07-08T12:52:51Z</time>
      </trkpt>
      <trkpt lat="47.18944" lon="6.0487">
        <ele>423</ele>
        <time>2026-07-08T12:52:52Z</time>
      </trkpt>
      <trkpt lat="47.18936" lon="6.0487">
        <ele>422.8</ele>
        <time>2026-07-08T12:52:53Z</time>
      </trkpt>
      <trkpt lat="47.18927" lon="6.04871">
        <ele>422.8</ele>
        <time>2026-07-08T12:52:54Z</time>
      </trkpt>
      <trkpt lat="47.18919" lon="6.04872">
        <ele>422.8</ele>
        <time>2026-07-08T12:52:55Z</time>
      </trkpt>
      <trkpt lat="47.18911" lon="6.04873">
        <ele>422.6</ele>
        <time>2026-07-08T12:52:56Z</time>
      </trkpt>
      <trkpt lat="47.18903" lon="6.04874">
        <ele>422.8</ele>
        <time>2026-07-08T12:52:57Z</time>
      </trkpt>
      <trkpt lat="47.18895" lon="6.04875">
        <ele>422.6</ele>
        <time>2026-07-08T12:52:58Z</time>
      </trkpt>
      <trkpt lat="47.18887" lon="6.04875">
        <ele>422.6</ele>
        <time>2026-07-08T12:52:59Z</time>
      </trkpt>
      <trkpt lat="47.18879" lon="6.04874">
        <ele>422.6</ele>
        <time>2026-07-08T12:53:00Z</time>
      </trkpt>
      <trkpt lat="47.18871" lon="6.04873">
        <ele>422.4</ele>
        <time>2026-07-08T12:53:01Z</time>
      </trkpt>
      <trkpt lat="47.18863" lon="6.0487">
        <ele>422.2</ele>
        <time>2026-07-08T12:53:02Z</time>
      </trkpt>
      <trkpt lat="47.18856" lon="6.04866">
        <ele>422</ele>
        <time>2026-07-08T12:53:03Z</time>
      </trkpt>
      <trkpt lat="47.18849" lon="6.04861">
        <ele>422</ele>
        <time>2026-07-08T12:53:04Z</time>
      </trkpt>
      <trkpt lat="47.18842" lon="6.04857">
        <ele>421.8</ele>
        <time>2026-07-08T12:53:05Z</time>
      </trkpt>
      <trkpt lat="47.18835" lon="6.04852">
        <ele>421.8</ele>
        <time>2026-07-08T12:53:06Z</time>
      </trkpt>
      <trkpt lat="47.18828" lon="6.04847">
        <ele>421.6</ele>
        <time>2026-07-08T12:53:07Z</time>
      </trkpt>
      <trkpt lat="47.18821" lon="6.04843">
        <ele>421.2</ele>
        <time>2026-07-08T12:53:08Z</time>
      </trkpt>
      <trkpt lat="47.18814" lon="6.04839">
        <ele>421.2</ele>
        <time>2026-07-08T12:53:09Z</time>
      </trkpt>
      <trkpt lat="47.18806" lon="6.04837">
        <ele>421.2</ele>
        <time>2026-07-08T12:53:10Z</time>
      </trkpt>
      <trkpt lat="47.18798" lon="6.04836">
        <ele>420.8</ele>
        <time>2026-07-08T12:53:11Z</time>
      </trkpt>
      <trkpt lat="47.1879" lon="6.04836">
        <ele>421</ele>
        <time>2026-07-08T12:53:12Z</time>
      </trkpt>
      <trkpt lat="47.18782" lon="6.04835">
        <ele>420.8</ele>
        <time>2026-07-08T12:53:13Z</time>
      </trkpt>
      <trkpt lat="47.18774" lon="6.04835">
        <ele>420.8</ele>
        <time>2026-07-08T12:53:14Z</time>
      </trkpt>
      <trkpt lat="47.18766" lon="6.04836">
        <ele>420.8</ele>
        <time>2026-07-08T12:53:15Z</time>
      </trkpt>
      <trkpt lat="47.18757" lon="6.04838">
        <ele>420.6</ele>
        <time>2026-07-08T12:53:16Z</time>
      </trkpt>
      <trkpt lat="47.18748" lon="6.0484">
        <ele>420.6</ele>
        <time>2026-07-08T12:53:17Z</time>
      </trkpt>
      <trkpt lat="47.1874" lon="6.04842">
        <ele>420.6</ele>
        <time>2026-07-08T12:53:18Z</time>
      </trkpt>
      <trkpt lat="47.18732" lon="6.04846">
        <ele>420.4</ele>
        <time>2026-07-08T12:53:19Z</time>
      </trkpt>
      <trkpt lat="47.18724" lon="6.0485">
        <ele>420</ele>
        <time>2026-07-08T12:53:20Z</time>
      </trkpt>
      <trkpt lat="47.18716" lon="6.04854">
        <ele>419.8</ele>
        <time>2026-07-08T12:53:21Z</time>
      </trkpt>
      <trkpt lat="47.18709" lon="6.04859">
        <ele>419.4</ele>
        <time>2026-07-08T12:53:22Z</time>
      </trkpt>
      <trkpt lat="47.18702" lon="6.04864">
        <ele>419.4</ele>
        <time>2026-07-08T12:53:23Z</time>
      </trkpt>
      <trkpt lat="47.18695" lon="6.04868">
        <ele>419</ele>
        <time>2026-07-08T12:53:24Z</time>
      </trkpt>
      <trkpt lat="47.18688" lon="6.04872">
        <ele>418.4</ele>
        <time>2026-07-08T12:53:25Z</time>
      </trkpt>
      <trkpt lat="47.18681" lon="6.04875">
        <ele>418.2</ele>
        <time>2026-07-08T12:53:26Z</time>
      </trkpt>
      <trkpt lat="47.18674" lon="6.04878">
        <ele>417.8</ele>
        <time>2026-07-08T12:53:27Z</time>
      </trkpt>
      <trkpt lat="47.18667" lon="6.04881">
        <ele>417.4</ele>
        <time>2026-07-08T12:53:28Z</time>
      </trkpt>
      <trkpt lat="47.18661" lon="6.04884">
        <ele>417.2</ele>
        <time>2026-07-08T12:53:29Z</time>
      </trkpt>
      <trkpt lat="47.18654" lon="6.04887">
        <ele>417.2</ele>
        <time>2026-07-08T12:53:30Z</time>
      </trkpt>
      <trkpt lat="47.18648" lon="6.0489">
        <ele>417</ele>
        <time>2026-07-08T12:53:31Z</time>
      </trkpt>
      <trkpt lat="47.18641" lon="6.04893">
        <ele>417</ele>
        <time>2026-07-08T12:53:32Z</time>
      </trkpt>
      <trkpt lat="47.18635" lon="6.04896">
        <ele>417</ele>
        <time>2026-07-08T12:53:33Z</time>
      </trkpt>
      <trkpt lat="47.18629" lon="6.04899">
        <ele>417</ele>
        <time>2026-07-08T12:53:34Z</time>
      </trkpt>
      <trkpt lat="47.18624" lon="6.04902">
        <ele>417</ele>
        <time>2026-07-08T12:53:35Z</time>
      </trkpt>
      <trkpt lat="47.18618" lon="6.04905">
        <ele>417</ele>
        <time>2026-07-08T12:53:36Z</time>
      </trkpt>
      <trkpt lat="47.18613" lon="6.04909">
        <ele>417.2</ele>
        <time>2026-07-08T12:53:37Z</time>
      </trkpt>
      <trkpt lat="47.18607" lon="6.04912">
        <ele>417</ele>
        <time>2026-07-08T12:53:38Z</time>
      </trkpt>
      <trkpt lat="47.18602" lon="6.04916">
        <ele>417</ele>
        <time>2026-07-08T12:53:39Z</time>
      </trkpt>
      <trkpt lat="47.18597" lon="6.04919">
        <ele>417</ele>
        <time>2026-07-08T12:53:40Z</time>
      </trkpt>
      <trkpt lat="47.18592" lon="6.04923">
        <ele>417.2</ele>
        <time>2026-07-08T12:53:41Z</time>
      </trkpt>
      <trkpt lat="47.18586" lon="6.04927">
        <ele>417.4</ele>
        <time>2026-07-08T12:53:42Z</time>
      </trkpt>
      <trkpt lat="47.18581" lon="6.0493">
        <ele>417.8</ele>
        <time>2026-07-08T12:53:43Z</time>
      </trkpt>
      <trkpt lat="47.18575" lon="6.04933">
        <ele>417.8</ele>
        <time>2026-07-08T12:53:44Z</time>
      </trkpt>
      <trkpt lat="47.1857" lon="6.04936">
        <ele>418</ele>
        <time>2026-07-08T12:53:45Z</time>
      </trkpt>
      <trkpt lat="47.18564" lon="6.04939">
        <ele>418.2</ele>
        <time>2026-07-08T12:53:46Z</time>
      </trkpt>
      <trkpt lat="47.18559" lon="6.04943">
        <ele>418.4</ele>
        <time>2026-07-08T12:53:47Z</time>
      </trkpt>
      <trkpt lat="47.18554" lon="6.04946">
        <ele>418.4</ele>
        <time>2026-07-08T12:53:48Z</time>
      </trkpt>
      <trkpt lat="47.18549" lon="6.0495">
        <ele>418.6</ele>
        <time>2026-07-08T12:53:49Z</time>
      </trkpt>
      <trkpt lat="47.18543" lon="6.04954">
        <ele>418.6</ele>
        <time>2026-07-08T12:53:50Z</time>
      </trkpt>
      <trkpt lat="47.18538" lon="6.04958">
        <ele>418.8</ele>
        <time>2026-07-08T12:53:51Z</time>
      </trkpt>
      <trkpt lat="47.18532" lon="6.04962">
        <ele>419</ele>
        <time>2026-07-08T12:53:52Z</time>
      </trkpt>
      <trkpt lat="47.18525" lon="6.04965">
        <ele>419.2</ele>
        <time>2026-07-08T12:53:53Z</time>
      </trkpt>
      <trkpt lat="47.18519" lon="6.04969">
        <ele>419.4</ele>
        <time>2026-07-08T12:53:54Z</time>
      </trkpt>
      <trkpt lat="47.18512" lon="6.04972">
        <ele>419.4</ele>
        <time>2026-07-08T12:53:55Z</time>
      </trkpt>
      <trkpt lat="47.18505" lon="6.04975">
        <ele>419.4</ele>
        <time>2026-07-08T12:53:56Z</time>
      </trkpt>
      <trkpt lat="47.18498" lon="6.04978">
        <ele>419.4</ele>
        <time>2026-07-08T12:53:57Z</time>
      </trkpt>
      <trkpt lat="47.18491" lon="6.0498">
        <ele>419.4</ele>
        <time>2026-07-08T12:53:58Z</time>
      </trkpt>
      <trkpt lat="47.18483" lon="6.04983">
        <ele>419.4</ele>
        <time>2026-07-08T12:53:59Z</time>
      </trkpt>
      <trkpt lat="47.18475" lon="6.04987">
        <ele>419.4</ele>
        <time>2026-07-08T12:54:00Z</time>
      </trkpt>
      <trkpt lat="47.18467" lon="6.0499">
        <ele>419.4</ele>
        <time>2026-07-08T12:54:01Z</time>
      </trkpt>
      <trkpt lat="47.18459" lon="6.04993">
        <ele>419.4</ele>
        <time>2026-07-08T12:54:02Z</time>
      </trkpt>
      <trkpt lat="47.18451" lon="6.04997">
        <ele>419.4</ele>
        <time>2026-07-08T12:54:03Z</time>
      </trkpt>
      <trkpt lat="47.18443" lon="6.05">
        <ele>419.4</ele>
        <time>2026-07-08T12:54:04Z</time>
      </trkpt>
      <trkpt lat="47.18435" lon="6.05004">
        <ele>419.4</ele>
        <time>2026-07-08T12:54:05Z</time>
      </trkpt>
      <trkpt lat="47.18427" lon="6.05008">
        <ele>419</ele>
        <time>2026-07-08T12:54:06Z</time>
      </trkpt>
      <trkpt lat="47.1842" lon="6.05012">
        <ele>418.8</ele>
        <time>2026-07-08T12:54:07Z</time>
      </trkpt>
      <trkpt lat="47.18413" lon="6.05016">
        <ele>418.4</ele>
        <time>2026-07-08T12:54:08Z</time>
      </trkpt>
      <trkpt lat="47.18406" lon="6.0502">
        <ele>417.8</ele>
        <time>2026-07-08T12:54:09Z</time>
      </trkpt>
      <trkpt lat="47.18399" lon="6.05024">
        <ele>417.6</ele>
        <time>2026-07-08T12:54:10Z</time>
      </trkpt>
      <trkpt lat="47.18392" lon="6.05027">
        <ele>417.2</ele>
        <time>2026-07-08T12:54:11Z</time>
      </trkpt>
      <trkpt lat="47.18385" lon="6.0503">
        <ele>417</ele>
        <time>2026-07-08T12:54:12Z</time>
      </trkpt>
      <trkpt lat="47.18378" lon="6.05033">
        <ele>416.6</ele>
        <time>2026-07-08T12:54:13Z</time>
      </trkpt>
      <trkpt lat="47.18371" lon="6.05036">
        <ele>416.4</ele>
        <time>2026-07-08T12:54:14Z</time>
      </trkpt>
      <trkpt lat="47.18364" lon="6.05038">
        <ele>416.2</ele>
        <time>2026-07-08T12:54:15Z</time>
      </trkpt>
      <trkpt lat="47.18357" lon="6.05041">
        <ele>416</ele>
        <time>2026-07-08T12:54:16Z</time>
      </trkpt>
      <trkpt lat="47.18351" lon="6.05043">
        <ele>416</ele>
        <time>2026-07-08T12:54:17Z</time>
      </trkpt>
      <trkpt lat="47.18345" lon="6.05045">
        <ele>415.8</ele>
        <time>2026-07-08T12:54:18Z</time>
      </trkpt>
      <trkpt lat="47.18338" lon="6.05048">
        <ele>415.8</ele>
        <time>2026-07-08T12:54:19Z</time>
      </trkpt>
      <trkpt lat="47.18332" lon="6.0505">
        <ele>416</ele>
        <time>2026-07-08T12:54:20Z</time>
      </trkpt>
      <trkpt lat="47.18327" lon="6.05052">
        <ele>416</ele>
        <time>2026-07-08T12:54:21Z</time>
      </trkpt>
      <trkpt lat="47.18321" lon="6.05054">
        <ele>416</ele>
        <time>2026-07-08T12:54:22Z</time>
      </trkpt>
      <trkpt lat="47.18317" lon="6.05056">
        <ele>416</ele>
        <time>2026-07-08T12:54:23Z</time>
      </trkpt>
      <trkpt lat="47.18313" lon="6.05057">
        <ele>415.8</ele>
        <time>2026-07-08T12:54:24Z</time>
      </trkpt>
      <trkpt lat="47.18309" lon="6.05059">
        <ele>415.8</ele>
        <time>2026-07-08T12:54:25Z</time>
      </trkpt>
      <trkpt lat="47.18305" lon="6.0506">
        <ele>416</ele>
        <time>2026-07-08T12:54:26Z</time>
      </trkpt>
      <trkpt lat="47.18301" lon="6.05061">
        <ele>416</ele>
        <time>2026-07-08T12:54:27Z</time>
      </trkpt>
      <trkpt lat="47.18298" lon="6.05062">
        <ele>416</ele>
        <time>2026-07-08T12:54:28Z</time>
      </trkpt>
      <trkpt lat="47.18294" lon="6.05064">
        <ele>416.2</ele>
        <time>2026-07-08T12:54:29Z</time>
      </trkpt>
      <trkpt lat="47.18291" lon="6.05066">
        <ele>416.4</ele>
        <time>2026-07-08T12:54:30Z</time>
      </trkpt>
      <trkpt lat="47.18288" lon="6.05068">
        <ele>416.8</ele>
        <time>2026-07-08T12:54:31Z</time>
      </trkpt>
      <trkpt lat="47.18284" lon="6.05071">
        <ele>417</ele>
        <time>2026-07-08T12:54:32Z</time>
      </trkpt>
      <trkpt lat="47.1828" lon="6.05073">
        <ele>417.2</ele>
        <time>2026-07-08T12:54:33Z</time>
      </trkpt>
      <trkpt lat="47.18277" lon="6.05076">
        <ele>417.4</ele>
        <time>2026-07-08T12:54:34Z</time>
      </trkpt>
      <trkpt lat="47.18273" lon="6.05079">
        <ele>417.8</ele>
        <time>2026-07-08T12:54:35Z</time>
      </trkpt>
      <trkpt lat="47.1827" lon="6.05083">
        <ele>418.2</ele>
        <time>2026-07-08T12:54:36Z</time>
      </trkpt>
      <trkpt lat="47.18266" lon="6.05086">
        <ele>418.6</ele>
        <time>2026-07-08T12:54:37Z</time>
      </trkpt>
      <trkpt lat="47.18263" lon="6.0509">
        <ele>418.8</ele>
        <time>2026-07-08T12:54:38Z</time>
      </trkpt>
      <trkpt lat="47.18259" lon="6.05094">
        <ele>419</ele>
        <time>2026-07-08T12:54:39Z</time>
      </trkpt>
      <trkpt lat="47.18256" lon="6.05097">
        <ele>419.2</ele>
        <time>2026-07-08T12:54:40Z</time>
      </trkpt>
      <trkpt lat="47.18252" lon="6.05101">
        <ele>419.2</ele>
        <time>2026-07-08T12:54:41Z</time>
      </trkpt>
      <trkpt lat="47.18248" lon="6.05105">
        <ele>419.2</ele>
        <time>2026-07-08T12:54:42Z</time>
      </trkpt>
      <trkpt lat="47.18245" lon="6.0511">
        <ele>419.2</ele>
        <time>2026-07-08T12:54:43Z</time>
      </trkpt>
      <trkpt lat="47.18241" lon="6.05113">
        <ele>419.4</ele>
        <time>2026-07-08T12:54:44Z</time>
      </trkpt>
      <trkpt lat="47.18238" lon="6.05117">
        <ele>419.4</ele>
        <time>2026-07-08T12:54:45Z</time>
      </trkpt>
      <trkpt lat="47.18234" lon="6.05121">
        <ele>419.4</ele>
        <time>2026-07-08T12:54:46Z</time>
      </trkpt>
      <trkpt lat="47.1823" lon="6.05125">
        <ele>419.6</ele>
        <time>2026-07-08T12:54:47Z</time>
      </trkpt>
      <trkpt lat="47.18226" lon="6.05129">
        <ele>419.4</ele>
        <time>2026-07-08T12:54:48Z</time>
      </trkpt>
      <trkpt lat="47.18222" lon="6.05134">
        <ele>419.4</ele>
        <time>2026-07-08T12:54:49Z</time>
      </trkpt>
      <trkpt lat="47.18219" lon="6.05139">
        <ele>419.6</ele>
        <time>2026-07-08T12:54:50Z</time>
      </trkpt>
      <trkpt lat="47.18215" lon="6.05144">
        <ele>419.8</ele>
        <time>2026-07-08T12:54:51Z</time>
      </trkpt>
      <trkpt lat="47.18211" lon="6.05148">
        <ele>419.6</ele>
        <time>2026-07-08T12:54:52Z</time>
      </trkpt>
      <trkpt lat="47.18208" lon="6.05153">
        <ele>419.6</ele>
        <time>2026-07-08T12:54:53Z</time>
      </trkpt>
      <trkpt lat="47.18204" lon="6.05158">
        <ele>419.6</ele>
        <time>2026-07-08T12:54:54Z</time>
      </trkpt>
      <trkpt lat="47.18201" lon="6.05162">
        <ele>419.6</ele>
        <time>2026-07-08T12:54:55Z</time>
      </trkpt>
      <trkpt lat="47.18197" lon="6.05167">
        <ele>419.6</ele>
        <time>2026-07-08T12:54:56Z</time>
      </trkpt>
      <trkpt lat="47.18194" lon="6.05172">
        <ele>419.6</ele>
        <time>2026-07-08T12:54:57Z</time>
      </trkpt>
      <trkpt lat="47.1819" lon="6.05176">
        <ele>419.8</ele>
        <time>2026-07-08T12:54:58Z</time>
      </trkpt>
      <trkpt lat="47.18187" lon="6.05181">
        <ele>419.8</ele>
        <time>2026-07-08T12:54:59Z</time>
      </trkpt>
      <trkpt lat="47.18183" lon="6.05185">
        <ele>419.8</ele>
        <time>2026-07-08T12:55:00Z</time>
      </trkpt>
      <trkpt lat="47.1818" lon="6.0519">
        <ele>419.8</ele>
        <time>2026-07-08T12:55:01Z</time>
      </trkpt>
      <trkpt lat="47.18176" lon="6.05194">
        <ele>419.8</ele>
        <time>2026-07-08T12:55:02Z</time>
      </trkpt>
      <trkpt lat="47.18173" lon="6.05199">
        <ele>420</ele>
        <time>2026-07-08T12:55:03Z</time>
      </trkpt>
      <trkpt lat="47.1817" lon="6.05204">
        <ele>420</ele>
        <time>2026-07-08T12:55:04Z</time>
      </trkpt>
      <trkpt lat="47.18167" lon="6.05209">
        <ele>420</ele>
        <time>2026-07-08T12:55:05Z</time>
      </trkpt>
      <trkpt lat="47.18164" lon="6.05213">
        <ele>420.2</ele>
        <time>2026-07-08T12:55:06Z</time>
      </trkpt>
      <trkpt lat="47.18161" lon="6.05217">
        <ele>420.2</ele>
        <time>2026-07-08T12:55:07Z</time>
      </trkpt>
      <trkpt lat="47.18158" lon="6.05221">
        <ele>420.4</ele>
        <time>2026-07-08T12:55:08Z</time>
      </trkpt>
      <trkpt lat="47.18155" lon="6.05225">
        <ele>420.6</ele>
        <time>2026-07-08T12:55:09Z</time>
      </trkpt>
      <trkpt lat="47.18152" lon="6.05229">
        <ele>420.8</ele>
        <time>2026-07-08T12:55:10Z</time>
      </trkpt>
      <trkpt lat="47.18149" lon="6.05234">
        <ele>420.8</ele>
        <time>2026-07-08T12:55:11Z</time>
      </trkpt>
      <trkpt lat="47.18145" lon="6.05238">
        <ele>421</ele>
        <time>2026-07-08T12:55:12Z</time>
      </trkpt>
      <trkpt lat="47.18142" lon="6.05241">
        <ele>421</ele>
        <time>2026-07-08T12:55:13Z</time>
      </trkpt>
      <trkpt lat="47.18138" lon="6.05244">
        <ele>421.4</ele>
        <time>2026-07-08T12:55:14Z</time>
      </trkpt>
      <trkpt lat="47.18135" lon="6.05247">
        <ele>421.4</ele>
        <time>2026-07-08T12:55:15Z</time>
      </trkpt>
      <trkpt lat="47.18131" lon="6.05249">
        <ele>421.6</ele>
        <time>2026-07-08T12:55:16Z</time>
      </trkpt>
      <trkpt lat="47.18127" lon="6.05251">
        <ele>421.8</ele>
        <time>2026-07-08T12:55:17Z</time>
      </trkpt>
      <trkpt lat="47.18123" lon="6.05253">
        <ele>422</ele>
        <time>2026-07-08T12:55:18Z</time>
      </trkpt>
      <trkpt lat="47.18119" lon="6.05254">
        <ele>422.4</ele>
        <time>2026-07-08T12:55:19Z</time>
      </trkpt>
      <trkpt lat="47.18115" lon="6.05254">
        <ele>422.6</ele>
        <time>2026-07-08T12:55:20Z</time>
      </trkpt>
      <trkpt lat="47.18111" lon="6.05254">
        <ele>422.8</ele>
        <time>2026-07-08T12:55:21Z</time>
      </trkpt>
      <trkpt lat="47.18107" lon="6.05253">
        <ele>423.2</ele>
        <time>2026-07-08T12:55:22Z</time>
      </trkpt>
      <trkpt lat="47.18102" lon="6.05252">
        <ele>423.2</ele>
        <time>2026-07-08T12:55:23Z</time>
      </trkpt>
      <trkpt lat="47.18098" lon="6.05252">
        <ele>423.4</ele>
        <time>2026-07-08T12:55:24Z</time>
      </trkpt>
      <trkpt lat="47.18094" lon="6.05251">
        <ele>423.6</ele>
        <time>2026-07-08T12:55:25Z</time>
      </trkpt>
      <trkpt lat="47.1809" lon="6.05251">
        <ele>423.8</ele>
        <time>2026-07-08T12:55:26Z</time>
      </trkpt>
      <trkpt lat="47.18086" lon="6.05251">
        <ele>423.8</ele>
        <time>2026-07-08T12:55:27Z</time>
      </trkpt>
      <trkpt lat="47.18081" lon="6.0525">
        <ele>423.8</ele>
        <time>2026-07-08T12:55:28Z</time>
      </trkpt>
      <trkpt lat="47.18077" lon="6.05251">
        <ele>424</ele>
        <time>2026-07-08T12:55:29Z</time>
      </trkpt>
      <trkpt lat="47.18073" lon="6.05251">
        <ele>424.2</ele>
        <time>2026-07-08T12:55:30Z</time>
      </trkpt>
      <trkpt lat="47.18069" lon="6.05251">
        <ele>424.4</ele>
        <time>2026-07-08T12:55:31Z</time>
      </trkpt>
      <trkpt lat="47.18065" lon="6.05252">
        <ele>424.6</ele>
        <time>2026-07-08T12:55:32Z</time>
      </trkpt>
      <trkpt lat="47.1806" lon="6.05252">
        <ele>424.6</ele>
        <time>2026-07-08T12:55:33Z</time>
      </trkpt>
      <trkpt lat="47.18056" lon="6.05253">
        <ele>424.8</ele>
        <time>2026-07-08T12:55:34Z</time>
      </trkpt>
      <trkpt lat="47.18052" lon="6.05253">
        <ele>425</ele>
        <time>2026-07-08T12:55:35Z</time>
      </trkpt>
      <trkpt lat="47.18048" lon="6.05254">
        <ele>425</ele>
        <time>2026-07-08T12:55:36Z</time>
      </trkpt>
      <trkpt lat="47.18044" lon="6.05255">
        <ele>425.2</ele>
        <time>2026-07-08T12:55:37Z</time>
      </trkpt>
      <trkpt lat="47.1804" lon="6.05256">
        <ele>425.4</ele>
        <time>2026-07-08T12:55:38Z</time>
      </trkpt>
      <trkpt lat="47.18035" lon="6.05258">
        <ele>425.6</ele>
        <time>2026-07-08T12:55:39Z</time>
      </trkpt>
      <trkpt lat="47.18031" lon="6.05259">
        <ele>425.8</ele>
        <time>2026-07-08T12:55:40Z</time>
      </trkpt>
      <trkpt lat="47.18027" lon="6.0526">
        <ele>425.8</ele>
        <time>2026-07-08T12:55:41Z</time>
      </trkpt>
      <trkpt lat="47.18022" lon="6.05261">
        <ele>426</ele>
        <time>2026-07-08T12:55:42Z</time>
      </trkpt>
      <trkpt lat="47.18018" lon="6.05263">
        <ele>426.2</ele>
        <time>2026-07-08T12:55:43Z</time>
      </trkpt>
      <trkpt lat="47.18014" lon="6.05264">
        <ele>426.4</ele>
        <time>2026-07-08T12:55:44Z</time>
      </trkpt>
      <trkpt lat="47.18009" lon="6.05266">
        <ele>426.4</ele>
        <time>2026-07-08T12:55:45Z</time>
      </trkpt>
      <trkpt lat="47.18005" lon="6.05268">
        <ele>426.6</ele>
        <time>2026-07-08T12:55:46Z</time>
      </trkpt>
      <trkpt lat="47.18" lon="6.0527">
        <ele>426.6</ele>
        <time>2026-07-08T12:55:47Z</time>
      </trkpt>
      <trkpt lat="47.17996" lon="6.05272">
        <ele>426.8</ele>
        <time>2026-07-08T12:55:48Z</time>
      </trkpt>
      <trkpt lat="47.17992" lon="6.05274">
        <ele>427</ele>
        <time>2026-07-08T12:55:49Z</time>
      </trkpt>
      <trkpt lat="47.17987" lon="6.05276">
        <ele>427</ele>
        <time>2026-07-08T12:55:50Z</time>
      </trkpt>
      <trkpt lat="47.17983" lon="6.05278">
        <ele>427</ele>
        <time>2026-07-08T12:55:51Z</time>
      </trkpt>
      <trkpt lat="47.17979" lon="6.05279">
        <ele>427.2</ele>
        <time>2026-07-08T12:55:52Z</time>
      </trkpt>
      <trkpt lat="47.17974" lon="6.05281">
        <ele>427.2</ele>
        <time>2026-07-08T12:55:53Z</time>
      </trkpt>
      <trkpt lat="47.1797" lon="6.05283">
        <ele>427.2</ele>
        <time>2026-07-08T12:55:54Z</time>
      </trkpt>
      <trkpt lat="47.17966" lon="6.05284">
        <ele>427.2</ele>
        <time>2026-07-08T12:55:55Z</time>
      </trkpt>
      <trkpt lat="47.17962" lon="6.05286">
        <ele>427.4</ele>
        <time>2026-07-08T12:55:56Z</time>
      </trkpt>
      <trkpt lat="47.17958" lon="6.05288">
        <ele>427.6</ele>
        <time>2026-07-08T12:55:57Z</time>
      </trkpt>
      <trkpt lat="47.17954" lon="6.0529">
        <ele>427.4</ele>
        <time>2026-07-08T12:55:58Z</time>
      </trkpt>
      <trkpt lat="47.17949" lon="6.05292">
        <ele>427.6</ele>
        <time>2026-07-08T12:55:59Z</time>
      </trkpt>
      <trkpt lat="47.17946" lon="6.05293">
        <ele>427.6</ele>
        <time>2026-07-08T12:56:00Z</time>
      </trkpt>
      <trkpt lat="47.17942" lon="6.05295">
        <ele>427.6</ele>
        <time>2026-07-08T12:56:01Z</time>
      </trkpt>
      <trkpt lat="47.17937" lon="6.05297">
        <ele>427.6</ele>
        <time>2026-07-08T12:56:02Z</time>
      </trkpt>
      <trkpt lat="47.17933" lon="6.05298">
        <ele>427.8</ele>
        <time>2026-07-08T12:56:03Z</time>
      </trkpt>
      <trkpt lat="47.17928" lon="6.053">
        <ele>427.8</ele>
        <time>2026-07-08T12:56:04Z</time>
      </trkpt>
      <trkpt lat="47.17924" lon="6.053">
        <ele>427.8</ele>
        <time>2026-07-08T12:56:05Z</time>
      </trkpt>
      <trkpt lat="47.17919" lon="6.05301">
        <ele>428.2</ele>
        <time>2026-07-08T12:56:06Z</time>
      </trkpt>
      <trkpt lat="47.17915" lon="6.05301">
        <ele>428.2</ele>
        <time>2026-07-08T12:56:07Z</time>
      </trkpt>
      <trkpt lat="47.1791" lon="6.05301">
        <ele>428.4</ele>
        <time>2026-07-08T12:56:08Z</time>
      </trkpt>
      <trkpt lat="47.17906" lon="6.05301">
        <ele>428.4</ele>
        <time>2026-07-08T12:56:09Z</time>
      </trkpt>
      <trkpt lat="47.17901" lon="6.05301">
        <ele>428.4</ele>
        <time>2026-07-08T12:56:10Z</time>
      </trkpt>
      <trkpt lat="47.17896" lon="6.05301">
        <ele>428.4</ele>
        <time>2026-07-08T12:56:11Z</time>
      </trkpt>
      <trkpt lat="47.17892" lon="6.053">
        <ele>428.4</ele>
        <time>2026-07-08T12:56:12Z</time>
      </trkpt>
      <trkpt lat="47.17888" lon="6.053">
        <ele>428.4</ele>
        <time>2026-07-08T12:56:13Z</time>
      </trkpt>
      <trkpt lat="47.17883" lon="6.05299">
        <ele>428.4</ele>
        <time>2026-07-08T12:56:14Z</time>
      </trkpt>
      <trkpt lat="47.17879" lon="6.05298">
        <ele>428.6</ele>
        <time>2026-07-08T12:56:15Z</time>
      </trkpt>
      <trkpt lat="47.17874" lon="6.05297">
        <ele>428.6</ele>
        <time>2026-07-08T12:56:16Z</time>
      </trkpt>
      <trkpt lat="47.17869" lon="6.05297">
        <ele>428.6</ele>
        <time>2026-07-08T12:56:17Z</time>
      </trkpt>
      <trkpt lat="47.17865" lon="6.05295">
        <ele>428.6</ele>
        <time>2026-07-08T12:56:18Z</time>
      </trkpt>
      <trkpt lat="47.1786" lon="6.05294">
        <ele>428.8</ele>
        <time>2026-07-08T12:56:19Z</time>
      </trkpt>
      <trkpt lat="47.17855" lon="6.05292">
        <ele>428.8</ele>
        <time>2026-07-08T12:56:20Z</time>
      </trkpt>
      <trkpt lat="47.17851" lon="6.0529">
        <ele>428.8</ele>
        <time>2026-07-08T12:56:21Z</time>
      </trkpt>
      <trkpt lat="47.17846" lon="6.05288">
        <ele>429</ele>
        <time>2026-07-08T12:56:22Z</time>
      </trkpt>
      <trkpt lat="47.17842" lon="6.05286">
        <ele>429</ele>
        <time>2026-07-08T12:56:23Z</time>
      </trkpt>
      <trkpt lat="47.17838" lon="6.05283">
        <ele>429</ele>
        <time>2026-07-08T12:56:24Z</time>
      </trkpt>
      <trkpt lat="47.17834" lon="6.0528">
        <ele>429.2</ele>
        <time>2026-07-08T12:56:25Z</time>
      </trkpt>
      <trkpt lat="47.1783" lon="6.05276">
        <ele>429.2</ele>
        <time>2026-07-08T12:56:26Z</time>
      </trkpt>
      <trkpt lat="47.17827" lon="6.05272">
        <ele>429.2</ele>
        <time>2026-07-08T12:56:27Z</time>
      </trkpt>
      <trkpt lat="47.17823" lon="6.05268">
        <ele>429.4</ele>
        <time>2026-07-08T12:56:28Z</time>
      </trkpt>
      <trkpt lat="47.1782" lon="6.05264">
        <ele>429.4</ele>
        <time>2026-07-08T12:56:29Z</time>
      </trkpt>
      <trkpt lat="47.17817" lon="6.0526">
        <ele>429.4</ele>
        <time>2026-07-08T12:56:30Z</time>
      </trkpt>
      <trkpt lat="47.17814" lon="6.05256">
        <ele>429.4</ele>
        <time>2026-07-08T12:56:31Z</time>
      </trkpt>
      <trkpt lat="47.17811" lon="6.05253">
        <ele>429.6</ele>
        <time>2026-07-08T12:56:32Z</time>
      </trkpt>
      <trkpt lat="47.17808" lon="6.05249">
        <ele>429.8</ele>
        <time>2026-07-08T12:56:33Z</time>
      </trkpt>
      <trkpt lat="47.17805" lon="6.05246">
        <ele>429.8</ele>
        <time>2026-07-08T12:56:34Z</time>
      </trkpt>
      <trkpt lat="47.17803" lon="6.05242">
        <ele>429.8</ele>
        <time>2026-07-08T12:56:35Z</time>
      </trkpt>
      <trkpt lat="47.178" lon="6.05239">
        <ele>430</ele>
        <time>2026-07-08T12:56:36Z</time>
      </trkpt>
      <trkpt lat="47.17798" lon="6.05235">
        <ele>430.2</ele>
        <time>2026-07-08T12:56:37Z</time>
      </trkpt>
      <trkpt lat="47.17795" lon="6.0523">
        <ele>430.4</ele>
        <time>2026-07-08T12:56:38Z</time>
      </trkpt>
      <trkpt lat="47.17792" lon="6.05225">
        <ele>430.6</ele>
        <time>2026-07-08T12:56:39Z</time>
      </trkpt>
      <trkpt lat="47.17789" lon="6.05221">
        <ele>431</ele>
        <time>2026-07-08T12:56:40Z</time>
      </trkpt>
      <trkpt lat="47.17786" lon="6.05216">
        <ele>431.2</ele>
        <time>2026-07-08T12:56:41Z</time>
      </trkpt>
      <trkpt lat="47.17783" lon="6.05211">
        <ele>431.4</ele>
        <time>2026-07-08T12:56:42Z</time>
      </trkpt>
      <trkpt lat="47.17779" lon="6.05206">
        <ele>431.6</ele>
        <time>2026-07-08T12:56:43Z</time>
      </trkpt>
      <trkpt lat="47.17776" lon="6.05201">
        <ele>431.6</ele>
        <time>2026-07-08T12:56:44Z</time>
      </trkpt>
      <trkpt lat="47.17773" lon="6.05197">
        <ele>431.8</ele>
        <time>2026-07-08T12:56:45Z</time>
      </trkpt>
      <trkpt lat="47.1777" lon="6.05193">
        <ele>431.8</ele>
        <time>2026-07-08T12:56:46Z</time>
      </trkpt>
      <trkpt lat="47.17768" lon="6.05188">
        <ele>431.8</ele>
        <time>2026-07-08T12:56:47Z</time>
      </trkpt>
      <trkpt lat="47.17765" lon="6.05184">
        <ele>431.8</ele>
        <time>2026-07-08T12:56:48Z</time>
      </trkpt>
      <trkpt lat="47.17762" lon="6.05179">
        <ele>431.8</ele>
        <time>2026-07-08T12:56:49Z</time>
      </trkpt>
      <trkpt lat="47.17759" lon="6.05176">
        <ele>431.8</ele>
        <time>2026-07-08T12:56:50Z</time>
      </trkpt>
      <trkpt lat="47.17755" lon="6.05173">
        <ele>432</ele>
        <time>2026-07-08T12:56:51Z</time>
      </trkpt>
      <trkpt lat="47.17752" lon="6.05169">
        <ele>432.2</ele>
        <time>2026-07-08T12:56:52Z</time>
      </trkpt>
      <trkpt lat="47.17749" lon="6.05166">
        <ele>432</ele>
        <time>2026-07-08T12:56:53Z</time>
      </trkpt>
      <trkpt lat="47.17745" lon="6.05163">
        <ele>432.2</ele>
        <time>2026-07-08T12:56:54Z</time>
      </trkpt>
      <trkpt lat="47.17741" lon="6.0516">
        <ele>432.2</ele>
        <time>2026-07-08T12:56:55Z</time>
      </trkpt>
      <trkpt lat="47.17738" lon="6.05157">
        <ele>432.2</ele>
        <time>2026-07-08T12:56:56Z</time>
      </trkpt>
      <trkpt lat="47.17734" lon="6.05155">
        <ele>432.2</ele>
        <time>2026-07-08T12:56:57Z</time>
      </trkpt>
      <trkpt lat="47.17731" lon="6.05153">
        <ele>432.2</ele>
        <time>2026-07-08T12:56:58Z</time>
      </trkpt>
      <trkpt lat="47.17728" lon="6.05151">
        <ele>432.2</ele>
        <time>2026-07-08T12:56:59Z</time>
      </trkpt>
      <trkpt lat="47.17725" lon="6.0515">
        <ele>432.4</ele>
        <time>2026-07-08T12:57:00Z</time>
      </trkpt>
      <trkpt lat="47.1772" lon="6.0515">
        <ele>432.4</ele>
        <time>2026-07-08T12:57:01Z</time>
      </trkpt>
      <trkpt lat="47.17716" lon="6.05152">
        <ele>432.6</ele>
        <time>2026-07-08T12:57:02Z</time>
      </trkpt>
      <trkpt lat="47.17711" lon="6.05153">
        <ele>432.8</ele>
        <time>2026-07-08T12:57:03Z</time>
      </trkpt>
      <trkpt lat="47.17706" lon="6.05154">
        <ele>432.8</ele>
        <time>2026-07-08T12:57:04Z</time>
      </trkpt>
      <trkpt lat="47.17702" lon="6.05155">
        <ele>433</ele>
        <time>2026-07-08T12:57:05Z</time>
      </trkpt>
      <trkpt lat="47.17698" lon="6.05157">
        <ele>433.2</ele>
        <time>2026-07-08T12:57:06Z</time>
      </trkpt>
      <trkpt lat="47.17694" lon="6.05158">
        <ele>433.2</ele>
        <time>2026-07-08T12:57:07Z</time>
      </trkpt>
      <trkpt lat="47.1769" lon="6.05159">
        <ele>433.6</ele>
        <time>2026-07-08T12:57:08Z</time>
      </trkpt>
      <trkpt lat="47.17688" lon="6.0516">
        <ele>433.6</ele>
        <time>2026-07-08T12:57:09Z</time>
      </trkpt>
      <trkpt lat="47.17684" lon="6.05162">
        <ele>433.6</ele>
        <time>2026-07-08T12:57:10Z</time>
      </trkpt>
      <trkpt lat="47.17681" lon="6.05163">
        <ele>433.8</ele>
        <time>2026-07-08T12:57:11Z</time>
      </trkpt>
      <trkpt lat="47.17678" lon="6.05164">
        <ele>433.8</ele>
        <time>2026-07-08T12:57:12Z</time>
      </trkpt>
      <trkpt lat="47.17675" lon="6.05166">
        <ele>434</ele>
        <time>2026-07-08T12:57:13Z</time>
      </trkpt>
      <trkpt lat="47.17672" lon="6.05167">
        <ele>434.2</ele>
        <time>2026-07-08T12:57:14Z</time>
      </trkpt>
      <trkpt lat="47.1767" lon="6.05169">
        <ele>434.4</ele>
        <time>2026-07-08T12:57:15Z</time>
      </trkpt>
      <trkpt lat="47.17667" lon="6.05172">
        <ele>434.6</ele>
        <time>2026-07-08T12:57:16Z</time>
      </trkpt>
      <trkpt lat="47.17664" lon="6.05174">
        <ele>434.6</ele>
        <time>2026-07-08T12:57:17Z</time>
      </trkpt>
      <trkpt lat="47.17662" lon="6.05177">
        <ele>434.6</ele>
        <time>2026-07-08T12:57:18Z</time>
      </trkpt>
      <trkpt lat="47.17659" lon="6.0518">
        <ele>434.6</ele>
        <time>2026-07-08T12:57:19Z</time>
      </trkpt>
      <trkpt lat="47.17656" lon="6.05184">
        <ele>434.8</ele>
        <time>2026-07-08T12:57:20Z</time>
      </trkpt>
      <trkpt lat="47.17654" lon="6.05188">
        <ele>435.2</ele>
        <time>2026-07-08T12:57:21Z</time>
      </trkpt>
      <trkpt lat="47.17652" lon="6.05192">
        <ele>435.6</ele>
        <time>2026-07-08T12:57:22Z</time>
      </trkpt>
      <trkpt lat="47.1765" lon="6.05197">
        <ele>435.6</ele>
        <time>2026-07-08T12:57:23Z</time>
      </trkpt>
      <trkpt lat="47.17648" lon="6.05202">
        <ele>436</ele>
        <time>2026-07-08T12:57:24Z</time>
      </trkpt>
      <trkpt lat="47.17647" lon="6.05207">
        <ele>436.4</ele>
        <time>2026-07-08T12:57:25Z</time>
      </trkpt>
      <trkpt lat="47.17646" lon="6.05213">
        <ele>436.6</ele>
        <time>2026-07-08T12:57:26Z</time>
      </trkpt>
      <trkpt lat="47.17646" lon="6.05219">
        <ele>436.8</ele>
        <time>2026-07-08T12:57:27Z</time>
      </trkpt>
      <trkpt lat="47.17645" lon="6.05223">
        <ele>437.2</ele>
        <time>2026-07-08T12:57:28Z</time>
      </trkpt>
      <trkpt lat="47.17646" lon="6.05227">
        <ele>437.4</ele>
        <time>2026-07-08T12:57:29Z</time>
      </trkpt>
      <trkpt lat="47.17646" lon="6.05232">
        <ele>437.6</ele>
        <time>2026-07-08T12:57:30Z</time>
      </trkpt>
      <trkpt lat="47.17646" lon="6.05236">
        <ele>438</ele>
        <time>2026-07-08T12:57:31Z</time>
      </trkpt>
      <trkpt lat="47.17647" lon="6.0524">
        <ele>438.2</ele>
        <time>2026-07-08T12:57:32Z</time>
      </trkpt>
      <trkpt lat="47.17647" lon="6.05246">
        <ele>438.4</ele>
        <time>2026-07-08T12:57:33Z</time>
      </trkpt>
      <trkpt lat="47.17646" lon="6.05252">
        <ele>438.6</ele>
        <time>2026-07-08T12:57:34Z</time>
      </trkpt>
      <trkpt lat="47.17644" lon="6.05256">
        <ele>438.6</ele>
        <time>2026-07-08T12:57:35Z</time>
      </trkpt>
      <trkpt lat="47.17642" lon="6.05259">
        <ele>439</ele>
        <time>2026-07-08T12:57:36Z</time>
      </trkpt>
      <trkpt lat="47.1764" lon="6.05261">
        <ele>439.2</ele>
        <time>2026-07-08T12:57:37Z</time>
      </trkpt>
      <trkpt lat="47.17638" lon="6.05262">
        <ele>439.4</ele>
        <time>2026-07-08T12:57:38Z</time>
      </trkpt>
      <trkpt lat="47.17635" lon="6.05261">
        <ele>439.6</ele>
        <time>2026-07-08T12:57:39Z</time>
      </trkpt>
      <trkpt lat="47.17632" lon="6.05261">
        <ele>439.6</ele>
        <time>2026-07-08T12:57:40Z</time>
      </trkpt>
      <trkpt lat="47.1763" lon="6.0526">
        <ele>439.8</ele>
        <time>2026-07-08T12:57:41Z</time>
      </trkpt>
      <trkpt lat="47.17627" lon="6.05258">
        <ele>440.2</ele>
        <time>2026-07-08T12:57:42Z</time>
      </trkpt>
      <trkpt lat="47.17624" lon="6.05255">
        <ele>440.4</ele>
        <time>2026-07-08T12:57:43Z</time>
      </trkpt>
      <trkpt lat="47.17622" lon="6.05253">
        <ele>440.8</ele>
        <time>2026-07-08T12:57:44Z</time>
      </trkpt>
      <trkpt lat="47.17619" lon="6.0525">
        <ele>441</ele>
        <time>2026-07-08T12:57:45Z</time>
      </trkpt>
      <trkpt lat="47.17616" lon="6.05248">
        <ele>441.6</ele>
        <time>2026-07-08T12:57:46Z</time>
      </trkpt>
      <trkpt lat="47.17614" lon="6.05245">
        <ele>441.8</ele>
        <time>2026-07-08T12:57:47Z</time>
      </trkpt>
      <trkpt lat="47.17611" lon="6.05243">
        <ele>442.2</ele>
        <time>2026-07-08T12:57:48Z</time>
      </trkpt>
      <trkpt lat="47.17608" lon="6.0524">
        <ele>442.4</ele>
        <time>2026-07-08T12:57:49Z</time>
      </trkpt>
      <trkpt lat="47.17605" lon="6.05237">
        <ele>442.6</ele>
        <time>2026-07-08T12:57:50Z</time>
      </trkpt>
      <trkpt lat="47.17603" lon="6.05233">
        <ele>442.8</ele>
        <time>2026-07-08T12:57:51Z</time>
      </trkpt>
      <trkpt lat="47.17601" lon="6.05229">
        <ele>443.2</ele>
        <time>2026-07-08T12:57:52Z</time>
      </trkpt>
      <trkpt lat="47.17599" lon="6.05224">
        <ele>443.6</ele>
        <time>2026-07-08T12:57:53Z</time>
      </trkpt>
      <trkpt lat="47.17599" lon="6.05218">
        <ele>443.6</ele>
        <time>2026-07-08T12:57:54Z</time>
      </trkpt>
      <trkpt lat="47.17597" lon="6.05214">
        <ele>444.2</ele>
        <time>2026-07-08T12:57:55Z</time>
      </trkpt>
      <trkpt lat="47.17596" lon="6.0521">
        <ele>444.4</ele>
        <time>2026-07-08T12:57:56Z</time>
      </trkpt>
      <trkpt lat="47.17593" lon="6.05206">
        <ele>444.6</ele>
        <time>2026-07-08T12:57:57Z</time>
      </trkpt>
      <trkpt lat="47.1759" lon="6.05204">
        <ele>444.8</ele>
        <time>2026-07-08T12:57:58Z</time>
      </trkpt>
      <trkpt lat="47.17587" lon="6.05202">
        <ele>445</ele>
        <time>2026-07-08T12:57:59Z</time>
      </trkpt>
      <trkpt lat="47.17585" lon="6.05202">
        <ele>445.2</ele>
        <time>2026-07-08T12:58:00Z</time>
      </trkpt>
      <trkpt lat="47.17582" lon="6.05202">
        <ele>445.4</ele>
        <time>2026-07-08T12:58:01Z</time>
      </trkpt>
      <trkpt lat="47.17579" lon="6.05204">
        <ele>445.4</ele>
        <time>2026-07-08T12:58:02Z</time>
      </trkpt>
      <trkpt lat="47.17576" lon="6.05207">
        <ele>445.6</ele>
        <time>2026-07-08T12:58:03Z</time>
      </trkpt>
      <trkpt lat="47.17574" lon="6.0521">
        <ele>445.8</ele>
        <time>2026-07-08T12:58:04Z</time>
      </trkpt>
      <trkpt lat="47.17572" lon="6.05213">
        <ele>446</ele>
        <time>2026-07-08T12:58:05Z</time>
      </trkpt>
      <trkpt lat="47.17572" lon="6.05215">
        <ele>446.2</ele>
        <time>2026-07-08T12:58:06Z</time>
      </trkpt>
      <trkpt lat="47.17572" lon="6.05218">
        <ele>446.4</ele>
        <time>2026-07-08T12:58:07Z</time>
      </trkpt>
      <trkpt lat="47.17571" lon="6.05222">
        <ele>446.8</ele>
        <time>2026-07-08T12:58:08Z</time>
      </trkpt>
      <trkpt lat="47.17571" lon="6.05225">
        <ele>446.8</ele>
        <time>2026-07-08T12:58:09Z</time>
      </trkpt>
      <trkpt lat="47.17571" lon="6.05229">
        <ele>447.4</ele>
        <time>2026-07-08T12:58:10Z</time>
      </trkpt>
      <trkpt lat="47.17568" lon="6.05233">
        <ele>447.6</ele>
        <time>2026-07-08T12:58:11Z</time>
      </trkpt>
      <trkpt lat="47.17569" lon="6.05235">
        <ele>448</ele>
        <time>2026-07-08T12:58:12Z</time>
      </trkpt>
      <trkpt lat="47.17568" lon="6.05237">
        <ele>448.4</ele>
        <time>2026-07-08T12:58:13Z</time>
      </trkpt>
      <trkpt lat="47.17567" lon="6.0524">
        <ele>448.8</ele>
        <time>2026-07-08T12:58:14Z</time>
      </trkpt>
      <trkpt lat="47.17565" lon="6.05243">
        <ele>449</ele>
        <time>2026-07-08T12:58:15Z</time>
      </trkpt>
      <trkpt lat="47.17562" lon="6.05246">
        <ele>449.4</ele>
        <time>2026-07-08T12:58:16Z</time>
      </trkpt>
      <trkpt lat="47.17559" lon="6.0525">
        <ele>449.6</ele>
        <time>2026-07-08T12:58:17Z</time>
      </trkpt>
      <trkpt lat="47.17556" lon="6.05253">
        <ele>450</ele>
        <time>2026-07-08T12:58:18Z</time>
      </trkpt>
      <trkpt lat="47.17554" lon="6.05255">
        <ele>450</ele>
        <time>2026-07-08T12:58:19Z</time>
      </trkpt>
      <trkpt lat="47.1755" lon="6.05258">
        <ele>450</ele>
        <time>2026-07-08T12:58:20Z</time>
      </trkpt>
      <trkpt lat="47.17546" lon="6.0526">
        <ele>450.6</ele>
        <time>2026-07-08T12:58:21Z</time>
      </trkpt>
      <trkpt lat="47.17543" lon="6.05263">
        <ele>450.6</ele>
        <time>2026-07-08T12:58:22Z</time>
      </trkpt>
      <trkpt lat="47.1754" lon="6.05265">
        <ele>450.8</ele>
        <time>2026-07-08T12:58:23Z</time>
      </trkpt>
      <trkpt lat="47.17537" lon="6.05267">
        <ele>450.8</ele>
        <time>2026-07-08T12:58:24Z</time>
      </trkpt>
      <trkpt lat="47.17534" lon="6.0527">
        <ele>451</ele>
        <time>2026-07-08T12:58:25Z</time>
      </trkpt>
      <trkpt lat="47.17532" lon="6.05274">
        <ele>451.4</ele>
        <time>2026-07-08T12:58:26Z</time>
      </trkpt>
      <trkpt lat="47.17529" lon="6.05277">
        <ele>451.8</ele>
        <time>2026-07-08T12:58:27Z</time>
      </trkpt>
      <trkpt lat="47.17527" lon="6.05282">
        <ele>452</ele>
        <time>2026-07-08T12:58:28Z</time>
      </trkpt>
      <trkpt lat="47.17526" lon="6.05287">
        <ele>452.4</ele>
        <time>2026-07-08T12:58:29Z</time>
      </trkpt>
      <trkpt lat="47.17525" lon="6.05292">
        <ele>452.6</ele>
        <time>2026-07-08T12:58:30Z</time>
      </trkpt>
      <trkpt lat="47.17523" lon="6.05298">
        <ele>453</ele>
        <time>2026-07-08T12:58:31Z</time>
      </trkpt>
      <trkpt lat="47.17521" lon="6.05303">
        <ele>453.4</ele>
        <time>2026-07-08T12:58:32Z</time>
      </trkpt>
      <trkpt lat="47.17519" lon="6.05309">
        <ele>453.6</ele>
        <time>2026-07-08T12:58:33Z</time>
      </trkpt>
      <trkpt lat="47.17517" lon="6.05315">
        <ele>453.8</ele>
        <time>2026-07-08T12:58:34Z</time>
      </trkpt>
      <trkpt lat="47.17513" lon="6.0532">
        <ele>453.8</ele>
        <time>2026-07-08T12:58:35Z</time>
      </trkpt>
      <trkpt lat="47.1751" lon="6.05325">
        <ele>454</ele>
        <time>2026-07-08T12:58:36Z</time>
      </trkpt>
      <trkpt lat="47.17508" lon="6.0533">
        <ele>454</ele>
        <time>2026-07-08T12:58:37Z</time>
      </trkpt>
      <trkpt lat="47.17505" lon="6.05335">
        <ele>454</ele>
        <time>2026-07-08T12:58:38Z</time>
      </trkpt>
      <trkpt lat="47.17501" lon="6.05339">
        <ele>454.2</ele>
        <time>2026-07-08T12:58:39Z</time>
      </trkpt>
      <trkpt lat="47.17497" lon="6.05343">
        <ele>454.2</ele>
        <time>2026-07-08T12:58:40Z</time>
      </trkpt>
      <trkpt lat="47.17493" lon="6.05345">
        <ele>454.2</ele>
        <time>2026-07-08T12:58:41Z</time>
      </trkpt>
      <trkpt lat="47.1749" lon="6.05347">
        <ele>454.2</ele>
        <time>2026-07-08T12:58:42Z</time>
      </trkpt>
      <trkpt lat="47.17486" lon="6.05349">
        <ele>454.4</ele>
        <time>2026-07-08T12:58:43Z</time>
      </trkpt>
      <trkpt lat="47.17482" lon="6.0535">
        <ele>454.4</ele>
        <time>2026-07-08T12:58:44Z</time>
      </trkpt>
      <trkpt lat="47.17478" lon="6.05352">
        <ele>454.4</ele>
        <time>2026-07-08T12:58:45Z</time>
      </trkpt>
      <trkpt lat="47.17474" lon="6.05352">
        <ele>454.8</ele>
        <time>2026-07-08T12:58:46Z</time>
      </trkpt>
      <trkpt lat="47.1747" lon="6.05353">
        <ele>454.8</ele>
        <time>2026-07-08T12:58:47Z</time>
      </trkpt>
      <trkpt lat="47.17466" lon="6.05354">
        <ele>454.8</ele>
        <time>2026-07-08T12:58:48Z</time>
      </trkpt>
      <trkpt lat="47.17462" lon="6.05355">
        <ele>454.8</ele>
        <time>2026-07-08T12:58:49Z</time>
      </trkpt>
      <trkpt lat="47.17458" lon="6.05356">
        <ele>455</ele>
        <time>2026-07-08T12:58:50Z</time>
      </trkpt>
      <trkpt lat="47.17453" lon="6.05356">
        <ele>455</ele>
        <time>2026-07-08T12:58:51Z</time>
      </trkpt>
      <trkpt lat="47.17449" lon="6.05358">
        <ele>455</ele>
        <time>2026-07-08T12:58:52Z</time>
      </trkpt>
      <trkpt lat="47.17445" lon="6.05359">
        <ele>455</ele>
        <time>2026-07-08T12:58:53Z</time>
      </trkpt>
      <trkpt lat="47.17441" lon="6.0536">
        <ele>455.2</ele>
        <time>2026-07-08T12:58:54Z</time>
      </trkpt>
      <trkpt lat="47.17437" lon="6.05361">
        <ele>455</ele>
        <time>2026-07-08T12:58:55Z</time>
      </trkpt>
      <trkpt lat="47.17433" lon="6.05361">
        <ele>455.2</ele>
        <time>2026-07-08T12:58:56Z</time>
      </trkpt>
      <trkpt lat="47.17429" lon="6.05362">
        <ele>455.2</ele>
        <time>2026-07-08T12:58:57Z</time>
      </trkpt>
      <trkpt lat="47.17426" lon="6.05363">
        <ele>455.2</ele>
        <time>2026-07-08T12:58:58Z</time>
      </trkpt>
      <trkpt lat="47.17423" lon="6.05364">
        <ele>455.2</ele>
        <time>2026-07-08T12:58:59Z</time>
      </trkpt>
      <trkpt lat="47.17419" lon="6.05365">
        <ele>455.2</ele>
        <time>2026-07-08T12:59:00Z</time>
      </trkpt>
      <trkpt lat="47.17415" lon="6.05366">
        <ele>455.4</ele>
        <time>2026-07-08T12:59:01Z</time>
      </trkpt>
      <trkpt lat="47.17411" lon="6.05367">
        <ele>455.6</ele>
        <time>2026-07-08T12:59:02Z</time>
      </trkpt>
      <trkpt lat="47.17407" lon="6.05368">
        <ele>455.8</ele>
        <time>2026-07-08T12:59:03Z</time>
      </trkpt>
      <trkpt lat="47.17403" lon="6.0537">
        <ele>455.8</ele>
        <time>2026-07-08T12:59:04Z</time>
      </trkpt>
      <trkpt lat="47.174" lon="6.05371">
        <ele>455.8</ele>
        <time>2026-07-08T12:59:05Z</time>
      </trkpt>
      <trkpt lat="47.17396" lon="6.05372">
        <ele>456</ele>
        <time>2026-07-08T12:59:06Z</time>
      </trkpt>
      <trkpt lat="47.17393" lon="6.05373">
        <ele>456</ele>
        <time>2026-07-08T12:59:07Z</time>
      </trkpt>
      <trkpt lat="47.17389" lon="6.05375">
        <ele>456.2</ele>
        <time>2026-07-08T12:59:08Z</time>
      </trkpt>
      <trkpt lat="47.17384" lon="6.05376">
        <ele>456.2</ele>
        <time>2026-07-08T12:59:09Z</time>
      </trkpt>
      <trkpt lat="47.1738" lon="6.05378">
        <ele>456.4</ele>
        <time>2026-07-08T12:59:10Z</time>
      </trkpt>
      <trkpt lat="47.17376" lon="6.0538">
        <ele>456.6</ele>
        <time>2026-07-08T12:59:11Z</time>
      </trkpt>
      <trkpt lat="47.17372" lon="6.05382">
        <ele>456.6</ele>
        <time>2026-07-08T12:59:12Z</time>
      </trkpt>
      <trkpt lat="47.17368" lon="6.05383">
        <ele>457</ele>
        <time>2026-07-08T12:59:13Z</time>
      </trkpt>
      <trkpt lat="47.17363" lon="6.05385">
        <ele>457.2</ele>
        <time>2026-07-08T12:59:14Z</time>
      </trkpt>
      <trkpt lat="47.17359" lon="6.05387">
        <ele>457.4</ele>
        <time>2026-07-08T12:59:15Z</time>
      </trkpt>
      <trkpt lat="47.17355" lon="6.05388">
        <ele>457.6</ele>
        <time>2026-07-08T12:59:16Z</time>
      </trkpt>
      <trkpt lat="47.17352" lon="6.05389">
        <ele>457.8</ele>
        <time>2026-07-08T12:59:17Z</time>
      </trkpt>
      <trkpt lat="47.17348" lon="6.0539">
        <ele>458.2</ele>
        <time>2026-07-08T12:59:18Z</time>
      </trkpt>
      <trkpt lat="47.17345" lon="6.0539">
        <ele>458.2</ele>
        <time>2026-07-08T12:59:19Z</time>
      </trkpt>
      <trkpt lat="47.17341" lon="6.05391">
        <ele>458.4</ele>
        <time>2026-07-08T12:59:20Z</time>
      </trkpt>
      <trkpt lat="47.17337" lon="6.05392">
        <ele>458.4</ele>
        <time>2026-07-08T12:59:21Z</time>
      </trkpt>
      <trkpt lat="47.17333" lon="6.05393">
        <ele>458.6</ele>
        <time>2026-07-08T12:59:22Z</time>
      </trkpt>
      <trkpt lat="47.17329" lon="6.05394">
        <ele>458.8</ele>
        <time>2026-07-08T12:59:23Z</time>
      </trkpt>
      <trkpt lat="47.17326" lon="6.05395">
        <ele>459</ele>
        <time>2026-07-08T12:59:24Z</time>
      </trkpt>
      <trkpt lat="47.17323" lon="6.05395">
        <ele>459.2</ele>
        <time>2026-07-08T12:59:25Z</time>
      </trkpt>
      <trkpt lat="47.17319" lon="6.05396">
        <ele>459.6</ele>
        <time>2026-07-08T12:59:26Z</time>
      </trkpt>
      <trkpt lat="47.17315" lon="6.05397">
        <ele>459.8</ele>
        <time>2026-07-08T12:59:27Z</time>
      </trkpt>
      <trkpt lat="47.1731" lon="6.05398">
        <ele>460.2</ele>
        <time>2026-07-08T12:59:28Z</time>
      </trkpt>
      <trkpt lat="47.17306" lon="6.054">
        <ele>460.2</ele>
        <time>2026-07-08T12:59:29Z</time>
      </trkpt>
      <trkpt lat="47.17303" lon="6.05401">
        <ele>460.4</ele>
        <time>2026-07-08T12:59:30Z</time>
      </trkpt>
      <trkpt lat="47.17299" lon="6.05401">
        <ele>460.4</ele>
        <time>2026-07-08T12:59:31Z</time>
      </trkpt>
      <trkpt lat="47.17295" lon="6.05402">
        <ele>460.6</ele>
        <time>2026-07-08T12:59:32Z</time>
      </trkpt>
      <trkpt lat="47.17292" lon="6.05403">
        <ele>460.8</ele>
        <time>2026-07-08T12:59:33Z</time>
      </trkpt>
      <trkpt lat="47.17288" lon="6.05404">
        <ele>461</ele>
        <time>2026-07-08T12:59:34Z</time>
      </trkpt>
      <trkpt lat="47.17284" lon="6.05405">
        <ele>461.2</ele>
        <time>2026-07-08T12:59:35Z</time>
      </trkpt>
      <trkpt lat="47.1728" lon="6.05405">
        <ele>461.4</ele>
        <time>2026-07-08T12:59:36Z</time>
      </trkpt>
      <trkpt lat="47.17276" lon="6.05406">
        <ele>461.6</ele>
        <time>2026-07-08T12:59:37Z</time>
      </trkpt>
      <trkpt lat="47.17273" lon="6.05406">
        <ele>461.8</ele>
        <time>2026-07-08T12:59:38Z</time>
      </trkpt>
      <trkpt lat="47.17269" lon="6.05407">
        <ele>461.8</ele>
        <time>2026-07-08T12:59:39Z</time>
      </trkpt>
      <trkpt lat="47.17266" lon="6.05407">
        <ele>461.8</ele>
        <time>2026-07-08T12:59:40Z</time>
      </trkpt>
      <trkpt lat="47.17263" lon="6.05407">
        <ele>462</ele>
        <time>2026-07-08T12:59:41Z</time>
      </trkpt>
      <trkpt lat="47.17259" lon="6.05408">
        <ele>462.2</ele>
        <time>2026-07-08T12:59:42Z</time>
      </trkpt>
      <trkpt lat="47.17256" lon="6.05409">
        <ele>462.4</ele>
        <time>2026-07-08T12:59:43Z</time>
      </trkpt>
      <trkpt lat="47.17252" lon="6.0541">
        <ele>462.4</ele>
        <time>2026-07-08T12:59:44Z</time>
      </trkpt>
      <trkpt lat="47.17248" lon="6.05411">
        <ele>462.6</ele>
        <time>2026-07-08T12:59:45Z</time>
      </trkpt>
      <trkpt lat="47.17244" lon="6.05412">
        <ele>463</ele>
        <time>2026-07-08T12:59:46Z</time>
      </trkpt>
      <trkpt lat="47.1724" lon="6.05413">
        <ele>463.2</ele>
        <time>2026-07-08T12:59:47Z</time>
      </trkpt>
      <trkpt lat="47.17235" lon="6.05415">
        <ele>463.4</ele>
        <time>2026-07-08T12:59:48Z</time>
      </trkpt>
      <trkpt lat="47.1723" lon="6.05418">
        <ele>463.4</ele>
        <time>2026-07-08T12:59:49Z</time>
      </trkpt>
      <trkpt lat="47.17225" lon="6.0542">
        <ele>463.6</ele>
        <time>2026-07-08T12:59:50Z</time>
      </trkpt>
      <trkpt lat="47.17221" lon="6.05422">
        <ele>463.8</ele>
        <time>2026-07-08T12:59:51Z</time>
      </trkpt>
      <trkpt lat="47.17216" lon="6.05423">
        <ele>464</ele>
        <time>2026-07-08T12:59:52Z</time>
      </trkpt>
      <trkpt lat="47.17212" lon="6.05425">
        <ele>464</ele>
        <time>2026-07-08T12:59:53Z</time>
      </trkpt>
      <trkpt lat="47.17207" lon="6.05427">
        <ele>464</ele>
        <time>2026-07-08T12:59:54Z</time>
      </trkpt>
      <trkpt lat="47.17202" lon="6.05428">
        <ele>464</ele>
        <time>2026-07-08T12:59:55Z</time>
      </trkpt>
      <trkpt lat="47.17198" lon="6.0543">
        <ele>464.2</ele>
        <time>2026-07-08T12:59:56Z</time>
      </trkpt>
      <trkpt lat="47.17194" lon="6.05432">
        <ele>464.2</ele>
        <time>2026-07-08T12:59:57Z</time>
      </trkpt>
      <trkpt lat="47.1719" lon="6.05434">
        <ele>464.2</ele>
        <time>2026-07-08T12:59:58Z</time>
      </trkpt>
      <trkpt lat="47.17185" lon="6.05436">
        <ele>464.2</ele>
        <time>2026-07-08T12:59:59Z</time>
      </trkpt>
      <trkpt lat="47.17181" lon="6.05437">
        <ele>464.4</ele>
        <time>2026-07-08T13:00:00Z</time>
      </trkpt>
      <trkpt lat="47.17177" lon="6.05439">
        <ele>464.4</ele>
        <time>2026-07-08T13:00:01Z</time>
      </trkpt>
      <trkpt lat="47.17172" lon="6.05441">
        <ele>464.4</ele>
        <time>2026-07-08T13:00:02Z</time>
      </trkpt>
      <trkpt lat="47.17168" lon="6.05443">
        <ele>464.6</ele>
        <time>2026-07-08T13:00:03Z</time>
      </trkpt>
      <trkpt lat="47.17164" lon="6.05444">
        <ele>464.8</ele>
        <time>2026-07-08T13:00:04Z</time>
      </trkpt>
      <trkpt lat="47.1716" lon="6.05445">
        <ele>464.8</ele>
        <time>2026-07-08T13:00:05Z</time>
      </trkpt>
      <trkpt lat="47.17155" lon="6.05447">
        <ele>465</ele>
        <time>2026-07-08T13:00:06Z</time>
      </trkpt>
      <trkpt lat="47.17151" lon="6.05448">
        <ele>465</ele>
        <time>2026-07-08T13:00:07Z</time>
      </trkpt>
      <trkpt lat="47.17147" lon="6.05449">
        <ele>465</ele>
        <time>2026-07-08T13:00:08Z</time>
      </trkpt>
      <trkpt lat="47.17144" lon="6.0545">
        <ele>465</ele>
        <time>2026-07-08T13:00:09Z</time>
      </trkpt>
      <trkpt lat="47.1714" lon="6.0545">
        <ele>465.2</ele>
        <time>2026-07-08T13:00:10Z</time>
      </trkpt>
      <trkpt lat="47.17136" lon="6.05451">
        <ele>465.2</ele>
        <time>2026-07-08T13:00:11Z</time>
      </trkpt>
      <trkpt lat="47.17131" lon="6.05453">
        <ele>465.4</ele>
        <time>2026-07-08T13:00:12Z</time>
      </trkpt>
      <trkpt lat="47.17127" lon="6.05455">
        <ele>465.6</ele>
        <time>2026-07-08T13:00:13Z</time>
      </trkpt>
      <trkpt lat="47.17123" lon="6.05457">
        <ele>465.8</ele>
        <time>2026-07-08T13:00:14Z</time>
      </trkpt>
      <trkpt lat="47.17119" lon="6.05457">
        <ele>465.8</ele>
        <time>2026-07-08T13:00:15Z</time>
      </trkpt>
      <trkpt lat="47.17114" lon="6.05459">
        <ele>465.8</ele>
        <time>2026-07-08T13:00:16Z</time>
      </trkpt>
      <trkpt lat="47.1711" lon="6.05461">
        <ele>466</ele>
        <time>2026-07-08T13:00:17Z</time>
      </trkpt>
      <trkpt lat="47.17107" lon="6.05461">
        <ele>466.2</ele>
        <time>2026-07-08T13:00:18Z</time>
      </trkpt>
      <trkpt lat="47.17104" lon="6.05462">
        <ele>466.4</ele>
        <time>2026-07-08T13:00:19Z</time>
      </trkpt>
      <trkpt lat="47.171" lon="6.05463">
        <ele>466.8</ele>
        <time>2026-07-08T13:00:20Z</time>
      </trkpt>
      <trkpt lat="47.17096" lon="6.05463">
        <ele>466.8</ele>
        <time>2026-07-08T13:00:21Z</time>
      </trkpt>
      <trkpt lat="47.17093" lon="6.05463">
        <ele>467</ele>
        <time>2026-07-08T13:00:22Z</time>
      </trkpt>
      <trkpt lat="47.17089" lon="6.05465">
        <ele>467.4</ele>
        <time>2026-07-08T13:00:23Z</time>
      </trkpt>
      <trkpt lat="47.17086" lon="6.05466">
        <ele>467.4</ele>
        <time>2026-07-08T13:00:24Z</time>
      </trkpt>
      <trkpt lat="47.17082" lon="6.05467">
        <ele>467.4</ele>
        <time>2026-07-08T13:00:25Z</time>
      </trkpt>
      <trkpt lat="47.1708" lon="6.05468">
        <ele>467.6</ele>
        <time>2026-07-08T13:00:26Z</time>
      </trkpt>
      <trkpt lat="47.17078" lon="6.05469">
        <ele>468</ele>
        <time>2026-07-08T13:00:27Z</time>
      </trkpt>
      <trkpt lat="47.17076" lon="6.05469">
        <ele>468.2</ele>
        <time>2026-07-08T13:00:28Z</time>
      </trkpt>
      <trkpt lat="47.17073" lon="6.0547">
        <ele>468.2</ele>
        <time>2026-07-08T13:00:29Z</time>
      </trkpt>
      <trkpt lat="47.17071" lon="6.0547">
        <ele>468.6</ele>
        <time>2026-07-08T13:00:30Z</time>
      </trkpt>
      <trkpt lat="47.17068" lon="6.05471">
        <ele>468.6</ele>
        <time>2026-07-08T13:00:31Z</time>
      </trkpt>
      <trkpt lat="47.17065" lon="6.05471">
        <ele>468.8</ele>
        <time>2026-07-08T13:00:32Z</time>
      </trkpt>
      <trkpt lat="47.17062" lon="6.05472">
        <ele>468.8</ele>
        <time>2026-07-08T13:00:33Z</time>
      </trkpt>
      <trkpt lat="47.17059" lon="6.05472">
        <ele>469</ele>
        <time>2026-07-08T13:00:34Z</time>
      </trkpt>
      <trkpt lat="47.17055" lon="6.05473">
        <ele>469.2</ele>
        <time>2026-07-08T13:00:35Z</time>
      </trkpt>
      <trkpt lat="47.17052" lon="6.05473">
        <ele>469.4</ele>
        <time>2026-07-08T13:00:36Z</time>
      </trkpt>
      <trkpt lat="47.17049" lon="6.05474">
        <ele>469.6</ele>
        <time>2026-07-08T13:00:37Z</time>
      </trkpt>
      <trkpt lat="47.17046" lon="6.05475">
        <ele>469.6</ele>
        <time>2026-07-08T13:00:38Z</time>
      </trkpt>
      <trkpt lat="47.17043" lon="6.05476">
        <ele>469.6</ele>
        <time>2026-07-08T13:00:39Z</time>
      </trkpt>
      <trkpt lat="47.17039" lon="6.05477">
        <ele>469.6</ele>
        <time>2026-07-08T13:00:40Z</time>
      </trkpt>
      <trkpt lat="47.17036" lon="6.05478">
        <ele>469.8</ele>
        <time>2026-07-08T13:00:41Z</time>
      </trkpt>
      <trkpt lat="47.17033" lon="6.05479">
        <ele>469.8</ele>
        <time>2026-07-08T13:00:42Z</time>
      </trkpt>
      <trkpt lat="47.17029" lon="6.0548">
        <ele>470</ele>
        <time>2026-07-08T13:00:43Z</time>
      </trkpt>
      <trkpt lat="47.17026" lon="6.0548">
        <ele>470</ele>
        <time>2026-07-08T13:00:44Z</time>
      </trkpt>
      <trkpt lat="47.17023" lon="6.05481">
        <ele>470.2</ele>
        <time>2026-07-08T13:00:45Z</time>
      </trkpt>
      <trkpt lat="47.17019" lon="6.05482">
        <ele>470.2</ele>
        <time>2026-07-08T13:00:46Z</time>
      </trkpt>
      <trkpt lat="47.17016" lon="6.05482">
        <ele>470.4</ele>
        <time>2026-07-08T13:00:47Z</time>
      </trkpt>
      <trkpt lat="47.17012" lon="6.05483">
        <ele>470.4</ele>
        <time>2026-07-08T13:00:48Z</time>
      </trkpt>
      <trkpt lat="47.17008" lon="6.05484">
        <ele>470.6</ele>
        <time>2026-07-08T13:00:49Z</time>
      </trkpt>
      <trkpt lat="47.17004" lon="6.05485">
        <ele>470.6</ele>
        <time>2026-07-08T13:00:50Z</time>
      </trkpt>
      <trkpt lat="47.17" lon="6.05487">
        <ele>470.6</ele>
        <time>2026-07-08T13:00:51Z</time>
      </trkpt>
      <trkpt lat="47.16996" lon="6.05488">
        <ele>471</ele>
        <time>2026-07-08T13:00:52Z</time>
      </trkpt>
      <trkpt lat="47.16992" lon="6.0549">
        <ele>471</ele>
        <time>2026-07-08T13:00:53Z</time>
      </trkpt>
      <trkpt lat="47.16988" lon="6.05491">
        <ele>471.2</ele>
        <time>2026-07-08T13:00:54Z</time>
      </trkpt>
      <trkpt lat="47.16984" lon="6.05493">
        <ele>471.2</ele>
        <time>2026-07-08T13:00:55Z</time>
      </trkpt>
      <trkpt lat="47.16981" lon="6.05495">
        <ele>471.4</ele>
        <time>2026-07-08T13:00:56Z</time>
      </trkpt>
      <trkpt lat="47.16977" lon="6.05496">
        <ele>471.4</ele>
        <time>2026-07-08T13:00:57Z</time>
      </trkpt>
      <trkpt lat="47.16973" lon="6.05498">
        <ele>471.6</ele>
        <time>2026-07-08T13:00:58Z</time>
      </trkpt>
      <trkpt lat="47.16969" lon="6.05499">
        <ele>471.6</ele>
        <time>2026-07-08T13:00:59Z</time>
      </trkpt>
      <trkpt lat="47.16964" lon="6.05501">
        <ele>471.6</ele>
        <time>2026-07-08T13:01:00Z</time>
      </trkpt>
      <trkpt lat="47.1696" lon="6.05502">
        <ele>471.6</ele>
        <time>2026-07-08T13:01:01Z</time>
      </trkpt>
      <trkpt lat="47.16956" lon="6.05503">
        <ele>471.6</ele>
        <time>2026-07-08T13:01:02Z</time>
      </trkpt>
      <trkpt lat="47.16952" lon="6.05505">
        <ele>471.6</ele>
        <time>2026-07-08T13:01:03Z</time>
      </trkpt>
      <trkpt lat="47.16948" lon="6.05505">
        <ele>471.6</ele>
        <time>2026-07-08T13:01:04Z</time>
      </trkpt>
      <trkpt lat="47.16944" lon="6.05507">
        <ele>471.8</ele>
        <time>2026-07-08T13:01:05Z</time>
      </trkpt>
      <trkpt lat="47.1694" lon="6.05508">
        <ele>471.8</ele>
        <time>2026-07-08T13:01:06Z</time>
      </trkpt>
      <trkpt lat="47.16937" lon="6.05509">
        <ele>472</ele>
        <time>2026-07-08T13:01:07Z</time>
      </trkpt>
      <trkpt lat="47.16933" lon="6.0551">
        <ele>471.8</ele>
        <time>2026-07-08T13:01:08Z</time>
      </trkpt>
      <trkpt lat="47.1693" lon="6.05509">
        <ele>471.8</ele>
        <time>2026-07-08T13:01:09Z</time>
      </trkpt>
      <trkpt lat="47.16927" lon="6.05507">
        <ele>472</ele>
        <time>2026-07-08T13:01:10Z</time>
      </trkpt>
      <trkpt lat="47.16924" lon="6.05504">
        <ele>472</ele>
        <time>2026-07-08T13:01:11Z</time>
      </trkpt>
      <trkpt lat="47.16921" lon="6.055">
        <ele>472.2</ele>
        <time>2026-07-08T13:01:12Z</time>
      </trkpt>
      <trkpt lat="47.16919" lon="6.05495">
        <ele>472.2</ele>
        <time>2026-07-08T13:01:13Z</time>
      </trkpt>
      <trkpt lat="47.16917" lon="6.05489">
        <ele>472.4</ele>
        <time>2026-07-08T13:01:14Z</time>
      </trkpt>
      <trkpt lat="47.16915" lon="6.05483">
        <ele>472.4</ele>
        <time>2026-07-08T13:01:15Z</time>
      </trkpt>
      <trkpt lat="47.16913" lon="6.05476">
        <ele>472.8</ele>
        <time>2026-07-08T13:01:16Z</time>
      </trkpt>
      <trkpt lat="47.16912" lon="6.0547">
        <ele>472.8</ele>
        <time>2026-07-08T13:01:17Z</time>
      </trkpt>
      <trkpt lat="47.1691" lon="6.05463">
        <ele>473</ele>
        <time>2026-07-08T13:01:18Z</time>
      </trkpt>
      <trkpt lat="47.16908" lon="6.05456">
        <ele>473</ele>
        <time>2026-07-08T13:01:19Z</time>
      </trkpt>
      <trkpt lat="47.16907" lon="6.05449">
        <ele>473.2</ele>
        <time>2026-07-08T13:01:20Z</time>
      </trkpt>
      <trkpt lat="47.16906" lon="6.05443">
        <ele>473.2</ele>
        <time>2026-07-08T13:01:21Z</time>
      </trkpt>
      <trkpt lat="47.16904" lon="6.05436">
        <ele>473.2</ele>
        <time>2026-07-08T13:01:22Z</time>
      </trkpt>
      <trkpt lat="47.16903" lon="6.05429">
        <ele>473.2</ele>
        <time>2026-07-08T13:01:23Z</time>
      </trkpt>
      <trkpt lat="47.16901" lon="6.05423">
        <ele>473.2</ele>
        <time>2026-07-08T13:01:24Z</time>
      </trkpt>
      <trkpt lat="47.169" lon="6.05416">
        <ele>473.2</ele>
        <time>2026-07-08T13:01:25Z</time>
      </trkpt>
      <trkpt lat="47.16898" lon="6.0541">
        <ele>473.4</ele>
        <time>2026-07-08T13:01:26Z</time>
      </trkpt>
      <trkpt lat="47.16897" lon="6.05403">
        <ele>473.2</ele>
        <time>2026-07-08T13:01:27Z</time>
      </trkpt>
      <trkpt lat="47.16896" lon="6.05398">
        <ele>473.4</ele>
        <time>2026-07-08T13:01:28Z</time>
      </trkpt>
      <trkpt lat="47.16894" lon="6.05392">
        <ele>473.4</ele>
        <time>2026-07-08T13:01:29Z</time>
      </trkpt>
      <trkpt lat="47.16893" lon="6.05386">
        <ele>473.2</ele>
        <time>2026-07-08T13:01:30Z</time>
      </trkpt>
      <trkpt lat="47.16892" lon="6.05381">
        <ele>473.2</ele>
        <time>2026-07-08T13:01:31Z</time>
      </trkpt>
      <trkpt lat="47.1689" lon="6.05376">
        <ele>473.4</ele>
        <time>2026-07-08T13:01:32Z</time>
      </trkpt>
      <trkpt lat="47.16888" lon="6.05371">
        <ele>473.4</ele>
        <time>2026-07-08T13:01:33Z</time>
      </trkpt>
      <trkpt lat="47.16886" lon="6.05367">
        <ele>473.4</ele>
        <time>2026-07-08T13:01:34Z</time>
      </trkpt>
      <trkpt lat="47.16884" lon="6.05363">
        <ele>473.4</ele>
        <time>2026-07-08T13:01:35Z</time>
      </trkpt>
      <trkpt lat="47.16882" lon="6.0536">
        <ele>473.6</ele>
        <time>2026-07-08T13:01:36Z</time>
      </trkpt>
      <trkpt lat="47.1688" lon="6.05357">
        <ele>473.6</ele>
        <time>2026-07-08T13:01:37Z</time>
      </trkpt>
      <trkpt lat="47.16878" lon="6.05354">
        <ele>473.8</ele>
        <time>2026-07-08T13:01:38Z</time>
      </trkpt>
      <trkpt lat="47.16875" lon="6.05351">
        <ele>474.2</ele>
        <time>2026-07-08T13:01:39Z</time>
      </trkpt>
      <trkpt lat="47.16872" lon="6.05348">
        <ele>474.4</ele>
        <time>2026-07-08T13:01:40Z</time>
      </trkpt>
      <trkpt lat="47.16869" lon="6.05346">
        <ele>474.4</ele>
        <time>2026-07-08T13:01:41Z</time>
      </trkpt>
      <trkpt lat="47.16865" lon="6.05344">
        <ele>475</ele>
        <time>2026-07-08T13:01:42Z</time>
      </trkpt>
      <trkpt lat="47.16861" lon="6.05343">
        <ele>475.2</ele>
        <time>2026-07-08T13:01:43Z</time>
      </trkpt>
      <trkpt lat="47.16858" lon="6.0534">
        <ele>475.2</ele>
        <time>2026-07-08T13:01:44Z</time>
      </trkpt>
      <trkpt lat="47.16854" lon="6.05338">
        <ele>475.4</ele>
        <time>2026-07-08T13:01:45Z</time>
      </trkpt>
      <trkpt lat="47.16851" lon="6.05335">
        <ele>475.8</ele>
        <time>2026-07-08T13:01:46Z</time>
      </trkpt>
      <trkpt lat="47.16847" lon="6.05332">
        <ele>475.8</ele>
        <time>2026-07-08T13:01:47Z</time>
      </trkpt>
      <trkpt lat="47.16844" lon="6.0533">
        <ele>476</ele>
        <time>2026-07-08T13:01:48Z</time>
      </trkpt>
      <trkpt lat="47.1684" lon="6.05328">
        <ele>476.2</ele>
        <time>2026-07-08T13:01:49Z</time>
      </trkpt>
      <trkpt lat="47.16835" lon="6.05326">
        <ele>476.4</ele>
        <time>2026-07-08T13:01:50Z</time>
      </trkpt>
      <trkpt lat="47.16832" lon="6.05323">
        <ele>476.6</ele>
        <time>2026-07-08T13:01:51Z</time>
      </trkpt>
      <trkpt lat="47.16828" lon="6.05319">
        <ele>477</ele>
        <time>2026-07-08T13:01:52Z</time>
      </trkpt>
      <trkpt lat="47.16824" lon="6.05315">
        <ele>476.8</ele>
        <time>2026-07-08T13:01:53Z</time>
      </trkpt>
      <trkpt lat="47.1682" lon="6.05312">
        <ele>477</ele>
        <time>2026-07-08T13:01:54Z</time>
      </trkpt>
      <trkpt lat="47.16819" lon="6.05304">
        <ele>477</ele>
        <time>2026-07-08T13:01:55Z</time>
      </trkpt>
      <trkpt lat="47.16816" lon="6.05297">
        <ele>477.2</ele>
        <time>2026-07-08T13:01:56Z</time>
      </trkpt>
      <trkpt lat="47.16813" lon="6.0529">
        <ele>477.2</ele>
        <time>2026-07-08T13:01:57Z</time>
      </trkpt>
      <trkpt lat="47.1681" lon="6.05284">
        <ele>477.2</ele>
        <time>2026-07-08T13:01:58Z</time>
      </trkpt>
      <trkpt lat="47.16806" lon="6.05277">
        <ele>477.2</ele>
        <time>2026-07-08T13:01:59Z</time>
      </trkpt>
      <trkpt lat="47.16803" lon="6.05271">
        <ele>477.2</ele>
        <time>2026-07-08T13:02:00Z</time>
      </trkpt>
      <trkpt lat="47.16801" lon="6.05265">
        <ele>477.4</ele>
        <time>2026-07-08T13:02:01Z</time>
      </trkpt>
      <trkpt lat="47.16798" lon="6.05259">
        <ele>477.2</ele>
        <time>2026-07-08T13:02:02Z</time>
      </trkpt>
      <trkpt lat="47.16795" lon="6.05253">
        <ele>477.2</ele>
        <time>2026-07-08T13:02:03Z</time>
      </trkpt>
      <trkpt lat="47.16792" lon="6.05247">
        <ele>477.2</ele>
        <time>2026-07-08T13:02:04Z</time>
      </trkpt>
      <trkpt lat="47.16789" lon="6.05242">
        <ele>477.2</ele>
        <time>2026-07-08T13:02:05Z</time>
      </trkpt>
      <trkpt lat="47.16787" lon="6.05236">
        <ele>477.2</ele>
        <time>2026-07-08T13:02:06Z</time>
      </trkpt>
      <trkpt lat="47.16784" lon="6.0523">
        <ele>477.2</ele>
        <time>2026-07-08T13:02:07Z</time>
      </trkpt>
      <trkpt lat="47.16781" lon="6.05223">
        <ele>477.2</ele>
        <time>2026-07-08T13:02:08Z</time>
      </trkpt>
      <trkpt lat="47.16778" lon="6.05217">
        <ele>477.4</ele>
        <time>2026-07-08T13:02:09Z</time>
      </trkpt>
      <trkpt lat="47.16775" lon="6.0521">
        <ele>477.4</ele>
        <time>2026-07-08T13:02:10Z</time>
      </trkpt>
      <trkpt lat="47.16772" lon="6.05204">
        <ele>477.2</ele>
        <time>2026-07-08T13:02:11Z</time>
      </trkpt>
      <trkpt lat="47.16769" lon="6.05197">
        <ele>477.2</ele>
        <time>2026-07-08T13:02:12Z</time>
      </trkpt>
      <trkpt lat="47.16767" lon="6.0519">
        <ele>477.2</ele>
        <time>2026-07-08T13:02:13Z</time>
      </trkpt>
      <trkpt lat="47.16764" lon="6.05183">
        <ele>477</ele>
        <time>2026-07-08T13:02:14Z</time>
      </trkpt>
      <trkpt lat="47.1676" lon="6.05177">
        <ele>477</ele>
        <time>2026-07-08T13:02:15Z</time>
      </trkpt>
      <trkpt lat="47.16756" lon="6.05173">
        <ele>477</ele>
        <time>2026-07-08T13:02:16Z</time>
      </trkpt>
      <trkpt lat="47.1675" lon="6.05172">
        <ele>477</ele>
        <time>2026-07-08T13:02:17Z</time>
      </trkpt>
      <trkpt lat="47.16745" lon="6.05173">
        <ele>477</ele>
        <time>2026-07-08T13:02:18Z</time>
      </trkpt>
      <trkpt lat="47.16739" lon="6.05178">
        <ele>477</ele>
        <time>2026-07-08T13:02:19Z</time>
      </trkpt>
      <trkpt lat="47.16734" lon="6.05184">
        <ele>476.8</ele>
        <time>2026-07-08T13:02:20Z</time>
      </trkpt>
      <trkpt lat="47.16729" lon="6.05191">
        <ele>476.8</ele>
        <time>2026-07-08T13:02:21Z</time>
      </trkpt>
      <trkpt lat="47.16724" lon="6.05198">
        <ele>476.6</ele>
        <time>2026-07-08T13:02:22Z</time>
      </trkpt>
      <trkpt lat="47.16718" lon="6.05205">
        <ele>476.4</ele>
        <time>2026-07-08T13:02:23Z</time>
      </trkpt>
      <trkpt lat="47.16711" lon="6.05212">
        <ele>476.4</ele>
        <time>2026-07-08T13:02:24Z</time>
      </trkpt>
      <trkpt lat="47.16704" lon="6.05216">
        <ele>476</ele>
        <time>2026-07-08T13:02:25Z</time>
      </trkpt>
      <trkpt lat="47.16696" lon="6.05219">
        <ele>475.6</ele>
        <time>2026-07-08T13:02:26Z</time>
      </trkpt>
      <trkpt lat="47.16688" lon="6.05221">
        <ele>475.2</ele>
        <time>2026-07-08T13:02:27Z</time>
      </trkpt>
      <trkpt lat="47.16681" lon="6.05222">
        <ele>475</ele>
        <time>2026-07-08T13:02:28Z</time>
      </trkpt>
      <trkpt lat="47.16673" lon="6.05223">
        <ele>475</ele>
        <time>2026-07-08T13:02:29Z</time>
      </trkpt>
      <trkpt lat="47.16666" lon="6.05225">
        <ele>475</ele>
        <time>2026-07-08T13:02:30Z</time>
      </trkpt>
      <trkpt lat="47.1666" lon="6.05226">
        <ele>475</ele>
        <time>2026-07-08T13:02:31Z</time>
      </trkpt>
      <trkpt lat="47.16653" lon="6.05227">
        <ele>474.2</ele>
        <time>2026-07-08T13:02:32Z</time>
      </trkpt>
      <trkpt lat="47.16647" lon="6.05228">
        <ele>473.6</ele>
        <time>2026-07-08T13:02:33Z</time>
      </trkpt>
      <trkpt lat="47.16641" lon="6.05229">
        <ele>473.2</ele>
        <time>2026-07-08T13:02:34Z</time>
      </trkpt>
      <trkpt lat="47.16635" lon="6.0523">
        <ele>472.8</ele>
        <time>2026-07-08T13:02:35Z</time>
      </trkpt>
      <trkpt lat="47.16629" lon="6.0523">
        <ele>472.6</ele>
        <time>2026-07-08T13:02:36Z</time>
      </trkpt>
      <trkpt lat="47.16623" lon="6.0523">
        <ele>472.4</ele>
        <time>2026-07-08T13:02:37Z</time>
      </trkpt>
      <trkpt lat="47.16618" lon="6.0523">
        <ele>472.4</ele>
        <time>2026-07-08T13:02:38Z</time>
      </trkpt>
      <trkpt lat="47.16613" lon="6.0523">
        <ele>472.4</ele>
        <time>2026-07-08T13:02:39Z</time>
      </trkpt>
      <trkpt lat="47.16608" lon="6.05229">
        <ele>472.2</ele>
        <time>2026-07-08T13:02:40Z</time>
      </trkpt>
      <trkpt lat="47.16603" lon="6.05228">
        <ele>472.4</ele>
        <time>2026-07-08T13:02:41Z</time>
      </trkpt>
      <trkpt lat="47.16599" lon="6.05227">
        <ele>472.4</ele>
        <time>2026-07-08T13:02:42Z</time>
      </trkpt>
      <trkpt lat="47.16595" lon="6.05226">
        <ele>472.2</ele>
        <time>2026-07-08T13:02:43Z</time>
      </trkpt>
      <trkpt lat="47.16592" lon="6.05224">
        <ele>472.2</ele>
        <time>2026-07-08T13:02:44Z</time>
      </trkpt>
      <trkpt lat="47.16588" lon="6.05224">
        <ele>472.2</ele>
        <time>2026-07-08T13:02:45Z</time>
      </trkpt>
      <trkpt lat="47.16585" lon="6.05223">
        <ele>472.2</ele>
        <time>2026-07-08T13:02:46Z</time>
      </trkpt>
      <trkpt lat="47.16582" lon="6.05223">
        <ele>472.2</ele>
        <time>2026-07-08T13:02:47Z</time>
      </trkpt>
      <trkpt lat="47.1658" lon="6.05223">
        <ele>472.4</ele>
        <time>2026-07-08T13:02:48Z</time>
      </trkpt>
      <trkpt lat="47.16576" lon="6.05223">
        <ele>472.6</ele>
        <time>2026-07-08T13:02:49Z</time>
      </trkpt>
      <trkpt lat="47.16573" lon="6.05224">
        <ele>472.6</ele>
        <time>2026-07-08T13:02:50Z</time>
      </trkpt>
      <trkpt lat="47.1657" lon="6.05225">
        <ele>472.6</ele>
        <time>2026-07-08T13:02:51Z</time>
      </trkpt>
      <trkpt lat="47.16567" lon="6.05227">
        <ele>473</ele>
        <time>2026-07-08T13:02:52Z</time>
      </trkpt>
      <trkpt lat="47.16564" lon="6.05228">
        <ele>473.6</ele>
        <time>2026-07-08T13:02:53Z</time>
      </trkpt>
      <trkpt lat="47.16561" lon="6.0523">
        <ele>474</ele>
        <time>2026-07-08T13:02:54Z</time>
      </trkpt>
      <trkpt lat="47.16557" lon="6.05232">
        <ele>474</ele>
        <time>2026-07-08T13:02:55Z</time>
      </trkpt>
      <trkpt lat="47.16553" lon="6.05233">
        <ele>474.2</ele>
        <time>2026-07-08T13:02:56Z</time>
      </trkpt>
      <trkpt lat="47.16549" lon="6.05234">
        <ele>474.4</ele>
        <time>2026-07-08T13:02:57Z</time>
      </trkpt>
      <trkpt lat="47.16546" lon="6.05235">
        <ele>474.8</ele>
        <time>2026-07-08T13:02:58Z</time>
      </trkpt>
      <trkpt lat="47.16543" lon="6.05234">
        <ele>475</ele>
        <time>2026-07-08T13:02:59Z</time>
      </trkpt>
      <trkpt lat="47.1654" lon="6.05234">
        <ele>475.4</ele>
        <time>2026-07-08T13:03:00Z</time>
      </trkpt>
      <trkpt lat="47.16537" lon="6.05233">
        <ele>475.8</ele>
        <time>2026-07-08T13:03:01Z</time>
      </trkpt>
      <trkpt lat="47.16534" lon="6.05231">
        <ele>475.8</ele>
        <time>2026-07-08T13:03:02Z</time>
      </trkpt>
      <trkpt lat="47.16531" lon="6.05229">
        <ele>476.2</ele>
        <time>2026-07-08T13:03:03Z</time>
      </trkpt>
      <trkpt lat="47.16527" lon="6.05227">
        <ele>476.4</ele>
        <time>2026-07-08T13:03:04Z</time>
      </trkpt>
      <trkpt lat="47.16523" lon="6.05225">
        <ele>476.6</ele>
        <time>2026-07-08T13:03:05Z</time>
      </trkpt>
      <trkpt lat="47.16518" lon="6.05223">
        <ele>476.6</ele>
        <time>2026-07-08T13:03:06Z</time>
      </trkpt>
      <trkpt lat="47.16515" lon="6.05222">
        <ele>476.8</ele>
        <time>2026-07-08T13:03:07Z</time>
      </trkpt>
      <trkpt lat="47.16512" lon="6.05221">
        <ele>476.8</ele>
        <time>2026-07-08T13:03:08Z</time>
      </trkpt>
      <trkpt lat="47.16508" lon="6.0522">
        <ele>477</ele>
        <time>2026-07-08T13:03:09Z</time>
      </trkpt>
      <trkpt lat="47.16504" lon="6.05218">
        <ele>477</ele>
        <time>2026-07-08T13:03:10Z</time>
      </trkpt>
      <trkpt lat="47.165" lon="6.05215">
        <ele>477</ele>
        <time>2026-07-08T13:03:11Z</time>
      </trkpt>
      <trkpt lat="47.16497" lon="6.05211">
        <ele>477.2</ele>
        <time>2026-07-08T13:03:12Z</time>
      </trkpt>
      <trkpt lat="47.16494" lon="6.05207">
        <ele>477.2</ele>
        <time>2026-07-08T13:03:13Z</time>
      </trkpt>
      <trkpt lat="47.16492" lon="6.05203">
        <ele>477.2</ele>
        <time>2026-07-08T13:03:14Z</time>
      </trkpt>
      <trkpt lat="47.16489" lon="6.052">
        <ele>477</ele>
        <time>2026-07-08T13:03:15Z</time>
      </trkpt>
      <trkpt lat="47.16485" lon="6.05199">
        <ele>477.2</ele>
        <time>2026-07-08T13:03:16Z</time>
      </trkpt>
      <trkpt lat="47.16483" lon="6.05199">
        <ele>477.2</ele>
        <time>2026-07-08T13:03:17Z</time>
      </trkpt>
      <trkpt lat="47.16482" lon="6.05199">
        <ele>477</ele>
        <time>2026-07-08T13:03:18Z</time>
      </trkpt>
      <trkpt lat="47.16482" lon="6.05199">
        <ele>477.2</ele>
        <time>2026-07-08T13:03:19Z</time>
      </trkpt>
      <trkpt lat="47.16483" lon="6.05199">
        <ele>477.2</ele>
        <time>2026-07-08T13:03:20Z</time>
      </trkpt>
      <trkpt lat="47.16483" lon="6.05199">
        <ele>477</ele>
        <time>2026-07-08T13:03:21Z</time>
      </trkpt>
      <trkpt lat="47.16484" lon="6.05199">
        <ele>477.2</ele>
        <time>2026-07-08T13:03:22Z</time>
      </trkpt>
      <trkpt lat="47.16484" lon="6.052">
        <ele>477</ele>
        <time>2026-07-08T13:03:23Z</time>
      </trkpt>
      <trkpt lat="47.16483" lon="6.052">
        <ele>476.8</ele>
        <time>2026-07-08T13:03:24Z</time>
      </trkpt>
      <trkpt lat="47.16482" lon="6.05201">
        <ele>476.6</ele>
        <time>2026-07-08T13:03:25Z</time>
      </trkpt>
      <trkpt lat="47.16481" lon="6.05201">
        <ele>476.6</ele>
        <time>2026-07-08T13:03:26Z</time>
      </trkpt>
      <trkpt lat="47.1648" lon="6.05201">
        <ele>476.6</ele>
        <time>2026-07-08T13:03:27Z</time>
      </trkpt>
      <trkpt lat="47.16479" lon="6.052">
        <ele>476.6</ele>
        <time>2026-07-08T13:03:28Z</time>
      </trkpt>
      <trkpt lat="47.16478" lon="6.05199">
        <ele>476.6</ele>
        <time>2026-07-08T13:03:29Z</time>
      </trkpt>
      <trkpt lat="47.16477" lon="6.05196">
        <ele>476.4</ele>
        <time>2026-07-08T13:03:30Z</time>
      </trkpt>
      <trkpt lat="47.16477" lon="6.05192">
        <ele>476.4</ele>
        <time>2026-07-08T13:03:31Z</time>
      </trkpt>
      <trkpt lat="47.16477" lon="6.05187">
        <ele>476.4</ele>
        <time>2026-07-08T13:03:32Z</time>
      </trkpt>
      <trkpt lat="47.16478" lon="6.0518">
        <ele>476.6</ele>
        <time>2026-07-08T13:03:33Z</time>
      </trkpt>
      <trkpt lat="47.16477" lon="6.05174">
        <ele>476.4</ele>
        <time>2026-07-08T13:03:34Z</time>
      </trkpt>
      <trkpt lat="47.16476" lon="6.05168">
        <ele>476.4</ele>
        <time>2026-07-08T13:03:35Z</time>
      </trkpt>
      <trkpt lat="47.16474" lon="6.05162">
        <ele>476.4</ele>
        <time>2026-07-08T13:03:36Z</time>
      </trkpt>
      <trkpt lat="47.16473" lon="6.05156">
        <ele>476.4</ele>
        <time>2026-07-08T13:03:37Z</time>
      </trkpt>
      <trkpt lat="47.16471" lon="6.0515">
        <ele>476.4</ele>
        <time>2026-07-08T13:03:38Z</time>
      </trkpt>
      <trkpt lat="47.1647" lon="6.05143">
        <ele>476.2</ele>
        <time>2026-07-08T13:03:39Z</time>
      </trkpt>
      <trkpt lat="47.16468" lon="6.05137">
        <ele>476.4</ele>
        <time>2026-07-08T13:03:40Z</time>
      </trkpt>
      <trkpt lat="47.16467" lon="6.05128">
        <ele>476.2</ele>
        <time>2026-07-08T13:03:41Z</time>
      </trkpt>
      <trkpt lat="47.16464" lon="6.05121">
        <ele>476.2</ele>
        <time>2026-07-08T13:03:42Z</time>
      </trkpt>
      <trkpt lat="47.16462" lon="6.05113">
        <ele>476</ele>
        <time>2026-07-08T13:03:43Z</time>
      </trkpt>
      <trkpt lat="47.1646" lon="6.05105">
        <ele>476.2</ele>
        <time>2026-07-08T13:03:44Z</time>
      </trkpt>
      <trkpt lat="47.16457" lon="6.05097">
        <ele>476</ele>
        <time>2026-07-08T13:03:45Z</time>
      </trkpt>
      <trkpt lat="47.16453" lon="6.0509">
        <ele>476</ele>
        <time>2026-07-08T13:03:46Z</time>
      </trkpt>
      <trkpt lat="47.16449" lon="6.05083">
        <ele>475.8</ele>
        <time>2026-07-08T13:03:47Z</time>
      </trkpt>
      <trkpt lat="47.16446" lon="6.05075">
        <ele>475.6</ele>
        <time>2026-07-08T13:03:48Z</time>
      </trkpt>
      <trkpt lat="47.16442" lon="6.05068">
        <ele>475.6</ele>
        <time>2026-07-08T13:03:49Z</time>
      </trkpt>
      <trkpt lat="47.16437" lon="6.0506">
        <ele>475.4</ele>
        <time>2026-07-08T13:03:50Z</time>
      </trkpt>
      <trkpt lat="47.16433" lon="6.05053">
        <ele>475.4</ele>
        <time>2026-07-08T13:03:51Z</time>
      </trkpt>
      <trkpt lat="47.16428" lon="6.05045">
        <ele>475</ele>
        <time>2026-07-08T13:03:52Z</time>
      </trkpt>
      <trkpt lat="47.16423" lon="6.05037">
        <ele>474.6</ele>
        <time>2026-07-08T13:03:53Z</time>
      </trkpt>
      <trkpt lat="47.16419" lon="6.05029">
        <ele>474.4</ele>
        <time>2026-07-08T13:03:54Z</time>
      </trkpt>
      <trkpt lat="47.16413" lon="6.0502">
        <ele>474.2</ele>
        <time>2026-07-08T13:03:55Z</time>
      </trkpt>
      <trkpt lat="47.16408" lon="6.05012">
        <ele>474.2</ele>
        <time>2026-07-08T13:03:56Z</time>
      </trkpt>
      <trkpt lat="47.16402" lon="6.05004">
        <ele>474</ele>
        <time>2026-07-08T13:03:57Z</time>
      </trkpt>
      <trkpt lat="47.16396" lon="6.04995">
        <ele>474</ele>
        <time>2026-07-08T13:03:58Z</time>
      </trkpt>
      <trkpt lat="47.1639" lon="6.04987">
        <ele>473.8</ele>
        <time>2026-07-08T13:03:59Z</time>
      </trkpt>
      <trkpt lat="47.16383" lon="6.04978">
        <ele>473.4</ele>
        <time>2026-07-08T13:04:00Z</time>
      </trkpt>
      <trkpt lat="47.16377" lon="6.0497">
        <ele>473.2</ele>
        <time>2026-07-08T13:04:01Z</time>
      </trkpt>
      <trkpt lat="47.16369" lon="6.04962">
        <ele>473</ele>
        <time>2026-07-08T13:04:02Z</time>
      </trkpt>
      <trkpt lat="47.16361" lon="6.04955">
        <ele>472.2</ele>
        <time>2026-07-08T13:04:03Z</time>
      </trkpt>
      <trkpt lat="47.16353" lon="6.04948">
        <ele>471.8</ele>
        <time>2026-07-08T13:04:04Z</time>
      </trkpt>
      <trkpt lat="47.16345" lon="6.04942">
        <ele>471.4</ele>
        <time>2026-07-08T13:04:05Z</time>
      </trkpt>
      <trkpt lat="47.16338" lon="6.04936">
        <ele>471.2</ele>
        <time>2026-07-08T13:04:06Z</time>
      </trkpt>
      <trkpt lat="47.1633" lon="6.0493">
        <ele>470.8</ele>
        <time>2026-07-08T13:04:07Z</time>
      </trkpt>
      <trkpt lat="47.16321" lon="6.04924">
        <ele>470</ele>
        <time>2026-07-08T13:04:08Z</time>
      </trkpt>
      <trkpt lat="47.16313" lon="6.04921">
        <ele>468.6</ele>
        <time>2026-07-08T13:04:09Z</time>
      </trkpt>
      <trkpt lat="47.16304" lon="6.04919">
        <ele>468</ele>
        <time>2026-07-08T13:04:10Z</time>
      </trkpt>
      <trkpt lat="47.16296" lon="6.04918">
        <ele>467.4</ele>
        <time>2026-07-08T13:04:11Z</time>
      </trkpt>
      <trkpt lat="47.16289" lon="6.04918">
        <ele>466.8</ele>
        <time>2026-07-08T13:04:12Z</time>
      </trkpt>
      <trkpt lat="47.16281" lon="6.04919">
        <ele>466.4</ele>
        <time>2026-07-08T13:04:13Z</time>
      </trkpt>
      <trkpt lat="47.16274" lon="6.0492">
        <ele>465.4</ele>
        <time>2026-07-08T13:04:14Z</time>
      </trkpt>
      <trkpt lat="47.16267" lon="6.04921">
        <ele>465</ele>
        <time>2026-07-08T13:04:15Z</time>
      </trkpt>
      <trkpt lat="47.1626" lon="6.04921">
        <ele>464.4</ele>
        <time>2026-07-08T13:04:16Z</time>
      </trkpt>
      <trkpt lat="47.16254" lon="6.0492">
        <ele>464.4</ele>
        <time>2026-07-08T13:04:17Z</time>
      </trkpt>
      <trkpt lat="47.16248" lon="6.04919">
        <ele>464.2</ele>
        <time>2026-07-08T13:04:18Z</time>
      </trkpt>
      <trkpt lat="47.16242" lon="6.04918">
        <ele>464.2</ele>
        <time>2026-07-08T13:04:19Z</time>
      </trkpt>
      <trkpt lat="47.16236" lon="6.04917">
        <ele>464.2</ele>
        <time>2026-07-08T13:04:20Z</time>
      </trkpt>
      <trkpt lat="47.16231" lon="6.04915">
        <ele>464.2</ele>
        <time>2026-07-08T13:04:21Z</time>
      </trkpt>
      <trkpt lat="47.16225" lon="6.04913">
        <ele>464.2</ele>
        <time>2026-07-08T13:04:22Z</time>
      </trkpt>
      <trkpt lat="47.16219" lon="6.04912">
        <ele>464.2</ele>
        <time>2026-07-08T13:04:23Z</time>
      </trkpt>
      <trkpt lat="47.16213" lon="6.0491">
        <ele>464.2</ele>
        <time>2026-07-08T13:04:24Z</time>
      </trkpt>
      <trkpt lat="47.16207" lon="6.04908">
        <ele>464.2</ele>
        <time>2026-07-08T13:04:25Z</time>
      </trkpt>
      <trkpt lat="47.16202" lon="6.04906">
        <ele>464</ele>
        <time>2026-07-08T13:04:26Z</time>
      </trkpt>
      <trkpt lat="47.16196" lon="6.04904">
        <ele>464.4</ele>
        <time>2026-07-08T13:04:27Z</time>
      </trkpt>
      <trkpt lat="47.16191" lon="6.04902">
        <ele>464.2</ele>
        <time>2026-07-08T13:04:28Z</time>
      </trkpt>
      <trkpt lat="47.16185" lon="6.049">
        <ele>464.6</ele>
        <time>2026-07-08T13:04:29Z</time>
      </trkpt>
      <trkpt lat="47.1618" lon="6.04898">
        <ele>464.8</ele>
        <time>2026-07-08T13:04:30Z</time>
      </trkpt>
      <trkpt lat="47.16175" lon="6.04897">
        <ele>464.8</ele>
        <time>2026-07-08T13:04:31Z</time>
      </trkpt>
      <trkpt lat="47.1617" lon="6.04895">
        <ele>465</ele>
        <time>2026-07-08T13:04:32Z</time>
      </trkpt>
      <trkpt lat="47.16165" lon="6.04893">
        <ele>465.2</ele>
        <time>2026-07-08T13:04:33Z</time>
      </trkpt>
      <trkpt lat="47.1616" lon="6.04891">
        <ele>465.2</ele>
        <time>2026-07-08T13:04:34Z</time>
      </trkpt>
      <trkpt lat="47.16155" lon="6.0489">
        <ele>465.2</ele>
        <time>2026-07-08T13:04:35Z</time>
      </trkpt>
      <trkpt lat="47.16151" lon="6.04889">
        <ele>465.4</ele>
        <time>2026-07-08T13:04:36Z</time>
      </trkpt>
      <trkpt lat="47.16146" lon="6.04888">
        <ele>465.6</ele>
        <time>2026-07-08T13:04:37Z</time>
      </trkpt>
      <trkpt lat="47.16142" lon="6.04886">
        <ele>465.6</ele>
        <time>2026-07-08T13:04:38Z</time>
      </trkpt>
      <trkpt lat="47.16138" lon="6.04885">
        <ele>465.8</ele>
        <time>2026-07-08T13:04:39Z</time>
      </trkpt>
      <trkpt lat="47.16133" lon="6.04884">
        <ele>466</ele>
        <time>2026-07-08T13:04:40Z</time>
      </trkpt>
      <trkpt lat="47.16129" lon="6.04882">
        <ele>466.4</ele>
        <time>2026-07-08T13:04:41Z</time>
      </trkpt>
      <trkpt lat="47.16125" lon="6.04881">
        <ele>466.4</ele>
        <time>2026-07-08T13:04:42Z</time>
      </trkpt>
      <trkpt lat="47.16121" lon="6.0488">
        <ele>466.4</ele>
        <time>2026-07-08T13:04:43Z</time>
      </trkpt>
      <trkpt lat="47.16117" lon="6.04879">
        <ele>466.8</ele>
        <time>2026-07-08T13:04:44Z</time>
      </trkpt>
      <trkpt lat="47.16113" lon="6.04878">
        <ele>467</ele>
        <time>2026-07-08T13:04:45Z</time>
      </trkpt>
      <trkpt lat="47.16109" lon="6.04877">
        <ele>467.2</ele>
        <time>2026-07-08T13:04:46Z</time>
      </trkpt>
      <trkpt lat="47.16105" lon="6.04876">
        <ele>467.6</ele>
        <time>2026-07-08T13:04:47Z</time>
      </trkpt>
      <trkpt lat="47.16101" lon="6.04874">
        <ele>467.6</ele>
        <time>2026-07-08T13:04:48Z</time>
      </trkpt>
      <trkpt lat="47.16096" lon="6.04873">
        <ele>468.2</ele>
        <time>2026-07-08T13:04:49Z</time>
      </trkpt>
      <trkpt lat="47.16092" lon="6.04872">
        <ele>468.2</ele>
        <time>2026-07-08T13:04:50Z</time>
      </trkpt>
      <trkpt lat="47.16088" lon="6.04871">
        <ele>468.6</ele>
        <time>2026-07-08T13:04:51Z</time>
      </trkpt>
      <trkpt lat="47.16084" lon="6.04869">
        <ele>468.8</ele>
        <time>2026-07-08T13:04:52Z</time>
      </trkpt>
      <trkpt lat="47.16079" lon="6.04868">
        <ele>469.2</ele>
        <time>2026-07-08T13:04:53Z</time>
      </trkpt>
      <trkpt lat="47.16075" lon="6.04866">
        <ele>469.4</ele>
        <time>2026-07-08T13:04:54Z</time>
      </trkpt>
      <trkpt lat="47.16071" lon="6.04864">
        <ele>469.6</ele>
        <time>2026-07-08T13:04:55Z</time>
      </trkpt>
      <trkpt lat="47.16067" lon="6.04862">
        <ele>469.8</ele>
        <time>2026-07-08T13:04:56Z</time>
      </trkpt>
      <trkpt lat="47.16062" lon="6.04861">
        <ele>470</ele>
        <time>2026-07-08T13:04:57Z</time>
      </trkpt>
      <trkpt lat="47.16057" lon="6.04859">
        <ele>470</ele>
        <time>2026-07-08T13:04:58Z</time>
      </trkpt>
      <trkpt lat="47.16053" lon="6.04858">
        <ele>470.2</ele>
        <time>2026-07-08T13:04:59Z</time>
      </trkpt>
      <trkpt lat="47.16048" lon="6.04856">
        <ele>470.2</ele>
        <time>2026-07-08T13:05:00Z</time>
      </trkpt>
      <trkpt lat="47.16043" lon="6.04855">
        <ele>470.4</ele>
        <time>2026-07-08T13:05:01Z</time>
      </trkpt>
      <trkpt lat="47.16038" lon="6.04854">
        <ele>470.6</ele>
        <time>2026-07-08T13:05:02Z</time>
      </trkpt>
      <trkpt lat="47.16033" lon="6.04853">
        <ele>470.8</ele>
        <time>2026-07-08T13:05:03Z</time>
      </trkpt>
      <trkpt lat="47.16029" lon="6.04852">
        <ele>470.8</ele>
        <time>2026-07-08T13:05:04Z</time>
      </trkpt>
      <trkpt lat="47.16024" lon="6.04851">
        <ele>470.6</ele>
        <time>2026-07-08T13:05:05Z</time>
      </trkpt>
      <trkpt lat="47.16019" lon="6.0485">
        <ele>470.8</ele>
        <time>2026-07-08T13:05:06Z</time>
      </trkpt>
      <trkpt lat="47.16014" lon="6.04851">
        <ele>470.8</ele>
        <time>2026-07-08T13:05:07Z</time>
      </trkpt>
      <trkpt lat="47.16009" lon="6.04851">
        <ele>470.8</ele>
        <time>2026-07-08T13:05:08Z</time>
      </trkpt>
      <trkpt lat="47.16004" lon="6.04852">
        <ele>470.8</ele>
        <time>2026-07-08T13:05:09Z</time>
      </trkpt>
      <trkpt lat="47.15999" lon="6.04853">
        <ele>470.8</ele>
        <time>2026-07-08T13:05:10Z</time>
      </trkpt>
      <trkpt lat="47.15993" lon="6.04854">
        <ele>471</ele>
        <time>2026-07-08T13:05:11Z</time>
      </trkpt>
      <trkpt lat="47.15988" lon="6.04855">
        <ele>471</ele>
        <time>2026-07-08T13:05:12Z</time>
      </trkpt>
      <trkpt lat="47.15983" lon="6.04856">
        <ele>470.8</ele>
        <time>2026-07-08T13:05:13Z</time>
      </trkpt>
      <trkpt lat="47.15978" lon="6.04857">
        <ele>470.8</ele>
        <time>2026-07-08T13:05:14Z</time>
      </trkpt>
      <trkpt lat="47.15973" lon="6.04858">
        <ele>470.8</ele>
        <time>2026-07-08T13:05:15Z</time>
      </trkpt>
      <trkpt lat="47.15968" lon="6.0486">
        <ele>471</ele>
        <time>2026-07-08T13:05:16Z</time>
      </trkpt>
      <trkpt lat="47.15962" lon="6.04861">
        <ele>471</ele>
        <time>2026-07-08T13:05:17Z</time>
      </trkpt>
      <trkpt lat="47.15957" lon="6.04863">
        <ele>471</ele>
        <time>2026-07-08T13:05:18Z</time>
      </trkpt>
      <trkpt lat="47.15952" lon="6.04865">
        <ele>471</ele>
        <time>2026-07-08T13:05:19Z</time>
      </trkpt>
      <trkpt lat="47.15947" lon="6.04867">
        <ele>470.8</ele>
        <time>2026-07-08T13:05:20Z</time>
      </trkpt>
      <trkpt lat="47.15943" lon="6.0487">
        <ele>471</ele>
        <time>2026-07-08T13:05:21Z</time>
      </trkpt>
      <trkpt lat="47.15938" lon="6.04872">
        <ele>471</ele>
        <time>2026-07-08T13:05:22Z</time>
      </trkpt>
      <trkpt lat="47.15935" lon="6.04875">
        <ele>471</ele>
        <time>2026-07-08T13:05:23Z</time>
      </trkpt>
      <trkpt lat="47.15931" lon="6.04878">
        <ele>471</ele>
        <time>2026-07-08T13:05:24Z</time>
      </trkpt>
      <trkpt lat="47.15928" lon="6.0488">
        <ele>471</ele>
        <time>2026-07-08T13:05:25Z</time>
      </trkpt>
      <trkpt lat="47.15925" lon="6.04882">
        <ele>471</ele>
        <time>2026-07-08T13:05:26Z</time>
      </trkpt>
      <trkpt lat="47.15922" lon="6.04885">
        <ele>471</ele>
        <time>2026-07-08T13:05:27Z</time>
      </trkpt>
      <trkpt lat="47.1592" lon="6.04887">
        <ele>471.2</ele>
        <time>2026-07-08T13:05:28Z</time>
      </trkpt>
      <trkpt lat="47.15917" lon="6.04889">
        <ele>471.4</ele>
        <time>2026-07-08T13:05:29Z</time>
      </trkpt>
      <trkpt lat="47.15914" lon="6.04891">
        <ele>471.4</ele>
        <time>2026-07-08T13:05:30Z</time>
      </trkpt>
      <trkpt lat="47.15912" lon="6.04893">
        <ele>472</ele>
        <time>2026-07-08T13:05:31Z</time>
      </trkpt>
      <trkpt lat="47.1591" lon="6.04896">
        <ele>472.4</ele>
        <time>2026-07-08T13:05:32Z</time>
      </trkpt>
      <trkpt lat="47.15907" lon="6.049">
        <ele>472.8</ele>
        <time>2026-07-08T13:05:33Z</time>
      </trkpt>
      <trkpt lat="47.15904" lon="6.04904">
        <ele>473</ele>
        <time>2026-07-08T13:05:34Z</time>
      </trkpt>
      <trkpt lat="47.15901" lon="6.04907">
        <ele>473.2</ele>
        <time>2026-07-08T13:05:35Z</time>
      </trkpt>
      <trkpt lat="47.15898" lon="6.0491">
        <ele>473.2</ele>
        <time>2026-07-08T13:05:36Z</time>
      </trkpt>
      <trkpt lat="47.15895" lon="6.04913">
        <ele>473.8</ele>
        <time>2026-07-08T13:05:37Z</time>
      </trkpt>
      <trkpt lat="47.15892" lon="6.04916">
        <ele>473.8</ele>
        <time>2026-07-08T13:05:38Z</time>
      </trkpt>
      <trkpt lat="47.15889" lon="6.04918">
        <ele>473.8</ele>
        <time>2026-07-08T13:05:39Z</time>
      </trkpt>
      <trkpt lat="47.15886" lon="6.0492">
        <ele>474</ele>
        <time>2026-07-08T13:05:40Z</time>
      </trkpt>
      <trkpt lat="47.15883" lon="6.04921">
        <ele>474.2</ele>
        <time>2026-07-08T13:05:41Z</time>
      </trkpt>
      <trkpt lat="47.1588" lon="6.04923">
        <ele>474.2</ele>
        <time>2026-07-08T13:05:42Z</time>
      </trkpt>
      <trkpt lat="47.15877" lon="6.04924">
        <ele>474.4</ele>
        <time>2026-07-08T13:05:43Z</time>
      </trkpt>
      <trkpt lat="47.15874" lon="6.04925">
        <ele>474.4</ele>
        <time>2026-07-08T13:05:44Z</time>
      </trkpt>
      <trkpt lat="47.15871" lon="6.04926">
        <ele>474.6</ele>
        <time>2026-07-08T13:05:45Z</time>
      </trkpt>
      <trkpt lat="47.15867" lon="6.04927">
        <ele>474.8</ele>
        <time>2026-07-08T13:05:46Z</time>
      </trkpt>
      <trkpt lat="47.15864" lon="6.04928">
        <ele>475</ele>
        <time>2026-07-08T13:05:47Z</time>
      </trkpt>
      <trkpt lat="47.15861" lon="6.04929">
        <ele>474.8</ele>
        <time>2026-07-08T13:05:48Z</time>
      </trkpt>
      <trkpt lat="47.15857" lon="6.04929">
        <ele>475</ele>
        <time>2026-07-08T13:05:49Z</time>
      </trkpt>
      <trkpt lat="47.15853" lon="6.04931">
        <ele>475</ele>
        <time>2026-07-08T13:05:50Z</time>
      </trkpt>
      <trkpt lat="47.15849" lon="6.04932">
        <ele>475</ele>
        <time>2026-07-08T13:05:51Z</time>
      </trkpt>
      <trkpt lat="47.15845" lon="6.04933">
        <ele>475.2</ele>
        <time>2026-07-08T13:05:52Z</time>
      </trkpt>
      <trkpt lat="47.15841" lon="6.04934">
        <ele>475.2</ele>
        <time>2026-07-08T13:05:53Z</time>
      </trkpt>
      <trkpt lat="47.15837" lon="6.04936">
        <ele>475.2</ele>
        <time>2026-07-08T13:05:54Z</time>
      </trkpt>
      <trkpt lat="47.15833" lon="6.04937">
        <ele>475.2</ele>
        <time>2026-07-08T13:05:55Z</time>
      </trkpt>
      <trkpt lat="47.15829" lon="6.04938">
        <ele>475.2</ele>
        <time>2026-07-08T13:05:56Z</time>
      </trkpt>
      <trkpt lat="47.15825" lon="6.0494">
        <ele>475.2</ele>
        <time>2026-07-08T13:05:57Z</time>
      </trkpt>
      <trkpt lat="47.15822" lon="6.04942">
        <ele>475.4</ele>
        <time>2026-07-08T13:05:58Z</time>
      </trkpt>
      <trkpt lat="47.15819" lon="6.04944">
        <ele>475.2</ele>
        <time>2026-07-08T13:05:59Z</time>
      </trkpt>
      <trkpt lat="47.15817" lon="6.04946">
        <ele>475.4</ele>
        <time>2026-07-08T13:06:00Z</time>
      </trkpt>
      <trkpt lat="47.15815" lon="6.04949">
        <ele>475.2</ele>
        <time>2026-07-08T13:06:01Z</time>
      </trkpt>
      <trkpt lat="47.15813" lon="6.04952">
        <ele>475.4</ele>
        <time>2026-07-08T13:06:02Z</time>
      </trkpt>
      <trkpt lat="47.15812" lon="6.04957">
        <ele>475.4</ele>
        <time>2026-07-08T13:06:03Z</time>
      </trkpt>
      <trkpt lat="47.1581" lon="6.04961">
        <ele>475.4</ele>
        <time>2026-07-08T13:06:04Z</time>
      </trkpt>
      <trkpt lat="47.15809" lon="6.04965">
        <ele>475.4</ele>
        <time>2026-07-08T13:06:05Z</time>
      </trkpt>
      <trkpt lat="47.15808" lon="6.0497">
        <ele>475.4</ele>
        <time>2026-07-08T13:06:06Z</time>
      </trkpt>
      <trkpt lat="47.15807" lon="6.04974">
        <ele>475.4</ele>
        <time>2026-07-08T13:06:07Z</time>
      </trkpt>
      <trkpt lat="47.15806" lon="6.04979">
        <ele>475.4</ele>
        <time>2026-07-08T13:06:08Z</time>
      </trkpt>
      <trkpt lat="47.15804" lon="6.04984">
        <ele>475.4</ele>
        <time>2026-07-08T13:06:09Z</time>
      </trkpt>
      <trkpt lat="47.15803" lon="6.04989">
        <ele>475.6</ele>
        <time>2026-07-08T13:06:10Z</time>
      </trkpt>
      <trkpt lat="47.15802" lon="6.04994">
        <ele>475.6</ele>
        <time>2026-07-08T13:06:11Z</time>
      </trkpt>
      <trkpt lat="47.15801" lon="6.05">
        <ele>475.6</ele>
        <time>2026-07-08T13:06:12Z</time>
      </trkpt>
      <trkpt lat="47.15799" lon="6.05005">
        <ele>475.6</ele>
        <time>2026-07-08T13:06:13Z</time>
      </trkpt>
      <trkpt lat="47.15797" lon="6.0501">
        <ele>475.8</ele>
        <time>2026-07-08T13:06:14Z</time>
      </trkpt>
      <trkpt lat="47.15795" lon="6.05015">
        <ele>476</ele>
        <time>2026-07-08T13:06:15Z</time>
      </trkpt>
      <trkpt lat="47.15794" lon="6.0502">
        <ele>476.2</ele>
        <time>2026-07-08T13:06:16Z</time>
      </trkpt>
      <trkpt lat="47.15793" lon="6.05024">
        <ele>476.4</ele>
        <time>2026-07-08T13:06:17Z</time>
      </trkpt>
      <trkpt lat="47.15792" lon="6.05029">
        <ele>476.4</ele>
        <time>2026-07-08T13:06:18Z</time>
      </trkpt>
      <trkpt lat="47.15791" lon="6.05033">
        <ele>476.6</ele>
        <time>2026-07-08T13:06:19Z</time>
      </trkpt>
      <trkpt lat="47.15791" lon="6.05038">
        <ele>476.8</ele>
        <time>2026-07-08T13:06:20Z</time>
      </trkpt>
      <trkpt lat="47.1579" lon="6.05042">
        <ele>476.8</ele>
        <time>2026-07-08T13:06:21Z</time>
      </trkpt>
      <trkpt lat="47.15789" lon="6.05047">
        <ele>477.2</ele>
        <time>2026-07-08T13:06:22Z</time>
      </trkpt>
      <trkpt lat="47.15788" lon="6.05051">
        <ele>477.2</ele>
        <time>2026-07-08T13:06:23Z</time>
      </trkpt>
      <trkpt lat="47.15788" lon="6.05056">
        <ele>477.4</ele>
        <time>2026-07-08T13:06:24Z</time>
      </trkpt>
      <trkpt lat="47.15787" lon="6.0506">
        <ele>477.6</ele>
        <time>2026-07-08T13:06:25Z</time>
      </trkpt>
      <trkpt lat="47.15786" lon="6.05065">
        <ele>477.6</ele>
        <time>2026-07-08T13:06:26Z</time>
      </trkpt>
      <trkpt lat="47.15785" lon="6.05069">
        <ele>477.8</ele>
        <time>2026-07-08T13:06:27Z</time>
      </trkpt>
      <trkpt lat="47.15784" lon="6.05072">
        <ele>477.8</ele>
        <time>2026-07-08T13:06:28Z</time>
      </trkpt>
      <trkpt lat="47.15782" lon="6.05075">
        <ele>477.8</ele>
        <time>2026-07-08T13:06:29Z</time>
      </trkpt>
      <trkpt lat="47.1578" lon="6.05077">
        <ele>478</ele>
        <time>2026-07-08T13:06:30Z</time>
      </trkpt>
      <trkpt lat="47.15777" lon="6.05079">
        <ele>478.4</ele>
        <time>2026-07-08T13:06:31Z</time>
      </trkpt>
      <trkpt lat="47.15775" lon="6.0508">
        <ele>478.6</ele>
        <time>2026-07-08T13:06:32Z</time>
      </trkpt>
      <trkpt lat="47.15771" lon="6.05081">
        <ele>478.8</ele>
        <time>2026-07-08T13:06:33Z</time>
      </trkpt>
      <trkpt lat="47.15768" lon="6.05082">
        <ele>478.8</ele>
        <time>2026-07-08T13:06:34Z</time>
      </trkpt>
      <trkpt lat="47.15765" lon="6.05082">
        <ele>478.8</ele>
        <time>2026-07-08T13:06:35Z</time>
      </trkpt>
      <trkpt lat="47.15762" lon="6.05082">
        <ele>478.8</ele>
        <time>2026-07-08T13:06:36Z</time>
      </trkpt>
      <trkpt lat="47.15759" lon="6.05081">
        <ele>478.8</ele>
        <time>2026-07-08T13:06:37Z</time>
      </trkpt>
      <trkpt lat="47.15756" lon="6.05082">
        <ele>479</ele>
        <time>2026-07-08T13:06:38Z</time>
      </trkpt>
      <trkpt lat="47.15752" lon="6.05083">
        <ele>478.8</ele>
        <time>2026-07-08T13:06:39Z</time>
      </trkpt>
      <trkpt lat="47.15748" lon="6.05083">
        <ele>479</ele>
        <time>2026-07-08T13:06:40Z</time>
      </trkpt>
      <trkpt lat="47.15745" lon="6.05084">
        <ele>479</ele>
        <time>2026-07-08T13:06:41Z</time>
      </trkpt>
      <trkpt lat="47.15741" lon="6.05084">
        <ele>479</ele>
        <time>2026-07-08T13:06:42Z</time>
      </trkpt>
      <trkpt lat="47.15737" lon="6.05085">
        <ele>478.8</ele>
        <time>2026-07-08T13:06:43Z</time>
      </trkpt>
      <trkpt lat="47.15733" lon="6.05085">
        <ele>478.8</ele>
        <time>2026-07-08T13:06:44Z</time>
      </trkpt>
      <trkpt lat="47.15728" lon="6.05087">
        <ele>479</ele>
        <time>2026-07-08T13:06:45Z</time>
      </trkpt>
      <trkpt lat="47.15724" lon="6.05088">
        <ele>479</ele>
        <time>2026-07-08T13:06:46Z</time>
      </trkpt>
      <trkpt lat="47.15719" lon="6.05088">
        <ele>478.8</ele>
        <time>2026-07-08T13:06:47Z</time>
      </trkpt>
      <trkpt lat="47.15715" lon="6.05089">
        <ele>478.8</ele>
        <time>2026-07-08T13:06:48Z</time>
      </trkpt>
      <trkpt lat="47.15711" lon="6.0509">
        <ele>478.8</ele>
        <time>2026-07-08T13:06:49Z</time>
      </trkpt>
      <trkpt lat="47.15708" lon="6.0509">
        <ele>478.8</ele>
        <time>2026-07-08T13:06:50Z</time>
      </trkpt>
      <trkpt lat="47.15704" lon="6.0509">
        <ele>479</ele>
        <time>2026-07-08T13:06:51Z</time>
      </trkpt>
      <trkpt lat="47.15701" lon="6.05089">
        <ele>478.8</ele>
        <time>2026-07-08T13:06:52Z</time>
      </trkpt>
      <trkpt lat="47.15697" lon="6.05089">
        <ele>479</ele>
        <time>2026-07-08T13:06:53Z</time>
      </trkpt>
      <trkpt lat="47.15694" lon="6.05089">
        <ele>479</ele>
        <time>2026-07-08T13:06:54Z</time>
      </trkpt>
      <trkpt lat="47.1569" lon="6.0509">
        <ele>479</ele>
        <time>2026-07-08T13:06:55Z</time>
      </trkpt>
      <trkpt lat="47.15686" lon="6.05091">
        <ele>479</ele>
        <time>2026-07-08T13:06:56Z</time>
      </trkpt>
      <trkpt lat="47.15683" lon="6.0509">
        <ele>479</ele>
        <time>2026-07-08T13:06:57Z</time>
      </trkpt>
      <trkpt lat="47.1568" lon="6.0509">
        <ele>479.2</ele>
        <time>2026-07-08T13:06:58Z</time>
      </trkpt>
      <trkpt lat="47.15676" lon="6.05089">
        <ele>479</ele>
        <time>2026-07-08T13:06:59Z</time>
      </trkpt>
      <trkpt lat="47.15673" lon="6.05089">
        <ele>479.2</ele>
        <time>2026-07-08T13:07:00Z</time>
      </trkpt>
      <trkpt lat="47.1567" lon="6.05089">
        <ele>479.2</ele>
        <time>2026-07-08T13:07:01Z</time>
      </trkpt>
      <trkpt lat="47.15666" lon="6.0509">
        <ele>479.4</ele>
        <time>2026-07-08T13:07:02Z</time>
      </trkpt>
      <trkpt lat="47.15663" lon="6.0509">
        <ele>479.4</ele>
        <time>2026-07-08T13:07:03Z</time>
      </trkpt>
      <trkpt lat="47.1566" lon="6.05089">
        <ele>479.6</ele>
        <time>2026-07-08T13:07:04Z</time>
      </trkpt>
      <trkpt lat="47.15657" lon="6.05089">
        <ele>479.6</ele>
        <time>2026-07-08T13:07:05Z</time>
      </trkpt>
      <trkpt lat="47.15653" lon="6.05089">
        <ele>479.6</ele>
        <time>2026-07-08T13:07:06Z</time>
      </trkpt>
      <trkpt lat="47.15648" lon="6.0509">
        <ele>480</ele>
        <time>2026-07-08T13:07:07Z</time>
      </trkpt>
      <trkpt lat="47.15644" lon="6.0509">
        <ele>480</ele>
        <time>2026-07-08T13:07:08Z</time>
      </trkpt>
      <trkpt lat="47.15639" lon="6.05091">
        <ele>479.8</ele>
        <time>2026-07-08T13:07:09Z</time>
      </trkpt>
      <trkpt lat="47.15635" lon="6.05091">
        <ele>480</ele>
        <time>2026-07-08T13:07:10Z</time>
      </trkpt>
      <trkpt lat="47.1563" lon="6.05091">
        <ele>480.2</ele>
        <time>2026-07-08T13:07:11Z</time>
      </trkpt>
      <trkpt lat="47.15625" lon="6.05091">
        <ele>480.2</ele>
        <time>2026-07-08T13:07:12Z</time>
      </trkpt>
      <trkpt lat="47.15622" lon="6.05091">
        <ele>480.2</ele>
        <time>2026-07-08T13:07:13Z</time>
      </trkpt>
      <trkpt lat="47.15617" lon="6.05092">
        <ele>480.2</ele>
        <time>2026-07-08T13:07:14Z</time>
      </trkpt>
      <trkpt lat="47.15613" lon="6.05093">
        <ele>480.2</ele>
        <time>2026-07-08T13:07:15Z</time>
      </trkpt>
      <trkpt lat="47.15609" lon="6.05094">
        <ele>480.2</ele>
        <time>2026-07-08T13:07:16Z</time>
      </trkpt>
      <trkpt lat="47.15605" lon="6.05095">
        <ele>480.2</ele>
        <time>2026-07-08T13:07:17Z</time>
      </trkpt>
      <trkpt lat="47.15601" lon="6.05096">
        <ele>480.2</ele>
        <time>2026-07-08T13:07:18Z</time>
      </trkpt>
      <trkpt lat="47.15596" lon="6.05096">
        <ele>480.2</ele>
        <time>2026-07-08T13:07:19Z</time>
      </trkpt>
      <trkpt lat="47.15592" lon="6.05096">
        <ele>480.2</ele>
        <time>2026-07-08T13:07:20Z</time>
      </trkpt>
      <trkpt lat="47.15589" lon="6.05097">
        <ele>480.2</ele>
        <time>2026-07-08T13:07:21Z</time>
      </trkpt>
      <trkpt lat="47.15585" lon="6.05098">
        <ele>480.2</ele>
        <time>2026-07-08T13:07:22Z</time>
      </trkpt>
      <trkpt lat="47.15582" lon="6.05098">
        <ele>480.4</ele>
        <time>2026-07-08T13:07:23Z</time>
      </trkpt>
      <trkpt lat="47.15579" lon="6.05098">
        <ele>480.4</ele>
        <time>2026-07-08T13:07:24Z</time>
      </trkpt>
      <trkpt lat="47.15576" lon="6.05099">
        <ele>480.4</ele>
        <time>2026-07-08T13:07:25Z</time>
      </trkpt>
      <trkpt lat="47.15573" lon="6.05101">
        <ele>480.6</ele>
        <time>2026-07-08T13:07:26Z</time>
      </trkpt>
      <trkpt lat="47.15569" lon="6.05102">
        <ele>480.6</ele>
        <time>2026-07-08T13:07:27Z</time>
      </trkpt>
      <trkpt lat="47.15565" lon="6.05104">
        <ele>480.6</ele>
        <time>2026-07-08T13:07:28Z</time>
      </trkpt>
      <trkpt lat="47.15562" lon="6.05106">
        <ele>480.8</ele>
        <time>2026-07-08T13:07:29Z</time>
      </trkpt>
      <trkpt lat="47.15558" lon="6.05106">
        <ele>480.8</ele>
        <time>2026-07-08T13:07:30Z</time>
      </trkpt>
      <trkpt lat="47.15554" lon="6.05107">
        <ele>480.8</ele>
        <time>2026-07-08T13:07:31Z</time>
      </trkpt>
      <trkpt lat="47.15551" lon="6.05108">
        <ele>481</ele>
        <time>2026-07-08T13:07:32Z</time>
      </trkpt>
      <trkpt lat="47.15547" lon="6.05108">
        <ele>481.2</ele>
        <time>2026-07-08T13:07:33Z</time>
      </trkpt>
      <trkpt lat="47.15544" lon="6.05108">
        <ele>481.2</ele>
        <time>2026-07-08T13:07:34Z</time>
      </trkpt>
      <trkpt lat="47.15541" lon="6.05108">
        <ele>481.2</ele>
        <time>2026-07-08T13:07:35Z</time>
      </trkpt>
      <trkpt lat="47.15539" lon="6.05109">
        <ele>481.4</ele>
        <time>2026-07-08T13:07:36Z</time>
      </trkpt>
      <trkpt lat="47.15537" lon="6.05109">
        <ele>481.4</ele>
        <time>2026-07-08T13:07:37Z</time>
      </trkpt>
      <trkpt lat="47.15534" lon="6.05108">
        <ele>481.4</ele>
        <time>2026-07-08T13:07:38Z</time>
      </trkpt>
      <trkpt lat="47.15532" lon="6.05108">
        <ele>481.4</ele>
        <time>2026-07-08T13:07:39Z</time>
      </trkpt>
      <trkpt lat="47.15531" lon="6.05108">
        <ele>481.6</ele>
        <time>2026-07-08T13:07:40Z</time>
      </trkpt>
      <trkpt lat="47.15529" lon="6.05107">
        <ele>481.4</ele>
        <time>2026-07-08T13:07:41Z</time>
      </trkpt>
      <trkpt lat="47.15526" lon="6.05106">
        <ele>481.4</ele>
        <time>2026-07-08T13:07:42Z</time>
      </trkpt>
      <trkpt lat="47.15523" lon="6.05105">
        <ele>481.6</ele>
        <time>2026-07-08T13:07:43Z</time>
      </trkpt>
      <trkpt lat="47.1552" lon="6.05105">
        <ele>481.6</ele>
        <time>2026-07-08T13:07:44Z</time>
      </trkpt>
      <trkpt lat="47.15516" lon="6.05106">
        <ele>481.8</ele>
        <time>2026-07-08T13:07:45Z</time>
      </trkpt>
      <trkpt lat="47.15513" lon="6.05105">
        <ele>482.2</ele>
        <time>2026-07-08T13:07:46Z</time>
      </trkpt>
      <trkpt lat="47.15509" lon="6.05106">
        <ele>482.4</ele>
        <time>2026-07-08T13:07:47Z</time>
      </trkpt>
      <trkpt lat="47.15506" lon="6.05106">
        <ele>482.6</ele>
        <time>2026-07-08T13:07:48Z</time>
      </trkpt>
      <trkpt lat="47.15503" lon="6.05106">
        <ele>482.4</ele>
        <time>2026-07-08T13:07:49Z</time>
      </trkpt>
      <trkpt lat="47.15499" lon="6.05107">
        <ele>482.6</ele>
        <time>2026-07-08T13:07:50Z</time>
      </trkpt>
      <trkpt lat="47.15496" lon="6.05107">
        <ele>482.6</ele>
        <time>2026-07-08T13:07:51Z</time>
      </trkpt>
      <trkpt lat="47.15491" lon="6.05107">
        <ele>482.8</ele>
        <time>2026-07-08T13:07:52Z</time>
      </trkpt>
      <trkpt lat="47.15486" lon="6.05108">
        <ele>482.6</ele>
        <time>2026-07-08T13:07:53Z</time>
      </trkpt>
      <trkpt lat="47.15481" lon="6.05109">
        <ele>483</ele>
        <time>2026-07-08T13:07:54Z</time>
      </trkpt>
      <trkpt lat="47.15475" lon="6.05108">
        <ele>483</ele>
        <time>2026-07-08T13:07:55Z</time>
      </trkpt>
      <trkpt lat="47.15471" lon="6.05108">
        <ele>483.2</ele>
        <time>2026-07-08T13:07:56Z</time>
      </trkpt>
      <trkpt lat="47.15467" lon="6.05108">
        <ele>483.2</ele>
        <time>2026-07-08T13:07:57Z</time>
      </trkpt>
      <trkpt lat="47.15463" lon="6.05108">
        <ele>483.4</ele>
        <time>2026-07-08T13:07:58Z</time>
      </trkpt>
      <trkpt lat="47.15458" lon="6.05109">
        <ele>483.4</ele>
        <time>2026-07-08T13:07:59Z</time>
      </trkpt>
      <trkpt lat="47.15454" lon="6.05109">
        <ele>483.4</ele>
        <time>2026-07-08T13:08:00Z</time>
      </trkpt>
      <trkpt lat="47.15449" lon="6.05109">
        <ele>483.4</ele>
        <time>2026-07-08T13:08:01Z</time>
      </trkpt>
      <trkpt lat="47.15445" lon="6.05109">
        <ele>483.6</ele>
        <time>2026-07-08T13:08:02Z</time>
      </trkpt>
      <trkpt lat="47.15442" lon="6.05108">
        <ele>483.6</ele>
        <time>2026-07-08T13:08:03Z</time>
      </trkpt>
      <trkpt lat="47.1544" lon="6.05108">
        <ele>483.6</ele>
        <time>2026-07-08T13:08:04Z</time>
      </trkpt>
      <trkpt lat="47.15437" lon="6.05108">
        <ele>483.6</ele>
        <time>2026-07-08T13:08:05Z</time>
      </trkpt>
      <trkpt lat="47.15433" lon="6.05109">
        <ele>483.8</ele>
        <time>2026-07-08T13:08:06Z</time>
      </trkpt>
      <trkpt lat="47.1543" lon="6.0511">
        <ele>483.8</ele>
        <time>2026-07-08T13:08:07Z</time>
      </trkpt>
      <trkpt lat="47.15425" lon="6.05112">
        <ele>484</ele>
        <time>2026-07-08T13:08:08Z</time>
      </trkpt>
      <trkpt lat="47.15422" lon="6.05112">
        <ele>484</ele>
        <time>2026-07-08T13:08:09Z</time>
      </trkpt>
      <trkpt lat="47.15418" lon="6.05113">
        <ele>484.2</ele>
        <time>2026-07-08T13:08:10Z</time>
      </trkpt>
      <trkpt lat="47.15415" lon="6.05113">
        <ele>484</ele>
        <time>2026-07-08T13:08:11Z</time>
      </trkpt>
      <trkpt lat="47.15411" lon="6.05114">
        <ele>484.2</ele>
        <time>2026-07-08T13:08:12Z</time>
      </trkpt>
      <trkpt lat="47.15408" lon="6.05114">
        <ele>484.2</ele>
        <time>2026-07-08T13:08:13Z</time>
      </trkpt>
      <trkpt lat="47.15405" lon="6.05114">
        <ele>484.6</ele>
        <time>2026-07-08T13:08:14Z</time>
      </trkpt>
      <trkpt lat="47.15402" lon="6.05115">
        <ele>484.6</ele>
        <time>2026-07-08T13:08:15Z</time>
      </trkpt>
      <trkpt lat="47.15398" lon="6.05115">
        <ele>484.6</ele>
        <time>2026-07-08T13:08:16Z</time>
      </trkpt>
      <trkpt lat="47.15393" lon="6.05115">
        <ele>484.6</ele>
        <time>2026-07-08T13:08:17Z</time>
      </trkpt>
      <trkpt lat="47.15389" lon="6.05115">
        <ele>484.6</ele>
        <time>2026-07-08T13:08:18Z</time>
      </trkpt>
      <trkpt lat="47.15385" lon="6.05115">
        <ele>484.8</ele>
        <time>2026-07-08T13:08:19Z</time>
      </trkpt>
      <trkpt lat="47.15382" lon="6.05114">
        <ele>484.8</ele>
        <time>2026-07-08T13:08:20Z</time>
      </trkpt>
      <trkpt lat="47.15377" lon="6.05114">
        <ele>484.8</ele>
        <time>2026-07-08T13:08:21Z</time>
      </trkpt>
      <trkpt lat="47.15373" lon="6.05114">
        <ele>485</ele>
        <time>2026-07-08T13:08:22Z</time>
      </trkpt>
      <trkpt lat="47.15369" lon="6.05115">
        <ele>485</ele>
        <time>2026-07-08T13:08:23Z</time>
      </trkpt>
      <trkpt lat="47.15364" lon="6.05115">
        <ele>485.2</ele>
        <time>2026-07-08T13:08:24Z</time>
      </trkpt>
      <trkpt lat="47.1536" lon="6.05116">
        <ele>485.2</ele>
        <time>2026-07-08T13:08:25Z</time>
      </trkpt>
      <trkpt lat="47.15356" lon="6.05117">
        <ele>485.2</ele>
        <time>2026-07-08T13:08:26Z</time>
      </trkpt>
      <trkpt lat="47.15353" lon="6.05117">
        <ele>485.2</ele>
        <time>2026-07-08T13:08:27Z</time>
      </trkpt>
      <trkpt lat="47.1535" lon="6.05117">
        <ele>485.4</ele>
        <time>2026-07-08T13:08:28Z</time>
      </trkpt>
      <trkpt lat="47.15347" lon="6.05116">
        <ele>485.6</ele>
        <time>2026-07-08T13:08:29Z</time>
      </trkpt>
      <trkpt lat="47.15345" lon="6.05116">
        <ele>485.6</ele>
        <time>2026-07-08T13:08:30Z</time>
      </trkpt>
      <trkpt lat="47.15342" lon="6.05116">
        <ele>485.6</ele>
        <time>2026-07-08T13:08:31Z</time>
      </trkpt>
      <trkpt lat="47.15341" lon="6.05115">
        <ele>485.6</ele>
        <time>2026-07-08T13:08:32Z</time>
      </trkpt>
      <trkpt lat="47.15338" lon="6.05116">
        <ele>485.8</ele>
        <time>2026-07-08T13:08:33Z</time>
      </trkpt>
      <trkpt lat="47.15336" lon="6.05116">
        <ele>486</ele>
        <time>2026-07-08T13:08:34Z</time>
      </trkpt>
      <trkpt lat="47.15333" lon="6.05116">
        <ele>486.2</ele>
        <time>2026-07-08T13:08:35Z</time>
      </trkpt>
      <trkpt lat="47.15331" lon="6.05116">
        <ele>486.2</ele>
        <time>2026-07-08T13:08:36Z</time>
      </trkpt>
      <trkpt lat="47.15328" lon="6.05116">
        <ele>486.2</ele>
        <time>2026-07-08T13:08:37Z</time>
      </trkpt>
      <trkpt lat="47.15327" lon="6.05114">
        <ele>486.4</ele>
        <time>2026-07-08T13:08:38Z</time>
      </trkpt>
      <trkpt lat="47.15325" lon="6.05112">
        <ele>486.4</ele>
        <time>2026-07-08T13:08:39Z</time>
      </trkpt>
      <trkpt lat="47.15323" lon="6.05108">
        <ele>486.8</ele>
        <time>2026-07-08T13:08:40Z</time>
      </trkpt>
      <trkpt lat="47.1532" lon="6.05104">
        <ele>486.8</ele>
        <time>2026-07-08T13:08:41Z</time>
      </trkpt>
      <trkpt lat="47.15317" lon="6.051">
        <ele>487</ele>
        <time>2026-07-08T13:08:42Z</time>
      </trkpt>
      <trkpt lat="47.15314" lon="6.05096">
        <ele>487.2</ele>
        <time>2026-07-08T13:08:43Z</time>
      </trkpt>
      <trkpt lat="47.15312" lon="6.05093">
        <ele>487.4</ele>
        <time>2026-07-08T13:08:44Z</time>
      </trkpt>
      <trkpt lat="47.15309" lon="6.0509">
        <ele>487.4</ele>
        <time>2026-07-08T13:08:45Z</time>
      </trkpt>
      <trkpt lat="47.15306" lon="6.05086">
        <ele>487.4</ele>
        <time>2026-07-08T13:08:46Z</time>
      </trkpt>
      <trkpt lat="47.15304" lon="6.05083">
        <ele>487.6</ele>
        <time>2026-07-08T13:08:47Z</time>
      </trkpt>
      <trkpt lat="47.15302" lon="6.05079">
        <ele>487.6</ele>
        <time>2026-07-08T13:08:48Z</time>
      </trkpt>
      <trkpt lat="47.153" lon="6.05076">
        <ele>487.6</ele>
        <time>2026-07-08T13:08:49Z</time>
      </trkpt>
      <trkpt lat="47.15296" lon="6.05073">
        <ele>487.6</ele>
        <time>2026-07-08T13:08:50Z</time>
      </trkpt>
      <trkpt lat="47.15294" lon="6.0507">
        <ele>487.6</ele>
        <time>2026-07-08T13:08:51Z</time>
      </trkpt>
      <trkpt lat="47.15292" lon="6.05066">
        <ele>487.8</ele>
        <time>2026-07-08T13:08:52Z</time>
      </trkpt>
      <trkpt lat="47.1529" lon="6.05062">
        <ele>488</ele>
        <time>2026-07-08T13:08:53Z</time>
      </trkpt>
      <trkpt lat="47.15285" lon="6.05057">
        <ele>488.2</ele>
        <time>2026-07-08T13:08:54Z</time>
      </trkpt>
      <trkpt lat="47.15282" lon="6.05052">
        <ele>488.6</ele>
        <time>2026-07-08T13:08:55Z</time>
      </trkpt>
      <trkpt lat="47.15279" lon="6.05048">
        <ele>488.6</ele>
        <time>2026-07-08T13:08:56Z</time>
      </trkpt>
      <trkpt lat="47.15276" lon="6.05044">
        <ele>488.6</ele>
        <time>2026-07-08T13:08:57Z</time>
      </trkpt>
      <trkpt lat="47.15273" lon="6.05039">
        <ele>488.6</ele>
        <time>2026-07-08T13:08:58Z</time>
      </trkpt>
      <trkpt lat="47.1527" lon="6.05035">
        <ele>488.6</ele>
        <time>2026-07-08T13:08:59Z</time>
      </trkpt>
      <trkpt lat="47.15266" lon="6.05031">
        <ele>488.6</ele>
        <time>2026-07-08T13:09:00Z</time>
      </trkpt>
      <trkpt lat="47.15263" lon="6.05028">
        <ele>488.8</ele>
        <time>2026-07-08T13:09:01Z</time>
      </trkpt>
      <trkpt lat="47.15261" lon="6.05024">
        <ele>488.8</ele>
        <time>2026-07-08T13:09:02Z</time>
      </trkpt>
      <trkpt lat="47.15259" lon="6.0502">
        <ele>488.8</ele>
        <time>2026-07-08T13:09:03Z</time>
      </trkpt>
      <trkpt lat="47.15256" lon="6.05016">
        <ele>488.8</ele>
        <time>2026-07-08T13:09:04Z</time>
      </trkpt>
      <trkpt lat="47.15254" lon="6.05013">
        <ele>488.8</ele>
        <time>2026-07-08T13:09:05Z</time>
      </trkpt>
      <trkpt lat="47.15251" lon="6.0501">
        <ele>488.8</ele>
        <time>2026-07-08T13:09:06Z</time>
      </trkpt>
      <trkpt lat="47.15249" lon="6.05007">
        <ele>488.8</ele>
        <time>2026-07-08T13:09:07Z</time>
      </trkpt>
      <trkpt lat="47.15246" lon="6.05004">
        <ele>489</ele>
        <time>2026-07-08T13:09:08Z</time>
      </trkpt>
      <trkpt lat="47.15244" lon="6.05001">
        <ele>488.8</ele>
        <time>2026-07-08T13:09:09Z</time>
      </trkpt>
      <trkpt lat="47.15241" lon="6.04998">
        <ele>488.8</ele>
        <time>2026-07-08T13:09:10Z</time>
      </trkpt>
      <trkpt lat="47.1524" lon="6.04995">
        <ele>488.8</ele>
        <time>2026-07-08T13:09:11Z</time>
      </trkpt>
      <trkpt lat="47.15237" lon="6.04991">
        <ele>488.8</ele>
        <time>2026-07-08T13:09:12Z</time>
      </trkpt>
      <trkpt lat="47.15235" lon="6.04988">
        <ele>488.8</ele>
        <time>2026-07-08T13:09:13Z</time>
      </trkpt>
      <trkpt lat="47.15233" lon="6.04984">
        <ele>488.8</ele>
        <time>2026-07-08T13:09:14Z</time>
      </trkpt>
      <trkpt lat="47.1523" lon="6.0498">
        <ele>488.8</ele>
        <time>2026-07-08T13:09:15Z</time>
      </trkpt>
      <trkpt lat="47.15226" lon="6.04978">
        <ele>488.8</ele>
        <time>2026-07-08T13:09:16Z</time>
      </trkpt>
      <trkpt lat="47.15219" lon="6.04976">
        <ele>488.8</ele>
        <time>2026-07-08T13:09:17Z</time>
      </trkpt>
      <trkpt lat="47.15213" lon="6.04974">
        <ele>489</ele>
        <time>2026-07-08T13:09:18Z</time>
      </trkpt>
      <trkpt lat="47.15209" lon="6.04971">
        <ele>489</ele>
        <time>2026-07-08T13:09:19Z</time>
      </trkpt>
      <trkpt lat="47.15205" lon="6.04967">
        <ele>489</ele>
        <time>2026-07-08T13:09:20Z</time>
      </trkpt>
      <trkpt lat="47.15203" lon="6.04964">
        <ele>488.8</ele>
        <time>2026-07-08T13:09:21Z</time>
      </trkpt>
      <trkpt lat="47.152" lon="6.04961">
        <ele>488.8</ele>
        <time>2026-07-08T13:09:22Z</time>
      </trkpt>
      <trkpt lat="47.15198" lon="6.04957">
        <ele>489</ele>
        <time>2026-07-08T13:09:23Z</time>
      </trkpt>
      <trkpt lat="47.15194" lon="6.04954">
        <ele>488.8</ele>
        <time>2026-07-08T13:09:24Z</time>
      </trkpt>
      <trkpt lat="47.1519" lon="6.0495">
        <ele>489</ele>
        <time>2026-07-08T13:09:25Z</time>
      </trkpt>
      <trkpt lat="47.15186" lon="6.04946">
        <ele>489</ele>
        <time>2026-07-08T13:09:26Z</time>
      </trkpt>
      <trkpt lat="47.15183" lon="6.04944">
        <ele>489</ele>
        <time>2026-07-08T13:09:27Z</time>
      </trkpt>
      <trkpt lat="47.15179" lon="6.0494">
        <ele>489.2</ele>
        <time>2026-07-08T13:09:28Z</time>
      </trkpt>
      <trkpt lat="47.15175" lon="6.04937">
        <ele>489</ele>
        <time>2026-07-08T13:09:29Z</time>
      </trkpt>
      <trkpt lat="47.15171" lon="6.04933">
        <ele>489.2</ele>
        <time>2026-07-08T13:09:30Z</time>
      </trkpt>
      <trkpt lat="47.15167" lon="6.0493">
        <ele>489.2</ele>
        <time>2026-07-08T13:09:31Z</time>
      </trkpt>
      <trkpt lat="47.15163" lon="6.04927">
        <ele>489.4</ele>
        <time>2026-07-08T13:09:32Z</time>
      </trkpt>
      <trkpt lat="47.15159" lon="6.04924">
        <ele>489.4</ele>
        <time>2026-07-08T13:09:33Z</time>
      </trkpt>
      <trkpt lat="47.15156" lon="6.04921">
        <ele>489.2</ele>
        <time>2026-07-08T13:09:34Z</time>
      </trkpt>
      <trkpt lat="47.15152" lon="6.04918">
        <ele>489.2</ele>
        <time>2026-07-08T13:09:35Z</time>
      </trkpt>
      <trkpt lat="47.15149" lon="6.04914">
        <ele>489.4</ele>
        <time>2026-07-08T13:09:36Z</time>
      </trkpt>
      <trkpt lat="47.15147" lon="6.04911">
        <ele>489.2</ele>
        <time>2026-07-08T13:09:37Z</time>
      </trkpt>
      <trkpt lat="47.15144" lon="6.04907">
        <ele>489.4</ele>
        <time>2026-07-08T13:09:38Z</time>
      </trkpt>
      <trkpt lat="47.15142" lon="6.04904">
        <ele>489.2</ele>
        <time>2026-07-08T13:09:39Z</time>
      </trkpt>
      <trkpt lat="47.1514" lon="6.049">
        <ele>489.4</ele>
        <time>2026-07-08T13:09:40Z</time>
      </trkpt>
      <trkpt lat="47.15137" lon="6.04895">
        <ele>489.4</ele>
        <time>2026-07-08T13:09:41Z</time>
      </trkpt>
      <trkpt lat="47.15134" lon="6.04892">
        <ele>489.4</ele>
        <time>2026-07-08T13:09:42Z</time>
      </trkpt>
      <trkpt lat="47.1513" lon="6.04888">
        <ele>489.4</ele>
        <time>2026-07-08T13:09:43Z</time>
      </trkpt>
      <trkpt lat="47.15126" lon="6.04885">
        <ele>489.4</ele>
        <time>2026-07-08T13:09:44Z</time>
      </trkpt>
      <trkpt lat="47.15122" lon="6.04882">
        <ele>489.6</ele>
        <time>2026-07-08T13:09:45Z</time>
      </trkpt>
      <trkpt lat="47.15119" lon="6.0488">
        <ele>489.6</ele>
        <time>2026-07-08T13:09:46Z</time>
      </trkpt>
      <trkpt lat="47.15116" lon="6.04878">
        <ele>489.6</ele>
        <time>2026-07-08T13:09:47Z</time>
      </trkpt>
      <trkpt lat="47.15113" lon="6.04876">
        <ele>489.8</ele>
        <time>2026-07-08T13:09:48Z</time>
      </trkpt>
      <trkpt lat="47.1511" lon="6.04874">
        <ele>489.8</ele>
        <time>2026-07-08T13:09:49Z</time>
      </trkpt>
      <trkpt lat="47.15107" lon="6.04871">
        <ele>490</ele>
        <time>2026-07-08T13:09:50Z</time>
      </trkpt>
      <trkpt lat="47.15102" lon="6.04869">
        <ele>490.2</ele>
        <time>2026-07-08T13:09:51Z</time>
      </trkpt>
      <trkpt lat="47.15098" lon="6.04866">
        <ele>490.2</ele>
        <time>2026-07-08T13:09:52Z</time>
      </trkpt>
      <trkpt lat="47.15094" lon="6.04862">
        <ele>490.6</ele>
        <time>2026-07-08T13:09:53Z</time>
      </trkpt>
      <trkpt lat="47.1509" lon="6.04859">
        <ele>490.6</ele>
        <time>2026-07-08T13:09:54Z</time>
      </trkpt>
      <trkpt lat="47.15086" lon="6.04855">
        <ele>490.6</ele>
        <time>2026-07-08T13:09:55Z</time>
      </trkpt>
      <trkpt lat="47.15083" lon="6.04852">
        <ele>490.6</ele>
        <time>2026-07-08T13:09:56Z</time>
      </trkpt>
      <trkpt lat="47.15079" lon="6.04849">
        <ele>490.8</ele>
        <time>2026-07-08T13:09:57Z</time>
      </trkpt>
      <trkpt lat="47.15076" lon="6.04846">
        <ele>490.6</ele>
        <time>2026-07-08T13:09:58Z</time>
      </trkpt>
      <trkpt lat="47.15074" lon="6.04843">
        <ele>490.8</ele>
        <time>2026-07-08T13:09:59Z</time>
      </trkpt>
      <trkpt lat="47.15071" lon="6.0484">
        <ele>491</ele>
        <time>2026-07-08T13:10:00Z</time>
      </trkpt>
      <trkpt lat="47.15068" lon="6.04838">
        <ele>491.2</ele>
        <time>2026-07-08T13:10:01Z</time>
      </trkpt>
      <trkpt lat="47.15065" lon="6.04835">
        <ele>491.4</ele>
        <time>2026-07-08T13:10:02Z</time>
      </trkpt>
      <trkpt lat="47.15062" lon="6.04833">
        <ele>491.6</ele>
        <time>2026-07-08T13:10:03Z</time>
      </trkpt>
      <trkpt lat="47.15059" lon="6.04831">
        <ele>491.6</ele>
        <time>2026-07-08T13:10:04Z</time>
      </trkpt>
      <trkpt lat="47.15055" lon="6.04829">
        <ele>491.8</ele>
        <time>2026-07-08T13:10:05Z</time>
      </trkpt>
      <trkpt lat="47.15053" lon="6.04827">
        <ele>492.2</ele>
        <time>2026-07-08T13:10:06Z</time>
      </trkpt>
      <trkpt lat="47.1505" lon="6.04825">
        <ele>492.2</ele>
        <time>2026-07-08T13:10:07Z</time>
      </trkpt>
      <trkpt lat="47.15047" lon="6.04823">
        <ele>492.4</ele>
        <time>2026-07-08T13:10:08Z</time>
      </trkpt>
      <trkpt lat="47.15045" lon="6.04821">
        <ele>492.4</ele>
        <time>2026-07-08T13:10:09Z</time>
      </trkpt>
      <trkpt lat="47.15042" lon="6.04819">
        <ele>492.6</ele>
        <time>2026-07-08T13:10:10Z</time>
      </trkpt>
      <trkpt lat="47.15039" lon="6.04816">
        <ele>492.6</ele>
        <time>2026-07-08T13:10:11Z</time>
      </trkpt>
      <trkpt lat="47.15037" lon="6.04814">
        <ele>493.4</ele>
        <time>2026-07-08T13:10:12Z</time>
      </trkpt>
      <trkpt lat="47.15035" lon="6.04811">
        <ele>493.6</ele>
        <time>2026-07-08T13:10:13Z</time>
      </trkpt>
      <trkpt lat="47.15033" lon="6.04808">
        <ele>494</ele>
        <time>2026-07-08T13:10:14Z</time>
      </trkpt>
      <trkpt lat="47.15031" lon="6.04805">
        <ele>494.2</ele>
        <time>2026-07-08T13:10:15Z</time>
      </trkpt>
      <trkpt lat="47.15029" lon="6.04802">
        <ele>494.4</ele>
        <time>2026-07-08T13:10:16Z</time>
      </trkpt>
      <trkpt lat="47.15027" lon="6.04799">
        <ele>494.4</ele>
        <time>2026-07-08T13:10:17Z</time>
      </trkpt>
      <trkpt lat="47.15026" lon="6.04796">
        <ele>494.4</ele>
        <time>2026-07-08T13:10:18Z</time>
      </trkpt>
      <trkpt lat="47.15024" lon="6.04792">
        <ele>495</ele>
        <time>2026-07-08T13:10:19Z</time>
      </trkpt>
      <trkpt lat="47.15023" lon="6.04788">
        <ele>495</ele>
        <time>2026-07-08T13:10:20Z</time>
      </trkpt>
      <trkpt lat="47.15022" lon="6.04785">
        <ele>495.4</ele>
        <time>2026-07-08T13:10:21Z</time>
      </trkpt>
      <trkpt lat="47.15021" lon="6.04781">
        <ele>495.6</ele>
        <time>2026-07-08T13:10:22Z</time>
      </trkpt>
      <trkpt lat="47.15019" lon="6.04778">
        <ele>495.8</ele>
        <time>2026-07-08T13:10:23Z</time>
      </trkpt>
      <trkpt lat="47.15017" lon="6.04774">
        <ele>496</ele>
        <time>2026-07-08T13:10:24Z</time>
      </trkpt>
      <trkpt lat="47.15014" lon="6.04771">
        <ele>496</ele>
        <time>2026-07-08T13:10:25Z</time>
      </trkpt>
      <trkpt lat="47.15011" lon="6.04767">
        <ele>496.2</ele>
        <time>2026-07-08T13:10:26Z</time>
      </trkpt>
      <trkpt lat="47.15008" lon="6.04763">
        <ele>496.4</ele>
        <time>2026-07-08T13:10:27Z</time>
      </trkpt>
      <trkpt lat="47.15006" lon="6.0476">
        <ele>496.6</ele>
        <time>2026-07-08T13:10:28Z</time>
      </trkpt>
      <trkpt lat="47.15002" lon="6.04757">
        <ele>496.6</ele>
        <time>2026-07-08T13:10:29Z</time>
      </trkpt>
      <trkpt lat="47.14999" lon="6.04755">
        <ele>496.8</ele>
        <time>2026-07-08T13:10:30Z</time>
      </trkpt>
      <trkpt lat="47.14994" lon="6.04753">
        <ele>497</ele>
        <time>2026-07-08T13:10:31Z</time>
      </trkpt>
      <trkpt lat="47.1499" lon="6.04751">
        <ele>497</ele>
        <time>2026-07-08T13:10:32Z</time>
      </trkpt>
      <trkpt lat="47.14986" lon="6.04749">
        <ele>497</ele>
        <time>2026-07-08T13:10:33Z</time>
      </trkpt>
      <trkpt lat="47.14983" lon="6.04747">
        <ele>497</ele>
        <time>2026-07-08T13:10:34Z</time>
      </trkpt>
      <trkpt lat="47.1498" lon="6.04745">
        <ele>497.2</ele>
        <time>2026-07-08T13:10:35Z</time>
      </trkpt>
      <trkpt lat="47.14977" lon="6.04743">
        <ele>497.2</ele>
        <time>2026-07-08T13:10:36Z</time>
      </trkpt>
      <trkpt lat="47.14974" lon="6.04741">
        <ele>497.4</ele>
        <time>2026-07-08T13:10:37Z</time>
      </trkpt>
      <trkpt lat="47.14972" lon="6.04739">
        <ele>497.6</ele>
        <time>2026-07-08T13:10:38Z</time>
      </trkpt>
      <trkpt lat="47.14969" lon="6.04737">
        <ele>497.6</ele>
        <time>2026-07-08T13:10:39Z</time>
      </trkpt>
      <trkpt lat="47.14966" lon="6.04735">
        <ele>497.4</ele>
        <time>2026-07-08T13:10:40Z</time>
      </trkpt>
      <trkpt lat="47.14963" lon="6.04733">
        <ele>497.6</ele>
        <time>2026-07-08T13:10:41Z</time>
      </trkpt>
      <trkpt lat="47.14961" lon="6.04731">
        <ele>497.8</ele>
        <time>2026-07-08T13:10:42Z</time>
      </trkpt>
      <trkpt lat="47.14958" lon="6.04729">
        <ele>497.8</ele>
        <time>2026-07-08T13:10:43Z</time>
      </trkpt>
      <trkpt lat="47.14956" lon="6.04727">
        <ele>498</ele>
        <time>2026-07-08T13:10:44Z</time>
      </trkpt>
      <trkpt lat="47.14953" lon="6.04725">
        <ele>498</ele>
        <time>2026-07-08T13:10:45Z</time>
      </trkpt>
      <trkpt lat="47.14949" lon="6.04724">
        <ele>498.2</ele>
        <time>2026-07-08T13:10:46Z</time>
      </trkpt>
      <trkpt lat="47.14946" lon="6.04722">
        <ele>498.4</ele>
        <time>2026-07-08T13:10:47Z</time>
      </trkpt>
      <trkpt lat="47.14943" lon="6.0472">
        <ele>498.6</ele>
        <time>2026-07-08T13:10:48Z</time>
      </trkpt>
      <trkpt lat="47.14941" lon="6.04718">
        <ele>498.8</ele>
        <time>2026-07-08T13:10:49Z</time>
      </trkpt>
      <trkpt lat="47.14938" lon="6.04716">
        <ele>499</ele>
        <time>2026-07-08T13:10:50Z</time>
      </trkpt>
      <trkpt lat="47.14936" lon="6.04715">
        <ele>499</ele>
        <time>2026-07-08T13:10:51Z</time>
      </trkpt>
      <trkpt lat="47.14933" lon="6.04713">
        <ele>499.2</ele>
        <time>2026-07-08T13:10:52Z</time>
      </trkpt>
      <trkpt lat="47.1493" lon="6.04711">
        <ele>499.4</ele>
        <time>2026-07-08T13:10:53Z</time>
      </trkpt>
      <trkpt lat="47.14927" lon="6.0471">
        <ele>499.6</ele>
        <time>2026-07-08T13:10:54Z</time>
      </trkpt>
      <trkpt lat="47.14924" lon="6.04708">
        <ele>499.8</ele>
        <time>2026-07-08T13:10:55Z</time>
      </trkpt>
      <trkpt lat="47.14921" lon="6.04707">
        <ele>499.8</ele>
        <time>2026-07-08T13:10:56Z</time>
      </trkpt>
      <trkpt lat="47.14918" lon="6.04706">
        <ele>500</ele>
        <time>2026-07-08T13:10:57Z</time>
      </trkpt>
      <trkpt lat="47.14914" lon="6.04705">
        <ele>500.4</ele>
        <time>2026-07-08T13:10:58Z</time>
      </trkpt>
      <trkpt lat="47.14911" lon="6.04703">
        <ele>500.4</ele>
        <time>2026-07-08T13:10:59Z</time>
      </trkpt>
      <trkpt lat="47.14909" lon="6.04701">
        <ele>500.4</ele>
        <time>2026-07-08T13:11:00Z</time>
      </trkpt>
      <trkpt lat="47.14906" lon="6.04699">
        <ele>500.4</ele>
        <time>2026-07-08T13:11:01Z</time>
      </trkpt>
      <trkpt lat="47.14902" lon="6.04697">
        <ele>500.6</ele>
        <time>2026-07-08T13:11:02Z</time>
      </trkpt>
      <trkpt lat="47.14899" lon="6.04696">
        <ele>500.8</ele>
        <time>2026-07-08T13:11:03Z</time>
      </trkpt>
      <trkpt lat="47.14895" lon="6.04694">
        <ele>501</ele>
        <time>2026-07-08T13:11:04Z</time>
      </trkpt>
      <trkpt lat="47.14891" lon="6.04693">
        <ele>501</ele>
        <time>2026-07-08T13:11:05Z</time>
      </trkpt>
      <trkpt lat="47.14888" lon="6.04691">
        <ele>501.2</ele>
        <time>2026-07-08T13:11:06Z</time>
      </trkpt>
      <trkpt lat="47.14884" lon="6.0469">
        <ele>501.2</ele>
        <time>2026-07-08T13:11:07Z</time>
      </trkpt>
      <trkpt lat="47.14881" lon="6.04688">
        <ele>501.4</ele>
        <time>2026-07-08T13:11:08Z</time>
      </trkpt>
      <trkpt lat="47.14878" lon="6.04687">
        <ele>501.8</ele>
        <time>2026-07-08T13:11:09Z</time>
      </trkpt>
      <trkpt lat="47.14874" lon="6.04686">
        <ele>501.8</ele>
        <time>2026-07-08T13:11:10Z</time>
      </trkpt>
      <trkpt lat="47.14871" lon="6.04685">
        <ele>502.2</ele>
        <time>2026-07-08T13:11:11Z</time>
      </trkpt>
      <trkpt lat="47.14868" lon="6.04683">
        <ele>502.2</ele>
        <time>2026-07-08T13:11:12Z</time>
      </trkpt>
      <trkpt lat="47.14865" lon="6.04682">
        <ele>502.2</ele>
        <time>2026-07-08T13:11:13Z</time>
      </trkpt>
      <trkpt lat="47.14863" lon="6.04681">
        <ele>502.2</ele>
        <time>2026-07-08T13:11:14Z</time>
      </trkpt>
      <trkpt lat="47.1486" lon="6.04679">
        <ele>502.4</ele>
        <time>2026-07-08T13:11:15Z</time>
      </trkpt>
      <trkpt lat="47.14857" lon="6.04678">
        <ele>502.4</ele>
        <time>2026-07-08T13:11:16Z</time>
      </trkpt>
      <trkpt lat="47.14854" lon="6.04677">
        <ele>502.4</ele>
        <time>2026-07-08T13:11:17Z</time>
      </trkpt>
      <trkpt lat="47.14852" lon="6.04674">
        <ele>502.6</ele>
        <time>2026-07-08T13:11:18Z</time>
      </trkpt>
      <trkpt lat="47.1485" lon="6.04672">
        <ele>502.6</ele>
        <time>2026-07-08T13:11:19Z</time>
      </trkpt>
      <trkpt lat="47.14847" lon="6.04669">
        <ele>502.6</ele>
        <time>2026-07-08T13:11:20Z</time>
      </trkpt>
      <trkpt lat="47.14846" lon="6.04666">
        <ele>502.8</ele>
        <time>2026-07-08T13:11:21Z</time>
      </trkpt>
      <trkpt lat="47.14844" lon="6.04662">
        <ele>502.8</ele>
        <time>2026-07-08T13:11:22Z</time>
      </trkpt>
      <trkpt lat="47.14844" lon="6.04656">
        <ele>503</ele>
        <time>2026-07-08T13:11:23Z</time>
      </trkpt>
      <trkpt lat="47.14842" lon="6.04651">
        <ele>503</ele>
        <time>2026-07-08T13:11:24Z</time>
      </trkpt>
      <trkpt lat="47.14841" lon="6.04646">
        <ele>503</ele>
        <time>2026-07-08T13:11:25Z</time>
      </trkpt>
      <trkpt lat="47.14839" lon="6.04642">
        <ele>503</ele>
        <time>2026-07-08T13:11:26Z</time>
      </trkpt>
      <trkpt lat="47.14837" lon="6.04638">
        <ele>503.2</ele>
        <time>2026-07-08T13:11:27Z</time>
      </trkpt>
      <trkpt lat="47.14834" lon="6.04636">
        <ele>503.2</ele>
        <time>2026-07-08T13:11:28Z</time>
      </trkpt>
      <trkpt lat="47.14831" lon="6.04635">
        <ele>503.2</ele>
        <time>2026-07-08T13:11:29Z</time>
      </trkpt>
      <trkpt lat="47.14828" lon="6.04634">
        <ele>503.4</ele>
        <time>2026-07-08T13:11:30Z</time>
      </trkpt>
      <trkpt lat="47.14824" lon="6.04636">
        <ele>503.4</ele>
        <time>2026-07-08T13:11:31Z</time>
      </trkpt>
      <trkpt lat="47.14819" lon="6.04637">
        <ele>503.4</ele>
        <time>2026-07-08T13:11:32Z</time>
      </trkpt>
      <trkpt lat="47.14815" lon="6.04639">
        <ele>503.6</ele>
        <time>2026-07-08T13:11:33Z</time>
      </trkpt>
      <trkpt lat="47.14811" lon="6.04642">
        <ele>503.6</ele>
        <time>2026-07-08T13:11:34Z</time>
      </trkpt>
      <trkpt lat="47.14807" lon="6.04643">
        <ele>503.6</ele>
        <time>2026-07-08T13:11:35Z</time>
      </trkpt>
      <trkpt lat="47.14804" lon="6.04644">
        <ele>503.8</ele>
        <time>2026-07-08T13:11:36Z</time>
      </trkpt>
      <trkpt lat="47.148" lon="6.04645">
        <ele>503.6</ele>
        <time>2026-07-08T13:11:37Z</time>
      </trkpt>
      <trkpt lat="47.14796" lon="6.04647">
        <ele>503.6</ele>
        <time>2026-07-08T13:11:38Z</time>
      </trkpt>
      <trkpt lat="47.14793" lon="6.04649">
        <ele>503.6</ele>
        <time>2026-07-08T13:11:39Z</time>
      </trkpt>
      <trkpt lat="47.14789" lon="6.0465">
        <ele>503.6</ele>
        <time>2026-07-08T13:11:40Z</time>
      </trkpt>
      <trkpt lat="47.14785" lon="6.04652">
        <ele>503.6</ele>
        <time>2026-07-08T13:11:41Z</time>
      </trkpt>
      <trkpt lat="47.14781" lon="6.04652">
        <ele>503.8</ele>
        <time>2026-07-08T13:11:42Z</time>
      </trkpt>
      <trkpt lat="47.14777" lon="6.04652">
        <ele>503.8</ele>
        <time>2026-07-08T13:11:43Z</time>
      </trkpt>
      <trkpt lat="47.14773" lon="6.04653">
        <ele>503.8</ele>
        <time>2026-07-08T13:11:44Z</time>
      </trkpt>
      <trkpt lat="47.14769" lon="6.04653">
        <ele>503.8</ele>
        <time>2026-07-08T13:11:45Z</time>
      </trkpt>
      <trkpt lat="47.14765" lon="6.04653">
        <ele>503.8</ele>
        <time>2026-07-08T13:11:46Z</time>
      </trkpt>
      <trkpt lat="47.14761" lon="6.04654">
        <ele>503.8</ele>
        <time>2026-07-08T13:11:47Z</time>
      </trkpt>
      <trkpt lat="47.14756" lon="6.04655">
        <ele>503.8</ele>
        <time>2026-07-08T13:11:48Z</time>
      </trkpt>
      <trkpt lat="47.14752" lon="6.04656">
        <ele>503.8</ele>
        <time>2026-07-08T13:11:49Z</time>
      </trkpt>
      <trkpt lat="47.14747" lon="6.04657">
        <ele>503.6</ele>
        <time>2026-07-08T13:11:50Z</time>
      </trkpt>
      <trkpt lat="47.14743" lon="6.04657">
        <ele>503.8</ele>
        <time>2026-07-08T13:11:51Z</time>
      </trkpt>
      <trkpt lat="47.14739" lon="6.04658">
        <ele>503.6</ele>
        <time>2026-07-08T13:11:52Z</time>
      </trkpt>
      <trkpt lat="47.14734" lon="6.04658">
        <ele>503.8</ele>
        <time>2026-07-08T13:11:53Z</time>
      </trkpt>
      <trkpt lat="47.14729" lon="6.04659">
        <ele>503.6</ele>
        <time>2026-07-08T13:11:54Z</time>
      </trkpt>
      <trkpt lat="47.14724" lon="6.04659">
        <ele>503.6</ele>
        <time>2026-07-08T13:11:55Z</time>
      </trkpt>
      <trkpt lat="47.14719" lon="6.0466">
        <ele>503.6</ele>
        <time>2026-07-08T13:11:56Z</time>
      </trkpt>
      <trkpt lat="47.14715" lon="6.0466">
        <ele>503.6</ele>
        <time>2026-07-08T13:11:57Z</time>
      </trkpt>
      <trkpt lat="47.14709" lon="6.04661">
        <ele>503.4</ele>
        <time>2026-07-08T13:11:58Z</time>
      </trkpt>
      <trkpt lat="47.14705" lon="6.04662">
        <ele>503.6</ele>
        <time>2026-07-08T13:11:59Z</time>
      </trkpt>
      <trkpt lat="47.147" lon="6.04662">
        <ele>503.4</ele>
        <time>2026-07-08T13:12:00Z</time>
      </trkpt>
      <trkpt lat="47.14696" lon="6.04664">
        <ele>503.4</ele>
        <time>2026-07-08T13:12:01Z</time>
      </trkpt>
      <trkpt lat="47.14692" lon="6.04665">
        <ele>503.4</ele>
        <time>2026-07-08T13:12:02Z</time>
      </trkpt>
      <trkpt lat="47.14688" lon="6.04666">
        <ele>503.6</ele>
        <time>2026-07-08T13:12:03Z</time>
      </trkpt>
      <trkpt lat="47.14684" lon="6.04667">
        <ele>503.6</ele>
        <time>2026-07-08T13:12:04Z</time>
      </trkpt>
      <trkpt lat="47.1468" lon="6.04668">
        <ele>503.6</ele>
        <time>2026-07-08T13:12:05Z</time>
      </trkpt>
      <trkpt lat="47.14675" lon="6.04669">
        <ele>503.8</ele>
        <time>2026-07-08T13:12:06Z</time>
      </trkpt>
      <trkpt lat="47.14671" lon="6.04669">
        <ele>503.8</ele>
        <time>2026-07-08T13:12:07Z</time>
      </trkpt>
      <trkpt lat="47.14666" lon="6.04669">
        <ele>503.8</ele>
        <time>2026-07-08T13:12:08Z</time>
      </trkpt>
      <trkpt lat="47.14662" lon="6.0467">
        <ele>503.8</ele>
        <time>2026-07-08T13:12:09Z</time>
      </trkpt>
      <trkpt lat="47.14657" lon="6.0467">
        <ele>504</ele>
        <time>2026-07-08T13:12:10Z</time>
      </trkpt>
      <trkpt lat="47.14653" lon="6.0467">
        <ele>503.8</ele>
        <time>2026-07-08T13:12:11Z</time>
      </trkpt>
      <trkpt lat="47.14648" lon="6.04671">
        <ele>503.8</ele>
        <time>2026-07-08T13:12:12Z</time>
      </trkpt>
      <trkpt lat="47.14643" lon="6.04672">
        <ele>504</ele>
        <time>2026-07-08T13:12:13Z</time>
      </trkpt>
      <trkpt lat="47.14638" lon="6.04672">
        <ele>504</ele>
        <time>2026-07-08T13:12:14Z</time>
      </trkpt>
      <trkpt lat="47.14633" lon="6.04673">
        <ele>504.2</ele>
        <time>2026-07-08T13:12:15Z</time>
      </trkpt>
      <trkpt lat="47.14628" lon="6.04674">
        <ele>504.2</ele>
        <time>2026-07-08T13:12:16Z</time>
      </trkpt>
      <trkpt lat="47.14623" lon="6.04674">
        <ele>504.2</ele>
        <time>2026-07-08T13:12:17Z</time>
      </trkpt>
      <trkpt lat="47.14618" lon="6.04675">
        <ele>504.2</ele>
        <time>2026-07-08T13:12:18Z</time>
      </trkpt>
      <trkpt lat="47.14612" lon="6.04675">
        <ele>504.2</ele>
        <time>2026-07-08T13:12:19Z</time>
      </trkpt>
      <trkpt lat="47.14607" lon="6.04675">
        <ele>504.2</ele>
        <time>2026-07-08T13:12:20Z</time>
      </trkpt>
      <trkpt lat="47.14601" lon="6.04676">
        <ele>504.2</ele>
        <time>2026-07-08T13:12:21Z</time>
      </trkpt>
      <trkpt lat="47.14596" lon="6.04677">
        <ele>504.2</ele>
        <time>2026-07-08T13:12:22Z</time>
      </trkpt>
      <trkpt lat="47.1459" lon="6.04678">
        <ele>504.2</ele>
        <time>2026-07-08T13:12:23Z</time>
      </trkpt>
      <trkpt lat="47.14585" lon="6.04679">
        <ele>504.4</ele>
        <time>2026-07-08T13:12:24Z</time>
      </trkpt>
      <trkpt lat="47.1458" lon="6.0468">
        <ele>504.2</ele>
        <time>2026-07-08T13:12:25Z</time>
      </trkpt>
      <trkpt lat="47.14575" lon="6.04681">
        <ele>504.2</ele>
        <time>2026-07-08T13:12:26Z</time>
      </trkpt>
      <trkpt lat="47.1457" lon="6.04682">
        <ele>504.2</ele>
        <time>2026-07-08T13:12:27Z</time>
      </trkpt>
      <trkpt lat="47.14564" lon="6.04685">
        <ele>504.4</ele>
        <time>2026-07-08T13:12:28Z</time>
      </trkpt>
      <trkpt lat="47.14558" lon="6.04686">
        <ele>504.2</ele>
        <time>2026-07-08T13:12:29Z</time>
      </trkpt>
      <trkpt lat="47.14553" lon="6.04688">
        <ele>504.2</ele>
        <time>2026-07-08T13:12:30Z</time>
      </trkpt>
      <trkpt lat="47.14547" lon="6.04689">
        <ele>504.2</ele>
        <time>2026-07-08T13:12:31Z</time>
      </trkpt>
      <trkpt lat="47.14542" lon="6.04691">
        <ele>504.2</ele>
        <time>2026-07-08T13:12:32Z</time>
      </trkpt>
      <trkpt lat="47.14536" lon="6.04693">
        <ele>504</ele>
        <time>2026-07-08T13:12:33Z</time>
      </trkpt>
      <trkpt lat="47.14531" lon="6.04694">
        <ele>504</ele>
        <time>2026-07-08T13:12:34Z</time>
      </trkpt>
      <trkpt lat="47.14526" lon="6.04695">
        <ele>504</ele>
        <time>2026-07-08T13:12:35Z</time>
      </trkpt>
      <trkpt lat="47.14521" lon="6.04696">
        <ele>504</ele>
        <time>2026-07-08T13:12:36Z</time>
      </trkpt>
      <trkpt lat="47.14516" lon="6.04697">
        <ele>504</ele>
        <time>2026-07-08T13:12:37Z</time>
      </trkpt>
      <trkpt lat="47.14512" lon="6.04698">
        <ele>504</ele>
        <time>2026-07-08T13:12:38Z</time>
      </trkpt>
      <trkpt lat="47.14508" lon="6.04699">
        <ele>503.8</ele>
        <time>2026-07-08T13:12:39Z</time>
      </trkpt>
      <trkpt lat="47.14503" lon="6.047">
        <ele>504</ele>
        <time>2026-07-08T13:12:40Z</time>
      </trkpt>
      <trkpt lat="47.14499" lon="6.04701">
        <ele>503.8</ele>
        <time>2026-07-08T13:12:41Z</time>
      </trkpt>
      <trkpt lat="47.14494" lon="6.04703">
        <ele>503.8</ele>
        <time>2026-07-08T13:12:42Z</time>
      </trkpt>
      <trkpt lat="47.14489" lon="6.04704">
        <ele>503.8</ele>
        <time>2026-07-08T13:12:43Z</time>
      </trkpt>
      <trkpt lat="47.14484" lon="6.04704">
        <ele>504</ele>
        <time>2026-07-08T13:12:44Z</time>
      </trkpt>
      <trkpt lat="47.14478" lon="6.04705">
        <ele>503.8</ele>
        <time>2026-07-08T13:12:45Z</time>
      </trkpt>
      <trkpt lat="47.14473" lon="6.04706">
        <ele>503.8</ele>
        <time>2026-07-08T13:12:46Z</time>
      </trkpt>
      <trkpt lat="47.14467" lon="6.04707">
        <ele>503.8</ele>
        <time>2026-07-08T13:12:47Z</time>
      </trkpt>
      <trkpt lat="47.14462" lon="6.04708">
        <ele>504</ele>
        <time>2026-07-08T13:12:48Z</time>
      </trkpt>
      <trkpt lat="47.14456" lon="6.04709">
        <ele>503.8</ele>
        <time>2026-07-08T13:12:49Z</time>
      </trkpt>
      <trkpt lat="47.14451" lon="6.0471">
        <ele>504</ele>
        <time>2026-07-08T13:12:50Z</time>
      </trkpt>
      <trkpt lat="47.14446" lon="6.04711">
        <ele>504</ele>
        <time>2026-07-08T13:12:51Z</time>
      </trkpt>
      <trkpt lat="47.14441" lon="6.0471">
        <ele>504</ele>
        <time>2026-07-08T13:12:52Z</time>
      </trkpt>
      <trkpt lat="47.14436" lon="6.04709">
        <ele>503.8</ele>
        <time>2026-07-08T13:12:53Z</time>
      </trkpt>
      <trkpt lat="47.14431" lon="6.04708">
        <ele>504</ele>
        <time>2026-07-08T13:12:54Z</time>
      </trkpt>
      <trkpt lat="47.14426" lon="6.04707">
        <ele>504</ele>
        <time>2026-07-08T13:12:55Z</time>
      </trkpt>
      <trkpt lat="47.14421" lon="6.04705">
        <ele>504</ele>
        <time>2026-07-08T13:12:56Z</time>
      </trkpt>
      <trkpt lat="47.14416" lon="6.04704">
        <ele>504</ele>
        <time>2026-07-08T13:12:57Z</time>
      </trkpt>
      <trkpt lat="47.14411" lon="6.04702">
        <ele>504</ele>
        <time>2026-07-08T13:12:58Z</time>
      </trkpt>
      <trkpt lat="47.14406" lon="6.04702">
        <ele>504</ele>
        <time>2026-07-08T13:12:59Z</time>
      </trkpt>
      <trkpt lat="47.144" lon="6.04703">
        <ele>504</ele>
        <time>2026-07-08T13:13:00Z</time>
      </trkpt>
      <trkpt lat="47.14394" lon="6.04704">
        <ele>504</ele>
        <time>2026-07-08T13:13:01Z</time>
      </trkpt>
      <trkpt lat="47.14388" lon="6.04705">
        <ele>503.8</ele>
        <time>2026-07-08T13:13:02Z</time>
      </trkpt>
      <trkpt lat="47.14381" lon="6.04707">
        <ele>504</ele>
        <time>2026-07-08T13:13:03Z</time>
      </trkpt>
      <trkpt lat="47.14375" lon="6.04708">
        <ele>503.8</ele>
        <time>2026-07-08T13:13:04Z</time>
      </trkpt>
      <trkpt lat="47.14369" lon="6.0471">
        <ele>503.8</ele>
        <time>2026-07-08T13:13:05Z</time>
      </trkpt>
      <trkpt lat="47.14362" lon="6.04712">
        <ele>503.8</ele>
        <time>2026-07-08T13:13:06Z</time>
      </trkpt>
      <trkpt lat="47.14356" lon="6.04713">
        <ele>503.6</ele>
        <time>2026-07-08T13:13:07Z</time>
      </trkpt>
      <trkpt lat="47.14351" lon="6.04714">
        <ele>503.6</ele>
        <time>2026-07-08T13:13:08Z</time>
      </trkpt>
      <trkpt lat="47.14345" lon="6.04715">
        <ele>503.6</ele>
        <time>2026-07-08T13:13:09Z</time>
      </trkpt>
      <trkpt lat="47.14339" lon="6.04717">
        <ele>503.4</ele>
        <time>2026-07-08T13:13:10Z</time>
      </trkpt>
      <trkpt lat="47.14332" lon="6.04719">
        <ele>503.4</ele>
        <time>2026-07-08T13:13:11Z</time>
      </trkpt>
      <trkpt lat="47.14326" lon="6.0472">
        <ele>503.4</ele>
        <time>2026-07-08T13:13:12Z</time>
      </trkpt>
      <trkpt lat="47.1432" lon="6.04722">
        <ele>503.2</ele>
        <time>2026-07-08T13:13:13Z</time>
      </trkpt>
      <trkpt lat="47.14314" lon="6.04723">
        <ele>503.2</ele>
        <time>2026-07-08T13:13:14Z</time>
      </trkpt>
      <trkpt lat="47.14307" lon="6.04721">
        <ele>503.2</ele>
        <time>2026-07-08T13:13:15Z</time>
      </trkpt>
      <trkpt lat="47.14302" lon="6.04719">
        <ele>503.2</ele>
        <time>2026-07-08T13:13:16Z</time>
      </trkpt>
      <trkpt lat="47.14298" lon="6.04716">
        <ele>503</ele>
        <time>2026-07-08T13:13:17Z</time>
      </trkpt>
      <trkpt lat="47.14294" lon="6.04714">
        <ele>503</ele>
        <time>2026-07-08T13:13:18Z</time>
      </trkpt>
      <trkpt lat="47.14291" lon="6.04711">
        <ele>503</ele>
        <time>2026-07-08T13:13:19Z</time>
      </trkpt>
      <trkpt lat="47.14287" lon="6.04709">
        <ele>502.6</ele>
        <time>2026-07-08T13:13:20Z</time>
      </trkpt>
      <trkpt lat="47.14284" lon="6.04707">
        <ele>502.6</ele>
        <time>2026-07-08T13:13:21Z</time>
      </trkpt>
      <trkpt lat="47.1428" lon="6.04704">
        <ele>502.6</ele>
        <time>2026-07-08T13:13:22Z</time>
      </trkpt>
      <trkpt lat="47.14276" lon="6.047">
        <ele>502.6</ele>
        <time>2026-07-08T13:13:23Z</time>
      </trkpt>
      <trkpt lat="47.14272" lon="6.04697">
        <ele>502.6</ele>
        <time>2026-07-08T13:13:24Z</time>
      </trkpt>
      <trkpt lat="47.14267" lon="6.04694">
        <ele>502.6</ele>
        <time>2026-07-08T13:13:25Z</time>
      </trkpt>
      <trkpt lat="47.14261" lon="6.04691">
        <ele>502.4</ele>
        <time>2026-07-08T13:13:26Z</time>
      </trkpt>
      <trkpt lat="47.14256" lon="6.04689">
        <ele>502.4</ele>
        <time>2026-07-08T13:13:27Z</time>
      </trkpt>
      <trkpt lat="47.1425" lon="6.04688">
        <ele>502.4</ele>
        <time>2026-07-08T13:13:28Z</time>
      </trkpt>
      <trkpt lat="47.14245" lon="6.04686">
        <ele>502.2</ele>
        <time>2026-07-08T13:13:29Z</time>
      </trkpt>
      <trkpt lat="47.1424" lon="6.04683">
        <ele>502</ele>
        <time>2026-07-08T13:13:30Z</time>
      </trkpt>
      <trkpt lat="47.14235" lon="6.04681">
        <ele>502</ele>
        <time>2026-07-08T13:13:31Z</time>
      </trkpt>
      <trkpt lat="47.14231" lon="6.04681">
        <ele>502</ele>
        <time>2026-07-08T13:13:32Z</time>
      </trkpt>
      <trkpt lat="47.14226" lon="6.0468">
        <ele>502</ele>
        <time>2026-07-08T13:13:33Z</time>
      </trkpt>
      <trkpt lat="47.14221" lon="6.04681">
        <ele>501.8</ele>
        <time>2026-07-08T13:13:34Z</time>
      </trkpt>
      <trkpt lat="47.14215" lon="6.04683">
        <ele>501.6</ele>
        <time>2026-07-08T13:13:35Z</time>
      </trkpt>
      <trkpt lat="47.14209" lon="6.04685">
        <ele>501.4</ele>
        <time>2026-07-08T13:13:36Z</time>
      </trkpt>
      <trkpt lat="47.14204" lon="6.04689">
        <ele>501.4</ele>
        <time>2026-07-08T13:13:37Z</time>
      </trkpt>
      <trkpt lat="47.14199" lon="6.04693">
        <ele>501.2</ele>
        <time>2026-07-08T13:13:38Z</time>
      </trkpt>
      <trkpt lat="47.14194" lon="6.04698">
        <ele>501</ele>
        <time>2026-07-08T13:13:39Z</time>
      </trkpt>
      <trkpt lat="47.14189" lon="6.04703">
        <ele>501</ele>
        <time>2026-07-08T13:13:40Z</time>
      </trkpt>
      <trkpt lat="47.14186" lon="6.04708">
        <ele>500.8</ele>
        <time>2026-07-08T13:13:41Z</time>
      </trkpt>
      <trkpt lat="47.1418" lon="6.04712">
        <ele>500.8</ele>
        <time>2026-07-08T13:13:42Z</time>
      </trkpt>
      <trkpt lat="47.14177" lon="6.04716">
        <ele>500.8</ele>
        <time>2026-07-08T13:13:43Z</time>
      </trkpt>
      <trkpt lat="47.14171" lon="6.0472">
        <ele>500.8</ele>
        <time>2026-07-08T13:13:44Z</time>
      </trkpt>
      <trkpt lat="47.14166" lon="6.04725">
        <ele>500.6</ele>
        <time>2026-07-08T13:13:45Z</time>
      </trkpt>
      <trkpt lat="47.1416" lon="6.0473">
        <ele>500.6</ele>
        <time>2026-07-08T13:13:46Z</time>
      </trkpt>
      <trkpt lat="47.14155" lon="6.04734">
        <ele>500.6</ele>
        <time>2026-07-08T13:13:47Z</time>
      </trkpt>
      <trkpt lat="47.1415" lon="6.04736">
        <ele>500.6</ele>
        <time>2026-07-08T13:13:48Z</time>
      </trkpt>
      <trkpt lat="47.14146" lon="6.04738">
        <ele>500.6</ele>
        <time>2026-07-08T13:13:49Z</time>
      </trkpt>
      <trkpt lat="47.14141" lon="6.04742">
        <ele>500.4</ele>
        <time>2026-07-08T13:13:50Z</time>
      </trkpt>
      <trkpt lat="47.14137" lon="6.04745">
        <ele>500.4</ele>
        <time>2026-07-08T13:13:51Z</time>
      </trkpt>
      <trkpt lat="47.14132" lon="6.04748">
        <ele>500.2</ele>
        <time>2026-07-08T13:13:52Z</time>
      </trkpt>
      <trkpt lat="47.14127" lon="6.04749">
        <ele>500.2</ele>
        <time>2026-07-08T13:13:53Z</time>
      </trkpt>
      <trkpt lat="47.14125" lon="6.04747">
        <ele>499.8</ele>
        <time>2026-07-08T13:13:54Z</time>
      </trkpt>
      <trkpt lat="47.14124" lon="6.04748">
        <ele>499.8</ele>
        <time>2026-07-08T13:13:55Z</time>
      </trkpt>
      <trkpt lat="47.14123" lon="6.04751">
        <ele>499.6</ele>
        <time>2026-07-08T13:13:56Z</time>
      </trkpt>
      <trkpt lat="47.14121" lon="6.04754">
        <ele>499.4</ele>
        <time>2026-07-08T13:13:57Z</time>
      </trkpt>
      <trkpt lat="47.14119" lon="6.04759">
        <ele>499.4</ele>
        <time>2026-07-08T13:13:58Z</time>
      </trkpt>
      <trkpt lat="47.14115" lon="6.04764">
        <ele>499.4</ele>
        <time>2026-07-08T13:13:59Z</time>
      </trkpt>
      <trkpt lat="47.14112" lon="6.04767">
        <ele>499.2</ele>
        <time>2026-07-08T13:14:00Z</time>
      </trkpt>
      <trkpt lat="47.14108" lon="6.04772">
        <ele>499</ele>
        <time>2026-07-08T13:14:01Z</time>
      </trkpt>
      <trkpt lat="47.14104" lon="6.04776">
        <ele>498.8</ele>
        <time>2026-07-08T13:14:02Z</time>
      </trkpt>
      <trkpt lat="47.141" lon="6.04779">
        <ele>498.6</ele>
        <time>2026-07-08T13:14:03Z</time>
      </trkpt>
      <trkpt lat="47.14096" lon="6.04784">
        <ele>498.8</ele>
        <time>2026-07-08T13:14:04Z</time>
      </trkpt>
      <trkpt lat="47.14091" lon="6.0479">
        <ele>498.6</ele>
        <time>2026-07-08T13:14:05Z</time>
      </trkpt>
      <trkpt lat="47.14087" lon="6.04796">
        <ele>498.6</ele>
        <time>2026-07-08T13:14:06Z</time>
      </trkpt>
      <trkpt lat="47.14082" lon="6.04801">
        <ele>498.4</ele>
        <time>2026-07-08T13:14:07Z</time>
      </trkpt>
      <trkpt lat="47.14078" lon="6.04805">
        <ele>498.4</ele>
        <time>2026-07-08T13:14:08Z</time>
      </trkpt>
      <trkpt lat="47.14073" lon="6.0481">
        <ele>498.4</ele>
        <time>2026-07-08T13:14:09Z</time>
      </trkpt>
      <trkpt lat="47.14068" lon="6.04814">
        <ele>498.2</ele>
        <time>2026-07-08T13:14:10Z</time>
      </trkpt>
      <trkpt lat="47.14063" lon="6.04818">
        <ele>498</ele>
        <time>2026-07-08T13:14:11Z</time>
      </trkpt>
      <trkpt lat="47.14058" lon="6.04822">
        <ele>498</ele>
        <time>2026-07-08T13:14:12Z</time>
      </trkpt>
      <trkpt lat="47.14053" lon="6.04826">
        <ele>497.8</ele>
        <time>2026-07-08T13:14:13Z</time>
      </trkpt>
      <trkpt lat="47.14048" lon="6.0483">
        <ele>497.4</ele>
        <time>2026-07-08T13:14:14Z</time>
      </trkpt>
      <trkpt lat="47.14043" lon="6.04833">
        <ele>497.2</ele>
        <time>2026-07-08T13:14:15Z</time>
      </trkpt>
      <trkpt lat="47.14038" lon="6.04836">
        <ele>497</ele>
        <time>2026-07-08T13:14:16Z</time>
      </trkpt>
      <trkpt lat="47.14033" lon="6.0484">
        <ele>497</ele>
        <time>2026-07-08T13:14:17Z</time>
      </trkpt>
      <trkpt lat="47.14028" lon="6.04843">
        <ele>497</ele>
        <time>2026-07-08T13:14:18Z</time>
      </trkpt>
      <trkpt lat="47.14023" lon="6.04846">
        <ele>497</ele>
        <time>2026-07-08T13:14:19Z</time>
      </trkpt>
      <trkpt lat="47.14018" lon="6.0485">
        <ele>497</ele>
        <time>2026-07-08T13:14:20Z</time>
      </trkpt>
      <trkpt lat="47.14013" lon="6.04854">
        <ele>496.8</ele>
        <time>2026-07-08T13:14:21Z</time>
      </trkpt>
      <trkpt lat="47.14008" lon="6.04859">
        <ele>496.8</ele>
        <time>2026-07-08T13:14:22Z</time>
      </trkpt>
      <trkpt lat="47.14002" lon="6.04863">
        <ele>497</ele>
        <time>2026-07-08T13:14:23Z</time>
      </trkpt>
      <trkpt lat="47.13997" lon="6.04867">
        <ele>496.8</ele>
        <time>2026-07-08T13:14:24Z</time>
      </trkpt>
      <trkpt lat="47.13992" lon="6.04872">
        <ele>496.8</ele>
        <time>2026-07-08T13:14:25Z</time>
      </trkpt>
      <trkpt lat="47.13986" lon="6.04877">
        <ele>496.8</ele>
        <time>2026-07-08T13:14:26Z</time>
      </trkpt>
      <trkpt lat="47.1398" lon="6.04881">
        <ele>496.6</ele>
        <time>2026-07-08T13:14:27Z</time>
      </trkpt>
      <trkpt lat="47.13974" lon="6.04885">
        <ele>496.6</ele>
        <time>2026-07-08T13:14:28Z</time>
      </trkpt>
      <trkpt lat="47.13968" lon="6.0489">
        <ele>496.6</ele>
        <time>2026-07-08T13:14:29Z</time>
      </trkpt>
      <trkpt lat="47.13963" lon="6.04895">
        <ele>496.4</ele>
        <time>2026-07-08T13:14:30Z</time>
      </trkpt>
      <trkpt lat="47.13957" lon="6.049">
        <ele>496.4</ele>
        <time>2026-07-08T13:14:31Z</time>
      </trkpt>
      <trkpt lat="47.13951" lon="6.04905">
        <ele>496.2</ele>
        <time>2026-07-08T13:14:32Z</time>
      </trkpt>
      <trkpt lat="47.13946" lon="6.0491">
        <ele>496.2</ele>
        <time>2026-07-08T13:14:33Z</time>
      </trkpt>
      <trkpt lat="47.1394" lon="6.04915">
        <ele>496</ele>
        <time>2026-07-08T13:14:34Z</time>
      </trkpt>
      <trkpt lat="47.13935" lon="6.04921">
        <ele>496</ele>
        <time>2026-07-08T13:14:35Z</time>
      </trkpt>
      <trkpt lat="47.13929" lon="6.04927">
        <ele>495.8</ele>
        <time>2026-07-08T13:14:36Z</time>
      </trkpt>
      <trkpt lat="47.13923" lon="6.04932">
        <ele>495.6</ele>
        <time>2026-07-08T13:14:37Z</time>
      </trkpt>
      <trkpt lat="47.13916" lon="6.04938">
        <ele>495.4</ele>
        <time>2026-07-08T13:14:38Z</time>
      </trkpt>
      <trkpt lat="47.1391" lon="6.04943">
        <ele>495.6</ele>
        <time>2026-07-08T13:14:39Z</time>
      </trkpt>
      <trkpt lat="47.13904" lon="6.04948">
        <ele>495.4</ele>
        <time>2026-07-08T13:14:40Z</time>
      </trkpt>
      <trkpt lat="47.13898" lon="6.04953">
        <ele>495.4</ele>
        <time>2026-07-08T13:14:41Z</time>
      </trkpt>
      <trkpt lat="47.13891" lon="6.04957">
        <ele>495.2</ele>
        <time>2026-07-08T13:14:42Z</time>
      </trkpt>
      <trkpt lat="47.13885" lon="6.04961">
        <ele>495.4</ele>
        <time>2026-07-08T13:14:43Z</time>
      </trkpt>
      <trkpt lat="47.13879" lon="6.04966">
        <ele>495.4</ele>
        <time>2026-07-08T13:14:44Z</time>
      </trkpt>
      <trkpt lat="47.13873" lon="6.04971">
        <ele>495.2</ele>
        <time>2026-07-08T13:14:45Z</time>
      </trkpt>
      <trkpt lat="47.13866" lon="6.04975">
        <ele>495.2</ele>
        <time>2026-07-08T13:14:46Z</time>
      </trkpt>
      <trkpt lat="47.1386" lon="6.0498">
        <ele>495</ele>
        <time>2026-07-08T13:14:47Z</time>
      </trkpt>
      <trkpt lat="47.13854" lon="6.04985">
        <ele>494.8</ele>
        <time>2026-07-08T13:14:48Z</time>
      </trkpt>
      <trkpt lat="47.13848" lon="6.0499">
        <ele>494.8</ele>
        <time>2026-07-08T13:14:49Z</time>
      </trkpt>
      <trkpt lat="47.13841" lon="6.04994">
        <ele>494.8</ele>
        <time>2026-07-08T13:14:50Z</time>
      </trkpt>
      <trkpt lat="47.13835" lon="6.04999">
        <ele>494.8</ele>
        <time>2026-07-08T13:14:51Z</time>
      </trkpt>
      <trkpt lat="47.13829" lon="6.05003">
        <ele>494.6</ele>
        <time>2026-07-08T13:14:52Z</time>
      </trkpt>
      <trkpt lat="47.13823" lon="6.05008">
        <ele>494.4</ele>
        <time>2026-07-08T13:14:53Z</time>
      </trkpt>
      <trkpt lat="47.13817" lon="6.05013">
        <ele>494.4</ele>
        <time>2026-07-08T13:14:54Z</time>
      </trkpt>
      <trkpt lat="47.13811" lon="6.05018">
        <ele>494.2</ele>
        <time>2026-07-08T13:14:55Z</time>
      </trkpt>
      <trkpt lat="47.13805" lon="6.05023">
        <ele>494.2</ele>
        <time>2026-07-08T13:14:56Z</time>
      </trkpt>
      <trkpt lat="47.13799" lon="6.05028">
        <ele>494.2</ele>
        <time>2026-07-08T13:14:57Z</time>
      </trkpt>
      <trkpt lat="47.13793" lon="6.05032">
        <ele>494.2</ele>
        <time>2026-07-08T13:14:58Z</time>
      </trkpt>
      <trkpt lat="47.13786" lon="6.05037">
        <ele>494.2</ele>
        <time>2026-07-08T13:14:59Z</time>
      </trkpt>
      <trkpt lat="47.1378" lon="6.05042">
        <ele>494.2</ele>
        <time>2026-07-08T13:15:00Z</time>
      </trkpt>
      <trkpt lat="47.13774" lon="6.05046">
        <ele>494</ele>
        <time>2026-07-08T13:15:01Z</time>
      </trkpt>
      <trkpt lat="47.13768" lon="6.05051">
        <ele>494</ele>
        <time>2026-07-08T13:15:02Z</time>
      </trkpt>
      <trkpt lat="47.13762" lon="6.05056">
        <ele>494</ele>
        <time>2026-07-08T13:15:03Z</time>
      </trkpt>
      <trkpt lat="47.13756" lon="6.0506">
        <ele>494.2</ele>
        <time>2026-07-08T13:15:04Z</time>
      </trkpt>
      <trkpt lat="47.1375" lon="6.05065">
        <ele>494</ele>
        <time>2026-07-08T13:15:05Z</time>
      </trkpt>
      <trkpt lat="47.13744" lon="6.05069">
        <ele>494</ele>
        <time>2026-07-08T13:15:06Z</time>
      </trkpt>
      <trkpt lat="47.13738" lon="6.05073">
        <ele>494.2</ele>
        <time>2026-07-08T13:15:07Z</time>
      </trkpt>
      <trkpt lat="47.13732" lon="6.05078">
        <ele>494.2</ele>
        <time>2026-07-08T13:15:08Z</time>
      </trkpt>
      <trkpt lat="47.13726" lon="6.05083">
        <ele>494.2</ele>
        <time>2026-07-08T13:15:09Z</time>
      </trkpt>
      <trkpt lat="47.1372" lon="6.05087">
        <ele>494.2</ele>
        <time>2026-07-08T13:15:10Z</time>
      </trkpt>
      <trkpt lat="47.13715" lon="6.05092">
        <ele>494.2</ele>
        <time>2026-07-08T13:15:11Z</time>
      </trkpt>
      <trkpt lat="47.13709" lon="6.05096">
        <ele>494.2</ele>
        <time>2026-07-08T13:15:12Z</time>
      </trkpt>
      <trkpt lat="47.13704" lon="6.05101">
        <ele>494.2</ele>
        <time>2026-07-08T13:15:13Z</time>
      </trkpt>
      <trkpt lat="47.13698" lon="6.05105">
        <ele>494.2</ele>
        <time>2026-07-08T13:15:14Z</time>
      </trkpt>
      <trkpt lat="47.13693" lon="6.05109">
        <ele>494.2</ele>
        <time>2026-07-08T13:15:15Z</time>
      </trkpt>
      <trkpt lat="47.13688" lon="6.05112">
        <ele>494.4</ele>
        <time>2026-07-08T13:15:16Z</time>
      </trkpt>
      <trkpt lat="47.13684" lon="6.05116">
        <ele>494.4</ele>
        <time>2026-07-08T13:15:17Z</time>
      </trkpt>
      <trkpt lat="47.13679" lon="6.05119">
        <ele>494.4</ele>
        <time>2026-07-08T13:15:18Z</time>
      </trkpt>
      <trkpt lat="47.13675" lon="6.05123">
        <ele>494.6</ele>
        <time>2026-07-08T13:15:19Z</time>
      </trkpt>
      <trkpt lat="47.1367" lon="6.05126">
        <ele>494.4</ele>
        <time>2026-07-08T13:15:20Z</time>
      </trkpt>
      <trkpt lat="47.13666" lon="6.0513">
        <ele>494.4</ele>
        <time>2026-07-08T13:15:21Z</time>
      </trkpt>
      <trkpt lat="47.13661" lon="6.05133">
        <ele>494.6</ele>
        <time>2026-07-08T13:15:22Z</time>
      </trkpt>
      <trkpt lat="47.13657" lon="6.05137">
        <ele>494.8</ele>
        <time>2026-07-08T13:15:23Z</time>
      </trkpt>
      <trkpt lat="47.13653" lon="6.0514">
        <ele>495</ele>
        <time>2026-07-08T13:15:24Z</time>
      </trkpt>
      <trkpt lat="47.13649" lon="6.05143">
        <ele>495</ele>
        <time>2026-07-08T13:15:25Z</time>
      </trkpt>
      <trkpt lat="47.13645" lon="6.05146">
        <ele>495.2</ele>
        <time>2026-07-08T13:15:26Z</time>
      </trkpt>
      <trkpt lat="47.13641" lon="6.05149">
        <ele>495.2</ele>
        <time>2026-07-08T13:15:27Z</time>
      </trkpt>
      <trkpt lat="47.13636" lon="6.05153">
        <ele>495.2</ele>
        <time>2026-07-08T13:15:28Z</time>
      </trkpt>
      <trkpt lat="47.13632" lon="6.05156">
        <ele>495.4</ele>
        <time>2026-07-08T13:15:29Z</time>
      </trkpt>
      <trkpt lat="47.13627" lon="6.0516">
        <ele>495.8</ele>
        <time>2026-07-08T13:15:30Z</time>
      </trkpt>
      <trkpt lat="47.13623" lon="6.05164">
        <ele>495.8</ele>
        <time>2026-07-08T13:15:31Z</time>
      </trkpt>
      <trkpt lat="47.13618" lon="6.05168">
        <ele>496.2</ele>
        <time>2026-07-08T13:15:32Z</time>
      </trkpt>
      <trkpt lat="47.13613" lon="6.05172">
        <ele>496.2</ele>
        <time>2026-07-08T13:15:33Z</time>
      </trkpt>
      <trkpt lat="47.13609" lon="6.05176">
        <ele>496.4</ele>
        <time>2026-07-08T13:15:34Z</time>
      </trkpt>
      <trkpt lat="47.13604" lon="6.0518">
        <ele>496.6</ele>
        <time>2026-07-08T13:15:35Z</time>
      </trkpt>
      <trkpt lat="47.136" lon="6.05184">
        <ele>496.6</ele>
        <time>2026-07-08T13:15:36Z</time>
      </trkpt>
      <trkpt lat="47.13595" lon="6.05188">
        <ele>496.8</ele>
        <time>2026-07-08T13:15:37Z</time>
      </trkpt>
      <trkpt lat="47.1359" lon="6.05192">
        <ele>496.6</ele>
        <time>2026-07-08T13:15:38Z</time>
      </trkpt>
      <trkpt lat="47.13586" lon="6.05196">
        <ele>496.8</ele>
        <time>2026-07-08T13:15:39Z</time>
      </trkpt>
      <trkpt lat="47.13582" lon="6.05199">
        <ele>496.6</ele>
        <time>2026-07-08T13:15:40Z</time>
      </trkpt>
      <trkpt lat="47.13577" lon="6.05202">
        <ele>496.8</ele>
        <time>2026-07-08T13:15:41Z</time>
      </trkpt>
      <trkpt lat="47.13573" lon="6.05206">
        <ele>496.8</ele>
        <time>2026-07-08T13:15:42Z</time>
      </trkpt>
      <trkpt lat="47.13569" lon="6.05209">
        <ele>496.8</ele>
        <time>2026-07-08T13:15:43Z</time>
      </trkpt>
      <trkpt lat="47.13564" lon="6.05213">
        <ele>496.8</ele>
        <time>2026-07-08T13:15:44Z</time>
      </trkpt>
      <trkpt lat="47.13559" lon="6.05217">
        <ele>496.8</ele>
        <time>2026-07-08T13:15:45Z</time>
      </trkpt>
      <trkpt lat="47.13555" lon="6.05221">
        <ele>496.8</ele>
        <time>2026-07-08T13:15:46Z</time>
      </trkpt>
      <trkpt lat="47.1355" lon="6.05225">
        <ele>497</ele>
        <time>2026-07-08T13:15:47Z</time>
      </trkpt>
      <trkpt lat="47.13545" lon="6.05229">
        <ele>497</ele>
        <time>2026-07-08T13:15:48Z</time>
      </trkpt>
      <trkpt lat="47.1354" lon="6.05233">
        <ele>497.2</ele>
        <time>2026-07-08T13:15:49Z</time>
      </trkpt>
      <trkpt lat="47.13535" lon="6.05237">
        <ele>497.2</ele>
        <time>2026-07-08T13:15:50Z</time>
      </trkpt>
      <trkpt lat="47.1353" lon="6.05241">
        <ele>497.4</ele>
        <time>2026-07-08T13:15:51Z</time>
      </trkpt>
      <trkpt lat="47.13525" lon="6.05245">
        <ele>497.2</ele>
        <time>2026-07-08T13:15:52Z</time>
      </trkpt>
      <trkpt lat="47.1352" lon="6.05249">
        <ele>497.2</ele>
        <time>2026-07-08T13:15:53Z</time>
      </trkpt>
      <trkpt lat="47.13515" lon="6.05253">
        <ele>497.4</ele>
        <time>2026-07-08T13:15:54Z</time>
      </trkpt>
      <trkpt lat="47.1351" lon="6.05257">
        <ele>497.2</ele>
        <time>2026-07-08T13:15:55Z</time>
      </trkpt>
      <trkpt lat="47.13505" lon="6.05261">
        <ele>497.4</ele>
        <time>2026-07-08T13:15:56Z</time>
      </trkpt>
      <trkpt lat="47.13499" lon="6.05266">
        <ele>497.2</ele>
        <time>2026-07-08T13:15:57Z</time>
      </trkpt>
      <trkpt lat="47.13494" lon="6.0527">
        <ele>497.4</ele>
        <time>2026-07-08T13:15:58Z</time>
      </trkpt>
      <trkpt lat="47.13489" lon="6.05275">
        <ele>497.4</ele>
        <time>2026-07-08T13:15:59Z</time>
      </trkpt>
      <trkpt lat="47.13483" lon="6.05279">
        <ele>497.2</ele>
        <time>2026-07-08T13:16:00Z</time>
      </trkpt>
      <trkpt lat="47.13478" lon="6.05284">
        <ele>497.4</ele>
        <time>2026-07-08T13:16:01Z</time>
      </trkpt>
      <trkpt lat="47.13472" lon="6.05289">
        <ele>497.4</ele>
        <time>2026-07-08T13:16:02Z</time>
      </trkpt>
      <trkpt lat="47.13467" lon="6.05293">
        <ele>497.4</ele>
        <time>2026-07-08T13:16:03Z</time>
      </trkpt>
      <trkpt lat="47.13461" lon="6.05298">
        <ele>497.4</ele>
        <time>2026-07-08T13:16:04Z</time>
      </trkpt>
      <trkpt lat="47.13455" lon="6.05303">
        <ele>497.4</ele>
        <time>2026-07-08T13:16:05Z</time>
      </trkpt>
      <trkpt lat="47.1345" lon="6.05307">
        <ele>497.4</ele>
        <time>2026-07-08T13:16:06Z</time>
      </trkpt>
      <trkpt lat="47.13444" lon="6.05311">
        <ele>497.4</ele>
        <time>2026-07-08T13:16:07Z</time>
      </trkpt>
      <trkpt lat="47.13439" lon="6.05315">
        <ele>497.4</ele>
        <time>2026-07-08T13:16:08Z</time>
      </trkpt>
      <trkpt lat="47.13433" lon="6.0532">
        <ele>497.4</ele>
        <time>2026-07-08T13:16:09Z</time>
      </trkpt>
      <trkpt lat="47.13428" lon="6.05324">
        <ele>497.4</ele>
        <time>2026-07-08T13:16:10Z</time>
      </trkpt>
      <trkpt lat="47.13423" lon="6.05328">
        <ele>497.4</ele>
        <time>2026-07-08T13:16:11Z</time>
      </trkpt>
      <trkpt lat="47.13418" lon="6.05331">
        <ele>497.4</ele>
        <time>2026-07-08T13:16:12Z</time>
      </trkpt>
      <trkpt lat="47.13413" lon="6.05335">
        <ele>497.2</ele>
        <time>2026-07-08T13:16:13Z</time>
      </trkpt>
      <trkpt lat="47.13408" lon="6.05338">
        <ele>497.6</ele>
        <time>2026-07-08T13:16:14Z</time>
      </trkpt>
      <trkpt lat="47.13404" lon="6.05342">
        <ele>497.6</ele>
        <time>2026-07-08T13:16:15Z</time>
      </trkpt>
      <trkpt lat="47.13399" lon="6.05345">
        <ele>497.6</ele>
        <time>2026-07-08T13:16:16Z</time>
      </trkpt>
      <trkpt lat="47.13395" lon="6.05349">
        <ele>497.6</ele>
        <time>2026-07-08T13:16:17Z</time>
      </trkpt>
      <trkpt lat="47.13391" lon="6.05352">
        <ele>498</ele>
        <time>2026-07-08T13:16:18Z</time>
      </trkpt>
      <trkpt lat="47.13386" lon="6.05356">
        <ele>498</ele>
        <time>2026-07-08T13:16:19Z</time>
      </trkpt>
      <trkpt lat="47.13382" lon="6.05359">
        <ele>498.2</ele>
        <time>2026-07-08T13:16:20Z</time>
      </trkpt>
      <trkpt lat="47.13378" lon="6.05363">
        <ele>498.4</ele>
        <time>2026-07-08T13:16:21Z</time>
      </trkpt>
      <trkpt lat="47.13374" lon="6.05366">
        <ele>498.8</ele>
        <time>2026-07-08T13:16:22Z</time>
      </trkpt>
      <trkpt lat="47.1337" lon="6.05369">
        <ele>499</ele>
        <time>2026-07-08T13:16:23Z</time>
      </trkpt>
      <trkpt lat="47.13366" lon="6.05373">
        <ele>499.2</ele>
        <time>2026-07-08T13:16:24Z</time>
      </trkpt>
      <trkpt lat="47.13361" lon="6.05376">
        <ele>499.4</ele>
        <time>2026-07-08T13:16:25Z</time>
      </trkpt>
      <trkpt lat="47.13357" lon="6.05379">
        <ele>499.6</ele>
        <time>2026-07-08T13:16:26Z</time>
      </trkpt>
      <trkpt lat="47.13353" lon="6.05382">
        <ele>499.8</ele>
        <time>2026-07-08T13:16:27Z</time>
      </trkpt>
      <trkpt lat="47.13349" lon="6.05385">
        <ele>500.2</ele>
        <time>2026-07-08T13:16:28Z</time>
      </trkpt>
      <trkpt lat="47.13346" lon="6.05388">
        <ele>500.2</ele>
        <time>2026-07-08T13:16:29Z</time>
      </trkpt>
      <trkpt lat="47.13342" lon="6.05391">
        <ele>500.6</ele>
        <time>2026-07-08T13:16:30Z</time>
      </trkpt>
      <trkpt lat="47.13339" lon="6.05394">
        <ele>501</ele>
        <time>2026-07-08T13:16:31Z</time>
      </trkpt>
      <trkpt lat="47.13335" lon="6.05397">
        <ele>501.2</ele>
        <time>2026-07-08T13:16:32Z</time>
      </trkpt>
      <trkpt lat="47.13332" lon="6.054">
        <ele>501.2</ele>
        <time>2026-07-08T13:16:33Z</time>
      </trkpt>
      <trkpt lat="47.13329" lon="6.05403">
        <ele>501.8</ele>
        <time>2026-07-08T13:16:34Z</time>
      </trkpt>
      <trkpt lat="47.13326" lon="6.05406">
        <ele>501.8</ele>
        <time>2026-07-08T13:16:35Z</time>
      </trkpt>
      <trkpt lat="47.13322" lon="6.05409">
        <ele>501.8</ele>
        <time>2026-07-08T13:16:36Z</time>
      </trkpt>
      <trkpt lat="47.13319" lon="6.05412">
        <ele>502.2</ele>
        <time>2026-07-08T13:16:37Z</time>
      </trkpt>
      <trkpt lat="47.13315" lon="6.05415">
        <ele>502.6</ele>
        <time>2026-07-08T13:16:38Z</time>
      </trkpt>
      <trkpt lat="47.13312" lon="6.05418">
        <ele>502.8</ele>
        <time>2026-07-08T13:16:39Z</time>
      </trkpt>
      <trkpt lat="47.13309" lon="6.05422">
        <ele>503</ele>
        <time>2026-07-08T13:16:40Z</time>
      </trkpt>
      <trkpt lat="47.13305" lon="6.05426">
        <ele>503.2</ele>
        <time>2026-07-08T13:16:41Z</time>
      </trkpt>
      <trkpt lat="47.13301" lon="6.0543">
        <ele>503.4</ele>
        <time>2026-07-08T13:16:42Z</time>
      </trkpt>
      <trkpt lat="47.13297" lon="6.05434">
        <ele>503.6</ele>
        <time>2026-07-08T13:16:43Z</time>
      </trkpt>
      <trkpt lat="47.13293" lon="6.05439">
        <ele>504</ele>
        <time>2026-07-08T13:16:44Z</time>
      </trkpt>
      <trkpt lat="47.13289" lon="6.05444">
        <ele>504</ele>
        <time>2026-07-08T13:16:45Z</time>
      </trkpt>
      <trkpt lat="47.13285" lon="6.05448">
        <ele>504.4</ele>
        <time>2026-07-08T13:16:46Z</time>
      </trkpt>
      <trkpt lat="47.13281" lon="6.05453">
        <ele>504.4</ele>
        <time>2026-07-08T13:16:47Z</time>
      </trkpt>
      <trkpt lat="47.13276" lon="6.05459">
        <ele>504.4</ele>
        <time>2026-07-08T13:16:48Z</time>
      </trkpt>
      <trkpt lat="47.13271" lon="6.05464">
        <ele>504.2</ele>
        <time>2026-07-08T13:16:49Z</time>
      </trkpt>
      <trkpt lat="47.13266" lon="6.0547">
        <ele>504.4</ele>
        <time>2026-07-08T13:16:50Z</time>
      </trkpt>
      <trkpt lat="47.13261" lon="6.05476">
        <ele>504.2</ele>
        <time>2026-07-08T13:16:51Z</time>
      </trkpt>
      <trkpt lat="47.13255" lon="6.05483">
        <ele>504.4</ele>
        <time>2026-07-08T13:16:52Z</time>
      </trkpt>
      <trkpt lat="47.13249" lon="6.05491">
        <ele>504.4</ele>
        <time>2026-07-08T13:16:53Z</time>
      </trkpt>
      <trkpt lat="47.13244" lon="6.05498">
        <ele>504.2</ele>
        <time>2026-07-08T13:16:54Z</time>
      </trkpt>
      <trkpt lat="47.13237" lon="6.05506">
        <ele>504.4</ele>
        <time>2026-07-08T13:16:55Z</time>
      </trkpt>
      <trkpt lat="47.13231" lon="6.05514">
        <ele>504.2</ele>
        <time>2026-07-08T13:16:56Z</time>
      </trkpt>
      <trkpt lat="47.13224" lon="6.05522">
        <ele>504.2</ele>
        <time>2026-07-08T13:16:57Z</time>
      </trkpt>
      <trkpt lat="47.13217" lon="6.0553">
        <ele>504</ele>
        <time>2026-07-08T13:16:58Z</time>
      </trkpt>
      <trkpt lat="47.13211" lon="6.05539">
        <ele>503.8</ele>
        <time>2026-07-08T13:16:59Z</time>
      </trkpt>
      <trkpt lat="47.13204" lon="6.05547">
        <ele>503.6</ele>
        <time>2026-07-08T13:17:00Z</time>
      </trkpt>
      <trkpt lat="47.13198" lon="6.05556">
        <ele>503</ele>
        <time>2026-07-08T13:17:01Z</time>
      </trkpt>
      <trkpt lat="47.13191" lon="6.05565">
        <ele>502.4</ele>
        <time>2026-07-08T13:17:02Z</time>
      </trkpt>
      <trkpt lat="47.13185" lon="6.05573">
        <ele>501.6</ele>
        <time>2026-07-08T13:17:03Z</time>
      </trkpt>
      <trkpt lat="47.13179" lon="6.05581">
        <ele>501</ele>
        <time>2026-07-08T13:17:04Z</time>
      </trkpt>
      <trkpt lat="47.13173" lon="6.05589">
        <ele>500.8</ele>
        <time>2026-07-08T13:17:05Z</time>
      </trkpt>
      <trkpt lat="47.13168" lon="6.05597">
        <ele>500.4</ele>
        <time>2026-07-08T13:17:06Z</time>
      </trkpt>
      <trkpt lat="47.13163" lon="6.05604">
        <ele>500</ele>
        <time>2026-07-08T13:17:07Z</time>
      </trkpt>
      <trkpt lat="47.13159" lon="6.05612">
        <ele>499.8</ele>
        <time>2026-07-08T13:17:08Z</time>
      </trkpt>
      <trkpt lat="47.13154" lon="6.05618">
        <ele>499.6</ele>
        <time>2026-07-08T13:17:09Z</time>
      </trkpt>
      <trkpt lat="47.1315" lon="6.05624">
        <ele>499.4</ele>
        <time>2026-07-08T13:17:10Z</time>
      </trkpt>
      <trkpt lat="47.13146" lon="6.05628">
        <ele>499.2</ele>
        <time>2026-07-08T13:17:11Z</time>
      </trkpt>
      <trkpt lat="47.13142" lon="6.05632">
        <ele>499.2</ele>
        <time>2026-07-08T13:17:12Z</time>
      </trkpt>
      <trkpt lat="47.13139" lon="6.05636">
        <ele>499.2</ele>
        <time>2026-07-08T13:17:13Z</time>
      </trkpt>
      <trkpt lat="47.13136" lon="6.05639">
        <ele>499.2</ele>
        <time>2026-07-08T13:17:14Z</time>
      </trkpt>
      <trkpt lat="47.13133" lon="6.05642">
        <ele>499.2</ele>
        <time>2026-07-08T13:17:15Z</time>
      </trkpt>
      <trkpt lat="47.13131" lon="6.05644">
        <ele>499.2</ele>
        <time>2026-07-08T13:17:16Z</time>
      </trkpt>
      <trkpt lat="47.13129" lon="6.05647">
        <ele>499.2</ele>
        <time>2026-07-08T13:17:17Z</time>
      </trkpt>
      <trkpt lat="47.13127" lon="6.05649">
        <ele>499.2</ele>
        <time>2026-07-08T13:17:18Z</time>
      </trkpt>
      <trkpt lat="47.13125" lon="6.05652">
        <ele>499.2</ele>
        <time>2026-07-08T13:17:19Z</time>
      </trkpt>
      <trkpt lat="47.13123" lon="6.05654">
        <ele>499.2</ele>
        <time>2026-07-08T13:17:20Z</time>
      </trkpt>
      <trkpt lat="47.13122" lon="6.05656">
        <ele>499.6</ele>
        <time>2026-07-08T13:17:21Z</time>
      </trkpt>
      <trkpt lat="47.1312" lon="6.05659">
        <ele>500</ele>
        <time>2026-07-08T13:17:22Z</time>
      </trkpt>
      <trkpt lat="47.13118" lon="6.05662">
        <ele>500</ele>
        <time>2026-07-08T13:17:23Z</time>
      </trkpt>
      <trkpt lat="47.13116" lon="6.05664">
        <ele>500.4</ele>
        <time>2026-07-08T13:17:24Z</time>
      </trkpt>
      <trkpt lat="47.13114" lon="6.05667">
        <ele>500.6</ele>
        <time>2026-07-08T13:17:25Z</time>
      </trkpt>
      <trkpt lat="47.13112" lon="6.05669">
        <ele>501</ele>
        <time>2026-07-08T13:17:26Z</time>
      </trkpt>
      <trkpt lat="47.1311" lon="6.05671">
        <ele>501.2</ele>
        <time>2026-07-08T13:17:27Z</time>
      </trkpt>
      <trkpt lat="47.13108" lon="6.05674">
        <ele>501.6</ele>
        <time>2026-07-08T13:17:28Z</time>
      </trkpt>
      <trkpt lat="47.13106" lon="6.05677">
        <ele>501.8</ele>
        <time>2026-07-08T13:17:29Z</time>
      </trkpt>
      <trkpt lat="47.13104" lon="6.05679">
        <ele>502</ele>
        <time>2026-07-08T13:17:30Z</time>
      </trkpt>
      <trkpt lat="47.13102" lon="6.05681">
        <ele>502.4</ele>
        <time>2026-07-08T13:17:31Z</time>
      </trkpt>
      <trkpt lat="47.131" lon="6.05684">
        <ele>502.6</ele>
        <time>2026-07-08T13:17:32Z</time>
      </trkpt>
      <trkpt lat="47.13098" lon="6.05686">
        <ele>502.8</ele>
        <time>2026-07-08T13:17:33Z</time>
      </trkpt>
      <trkpt lat="47.13095" lon="6.05689">
        <ele>503</ele>
        <time>2026-07-08T13:17:34Z</time>
      </trkpt>
      <trkpt lat="47.13093" lon="6.05692">
        <ele>503</ele>
        <time>2026-07-08T13:17:35Z</time>
      </trkpt>
      <trkpt lat="47.13091" lon="6.05694">
        <ele>503.2</ele>
        <time>2026-07-08T13:17:36Z</time>
      </trkpt>
      <trkpt lat="47.13089" lon="6.05697">
        <ele>503.4</ele>
        <time>2026-07-08T13:17:37Z</time>
      </trkpt>
      <trkpt lat="47.13087" lon="6.05699">
        <ele>503.4</ele>
        <time>2026-07-08T13:17:38Z</time>
      </trkpt>
      <trkpt lat="47.13084" lon="6.05702">
        <ele>503.6</ele>
        <time>2026-07-08T13:17:39Z</time>
      </trkpt>
      <trkpt lat="47.13082" lon="6.05704">
        <ele>504</ele>
        <time>2026-07-08T13:17:40Z</time>
      </trkpt>
      <trkpt lat="47.1308" lon="6.05707">
        <ele>504</ele>
        <time>2026-07-08T13:17:41Z</time>
      </trkpt>
      <trkpt lat="47.13078" lon="6.0571">
        <ele>504</ele>
        <time>2026-07-08T13:17:42Z</time>
      </trkpt>
      <trkpt lat="47.13076" lon="6.05713">
        <ele>504.4</ele>
        <time>2026-07-08T13:17:43Z</time>
      </trkpt>
      <trkpt lat="47.13075" lon="6.05715">
        <ele>504.4</ele>
        <time>2026-07-08T13:17:44Z</time>
      </trkpt>
      <trkpt lat="47.13073" lon="6.05717">
        <ele>504.6</ele>
        <time>2026-07-08T13:17:45Z</time>
      </trkpt>
      <trkpt lat="47.1307" lon="6.0572">
        <ele>505</ele>
        <time>2026-07-08T13:17:46Z</time>
      </trkpt>
      <trkpt lat="47.13068" lon="6.05722">
        <ele>505</ele>
        <time>2026-07-08T13:17:47Z</time>
      </trkpt>
      <trkpt lat="47.13067" lon="6.05725">
        <ele>505.2</ele>
        <time>2026-07-08T13:17:48Z</time>
      </trkpt>
      <trkpt lat="47.13065" lon="6.05727">
        <ele>505.2</ele>
        <time>2026-07-08T13:17:49Z</time>
      </trkpt>
      <trkpt lat="47.13063" lon="6.05729">
        <ele>505.4</ele>
        <time>2026-07-08T13:17:50Z</time>
      </trkpt>
      <trkpt lat="47.13061" lon="6.05732">
        <ele>505.6</ele>
        <time>2026-07-08T13:17:51Z</time>
      </trkpt>
      <trkpt lat="47.13059" lon="6.05734">
        <ele>505.8</ele>
        <time>2026-07-08T13:17:52Z</time>
      </trkpt>
      <trkpt lat="47.13057" lon="6.05737">
        <ele>506</ele>
        <time>2026-07-08T13:17:53Z</time>
      </trkpt>
      <trkpt lat="47.13055" lon="6.0574">
        <ele>506</ele>
        <time>2026-07-08T13:17:54Z</time>
      </trkpt>
      <trkpt lat="47.13053" lon="6.05743">
        <ele>506.2</ele>
        <time>2026-07-08T13:17:55Z</time>
      </trkpt>
      <trkpt lat="47.13051" lon="6.05745">
        <ele>506.6</ele>
        <time>2026-07-08T13:17:56Z</time>
      </trkpt>
      <trkpt lat="47.13049" lon="6.05747">
        <ele>506.8</ele>
        <time>2026-07-08T13:17:57Z</time>
      </trkpt>
      <trkpt lat="47.13047" lon="6.05749">
        <ele>506.8</ele>
        <time>2026-07-08T13:17:58Z</time>
      </trkpt>
      <trkpt lat="47.13045" lon="6.05751">
        <ele>507</ele>
        <time>2026-07-08T13:17:59Z</time>
      </trkpt>
      <trkpt lat="47.13044" lon="6.05754">
        <ele>507.4</ele>
        <time>2026-07-08T13:18:00Z</time>
      </trkpt>
      <trkpt lat="47.13042" lon="6.05756">
        <ele>507.4</ele>
        <time>2026-07-08T13:18:01Z</time>
      </trkpt>
      <trkpt lat="47.1304" lon="6.05758">
        <ele>507.8</ele>
        <time>2026-07-08T13:18:02Z</time>
      </trkpt>
      <trkpt lat="47.13039" lon="6.05758">
        <ele>507.8</ele>
        <time>2026-07-08T13:18:03Z</time>
      </trkpt>
      <trkpt lat="47.13037" lon="6.05759">
        <ele>508</ele>
        <time>2026-07-08T13:18:04Z</time>
      </trkpt>
      <trkpt lat="47.13036" lon="6.05761">
        <ele>508.2</ele>
        <time>2026-07-08T13:18:05Z</time>
      </trkpt>
      <trkpt lat="47.13035" lon="6.05762">
        <ele>508.4</ele>
        <time>2026-07-08T13:18:06Z</time>
      </trkpt>
      <trkpt lat="47.13034" lon="6.05764">
        <ele>508.6</ele>
        <time>2026-07-08T13:18:07Z</time>
      </trkpt>
      <trkpt lat="47.13033" lon="6.05767">
        <ele>508.8</ele>
        <time>2026-07-08T13:18:08Z</time>
      </trkpt>
      <trkpt lat="47.13032" lon="6.05769">
        <ele>509.2</ele>
        <time>2026-07-08T13:18:09Z</time>
      </trkpt>
      <trkpt lat="47.1303" lon="6.05771">
        <ele>509.4</ele>
        <time>2026-07-08T13:18:10Z</time>
      </trkpt>
      <trkpt lat="47.13029" lon="6.05772">
        <ele>509.6</ele>
        <time>2026-07-08T13:18:11Z</time>
      </trkpt>
      <trkpt lat="47.13027" lon="6.05774">
        <ele>509.8</ele>
        <time>2026-07-08T13:18:12Z</time>
      </trkpt>
      <trkpt lat="47.13026" lon="6.05775">
        <ele>510.2</ele>
        <time>2026-07-08T13:18:13Z</time>
      </trkpt>
      <trkpt lat="47.13024" lon="6.05776">
        <ele>510.6</ele>
        <time>2026-07-08T13:18:14Z</time>
      </trkpt>
      <trkpt lat="47.13023" lon="6.05778">
        <ele>510.6</ele>
        <time>2026-07-08T13:18:15Z</time>
      </trkpt>
      <trkpt lat="47.13021" lon="6.05779">
        <ele>511</ele>
        <time>2026-07-08T13:18:16Z</time>
      </trkpt>
      <trkpt lat="47.1302" lon="6.05781">
        <ele>511.2</ele>
        <time>2026-07-08T13:18:17Z</time>
      </trkpt>
      <trkpt lat="47.13018" lon="6.05783">
        <ele>511.4</ele>
        <time>2026-07-08T13:18:18Z</time>
      </trkpt>
      <trkpt lat="47.13016" lon="6.05785">
        <ele>511.6</ele>
        <time>2026-07-08T13:18:19Z</time>
      </trkpt>
      <trkpt lat="47.13015" lon="6.05787">
        <ele>512</ele>
        <time>2026-07-08T13:18:20Z</time>
      </trkpt>
      <trkpt lat="47.13013" lon="6.05788">
        <ele>512.2</ele>
        <time>2026-07-08T13:18:21Z</time>
      </trkpt>
      <trkpt lat="47.13012" lon="6.0579">
        <ele>512.6</ele>
        <time>2026-07-08T13:18:22Z</time>
      </trkpt>
      <trkpt lat="47.1301" lon="6.05792">
        <ele>512.8</ele>
        <time>2026-07-08T13:18:23Z</time>
      </trkpt>
      <trkpt lat="47.13008" lon="6.05794">
        <ele>513</ele>
        <time>2026-07-08T13:18:24Z</time>
      </trkpt>
      <trkpt lat="47.13006" lon="6.05796">
        <ele>513.4</ele>
        <time>2026-07-08T13:18:25Z</time>
      </trkpt>
      <trkpt lat="47.13004" lon="6.05798">
        <ele>513.4</ele>
        <time>2026-07-08T13:18:26Z</time>
      </trkpt>
      <trkpt lat="47.13002" lon="6.058">
        <ele>513.8</ele>
        <time>2026-07-08T13:18:27Z</time>
      </trkpt>
      <trkpt lat="47.13" lon="6.05802">
        <ele>513.8</ele>
        <time>2026-07-08T13:18:28Z</time>
      </trkpt>
      <trkpt lat="47.12998" lon="6.05804">
        <ele>514.2</ele>
        <time>2026-07-08T13:18:29Z</time>
      </trkpt>
      <trkpt lat="47.12996" lon="6.05806">
        <ele>514.6</ele>
        <time>2026-07-08T13:18:30Z</time>
      </trkpt>
      <trkpt lat="47.12995" lon="6.05808">
        <ele>514.6</ele>
        <time>2026-07-08T13:18:31Z</time>
      </trkpt>
      <trkpt lat="47.12993" lon="6.0581">
        <ele>515.2</ele>
        <time>2026-07-08T13:18:32Z</time>
      </trkpt>
      <trkpt lat="47.12992" lon="6.05812">
        <ele>515.4</ele>
        <time>2026-07-08T13:18:33Z</time>
      </trkpt>
      <trkpt lat="47.12991" lon="6.05814">
        <ele>515.6</ele>
        <time>2026-07-08T13:18:34Z</time>
      </trkpt>
      <trkpt lat="47.1299" lon="6.05816">
        <ele>516</ele>
        <time>2026-07-08T13:18:35Z</time>
      </trkpt>
      <trkpt lat="47.12989" lon="6.05818">
        <ele>516.2</ele>
        <time>2026-07-08T13:18:36Z</time>
      </trkpt>
      <trkpt lat="47.12988" lon="6.0582">
        <ele>516.4</ele>
        <time>2026-07-08T13:18:37Z</time>
      </trkpt>
      <trkpt lat="47.12987" lon="6.05822">
        <ele>516.8</ele>
        <time>2026-07-08T13:18:38Z</time>
      </trkpt>
      <trkpt lat="47.12985" lon="6.05824">
        <ele>516.8</ele>
        <time>2026-07-08T13:18:39Z</time>
      </trkpt>
      <trkpt lat="47.12983" lon="6.05826">
        <ele>517.2</ele>
        <time>2026-07-08T13:18:40Z</time>
      </trkpt>
      <trkpt lat="47.12982" lon="6.05827">
        <ele>517.6</ele>
        <time>2026-07-08T13:18:41Z</time>
      </trkpt>
      <trkpt lat="47.1298" lon="6.05829">
        <ele>517.6</ele>
        <time>2026-07-08T13:18:42Z</time>
      </trkpt>
      <trkpt lat="47.12979" lon="6.05832">
        <ele>518</ele>
        <time>2026-07-08T13:18:43Z</time>
      </trkpt>
      <trkpt lat="47.12978" lon="6.05834">
        <ele>518.2</ele>
        <time>2026-07-08T13:18:44Z</time>
      </trkpt>
      <trkpt lat="47.12977" lon="6.05837">
        <ele>518.4</ele>
        <time>2026-07-08T13:18:45Z</time>
      </trkpt>
      <trkpt lat="47.12977" lon="6.05839">
        <ele>518.8</ele>
        <time>2026-07-08T13:18:46Z</time>
      </trkpt>
      <trkpt lat="47.12975" lon="6.05841">
        <ele>519</ele>
        <time>2026-07-08T13:18:47Z</time>
      </trkpt>
      <trkpt lat="47.12974" lon="6.05842">
        <ele>519</ele>
        <time>2026-07-08T13:18:48Z</time>
      </trkpt>
      <trkpt lat="47.12973" lon="6.05843">
        <ele>519.2</ele>
        <time>2026-07-08T13:18:49Z</time>
      </trkpt>
      <trkpt lat="47.12972" lon="6.05845">
        <ele>519.6</ele>
        <time>2026-07-08T13:18:50Z</time>
      </trkpt>
      <trkpt lat="47.12971" lon="6.05847">
        <ele>519.6</ele>
        <time>2026-07-08T13:18:51Z</time>
      </trkpt>
      <trkpt lat="47.1297" lon="6.05848">
        <ele>519.8</ele>
        <time>2026-07-08T13:18:52Z</time>
      </trkpt>
      <trkpt lat="47.12969" lon="6.05851">
        <ele>520.2</ele>
        <time>2026-07-08T13:18:53Z</time>
      </trkpt>
      <trkpt lat="47.12968" lon="6.05853">
        <ele>520.4</ele>
        <time>2026-07-08T13:18:54Z</time>
      </trkpt>
      <trkpt lat="47.12966" lon="6.05855">
        <ele>520.4</ele>
        <time>2026-07-08T13:18:55Z</time>
      </trkpt>
      <trkpt lat="47.12965" lon="6.05858">
        <ele>520.8</ele>
        <time>2026-07-08T13:18:56Z</time>
      </trkpt>
      <trkpt lat="47.12962" lon="6.05861">
        <ele>521</ele>
        <time>2026-07-08T13:18:57Z</time>
      </trkpt>
      <trkpt lat="47.1296" lon="6.05863">
        <ele>521.2</ele>
        <time>2026-07-08T13:18:58Z</time>
      </trkpt>
      <trkpt lat="47.12958" lon="6.05865">
        <ele>521.4</ele>
        <time>2026-07-08T13:18:59Z</time>
      </trkpt>
      <trkpt lat="47.12955" lon="6.05868">
        <ele>521.4</ele>
        <time>2026-07-08T13:19:00Z</time>
      </trkpt>
      <trkpt lat="47.12952" lon="6.05871">
        <ele>521.6</ele>
        <time>2026-07-08T13:19:01Z</time>
      </trkpt>
      <trkpt lat="47.1295" lon="6.05874">
        <ele>522</ele>
        <time>2026-07-08T13:19:02Z</time>
      </trkpt>
      <trkpt lat="47.12947" lon="6.05876">
        <ele>522.2</ele>
        <time>2026-07-08T13:19:03Z</time>
      </trkpt>
      <trkpt lat="47.12944" lon="6.05879">
        <ele>522.4</ele>
        <time>2026-07-08T13:19:04Z</time>
      </trkpt>
      <trkpt lat="47.12941" lon="6.05882">
        <ele>522.6</ele>
        <time>2026-07-08T13:19:05Z</time>
      </trkpt>
      <trkpt lat="47.12939" lon="6.05885">
        <ele>522.8</ele>
        <time>2026-07-08T13:19:06Z</time>
      </trkpt>
      <trkpt lat="47.12937" lon="6.05887">
        <ele>522.8</ele>
        <time>2026-07-08T13:19:07Z</time>
      </trkpt>
      <trkpt lat="47.12935" lon="6.05889">
        <ele>523.2</ele>
        <time>2026-07-08T13:19:08Z</time>
      </trkpt>
      <trkpt lat="47.12933" lon="6.05891">
        <ele>523.2</ele>
        <time>2026-07-08T13:19:09Z</time>
      </trkpt>
      <trkpt lat="47.12931" lon="6.05892">
        <ele>523.2</ele>
        <time>2026-07-08T13:19:10Z</time>
      </trkpt>
      <trkpt lat="47.12929" lon="6.05894">
        <ele>523.2</ele>
        <time>2026-07-08T13:19:11Z</time>
      </trkpt>
      <trkpt lat="47.12928" lon="6.05896">
        <ele>523.4</ele>
        <time>2026-07-08T13:19:12Z</time>
      </trkpt>
      <trkpt lat="47.12927" lon="6.05898">
        <ele>523.4</ele>
        <time>2026-07-08T13:19:13Z</time>
      </trkpt>
      <trkpt lat="47.12926" lon="6.05901">
        <ele>523.6</ele>
        <time>2026-07-08T13:19:14Z</time>
      </trkpt>
      <trkpt lat="47.12925" lon="6.05904">
        <ele>523.8</ele>
        <time>2026-07-08T13:19:15Z</time>
      </trkpt>
      <trkpt lat="47.12923" lon="6.05906">
        <ele>523.8</ele>
        <time>2026-07-08T13:19:16Z</time>
      </trkpt>
      <trkpt lat="47.12921" lon="6.05908">
        <ele>523.8</ele>
        <time>2026-07-08T13:19:17Z</time>
      </trkpt>
      <trkpt lat="47.1292" lon="6.0591">
        <ele>523.8</ele>
        <time>2026-07-08T13:19:18Z</time>
      </trkpt>
      <trkpt lat="47.12918" lon="6.05912">
        <ele>524</ele>
        <time>2026-07-08T13:19:19Z</time>
      </trkpt>
      <trkpt lat="47.12916" lon="6.05914">
        <ele>524</ele>
        <time>2026-07-08T13:19:20Z</time>
      </trkpt>
      <trkpt lat="47.12915" lon="6.05916">
        <ele>524.2</ele>
        <time>2026-07-08T13:19:21Z</time>
      </trkpt>
      <trkpt lat="47.12913" lon="6.05918">
        <ele>524.2</ele>
        <time>2026-07-08T13:19:22Z</time>
      </trkpt>
      <trkpt lat="47.12912" lon="6.0592">
        <ele>524.2</ele>
        <time>2026-07-08T13:19:23Z</time>
      </trkpt>
      <trkpt lat="47.1291" lon="6.05922">
        <ele>524.4</ele>
        <time>2026-07-08T13:19:24Z</time>
      </trkpt>
      <trkpt lat="47.12908" lon="6.05924">
        <ele>524.4</ele>
        <time>2026-07-08T13:19:25Z</time>
      </trkpt>
      <trkpt lat="47.12907" lon="6.05927">
        <ele>524.4</ele>
        <time>2026-07-08T13:19:26Z</time>
      </trkpt>
      <trkpt lat="47.12906" lon="6.05929">
        <ele>524.6</ele>
        <time>2026-07-08T13:19:27Z</time>
      </trkpt>
      <trkpt lat="47.12903" lon="6.05932">
        <ele>524.6</ele>
        <time>2026-07-08T13:19:28Z</time>
      </trkpt>
      <trkpt lat="47.12901" lon="6.05934">
        <ele>524.6</ele>
        <time>2026-07-08T13:19:29Z</time>
      </trkpt>
      <trkpt lat="47.12899" lon="6.05937">
        <ele>524.6</ele>
        <time>2026-07-08T13:19:30Z</time>
      </trkpt>
      <trkpt lat="47.12897" lon="6.05939">
        <ele>524.8</ele>
        <time>2026-07-08T13:19:31Z</time>
      </trkpt>
      <trkpt lat="47.12895" lon="6.05942">
        <ele>524.8</ele>
        <time>2026-07-08T13:19:32Z</time>
      </trkpt>
      <trkpt lat="47.12893" lon="6.05944">
        <ele>524.8</ele>
        <time>2026-07-08T13:19:33Z</time>
      </trkpt>
      <trkpt lat="47.12891" lon="6.05946">
        <ele>525</ele>
        <time>2026-07-08T13:19:34Z</time>
      </trkpt>
      <trkpt lat="47.12889" lon="6.05949">
        <ele>525</ele>
        <time>2026-07-08T13:19:35Z</time>
      </trkpt>
      <trkpt lat="47.12887" lon="6.05952">
        <ele>525</ele>
        <time>2026-07-08T13:19:36Z</time>
      </trkpt>
      <trkpt lat="47.12885" lon="6.05955">
        <ele>525</ele>
        <time>2026-07-08T13:19:37Z</time>
      </trkpt>
      <trkpt lat="47.12882" lon="6.05958">
        <ele>525.2</ele>
        <time>2026-07-08T13:19:38Z</time>
      </trkpt>
      <trkpt lat="47.1288" lon="6.05962">
        <ele>525.2</ele>
        <time>2026-07-08T13:19:39Z</time>
      </trkpt>
      <trkpt lat="47.12877" lon="6.05966">
        <ele>525</ele>
        <time>2026-07-08T13:19:40Z</time>
      </trkpt>
      <trkpt lat="47.12875" lon="6.05969">
        <ele>525.2</ele>
        <time>2026-07-08T13:19:41Z</time>
      </trkpt>
      <trkpt lat="47.12872" lon="6.05972">
        <ele>525.2</ele>
        <time>2026-07-08T13:19:42Z</time>
      </trkpt>
      <trkpt lat="47.1287" lon="6.05975">
        <ele>525.2</ele>
        <time>2026-07-08T13:19:43Z</time>
      </trkpt>
      <trkpt lat="47.12867" lon="6.05978">
        <ele>525.2</ele>
        <time>2026-07-08T13:19:44Z</time>
      </trkpt>
      <trkpt lat="47.12864" lon="6.05981">
        <ele>525.2</ele>
        <time>2026-07-08T13:19:45Z</time>
      </trkpt>
      <trkpt lat="47.12861" lon="6.05985">
        <ele>525.2</ele>
        <time>2026-07-08T13:19:46Z</time>
      </trkpt>
      <trkpt lat="47.12858" lon="6.05989">
        <ele>525</ele>
        <time>2026-07-08T13:19:47Z</time>
      </trkpt>
      <trkpt lat="47.12855" lon="6.05993">
        <ele>525</ele>
        <time>2026-07-08T13:19:48Z</time>
      </trkpt>
      <trkpt lat="47.12851" lon="6.05998">
        <ele>525</ele>
        <time>2026-07-08T13:19:49Z</time>
      </trkpt>
      <trkpt lat="47.12847" lon="6.06002">
        <ele>524.8</ele>
        <time>2026-07-08T13:19:50Z</time>
      </trkpt>
      <trkpt lat="47.12844" lon="6.06006">
        <ele>524.8</ele>
        <time>2026-07-08T13:19:51Z</time>
      </trkpt>
      <trkpt lat="47.12841" lon="6.06011">
        <ele>524.6</ele>
        <time>2026-07-08T13:19:52Z</time>
      </trkpt>
      <trkpt lat="47.12837" lon="6.06016">
        <ele>524.6</ele>
        <time>2026-07-08T13:19:53Z</time>
      </trkpt>
      <trkpt lat="47.12833" lon="6.06021">
        <ele>524.8</ele>
        <time>2026-07-08T13:19:54Z</time>
      </trkpt>
      <trkpt lat="47.12829" lon="6.06026">
        <ele>524.8</ele>
        <time>2026-07-08T13:19:55Z</time>
      </trkpt>
      <trkpt lat="47.12824" lon="6.06033">
        <ele>524.4</ele>
        <time>2026-07-08T13:19:56Z</time>
      </trkpt>
      <trkpt lat="47.1282" lon="6.06039">
        <ele>524.2</ele>
        <time>2026-07-08T13:19:57Z</time>
      </trkpt>
      <trkpt lat="47.12815" lon="6.06046">
        <ele>524</ele>
        <time>2026-07-08T13:19:58Z</time>
      </trkpt>
      <trkpt lat="47.1281" lon="6.06052">
        <ele>524</ele>
        <time>2026-07-08T13:19:59Z</time>
      </trkpt>
      <trkpt lat="47.12806" lon="6.06057">
        <ele>523.6</ele>
        <time>2026-07-08T13:20:00Z</time>
      </trkpt>
      <trkpt lat="47.12801" lon="6.06062">
        <ele>523.4</ele>
        <time>2026-07-08T13:20:01Z</time>
      </trkpt>
      <trkpt lat="47.12796" lon="6.06067">
        <ele>523.4</ele>
        <time>2026-07-08T13:20:02Z</time>
      </trkpt>
      <trkpt lat="47.12791" lon="6.06074">
        <ele>523.2</ele>
        <time>2026-07-08T13:20:03Z</time>
      </trkpt>
      <trkpt lat="47.12787" lon="6.0608">
        <ele>523</ele>
        <time>2026-07-08T13:20:04Z</time>
      </trkpt>
      <trkpt lat="47.12783" lon="6.06086">
        <ele>522.4</ele>
        <time>2026-07-08T13:20:05Z</time>
      </trkpt>
      <trkpt lat="47.12779" lon="6.06091">
        <ele>522.4</ele>
        <time>2026-07-08T13:20:06Z</time>
      </trkpt>
      <trkpt lat="47.12776" lon="6.06096">
        <ele>522.4</ele>
        <time>2026-07-08T13:20:07Z</time>
      </trkpt>
      <trkpt lat="47.12772" lon="6.061">
        <ele>522.2</ele>
        <time>2026-07-08T13:20:08Z</time>
      </trkpt>
      <trkpt lat="47.12768" lon="6.06105">
        <ele>522.2</ele>
        <time>2026-07-08T13:20:09Z</time>
      </trkpt>
      <trkpt lat="47.12764" lon="6.06109">
        <ele>522.2</ele>
        <time>2026-07-08T13:20:10Z</time>
      </trkpt>
      <trkpt lat="47.12761" lon="6.06114">
        <ele>522</ele>
        <time>2026-07-08T13:20:11Z</time>
      </trkpt>
      <trkpt lat="47.12758" lon="6.06118">
        <ele>522</ele>
        <time>2026-07-08T13:20:12Z</time>
      </trkpt>
      <trkpt lat="47.12754" lon="6.06123">
        <ele>522</ele>
        <time>2026-07-08T13:20:13Z</time>
      </trkpt>
      <trkpt lat="47.12751" lon="6.06128">
        <ele>522</ele>
        <time>2026-07-08T13:20:14Z</time>
      </trkpt>
      <trkpt lat="47.12747" lon="6.06133">
        <ele>522</ele>
        <time>2026-07-08T13:20:15Z</time>
      </trkpt>
      <trkpt lat="47.12744" lon="6.06138">
        <ele>521.8</ele>
        <time>2026-07-08T13:20:16Z</time>
      </trkpt>
      <trkpt lat="47.1274" lon="6.06143">
        <ele>521.8</ele>
        <time>2026-07-08T13:20:17Z</time>
      </trkpt>
      <trkpt lat="47.12736" lon="6.06148">
        <ele>522</ele>
        <time>2026-07-08T13:20:18Z</time>
      </trkpt>
      <trkpt lat="47.12733" lon="6.06152">
        <ele>521.8</ele>
        <time>2026-07-08T13:20:19Z</time>
      </trkpt>
      <trkpt lat="47.12729" lon="6.06155">
        <ele>522</ele>
        <time>2026-07-08T13:20:20Z</time>
      </trkpt>
      <trkpt lat="47.12726" lon="6.06157">
        <ele>521.8</ele>
        <time>2026-07-08T13:20:21Z</time>
      </trkpt>
      <trkpt lat="47.12723" lon="6.0616">
        <ele>522</ele>
        <time>2026-07-08T13:20:22Z</time>
      </trkpt>
      <trkpt lat="47.12721" lon="6.06161">
        <ele>522</ele>
        <time>2026-07-08T13:20:23Z</time>
      </trkpt>
      <trkpt lat="47.12718" lon="6.06164">
        <ele>522</ele>
        <time>2026-07-08T13:20:24Z</time>
      </trkpt>
      <trkpt lat="47.12715" lon="6.06166">
        <ele>522</ele>
        <time>2026-07-08T13:20:25Z</time>
      </trkpt>
      <trkpt lat="47.12712" lon="6.06168">
        <ele>522</ele>
        <time>2026-07-08T13:20:26Z</time>
      </trkpt>
      <trkpt lat="47.12708" lon="6.0617">
        <ele>522</ele>
        <time>2026-07-08T13:20:27Z</time>
      </trkpt>
      <trkpt lat="47.12704" lon="6.06171">
        <ele>522.2</ele>
        <time>2026-07-08T13:20:28Z</time>
      </trkpt>
      <trkpt lat="47.127" lon="6.06172">
        <ele>522.2</ele>
        <time>2026-07-08T13:20:29Z</time>
      </trkpt>
      <trkpt lat="47.12696" lon="6.06174">
        <ele>522.2</ele>
        <time>2026-07-08T13:20:30Z</time>
      </trkpt>
      <trkpt lat="47.12691" lon="6.06175">
        <ele>522.4</ele>
        <time>2026-07-08T13:20:31Z</time>
      </trkpt>
      <trkpt lat="47.12688" lon="6.06175">
        <ele>522.6</ele>
        <time>2026-07-08T13:20:32Z</time>
      </trkpt>
      <trkpt lat="47.12684" lon="6.06175">
        <ele>522.8</ele>
        <time>2026-07-08T13:20:33Z</time>
      </trkpt>
      <trkpt lat="47.12681" lon="6.06175">
        <ele>522.8</ele>
        <time>2026-07-08T13:20:34Z</time>
      </trkpt>
      <trkpt lat="47.12677" lon="6.06176">
        <ele>523.2</ele>
        <time>2026-07-08T13:20:35Z</time>
      </trkpt>
      <trkpt lat="47.12673" lon="6.06177">
        <ele>523.2</ele>
        <time>2026-07-08T13:20:36Z</time>
      </trkpt>
      <trkpt lat="47.12669" lon="6.06177">
        <ele>523.4</ele>
        <time>2026-07-08T13:20:37Z</time>
      </trkpt>
      <trkpt lat="47.12665" lon="6.06176">
        <ele>523.4</ele>
        <time>2026-07-08T13:20:38Z</time>
      </trkpt>
      <trkpt lat="47.12661" lon="6.06175">
        <ele>523.6</ele>
        <time>2026-07-08T13:20:39Z</time>
      </trkpt>
      <trkpt lat="47.12657" lon="6.06175">
        <ele>523.6</ele>
        <time>2026-07-08T13:20:40Z</time>
      </trkpt>
      <trkpt lat="47.12653" lon="6.06175">
        <ele>523.6</ele>
        <time>2026-07-08T13:20:41Z</time>
      </trkpt>
      <trkpt lat="47.12648" lon="6.06174">
        <ele>523.6</ele>
        <time>2026-07-08T13:20:42Z</time>
      </trkpt>
      <trkpt lat="47.12645" lon="6.06173">
        <ele>523.8</ele>
        <time>2026-07-08T13:20:43Z</time>
      </trkpt>
      <trkpt lat="47.12641" lon="6.06173">
        <ele>523.8</ele>
        <time>2026-07-08T13:20:44Z</time>
      </trkpt>
      <trkpt lat="47.12638" lon="6.06173">
        <ele>523.8</ele>
        <time>2026-07-08T13:20:45Z</time>
      </trkpt>
      <trkpt lat="47.12634" lon="6.06174">
        <ele>524</ele>
        <time>2026-07-08T13:20:46Z</time>
      </trkpt>
      <trkpt lat="47.1263" lon="6.06174">
        <ele>524</ele>
        <time>2026-07-08T13:20:47Z</time>
      </trkpt>
      <trkpt lat="47.12626" lon="6.06175">
        <ele>524.2</ele>
        <time>2026-07-08T13:20:48Z</time>
      </trkpt>
      <trkpt lat="47.12622" lon="6.06175">
        <ele>524.4</ele>
        <time>2026-07-08T13:20:49Z</time>
      </trkpt>
      <trkpt lat="47.12618" lon="6.06175">
        <ele>524.4</ele>
        <time>2026-07-08T13:20:50Z</time>
      </trkpt>
      <trkpt lat="47.12613" lon="6.06176">
        <ele>524.6</ele>
        <time>2026-07-08T13:20:51Z</time>
      </trkpt>
      <trkpt lat="47.12609" lon="6.06176">
        <ele>524.8</ele>
        <time>2026-07-08T13:20:52Z</time>
      </trkpt>
      <trkpt lat="47.12603" lon="6.06176">
        <ele>524.6</ele>
        <time>2026-07-08T13:20:53Z</time>
      </trkpt>
      <trkpt lat="47.12598" lon="6.06176">
        <ele>524.8</ele>
        <time>2026-07-08T13:20:54Z</time>
      </trkpt>
      <trkpt lat="47.12593" lon="6.06176">
        <ele>525</ele>
        <time>2026-07-08T13:20:55Z</time>
      </trkpt>
      <trkpt lat="47.12588" lon="6.06177">
        <ele>524.8</ele>
        <time>2026-07-08T13:20:56Z</time>
      </trkpt>
      <trkpt lat="47.12582" lon="6.06177">
        <ele>525</ele>
        <time>2026-07-08T13:20:57Z</time>
      </trkpt>
      <trkpt lat="47.12578" lon="6.06178">
        <ele>525</ele>
        <time>2026-07-08T13:20:58Z</time>
      </trkpt>
      <trkpt lat="47.12573" lon="6.06178">
        <ele>525.2</ele>
        <time>2026-07-08T13:20:59Z</time>
      </trkpt>
      <trkpt lat="47.12568" lon="6.06179">
        <ele>525</ele>
        <time>2026-07-08T13:21:00Z</time>
      </trkpt>
      <trkpt lat="47.12564" lon="6.06179">
        <ele>525.2</ele>
        <time>2026-07-08T13:21:01Z</time>
      </trkpt>
      <trkpt lat="47.1256" lon="6.06179">
        <ele>525.2</ele>
        <time>2026-07-08T13:21:02Z</time>
      </trkpt>
      <trkpt lat="47.12557" lon="6.06179">
        <ele>525</ele>
        <time>2026-07-08T13:21:03Z</time>
      </trkpt>
      <trkpt lat="47.12553" lon="6.06178">
        <ele>525</ele>
        <time>2026-07-08T13:21:04Z</time>
      </trkpt>
      <trkpt lat="47.1255" lon="6.06177">
        <ele>525</ele>
        <time>2026-07-08T13:21:05Z</time>
      </trkpt>
      <trkpt lat="47.12546" lon="6.06176">
        <ele>525</ele>
        <time>2026-07-08T13:21:06Z</time>
      </trkpt>
      <trkpt lat="47.12541" lon="6.06176">
        <ele>525</ele>
        <time>2026-07-08T13:21:07Z</time>
      </trkpt>
      <trkpt lat="47.12537" lon="6.06175">
        <ele>525</ele>
        <time>2026-07-08T13:21:08Z</time>
      </trkpt>
      <trkpt lat="47.12534" lon="6.06174">
        <ele>525</ele>
        <time>2026-07-08T13:21:09Z</time>
      </trkpt>
      <trkpt lat="47.12531" lon="6.06174">
        <ele>525</ele>
        <time>2026-07-08T13:21:10Z</time>
      </trkpt>
      <trkpt lat="47.12527" lon="6.06173">
        <ele>525</ele>
        <time>2026-07-08T13:21:11Z</time>
      </trkpt>
      <trkpt lat="47.12524" lon="6.06173">
        <ele>525</ele>
        <time>2026-07-08T13:21:12Z</time>
      </trkpt>
      <trkpt lat="47.1252" lon="6.06173">
        <ele>525</ele>
        <time>2026-07-08T13:21:13Z</time>
      </trkpt>
      <trkpt lat="47.12517" lon="6.06173">
        <ele>525.2</ele>
        <time>2026-07-08T13:21:14Z</time>
      </trkpt>
      <trkpt lat="47.12514" lon="6.06173">
        <ele>525.4</ele>
        <time>2026-07-08T13:21:15Z</time>
      </trkpt>
      <trkpt lat="47.1251" lon="6.06173">
        <ele>525.4</ele>
        <time>2026-07-08T13:21:16Z</time>
      </trkpt>
      <trkpt lat="47.12506" lon="6.06173">
        <ele>525.4</ele>
        <time>2026-07-08T13:21:17Z</time>
      </trkpt>
      <trkpt lat="47.12503" lon="6.06173">
        <ele>525.6</ele>
        <time>2026-07-08T13:21:18Z</time>
      </trkpt>
      <trkpt lat="47.12499" lon="6.06172">
        <ele>525.8</ele>
        <time>2026-07-08T13:21:19Z</time>
      </trkpt>
      <trkpt lat="47.12496" lon="6.06172">
        <ele>525.6</ele>
        <time>2026-07-08T13:21:20Z</time>
      </trkpt>
      <trkpt lat="47.12492" lon="6.06172">
        <ele>525.8</ele>
        <time>2026-07-08T13:21:21Z</time>
      </trkpt>
      <trkpt lat="47.12489" lon="6.06172">
        <ele>526.2</ele>
        <time>2026-07-08T13:21:22Z</time>
      </trkpt>
      <trkpt lat="47.12486" lon="6.06171">
        <ele>526</ele>
        <time>2026-07-08T13:21:23Z</time>
      </trkpt>
      <trkpt lat="47.12483" lon="6.06171">
        <ele>526</ele>
        <time>2026-07-08T13:21:24Z</time>
      </trkpt>
      <trkpt lat="47.1248" lon="6.06171">
        <ele>526.2</ele>
        <time>2026-07-08T13:21:25Z</time>
      </trkpt>
      <trkpt lat="47.12477" lon="6.0617">
        <ele>526.6</ele>
        <time>2026-07-08T13:21:26Z</time>
      </trkpt>
      <trkpt lat="47.12474" lon="6.0617">
        <ele>526.6</ele>
        <time>2026-07-08T13:21:27Z</time>
      </trkpt>
      <trkpt lat="47.12471" lon="6.0617">
        <ele>526.6</ele>
        <time>2026-07-08T13:21:28Z</time>
      </trkpt>
      <trkpt lat="47.12469" lon="6.06169">
        <ele>526.8</ele>
        <time>2026-07-08T13:21:29Z</time>
      </trkpt>
      <trkpt lat="47.12466" lon="6.06168">
        <ele>527</ele>
        <time>2026-07-08T13:21:30Z</time>
      </trkpt>
      <trkpt lat="47.12463" lon="6.06168">
        <ele>526.8</ele>
        <time>2026-07-08T13:21:31Z</time>
      </trkpt>
      <trkpt lat="47.1246" lon="6.06167">
        <ele>527</ele>
        <time>2026-07-08T13:21:32Z</time>
      </trkpt>
      <trkpt lat="47.12457" lon="6.06167">
        <ele>527</ele>
        <time>2026-07-08T13:21:33Z</time>
      </trkpt>
      <trkpt lat="47.12454" lon="6.06166">
        <ele>527.2</ele>
        <time>2026-07-08T13:21:34Z</time>
      </trkpt>
      <trkpt lat="47.12452" lon="6.06166">
        <ele>527.4</ele>
        <time>2026-07-08T13:21:35Z</time>
      </trkpt>
      <trkpt lat="47.12448" lon="6.06166">
        <ele>527.4</ele>
        <time>2026-07-08T13:21:36Z</time>
      </trkpt>
      <trkpt lat="47.12445" lon="6.06165">
        <ele>527.4</ele>
        <time>2026-07-08T13:21:37Z</time>
      </trkpt>
      <trkpt lat="47.12442" lon="6.06165">
        <ele>527.6</ele>
        <time>2026-07-08T13:21:38Z</time>
      </trkpt>
      <trkpt lat="47.1244" lon="6.06164">
        <ele>527.6</ele>
        <time>2026-07-08T13:21:39Z</time>
      </trkpt>
      <trkpt lat="47.12437" lon="6.06163">
        <ele>527.6</ele>
        <time>2026-07-08T13:21:40Z</time>
      </trkpt>
      <trkpt lat="47.12434" lon="6.06163">
        <ele>527.8</ele>
        <time>2026-07-08T13:21:41Z</time>
      </trkpt>
      <trkpt lat="47.12431" lon="6.06163">
        <ele>528</ele>
        <time>2026-07-08T13:21:42Z</time>
      </trkpt>
      <trkpt lat="47.12428" lon="6.06163">
        <ele>528</ele>
        <time>2026-07-08T13:21:43Z</time>
      </trkpt>
      <trkpt lat="47.12424" lon="6.06162">
        <ele>528.4</ele>
        <time>2026-07-08T13:21:44Z</time>
      </trkpt>
      <trkpt lat="47.12421" lon="6.06162">
        <ele>528.2</ele>
        <time>2026-07-08T13:21:45Z</time>
      </trkpt>
      <trkpt lat="47.12418" lon="6.06162">
        <ele>528.4</ele>
        <time>2026-07-08T13:21:46Z</time>
      </trkpt>
      <trkpt lat="47.12416" lon="6.06162">
        <ele>528.4</ele>
        <time>2026-07-08T13:21:47Z</time>
      </trkpt>
      <trkpt lat="47.12413" lon="6.06163">
        <ele>528.8</ele>
        <time>2026-07-08T13:21:48Z</time>
      </trkpt>
      <trkpt lat="47.12411" lon="6.06162">
        <ele>528.8</ele>
        <time>2026-07-08T13:21:49Z</time>
      </trkpt>
      <trkpt lat="47.12409" lon="6.06162">
        <ele>528.8</ele>
        <time>2026-07-08T13:21:50Z</time>
      </trkpt>
      <trkpt lat="47.12406" lon="6.06161">
        <ele>529</ele>
        <time>2026-07-08T13:21:51Z</time>
      </trkpt>
      <trkpt lat="47.12404" lon="6.06161">
        <ele>529</ele>
        <time>2026-07-08T13:21:52Z</time>
      </trkpt>
      <trkpt lat="47.12403" lon="6.06161">
        <ele>529.4</ele>
        <time>2026-07-08T13:21:53Z</time>
      </trkpt>
      <trkpt lat="47.12401" lon="6.0616">
        <ele>529.8</ele>
        <time>2026-07-08T13:21:54Z</time>
      </trkpt>
      <trkpt lat="47.124" lon="6.06159">
        <ele>530</ele>
        <time>2026-07-08T13:21:55Z</time>
      </trkpt>
      <trkpt lat="47.12398" lon="6.06158">
        <ele>530</ele>
        <time>2026-07-08T13:21:56Z</time>
      </trkpt>
      <trkpt lat="47.12395" lon="6.06157">
        <ele>530.2</ele>
        <time>2026-07-08T13:21:57Z</time>
      </trkpt>
      <trkpt lat="47.12393" lon="6.06156">
        <ele>530.2</ele>
        <time>2026-07-08T13:21:58Z</time>
      </trkpt>
      <trkpt lat="47.12392" lon="6.06154">
        <ele>530.4</ele>
        <time>2026-07-08T13:21:59Z</time>
      </trkpt>
      <trkpt lat="47.12389" lon="6.06153">
        <ele>530.4</ele>
        <time>2026-07-08T13:22:00Z</time>
      </trkpt>
      <trkpt lat="47.12388" lon="6.06152">
        <ele>530.6</ele>
        <time>2026-07-08T13:22:01Z</time>
      </trkpt>
      <trkpt lat="47.12385" lon="6.0615">
        <ele>530.8</ele>
        <time>2026-07-08T13:22:02Z</time>
      </trkpt>
      <trkpt lat="47.12384" lon="6.06148">
        <ele>530.8</ele>
        <time>2026-07-08T13:22:03Z</time>
      </trkpt>
      <trkpt lat="47.12381" lon="6.06146">
        <ele>530.8</ele>
        <time>2026-07-08T13:22:04Z</time>
      </trkpt>
      <trkpt lat="47.12379" lon="6.06143">
        <ele>531.2</ele>
        <time>2026-07-08T13:22:05Z</time>
      </trkpt>
      <trkpt lat="47.12376" lon="6.06142">
        <ele>531.4</ele>
        <time>2026-07-08T13:22:06Z</time>
      </trkpt>
      <trkpt lat="47.12373" lon="6.06139">
        <ele>531.8</ele>
        <time>2026-07-08T13:22:07Z</time>
      </trkpt>
      <trkpt lat="47.1237" lon="6.06137">
        <ele>532</ele>
        <time>2026-07-08T13:22:08Z</time>
      </trkpt>
      <trkpt lat="47.12368" lon="6.06135">
        <ele>532</ele>
        <time>2026-07-08T13:22:09Z</time>
      </trkpt>
      <trkpt lat="47.12366" lon="6.06134">
        <ele>532.4</ele>
        <time>2026-07-08T13:22:10Z</time>
      </trkpt>
      <trkpt lat="47.12363" lon="6.06132">
        <ele>532.4</ele>
        <time>2026-07-08T13:22:11Z</time>
      </trkpt>
      <trkpt lat="47.12361" lon="6.06132">
        <ele>532.6</ele>
        <time>2026-07-08T13:22:12Z</time>
      </trkpt>
      <trkpt lat="47.12359" lon="6.06131">
        <ele>533</ele>
        <time>2026-07-08T13:22:13Z</time>
      </trkpt>
      <trkpt lat="47.12357" lon="6.06129">
        <ele>533.4</ele>
        <time>2026-07-08T13:22:14Z</time>
      </trkpt>
      <trkpt lat="47.12355" lon="6.06129">
        <ele>533.6</ele>
        <time>2026-07-08T13:22:15Z</time>
      </trkpt>
      <trkpt lat="47.12353" lon="6.06129">
        <ele>534</ele>
        <time>2026-07-08T13:22:16Z</time>
      </trkpt>
      <trkpt lat="47.12351" lon="6.06128">
        <ele>534.4</ele>
        <time>2026-07-08T13:22:17Z</time>
      </trkpt>
      <trkpt lat="47.1235" lon="6.06127">
        <ele>534.6</ele>
        <time>2026-07-08T13:22:18Z</time>
      </trkpt>
      <trkpt lat="47.12349" lon="6.06126">
        <ele>534.8</ele>
        <time>2026-07-08T13:22:19Z</time>
      </trkpt>
      <trkpt lat="47.12347" lon="6.06126">
        <ele>535</ele>
        <time>2026-07-08T13:22:20Z</time>
      </trkpt>
      <trkpt lat="47.12346" lon="6.06124">
        <ele>535.2</ele>
        <time>2026-07-08T13:22:21Z</time>
      </trkpt>
      <trkpt lat="47.12344" lon="6.06123">
        <ele>535.4</ele>
        <time>2026-07-08T13:22:22Z</time>
      </trkpt>
      <trkpt lat="47.12342" lon="6.06122">
        <ele>535.6</ele>
        <time>2026-07-08T13:22:23Z</time>
      </trkpt>
      <trkpt lat="47.1234" lon="6.06121">
        <ele>535.8</ele>
        <time>2026-07-08T13:22:24Z</time>
      </trkpt>
      <trkpt lat="47.12338" lon="6.0612">
        <ele>536.2</ele>
        <time>2026-07-08T13:22:25Z</time>
      </trkpt>
      <trkpt lat="47.12336" lon="6.0612">
        <ele>536.2</ele>
        <time>2026-07-08T13:22:26Z</time>
      </trkpt>
      <trkpt lat="47.12334" lon="6.06118">
        <ele>536.4</ele>
        <time>2026-07-08T13:22:27Z</time>
      </trkpt>
      <trkpt lat="47.12332" lon="6.06117">
        <ele>536.6</ele>
        <time>2026-07-08T13:22:28Z</time>
      </trkpt>
      <trkpt lat="47.1233" lon="6.06116">
        <ele>537</ele>
        <time>2026-07-08T13:22:29Z</time>
      </trkpt>
      <trkpt lat="47.12329" lon="6.06114">
        <ele>537.2</ele>
        <time>2026-07-08T13:22:30Z</time>
      </trkpt>
      <trkpt lat="47.12326" lon="6.06113">
        <ele>537.2</ele>
        <time>2026-07-08T13:22:31Z</time>
      </trkpt>
      <trkpt lat="47.12324" lon="6.06111">
        <ele>537.4</ele>
        <time>2026-07-08T13:22:32Z</time>
      </trkpt>
      <trkpt lat="47.12322" lon="6.06109">
        <ele>537.6</ele>
        <time>2026-07-08T13:22:33Z</time>
      </trkpt>
      <trkpt lat="47.1232" lon="6.06108">
        <ele>537.6</ele>
        <time>2026-07-08T13:22:34Z</time>
      </trkpt>
      <trkpt lat="47.12318" lon="6.06107">
        <ele>538</ele>
        <time>2026-07-08T13:22:35Z</time>
      </trkpt>
      <trkpt lat="47.12316" lon="6.06106">
        <ele>538</ele>
        <time>2026-07-08T13:22:36Z</time>
      </trkpt>
      <trkpt lat="47.12314" lon="6.06105">
        <ele>538.4</ele>
        <time>2026-07-08T13:22:37Z</time>
      </trkpt>
      <trkpt lat="47.12311" lon="6.06103">
        <ele>538.6</ele>
        <time>2026-07-08T13:22:38Z</time>
      </trkpt>
      <trkpt lat="47.12309" lon="6.06102">
        <ele>538.8</ele>
        <time>2026-07-08T13:22:39Z</time>
      </trkpt>
      <trkpt lat="47.12307" lon="6.061">
        <ele>539.2</ele>
        <time>2026-07-08T13:22:40Z</time>
      </trkpt>
      <trkpt lat="47.12305" lon="6.06099">
        <ele>539.4</ele>
        <time>2026-07-08T13:22:41Z</time>
      </trkpt>
      <trkpt lat="47.12304" lon="6.06098">
        <ele>539.8</ele>
        <time>2026-07-08T13:22:42Z</time>
      </trkpt>
      <trkpt lat="47.12302" lon="6.06097">
        <ele>540</ele>
        <time>2026-07-08T13:22:43Z</time>
      </trkpt>
      <trkpt lat="47.123" lon="6.06096">
        <ele>540.2</ele>
        <time>2026-07-08T13:22:44Z</time>
      </trkpt>
      <trkpt lat="47.12298" lon="6.06096">
        <ele>540.6</ele>
        <time>2026-07-08T13:22:45Z</time>
      </trkpt>
      <trkpt lat="47.12297" lon="6.06095">
        <ele>540.8</ele>
        <time>2026-07-08T13:22:46Z</time>
      </trkpt>
      <trkpt lat="47.12294" lon="6.06095">
        <ele>541</ele>
        <time>2026-07-08T13:22:47Z</time>
      </trkpt>
      <trkpt lat="47.12292" lon="6.06094">
        <ele>541.2</ele>
        <time>2026-07-08T13:22:48Z</time>
      </trkpt>
      <trkpt lat="47.1229" lon="6.06093">
        <ele>541.4</ele>
        <time>2026-07-08T13:22:49Z</time>
      </trkpt>
      <trkpt lat="47.12288" lon="6.06093">
        <ele>541.6</ele>
        <time>2026-07-08T13:22:50Z</time>
      </trkpt>
      <trkpt lat="47.12286" lon="6.06092">
        <ele>542</ele>
        <time>2026-07-08T13:22:51Z</time>
      </trkpt>
      <trkpt lat="47.12284" lon="6.06092">
        <ele>542.2</ele>
        <time>2026-07-08T13:22:52Z</time>
      </trkpt>
      <trkpt lat="47.12282" lon="6.06091">
        <ele>542.4</ele>
        <time>2026-07-08T13:22:53Z</time>
      </trkpt>
      <trkpt lat="47.12281" lon="6.0609">
        <ele>542.4</ele>
        <time>2026-07-08T13:22:54Z</time>
      </trkpt>
      <trkpt lat="47.12278" lon="6.06089">
        <ele>542.4</ele>
        <time>2026-07-08T13:22:55Z</time>
      </trkpt>
      <trkpt lat="47.12276" lon="6.06089">
        <ele>542.6</ele>
        <time>2026-07-08T13:22:56Z</time>
      </trkpt>
      <trkpt lat="47.12275" lon="6.06088">
        <ele>542.8</ele>
        <time>2026-07-08T13:22:57Z</time>
      </trkpt>
      <trkpt lat="47.12273" lon="6.06088">
        <ele>542.8</ele>
        <time>2026-07-08T13:22:58Z</time>
      </trkpt>
      <trkpt lat="47.12272" lon="6.06087">
        <ele>543.2</ele>
        <time>2026-07-08T13:22:59Z</time>
      </trkpt>
      <trkpt lat="47.1227" lon="6.06087">
        <ele>543.2</ele>
        <time>2026-07-08T13:23:00Z</time>
      </trkpt>
      <trkpt lat="47.12268" lon="6.06086">
        <ele>543.4</ele>
        <time>2026-07-08T13:23:01Z</time>
      </trkpt>
      <trkpt lat="47.12266" lon="6.06086">
        <ele>543.6</ele>
        <time>2026-07-08T13:23:02Z</time>
      </trkpt>
      <trkpt lat="47.12264" lon="6.06085">
        <ele>543.6</ele>
        <time>2026-07-08T13:23:03Z</time>
      </trkpt>
      <trkpt lat="47.12263" lon="6.06084">
        <ele>543.8</ele>
        <time>2026-07-08T13:23:04Z</time>
      </trkpt>
      <trkpt lat="47.1226" lon="6.06082">
        <ele>543.8</ele>
        <time>2026-07-08T13:23:05Z</time>
      </trkpt>
      <trkpt lat="47.12258" lon="6.06082">
        <ele>544</ele>
        <time>2026-07-08T13:23:06Z</time>
      </trkpt>
      <trkpt lat="47.12256" lon="6.06081">
        <ele>544.2</ele>
        <time>2026-07-08T13:23:07Z</time>
      </trkpt>
      <trkpt lat="47.12254" lon="6.0608">
        <ele>544.2</ele>
        <time>2026-07-08T13:23:08Z</time>
      </trkpt>
      <trkpt lat="47.12252" lon="6.06079">
        <ele>544.4</ele>
        <time>2026-07-08T13:23:09Z</time>
      </trkpt>
      <trkpt lat="47.1225" lon="6.06078">
        <ele>544.4</ele>
        <time>2026-07-08T13:23:10Z</time>
      </trkpt>
      <trkpt lat="47.12249" lon="6.06077">
        <ele>544.6</ele>
        <time>2026-07-08T13:23:11Z</time>
      </trkpt>
      <trkpt lat="47.12248" lon="6.06076">
        <ele>544.8</ele>
        <time>2026-07-08T13:23:12Z</time>
      </trkpt>
      <trkpt lat="47.12246" lon="6.06075">
        <ele>544.8</ele>
        <time>2026-07-08T13:23:13Z</time>
      </trkpt>
      <trkpt lat="47.12245" lon="6.06074">
        <ele>545</ele>
        <time>2026-07-08T13:23:14Z</time>
      </trkpt>
      <trkpt lat="47.12242" lon="6.06074">
        <ele>545.2</ele>
        <time>2026-07-08T13:23:15Z</time>
      </trkpt>
      <trkpt lat="47.12241" lon="6.06073">
        <ele>545.2</ele>
        <time>2026-07-08T13:23:16Z</time>
      </trkpt>
      <trkpt lat="47.12239" lon="6.06072">
        <ele>545.2</ele>
        <time>2026-07-08T13:23:17Z</time>
      </trkpt>
      <trkpt lat="47.12238" lon="6.06072">
        <ele>545.4</ele>
        <time>2026-07-08T13:23:18Z</time>
      </trkpt>
      <trkpt lat="47.12236" lon="6.06072">
        <ele>545.2</ele>
        <time>2026-07-08T13:23:19Z</time>
      </trkpt>
      <trkpt lat="47.12235" lon="6.06071">
        <ele>545.6</ele>
        <time>2026-07-08T13:23:20Z</time>
      </trkpt>
      <trkpt lat="47.12233" lon="6.0607">
        <ele>545.8</ele>
        <time>2026-07-08T13:23:21Z</time>
      </trkpt>
      <trkpt lat="47.12231" lon="6.06069">
        <ele>546</ele>
        <time>2026-07-08T13:23:22Z</time>
      </trkpt>
      <trkpt lat="47.12229" lon="6.06068">
        <ele>546.2</ele>
        <time>2026-07-08T13:23:23Z</time>
      </trkpt>
      <trkpt lat="47.12227" lon="6.06067">
        <ele>546.4</ele>
        <time>2026-07-08T13:23:24Z</time>
      </trkpt>
      <trkpt lat="47.12225" lon="6.06067">
        <ele>546.6</ele>
        <time>2026-07-08T13:23:25Z</time>
      </trkpt>
      <trkpt lat="47.12223" lon="6.06067">
        <ele>546.8</ele>
        <time>2026-07-08T13:23:26Z</time>
      </trkpt>
      <trkpt lat="47.12221" lon="6.06066">
        <ele>547</ele>
        <time>2026-07-08T13:23:27Z</time>
      </trkpt>
      <trkpt lat="47.12219" lon="6.06065">
        <ele>547</ele>
        <time>2026-07-08T13:23:28Z</time>
      </trkpt>
      <trkpt lat="47.12217" lon="6.06064">
        <ele>547.4</ele>
        <time>2026-07-08T13:23:29Z</time>
      </trkpt>
      <trkpt lat="47.12216" lon="6.06064">
        <ele>547.4</ele>
        <time>2026-07-08T13:23:30Z</time>
      </trkpt>
      <trkpt lat="47.12213" lon="6.06063">
        <ele>547.4</ele>
        <time>2026-07-08T13:23:31Z</time>
      </trkpt>
      <trkpt lat="47.12211" lon="6.06062">
        <ele>547.6</ele>
        <time>2026-07-08T13:23:32Z</time>
      </trkpt>
      <trkpt lat="47.12208" lon="6.0606">
        <ele>547.6</ele>
        <time>2026-07-08T13:23:33Z</time>
      </trkpt>
      <trkpt lat="47.12205" lon="6.06059">
        <ele>547.8</ele>
        <time>2026-07-08T13:23:34Z</time>
      </trkpt>
      <trkpt lat="47.12202" lon="6.06058">
        <ele>548</ele>
        <time>2026-07-08T13:23:35Z</time>
      </trkpt>
      <trkpt lat="47.12199" lon="6.06057">
        <ele>547.8</ele>
        <time>2026-07-08T13:23:36Z</time>
      </trkpt>
      <trkpt lat="47.12195" lon="6.06056">
        <ele>548</ele>
        <time>2026-07-08T13:23:37Z</time>
      </trkpt>
      <trkpt lat="47.12192" lon="6.06053">
        <ele>548</ele>
        <time>2026-07-08T13:23:38Z</time>
      </trkpt>
      <trkpt lat="47.12188" lon="6.06052">
        <ele>548</ele>
        <time>2026-07-08T13:23:39Z</time>
      </trkpt>
      <trkpt lat="47.12185" lon="6.06052">
        <ele>548.2</ele>
        <time>2026-07-08T13:23:40Z</time>
      </trkpt>
      <trkpt lat="47.12181" lon="6.0605">
        <ele>548.4</ele>
        <time>2026-07-08T13:23:41Z</time>
      </trkpt>
      <trkpt lat="47.12178" lon="6.06048">
        <ele>548.6</ele>
        <time>2026-07-08T13:23:42Z</time>
      </trkpt>
      <trkpt lat="47.12176" lon="6.06047">
        <ele>548.6</ele>
        <time>2026-07-08T13:23:43Z</time>
      </trkpt>
      <trkpt lat="47.12173" lon="6.06046">
        <ele>548.8</ele>
        <time>2026-07-08T13:23:44Z</time>
      </trkpt>
      <trkpt lat="47.1217" lon="6.06045">
        <ele>548.8</ele>
        <time>2026-07-08T13:23:45Z</time>
      </trkpt>
      <trkpt lat="47.12167" lon="6.06044">
        <ele>548.8</ele>
        <time>2026-07-08T13:23:46Z</time>
      </trkpt>
      <trkpt lat="47.12165" lon="6.06044">
        <ele>549</ele>
        <time>2026-07-08T13:23:47Z</time>
      </trkpt>
      <trkpt lat="47.12162" lon="6.06044">
        <ele>549</ele>
        <time>2026-07-08T13:23:48Z</time>
      </trkpt>
      <trkpt lat="47.12159" lon="6.06043">
        <ele>549.2</ele>
        <time>2026-07-08T13:23:49Z</time>
      </trkpt>
      <trkpt lat="47.12156" lon="6.06043">
        <ele>549.2</ele>
        <time>2026-07-08T13:23:50Z</time>
      </trkpt>
      <trkpt lat="47.12153" lon="6.06042">
        <ele>549.4</ele>
        <time>2026-07-08T13:23:51Z</time>
      </trkpt>
      <trkpt lat="47.12151" lon="6.06041">
        <ele>549.4</ele>
        <time>2026-07-08T13:23:52Z</time>
      </trkpt>
      <trkpt lat="47.12148" lon="6.06041">
        <ele>549.4</ele>
        <time>2026-07-08T13:23:53Z</time>
      </trkpt>
      <trkpt lat="47.12146" lon="6.0604">
        <ele>549.4</ele>
        <time>2026-07-08T13:23:54Z</time>
      </trkpt>
      <trkpt lat="47.12143" lon="6.0604">
        <ele>549.6</ele>
        <time>2026-07-08T13:23:55Z</time>
      </trkpt>
      <trkpt lat="47.12141" lon="6.0604">
        <ele>549.6</ele>
        <time>2026-07-08T13:23:56Z</time>
      </trkpt>
      <trkpt lat="47.12138" lon="6.0604">
        <ele>549.6</ele>
        <time>2026-07-08T13:23:57Z</time>
      </trkpt>
      <trkpt lat="47.12136" lon="6.06039">
        <ele>549.8</ele>
        <time>2026-07-08T13:23:58Z</time>
      </trkpt>
      <trkpt lat="47.12132" lon="6.06038">
        <ele>549.6</ele>
        <time>2026-07-08T13:23:59Z</time>
      </trkpt>
      <trkpt lat="47.12129" lon="6.06038">
        <ele>549.6</ele>
        <time>2026-07-08T13:24:00Z</time>
      </trkpt>
      <trkpt lat="47.12127" lon="6.06039">
        <ele>549.8</ele>
        <time>2026-07-08T13:24:01Z</time>
      </trkpt>
      <trkpt lat="47.12122" lon="6.06039">
        <ele>550</ele>
        <time>2026-07-08T13:24:02Z</time>
      </trkpt>
      <trkpt lat="47.12118" lon="6.0604">
        <ele>550</ele>
        <time>2026-07-08T13:24:03Z</time>
      </trkpt>
      <trkpt lat="47.12115" lon="6.0604">
        <ele>550</ele>
        <time>2026-07-08T13:24:04Z</time>
      </trkpt>
      <trkpt lat="47.12112" lon="6.0604">
        <ele>550</ele>
        <time>2026-07-08T13:24:05Z</time>
      </trkpt>
      <trkpt lat="47.1211" lon="6.06039">
        <ele>550.2</ele>
        <time>2026-07-08T13:24:06Z</time>
      </trkpt>
      <trkpt lat="47.12108" lon="6.06039">
        <ele>550.2</ele>
        <time>2026-07-08T13:24:07Z</time>
      </trkpt>
      <trkpt lat="47.12105" lon="6.06039">
        <ele>550.6</ele>
        <time>2026-07-08T13:24:08Z</time>
      </trkpt>
      <trkpt lat="47.12103" lon="6.06039">
        <ele>551</ele>
        <time>2026-07-08T13:24:09Z</time>
      </trkpt>
      <trkpt lat="47.12101" lon="6.06039">
        <ele>551</ele>
        <time>2026-07-08T13:24:10Z</time>
      </trkpt>
      <trkpt lat="47.121" lon="6.0604">
        <ele>551</ele>
        <time>2026-07-08T13:24:11Z</time>
      </trkpt>
      <trkpt lat="47.12098" lon="6.0604">
        <ele>551.2</ele>
        <time>2026-07-08T13:24:12Z</time>
      </trkpt>
      <trkpt lat="47.12095" lon="6.0604">
        <ele>551.6</ele>
        <time>2026-07-08T13:24:13Z</time>
      </trkpt>
      <trkpt lat="47.12093" lon="6.0604">
        <ele>551.6</ele>
        <time>2026-07-08T13:24:14Z</time>
      </trkpt>
      <trkpt lat="47.12089" lon="6.0604">
        <ele>551.8</ele>
        <time>2026-07-08T13:24:15Z</time>
      </trkpt>
      <trkpt lat="47.12087" lon="6.0604">
        <ele>551.8</ele>
        <time>2026-07-08T13:24:16Z</time>
      </trkpt>
      <trkpt lat="47.12085" lon="6.0604">
        <ele>552.2</ele>
        <time>2026-07-08T13:24:17Z</time>
      </trkpt>
      <trkpt lat="47.12082" lon="6.0604">
        <ele>552.2</ele>
        <time>2026-07-08T13:24:18Z</time>
      </trkpt>
      <trkpt lat="47.12079" lon="6.0604">
        <ele>552.4</ele>
        <time>2026-07-08T13:24:19Z</time>
      </trkpt>
      <trkpt lat="47.12076" lon="6.0604">
        <ele>552.6</ele>
        <time>2026-07-08T13:24:20Z</time>
      </trkpt>
      <trkpt lat="47.12072" lon="6.06041">
        <ele>552.6</ele>
        <time>2026-07-08T13:24:21Z</time>
      </trkpt>
      <trkpt lat="47.12069" lon="6.06039">
        <ele>552.6</ele>
        <time>2026-07-08T13:24:22Z</time>
      </trkpt>
      <trkpt lat="47.12065" lon="6.06038">
        <ele>552.8</ele>
        <time>2026-07-08T13:24:23Z</time>
      </trkpt>
      <trkpt lat="47.12061" lon="6.06037">
        <ele>553</ele>
        <time>2026-07-08T13:24:24Z</time>
      </trkpt>
      <trkpt lat="47.12058" lon="6.06037">
        <ele>553.2</ele>
        <time>2026-07-08T13:24:25Z</time>
      </trkpt>
      <trkpt lat="47.12054" lon="6.06038">
        <ele>553.4</ele>
        <time>2026-07-08T13:24:26Z</time>
      </trkpt>
      <trkpt lat="47.12051" lon="6.06038">
        <ele>553.4</ele>
        <time>2026-07-08T13:24:27Z</time>
      </trkpt>
      <trkpt lat="47.12047" lon="6.06038">
        <ele>553.6</ele>
        <time>2026-07-08T13:24:28Z</time>
      </trkpt>
      <trkpt lat="47.12045" lon="6.06038">
        <ele>553.6</ele>
        <time>2026-07-08T13:24:29Z</time>
      </trkpt>
      <trkpt lat="47.12041" lon="6.06037">
        <ele>553.8</ele>
        <time>2026-07-08T13:24:30Z</time>
      </trkpt>
      <trkpt lat="47.12033" lon="6.06036">
        <ele>553.8</ele>
        <time>2026-07-08T13:24:31Z</time>
      </trkpt>
      <trkpt lat="47.12033" lon="6.06036">
        <ele>553.8</ele>
        <time>2026-07-08T13:24:32Z</time>
      </trkpt>
      <trkpt lat="47.1203" lon="6.06037">
        <ele>554</ele>
        <time>2026-07-08T13:24:33Z</time>
      </trkpt>
      <trkpt lat="47.12025" lon="6.06037">
        <ele>553.8</ele>
        <time>2026-07-08T13:24:34Z</time>
      </trkpt>
      <trkpt lat="47.12021" lon="6.06037">
        <ele>553.8</ele>
        <time>2026-07-08T13:24:35Z</time>
      </trkpt>
      <trkpt lat="47.12016" lon="6.06038">
        <ele>553.8</ele>
        <time>2026-07-08T13:24:36Z</time>
      </trkpt>
      <trkpt lat="47.1201" lon="6.06038">
        <ele>553.8</ele>
        <time>2026-07-08T13:24:37Z</time>
      </trkpt>
      <trkpt lat="47.12005" lon="6.06038">
        <ele>553.8</ele>
        <time>2026-07-08T13:24:38Z</time>
      </trkpt>
      <trkpt lat="47.11999" lon="6.06037">
        <ele>554</ele>
        <time>2026-07-08T13:24:39Z</time>
      </trkpt>
      <trkpt lat="47.11993" lon="6.06037">
        <ele>553.8</ele>
        <time>2026-07-08T13:24:40Z</time>
      </trkpt>
      <trkpt lat="47.11987" lon="6.06038">
        <ele>553.8</ele>
        <time>2026-07-08T13:24:41Z</time>
      </trkpt>
      <trkpt lat="47.11981" lon="6.06038">
        <ele>553.6</ele>
        <time>2026-07-08T13:24:42Z</time>
      </trkpt>
      <trkpt lat="47.11974" lon="6.06039">
        <ele>553.4</ele>
        <time>2026-07-08T13:24:43Z</time>
      </trkpt>
      <trkpt lat="47.11968" lon="6.0604">
        <ele>553.4</ele>
        <time>2026-07-08T13:24:44Z</time>
      </trkpt>
      <trkpt lat="47.11961" lon="6.06041">
        <ele>553.4</ele>
        <time>2026-07-08T13:24:45Z</time>
      </trkpt>
      <trkpt lat="47.11954" lon="6.06042">
        <ele>553.2</ele>
        <time>2026-07-08T13:24:46Z</time>
      </trkpt>
      <trkpt lat="47.11945" lon="6.06043">
        <ele>553</ele>
        <time>2026-07-08T13:24:47Z</time>
      </trkpt>
      <trkpt lat="47.11937" lon="6.06045">
        <ele>552.6</ele>
        <time>2026-07-08T13:24:48Z</time>
      </trkpt>
      <trkpt lat="47.11928" lon="6.06046">
        <ele>552.2</ele>
        <time>2026-07-08T13:24:49Z</time>
      </trkpt>
      <trkpt lat="47.1192" lon="6.06047">
        <ele>552</ele>
        <time>2026-07-08T13:24:50Z</time>
      </trkpt>
      <trkpt lat="47.11911" lon="6.06049">
        <ele>551.6</ele>
        <time>2026-07-08T13:24:51Z</time>
      </trkpt>
      <trkpt lat="47.11902" lon="6.06051">
        <ele>551.4</ele>
        <time>2026-07-08T13:24:52Z</time>
      </trkpt>
      <trkpt lat="47.11893" lon="6.06052">
        <ele>551</ele>
        <time>2026-07-08T13:24:53Z</time>
      </trkpt>
      <trkpt lat="47.11884" lon="6.06054">
        <ele>550.6</ele>
        <time>2026-07-08T13:24:54Z</time>
      </trkpt>
      <trkpt lat="47.11876" lon="6.06054">
        <ele>550</ele>
        <time>2026-07-08T13:24:55Z</time>
      </trkpt>
      <trkpt lat="47.11868" lon="6.06054">
        <ele>549</ele>
        <time>2026-07-08T13:24:56Z</time>
      </trkpt>
      <trkpt lat="47.11858" lon="6.06053">
        <ele>548.4</ele>
        <time>2026-07-08T13:24:57Z</time>
      </trkpt>
      <trkpt lat="47.11849" lon="6.06051">
        <ele>547.8</ele>
        <time>2026-07-08T13:24:58Z</time>
      </trkpt>
      <trkpt lat="47.1184" lon="6.06052">
        <ele>547.2</ele>
        <time>2026-07-08T13:24:59Z</time>
      </trkpt>
      <trkpt lat="47.11832" lon="6.06053">
        <ele>546.8</ele>
        <time>2026-07-08T13:25:00Z</time>
      </trkpt>
      <trkpt lat="47.11825" lon="6.06054">
        <ele>546.6</ele>
        <time>2026-07-08T13:25:01Z</time>
      </trkpt>
      <trkpt lat="47.11818" lon="6.06057">
        <ele>546.2</ele>
        <time>2026-07-08T13:25:02Z</time>
      </trkpt>
      <trkpt lat="47.11812" lon="6.06058">
        <ele>545.8</ele>
        <time>2026-07-08T13:25:03Z</time>
      </trkpt>
      <trkpt lat="47.11805" lon="6.0606">
        <ele>545.4</ele>
        <time>2026-07-08T13:25:04Z</time>
      </trkpt>
      <trkpt lat="47.11799" lon="6.06062">
        <ele>545.2</ele>
        <time>2026-07-08T13:25:05Z</time>
      </trkpt>
      <trkpt lat="47.11792" lon="6.06065">
        <ele>545.2</ele>
        <time>2026-07-08T13:25:06Z</time>
      </trkpt>
      <trkpt lat="47.11785" lon="6.06068">
        <ele>545.2</ele>
        <time>2026-07-08T13:25:07Z</time>
      </trkpt>
      <trkpt lat="47.11778" lon="6.06071">
        <ele>545</ele>
        <time>2026-07-08T13:25:08Z</time>
      </trkpt>
      <trkpt lat="47.11771" lon="6.06073">
        <ele>545</ele>
        <time>2026-07-08T13:25:09Z</time>
      </trkpt>
      <trkpt lat="47.11763" lon="6.06075">
        <ele>544.8</ele>
        <time>2026-07-08T13:25:10Z</time>
      </trkpt>
      <trkpt lat="47.11754" lon="6.06076">
        <ele>544.6</ele>
        <time>2026-07-08T13:25:11Z</time>
      </trkpt>
      <trkpt lat="47.11746" lon="6.06077">
        <ele>544.6</ele>
        <time>2026-07-08T13:25:12Z</time>
      </trkpt>
      <trkpt lat="47.11738" lon="6.06078">
        <ele>544.4</ele>
        <time>2026-07-08T13:25:13Z</time>
      </trkpt>
      <trkpt lat="47.11729" lon="6.0608">
        <ele>544.4</ele>
        <time>2026-07-08T13:25:14Z</time>
      </trkpt>
      <trkpt lat="47.11721" lon="6.06081">
        <ele>544.2</ele>
        <time>2026-07-08T13:25:15Z</time>
      </trkpt>
      <trkpt lat="47.11713" lon="6.06082">
        <ele>543.6</ele>
        <time>2026-07-08T13:25:16Z</time>
      </trkpt>
      <trkpt lat="47.11706" lon="6.06083">
        <ele>543.4</ele>
        <time>2026-07-08T13:25:17Z</time>
      </trkpt>
      <trkpt lat="47.11698" lon="6.06083">
        <ele>542.8</ele>
        <time>2026-07-08T13:25:18Z</time>
      </trkpt>
      <trkpt lat="47.1169" lon="6.06083">
        <ele>542.4</ele>
        <time>2026-07-08T13:25:19Z</time>
      </trkpt>
      <trkpt lat="47.11682" lon="6.06083">
        <ele>542</ele>
        <time>2026-07-08T13:25:20Z</time>
      </trkpt>
      <trkpt lat="47.11675" lon="6.06083">
        <ele>541.4</ele>
        <time>2026-07-08T13:25:21Z</time>
      </trkpt>
      <trkpt lat="47.11668" lon="6.06083">
        <ele>541</ele>
        <time>2026-07-08T13:25:22Z</time>
      </trkpt>
      <trkpt lat="47.11661" lon="6.06083">
        <ele>540.8</ele>
        <time>2026-07-08T13:25:23Z</time>
      </trkpt>
      <trkpt lat="47.11655" lon="6.06084">
        <ele>540.6</ele>
        <time>2026-07-08T13:25:24Z</time>
      </trkpt>
      <trkpt lat="47.11648" lon="6.06085">
        <ele>540.6</ele>
        <time>2026-07-08T13:25:25Z</time>
      </trkpt>
      <trkpt lat="47.11642" lon="6.06086">
        <ele>540.6</ele>
        <time>2026-07-08T13:25:26Z</time>
      </trkpt>
      <trkpt lat="47.11635" lon="6.06087">
        <ele>540.4</ele>
        <time>2026-07-08T13:25:27Z</time>
      </trkpt>
      <trkpt lat="47.11629" lon="6.0609">
        <ele>540.6</ele>
        <time>2026-07-08T13:25:28Z</time>
      </trkpt>
      <trkpt lat="47.11623" lon="6.06092">
        <ele>540.6</ele>
        <time>2026-07-08T13:25:29Z</time>
      </trkpt>
      <trkpt lat="47.11618" lon="6.06094">
        <ele>540.4</ele>
        <time>2026-07-08T13:25:30Z</time>
      </trkpt>
      <trkpt lat="47.11613" lon="6.06096">
        <ele>540.4</ele>
        <time>2026-07-08T13:25:31Z</time>
      </trkpt>
      <trkpt lat="47.11607" lon="6.06098">
        <ele>540.4</ele>
        <time>2026-07-08T13:25:32Z</time>
      </trkpt>
      <trkpt lat="47.11601" lon="6.06099">
        <ele>540.4</ele>
        <time>2026-07-08T13:25:33Z</time>
      </trkpt>
      <trkpt lat="47.11596" lon="6.061">
        <ele>540.4</ele>
        <time>2026-07-08T13:25:34Z</time>
      </trkpt>
      <trkpt lat="47.11591" lon="6.061">
        <ele>540.4</ele>
        <time>2026-07-08T13:25:35Z</time>
      </trkpt>
      <trkpt lat="47.11586" lon="6.061">
        <ele>540.4</ele>
        <time>2026-07-08T13:25:36Z</time>
      </trkpt>
      <trkpt lat="47.1158" lon="6.06101">
        <ele>540.6</ele>
        <time>2026-07-08T13:25:37Z</time>
      </trkpt>
      <trkpt lat="47.11575" lon="6.06103">
        <ele>540.6</ele>
        <time>2026-07-08T13:25:38Z</time>
      </trkpt>
      <trkpt lat="47.11569" lon="6.06104">
        <ele>540.4</ele>
        <time>2026-07-08T13:25:39Z</time>
      </trkpt>
      <trkpt lat="47.11562" lon="6.06105">
        <ele>540.4</ele>
        <time>2026-07-08T13:25:40Z</time>
      </trkpt>
      <trkpt lat="47.11556" lon="6.06106">
        <ele>540.6</ele>
        <time>2026-07-08T13:25:41Z</time>
      </trkpt>
      <trkpt lat="47.11548" lon="6.06107">
        <ele>540.4</ele>
        <time>2026-07-08T13:25:42Z</time>
      </trkpt>
      <trkpt lat="47.11541" lon="6.06108">
        <ele>540.4</ele>
        <time>2026-07-08T13:25:43Z</time>
      </trkpt>
      <trkpt lat="47.11534" lon="6.06109">
        <ele>540.4</ele>
        <time>2026-07-08T13:25:44Z</time>
      </trkpt>
      <trkpt lat="47.11526" lon="6.06109">
        <ele>540.4</ele>
        <time>2026-07-08T13:25:45Z</time>
      </trkpt>
      <trkpt lat="47.11519" lon="6.0611">
        <ele>540.4</ele>
        <time>2026-07-08T13:25:46Z</time>
      </trkpt>
      <trkpt lat="47.11512" lon="6.06111">
        <ele>540.2</ele>
        <time>2026-07-08T13:25:47Z</time>
      </trkpt>
      <trkpt lat="47.11505" lon="6.06112">
        <ele>539.8</ele>
        <time>2026-07-08T13:25:48Z</time>
      </trkpt>
      <trkpt lat="47.11498" lon="6.06112">
        <ele>539.6</ele>
        <time>2026-07-08T13:25:49Z</time>
      </trkpt>
      <trkpt lat="47.11491" lon="6.06113">
        <ele>539.2</ele>
        <time>2026-07-08T13:25:50Z</time>
      </trkpt>
      <trkpt lat="47.11484" lon="6.06113">
        <ele>539.2</ele>
        <time>2026-07-08T13:25:51Z</time>
      </trkpt>
      <trkpt lat="47.11478" lon="6.06114">
        <ele>539</ele>
        <time>2026-07-08T13:25:52Z</time>
      </trkpt>
      <trkpt lat="47.11471" lon="6.06115">
        <ele>538.8</ele>
        <time>2026-07-08T13:25:53Z</time>
      </trkpt>
      <trkpt lat="47.11464" lon="6.06116">
        <ele>538.6</ele>
        <time>2026-07-08T13:25:54Z</time>
      </trkpt>
      <trkpt lat="47.11457" lon="6.06117">
        <ele>538.4</ele>
        <time>2026-07-08T13:25:55Z</time>
      </trkpt>
      <trkpt lat="47.1145" lon="6.06117">
        <ele>538.2</ele>
        <time>2026-07-08T13:25:56Z</time>
      </trkpt>
      <trkpt lat="47.11443" lon="6.06116">
        <ele>538</ele>
        <time>2026-07-08T13:25:57Z</time>
      </trkpt>
      <trkpt lat="47.11435" lon="6.06117">
        <ele>538</ele>
        <time>2026-07-08T13:25:58Z</time>
      </trkpt>
      <trkpt lat="47.11428" lon="6.06117">
        <ele>537.4</ele>
        <time>2026-07-08T13:25:59Z</time>
      </trkpt>
      <trkpt lat="47.11419" lon="6.06118">
        <ele>537.2</ele>
        <time>2026-07-08T13:26:00Z</time>
      </trkpt>
      <trkpt lat="47.11411" lon="6.06119">
        <ele>537</ele>
        <time>2026-07-08T13:26:01Z</time>
      </trkpt>
      <trkpt lat="47.11403" lon="6.06119">
        <ele>536.8</ele>
        <time>2026-07-08T13:26:02Z</time>
      </trkpt>
      <trkpt lat="47.11395" lon="6.0612">
        <ele>536.6</ele>
        <time>2026-07-08T13:26:03Z</time>
      </trkpt>
      <trkpt lat="47.11387" lon="6.06121">
        <ele>536.2</ele>
        <time>2026-07-08T13:26:04Z</time>
      </trkpt>
      <trkpt lat="47.11379" lon="6.06122">
        <ele>536</ele>
        <time>2026-07-08T13:26:05Z</time>
      </trkpt>
      <trkpt lat="47.11372" lon="6.06123">
        <ele>536</ele>
        <time>2026-07-08T13:26:06Z</time>
      </trkpt>
      <trkpt lat="47.11364" lon="6.06123">
        <ele>535.4</ele>
        <time>2026-07-08T13:26:07Z</time>
      </trkpt>
      <trkpt lat="47.11357" lon="6.06124">
        <ele>535</ele>
        <time>2026-07-08T13:26:08Z</time>
      </trkpt>
      <trkpt lat="47.1135" lon="6.06125">
        <ele>534.8</ele>
        <time>2026-07-08T13:26:09Z</time>
      </trkpt>
      <trkpt lat="47.11342" lon="6.06126">
        <ele>534.6</ele>
        <time>2026-07-08T13:26:10Z</time>
      </trkpt>
      <trkpt lat="47.11335" lon="6.06127">
        <ele>534.6</ele>
        <time>2026-07-08T13:26:11Z</time>
      </trkpt>
      <trkpt lat="47.11328" lon="6.06127">
        <ele>534.4</ele>
        <time>2026-07-08T13:26:12Z</time>
      </trkpt>
      <trkpt lat="47.11322" lon="6.06128">
        <ele>534.4</ele>
        <time>2026-07-08T13:26:13Z</time>
      </trkpt>
      <trkpt lat="47.11315" lon="6.06129">
        <ele>534.6</ele>
        <time>2026-07-08T13:26:14Z</time>
      </trkpt>
      <trkpt lat="47.11308" lon="6.0613">
        <ele>534.4</ele>
        <time>2026-07-08T13:26:15Z</time>
      </trkpt>
      <trkpt lat="47.11302" lon="6.0613">
        <ele>534.4</ele>
        <time>2026-07-08T13:26:16Z</time>
      </trkpt>
      <trkpt lat="47.11295" lon="6.0613">
        <ele>534.6</ele>
        <time>2026-07-08T13:26:17Z</time>
      </trkpt>
      <trkpt lat="47.11288" lon="6.06132">
        <ele>534.4</ele>
        <time>2026-07-08T13:26:18Z</time>
      </trkpt>
      <trkpt lat="47.11281" lon="6.06133">
        <ele>534.4</ele>
        <time>2026-07-08T13:26:19Z</time>
      </trkpt>
      <trkpt lat="47.11274" lon="6.06134">
        <ele>534.2</ele>
        <time>2026-07-08T13:26:20Z</time>
      </trkpt>
      <trkpt lat="47.11267" lon="6.06135">
        <ele>534.4</ele>
        <time>2026-07-08T13:26:21Z</time>
      </trkpt>
      <trkpt lat="47.11261" lon="6.06136">
        <ele>534.4</ele>
        <time>2026-07-08T13:26:22Z</time>
      </trkpt>
      <trkpt lat="47.11254" lon="6.06137">
        <ele>534.4</ele>
        <time>2026-07-08T13:26:23Z</time>
      </trkpt>
      <trkpt lat="47.11247" lon="6.06138">
        <ele>534.4</ele>
        <time>2026-07-08T13:26:24Z</time>
      </trkpt>
      <trkpt lat="47.1124" lon="6.06139">
        <ele>534.4</ele>
        <time>2026-07-08T13:26:25Z</time>
      </trkpt>
      <trkpt lat="47.11233" lon="6.0614">
        <ele>534.4</ele>
        <time>2026-07-08T13:26:26Z</time>
      </trkpt>
      <trkpt lat="47.11226" lon="6.06141">
        <ele>534.4</ele>
        <time>2026-07-08T13:26:27Z</time>
      </trkpt>
      <trkpt lat="47.11219" lon="6.06142">
        <ele>534.2</ele>
        <time>2026-07-08T13:26:28Z</time>
      </trkpt>
      <trkpt lat="47.11212" lon="6.06144">
        <ele>534.2</ele>
        <time>2026-07-08T13:26:29Z</time>
      </trkpt>
      <trkpt lat="47.11205" lon="6.06144">
        <ele>534.2</ele>
        <time>2026-07-08T13:26:30Z</time>
      </trkpt>
      <trkpt lat="47.11199" lon="6.06145">
        <ele>534</ele>
        <time>2026-07-08T13:26:31Z</time>
      </trkpt>
      <trkpt lat="47.11192" lon="6.06146">
        <ele>534</ele>
        <time>2026-07-08T13:26:32Z</time>
      </trkpt>
      <trkpt lat="47.11186" lon="6.06147">
        <ele>534</ele>
        <time>2026-07-08T13:26:33Z</time>
      </trkpt>
      <trkpt lat="47.1118" lon="6.06147">
        <ele>534</ele>
        <time>2026-07-08T13:26:34Z</time>
      </trkpt>
      <trkpt lat="47.11174" lon="6.06148">
        <ele>534</ele>
        <time>2026-07-08T13:26:35Z</time>
      </trkpt>
      <trkpt lat="47.11168" lon="6.06148">
        <ele>534</ele>
        <time>2026-07-08T13:26:36Z</time>
      </trkpt>
      <trkpt lat="47.11163" lon="6.06148">
        <ele>534</ele>
        <time>2026-07-08T13:26:37Z</time>
      </trkpt>
      <trkpt lat="47.11157" lon="6.06148">
        <ele>534</ele>
        <time>2026-07-08T13:26:38Z</time>
      </trkpt>
      <trkpt lat="47.11152" lon="6.06149">
        <ele>534</ele>
        <time>2026-07-08T13:26:39Z</time>
      </trkpt>
      <trkpt lat="47.11147" lon="6.06149">
        <ele>534</ele>
        <time>2026-07-08T13:26:40Z</time>
      </trkpt>
      <trkpt lat="47.11142" lon="6.06148">
        <ele>534.4</ele>
        <time>2026-07-08T13:26:41Z</time>
      </trkpt>
      <trkpt lat="47.11138" lon="6.06147">
        <ele>534.4</ele>
        <time>2026-07-08T13:26:42Z</time>
      </trkpt>
      <trkpt lat="47.11133" lon="6.06145">
        <ele>534.6</ele>
        <time>2026-07-08T13:26:43Z</time>
      </trkpt>
      <trkpt lat="47.11128" lon="6.06142">
        <ele>535</ele>
        <time>2026-07-08T13:26:44Z</time>
      </trkpt>
      <trkpt lat="47.11123" lon="6.06141">
        <ele>535</ele>
        <time>2026-07-08T13:26:45Z</time>
      </trkpt>
      <trkpt lat="47.11118" lon="6.0614">
        <ele>535.2</ele>
        <time>2026-07-08T13:26:46Z</time>
      </trkpt>
      <trkpt lat="47.11113" lon="6.06142">
        <ele>535.2</ele>
        <time>2026-07-08T13:26:47Z</time>
      </trkpt>
      <trkpt lat="47.11107" lon="6.06143">
        <ele>535.4</ele>
        <time>2026-07-08T13:26:48Z</time>
      </trkpt>
      <trkpt lat="47.11102" lon="6.06145">
        <ele>535.2</ele>
        <time>2026-07-08T13:26:49Z</time>
      </trkpt>
      <trkpt lat="47.11098" lon="6.06147">
        <ele>535.2</ele>
        <time>2026-07-08T13:26:50Z</time>
      </trkpt>
      <trkpt lat="47.11093" lon="6.0615">
        <ele>535.4</ele>
        <time>2026-07-08T13:26:51Z</time>
      </trkpt>
      <trkpt lat="47.11089" lon="6.06152">
        <ele>535.4</ele>
        <time>2026-07-08T13:26:52Z</time>
      </trkpt>
      <trkpt lat="47.11085" lon="6.06155">
        <ele>535.4</ele>
        <time>2026-07-08T13:26:53Z</time>
      </trkpt>
      <trkpt lat="47.11081" lon="6.06158">
        <ele>535.6</ele>
        <time>2026-07-08T13:26:54Z</time>
      </trkpt>
      <trkpt lat="47.11077" lon="6.06161">
        <ele>535.6</ele>
        <time>2026-07-08T13:26:55Z</time>
      </trkpt>
      <trkpt lat="47.11074" lon="6.06163">
        <ele>535.8</ele>
        <time>2026-07-08T13:26:56Z</time>
      </trkpt>
      <trkpt lat="47.1107" lon="6.06166">
        <ele>535.8</ele>
        <time>2026-07-08T13:26:57Z</time>
      </trkpt>
      <trkpt lat="47.11066" lon="6.06168">
        <ele>535.8</ele>
        <time>2026-07-08T13:26:58Z</time>
      </trkpt>
      <trkpt lat="47.11063" lon="6.06171">
        <ele>535.8</ele>
        <time>2026-07-08T13:26:59Z</time>
      </trkpt>
      <trkpt lat="47.11059" lon="6.06173">
        <ele>535.8</ele>
        <time>2026-07-08T13:27:00Z</time>
      </trkpt>
      <trkpt lat="47.11056" lon="6.06175">
        <ele>535.8</ele>
        <time>2026-07-08T13:27:01Z</time>
      </trkpt>
      <trkpt lat="47.11052" lon="6.06177">
        <ele>536</ele>
        <time>2026-07-08T13:27:02Z</time>
      </trkpt>
      <trkpt lat="47.11048" lon="6.06179">
        <ele>536.2</ele>
        <time>2026-07-08T13:27:03Z</time>
      </trkpt>
      <trkpt lat="47.11045" lon="6.06181">
        <ele>536</ele>
        <time>2026-07-08T13:27:04Z</time>
      </trkpt>
      <trkpt lat="47.11041" lon="6.06183">
        <ele>536</ele>
        <time>2026-07-08T13:27:05Z</time>
      </trkpt>
      <trkpt lat="47.11038" lon="6.06184">
        <ele>536.2</ele>
        <time>2026-07-08T13:27:06Z</time>
      </trkpt>
      <trkpt lat="47.11035" lon="6.06185">
        <ele>536</ele>
        <time>2026-07-08T13:27:07Z</time>
      </trkpt>
      <trkpt lat="47.11031" lon="6.06185">
        <ele>536.2</ele>
        <time>2026-07-08T13:27:08Z</time>
      </trkpt>
      <trkpt lat="47.11028" lon="6.06184">
        <ele>536.2</ele>
        <time>2026-07-08T13:27:09Z</time>
      </trkpt>
      <trkpt lat="47.11024" lon="6.06182">
        <ele>536.6</ele>
        <time>2026-07-08T13:27:10Z</time>
      </trkpt>
      <trkpt lat="47.1102" lon="6.06179">
        <ele>536.6</ele>
        <time>2026-07-08T13:27:11Z</time>
      </trkpt>
      <trkpt lat="47.11015" lon="6.06178">
        <ele>536.8</ele>
        <time>2026-07-08T13:27:12Z</time>
      </trkpt>
      <trkpt lat="47.11011" lon="6.06176">
        <ele>537</ele>
        <time>2026-07-08T13:27:13Z</time>
      </trkpt>
      <trkpt lat="47.11007" lon="6.06175">
        <ele>537</ele>
        <time>2026-07-08T13:27:14Z</time>
      </trkpt>
      <trkpt lat="47.11002" lon="6.06174">
        <ele>537.4</ele>
        <time>2026-07-08T13:27:15Z</time>
      </trkpt>
      <trkpt lat="47.10997" lon="6.06173">
        <ele>537.4</ele>
        <time>2026-07-08T13:27:16Z</time>
      </trkpt>
      <trkpt lat="47.10993" lon="6.06173">
        <ele>537.4</ele>
        <time>2026-07-08T13:27:17Z</time>
      </trkpt>
      <trkpt lat="47.10989" lon="6.06172">
        <ele>537.4</ele>
        <time>2026-07-08T13:27:18Z</time>
      </trkpt>
      <trkpt lat="47.10985" lon="6.06171">
        <ele>537.4</ele>
        <time>2026-07-08T13:27:19Z</time>
      </trkpt>
      <trkpt lat="47.10981" lon="6.06171">
        <ele>537.4</ele>
        <time>2026-07-08T13:27:20Z</time>
      </trkpt>
      <trkpt lat="47.10977" lon="6.06171">
        <ele>537.4</ele>
        <time>2026-07-08T13:27:21Z</time>
      </trkpt>
      <trkpt lat="47.10973" lon="6.0617">
        <ele>537.6</ele>
        <time>2026-07-08T13:27:22Z</time>
      </trkpt>
      <trkpt lat="47.1097" lon="6.0617">
        <ele>537.6</ele>
        <time>2026-07-08T13:27:23Z</time>
      </trkpt>
      <trkpt lat="47.10966" lon="6.06169">
        <ele>537.8</ele>
        <time>2026-07-08T13:27:24Z</time>
      </trkpt>
      <trkpt lat="47.10963" lon="6.06168">
        <ele>537.6</ele>
        <time>2026-07-08T13:27:25Z</time>
      </trkpt>
      <trkpt lat="47.1096" lon="6.06168">
        <ele>537.8</ele>
        <time>2026-07-08T13:27:26Z</time>
      </trkpt>
      <trkpt lat="47.10956" lon="6.06168">
        <ele>537.8</ele>
        <time>2026-07-08T13:27:27Z</time>
      </trkpt>
      <trkpt lat="47.10952" lon="6.06168">
        <ele>538</ele>
        <time>2026-07-08T13:27:28Z</time>
      </trkpt>
      <trkpt lat="47.10949" lon="6.06167">
        <ele>538</ele>
        <time>2026-07-08T13:27:29Z</time>
      </trkpt>
      <trkpt lat="47.10945" lon="6.06166">
        <ele>538.2</ele>
        <time>2026-07-08T13:27:30Z</time>
      </trkpt>
      <trkpt lat="47.10941" lon="6.06166">
        <ele>538.2</ele>
        <time>2026-07-08T13:27:31Z</time>
      </trkpt>
      <trkpt lat="47.10938" lon="6.06165">
        <ele>538.2</ele>
        <time>2026-07-08T13:27:32Z</time>
      </trkpt>
      <trkpt lat="47.10934" lon="6.06165">
        <ele>538.4</ele>
        <time>2026-07-08T13:27:33Z</time>
      </trkpt>
      <trkpt lat="47.1093" lon="6.06165">
        <ele>538.6</ele>
        <time>2026-07-08T13:27:34Z</time>
      </trkpt>
      <trkpt lat="47.10926" lon="6.06165">
        <ele>538.6</ele>
        <time>2026-07-08T13:27:35Z</time>
      </trkpt>
      <trkpt lat="47.10923" lon="6.06165">
        <ele>538.6</ele>
        <time>2026-07-08T13:27:36Z</time>
      </trkpt>
      <trkpt lat="47.1092" lon="6.06165">
        <ele>538.8</ele>
        <time>2026-07-08T13:27:37Z</time>
      </trkpt>
      <trkpt lat="47.10917" lon="6.06164">
        <ele>538.8</ele>
        <time>2026-07-08T13:27:38Z</time>
      </trkpt>
      <trkpt lat="47.10914" lon="6.06163">
        <ele>539</ele>
        <time>2026-07-08T13:27:39Z</time>
      </trkpt>
      <trkpt lat="47.1091" lon="6.06162">
        <ele>539.2</ele>
        <time>2026-07-08T13:27:40Z</time>
      </trkpt>
      <trkpt lat="47.10906" lon="6.06161">
        <ele>539.2</ele>
        <time>2026-07-08T13:27:41Z</time>
      </trkpt>
      <trkpt lat="47.10902" lon="6.06161">
        <ele>539.2</ele>
        <time>2026-07-08T13:27:42Z</time>
      </trkpt>
      <trkpt lat="47.10899" lon="6.0616">
        <ele>539.2</ele>
        <time>2026-07-08T13:27:43Z</time>
      </trkpt>
      <trkpt lat="47.10895" lon="6.06159">
        <ele>539.2</ele>
        <time>2026-07-08T13:27:44Z</time>
      </trkpt>
      <trkpt lat="47.10893" lon="6.06159">
        <ele>539.4</ele>
        <time>2026-07-08T13:27:45Z</time>
      </trkpt>
      <trkpt lat="47.1089" lon="6.06159">
        <ele>539.4</ele>
        <time>2026-07-08T13:27:46Z</time>
      </trkpt>
      <trkpt lat="47.10887" lon="6.06159">
        <ele>539.4</ele>
        <time>2026-07-08T13:27:47Z</time>
      </trkpt>
      <trkpt lat="47.10883" lon="6.06159">
        <ele>539.4</ele>
        <time>2026-07-08T13:27:48Z</time>
      </trkpt>
      <trkpt lat="47.1088" lon="6.06158">
        <ele>539.6</ele>
        <time>2026-07-08T13:27:49Z</time>
      </trkpt>
      <trkpt lat="47.10876" lon="6.06158">
        <ele>539.6</ele>
        <time>2026-07-08T13:27:50Z</time>
      </trkpt>
      <trkpt lat="47.10872" lon="6.06158">
        <ele>539.6</ele>
        <time>2026-07-08T13:27:51Z</time>
      </trkpt>
      <trkpt lat="47.10869" lon="6.06158">
        <ele>539.8</ele>
        <time>2026-07-08T13:27:52Z</time>
      </trkpt>
      <trkpt lat="47.10865" lon="6.06158">
        <ele>540</ele>
        <time>2026-07-08T13:27:53Z</time>
      </trkpt>
      <trkpt lat="47.10861" lon="6.06158">
        <ele>540</ele>
        <time>2026-07-08T13:27:54Z</time>
      </trkpt>
      <trkpt lat="47.10858" lon="6.06157">
        <ele>540</ele>
        <time>2026-07-08T13:27:55Z</time>
      </trkpt>
      <trkpt lat="47.10855" lon="6.06157">
        <ele>540.2</ele>
        <time>2026-07-08T13:27:56Z</time>
      </trkpt>
      <trkpt lat="47.10852" lon="6.06158">
        <ele>540.6</ele>
        <time>2026-07-08T13:27:57Z</time>
      </trkpt>
      <trkpt lat="47.10849" lon="6.06157">
        <ele>540.6</ele>
        <time>2026-07-08T13:27:58Z</time>
      </trkpt>
      <trkpt lat="47.10846" lon="6.06157">
        <ele>540.6</ele>
        <time>2026-07-08T13:27:59Z</time>
      </trkpt>
      <trkpt lat="47.10843" lon="6.06158">
        <ele>540.8</ele>
        <time>2026-07-08T13:28:00Z</time>
      </trkpt>
      <trkpt lat="47.10841" lon="6.06158">
        <ele>540.8</ele>
        <time>2026-07-08T13:28:01Z</time>
      </trkpt>
      <trkpt lat="47.10838" lon="6.06158">
        <ele>541</ele>
        <time>2026-07-08T13:28:02Z</time>
      </trkpt>
      <trkpt lat="47.10835" lon="6.06158">
        <ele>541.4</ele>
        <time>2026-07-08T13:28:03Z</time>
      </trkpt>
      <trkpt lat="47.10833" lon="6.06159">
        <ele>541.4</ele>
        <time>2026-07-08T13:28:04Z</time>
      </trkpt>
      <trkpt lat="47.1083" lon="6.06159">
        <ele>541.4</ele>
        <time>2026-07-08T13:28:05Z</time>
      </trkpt>
      <trkpt lat="47.10827" lon="6.06159">
        <ele>541.6</ele>
        <time>2026-07-08T13:28:06Z</time>
      </trkpt>
      <trkpt lat="47.10824" lon="6.06159">
        <ele>541.8</ele>
        <time>2026-07-08T13:28:07Z</time>
      </trkpt>
      <trkpt lat="47.10821" lon="6.06159">
        <ele>541.8</ele>
        <time>2026-07-08T13:28:08Z</time>
      </trkpt>
      <trkpt lat="47.10817" lon="6.0616">
        <ele>542.2</ele>
        <time>2026-07-08T13:28:09Z</time>
      </trkpt>
      <trkpt lat="47.10814" lon="6.0616">
        <ele>542.4</ele>
        <time>2026-07-08T13:28:10Z</time>
      </trkpt>
      <trkpt lat="47.10811" lon="6.0616">
        <ele>542.4</ele>
        <time>2026-07-08T13:28:11Z</time>
      </trkpt>
      <trkpt lat="47.10807" lon="6.0616">
        <ele>542.6</ele>
        <time>2026-07-08T13:28:12Z</time>
      </trkpt>
      <trkpt lat="47.10803" lon="6.0616">
        <ele>542.6</ele>
        <time>2026-07-08T13:28:13Z</time>
      </trkpt>
      <trkpt lat="47.10799" lon="6.0616">
        <ele>542.8</ele>
        <time>2026-07-08T13:28:14Z</time>
      </trkpt>
      <trkpt lat="47.10796" lon="6.06161">
        <ele>543.2</ele>
        <time>2026-07-08T13:28:15Z</time>
      </trkpt>
      <trkpt lat="47.10792" lon="6.06161">
        <ele>543.2</ele>
        <time>2026-07-08T13:28:16Z</time>
      </trkpt>
      <trkpt lat="47.10789" lon="6.0616">
        <ele>543.4</ele>
        <time>2026-07-08T13:28:17Z</time>
      </trkpt>
      <trkpt lat="47.10785" lon="6.0616">
        <ele>543.6</ele>
        <time>2026-07-08T13:28:18Z</time>
      </trkpt>
      <trkpt lat="47.1078" lon="6.06159">
        <ele>543.8</ele>
        <time>2026-07-08T13:28:19Z</time>
      </trkpt>
      <trkpt lat="47.10777" lon="6.06159">
        <ele>543.8</ele>
        <time>2026-07-08T13:28:20Z</time>
      </trkpt>
      <trkpt lat="47.10773" lon="6.06159">
        <ele>543.8</ele>
        <time>2026-07-08T13:28:21Z</time>
      </trkpt>
      <trkpt lat="47.10769" lon="6.06159">
        <ele>543.8</ele>
        <time>2026-07-08T13:28:22Z</time>
      </trkpt>
      <trkpt lat="47.10766" lon="6.06159">
        <ele>544</ele>
        <time>2026-07-08T13:28:23Z</time>
      </trkpt>
      <trkpt lat="47.10763" lon="6.06159">
        <ele>544.2</ele>
        <time>2026-07-08T13:28:24Z</time>
      </trkpt>
      <trkpt lat="47.10759" lon="6.06159">
        <ele>544.4</ele>
        <time>2026-07-08T13:28:25Z</time>
      </trkpt>
      <trkpt lat="47.10755" lon="6.06158">
        <ele>544.4</ele>
        <time>2026-07-08T13:28:26Z</time>
      </trkpt>
      <trkpt lat="47.10751" lon="6.06158">
        <ele>544.4</ele>
        <time>2026-07-08T13:28:27Z</time>
      </trkpt>
      <trkpt lat="47.10747" lon="6.06157">
        <ele>544.4</ele>
        <time>2026-07-08T13:28:28Z</time>
      </trkpt>
      <trkpt lat="47.10743" lon="6.06157">
        <ele>544.6</ele>
        <time>2026-07-08T13:28:29Z</time>
      </trkpt>
      <trkpt lat="47.1074" lon="6.06157">
        <ele>544.6</ele>
        <time>2026-07-08T13:28:30Z</time>
      </trkpt>
      <trkpt lat="47.10736" lon="6.06157">
        <ele>544.8</ele>
        <time>2026-07-08T13:28:31Z</time>
      </trkpt>
      <trkpt lat="47.10733" lon="6.06156">
        <ele>544.6</ele>
        <time>2026-07-08T13:28:32Z</time>
      </trkpt>
      <trkpt lat="47.10729" lon="6.06156">
        <ele>544.8</ele>
        <time>2026-07-08T13:28:33Z</time>
      </trkpt>
      <trkpt lat="47.10726" lon="6.06156">
        <ele>544.8</ele>
        <time>2026-07-08T13:28:34Z</time>
      </trkpt>
      <trkpt lat="47.10723" lon="6.06157">
        <ele>545</ele>
        <time>2026-07-08T13:28:35Z</time>
      </trkpt>
      <trkpt lat="47.10721" lon="6.06159">
        <ele>545.2</ele>
        <time>2026-07-08T13:28:36Z</time>
      </trkpt>
      <trkpt lat="47.10719" lon="6.0616">
        <ele>545</ele>
        <time>2026-07-08T13:28:37Z</time>
      </trkpt>
      <trkpt lat="47.10717" lon="6.06161">
        <ele>545.2</ele>
        <time>2026-07-08T13:28:38Z</time>
      </trkpt>
      <trkpt lat="47.10715" lon="6.06162">
        <ele>545.2</ele>
        <time>2026-07-08T13:28:39Z</time>
      </trkpt>
      <trkpt lat="47.10714" lon="6.06162">
        <ele>545.2</ele>
        <time>2026-07-08T13:28:40Z</time>
      </trkpt>
      <trkpt lat="47.10712" lon="6.06163">
        <ele>545.2</ele>
        <time>2026-07-08T13:28:41Z</time>
      </trkpt>
      <trkpt lat="47.1071" lon="6.06163">
        <ele>545.4</ele>
        <time>2026-07-08T13:28:42Z</time>
      </trkpt>
      <trkpt lat="47.10708" lon="6.06164">
        <ele>545.4</ele>
        <time>2026-07-08T13:28:43Z</time>
      </trkpt>
      <trkpt lat="47.10707" lon="6.06166">
        <ele>545.6</ele>
        <time>2026-07-08T13:28:44Z</time>
      </trkpt>
      <trkpt lat="47.10706" lon="6.06168">
        <ele>546</ele>
        <time>2026-07-08T13:28:45Z</time>
      </trkpt>
      <trkpt lat="47.10705" lon="6.06171">
        <ele>546</ele>
        <time>2026-07-08T13:28:46Z</time>
      </trkpt>
      <trkpt lat="47.10704" lon="6.06173">
        <ele>546.4</ele>
        <time>2026-07-08T13:28:47Z</time>
      </trkpt>
      <trkpt lat="47.10703" lon="6.06175">
        <ele>546.8</ele>
        <time>2026-07-08T13:28:48Z</time>
      </trkpt>
      <trkpt lat="47.10704" lon="6.06177">
        <ele>546.8</ele>
        <time>2026-07-08T13:28:49Z</time>
      </trkpt>
      <trkpt lat="47.10704" lon="6.06178">
        <ele>546.8</ele>
        <time>2026-07-08T13:28:50Z</time>
      </trkpt>
      <trkpt lat="47.10705" lon="6.0618">
        <ele>547</ele>
        <time>2026-07-08T13:28:51Z</time>
      </trkpt>
      <trkpt lat="47.10706" lon="6.06181">
        <ele>547.4</ele>
        <time>2026-07-08T13:28:52Z</time>
      </trkpt>
      <trkpt lat="47.10707" lon="6.06183">
        <ele>547.4</ele>
        <time>2026-07-08T13:28:53Z</time>
      </trkpt>
      <trkpt lat="47.10708" lon="6.06185">
        <ele>547.8</ele>
        <time>2026-07-08T13:28:54Z</time>
      </trkpt>
      <trkpt lat="47.10708" lon="6.06186">
        <ele>548.2</ele>
        <time>2026-07-08T13:28:55Z</time>
      </trkpt>
      <trkpt lat="47.10709" lon="6.06187">
        <ele>548.4</ele>
        <time>2026-07-08T13:28:56Z</time>
      </trkpt>
      <trkpt lat="47.10709" lon="6.06189">
        <ele>548.6</ele>
        <time>2026-07-08T13:28:57Z</time>
      </trkpt>
      <trkpt lat="47.10709" lon="6.0619">
        <ele>549</ele>
        <time>2026-07-08T13:28:58Z</time>
      </trkpt>
      <trkpt lat="47.1071" lon="6.06193">
        <ele>549</ele>
        <time>2026-07-08T13:28:59Z</time>
      </trkpt>
      <trkpt lat="47.1071" lon="6.06195">
        <ele>549.2</ele>
        <time>2026-07-08T13:29:00Z</time>
      </trkpt>
      <trkpt lat="47.1071" lon="6.06197">
        <ele>549.4</ele>
        <time>2026-07-08T13:29:01Z</time>
      </trkpt>
      <trkpt lat="47.1071" lon="6.06199">
        <ele>549.6</ele>
        <time>2026-07-08T13:29:02Z</time>
      </trkpt>
      <trkpt lat="47.10709" lon="6.06202">
        <ele>549.8</ele>
        <time>2026-07-08T13:29:03Z</time>
      </trkpt>
      <trkpt lat="47.10709" lon="6.06205">
        <ele>549.8</ele>
        <time>2026-07-08T13:29:04Z</time>
      </trkpt>
      <trkpt lat="47.10709" lon="6.06206">
        <ele>550</ele>
        <time>2026-07-08T13:29:05Z</time>
      </trkpt>
      <trkpt lat="47.10709" lon="6.06209">
        <ele>550.4</ele>
        <time>2026-07-08T13:29:06Z</time>
      </trkpt>
      <trkpt lat="47.10709" lon="6.06211">
        <ele>550.6</ele>
        <time>2026-07-08T13:29:07Z</time>
      </trkpt>
      <trkpt lat="47.10709" lon="6.06213">
        <ele>550.8</ele>
        <time>2026-07-08T13:29:08Z</time>
      </trkpt>
      <trkpt lat="47.10709" lon="6.06216">
        <ele>551</ele>
        <time>2026-07-08T13:29:09Z</time>
      </trkpt>
      <trkpt lat="47.10709" lon="6.06219">
        <ele>551.2</ele>
        <time>2026-07-08T13:29:10Z</time>
      </trkpt>
      <trkpt lat="47.10709" lon="6.06221">
        <ele>551.4</ele>
        <time>2026-07-08T13:29:11Z</time>
      </trkpt>
      <trkpt lat="47.10709" lon="6.06223">
        <ele>551.4</ele>
        <time>2026-07-08T13:29:12Z</time>
      </trkpt>
      <trkpt lat="47.10708" lon="6.06225">
        <ele>551.6</ele>
        <time>2026-07-08T13:29:13Z</time>
      </trkpt>
      <trkpt lat="47.10708" lon="6.06228">
        <ele>551.6</ele>
        <time>2026-07-08T13:29:14Z</time>
      </trkpt>
      <trkpt lat="47.10707" lon="6.06231">
        <ele>551.8</ele>
        <time>2026-07-08T13:29:15Z</time>
      </trkpt>
      <trkpt lat="47.10705" lon="6.06234">
        <ele>551.6</ele>
        <time>2026-07-08T13:29:16Z</time>
      </trkpt>
      <trkpt lat="47.10704" lon="6.06236">
        <ele>551.6</ele>
        <time>2026-07-08T13:29:17Z</time>
      </trkpt>
      <trkpt lat="47.10701" lon="6.06239">
        <ele>551.6</ele>
        <time>2026-07-08T13:29:18Z</time>
      </trkpt>
      <trkpt lat="47.107" lon="6.06243">
        <ele>551.8</ele>
        <time>2026-07-08T13:29:19Z</time>
      </trkpt>
      <trkpt lat="47.10699" lon="6.06247">
        <ele>551.8</ele>
        <time>2026-07-08T13:29:20Z</time>
      </trkpt>
      <trkpt lat="47.10698" lon="6.0625">
        <ele>551.8</ele>
        <time>2026-07-08T13:29:21Z</time>
      </trkpt>
      <trkpt lat="47.10697" lon="6.06254">
        <ele>551.6</ele>
        <time>2026-07-08T13:29:22Z</time>
      </trkpt>
      <trkpt lat="47.10696" lon="6.0626">
        <ele>551.8</ele>
        <time>2026-07-08T13:29:23Z</time>
      </trkpt>
      <trkpt lat="47.10695" lon="6.06266">
        <ele>551.8</ele>
        <time>2026-07-08T13:29:24Z</time>
      </trkpt>
      <trkpt lat="47.10695" lon="6.06272">
        <ele>551.6</ele>
        <time>2026-07-08T13:29:25Z</time>
      </trkpt>
      <trkpt lat="47.10695" lon="6.06279">
        <ele>551.2</ele>
        <time>2026-07-08T13:29:26Z</time>
      </trkpt>
      <trkpt lat="47.10694" lon="6.06286">
        <ele>550.8</ele>
        <time>2026-07-08T13:29:27Z</time>
      </trkpt>
      <trkpt lat="47.10692" lon="6.06293">
        <ele>550</ele>
        <time>2026-07-08T13:29:28Z</time>
      </trkpt>
      <trkpt lat="47.10691" lon="6.06298">
        <ele>549.4</ele>
        <time>2026-07-08T13:29:29Z</time>
      </trkpt>
      <trkpt lat="47.1069" lon="6.06304">
        <ele>548.8</ele>
        <time>2026-07-08T13:29:30Z</time>
      </trkpt>
      <trkpt lat="47.10689" lon="6.06308">
        <ele>548</ele>
        <time>2026-07-08T13:29:31Z</time>
      </trkpt>
      <trkpt lat="47.10688" lon="6.06312">
        <ele>547.4</ele>
        <time>2026-07-08T13:29:32Z</time>
      </trkpt>
      <trkpt lat="47.10686" lon="6.06317">
        <ele>546.6</ele>
        <time>2026-07-08T13:29:33Z</time>
      </trkpt>
      <trkpt lat="47.10684" lon="6.06321">
        <ele>546.6</ele>
        <time>2026-07-08T13:29:34Z</time>
      </trkpt>
      <trkpt lat="47.10683" lon="6.06326">
        <ele>545.8</ele>
        <time>2026-07-08T13:29:35Z</time>
      </trkpt>
      <trkpt lat="47.10682" lon="6.0633">
        <ele>545</ele>
        <time>2026-07-08T13:29:36Z</time>
      </trkpt>
      <trkpt lat="47.10681" lon="6.06333">
        <ele>544.4</ele>
        <time>2026-07-08T13:29:37Z</time>
      </trkpt>
      <trkpt lat="47.10681" lon="6.06336">
        <ele>543.4</ele>
        <time>2026-07-08T13:29:38Z</time>
      </trkpt>
      <trkpt lat="47.10679" lon="6.06338">
        <ele>542.8</ele>
        <time>2026-07-08T13:29:39Z</time>
      </trkpt>
      <trkpt lat="47.10678" lon="6.0634">
        <ele>542.2</ele>
        <time>2026-07-08T13:29:40Z</time>
      </trkpt>
      <trkpt lat="47.10676" lon="6.06344">
        <ele>541.8</ele>
        <time>2026-07-08T13:29:41Z</time>
      </trkpt>
      <trkpt lat="47.10675" lon="6.06349">
        <ele>541.6</ele>
        <time>2026-07-08T13:29:42Z</time>
      </trkpt>
      <trkpt lat="47.10674" lon="6.06354">
        <ele>541.4</ele>
        <time>2026-07-08T13:29:43Z</time>
      </trkpt>
      <trkpt lat="47.10673" lon="6.0636">
        <ele>541</ele>
        <time>2026-07-08T13:29:44Z</time>
      </trkpt>
      <trkpt lat="47.10672" lon="6.06367">
        <ele>540.6</ele>
        <time>2026-07-08T13:29:45Z</time>
      </trkpt>
      <trkpt lat="47.1067" lon="6.06374">
        <ele>540.8</ele>
        <time>2026-07-08T13:29:46Z</time>
      </trkpt>
      <trkpt lat="47.10669" lon="6.06386">
        <ele>540.6</ele>
        <time>2026-07-08T13:29:47Z</time>
      </trkpt>
      <trkpt lat="47.1067" lon="6.06392">
        <ele>540.4</ele>
        <time>2026-07-08T13:29:48Z</time>
      </trkpt>
      <trkpt lat="47.1067" lon="6.06392">
        <ele>540.2</ele>
        <time>2026-07-08T13:29:49Z</time>
      </trkpt>
      <trkpt lat="47.10671" lon="6.06398">
        <ele>540</ele>
        <time>2026-07-08T13:29:50Z</time>
      </trkpt>
      <trkpt lat="47.10671" lon="6.06405">
        <ele>539.4</ele>
        <time>2026-07-08T13:29:51Z</time>
      </trkpt>
      <trkpt lat="47.10672" lon="6.06414">
        <ele>539.2</ele>
        <time>2026-07-08T13:29:52Z</time>
      </trkpt>
      <trkpt lat="47.10671" lon="6.06422">
        <ele>538.8</ele>
        <time>2026-07-08T13:29:53Z</time>
      </trkpt>
      <trkpt lat="47.10669" lon="6.06438">
        <ele>538.2</ele>
        <time>2026-07-08T13:29:54Z</time>
      </trkpt>
      <trkpt lat="47.10669" lon="6.06438">
        <ele>538</ele>
        <time>2026-07-08T13:29:55Z</time>
      </trkpt>
      <trkpt lat="47.10668" lon="6.06446">
        <ele>537.4</ele>
        <time>2026-07-08T13:29:56Z</time>
      </trkpt>
      <trkpt lat="47.10667" lon="6.06454">
        <ele>537.4</ele>
        <time>2026-07-08T13:29:57Z</time>
      </trkpt>
      <trkpt lat="47.10667" lon="6.06462">
        <ele>537</ele>
        <time>2026-07-08T13:29:58Z</time>
      </trkpt>
      <trkpt lat="47.10665" lon="6.06479">
        <ele>536.8</ele>
        <time>2026-07-08T13:29:59Z</time>
      </trkpt>
      <trkpt lat="47.10664" lon="6.06487">
        <ele>536.4</ele>
        <time>2026-07-08T13:30:00Z</time>
      </trkpt>
      <trkpt lat="47.10664" lon="6.06494">
        <ele>536</ele>
        <time>2026-07-08T13:30:01Z</time>
      </trkpt>
      <trkpt lat="47.10664" lon="6.06499">
        <ele>535.2</ele>
        <time>2026-07-08T13:30:02Z</time>
      </trkpt>
      <trkpt lat="47.10663" lon="6.06505">
        <ele>535</ele>
        <time>2026-07-08T13:30:03Z</time>
      </trkpt>
      <trkpt lat="47.10662" lon="6.06511">
        <ele>534.6</ele>
        <time>2026-07-08T13:30:04Z</time>
      </trkpt>
      <trkpt lat="47.10661" lon="6.06518">
        <ele>534</ele>
        <time>2026-07-08T13:30:05Z</time>
      </trkpt>
      <trkpt lat="47.10661" lon="6.06518">
        <ele>533.6</ele>
        <time>2026-07-08T13:30:06Z</time>
      </trkpt>
      <trkpt lat="47.10658" lon="6.06532">
        <ele>533.2</ele>
        <time>2026-07-08T13:30:07Z</time>
      </trkpt>
      <trkpt lat="47.10658" lon="6.06532">
        <ele>532.4</ele>
        <time>2026-07-08T13:30:08Z</time>
      </trkpt>
      <trkpt lat="47.10658" lon="6.0654">
        <ele>531.6</ele>
        <time>2026-07-08T13:30:09Z</time>
      </trkpt>
      <trkpt lat="47.10659" lon="6.06549">
        <ele>530.6</ele>
        <time>2026-07-08T13:30:10Z</time>
      </trkpt>
      <trkpt lat="47.10659" lon="6.06557">
        <ele>530</ele>
        <time>2026-07-08T13:30:11Z</time>
      </trkpt>
      <trkpt lat="47.10658" lon="6.06565">
        <ele>529.2</ele>
        <time>2026-07-08T13:30:12Z</time>
      </trkpt>
      <trkpt lat="47.10659" lon="6.06571">
        <ele>528.8</ele>
        <time>2026-07-08T13:30:13Z</time>
      </trkpt>
      <trkpt lat="47.10658" lon="6.06578">
        <ele>528.2</ele>
        <time>2026-07-08T13:30:14Z</time>
      </trkpt>
      <trkpt lat="47.10657" lon="6.06585">
        <ele>527.4</ele>
        <time>2026-07-08T13:30:15Z</time>
      </trkpt>
      <trkpt lat="47.10655" lon="6.06598">
        <ele>526</ele>
        <time>2026-07-08T13:30:16Z</time>
      </trkpt>
      <trkpt lat="47.10655" lon="6.06598">
        <ele>525.2</ele>
        <time>2026-07-08T13:30:17Z</time>
      </trkpt>
      <trkpt lat="47.10654" lon="6.06605">
        <ele>524</ele>
        <time>2026-07-08T13:30:18Z</time>
      </trkpt>
      <trkpt lat="47.10653" lon="6.06611">
        <ele>524</ele>
        <time>2026-07-08T13:30:19Z</time>
      </trkpt>
      <trkpt lat="47.10652" lon="6.06621">
        <ele>522.8</ele>
        <time>2026-07-08T13:30:20Z</time>
      </trkpt>
      <trkpt lat="47.10651" lon="6.06625">
        <ele>521.6</ele>
        <time>2026-07-08T13:30:21Z</time>
      </trkpt>
      <trkpt lat="47.10649" lon="6.0663">
        <ele>520.6</ele>
        <time>2026-07-08T13:30:22Z</time>
      </trkpt>
      <trkpt lat="47.10648" lon="6.06634">
        <ele>519.2</ele>
        <time>2026-07-08T13:30:23Z</time>
      </trkpt>
      <trkpt lat="47.10647" lon="6.06639">
        <ele>518</ele>
        <time>2026-07-08T13:30:24Z</time>
      </trkpt>
      <trkpt lat="47.10647" lon="6.06639">
        <ele>517.2</ele>
        <time>2026-07-08T13:30:25Z</time>
      </trkpt>
      <trkpt lat="47.10645" lon="6.06648">
        <ele>516.4</ele>
        <time>2026-07-08T13:30:26Z</time>
      </trkpt>
      <trkpt lat="47.10642" lon="6.06654">
        <ele>515.4</ele>
        <time>2026-07-08T13:30:27Z</time>
      </trkpt>
      <trkpt lat="47.10642" lon="6.06654">
        <ele>514.2</ele>
        <time>2026-07-08T13:30:28Z</time>
      </trkpt>
      <trkpt lat="47.1064" lon="6.06662">
        <ele>513.2</ele>
        <time>2026-07-08T13:30:29Z</time>
      </trkpt>
      <trkpt lat="47.10638" lon="6.06666">
        <ele>512.2</ele>
        <time>2026-07-08T13:30:30Z</time>
      </trkpt>
      <trkpt lat="47.10638" lon="6.06666">
        <ele>510.8</ele>
        <time>2026-07-08T13:30:31Z</time>
      </trkpt>
      <trkpt lat="47.10635" lon="6.06668">
        <ele>509.8</ele>
        <time>2026-07-08T13:30:32Z</time>
      </trkpt>
      <trkpt lat="47.10633" lon="6.06671">
        <ele>509.2</ele>
        <time>2026-07-08T13:30:33Z</time>
      </trkpt>
      <trkpt lat="47.10631" lon="6.06677">
        <ele>507.8</ele>
        <time>2026-07-08T13:30:34Z</time>
      </trkpt>
      <trkpt lat="47.10631" lon="6.06677">
        <ele>506.8</ele>
        <time>2026-07-08T13:30:35Z</time>
      </trkpt>
      <trkpt lat="47.1063" lon="6.06681">
        <ele>505.6</ele>
        <time>2026-07-08T13:30:36Z</time>
      </trkpt>
      <trkpt lat="47.1063" lon="6.0669">
        <ele>504</ele>
        <time>2026-07-08T13:30:37Z</time>
      </trkpt>
      <trkpt lat="47.10631" lon="6.06694">
        <ele>503.4</ele>
        <time>2026-07-08T13:30:38Z</time>
      </trkpt>
      <trkpt lat="47.10631" lon="6.06698">
        <ele>502.4</ele>
        <time>2026-07-08T13:30:39Z</time>
      </trkpt>
      <trkpt lat="47.10632" lon="6.06702">
        <ele>501.4</ele>
        <time>2026-07-08T13:30:40Z</time>
      </trkpt>
      <trkpt lat="47.10631" lon="6.06707">
        <ele>501.4</ele>
        <time>2026-07-08T13:30:41Z</time>
      </trkpt>
      <trkpt lat="47.10631" lon="6.06707">
        <ele>500.4</ele>
        <time>2026-07-08T13:30:42Z</time>
      </trkpt>
      <trkpt lat="47.10631" lon="6.06711">
        <ele>499.4</ele>
        <time>2026-07-08T13:30:43Z</time>
      </trkpt>
      <trkpt lat="47.10631" lon="6.06715">
        <ele>499</ele>
        <time>2026-07-08T13:30:44Z</time>
      </trkpt>
      <trkpt lat="47.10631" lon="6.06718">
        <ele>498.4</ele>
        <time>2026-07-08T13:30:45Z</time>
      </trkpt>
      <trkpt lat="47.1063" lon="6.06722">
        <ele>497.8</ele>
        <time>2026-07-08T13:30:46Z</time>
      </trkpt>
      <trkpt lat="47.1063" lon="6.06722">
        <ele>497.4</ele>
        <time>2026-07-08T13:30:47Z</time>
      </trkpt>
      <trkpt lat="47.10629" lon="6.06723">
        <ele>497</ele>
        <time>2026-07-08T13:30:48Z</time>
      </trkpt>
      <trkpt lat="47.10629" lon="6.06724">
        <ele>496</ele>
        <time>2026-07-08T13:30:49Z</time>
      </trkpt>
      <trkpt lat="47.10629" lon="6.06724">
        <ele>495.2</ele>
        <time>2026-07-08T13:30:50Z</time>
      </trkpt>
      <trkpt lat="47.1063" lon="6.06724">
        <ele>494.8</ele>
        <time>2026-07-08T13:30:51Z</time>
      </trkpt>
      <trkpt lat="47.1063" lon="6.06724">
        <ele>493.6</ele>
        <time>2026-07-08T13:30:52Z</time>
      </trkpt>
      <trkpt lat="47.1063" lon="6.06725">
        <ele>493.2</ele>
        <time>2026-07-08T13:30:53Z</time>
      </trkpt>
      <trkpt lat="47.1063" lon="6.06725">
        <ele>492.2</ele>
        <time>2026-07-08T13:30:54Z</time>
      </trkpt>
      <trkpt lat="47.10619" lon="6.06741">
        <ele>491</ele>
        <time>2026-07-08T13:31:09Z</time>
      </trkpt>
      <trkpt lat="47.10619" lon="6.06741">
        <ele>490.8</ele>
        <time>2026-07-08T13:31:10Z</time>
      </trkpt>
      <trkpt lat="47.10619" lon="6.06744">
        <ele>490.6</ele>
        <time>2026-07-08T13:31:11Z</time>
      </trkpt>
      <trkpt lat="47.10619" lon="6.06748">
        <ele>490.6</ele>
        <time>2026-07-08T13:31:12Z</time>
      </trkpt>
      <trkpt lat="47.10619" lon="6.06751">
        <ele>490.6</ele>
        <time>2026-07-08T13:31:13Z</time>
      </trkpt>
      <trkpt lat="47.10619" lon="6.06757">
        <ele>490.6</ele>
        <time>2026-07-08T13:31:14Z</time>
      </trkpt>
      <trkpt lat="47.10618" lon="6.06758">
        <ele>490.2</ele>
        <time>2026-07-08T13:31:15Z</time>
      </trkpt>
      <trkpt lat="47.10618" lon="6.06758">
        <ele>490.2</ele>
        <time>2026-07-08T13:31:16Z</time>
      </trkpt>
      <trkpt lat="47.10618" lon="6.0676">
        <ele>490.2</ele>
        <time>2026-07-08T13:31:17Z</time>
      </trkpt>
      <trkpt lat="47.10618" lon="6.06761">
        <ele>489.8</ele>
        <time>2026-07-08T13:31:18Z</time>
      </trkpt>
      <trkpt lat="47.10616" lon="6.06763">
        <ele>489.6</ele>
        <time>2026-07-08T13:31:19Z</time>
      </trkpt>
      <trkpt lat="47.10613" lon="6.06774">
        <ele>485.8</ele>
        <time>2026-07-08T13:31:25Z</time>
      </trkpt>
      <trkpt lat="47.10614" lon="6.06777">
        <ele>485.6</ele>
        <time>2026-07-08T13:31:26Z</time>
      </trkpt>
      <trkpt lat="47.10614" lon="6.0678">
        <ele>485.4</ele>
        <time>2026-07-08T13:31:27Z</time>
      </trkpt>
      <trkpt lat="47.10615" lon="6.06783">
        <ele>485.2</ele>
        <time>2026-07-08T13:31:28Z</time>
      </trkpt>
      <trkpt lat="47.10616" lon="6.06787">
        <ele>485.2</ele>
        <time>2026-07-08T13:31:29Z</time>
      </trkpt>
      <trkpt lat="47.10616" lon="6.06791">
        <ele>485.2</ele>
        <time>2026-07-08T13:31:30Z</time>
      </trkpt>
      <trkpt lat="47.10617" lon="6.06795">
        <ele>484.8</ele>
        <time>2026-07-08T13:31:31Z</time>
      </trkpt>
      <trkpt lat="47.10617" lon="6.06799">
        <ele>484.2</ele>
        <time>2026-07-08T13:31:32Z</time>
      </trkpt>
      <trkpt lat="47.10617" lon="6.06802">
        <ele>484</ele>
        <time>2026-07-08T13:31:33Z</time>
      </trkpt>
      <trkpt lat="47.10616" lon="6.06806">
        <ele>483.6</ele>
        <time>2026-07-08T13:31:34Z</time>
      </trkpt>
      <trkpt lat="47.10616" lon="6.06808">
        <ele>483</ele>
        <time>2026-07-08T13:31:35Z</time>
      </trkpt>
      <trkpt lat="47.10617" lon="6.0681">
        <ele>482.4</ele>
        <time>2026-07-08T13:31:36Z</time>
      </trkpt>
      <trkpt lat="47.10617" lon="6.06812">
        <ele>481.8</ele>
        <time>2026-07-08T13:31:37Z</time>
      </trkpt>
      <trkpt lat="47.10614" lon="6.06828">
        <ele>477.6</ele>
        <time>2026-07-08T13:31:47Z</time>
      </trkpt>
      <trkpt lat="47.10614" lon="6.0683">
        <ele>477.6</ele>
        <time>2026-07-08T13:31:48Z</time>
      </trkpt>
      <trkpt lat="47.10613" lon="6.06832">
        <ele>477.6</ele>
        <time>2026-07-08T13:31:49Z</time>
      </trkpt>
      <trkpt lat="47.10613" lon="6.06833">
        <ele>477.2</ele>
        <time>2026-07-08T13:31:50Z</time>
      </trkpt>
      <trkpt lat="47.10613" lon="6.06836">
        <ele>477.2</ele>
        <time>2026-07-08T13:31:51Z</time>
      </trkpt>
      <trkpt lat="47.10613" lon="6.06839">
        <ele>477</ele>
        <time>2026-07-08T13:31:52Z</time>
      </trkpt>
      <trkpt lat="47.10614" lon="6.06842">
        <ele>476.8</ele>
        <time>2026-07-08T13:31:53Z</time>
      </trkpt>
      <trkpt lat="47.10615" lon="6.06846">
        <ele>476.8</ele>
        <time>2026-07-08T13:31:54Z</time>
      </trkpt>
      <trkpt lat="47.10616" lon="6.06848">
        <ele>476.4</ele>
        <time>2026-07-08T13:31:55Z</time>
      </trkpt>
      <trkpt lat="47.10617" lon="6.06852">
        <ele>476</ele>
        <time>2026-07-08T13:31:56Z</time>
      </trkpt>
      <trkpt lat="47.10617" lon="6.06855">
        <ele>475.8</ele>
        <time>2026-07-08T13:31:57Z</time>
      </trkpt>
      <trkpt lat="47.10619" lon="6.06859">
        <ele>475.4</ele>
        <time>2026-07-08T13:31:58Z</time>
      </trkpt>
      <trkpt lat="47.1062" lon="6.06864">
        <ele>475.2</ele>
        <time>2026-07-08T13:31:59Z</time>
      </trkpt>
      <trkpt lat="47.10623" lon="6.06869">
        <ele>475.2</ele>
        <time>2026-07-08T13:32:00Z</time>
      </trkpt>
      <trkpt lat="47.10626" lon="6.06874">
        <ele>474.8</ele>
        <time>2026-07-08T13:32:01Z</time>
      </trkpt>
      <trkpt lat="47.10627" lon="6.06879">
        <ele>474.4</ele>
        <time>2026-07-08T13:32:02Z</time>
      </trkpt>
      <trkpt lat="47.10628" lon="6.06883">
        <ele>473.8</ele>
        <time>2026-07-08T13:32:03Z</time>
      </trkpt>
      <trkpt lat="47.10629" lon="6.06886">
        <ele>473.6</ele>
        <time>2026-07-08T13:32:04Z</time>
      </trkpt>
      <trkpt lat="47.1063" lon="6.06889">
        <ele>473.2</ele>
        <time>2026-07-08T13:32:05Z</time>
      </trkpt>
      <trkpt lat="47.10631" lon="6.06892">
        <ele>472.6</ele>
        <time>2026-07-08T13:32:06Z</time>
      </trkpt>
      <trkpt lat="47.10631" lon="6.06896">
        <ele>472.4</ele>
        <time>2026-07-08T13:32:07Z</time>
      </trkpt>
      <trkpt lat="47.10631" lon="6.06899">
        <ele>472</ele>
        <time>2026-07-08T13:32:08Z</time>
      </trkpt>
      <trkpt lat="47.10629" lon="6.06905">
        <ele>471.4</ele>
        <time>2026-07-08T13:32:09Z</time>
      </trkpt>
      <trkpt lat="47.10629" lon="6.0691">
        <ele>470.8</ele>
        <time>2026-07-08T13:32:10Z</time>
      </trkpt>
      <trkpt lat="47.10629" lon="6.06916">
        <ele>470.4</ele>
        <time>2026-07-08T13:32:11Z</time>
      </trkpt>
      <trkpt lat="47.10627" lon="6.06922">
        <ele>470</ele>
        <time>2026-07-08T13:32:12Z</time>
      </trkpt>
      <trkpt lat="47.10625" lon="6.06927">
        <ele>470</ele>
        <time>2026-07-08T13:32:13Z</time>
      </trkpt>
      <trkpt lat="47.10622" lon="6.06933">
        <ele>469.6</ele>
        <time>2026-07-08T13:32:14Z</time>
      </trkpt>
      <trkpt lat="47.1062" lon="6.06938">
        <ele>469.2</ele>
        <time>2026-07-08T13:32:15Z</time>
      </trkpt>
      <trkpt lat="47.10619" lon="6.06943">
        <ele>469</ele>
        <time>2026-07-08T13:32:16Z</time>
      </trkpt>
      <trkpt lat="47.10617" lon="6.06948">
        <ele>468.6</ele>
        <time>2026-07-08T13:32:17Z</time>
      </trkpt>
      <trkpt lat="47.10614" lon="6.06955">
        <ele>468.4</ele>
        <time>2026-07-08T13:32:18Z</time>
      </trkpt>
      <trkpt lat="47.10612" lon="6.0696">
        <ele>468</ele>
        <time>2026-07-08T13:32:19Z</time>
      </trkpt>
      <trkpt lat="47.1061" lon="6.06966">
        <ele>467.6</ele>
        <time>2026-07-08T13:32:20Z</time>
      </trkpt>
      <trkpt lat="47.10611" lon="6.0697">
        <ele>467.2</ele>
        <time>2026-07-08T13:32:21Z</time>
      </trkpt>
      <trkpt lat="47.1061" lon="6.06974">
        <ele>466.8</ele>
        <time>2026-07-08T13:32:22Z</time>
      </trkpt>
      <trkpt lat="47.10608" lon="6.06978">
        <ele>466.4</ele>
        <time>2026-07-08T13:32:23Z</time>
      </trkpt>
      <trkpt lat="47.10607" lon="6.06983">
        <ele>466</ele>
        <time>2026-07-08T13:32:24Z</time>
      </trkpt>
      <trkpt lat="47.10605" lon="6.06988">
        <ele>465.6</ele>
        <time>2026-07-08T13:32:25Z</time>
      </trkpt>
      <trkpt lat="47.10603" lon="6.06992">
        <ele>465</ele>
        <time>2026-07-08T13:32:26Z</time>
      </trkpt>
      <trkpt lat="47.10602" lon="6.06997">
        <ele>464.6</ele>
        <time>2026-07-08T13:32:27Z</time>
      </trkpt>
      <trkpt lat="47.106" lon="6.07003">
        <ele>464.2</ele>
        <time>2026-07-08T13:32:28Z</time>
      </trkpt>
      <trkpt lat="47.10598" lon="6.07008">
        <ele>464</ele>
        <time>2026-07-08T13:32:29Z</time>
      </trkpt>
      <trkpt lat="47.10597" lon="6.07013">
        <ele>463.4</ele>
        <time>2026-07-08T13:32:30Z</time>
      </trkpt>
      <trkpt lat="47.10595" lon="6.07018">
        <ele>462.6</ele>
        <time>2026-07-08T13:32:31Z</time>
      </trkpt>
      <trkpt lat="47.10594" lon="6.07022">
        <ele>462.4</ele>
        <time>2026-07-08T13:32:32Z</time>
      </trkpt>
      <trkpt lat="47.10593" lon="6.07026">
        <ele>461.8</ele>
        <time>2026-07-08T13:32:33Z</time>
      </trkpt>
      <trkpt lat="47.10592" lon="6.07029">
        <ele>461.4</ele>
        <time>2026-07-08T13:32:34Z</time>
      </trkpt>
      <trkpt lat="47.10592" lon="6.07031">
        <ele>461.4</ele>
        <time>2026-07-08T13:32:35Z</time>
      </trkpt>
      <trkpt lat="47.10591" lon="6.07033">
        <ele>461</ele>
        <time>2026-07-08T13:32:36Z</time>
      </trkpt>
      <trkpt lat="47.10591" lon="6.07037">
        <ele>460.8</ele>
        <time>2026-07-08T13:32:37Z</time>
      </trkpt>
      <trkpt lat="47.1059" lon="6.0704">
        <ele>460.4</ele>
        <time>2026-07-08T13:32:38Z</time>
      </trkpt>
      <trkpt lat="47.10588" lon="6.07044">
        <ele>460</ele>
        <time>2026-07-08T13:32:39Z</time>
      </trkpt>
      <trkpt lat="47.10587" lon="6.07048">
        <ele>459.6</ele>
        <time>2026-07-08T13:32:40Z</time>
      </trkpt>
      <trkpt lat="47.10585" lon="6.07052">
        <ele>459.2</ele>
        <time>2026-07-08T13:32:41Z</time>
      </trkpt>
      <trkpt lat="47.10584" lon="6.07056">
        <ele>458.4</ele>
        <time>2026-07-08T13:32:42Z</time>
      </trkpt>
      <trkpt lat="47.10583" lon="6.0706">
        <ele>458.2</ele>
        <time>2026-07-08T13:32:43Z</time>
      </trkpt>
      <trkpt lat="47.10582" lon="6.07062">
        <ele>457.8</ele>
        <time>2026-07-08T13:32:44Z</time>
      </trkpt>
      <trkpt lat="47.10581" lon="6.07064">
        <ele>457.8</ele>
        <time>2026-07-08T13:32:45Z</time>
      </trkpt>
      <trkpt lat="47.10581" lon="6.07065">
        <ele>457.4</ele>
        <time>2026-07-08T13:32:46Z</time>
      </trkpt>
      <trkpt lat="47.1058" lon="6.07066">
        <ele>457</ele>
        <time>2026-07-08T13:32:47Z</time>
      </trkpt>
      <trkpt lat="47.10579" lon="6.07067">
        <ele>457</ele>
        <time>2026-07-08T13:32:48Z</time>
      </trkpt>
      <trkpt lat="47.10578" lon="6.0707">
        <ele>456.8</ele>
        <time>2026-07-08T13:32:49Z</time>
      </trkpt>
      <trkpt lat="47.10577" lon="6.07072">
        <ele>456.2</ele>
        <time>2026-07-08T13:32:50Z</time>
      </trkpt>
      <trkpt lat="47.10576" lon="6.07074">
        <ele>456</ele>
        <time>2026-07-08T13:32:51Z</time>
      </trkpt>
      <trkpt lat="47.10574" lon="6.07077">
        <ele>455.8</ele>
        <time>2026-07-08T13:32:52Z</time>
      </trkpt>
      <trkpt lat="47.10572" lon="6.07079">
        <ele>455.4</ele>
        <time>2026-07-08T13:32:53Z</time>
      </trkpt>
      <trkpt lat="47.1057" lon="6.0708">
        <ele>455.2</ele>
        <time>2026-07-08T13:32:54Z</time>
      </trkpt>
      <trkpt lat="47.10569" lon="6.07082">
        <ele>454.8</ele>
        <time>2026-07-08T13:32:55Z</time>
      </trkpt>
      <trkpt lat="47.10566" lon="6.07084">
        <ele>454.8</ele>
        <time>2026-07-08T13:32:56Z</time>
      </trkpt>
      <trkpt lat="47.10563" lon="6.07086">
        <ele>454.6</ele>
        <time>2026-07-08T13:32:57Z</time>
      </trkpt>
      <trkpt lat="47.1056" lon="6.07087">
        <ele>454.6</ele>
        <time>2026-07-08T13:32:58Z</time>
      </trkpt>
      <trkpt lat="47.10557" lon="6.07089">
        <ele>454.2</ele>
        <time>2026-07-08T13:32:59Z</time>
      </trkpt>
      <trkpt lat="47.10554" lon="6.0709">
        <ele>453.8</ele>
        <time>2026-07-08T13:33:00Z</time>
      </trkpt>
      <trkpt lat="47.10552" lon="6.07091">
        <ele>453.4</ele>
        <time>2026-07-08T13:33:01Z</time>
      </trkpt>
      <trkpt lat="47.10549" lon="6.07092">
        <ele>453</ele>
        <time>2026-07-08T13:33:02Z</time>
      </trkpt>
      <trkpt lat="47.10547" lon="6.07094">
        <ele>452.4</ele>
        <time>2026-07-08T13:33:03Z</time>
      </trkpt>
      <trkpt lat="47.10545" lon="6.07096">
        <ele>452</ele>
        <time>2026-07-08T13:33:04Z</time>
      </trkpt>
      <trkpt lat="47.10543" lon="6.07097">
        <ele>451.4</ele>
        <time>2026-07-08T13:33:05Z</time>
      </trkpt>
      <trkpt lat="47.10541" lon="6.07098">
        <ele>450.6</ele>
        <time>2026-07-08T13:33:06Z</time>
      </trkpt>
      <trkpt lat="47.10539" lon="6.07099">
        <ele>450.4</ele>
        <time>2026-07-08T13:33:07Z</time>
      </trkpt>
      <trkpt lat="47.10537" lon="6.071">
        <ele>449.8</ele>
        <time>2026-07-08T13:33:08Z</time>
      </trkpt>
      <trkpt lat="47.10537" lon="6.071">
        <ele>449.4</ele>
        <time>2026-07-08T13:33:09Z</time>
      </trkpt>
      <trkpt lat="47.10536" lon="6.071">
        <ele>448.8</ele>
        <time>2026-07-08T13:33:10Z</time>
      </trkpt>
      <trkpt lat="47.10536" lon="6.07101">
        <ele>448.4</ele>
        <time>2026-07-08T13:33:11Z</time>
      </trkpt>
      <trkpt lat="47.10536" lon="6.071">
        <ele>448</ele>
        <time>2026-07-08T13:33:12Z</time>
      </trkpt>
      <trkpt lat="47.10528" lon="6.07105">
        <ele>445.4</ele>
        <time>2026-07-08T13:33:19Z</time>
      </trkpt>
      <trkpt lat="47.10524" lon="6.07106">
        <ele>445.2</ele>
        <time>2026-07-08T13:33:20Z</time>
      </trkpt>
      <trkpt lat="47.1052" lon="6.07106">
        <ele>445.4</ele>
        <time>2026-07-08T13:33:21Z</time>
      </trkpt>
      <trkpt lat="47.10515" lon="6.07107">
        <ele>445.2</ele>
        <time>2026-07-08T13:33:22Z</time>
      </trkpt>
      <trkpt lat="47.1051" lon="6.07109">
        <ele>445</ele>
        <time>2026-07-08T13:33:23Z</time>
      </trkpt>
      <trkpt lat="47.10504" lon="6.07111">
        <ele>445.2</ele>
        <time>2026-07-08T13:33:24Z</time>
      </trkpt>
      <trkpt lat="47.10498" lon="6.07113">
        <ele>445.2</ele>
        <time>2026-07-08T13:33:25Z</time>
      </trkpt>
      <trkpt lat="47.10492" lon="6.07116">
        <ele>444.8</ele>
        <time>2026-07-08T13:33:26Z</time>
      </trkpt>
      <trkpt lat="47.10486" lon="6.07119">
        <ele>444.2</ele>
        <time>2026-07-08T13:33:27Z</time>
      </trkpt>
      <trkpt lat="47.1048" lon="6.07122">
        <ele>443.8</ele>
        <time>2026-07-08T13:33:28Z</time>
      </trkpt>
      <trkpt lat="47.10473" lon="6.07125">
        <ele>443.6</ele>
        <time>2026-07-08T13:33:29Z</time>
      </trkpt>
      <trkpt lat="47.10467" lon="6.07128">
        <ele>443</ele>
        <time>2026-07-08T13:33:30Z</time>
      </trkpt>
      <trkpt lat="47.10461" lon="6.07131">
        <ele>442.4</ele>
        <time>2026-07-08T13:33:31Z</time>
      </trkpt>
      <trkpt lat="47.10456" lon="6.07134">
        <ele>441.8</ele>
        <time>2026-07-08T13:33:32Z</time>
      </trkpt>
      <trkpt lat="47.1045" lon="6.07136">
        <ele>441.2</ele>
        <time>2026-07-08T13:33:33Z</time>
      </trkpt>
      <trkpt lat="47.10445" lon="6.0714">
        <ele>440.2</ele>
        <time>2026-07-08T13:33:34Z</time>
      </trkpt>
      <trkpt lat="47.1044" lon="6.07143">
        <ele>438.8</ele>
        <time>2026-07-08T13:33:35Z</time>
      </trkpt>
      <trkpt lat="47.10434" lon="6.07147">
        <ele>438</ele>
        <time>2026-07-08T13:33:36Z</time>
      </trkpt>
      <trkpt lat="47.10429" lon="6.07151">
        <ele>437</ele>
        <time>2026-07-08T13:33:37Z</time>
      </trkpt>
      <trkpt lat="47.10424" lon="6.07155">
        <ele>435.8</ele>
        <time>2026-07-08T13:33:38Z</time>
      </trkpt>
      <trkpt lat="47.10419" lon="6.07159">
        <ele>435.2</ele>
        <time>2026-07-08T13:33:39Z</time>
      </trkpt>
      <trkpt lat="47.10414" lon="6.07163">
        <ele>434.8</ele>
        <time>2026-07-08T13:33:40Z</time>
      </trkpt>
      <trkpt lat="47.10409" lon="6.07167">
        <ele>433.8</ele>
        <time>2026-07-08T13:33:41Z</time>
      </trkpt>
      <trkpt lat="47.10404" lon="6.07171">
        <ele>433</ele>
        <time>2026-07-08T13:33:42Z</time>
      </trkpt>
      <trkpt lat="47.10399" lon="6.07177">
        <ele>432</ele>
        <time>2026-07-08T13:33:43Z</time>
      </trkpt>
      <trkpt lat="47.10393" lon="6.07182">
        <ele>431</ele>
        <time>2026-07-08T13:33:44Z</time>
      </trkpt>
      <trkpt lat="47.10387" lon="6.07188">
        <ele>430.2</ele>
        <time>2026-07-08T13:33:45Z</time>
      </trkpt>
      <trkpt lat="47.10381" lon="6.07194">
        <ele>429.4</ele>
        <time>2026-07-08T13:33:46Z</time>
      </trkpt>
      <trkpt lat="47.10375" lon="6.072">
        <ele>429.4</ele>
        <time>2026-07-08T13:33:47Z</time>
      </trkpt>
      <trkpt lat="47.10368" lon="6.07207">
        <ele>428.6</ele>
        <time>2026-07-08T13:33:48Z</time>
      </trkpt>
      <trkpt lat="47.10362" lon="6.07214">
        <ele>427.8</ele>
        <time>2026-07-08T13:33:49Z</time>
      </trkpt>
      <trkpt lat="47.10349" lon="6.07226">
        <ele>427.2</ele>
        <time>2026-07-08T13:33:50Z</time>
      </trkpt>
      <trkpt lat="47.10349" lon="6.07226">
        <ele>426.8</ele>
        <time>2026-07-08T13:33:51Z</time>
      </trkpt>
      <trkpt lat="47.10344" lon="6.07232">
        <ele>426.2</ele>
        <time>2026-07-08T13:33:52Z</time>
      </trkpt>
      <trkpt lat="47.10339" lon="6.07236">
        <ele>425.4</ele>
        <time>2026-07-08T13:33:53Z</time>
      </trkpt>
      <trkpt lat="47.10334" lon="6.0724">
        <ele>424.8</ele>
        <time>2026-07-08T13:33:54Z</time>
      </trkpt>
      <trkpt lat="47.10329" lon="6.07245">
        <ele>424.4</ele>
        <time>2026-07-08T13:33:55Z</time>
      </trkpt>
      <trkpt lat="47.10324" lon="6.07249">
        <ele>423.6</ele>
        <time>2026-07-08T13:33:56Z</time>
      </trkpt>
      <trkpt lat="47.10318" lon="6.07253">
        <ele>423</ele>
        <time>2026-07-08T13:33:57Z</time>
      </trkpt>
      <trkpt lat="47.10313" lon="6.07258">
        <ele>422.6</ele>
        <time>2026-07-08T13:33:58Z</time>
      </trkpt>
      <trkpt lat="47.10307" lon="6.07262">
        <ele>422</ele>
        <time>2026-07-08T13:33:59Z</time>
      </trkpt>
      <trkpt lat="47.10302" lon="6.07266">
        <ele>421.4</ele>
        <time>2026-07-08T13:34:00Z</time>
      </trkpt>
      <trkpt lat="47.10297" lon="6.07271">
        <ele>420.8</ele>
        <time>2026-07-08T13:34:01Z</time>
      </trkpt>
      <trkpt lat="47.10292" lon="6.07275">
        <ele>420.4</ele>
        <time>2026-07-08T13:34:02Z</time>
      </trkpt>
      <trkpt lat="47.10286" lon="6.07279">
        <ele>419.8</ele>
        <time>2026-07-08T13:34:03Z</time>
      </trkpt>
      <trkpt lat="47.10281" lon="6.07283">
        <ele>419.6</ele>
        <time>2026-07-08T13:34:04Z</time>
      </trkpt>
      <trkpt lat="47.10275" lon="6.07287">
        <ele>418.8</ele>
        <time>2026-07-08T13:34:05Z</time>
      </trkpt>
      <trkpt lat="47.1027" lon="6.07292">
        <ele>418.2</ele>
        <time>2026-07-08T13:34:06Z</time>
      </trkpt>
      <trkpt lat="47.10263" lon="6.07295">
        <ele>418</ele>
        <time>2026-07-08T13:34:07Z</time>
      </trkpt>
      <trkpt lat="47.10257" lon="6.07298">
        <ele>417.2</ele>
        <time>2026-07-08T13:34:08Z</time>
      </trkpt>
      <trkpt lat="47.1025" lon="6.073">
        <ele>417</ele>
        <time>2026-07-08T13:34:09Z</time>
      </trkpt>
      <trkpt lat="47.10244" lon="6.07302">
        <ele>417</ele>
        <time>2026-07-08T13:34:10Z</time>
      </trkpt>
      <trkpt lat="47.10238" lon="6.07303">
        <ele>416.6</ele>
        <time>2026-07-08T13:34:11Z</time>
      </trkpt>
      <trkpt lat="47.10231" lon="6.07304">
        <ele>416.4</ele>
        <time>2026-07-08T13:34:12Z</time>
      </trkpt>
      <trkpt lat="47.10225" lon="6.07305">
        <ele>415.8</ele>
        <time>2026-07-08T13:34:13Z</time>
      </trkpt>
      <trkpt lat="47.1022" lon="6.07305">
        <ele>415.2</ele>
        <time>2026-07-08T13:34:14Z</time>
      </trkpt>
      <trkpt lat="47.10214" lon="6.07307">
        <ele>414.6</ele>
        <time>2026-07-08T13:34:15Z</time>
      </trkpt>
      <trkpt lat="47.10208" lon="6.07309">
        <ele>414.2</ele>
        <time>2026-07-08T13:34:16Z</time>
      </trkpt>
      <trkpt lat="47.10202" lon="6.07314">
        <ele>413.6</ele>
        <time>2026-07-08T13:34:17Z</time>
      </trkpt>
      <trkpt lat="47.10196" lon="6.0732">
        <ele>413.2</ele>
        <time>2026-07-08T13:34:18Z</time>
      </trkpt>
      <trkpt lat="47.1019" lon="6.07327">
        <ele>412.6</ele>
        <time>2026-07-08T13:34:19Z</time>
      </trkpt>
      <trkpt lat="47.10185" lon="6.07336">
        <ele>412.4</ele>
        <time>2026-07-08T13:34:20Z</time>
      </trkpt>
      <trkpt lat="47.10179" lon="6.07344">
        <ele>411.4</ele>
        <time>2026-07-08T13:34:21Z</time>
      </trkpt>
      <trkpt lat="47.10174" lon="6.07352">
        <ele>410.6</ele>
        <time>2026-07-08T13:34:22Z</time>
      </trkpt>
      <trkpt lat="47.10169" lon="6.0736">
        <ele>410.2</ele>
        <time>2026-07-08T13:34:23Z</time>
      </trkpt>
      <trkpt lat="47.10164" lon="6.07367">
        <ele>409.6</ele>
        <time>2026-07-08T13:34:24Z</time>
      </trkpt>
      <trkpt lat="47.10159" lon="6.07375">
        <ele>409.2</ele>
        <time>2026-07-08T13:34:25Z</time>
      </trkpt>
      <trkpt lat="47.10154" lon="6.07382">
        <ele>408.6</ele>
        <time>2026-07-08T13:34:26Z</time>
      </trkpt>
      <trkpt lat="47.10149" lon="6.07389">
        <ele>408</ele>
        <time>2026-07-08T13:34:27Z</time>
      </trkpt>
      <trkpt lat="47.10143" lon="6.07396">
        <ele>407.2</ele>
        <time>2026-07-08T13:34:28Z</time>
      </trkpt>
      <trkpt lat="47.10137" lon="6.07402">
        <ele>406.8</ele>
        <time>2026-07-08T13:34:29Z</time>
      </trkpt>
      <trkpt lat="47.10131" lon="6.07408">
        <ele>406.2</ele>
        <time>2026-07-08T13:34:30Z</time>
      </trkpt>
      <trkpt lat="47.10124" lon="6.07414">
        <ele>405.6</ele>
        <time>2026-07-08T13:34:31Z</time>
      </trkpt>
      <trkpt lat="47.10117" lon="6.07419">
        <ele>405.6</ele>
        <time>2026-07-08T13:34:32Z</time>
      </trkpt>
      <trkpt lat="47.1011" lon="6.07424">
        <ele>405.2</ele>
        <time>2026-07-08T13:34:33Z</time>
      </trkpt>
      <trkpt lat="47.10102" lon="6.07429">
        <ele>404.6</ele>
        <time>2026-07-08T13:34:34Z</time>
      </trkpt>
      <trkpt lat="47.10095" lon="6.07435">
        <ele>404</ele>
        <time>2026-07-08T13:34:35Z</time>
      </trkpt>
      <trkpt lat="47.10087" lon="6.0744">
        <ele>403.2</ele>
        <time>2026-07-08T13:34:36Z</time>
      </trkpt>
      <trkpt lat="47.1008" lon="6.07445">
        <ele>402.6</ele>
        <time>2026-07-08T13:34:37Z</time>
      </trkpt>
      <trkpt lat="47.10073" lon="6.0745">
        <ele>401.8</ele>
        <time>2026-07-08T13:34:38Z</time>
      </trkpt>
      <trkpt lat="47.10067" lon="6.07455">
        <ele>401.2</ele>
        <time>2026-07-08T13:34:39Z</time>
      </trkpt>
      <trkpt lat="47.10061" lon="6.07459">
        <ele>400.6</ele>
        <time>2026-07-08T13:34:40Z</time>
      </trkpt>
      <trkpt lat="47.10055" lon="6.07463">
        <ele>399.8</ele>
        <time>2026-07-08T13:34:41Z</time>
      </trkpt>
      <trkpt lat="47.1005" lon="6.07466">
        <ele>399</ele>
        <time>2026-07-08T13:34:42Z</time>
      </trkpt>
      <trkpt lat="47.10045" lon="6.07468">
        <ele>398.2</ele>
        <time>2026-07-08T13:34:43Z</time>
      </trkpt>
      <trkpt lat="47.10041" lon="6.0747">
        <ele>397.4</ele>
        <time>2026-07-08T13:34:44Z</time>
      </trkpt>
      <trkpt lat="47.10038" lon="6.07471">
        <ele>396.6</ele>
        <time>2026-07-08T13:34:45Z</time>
      </trkpt>
      <trkpt lat="47.10036" lon="6.07471">
        <ele>395.6</ele>
        <time>2026-07-08T13:34:46Z</time>
      </trkpt>
      <trkpt lat="47.10033" lon="6.07472">
        <ele>394.8</ele>
        <time>2026-07-08T13:34:47Z</time>
      </trkpt>
      <trkpt lat="47.10031" lon="6.07474">
        <ele>393.6</ele>
        <time>2026-07-08T13:34:48Z</time>
      </trkpt>
      <trkpt lat="47.10028" lon="6.07482">
        <ele>392.8</ele>
        <time>2026-07-08T13:34:49Z</time>
      </trkpt>
      <trkpt lat="47.10028" lon="6.07482">
        <ele>391.8</ele>
        <time>2026-07-08T13:34:50Z</time>
      </trkpt>
      <trkpt lat="47.10026" lon="6.07487">
        <ele>390.8</ele>
        <time>2026-07-08T13:34:51Z</time>
      </trkpt>
      <trkpt lat="47.10023" lon="6.07491">
        <ele>390.2</ele>
        <time>2026-07-08T13:34:52Z</time>
      </trkpt>
      <trkpt lat="47.10013" lon="6.075">
        <ele>389.4</ele>
        <time>2026-07-08T13:34:53Z</time>
      </trkpt>
      <trkpt lat="47.10013" lon="6.075">
        <ele>389.4</ele>
        <time>2026-07-08T13:34:54Z</time>
      </trkpt>
      <trkpt lat="47.10007" lon="6.07506">
        <ele>389</ele>
        <time>2026-07-08T13:34:55Z</time>
      </trkpt>
      <trkpt lat="47.1" lon="6.07511">
        <ele>388.4</ele>
        <time>2026-07-08T13:34:56Z</time>
      </trkpt>
      <trkpt lat="47.09994" lon="6.07518">
        <ele>388.2</ele>
        <time>2026-07-08T13:34:57Z</time>
      </trkpt>
      <trkpt lat="47.09987" lon="6.07525">
        <ele>388</ele>
        <time>2026-07-08T13:34:58Z</time>
      </trkpt>
      <trkpt lat="47.0998" lon="6.07531">
        <ele>387.8</ele>
        <time>2026-07-08T13:34:59Z</time>
      </trkpt>
      <trkpt lat="47.09973" lon="6.07537">
        <ele>387.4</ele>
        <time>2026-07-08T13:35:00Z</time>
      </trkpt>
      <trkpt lat="47.09967" lon="6.07542">
        <ele>387</ele>
        <time>2026-07-08T13:35:01Z</time>
      </trkpt>
      <trkpt lat="47.09961" lon="6.07547">
        <ele>386.8</ele>
        <time>2026-07-08T13:35:02Z</time>
      </trkpt>
      <trkpt lat="47.09956" lon="6.07552">
        <ele>386.2</ele>
        <time>2026-07-08T13:35:03Z</time>
      </trkpt>
      <trkpt lat="47.09951" lon="6.07555">
        <ele>385.6</ele>
        <time>2026-07-08T13:35:04Z</time>
      </trkpt>
      <trkpt lat="47.09945" lon="6.07553">
        <ele>385</ele>
        <time>2026-07-08T13:35:05Z</time>
      </trkpt>
      <trkpt lat="47.0994" lon="6.07552">
        <ele>384.4</ele>
        <time>2026-07-08T13:35:06Z</time>
      </trkpt>
      <trkpt lat="47.09936" lon="6.07547">
        <ele>383.8</ele>
        <time>2026-07-08T13:35:07Z</time>
      </trkpt>
      <trkpt lat="47.09933" lon="6.07542">
        <ele>383.2</ele>
        <time>2026-07-08T13:35:08Z</time>
      </trkpt>
      <trkpt lat="47.09929" lon="6.07536">
        <ele>382.4</ele>
        <time>2026-07-08T13:35:09Z</time>
      </trkpt>
      <trkpt lat="47.09926" lon="6.0753">
        <ele>382</ele>
        <time>2026-07-08T13:35:10Z</time>
      </trkpt>
      <trkpt lat="47.09922" lon="6.07528">
        <ele>381.6</ele>
        <time>2026-07-08T13:35:11Z</time>
      </trkpt>
      <trkpt lat="47.09917" lon="6.07526">
        <ele>381.4</ele>
        <time>2026-07-08T13:35:12Z</time>
      </trkpt>
      <trkpt lat="47.09912" lon="6.07525">
        <ele>381.2</ele>
        <time>2026-07-08T13:35:13Z</time>
      </trkpt>
      <trkpt lat="47.09908" lon="6.07524">
        <ele>380.6</ele>
        <time>2026-07-08T13:35:14Z</time>
      </trkpt>
      <trkpt lat="47.09903" lon="6.07524">
        <ele>380.6</ele>
        <time>2026-07-08T13:35:15Z</time>
      </trkpt>
      <trkpt lat="47.09899" lon="6.07525">
        <ele>380.2</ele>
        <time>2026-07-08T13:35:16Z</time>
      </trkpt>
      <trkpt lat="47.09895" lon="6.07527">
        <ele>380.2</ele>
        <time>2026-07-08T13:35:17Z</time>
      </trkpt>
      <trkpt lat="47.09891" lon="6.07529">
        <ele>380</ele>
        <time>2026-07-08T13:35:18Z</time>
      </trkpt>
      <trkpt lat="47.09887" lon="6.07533">
        <ele>379.8</ele>
        <time>2026-07-08T13:35:19Z</time>
      </trkpt>
      <trkpt lat="47.09883" lon="6.07535">
        <ele>379.6</ele>
        <time>2026-07-08T13:35:20Z</time>
      </trkpt>
      <trkpt lat="47.0988" lon="6.07539">
        <ele>379.4</ele>
        <time>2026-07-08T13:35:21Z</time>
      </trkpt>
      <trkpt lat="47.09878" lon="6.07544">
        <ele>379</ele>
        <time>2026-07-08T13:35:22Z</time>
      </trkpt>
      <trkpt lat="47.09876" lon="6.0755">
        <ele>378.6</ele>
        <time>2026-07-08T13:35:23Z</time>
      </trkpt>
      <trkpt lat="47.09874" lon="6.07555">
        <ele>378.4</ele>
        <time>2026-07-08T13:35:24Z</time>
      </trkpt>
      <trkpt lat="47.09872" lon="6.07561">
        <ele>378</ele>
        <time>2026-07-08T13:35:25Z</time>
      </trkpt>
      <trkpt lat="47.0987" lon="6.07567">
        <ele>377.6</ele>
        <time>2026-07-08T13:35:26Z</time>
      </trkpt>
      <trkpt lat="47.09868" lon="6.07572">
        <ele>377.4</ele>
        <time>2026-07-08T13:35:27Z</time>
      </trkpt>
      <trkpt lat="47.09865" lon="6.07576">
        <ele>376.8</ele>
        <time>2026-07-08T13:35:28Z</time>
      </trkpt>
      <trkpt lat="47.09862" lon="6.07578">
        <ele>376.2</ele>
        <time>2026-07-08T13:35:29Z</time>
      </trkpt>
      <trkpt lat="47.09859" lon="6.07579">
        <ele>376</ele>
        <time>2026-07-08T13:35:30Z</time>
      </trkpt>
      <trkpt lat="47.09857" lon="6.07579">
        <ele>375.6</ele>
        <time>2026-07-08T13:35:31Z</time>
      </trkpt>
      <trkpt lat="47.09855" lon="6.0758">
        <ele>375</ele>
        <time>2026-07-08T13:35:32Z</time>
      </trkpt>
      <trkpt lat="47.09852" lon="6.07579">
        <ele>374.6</ele>
        <time>2026-07-08T13:35:33Z</time>
      </trkpt>
      <trkpt lat="47.09851" lon="6.07579">
        <ele>374</ele>
        <time>2026-07-08T13:35:34Z</time>
      </trkpt>
      <trkpt lat="47.0985" lon="6.07578">
        <ele>373.4</ele>
        <time>2026-07-08T13:35:35Z</time>
      </trkpt>
      <trkpt lat="47.09849" lon="6.07578">
        <ele>372.8</ele>
        <time>2026-07-08T13:35:36Z</time>
      </trkpt>
      <trkpt lat="47.09849" lon="6.07577">
        <ele>372.4</ele>
        <time>2026-07-08T13:35:37Z</time>
      </trkpt>
      <trkpt lat="47.09848" lon="6.07577">
        <ele>371.8</ele>
        <time>2026-07-08T13:35:38Z</time>
      </trkpt>
      <trkpt lat="47.09848" lon="6.07577">
        <ele>371.8</ele>
        <time>2026-07-08T13:35:39Z</time>
      </trkpt>
      <trkpt lat="47.09848" lon="6.07577">
        <ele>371.6</ele>
        <time>2026-07-08T13:35:40Z</time>
      </trkpt>
      <trkpt lat="47.09848" lon="6.07576">
        <ele>371.4</ele>
        <time>2026-07-08T13:35:41Z</time>
      </trkpt>
      <trkpt lat="47.09821" lon="6.07567">
        <ele>371</ele>
        <time>2026-07-08T13:36:50Z</time>
      </trkpt>
      <trkpt lat="47.09819" lon="6.07566">
        <ele>370.8</ele>
        <time>2026-07-08T13:36:51Z</time>
      </trkpt>
      <trkpt lat="47.09815" lon="6.07566">
        <ele>371</ele>
        <time>2026-07-08T13:36:52Z</time>
      </trkpt>
      <trkpt lat="47.09815" lon="6.07566">
        <ele>370.8</ele>
        <time>2026-07-08T13:36:53Z</time>
      </trkpt>
      <trkpt lat="47.09811" lon="6.07562">
        <ele>370.8</ele>
        <time>2026-07-08T13:36:54Z</time>
      </trkpt>
      <trkpt lat="47.0981" lon="6.07558">
        <ele>370.8</ele>
        <time>2026-07-08T13:36:55Z</time>
      </trkpt>
      <trkpt lat="47.0981" lon="6.07558">
        <ele>370.8</ele>
        <time>2026-07-08T13:36:56Z</time>
      </trkpt>
      <trkpt lat="47.09808" lon="6.07554">
        <ele>370.8</ele>
        <time>2026-07-08T13:36:57Z</time>
      </trkpt>
      <trkpt lat="47.09809" lon="6.07546">
        <ele>370.8</ele>
        <time>2026-07-08T13:36:58Z</time>
      </trkpt>
      <trkpt lat="47.09809" lon="6.07546">
        <ele>370.8</ele>
        <time>2026-07-08T13:36:59Z</time>
      </trkpt>
      <trkpt lat="47.09811" lon="6.07542">
        <ele>370.8</ele>
        <time>2026-07-08T13:37:00Z</time>
      </trkpt>
      <trkpt lat="47.09812" lon="6.07537">
        <ele>370.6</ele>
        <time>2026-07-08T13:37:01Z</time>
      </trkpt>
      <trkpt lat="47.09814" lon="6.07533">
        <ele>370.6</ele>
        <time>2026-07-08T13:37:02Z</time>
      </trkpt>
      <trkpt lat="47.09815" lon="6.07529">
        <ele>370.6</ele>
        <time>2026-07-08T13:37:03Z</time>
      </trkpt>
      <trkpt lat="47.09816" lon="6.07525">
        <ele>370.4</ele>
        <time>2026-07-08T13:37:04Z</time>
      </trkpt>
      <trkpt lat="47.09817" lon="6.07522">
        <ele>370</ele>
        <time>2026-07-08T13:37:05Z</time>
      </trkpt>
      <trkpt lat="47.09818" lon="6.07519">
        <ele>370</ele>
        <time>2026-07-08T13:37:06Z</time>
      </trkpt>
      <trkpt lat="47.0982" lon="6.07515">
        <ele>369.8</ele>
        <time>2026-07-08T13:37:07Z</time>
      </trkpt>
      <trkpt lat="47.0982" lon="6.07512">
        <ele>369.8</ele>
        <time>2026-07-08T13:37:08Z</time>
      </trkpt>
      <trkpt lat="47.09821" lon="6.07508">
        <ele>369.8</ele>
        <time>2026-07-08T13:37:09Z</time>
      </trkpt>
      <trkpt lat="47.09823" lon="6.07503">
        <ele>369.6</ele>
        <time>2026-07-08T13:37:10Z</time>
      </trkpt>
      <trkpt lat="47.09823" lon="6.07503">
        <ele>369.8</ele>
        <time>2026-07-08T13:37:11Z</time>
      </trkpt>
      <trkpt lat="47.09824" lon="6.07497">
        <ele>369.6</ele>
        <time>2026-07-08T13:37:12Z</time>
      </trkpt>
      <trkpt lat="47.09825" lon="6.07494">
        <ele>369.6</ele>
        <time>2026-07-08T13:37:13Z</time>
      </trkpt>
      <trkpt lat="47.09825" lon="6.07494">
        <ele>369.6</ele>
        <time>2026-07-08T13:37:14Z</time>
      </trkpt>
      <trkpt lat="47.09826" lon="6.0749">
        <ele>369.6</ele>
        <time>2026-07-08T13:37:15Z</time>
      </trkpt>
      <trkpt lat="47.09827" lon="6.07486">
        <ele>369.6</ele>
        <time>2026-07-08T13:37:16Z</time>
      </trkpt>
      <trkpt lat="47.09828" lon="6.07482">
        <ele>369.8</ele>
        <time>2026-07-08T13:37:17Z</time>
      </trkpt>
      <trkpt lat="47.09828" lon="6.07478">
        <ele>369.8</ele>
        <time>2026-07-08T13:37:18Z</time>
      </trkpt>
      <trkpt lat="47.0983" lon="6.07474">
        <ele>369.6</ele>
        <time>2026-07-08T13:37:19Z</time>
      </trkpt>
      <trkpt lat="47.09831" lon="6.0747">
        <ele>369.6</ele>
        <time>2026-07-08T13:37:20Z</time>
      </trkpt>
      <trkpt lat="47.09831" lon="6.07465">
        <ele>369.6</ele>
        <time>2026-07-08T13:37:21Z</time>
      </trkpt>
      <trkpt lat="47.09831" lon="6.07461">
        <ele>369.6</ele>
        <time>2026-07-08T13:37:22Z</time>
      </trkpt>
      <trkpt lat="47.09833" lon="6.07456">
        <ele>369.6</ele>
        <time>2026-07-08T13:37:23Z</time>
      </trkpt>
      <trkpt lat="47.09833" lon="6.07452">
        <ele>369.8</ele>
        <time>2026-07-08T13:37:24Z</time>
      </trkpt>
      <trkpt lat="47.09834" lon="6.07448">
        <ele>369.8</ele>
        <time>2026-07-08T13:37:25Z</time>
      </trkpt>
      <trkpt lat="47.09834" lon="6.07445">
        <ele>369.8</ele>
        <time>2026-07-08T13:37:26Z</time>
      </trkpt>
      <trkpt lat="47.09833" lon="6.07441">
        <ele>369.8</ele>
        <time>2026-07-08T13:37:27Z</time>
      </trkpt>
      <trkpt lat="47.09833" lon="6.07437">
        <ele>369.8</ele>
        <time>2026-07-08T13:37:28Z</time>
      </trkpt>
      <trkpt lat="47.09834" lon="6.07431">
        <ele>370</ele>
        <time>2026-07-08T13:37:29Z</time>
      </trkpt>
      <trkpt lat="47.09834" lon="6.07426">
        <ele>369.8</ele>
        <time>2026-07-08T13:37:30Z</time>
      </trkpt>
      <trkpt lat="47.09835" lon="6.07417">
        <ele>369.8</ele>
        <time>2026-07-08T13:37:31Z</time>
      </trkpt>
      <trkpt lat="47.09835" lon="6.07417">
        <ele>369.8</ele>
        <time>2026-07-08T13:37:32Z</time>
      </trkpt>
      <trkpt lat="47.09836" lon="6.07412">
        <ele>370</ele>
        <time>2026-07-08T13:37:33Z</time>
      </trkpt>
      <trkpt lat="47.09837" lon="6.07407">
        <ele>370</ele>
        <time>2026-07-08T13:37:34Z</time>
      </trkpt>
      <trkpt lat="47.09837" lon="6.07401">
        <ele>370</ele>
        <time>2026-07-08T13:37:35Z</time>
      </trkpt>
      <trkpt lat="47.09837" lon="6.07396">
        <ele>369.8</ele>
        <time>2026-07-08T13:37:36Z</time>
      </trkpt>
      <trkpt lat="47.09837" lon="6.0739">
        <ele>370</ele>
        <time>2026-07-08T13:37:37Z</time>
      </trkpt>
      <trkpt lat="47.09836" lon="6.07384">
        <ele>370</ele>
        <time>2026-07-08T13:37:38Z</time>
      </trkpt>
      <trkpt lat="47.09835" lon="6.0738">
        <ele>370</ele>
        <time>2026-07-08T13:37:39Z</time>
      </trkpt>
      <trkpt lat="47.09833" lon="6.07376">
        <ele>370</ele>
        <time>2026-07-08T13:37:40Z</time>
      </trkpt>
      <trkpt lat="47.09832" lon="6.07372">
        <ele>370</ele>
        <time>2026-07-08T13:37:41Z</time>
      </trkpt>
      <trkpt lat="47.09831" lon="6.07368">
        <ele>370</ele>
        <time>2026-07-08T13:37:42Z</time>
      </trkpt>
      <trkpt lat="47.0983" lon="6.07364">
        <ele>370</ele>
        <time>2026-07-08T13:37:43Z</time>
      </trkpt>
      <trkpt lat="47.0983" lon="6.07361">
        <ele>370</ele>
        <time>2026-07-08T13:37:44Z</time>
      </trkpt>
      <trkpt lat="47.0983" lon="6.07358">
        <ele>370</ele>
        <time>2026-07-08T13:37:45Z</time>
      </trkpt>
      <trkpt lat="47.0983" lon="6.07355">
        <ele>370</ele>
        <time>2026-07-08T13:37:46Z</time>
      </trkpt>
      <trkpt lat="47.09831" lon="6.07352">
        <ele>370</ele>
        <time>2026-07-08T13:37:47Z</time>
      </trkpt>
      <trkpt lat="47.09831" lon="6.07349">
        <ele>370</ele>
        <time>2026-07-08T13:37:48Z</time>
      </trkpt>
      <trkpt lat="47.09832" lon="6.07346">
        <ele>370.2</ele>
        <time>2026-07-08T13:37:49Z</time>
      </trkpt>
      <trkpt lat="47.09832" lon="6.07344">
        <ele>370.2</ele>
        <time>2026-07-08T13:37:50Z</time>
      </trkpt>
      <trkpt lat="47.09832" lon="6.07342">
        <ele>370.2</ele>
        <time>2026-07-08T13:37:51Z</time>
      </trkpt>
      <trkpt lat="47.09832" lon="6.07339">
        <ele>370.2</ele>
        <time>2026-07-08T13:37:52Z</time>
      </trkpt>
      <trkpt lat="47.09831" lon="6.07337">
        <ele>370.4</ele>
        <time>2026-07-08T13:37:53Z</time>
      </trkpt>
      <trkpt lat="47.09831" lon="6.07337">
        <ele>370.4</ele>
        <time>2026-07-08T13:37:54Z</time>
      </trkpt>
      <trkpt lat="47.09831" lon="6.07337">
        <ele>370.2</ele>
        <time>2026-07-08T13:37:55Z</time>
      </trkpt>
      <trkpt lat="47.09821" lon="6.07313">
        <ele>371.2</ele>
        <time>2026-07-08T13:38:39Z</time>
      </trkpt>
      <trkpt lat="47.0982" lon="6.0731">
        <ele>371.4</ele>
        <time>2026-07-08T13:38:40Z</time>
      </trkpt>
      <trkpt lat="47.09819" lon="6.07307">
        <ele>371.4</ele>
        <time>2026-07-08T13:38:41Z</time>
      </trkpt>
      <trkpt lat="47.09818" lon="6.07304">
        <ele>371.4</ele>
        <time>2026-07-08T13:38:42Z</time>
      </trkpt>
      <trkpt lat="47.09818" lon="6.07301">
        <ele>371.4</ele>
        <time>2026-07-08T13:38:43Z</time>
      </trkpt>
      <trkpt lat="47.09817" lon="6.07298">
        <ele>371.4</ele>
        <time>2026-07-08T13:38:44Z</time>
      </trkpt>
      <trkpt lat="47.09817" lon="6.07295">
        <ele>371.6</ele>
        <time>2026-07-08T13:38:45Z</time>
      </trkpt>
      <trkpt lat="47.09816" lon="6.07293">
        <ele>371.6</ele>
        <time>2026-07-08T13:38:46Z</time>
      </trkpt>
      <trkpt lat="47.09815" lon="6.0729">
        <ele>371.6</ele>
        <time>2026-07-08T13:38:47Z</time>
      </trkpt>
      <trkpt lat="47.09815" lon="6.07287">
        <ele>371.8</ele>
        <time>2026-07-08T13:38:48Z</time>
      </trkpt>
      <trkpt lat="47.09814" lon="6.07283">
        <ele>372</ele>
        <time>2026-07-08T13:38:49Z</time>
      </trkpt>
      <trkpt lat="47.09813" lon="6.0728">
        <ele>372.2</ele>
        <time>2026-07-08T13:38:50Z</time>
      </trkpt>
      <trkpt lat="47.09813" lon="6.07277">
        <ele>372.4</ele>
        <time>2026-07-08T13:38:51Z</time>
      </trkpt>
      <trkpt lat="47.09812" lon="6.07273">
        <ele>372.6</ele>
        <time>2026-07-08T13:38:52Z</time>
      </trkpt>
      <trkpt lat="47.09811" lon="6.07269">
        <ele>373</ele>
        <time>2026-07-08T13:38:53Z</time>
      </trkpt>
      <trkpt lat="47.0981" lon="6.07265">
        <ele>373</ele>
        <time>2026-07-08T13:38:54Z</time>
      </trkpt>
      <trkpt lat="47.09809" lon="6.07261">
        <ele>373</ele>
        <time>2026-07-08T13:38:55Z</time>
      </trkpt>
      <trkpt lat="47.09807" lon="6.07257">
        <ele>373.2</ele>
        <time>2026-07-08T13:38:56Z</time>
      </trkpt>
      <trkpt lat="47.09806" lon="6.07252">
        <ele>373</ele>
        <time>2026-07-08T13:38:57Z</time>
      </trkpt>
      <trkpt lat="47.09804" lon="6.07247">
        <ele>373.2</ele>
        <time>2026-07-08T13:38:58Z</time>
      </trkpt>
      <trkpt lat="47.09803" lon="6.07242">
        <ele>373</ele>
        <time>2026-07-08T13:38:59Z</time>
      </trkpt>
      <trkpt lat="47.09801" lon="6.07238">
        <ele>373.2</ele>
        <time>2026-07-08T13:39:00Z</time>
      </trkpt>
      <trkpt lat="47.09799" lon="6.07233">
        <ele>373.2</ele>
        <time>2026-07-08T13:39:01Z</time>
      </trkpt>
      <trkpt lat="47.09797" lon="6.07228">
        <ele>373</ele>
        <time>2026-07-08T13:39:02Z</time>
      </trkpt>
      <trkpt lat="47.09795" lon="6.07224">
        <ele>373.2</ele>
        <time>2026-07-08T13:39:03Z</time>
      </trkpt>
      <trkpt lat="47.09792" lon="6.07219">
        <ele>373.2</ele>
        <time>2026-07-08T13:39:04Z</time>
      </trkpt>
      <trkpt lat="47.09789" lon="6.07214">
        <ele>373</ele>
        <time>2026-07-08T13:39:05Z</time>
      </trkpt>
      <trkpt lat="47.09787" lon="6.0721">
        <ele>373</ele>
        <time>2026-07-08T13:39:06Z</time>
      </trkpt>
      <trkpt lat="47.09783" lon="6.07205">
        <ele>373</ele>
        <time>2026-07-08T13:39:07Z</time>
      </trkpt>
      <trkpt lat="47.0978" lon="6.07202">
        <ele>373</ele>
        <time>2026-07-08T13:39:08Z</time>
      </trkpt>
      <trkpt lat="47.09776" lon="6.07198">
        <ele>373</ele>
        <time>2026-07-08T13:39:09Z</time>
      </trkpt>
      <trkpt lat="47.09771" lon="6.07195">
        <ele>373</ele>
        <time>2026-07-08T13:39:10Z</time>
      </trkpt>
      <trkpt lat="47.09767" lon="6.07192">
        <ele>373</ele>
        <time>2026-07-08T13:39:11Z</time>
      </trkpt>
      <trkpt lat="47.09762" lon="6.0719">
        <ele>372.8</ele>
        <time>2026-07-08T13:39:12Z</time>
      </trkpt>
      <trkpt lat="47.09758" lon="6.07188">
        <ele>372.8</ele>
        <time>2026-07-08T13:39:13Z</time>
      </trkpt>
      <trkpt lat="47.09753" lon="6.07186">
        <ele>372.8</ele>
        <time>2026-07-08T13:39:14Z</time>
      </trkpt>
      <trkpt lat="47.09749" lon="6.07185">
        <ele>372.4</ele>
        <time>2026-07-08T13:39:15Z</time>
      </trkpt>
      <trkpt lat="47.09745" lon="6.07183">
        <ele>372.4</ele>
        <time>2026-07-08T13:39:16Z</time>
      </trkpt>
      <trkpt lat="47.09741" lon="6.07182">
        <ele>372.2</ele>
        <time>2026-07-08T13:39:17Z</time>
      </trkpt>
      <trkpt lat="47.09737" lon="6.07181">
        <ele>372</ele>
        <time>2026-07-08T13:39:18Z</time>
      </trkpt>
      <trkpt lat="47.09733" lon="6.07181">
        <ele>372</ele>
        <time>2026-07-08T13:39:19Z</time>
      </trkpt>
      <trkpt lat="47.09729" lon="6.0718">
        <ele>371.8</ele>
        <time>2026-07-08T13:39:20Z</time>
      </trkpt>
      <trkpt lat="47.09725" lon="6.07178">
        <ele>371.6</ele>
        <time>2026-07-08T13:39:21Z</time>
      </trkpt>
      <trkpt lat="47.09721" lon="6.07177">
        <ele>371.8</ele>
        <time>2026-07-08T13:39:22Z</time>
      </trkpt>
      <trkpt lat="47.09717" lon="6.07176">
        <ele>371.8</ele>
        <time>2026-07-08T13:39:23Z</time>
      </trkpt>
      <trkpt lat="47.09713" lon="6.07175">
        <ele>371.8</ele>
        <time>2026-07-08T13:39:24Z</time>
      </trkpt>
      <trkpt lat="47.09708" lon="6.07173">
        <ele>371.6</ele>
        <time>2026-07-08T13:39:25Z</time>
      </trkpt>
      <trkpt lat="47.09703" lon="6.07172">
        <ele>371.4</ele>
        <time>2026-07-08T13:39:26Z</time>
      </trkpt>
      <trkpt lat="47.09698" lon="6.07171">
        <ele>371.4</ele>
        <time>2026-07-08T13:39:27Z</time>
      </trkpt>
      <trkpt lat="47.09693" lon="6.0717">
        <ele>371.4</ele>
        <time>2026-07-08T13:39:28Z</time>
      </trkpt>
      <trkpt lat="47.09688" lon="6.07169">
        <ele>371.4</ele>
        <time>2026-07-08T13:39:29Z</time>
      </trkpt>
      <trkpt lat="47.09683" lon="6.07169">
        <ele>371.4</ele>
        <time>2026-07-08T13:39:30Z</time>
      </trkpt>
      <trkpt lat="47.09678" lon="6.07169">
        <ele>371.2</ele>
        <time>2026-07-08T13:39:31Z</time>
      </trkpt>
      <trkpt lat="47.09673" lon="6.07169">
        <ele>371.4</ele>
        <time>2026-07-08T13:39:32Z</time>
      </trkpt>
      <trkpt lat="47.09668" lon="6.07169">
        <ele>371.2</ele>
        <time>2026-07-08T13:39:33Z</time>
      </trkpt>
      <trkpt lat="47.09663" lon="6.07169">
        <ele>371.2</ele>
        <time>2026-07-08T13:39:34Z</time>
      </trkpt>
      <trkpt lat="47.09658" lon="6.07169">
        <ele>371.2</ele>
        <time>2026-07-08T13:39:35Z</time>
      </trkpt>
      <trkpt lat="47.09653" lon="6.07169">
        <ele>371.2</ele>
        <time>2026-07-08T13:39:36Z</time>
      </trkpt>
      <trkpt lat="47.09648" lon="6.07169">
        <ele>371</ele>
        <time>2026-07-08T13:39:37Z</time>
      </trkpt>
      <trkpt lat="47.09643" lon="6.07169">
        <ele>371</ele>
        <time>2026-07-08T13:39:38Z</time>
      </trkpt>
      <trkpt lat="47.09638" lon="6.0717">
        <ele>370.8</ele>
        <time>2026-07-08T13:39:39Z</time>
      </trkpt>
      <trkpt lat="47.09633" lon="6.07171">
        <ele>370.8</ele>
        <time>2026-07-08T13:39:40Z</time>
      </trkpt>
      <trkpt lat="47.09628" lon="6.07172">
        <ele>370.6</ele>
        <time>2026-07-08T13:39:41Z</time>
      </trkpt>
      <trkpt lat="47.09623" lon="6.07173">
        <ele>370.8</ele>
        <time>2026-07-08T13:39:42Z</time>
      </trkpt>
      <trkpt lat="47.09618" lon="6.07175">
        <ele>370.6</ele>
        <time>2026-07-08T13:39:43Z</time>
      </trkpt>
      <trkpt lat="47.09613" lon="6.07176">
        <ele>370.6</ele>
        <time>2026-07-08T13:39:44Z</time>
      </trkpt>
      <trkpt lat="47.09609" lon="6.07178">
        <ele>370.8</ele>
        <time>2026-07-08T13:39:45Z</time>
      </trkpt>
      <trkpt lat="47.09604" lon="6.07179">
        <ele>370.6</ele>
        <time>2026-07-08T13:39:46Z</time>
      </trkpt>
      <trkpt lat="47.09601" lon="6.0718">
        <ele>370.6</ele>
        <time>2026-07-08T13:39:47Z</time>
      </trkpt>
      <trkpt lat="47.09597" lon="6.07181">
        <ele>370.6</ele>
        <time>2026-07-08T13:39:48Z</time>
      </trkpt>
      <trkpt lat="47.09594" lon="6.07181">
        <ele>370.6</ele>
        <time>2026-07-08T13:39:49Z</time>
      </trkpt>
      <trkpt lat="47.0959" lon="6.07181">
        <ele>370.4</ele>
        <time>2026-07-08T13:39:50Z</time>
      </trkpt>
      <trkpt lat="47.09587" lon="6.07181">
        <ele>370.4</ele>
        <time>2026-07-08T13:39:51Z</time>
      </trkpt>
      <trkpt lat="47.09584" lon="6.0718">
        <ele>370.4</ele>
        <time>2026-07-08T13:39:52Z</time>
      </trkpt>
      <trkpt lat="47.09582" lon="6.0718">
        <ele>370.2</ele>
        <time>2026-07-08T13:39:53Z</time>
      </trkpt>
      <trkpt lat="47.09581" lon="6.07181">
        <ele>370</ele>
        <time>2026-07-08T13:39:54Z</time>
      </trkpt>
      <trkpt lat="47.0958" lon="6.07181">
        <ele>369.6</ele>
        <time>2026-07-08T13:39:55Z</time>
      </trkpt>
      <trkpt lat="47.0958" lon="6.0718">
        <ele>369.6</ele>
        <time>2026-07-08T13:39:56Z</time>
      </trkpt>
      <trkpt lat="47.09572" lon="6.07187">
        <ele>368.8</ele>
        <time>2026-07-08T13:40:12Z</time>
      </trkpt>
      <trkpt lat="47.0957" lon="6.07188">
        <ele>368.8</ele>
        <time>2026-07-08T13:40:13Z</time>
      </trkpt>
      <trkpt lat="47.09567" lon="6.07189">
        <ele>368.8</ele>
        <time>2026-07-08T13:40:14Z</time>
      </trkpt>
      <trkpt lat="47.09564" lon="6.07191">
        <ele>368.8</ele>
        <time>2026-07-08T13:40:15Z</time>
      </trkpt>
      <trkpt lat="47.09561" lon="6.07193">
        <ele>368.6</ele>
        <time>2026-07-08T13:40:16Z</time>
      </trkpt>
      <trkpt lat="47.09557" lon="6.07196">
        <ele>368.8</ele>
        <time>2026-07-08T13:40:17Z</time>
      </trkpt>
      <trkpt lat="47.09553" lon="6.07198">
        <ele>368.8</ele>
        <time>2026-07-08T13:40:18Z</time>
      </trkpt>
      <trkpt lat="47.0955" lon="6.07201">
        <ele>368.6</ele>
        <time>2026-07-08T13:40:19Z</time>
      </trkpt>
      <trkpt lat="47.09546" lon="6.07204">
        <ele>368.6</ele>
        <time>2026-07-08T13:40:20Z</time>
      </trkpt>
      <trkpt lat="47.09542" lon="6.07207">
        <ele>368.6</ele>
        <time>2026-07-08T13:40:21Z</time>
      </trkpt>
      <trkpt lat="47.09539" lon="6.07211">
        <ele>368.4</ele>
        <time>2026-07-08T13:40:22Z</time>
      </trkpt>
      <trkpt lat="47.09535" lon="6.07214">
        <ele>368.6</ele>
        <time>2026-07-08T13:40:23Z</time>
      </trkpt>
      <trkpt lat="47.09531" lon="6.07217">
        <ele>368.6</ele>
        <time>2026-07-08T13:40:24Z</time>
      </trkpt>
      <trkpt lat="47.09527" lon="6.0722">
        <ele>368.6</ele>
        <time>2026-07-08T13:40:25Z</time>
      </trkpt>
      <trkpt lat="47.09523" lon="6.07223">
        <ele>368.6</ele>
        <time>2026-07-08T13:40:26Z</time>
      </trkpt>
      <trkpt lat="47.0952" lon="6.07226">
        <ele>368.4</ele>
        <time>2026-07-08T13:40:27Z</time>
      </trkpt>
      <trkpt lat="47.09516" lon="6.07229">
        <ele>368.6</ele>
        <time>2026-07-08T13:40:28Z</time>
      </trkpt>
      <trkpt lat="47.09512" lon="6.07232">
        <ele>368.6</ele>
        <time>2026-07-08T13:40:29Z</time>
      </trkpt>
      <trkpt lat="47.09509" lon="6.07235">
        <ele>368.6</ele>
        <time>2026-07-08T13:40:30Z</time>
      </trkpt>
      <trkpt lat="47.09505" lon="6.07238">
        <ele>368.6</ele>
        <time>2026-07-08T13:40:31Z</time>
      </trkpt>
      <trkpt lat="47.09502" lon="6.0724">
        <ele>368.4</ele>
        <time>2026-07-08T13:40:32Z</time>
      </trkpt>
      <trkpt lat="47.09498" lon="6.07243">
        <ele>368.4</ele>
        <time>2026-07-08T13:40:33Z</time>
      </trkpt>
      <trkpt lat="47.09495" lon="6.07245">
        <ele>368.4</ele>
        <time>2026-07-08T13:40:34Z</time>
      </trkpt>
      <trkpt lat="47.09491" lon="6.07247">
        <ele>368.4</ele>
        <time>2026-07-08T13:40:35Z</time>
      </trkpt>
      <trkpt lat="47.09487" lon="6.07249">
        <ele>368.6</ele>
        <time>2026-07-08T13:40:36Z</time>
      </trkpt>
      <trkpt lat="47.09483" lon="6.07251">
        <ele>368.6</ele>
        <time>2026-07-08T13:40:37Z</time>
      </trkpt>
      <trkpt lat="47.0948" lon="6.07252">
        <ele>368.4</ele>
        <time>2026-07-08T13:40:38Z</time>
      </trkpt>
      <trkpt lat="47.09476" lon="6.07253">
        <ele>368.4</ele>
        <time>2026-07-08T13:40:39Z</time>
      </trkpt>
      <trkpt lat="47.09472" lon="6.07254">
        <ele>368.4</ele>
        <time>2026-07-08T13:40:40Z</time>
      </trkpt>
      <trkpt lat="47.09468" lon="6.07255">
        <ele>368.4</ele>
        <time>2026-07-08T13:40:41Z</time>
      </trkpt>
      <trkpt lat="47.09464" lon="6.07255">
        <ele>368.4</ele>
        <time>2026-07-08T13:40:42Z</time>
      </trkpt>
      <trkpt lat="47.09461" lon="6.07256">
        <ele>368.4</ele>
        <time>2026-07-08T13:40:43Z</time>
      </trkpt>
      <trkpt lat="47.09457" lon="6.07256">
        <ele>368.4</ele>
        <time>2026-07-08T13:40:44Z</time>
      </trkpt>
      <trkpt lat="47.09454" lon="6.07256">
        <ele>368.2</ele>
        <time>2026-07-08T13:40:45Z</time>
      </trkpt>
      <trkpt lat="47.09451" lon="6.07256">
        <ele>368.2</ele>
        <time>2026-07-08T13:40:46Z</time>
      </trkpt>
      <trkpt lat="47.09447" lon="6.07256">
        <ele>368.4</ele>
        <time>2026-07-08T13:40:47Z</time>
      </trkpt>
      <trkpt lat="47.09444" lon="6.07256">
        <ele>368.4</ele>
        <time>2026-07-08T13:40:48Z</time>
      </trkpt>
      <trkpt lat="47.0944" lon="6.07257">
        <ele>368.4</ele>
        <time>2026-07-08T13:40:49Z</time>
      </trkpt>
      <trkpt lat="47.09437" lon="6.07257">
        <ele>368.4</ele>
        <time>2026-07-08T13:40:50Z</time>
      </trkpt>
      <trkpt lat="47.09432" lon="6.07256">
        <ele>368.4</ele>
        <time>2026-07-08T13:40:51Z</time>
      </trkpt>
      <trkpt lat="47.09432" lon="6.07256">
        <ele>368.6</ele>
        <time>2026-07-08T13:40:52Z</time>
      </trkpt>
      <trkpt lat="47.09426" lon="6.07254">
        <ele>368.4</ele>
        <time>2026-07-08T13:40:53Z</time>
      </trkpt>
      <trkpt lat="47.09426" lon="6.07254">
        <ele>368.4</ele>
        <time>2026-07-08T13:40:54Z</time>
      </trkpt>
      <trkpt lat="47.09422" lon="6.07253">
        <ele>368.4</ele>
        <time>2026-07-08T13:40:55Z</time>
      </trkpt>
      <trkpt lat="47.09419" lon="6.07252">
        <ele>368.6</ele>
        <time>2026-07-08T13:40:56Z</time>
      </trkpt>
      <trkpt lat="47.09415" lon="6.07251">
        <ele>368.8</ele>
        <time>2026-07-08T13:40:57Z</time>
      </trkpt>
      <trkpt lat="47.09408" lon="6.07248">
        <ele>368.8</ele>
        <time>2026-07-08T13:40:58Z</time>
      </trkpt>
      <trkpt lat="47.09404" lon="6.07246">
        <ele>369</ele>
        <time>2026-07-08T13:40:59Z</time>
      </trkpt>
      <trkpt lat="47.09401" lon="6.07245">
        <ele>369</ele>
        <time>2026-07-08T13:41:00Z</time>
      </trkpt>
      <trkpt lat="47.09398" lon="6.07243">
        <ele>369</ele>
        <time>2026-07-08T13:41:01Z</time>
      </trkpt>
      <trkpt lat="47.09395" lon="6.07241">
        <ele>369.2</ele>
        <time>2026-07-08T13:41:02Z</time>
      </trkpt>
      <trkpt lat="47.09391" lon="6.07238">
        <ele>369.2</ele>
        <time>2026-07-08T13:41:03Z</time>
      </trkpt>
      <trkpt lat="47.09388" lon="6.07235">
        <ele>369.4</ele>
        <time>2026-07-08T13:41:04Z</time>
      </trkpt>
      <trkpt lat="47.09384" lon="6.07232">
        <ele>369.2</ele>
        <time>2026-07-08T13:41:05Z</time>
      </trkpt>
      <trkpt lat="47.09381" lon="6.07228">
        <ele>369.4</ele>
        <time>2026-07-08T13:41:06Z</time>
      </trkpt>
      <trkpt lat="47.09377" lon="6.07223">
        <ele>369.4</ele>
        <time>2026-07-08T13:41:07Z</time>
      </trkpt>
      <trkpt lat="47.09374" lon="6.07219">
        <ele>369.4</ele>
        <time>2026-07-08T13:41:08Z</time>
      </trkpt>
      <trkpt lat="47.0937" lon="6.07215">
        <ele>369.6</ele>
        <time>2026-07-08T13:41:09Z</time>
      </trkpt>
      <trkpt lat="47.09367" lon="6.07212">
        <ele>369.6</ele>
        <time>2026-07-08T13:41:10Z</time>
      </trkpt>
      <trkpt lat="47.09363" lon="6.07208">
        <ele>369.8</ele>
        <time>2026-07-08T13:41:11Z</time>
      </trkpt>
      <trkpt lat="47.09361" lon="6.07203">
        <ele>369.6</ele>
        <time>2026-07-08T13:41:12Z</time>
      </trkpt>
      <trkpt lat="47.09357" lon="6.072">
        <ele>370</ele>
        <time>2026-07-08T13:41:13Z</time>
      </trkpt>
      <trkpt lat="47.09354" lon="6.07195">
        <ele>370</ele>
        <time>2026-07-08T13:41:14Z</time>
      </trkpt>
      <trkpt lat="47.0935" lon="6.07191">
        <ele>370</ele>
        <time>2026-07-08T13:41:15Z</time>
      </trkpt>
      <trkpt lat="47.09347" lon="6.07188">
        <ele>370</ele>
        <time>2026-07-08T13:41:16Z</time>
      </trkpt>
      <trkpt lat="47.09344" lon="6.07185">
        <ele>370.2</ele>
        <time>2026-07-08T13:41:17Z</time>
      </trkpt>
      <trkpt lat="47.09342" lon="6.07183">
        <ele>370.2</ele>
        <time>2026-07-08T13:41:18Z</time>
      </trkpt>
      <trkpt lat="47.09339" lon="6.0718">
        <ele>370.4</ele>
        <time>2026-07-08T13:41:19Z</time>
      </trkpt>
      <trkpt lat="47.09337" lon="6.07178">
        <ele>370.4</ele>
        <time>2026-07-08T13:41:20Z</time>
      </trkpt>
      <trkpt lat="47.09337" lon="6.07178">
        <ele>370.4</ele>
        <time>2026-07-08T13:41:21Z</time>
      </trkpt>
      <trkpt lat="47.09335" lon="6.07176">
        <ele>370.6</ele>
        <time>2026-07-08T13:41:22Z</time>
      </trkpt>
      <trkpt lat="47.09332" lon="6.07171">
        <ele>370.6</ele>
        <time>2026-07-08T13:41:23Z</time>
      </trkpt>
      <trkpt lat="47.09332" lon="6.07171">
        <ele>370.8</ele>
        <time>2026-07-08T13:41:24Z</time>
      </trkpt>
      <trkpt lat="47.0933" lon="6.07169">
        <ele>370.8</ele>
        <time>2026-07-08T13:41:25Z</time>
      </trkpt>
      <trkpt lat="47.09328" lon="6.07167">
        <ele>371</ele>
        <time>2026-07-08T13:41:26Z</time>
      </trkpt>
      <trkpt lat="47.09326" lon="6.07165">
        <ele>371.2</ele>
        <time>2026-07-08T13:41:27Z</time>
      </trkpt>
      <trkpt lat="47.09324" lon="6.07163">
        <ele>371.4</ele>
        <time>2026-07-08T13:41:28Z</time>
      </trkpt>
      <trkpt lat="47.09323" lon="6.07161">
        <ele>371.4</ele>
        <time>2026-07-08T13:41:29Z</time>
      </trkpt>
      <trkpt lat="47.0932" lon="6.07156">
        <ele>372</ele>
        <time>2026-07-08T13:41:30Z</time>
      </trkpt>
      <trkpt lat="47.09319" lon="6.07154">
        <ele>372.2</ele>
        <time>2026-07-08T13:41:31Z</time>
      </trkpt>
      <trkpt lat="47.09319" lon="6.07154">
        <ele>372.2</ele>
        <time>2026-07-08T13:41:32Z</time>
      </trkpt>
      <trkpt lat="47.09318" lon="6.07151">
        <ele>372.2</ele>
        <time>2026-07-08T13:41:33Z</time>
      </trkpt>
      <trkpt lat="47.09316" lon="6.07148">
        <ele>372.6</ele>
        <time>2026-07-08T13:41:34Z</time>
      </trkpt>
      <trkpt lat="47.09315" lon="6.07146">
        <ele>372.6</ele>
        <time>2026-07-08T13:41:35Z</time>
      </trkpt>
      <trkpt lat="47.09314" lon="6.07143">
        <ele>372.8</ele>
        <time>2026-07-08T13:41:36Z</time>
      </trkpt>
      <trkpt lat="47.09313" lon="6.0714">
        <ele>373</ele>
        <time>2026-07-08T13:41:37Z</time>
      </trkpt>
      <trkpt lat="47.09312" lon="6.07137">
        <ele>373.2</ele>
        <time>2026-07-08T13:41:38Z</time>
      </trkpt>
      <trkpt lat="47.09311" lon="6.07135">
        <ele>373.4</ele>
        <time>2026-07-08T13:41:39Z</time>
      </trkpt>
      <trkpt lat="47.09309" lon="6.07133">
        <ele>373.4</ele>
        <time>2026-07-08T13:41:40Z</time>
      </trkpt>
      <trkpt lat="47.09308" lon="6.0713">
        <ele>373.8</ele>
        <time>2026-07-08T13:41:41Z</time>
      </trkpt>
      <trkpt lat="47.09306" lon="6.07128">
        <ele>374.2</ele>
        <time>2026-07-08T13:41:42Z</time>
      </trkpt>
      <trkpt lat="47.09304" lon="6.07126">
        <ele>374.6</ele>
        <time>2026-07-08T13:41:43Z</time>
      </trkpt>
      <trkpt lat="47.09303" lon="6.07124">
        <ele>374.8</ele>
        <time>2026-07-08T13:41:44Z</time>
      </trkpt>
      <trkpt lat="47.09302" lon="6.07121">
        <ele>375</ele>
        <time>2026-07-08T13:41:45Z</time>
      </trkpt>
      <trkpt lat="47.093" lon="6.07119">
        <ele>375.2</ele>
        <time>2026-07-08T13:41:46Z</time>
      </trkpt>
      <trkpt lat="47.09298" lon="6.07116">
        <ele>375.4</ele>
        <time>2026-07-08T13:41:47Z</time>
      </trkpt>
      <trkpt lat="47.09297" lon="6.07113">
        <ele>375.8</ele>
        <time>2026-07-08T13:41:48Z</time>
      </trkpt>
      <trkpt lat="47.09295" lon="6.0711">
        <ele>375.8</ele>
        <time>2026-07-08T13:41:49Z</time>
      </trkpt>
      <trkpt lat="47.09291" lon="6.07103">
        <ele>376</ele>
        <time>2026-07-08T13:41:50Z</time>
      </trkpt>
      <trkpt lat="47.09291" lon="6.07103">
        <ele>376.4</ele>
        <time>2026-07-08T13:41:51Z</time>
      </trkpt>
      <trkpt lat="47.09289" lon="6.07099">
        <ele>376.6</ele>
        <time>2026-07-08T13:41:52Z</time>
      </trkpt>
      <trkpt lat="47.09287" lon="6.07094">
        <ele>376.6</ele>
        <time>2026-07-08T13:41:53Z</time>
      </trkpt>
      <trkpt lat="47.09285" lon="6.0709">
        <ele>376.8</ele>
        <time>2026-07-08T13:41:54Z</time>
      </trkpt>
      <trkpt lat="47.09283" lon="6.07086">
        <ele>376.8</ele>
        <time>2026-07-08T13:41:55Z</time>
      </trkpt>
      <trkpt lat="47.0928" lon="6.07083">
        <ele>377</ele>
        <time>2026-07-08T13:41:56Z</time>
      </trkpt>
      <trkpt lat="47.09278" lon="6.07079">
        <ele>377</ele>
        <time>2026-07-08T13:41:57Z</time>
      </trkpt>
      <trkpt lat="47.09276" lon="6.07076">
        <ele>377</ele>
        <time>2026-07-08T13:41:58Z</time>
      </trkpt>
      <trkpt lat="47.09273" lon="6.07073">
        <ele>377.2</ele>
        <time>2026-07-08T13:41:59Z</time>
      </trkpt>
      <trkpt lat="47.09271" lon="6.0707">
        <ele>377.2</ele>
        <time>2026-07-08T13:42:00Z</time>
      </trkpt>
      <trkpt lat="47.09269" lon="6.07067">
        <ele>377.4</ele>
        <time>2026-07-08T13:42:01Z</time>
      </trkpt>
      <trkpt lat="47.09267" lon="6.07064">
        <ele>377.4</ele>
        <time>2026-07-08T13:42:02Z</time>
      </trkpt>
      <trkpt lat="47.09264" lon="6.0706">
        <ele>377.4</ele>
        <time>2026-07-08T13:42:03Z</time>
      </trkpt>
      <trkpt lat="47.09262" lon="6.07057">
        <ele>377.4</ele>
        <time>2026-07-08T13:42:04Z</time>
      </trkpt>
      <trkpt lat="47.0926" lon="6.07054">
        <ele>377.4</ele>
        <time>2026-07-08T13:42:05Z</time>
      </trkpt>
      <trkpt lat="47.09257" lon="6.07051">
        <ele>377.4</ele>
        <time>2026-07-08T13:42:06Z</time>
      </trkpt>
      <trkpt lat="47.09255" lon="6.07047">
        <ele>377.6</ele>
        <time>2026-07-08T13:42:07Z</time>
      </trkpt>
      <trkpt lat="47.09253" lon="6.07044">
        <ele>377.6</ele>
        <time>2026-07-08T13:42:08Z</time>
      </trkpt>
      <trkpt lat="47.09251" lon="6.0704">
        <ele>377.4</ele>
        <time>2026-07-08T13:42:09Z</time>
      </trkpt>
      <trkpt lat="47.09248" lon="6.07035">
        <ele>377.6</ele>
        <time>2026-07-08T13:42:10Z</time>
      </trkpt>
      <trkpt lat="47.09245" lon="6.0703">
        <ele>377.6</ele>
        <time>2026-07-08T13:42:11Z</time>
      </trkpt>
      <trkpt lat="47.09242" lon="6.07026">
        <ele>377.8</ele>
        <time>2026-07-08T13:42:12Z</time>
      </trkpt>
      <trkpt lat="47.09239" lon="6.07022">
        <ele>377.6</ele>
        <time>2026-07-08T13:42:13Z</time>
      </trkpt>
      <trkpt lat="47.09235" lon="6.07018">
        <ele>377.8</ele>
        <time>2026-07-08T13:42:14Z</time>
      </trkpt>
      <trkpt lat="47.09232" lon="6.07013">
        <ele>377.6</ele>
        <time>2026-07-08T13:42:15Z</time>
      </trkpt>
      <trkpt lat="47.09228" lon="6.07009">
        <ele>377.6</ele>
        <time>2026-07-08T13:42:16Z</time>
      </trkpt>
      <trkpt lat="47.09225" lon="6.07004">
        <ele>377.6</ele>
        <time>2026-07-08T13:42:17Z</time>
      </trkpt>
      <trkpt lat="47.09222" lon="6.07">
        <ele>377.8</ele>
        <time>2026-07-08T13:42:18Z</time>
      </trkpt>
      <trkpt lat="47.09218" lon="6.06995">
        <ele>377.6</ele>
        <time>2026-07-08T13:42:19Z</time>
      </trkpt>
      <trkpt lat="47.09214" lon="6.0699">
        <ele>377.6</ele>
        <time>2026-07-08T13:42:20Z</time>
      </trkpt>
      <trkpt lat="47.09211" lon="6.06985">
        <ele>377.6</ele>
        <time>2026-07-08T13:42:21Z</time>
      </trkpt>
      <trkpt lat="47.09207" lon="6.0698">
        <ele>377.4</ele>
        <time>2026-07-08T13:42:22Z</time>
      </trkpt>
      <trkpt lat="47.09203" lon="6.06975">
        <ele>377.2</ele>
        <time>2026-07-08T13:42:23Z</time>
      </trkpt>
      <trkpt lat="47.09198" lon="6.0697">
        <ele>377</ele>
        <time>2026-07-08T13:42:24Z</time>
      </trkpt>
      <trkpt lat="47.09194" lon="6.06964">
        <ele>377.2</ele>
        <time>2026-07-08T13:42:25Z</time>
      </trkpt>
      <trkpt lat="47.09191" lon="6.06957">
        <ele>377</ele>
        <time>2026-07-08T13:42:26Z</time>
      </trkpt>
      <trkpt lat="47.09187" lon="6.06951">
        <ele>376.8</ele>
        <time>2026-07-08T13:42:27Z</time>
      </trkpt>
      <trkpt lat="47.09183" lon="6.06945">
        <ele>376.8</ele>
        <time>2026-07-08T13:42:28Z</time>
      </trkpt>
      <trkpt lat="47.09179" lon="6.06939">
        <ele>376.6</ele>
        <time>2026-07-08T13:42:29Z</time>
      </trkpt>
      <trkpt lat="47.09175" lon="6.06932">
        <ele>376.4</ele>
        <time>2026-07-08T13:42:30Z</time>
      </trkpt>
      <trkpt lat="47.0917" lon="6.06926">
        <ele>376.4</ele>
        <time>2026-07-08T13:42:31Z</time>
      </trkpt>
      <trkpt lat="47.09166" lon="6.06919">
        <ele>376.2</ele>
        <time>2026-07-08T13:42:32Z</time>
      </trkpt>
      <trkpt lat="47.09161" lon="6.06913">
        <ele>376.2</ele>
        <time>2026-07-08T13:42:33Z</time>
      </trkpt>
      <trkpt lat="47.09155" lon="6.06906">
        <ele>376</ele>
        <time>2026-07-08T13:42:34Z</time>
      </trkpt>
      <trkpt lat="47.09149" lon="6.06901">
        <ele>376</ele>
        <time>2026-07-08T13:42:35Z</time>
      </trkpt>
      <trkpt lat="47.09142" lon="6.06897">
        <ele>375.8</ele>
        <time>2026-07-08T13:42:36Z</time>
      </trkpt>
      <trkpt lat="47.09135" lon="6.06896">
        <ele>376</ele>
        <time>2026-07-08T13:42:37Z</time>
      </trkpt>
      <trkpt lat="47.09128" lon="6.06898">
        <ele>376</ele>
        <time>2026-07-08T13:42:38Z</time>
      </trkpt>
      <trkpt lat="47.09121" lon="6.06902">
        <ele>376</ele>
        <time>2026-07-08T13:42:39Z</time>
      </trkpt>
      <trkpt lat="47.09114" lon="6.06908">
        <ele>375.8</ele>
        <time>2026-07-08T13:42:40Z</time>
      </trkpt>
      <trkpt lat="47.09107" lon="6.06914">
        <ele>375.8</ele>
        <time>2026-07-08T13:42:41Z</time>
      </trkpt>
      <trkpt lat="47.091" lon="6.06919">
        <ele>375.4</ele>
        <time>2026-07-08T13:42:42Z</time>
      </trkpt>
      <trkpt lat="47.09086" lon="6.06929">
        <ele>375.4</ele>
        <time>2026-07-08T13:42:43Z</time>
      </trkpt>
      <trkpt lat="47.09086" lon="6.06929">
        <ele>375.2</ele>
        <time>2026-07-08T13:42:44Z</time>
      </trkpt>
      <trkpt lat="47.09079" lon="6.06934">
        <ele>375</ele>
        <time>2026-07-08T13:42:45Z</time>
      </trkpt>
      <trkpt lat="47.09073" lon="6.06938">
        <ele>374.6</ele>
        <time>2026-07-08T13:42:46Z</time>
      </trkpt>
      <trkpt lat="47.09066" lon="6.06943">
        <ele>374.2</ele>
        <time>2026-07-08T13:42:47Z</time>
      </trkpt>
      <trkpt lat="47.09061" lon="6.06947">
        <ele>374</ele>
        <time>2026-07-08T13:42:48Z</time>
      </trkpt>
      <trkpt lat="47.09056" lon="6.06951">
        <ele>373.8</ele>
        <time>2026-07-08T13:42:49Z</time>
      </trkpt>
      <trkpt lat="47.0905" lon="6.06955">
        <ele>373.6</ele>
        <time>2026-07-08T13:42:50Z</time>
      </trkpt>
      <trkpt lat="47.09046" lon="6.06958">
        <ele>373.6</ele>
        <time>2026-07-08T13:42:51Z</time>
      </trkpt>
      <trkpt lat="47.09041" lon="6.0696">
        <ele>373.4</ele>
        <time>2026-07-08T13:42:52Z</time>
      </trkpt>
      <trkpt lat="47.09036" lon="6.06963">
        <ele>373.4</ele>
        <time>2026-07-08T13:42:53Z</time>
      </trkpt>
      <trkpt lat="47.09032" lon="6.06965">
        <ele>373.4</ele>
        <time>2026-07-08T13:42:54Z</time>
      </trkpt>
      <trkpt lat="47.09027" lon="6.06968">
        <ele>373.4</ele>
        <time>2026-07-08T13:42:55Z</time>
      </trkpt>
      <trkpt lat="47.09022" lon="6.06971">
        <ele>373.4</ele>
        <time>2026-07-08T13:42:56Z</time>
      </trkpt>
      <trkpt lat="47.09018" lon="6.06974">
        <ele>373.4</ele>
        <time>2026-07-08T13:42:57Z</time>
      </trkpt>
      <trkpt lat="47.09013" lon="6.06978">
        <ele>373.4</ele>
        <time>2026-07-08T13:42:58Z</time>
      </trkpt>
      <trkpt lat="47.09008" lon="6.06981">
        <ele>373.4</ele>
        <time>2026-07-08T13:42:59Z</time>
      </trkpt>
      <trkpt lat="47.09004" lon="6.06984">
        <ele>373.4</ele>
        <time>2026-07-08T13:43:00Z</time>
      </trkpt>
      <trkpt lat="47.08999" lon="6.06987">
        <ele>373.6</ele>
        <time>2026-07-08T13:43:01Z</time>
      </trkpt>
      <trkpt lat="47.08994" lon="6.0699">
        <ele>373.6</ele>
        <time>2026-07-08T13:43:02Z</time>
      </trkpt>
      <trkpt lat="47.08989" lon="6.06992">
        <ele>373.8</ele>
        <time>2026-07-08T13:43:03Z</time>
      </trkpt>
      <trkpt lat="47.08984" lon="6.06995">
        <ele>373.6</ele>
        <time>2026-07-08T13:43:04Z</time>
      </trkpt>
      <trkpt lat="47.08979" lon="6.06996">
        <ele>373.8</ele>
        <time>2026-07-08T13:43:05Z</time>
      </trkpt>
      <trkpt lat="47.08974" lon="6.06997">
        <ele>373.6</ele>
        <time>2026-07-08T13:43:06Z</time>
      </trkpt>
      <trkpt lat="47.08965" lon="6.06998">
        <ele>373.8</ele>
        <time>2026-07-08T13:43:07Z</time>
      </trkpt>
      <trkpt lat="47.0896" lon="6.06998">
        <ele>373.8</ele>
        <time>2026-07-08T13:43:08Z</time>
      </trkpt>
      <trkpt lat="47.08956" lon="6.06997">
        <ele>373.8</ele>
        <time>2026-07-08T13:43:09Z</time>
      </trkpt>
      <trkpt lat="47.08952" lon="6.06995">
        <ele>373.8</ele>
        <time>2026-07-08T13:43:10Z</time>
      </trkpt>
      <trkpt lat="47.08947" lon="6.06994">
        <ele>374</ele>
        <time>2026-07-08T13:43:11Z</time>
      </trkpt>
      <trkpt lat="47.08943" lon="6.06992">
        <ele>374</ele>
        <time>2026-07-08T13:43:12Z</time>
      </trkpt>
      <trkpt lat="47.08938" lon="6.0699">
        <ele>374.2</ele>
        <time>2026-07-08T13:43:13Z</time>
      </trkpt>
      <trkpt lat="47.08934" lon="6.06987">
        <ele>374.4</ele>
        <time>2026-07-08T13:43:14Z</time>
      </trkpt>
      <trkpt lat="47.08931" lon="6.06983">
        <ele>374.4</ele>
        <time>2026-07-08T13:43:15Z</time>
      </trkpt>
      <trkpt lat="47.08926" lon="6.0698">
        <ele>374.4</ele>
        <time>2026-07-08T13:43:16Z</time>
      </trkpt>
      <trkpt lat="47.08921" lon="6.06976">
        <ele>374.4</ele>
        <time>2026-07-08T13:43:17Z</time>
      </trkpt>
      <trkpt lat="47.08917" lon="6.06972">
        <ele>374.4</ele>
        <time>2026-07-08T13:43:18Z</time>
      </trkpt>
      <trkpt lat="47.08912" lon="6.06967">
        <ele>374.6</ele>
        <time>2026-07-08T13:43:19Z</time>
      </trkpt>
      <trkpt lat="47.08908" lon="6.06962">
        <ele>374.8</ele>
        <time>2026-07-08T13:43:20Z</time>
      </trkpt>
      <trkpt lat="47.08904" lon="6.06956">
        <ele>374.8</ele>
        <time>2026-07-08T13:43:21Z</time>
      </trkpt>
      <trkpt lat="47.08898" lon="6.06951">
        <ele>375</ele>
        <time>2026-07-08T13:43:22Z</time>
      </trkpt>
      <trkpt lat="47.08893" lon="6.06947">
        <ele>375</ele>
        <time>2026-07-08T13:43:23Z</time>
      </trkpt>
      <trkpt lat="47.08888" lon="6.06942">
        <ele>375</ele>
        <time>2026-07-08T13:43:24Z</time>
      </trkpt>
      <trkpt lat="47.08883" lon="6.06938">
        <ele>375</ele>
        <time>2026-07-08T13:43:25Z</time>
      </trkpt>
      <trkpt lat="47.08878" lon="6.06933">
        <ele>375</ele>
        <time>2026-07-08T13:43:26Z</time>
      </trkpt>
      <trkpt lat="47.08873" lon="6.06929">
        <ele>375.2</ele>
        <time>2026-07-08T13:43:27Z</time>
      </trkpt>
      <trkpt lat="47.08873" lon="6.06929">
        <ele>375.2</ele>
        <time>2026-07-08T13:43:28Z</time>
      </trkpt>
      <trkpt lat="47.08864" lon="6.06917">
        <ele>375.2</ele>
        <time>2026-07-08T13:43:29Z</time>
      </trkpt>
      <trkpt lat="47.0886" lon="6.06911">
        <ele>375</ele>
        <time>2026-07-08T13:43:30Z</time>
      </trkpt>
      <trkpt lat="47.08856" lon="6.06905">
        <ele>375.4</ele>
        <time>2026-07-08T13:43:31Z</time>
      </trkpt>
      <trkpt lat="47.08852" lon="6.06898">
        <ele>375.4</ele>
        <time>2026-07-08T13:43:32Z</time>
      </trkpt>
      <trkpt lat="47.08849" lon="6.06891">
        <ele>375.2</ele>
        <time>2026-07-08T13:43:33Z</time>
      </trkpt>
      <trkpt lat="47.08846" lon="6.06884">
        <ele>375.2</ele>
        <time>2026-07-08T13:43:34Z</time>
      </trkpt>
      <trkpt lat="47.08843" lon="6.06877">
        <ele>375.4</ele>
        <time>2026-07-08T13:43:35Z</time>
      </trkpt>
      <trkpt lat="47.0884" lon="6.06869">
        <ele>375.2</ele>
        <time>2026-07-08T13:43:36Z</time>
      </trkpt>
      <trkpt lat="47.08838" lon="6.06862">
        <ele>375.2</ele>
        <time>2026-07-08T13:43:37Z</time>
      </trkpt>
      <trkpt lat="47.08836" lon="6.06855">
        <ele>375.2</ele>
        <time>2026-07-08T13:43:38Z</time>
      </trkpt>
      <trkpt lat="47.08833" lon="6.06848">
        <ele>375.2</ele>
        <time>2026-07-08T13:43:39Z</time>
      </trkpt>
      <trkpt lat="47.08831" lon="6.06841">
        <ele>375.4</ele>
        <time>2026-07-08T13:43:40Z</time>
      </trkpt>
      <trkpt lat="47.08831" lon="6.06841">
        <ele>375.4</ele>
        <time>2026-07-08T13:43:41Z</time>
      </trkpt>
      <trkpt lat="47.0883" lon="6.06833">
        <ele>375.2</ele>
        <time>2026-07-08T13:43:42Z</time>
      </trkpt>
      <trkpt lat="47.0883" lon="6.06825">
        <ele>375.4</ele>
        <time>2026-07-08T13:43:43Z</time>
      </trkpt>
      <trkpt lat="47.08829" lon="6.06808">
        <ele>375.2</ele>
        <time>2026-07-08T13:43:44Z</time>
      </trkpt>
      <trkpt lat="47.08829" lon="6.068">
        <ele>375.4</ele>
        <time>2026-07-08T13:43:45Z</time>
      </trkpt>
      <trkpt lat="47.08829" lon="6.06791">
        <ele>375.4</ele>
        <time>2026-07-08T13:43:46Z</time>
      </trkpt>
      <trkpt lat="47.08829" lon="6.06782">
        <ele>375.2</ele>
        <time>2026-07-08T13:43:47Z</time>
      </trkpt>
      <trkpt lat="47.0883" lon="6.06772">
        <ele>375</ele>
        <time>2026-07-08T13:43:48Z</time>
      </trkpt>
      <trkpt lat="47.0883" lon="6.06761">
        <ele>375.2</ele>
        <time>2026-07-08T13:43:49Z</time>
      </trkpt>
      <trkpt lat="47.08831" lon="6.06751">
        <ele>375.2</ele>
        <time>2026-07-08T13:43:50Z</time>
      </trkpt>
      <trkpt lat="47.08831" lon="6.06751">
        <ele>375</ele>
        <time>2026-07-08T13:43:51Z</time>
      </trkpt>
      <trkpt lat="47.0883" lon="6.06728">
        <ele>375</ele>
        <time>2026-07-08T13:43:52Z</time>
      </trkpt>
      <trkpt lat="47.08829" lon="6.06717">
        <ele>375</ele>
        <time>2026-07-08T13:43:53Z</time>
      </trkpt>
      <trkpt lat="47.08829" lon="6.06706">
        <ele>375</ele>
        <time>2026-07-08T13:43:54Z</time>
      </trkpt>
      <trkpt lat="47.08828" lon="6.06694">
        <ele>375</ele>
        <time>2026-07-08T13:43:55Z</time>
      </trkpt>
      <trkpt lat="47.08819" lon="6.06684">
        <ele>374.8</ele>
        <time>2026-07-08T13:43:56Z</time>
      </trkpt>
      <trkpt lat="47.08814" lon="6.06673">
        <ele>374.4</ele>
        <time>2026-07-08T13:43:57Z</time>
      </trkpt>
      <trkpt lat="47.08811" lon="6.06662">
        <ele>374.4</ele>
        <time>2026-07-08T13:43:58Z</time>
      </trkpt>
      <trkpt lat="47.0881" lon="6.06652">
        <ele>374.2</ele>
        <time>2026-07-08T13:43:59Z</time>
      </trkpt>
      <trkpt lat="47.0881" lon="6.06652">
        <ele>374</ele>
        <time>2026-07-08T13:44:00Z</time>
      </trkpt>
      <trkpt lat="47.08809" lon="6.06641">
        <ele>373.8</ele>
        <time>2026-07-08T13:44:01Z</time>
      </trkpt>
      <trkpt lat="47.08808" lon="6.06631">
        <ele>373.4</ele>
        <time>2026-07-08T13:44:02Z</time>
      </trkpt>
      <trkpt lat="47.08808" lon="6.0662">
        <ele>373.2</ele>
        <time>2026-07-08T13:44:03Z</time>
      </trkpt>
      <trkpt lat="47.08808" lon="6.0661">
        <ele>373</ele>
        <time>2026-07-08T13:44:04Z</time>
      </trkpt>
      <trkpt lat="47.08808" lon="6.066">
        <ele>372.6</ele>
        <time>2026-07-08T13:44:05Z</time>
      </trkpt>
      <trkpt lat="47.08809" lon="6.06591">
        <ele>372.6</ele>
        <time>2026-07-08T13:44:06Z</time>
      </trkpt>
      <trkpt lat="47.0881" lon="6.06582">
        <ele>372.6</ele>
        <time>2026-07-08T13:44:07Z</time>
      </trkpt>
      <trkpt lat="47.08811" lon="6.06565">
        <ele>372.6</ele>
        <time>2026-07-08T13:44:08Z</time>
      </trkpt>
      <trkpt lat="47.08811" lon="6.06565">
        <ele>372.6</ele>
        <time>2026-07-08T13:44:09Z</time>
      </trkpt>
      <trkpt lat="47.08812" lon="6.06557">
        <ele>372.6</ele>
        <time>2026-07-08T13:44:10Z</time>
      </trkpt>
      <trkpt lat="47.08812" lon="6.06549">
        <ele>372.6</ele>
        <time>2026-07-08T13:44:11Z</time>
      </trkpt>
      <trkpt lat="47.08812" lon="6.06541">
        <ele>372.6</ele>
        <time>2026-07-08T13:44:12Z</time>
      </trkpt>
      <trkpt lat="47.08812" lon="6.06533">
        <ele>372.4</ele>
        <time>2026-07-08T13:44:13Z</time>
      </trkpt>
      <trkpt lat="47.08811" lon="6.06515">
        <ele>372.2</ele>
        <time>2026-07-08T13:44:14Z</time>
      </trkpt>
      <trkpt lat="47.08811" lon="6.06515">
        <ele>372.2</ele>
        <time>2026-07-08T13:44:15Z</time>
      </trkpt>
      <trkpt lat="47.0881" lon="6.06507">
        <ele>372.4</ele>
        <time>2026-07-08T13:44:16Z</time>
      </trkpt>
      <trkpt lat="47.08809" lon="6.06498">
        <ele>372.2</ele>
        <time>2026-07-08T13:44:17Z</time>
      </trkpt>
      <trkpt lat="47.08809" lon="6.06489">
        <ele>372.2</ele>
        <time>2026-07-08T13:44:18Z</time>
      </trkpt>
      <trkpt lat="47.08808" lon="6.0648">
        <ele>372</ele>
        <time>2026-07-08T13:44:19Z</time>
      </trkpt>
      <trkpt lat="47.08806" lon="6.06462">
        <ele>372</ele>
        <time>2026-07-08T13:44:20Z</time>
      </trkpt>
      <trkpt lat="47.08806" lon="6.06453">
        <ele>372</ele>
        <time>2026-07-08T13:44:21Z</time>
      </trkpt>
      <trkpt lat="47.08806" lon="6.06453">
        <ele>372.2</ele>
        <time>2026-07-08T13:44:22Z</time>
      </trkpt>
      <trkpt lat="47.08805" lon="6.06445">
        <ele>372.2</ele>
        <time>2026-07-08T13:44:23Z</time>
      </trkpt>
      <trkpt lat="47.08804" lon="6.06429">
        <ele>372.2</ele>
        <time>2026-07-08T13:44:24Z</time>
      </trkpt>
      <trkpt lat="47.08804" lon="6.06429">
        <ele>372.2</ele>
        <time>2026-07-08T13:44:25Z</time>
      </trkpt>
      <trkpt lat="47.08803" lon="6.06422">
        <ele>372.2</ele>
        <time>2026-07-08T13:44:26Z</time>
      </trkpt>
      <trkpt lat="47.08802" lon="6.06415">
        <ele>372.2</ele>
        <time>2026-07-08T13:44:27Z</time>
      </trkpt>
      <trkpt lat="47.08802" lon="6.06407">
        <ele>372.2</ele>
        <time>2026-07-08T13:44:28Z</time>
      </trkpt>
      <trkpt lat="47.08802" lon="6.064">
        <ele>372.2</ele>
        <time>2026-07-08T13:44:29Z</time>
      </trkpt>
      <trkpt lat="47.08801" lon="6.06392">
        <ele>372.2</ele>
        <time>2026-07-08T13:44:30Z</time>
      </trkpt>
      <trkpt lat="47.08801" lon="6.06383">
        <ele>372.2</ele>
        <time>2026-07-08T13:44:31Z</time>
      </trkpt>
      <trkpt lat="47.08802" lon="6.06376">
        <ele>372.2</ele>
        <time>2026-07-08T13:44:32Z</time>
      </trkpt>
      <trkpt lat="47.08802" lon="6.06368">
        <ele>372.2</ele>
        <time>2026-07-08T13:44:33Z</time>
      </trkpt>
      <trkpt lat="47.08802" lon="6.06361">
        <ele>372.2</ele>
        <time>2026-07-08T13:44:34Z</time>
      </trkpt>
      <trkpt lat="47.08803" lon="6.06353">
        <ele>372.4</ele>
        <time>2026-07-08T13:44:35Z</time>
      </trkpt>
      <trkpt lat="47.08804" lon="6.06345">
        <ele>372.6</ele>
        <time>2026-07-08T13:44:36Z</time>
      </trkpt>
      <trkpt lat="47.08805" lon="6.0633">
        <ele>372.6</ele>
        <time>2026-07-08T13:44:37Z</time>
      </trkpt>
      <trkpt lat="47.08805" lon="6.0633">
        <ele>372.6</ele>
        <time>2026-07-08T13:44:38Z</time>
      </trkpt>
      <trkpt lat="47.08806" lon="6.06322">
        <ele>372.6</ele>
        <time>2026-07-08T13:44:39Z</time>
      </trkpt>
      <trkpt lat="47.08808" lon="6.06315">
        <ele>372.8</ele>
        <time>2026-07-08T13:44:40Z</time>
      </trkpt>
      <trkpt lat="47.0881" lon="6.06307">
        <ele>373</ele>
        <time>2026-07-08T13:44:41Z</time>
      </trkpt>
      <trkpt lat="47.08813" lon="6.06293">
        <ele>373.2</ele>
        <time>2026-07-08T13:44:42Z</time>
      </trkpt>
      <trkpt lat="47.08813" lon="6.06293">
        <ele>373.4</ele>
        <time>2026-07-08T13:44:43Z</time>
      </trkpt>
      <trkpt lat="47.08815" lon="6.06286">
        <ele>373.6</ele>
        <time>2026-07-08T13:44:44Z</time>
      </trkpt>
      <trkpt lat="47.08817" lon="6.06278">
        <ele>373.6</ele>
        <time>2026-07-08T13:44:45Z</time>
      </trkpt>
      <trkpt lat="47.08818" lon="6.06271">
        <ele>373.6</ele>
        <time>2026-07-08T13:44:46Z</time>
      </trkpt>
      <trkpt lat="47.0882" lon="6.06264">
        <ele>373.6</ele>
        <time>2026-07-08T13:44:47Z</time>
      </trkpt>
      <trkpt lat="47.08821" lon="6.06257">
        <ele>373.6</ele>
        <time>2026-07-08T13:44:48Z</time>
      </trkpt>
      <trkpt lat="47.08822" lon="6.06251">
        <ele>373.6</ele>
        <time>2026-07-08T13:44:49Z</time>
      </trkpt>
      <trkpt lat="47.08823" lon="6.06245">
        <ele>373.6</ele>
        <time>2026-07-08T13:44:50Z</time>
      </trkpt>
      <trkpt lat="47.08824" lon="6.06239">
        <ele>374</ele>
        <time>2026-07-08T13:44:51Z</time>
      </trkpt>
      <trkpt lat="47.08824" lon="6.06233">
        <ele>373.8</ele>
        <time>2026-07-08T13:44:52Z</time>
      </trkpt>
      <trkpt lat="47.08824" lon="6.0622">
        <ele>374</ele>
        <time>2026-07-08T13:44:53Z</time>
      </trkpt>
      <trkpt lat="47.08824" lon="6.0622">
        <ele>374</ele>
        <time>2026-07-08T13:44:54Z</time>
      </trkpt>
      <trkpt lat="47.08824" lon="6.06213">
        <ele>374</ele>
        <time>2026-07-08T13:44:55Z</time>
      </trkpt>
      <trkpt lat="47.08826" lon="6.062">
        <ele>374.2</ele>
        <time>2026-07-08T13:44:56Z</time>
      </trkpt>
      <trkpt lat="47.08826" lon="6.062">
        <ele>374.2</ele>
        <time>2026-07-08T13:44:57Z</time>
      </trkpt>
      <trkpt lat="47.08827" lon="6.06188">
        <ele>374.6</ele>
        <time>2026-07-08T13:44:58Z</time>
      </trkpt>
      <trkpt lat="47.08827" lon="6.06188">
        <ele>374.6</ele>
        <time>2026-07-08T13:44:59Z</time>
      </trkpt>
      <trkpt lat="47.08825" lon="6.06175">
        <ele>374.8</ele>
        <time>2026-07-08T13:45:00Z</time>
      </trkpt>
      <trkpt lat="47.08825" lon="6.06175">
        <ele>375</ele>
        <time>2026-07-08T13:45:01Z</time>
      </trkpt>
      <trkpt lat="47.08823" lon="6.06168">
        <ele>375.2</ele>
        <time>2026-07-08T13:45:02Z</time>
      </trkpt>
      <trkpt lat="47.08822" lon="6.06161">
        <ele>375.4</ele>
        <time>2026-07-08T13:45:03Z</time>
      </trkpt>
      <trkpt lat="47.0882" lon="6.06155">
        <ele>375.4</ele>
        <time>2026-07-08T13:45:04Z</time>
      </trkpt>
      <trkpt lat="47.08817" lon="6.06149">
        <ele>375.4</ele>
        <time>2026-07-08T13:45:05Z</time>
      </trkpt>
      <trkpt lat="47.08815" lon="6.06144">
        <ele>375.6</ele>
        <time>2026-07-08T13:45:06Z</time>
      </trkpt>
      <trkpt lat="47.08813" lon="6.06138">
        <ele>375.6</ele>
        <time>2026-07-08T13:45:07Z</time>
      </trkpt>
      <trkpt lat="47.0881" lon="6.06133">
        <ele>375.8</ele>
        <time>2026-07-08T13:45:08Z</time>
      </trkpt>
      <trkpt lat="47.08807" lon="6.06127">
        <ele>375.8</ele>
        <time>2026-07-08T13:45:09Z</time>
      </trkpt>
      <trkpt lat="47.08805" lon="6.06121">
        <ele>376.2</ele>
        <time>2026-07-08T13:45:10Z</time>
      </trkpt>
      <trkpt lat="47.08802" lon="6.06116">
        <ele>376.2</ele>
        <time>2026-07-08T13:45:11Z</time>
      </trkpt>
      <trkpt lat="47.088" lon="6.0611">
        <ele>376.4</ele>
        <time>2026-07-08T13:45:12Z</time>
      </trkpt>
      <trkpt lat="47.08798" lon="6.06105">
        <ele>376.6</ele>
        <time>2026-07-08T13:45:13Z</time>
      </trkpt>
      <trkpt lat="47.08795" lon="6.06099">
        <ele>376.8</ele>
        <time>2026-07-08T13:45:14Z</time>
      </trkpt>
      <trkpt lat="47.08793" lon="6.06094">
        <ele>377</ele>
        <time>2026-07-08T13:45:15Z</time>
      </trkpt>
      <trkpt lat="47.08791" lon="6.06089">
        <ele>377</ele>
        <time>2026-07-08T13:45:16Z</time>
      </trkpt>
      <trkpt lat="47.08786" lon="6.06078">
        <ele>377.2</ele>
        <time>2026-07-08T13:45:17Z</time>
      </trkpt>
      <trkpt lat="47.08786" lon="6.06078">
        <ele>377.4</ele>
        <time>2026-07-08T13:45:18Z</time>
      </trkpt>
      <trkpt lat="47.08784" lon="6.06072">
        <ele>377.4</ele>
        <time>2026-07-08T13:45:19Z</time>
      </trkpt>
      <trkpt lat="47.08781" lon="6.06067">
        <ele>377.4</ele>
        <time>2026-07-08T13:45:20Z</time>
      </trkpt>
      <trkpt lat="47.08778" lon="6.06061">
        <ele>377.4</ele>
        <time>2026-07-08T13:45:21Z</time>
      </trkpt>
      <trkpt lat="47.08775" lon="6.06056">
        <ele>377.4</ele>
        <time>2026-07-08T13:45:22Z</time>
      </trkpt>
      <trkpt lat="47.08773" lon="6.0605">
        <ele>377.6</ele>
        <time>2026-07-08T13:45:23Z</time>
      </trkpt>
      <trkpt lat="47.0877" lon="6.06044">
        <ele>377.4</ele>
        <time>2026-07-08T13:45:24Z</time>
      </trkpt>
      <trkpt lat="47.08768" lon="6.06036">
        <ele>377.6</ele>
        <time>2026-07-08T13:45:25Z</time>
      </trkpt>
      <trkpt lat="47.08765" lon="6.06028">
        <ele>377.6</ele>
        <time>2026-07-08T13:45:26Z</time>
      </trkpt>
      <trkpt lat="47.08763" lon="6.0602">
        <ele>377.6</ele>
        <time>2026-07-08T13:45:27Z</time>
      </trkpt>
      <trkpt lat="47.08759" lon="6.06011">
        <ele>377.6</ele>
        <time>2026-07-08T13:45:28Z</time>
      </trkpt>
      <trkpt lat="47.08757" lon="6.06002">
        <ele>377.6</ele>
        <time>2026-07-08T13:45:29Z</time>
      </trkpt>
      <trkpt lat="47.08755" lon="6.05993">
        <ele>377.6</ele>
        <time>2026-07-08T13:45:30Z</time>
      </trkpt>
      <trkpt lat="47.08752" lon="6.05984">
        <ele>377.6</ele>
        <time>2026-07-08T13:45:31Z</time>
      </trkpt>
      <trkpt lat="47.0875" lon="6.05976">
        <ele>377.4</ele>
        <time>2026-07-08T13:45:32Z</time>
      </trkpt>
      <trkpt lat="47.08747" lon="6.05967">
        <ele>377.2</ele>
        <time>2026-07-08T13:45:33Z</time>
      </trkpt>
      <trkpt lat="47.08744" lon="6.05958">
        <ele>377</ele>
        <time>2026-07-08T13:45:34Z</time>
      </trkpt>
      <trkpt lat="47.08742" lon="6.0595">
        <ele>376.6</ele>
        <time>2026-07-08T13:45:35Z</time>
      </trkpt>
      <trkpt lat="47.08739" lon="6.05941">
        <ele>376.4</ele>
        <time>2026-07-08T13:45:36Z</time>
      </trkpt>
      <trkpt lat="47.08737" lon="6.05932">
        <ele>376.2</ele>
        <time>2026-07-08T13:45:37Z</time>
      </trkpt>
      <trkpt lat="47.08735" lon="6.05923">
        <ele>376.2</ele>
        <time>2026-07-08T13:45:38Z</time>
      </trkpt>
      <trkpt lat="47.08733" lon="6.05915">
        <ele>376.2</ele>
        <time>2026-07-08T13:45:39Z</time>
      </trkpt>
      <trkpt lat="47.08732" lon="6.05908">
        <ele>376.2</ele>
        <time>2026-07-08T13:45:40Z</time>
      </trkpt>
      <trkpt lat="47.08731" lon="6.05902">
        <ele>376</ele>
        <time>2026-07-08T13:45:41Z</time>
      </trkpt>
      <trkpt lat="47.0873" lon="6.05897">
        <ele>375.8</ele>
        <time>2026-07-08T13:45:42Z</time>
      </trkpt>
      <trkpt lat="47.08729" lon="6.05893">
        <ele>375.2</ele>
        <time>2026-07-08T13:45:43Z</time>
      </trkpt>
      <trkpt lat="47.08729" lon="6.05888">
        <ele>375.2</ele>
        <time>2026-07-08T13:45:44Z</time>
      </trkpt>
      <trkpt lat="47.08729" lon="6.05884">
        <ele>375</ele>
        <time>2026-07-08T13:45:45Z</time>
      </trkpt>
      <trkpt lat="47.08728" lon="6.05879">
        <ele>374.8</ele>
        <time>2026-07-08T13:45:46Z</time>
      </trkpt>
      <trkpt lat="47.08727" lon="6.05875">
        <ele>374.6</ele>
        <time>2026-07-08T13:45:47Z</time>
      </trkpt>
      <trkpt lat="47.08725" lon="6.05871">
        <ele>374.4</ele>
        <time>2026-07-08T13:45:48Z</time>
      </trkpt>
      <trkpt lat="47.08724" lon="6.05865">
        <ele>374</ele>
        <time>2026-07-08T13:45:49Z</time>
      </trkpt>
      <trkpt lat="47.08724" lon="6.05865">
        <ele>373.6</ele>
        <time>2026-07-08T13:45:50Z</time>
      </trkpt>
      <trkpt lat="47.08723" lon="6.05862">
        <ele>373.6</ele>
        <time>2026-07-08T13:45:51Z</time>
      </trkpt>
      <trkpt lat="47.08722" lon="6.05859">
        <ele>373.4</ele>
        <time>2026-07-08T13:45:52Z</time>
      </trkpt>
      <trkpt lat="47.08721" lon="6.05857">
        <ele>373.2</ele>
        <time>2026-07-08T13:45:53Z</time>
      </trkpt>
      <trkpt lat="47.08721" lon="6.05855">
        <ele>373.2</ele>
        <time>2026-07-08T13:45:54Z</time>
      </trkpt>
      <trkpt lat="47.08721" lon="6.05854">
        <ele>373.2</ele>
        <time>2026-07-08T13:45:55Z</time>
      </trkpt>
      <trkpt lat="47.08721" lon="6.05854">
        <ele>373</ele>
        <time>2026-07-08T13:45:56Z</time>
      </trkpt>
      <trkpt lat="47.08721" lon="6.05853">
        <ele>373</ele>
        <time>2026-07-08T13:45:57Z</time>
      </trkpt>
      <trkpt lat="47.08721" lon="6.05853">
        <ele>373</ele>
        <time>2026-07-08T13:45:58Z</time>
      </trkpt>
      <trkpt lat="47.0872" lon="6.05852">
        <ele>373</ele>
        <time>2026-07-08T13:45:59Z</time>
      </trkpt>
      <trkpt lat="47.08721" lon="6.05852">
        <ele>373</ele>
        <time>2026-07-08T13:46:00Z</time>
      </trkpt>
      <trkpt lat="47.08722" lon="6.05849">
        <ele>373</ele>
        <time>2026-07-08T13:46:01Z</time>
      </trkpt>
      <trkpt lat="47.08722" lon="6.05848">
        <ele>373</ele>
        <time>2026-07-08T13:46:02Z</time>
      </trkpt>
      <trkpt lat="47.08723" lon="6.05847">
        <ele>373</ele>
        <time>2026-07-08T13:46:03Z</time>
      </trkpt>
      <trkpt lat="47.08723" lon="6.05846">
        <ele>373</ele>
        <time>2026-07-08T13:46:04Z</time>
      </trkpt>
      <trkpt lat="47.08724" lon="6.05846">
        <ele>373</ele>
        <time>2026-07-08T13:46:05Z</time>
      </trkpt>
      <trkpt lat="47.08724" lon="6.05846">
        <ele>373</ele>
        <time>2026-07-08T13:46:06Z</time>
      </trkpt>
      <trkpt lat="47.08724" lon="6.05845">
        <ele>373</ele>
        <time>2026-07-08T13:46:07Z</time>
      </trkpt>
      <trkpt lat="47.08724" lon="6.05844">
        <ele>373</ele>
        <time>2026-07-08T13:46:08Z</time>
      </trkpt>
      <trkpt lat="47.08725" lon="6.05844">
        <ele>373</ele>
        <time>2026-07-08T13:46:09Z</time>
      </trkpt>
      <trkpt lat="47.08725" lon="6.05844">
        <ele>373</ele>
        <time>2026-07-08T13:46:10Z</time>
      </trkpt>
      <trkpt lat="47.08726" lon="6.05845">
        <ele>373</ele>
        <time>2026-07-08T13:46:11Z</time>
      </trkpt>
      <trkpt lat="47.08726" lon="6.05845">
        <ele>373</ele>
        <time>2026-07-08T13:46:12Z</time>
      </trkpt>
      <trkpt lat="47.08726" lon="6.05846">
        <ele>373</ele>
        <time>2026-07-08T13:46:13Z</time>
      </trkpt>
      <trkpt lat="47.08726" lon="6.05847">
        <ele>373</ele>
        <time>2026-07-08T13:46:14Z</time>
      </trkpt>
      <trkpt lat="47.08726" lon="6.05847">
        <ele>373</ele>
        <time>2026-07-08T13:46:15Z</time>
      </trkpt>
      <trkpt lat="47.08726" lon="6.05848">
        <ele>373.2</ele>
        <time>2026-07-08T13:46:50Z</time>
      </trkpt>
      <trkpt lat="47.08725" lon="6.05845">
        <ele>373.2</ele>
        <time>2026-07-08T13:46:51Z</time>
      </trkpt>
      <trkpt lat="47.08725" lon="6.05841">
        <ele>373.2</ele>
        <time>2026-07-08T13:46:52Z</time>
      </trkpt>
      <trkpt lat="47.08726" lon="6.05835">
        <ele>373.2</ele>
        <time>2026-07-08T13:46:53Z</time>
      </trkpt>
      <trkpt lat="47.08725" lon="6.05832">
        <ele>373.2</ele>
        <time>2026-07-08T13:46:54Z</time>
      </trkpt>
      <trkpt lat="47.08725" lon="6.05829">
        <ele>373.4</ele>
        <time>2026-07-08T13:46:55Z</time>
      </trkpt>
      <trkpt lat="47.08725" lon="6.05827">
        <ele>373.2</ele>
        <time>2026-07-08T13:46:56Z</time>
      </trkpt>
      <trkpt lat="47.08726" lon="6.05826">
        <ele>373.2</ele>
        <time>2026-07-08T13:46:57Z</time>
      </trkpt>
      <trkpt lat="47.08726" lon="6.05825">
        <ele>373.2</ele>
        <time>2026-07-08T13:46:58Z</time>
      </trkpt>
      <trkpt lat="47.08727" lon="6.05825">
        <ele>373.2</ele>
        <time>2026-07-08T13:46:59Z</time>
      </trkpt>
      <trkpt lat="47.08727" lon="6.05823">
        <ele>373.2</ele>
        <time>2026-07-08T13:47:00Z</time>
      </trkpt>
      <trkpt lat="47.08729" lon="6.05822">
        <ele>373</ele>
        <time>2026-07-08T13:47:01Z</time>
      </trkpt>
      <trkpt lat="47.08729" lon="6.05822">
        <ele>373.2</ele>
        <time>2026-07-08T13:47:02Z</time>
      </trkpt>
      <trkpt lat="47.0873" lon="6.05819">
        <ele>373</ele>
        <time>2026-07-08T13:47:03Z</time>
      </trkpt>
      <trkpt lat="47.08731" lon="6.05813">
        <ele>372.8</ele>
        <time>2026-07-08T13:47:04Z</time>
      </trkpt>
      <trkpt lat="47.08731" lon="6.05813">
        <ele>372.6</ele>
        <time>2026-07-08T13:47:05Z</time>
      </trkpt>
      <trkpt lat="47.08731" lon="6.05804">
        <ele>372.6</ele>
        <time>2026-07-08T13:47:06Z</time>
      </trkpt>
      <trkpt lat="47.08731" lon="6.05804">
        <ele>372.4</ele>
        <time>2026-07-08T13:47:07Z</time>
      </trkpt>
      <trkpt lat="47.08731" lon="6.05793">
        <ele>372.4</ele>
        <time>2026-07-08T13:47:08Z</time>
      </trkpt>
      <trkpt lat="47.08731" lon="6.05786">
        <ele>372.2</ele>
        <time>2026-07-08T13:47:09Z</time>
      </trkpt>
      <trkpt lat="47.0873" lon="6.05779">
        <ele>372.2</ele>
        <time>2026-07-08T13:47:10Z</time>
      </trkpt>
      <trkpt lat="47.0873" lon="6.05779">
        <ele>372</ele>
        <time>2026-07-08T13:47:11Z</time>
      </trkpt>
      <trkpt lat="47.08729" lon="6.0577">
        <ele>372</ele>
        <time>2026-07-08T13:47:12Z</time>
      </trkpt>
      <trkpt lat="47.08727" lon="6.05762">
        <ele>371.8</ele>
        <time>2026-07-08T13:47:13Z</time>
      </trkpt>
      <trkpt lat="47.08723" lon="6.05745">
        <ele>371.8</ele>
        <time>2026-07-08T13:47:14Z</time>
      </trkpt>
      <trkpt lat="47.08723" lon="6.05745">
        <ele>371.6</ele>
        <time>2026-07-08T13:47:15Z</time>
      </trkpt>
      <trkpt lat="47.08722" lon="6.05736">
        <ele>371.4</ele>
        <time>2026-07-08T13:47:16Z</time>
      </trkpt>
      <trkpt lat="47.0872" lon="6.05729">
        <ele>371.2</ele>
        <time>2026-07-08T13:47:17Z</time>
      </trkpt>
      <trkpt lat="47.08718" lon="6.05722">
        <ele>371</ele>
        <time>2026-07-08T13:47:18Z</time>
      </trkpt>
      <trkpt lat="47.08716" lon="6.05708">
        <ele>370.8</ele>
        <time>2026-07-08T13:47:19Z</time>
      </trkpt>
      <trkpt lat="47.08716" lon="6.05708">
        <ele>370.4</ele>
        <time>2026-07-08T13:47:20Z</time>
      </trkpt>
      <trkpt lat="47.08715" lon="6.05701">
        <ele>370.2</ele>
        <time>2026-07-08T13:47:21Z</time>
      </trkpt>
      <trkpt lat="47.08715" lon="6.05694">
        <ele>369.8</ele>
        <time>2026-07-08T13:47:22Z</time>
      </trkpt>
      <trkpt lat="47.08716" lon="6.05687">
        <ele>369.6</ele>
        <time>2026-07-08T13:47:23Z</time>
      </trkpt>
      <trkpt lat="47.08716" lon="6.05681">
        <ele>369.4</ele>
        <time>2026-07-08T13:47:24Z</time>
      </trkpt>
      <trkpt lat="47.08718" lon="6.05669">
        <ele>369</ele>
        <time>2026-07-08T13:47:25Z</time>
      </trkpt>
      <trkpt lat="47.08718" lon="6.05669">
        <ele>368.8</ele>
        <time>2026-07-08T13:47:26Z</time>
      </trkpt>
      <trkpt lat="47.08718" lon="6.05658">
        <ele>368.8</ele>
        <time>2026-07-08T13:47:27Z</time>
      </trkpt>
      <trkpt lat="47.08719" lon="6.05653">
        <ele>368.6</ele>
        <time>2026-07-08T13:47:28Z</time>
      </trkpt>
      <trkpt lat="47.0872" lon="6.05649">
        <ele>368.4</ele>
        <time>2026-07-08T13:47:29Z</time>
      </trkpt>
      <trkpt lat="47.0872" lon="6.05644">
        <ele>368.4</ele>
        <time>2026-07-08T13:47:30Z</time>
      </trkpt>
      <trkpt lat="47.08721" lon="6.05639">
        <ele>368.4</ele>
        <time>2026-07-08T13:47:31Z</time>
      </trkpt>
      <trkpt lat="47.08721" lon="6.05635">
        <ele>368.2</ele>
        <time>2026-07-08T13:47:32Z</time>
      </trkpt>
      <trkpt lat="47.08722" lon="6.05631">
        <ele>368.2</ele>
        <time>2026-07-08T13:47:33Z</time>
      </trkpt>
      <trkpt lat="47.08723" lon="6.05628">
        <ele>368</ele>
        <time>2026-07-08T13:47:34Z</time>
      </trkpt>
      <trkpt lat="47.08723" lon="6.05628">
        <ele>368.2</ele>
        <time>2026-07-08T13:47:35Z</time>
      </trkpt>
      <trkpt lat="47.08723" lon="6.05622">
        <ele>368.2</ele>
        <time>2026-07-08T13:47:36Z</time>
      </trkpt>
      <trkpt lat="47.08724" lon="6.05619">
        <ele>368.2</ele>
        <time>2026-07-08T13:47:37Z</time>
      </trkpt>
      <trkpt lat="47.08724" lon="6.05619">
        <ele>368.2</ele>
        <time>2026-07-08T13:47:38Z</time>
      </trkpt>
      <trkpt lat="47.08724" lon="6.05613">
        <ele>368.2</ele>
        <time>2026-07-08T13:47:39Z</time>
      </trkpt>
      <trkpt lat="47.08725" lon="6.05611">
        <ele>368.2</ele>
        <time>2026-07-08T13:47:40Z</time>
      </trkpt>
      <trkpt lat="47.08725" lon="6.05611">
        <ele>368.2</ele>
        <time>2026-07-08T13:47:41Z</time>
      </trkpt>
      <trkpt lat="47.08726" lon="6.05606">
        <ele>368.2</ele>
        <time>2026-07-08T13:47:42Z</time>
      </trkpt>
      <trkpt lat="47.08727" lon="6.05604">
        <ele>368.2</ele>
        <time>2026-07-08T13:47:43Z</time>
      </trkpt>
      <trkpt lat="47.08727" lon="6.05604">
        <ele>368.6</ele>
        <time>2026-07-08T13:47:44Z</time>
      </trkpt>
      <trkpt lat="47.08728" lon="6.056">
        <ele>368.6</ele>
        <time>2026-07-08T13:47:45Z</time>
      </trkpt>
      <trkpt lat="47.08728" lon="6.05598">
        <ele>368.8</ele>
        <time>2026-07-08T13:47:46Z</time>
      </trkpt>
      <trkpt lat="47.08729" lon="6.05597">
        <ele>369.2</ele>
        <time>2026-07-08T13:47:47Z</time>
      </trkpt>
      <trkpt lat="47.08729" lon="6.05597">
        <ele>369.6</ele>
        <time>2026-07-08T13:47:48Z</time>
      </trkpt>
      <trkpt lat="47.08729" lon="6.05594">
        <ele>370</ele>
        <time>2026-07-08T13:47:49Z</time>
      </trkpt>
      <trkpt lat="47.08729" lon="6.05594">
        <ele>370.4</ele>
        <time>2026-07-08T13:47:50Z</time>
      </trkpt>
      <trkpt lat="47.08729" lon="6.05592">
        <ele>371</ele>
        <time>2026-07-08T13:47:51Z</time>
      </trkpt>
      <trkpt lat="47.08729" lon="6.0559">
        <ele>371.2</ele>
        <time>2026-07-08T13:47:52Z</time>
      </trkpt>
      <trkpt lat="47.08728" lon="6.05589">
        <ele>371.6</ele>
        <time>2026-07-08T13:47:53Z</time>
      </trkpt>
      <trkpt lat="47.08727" lon="6.05588">
        <ele>372</ele>
        <time>2026-07-08T13:47:54Z</time>
      </trkpt>
      <trkpt lat="47.08726" lon="6.05587">
        <ele>372.2</ele>
        <time>2026-07-08T13:47:55Z</time>
      </trkpt>
      <trkpt lat="47.08725" lon="6.05586">
        <ele>372.6</ele>
        <time>2026-07-08T13:47:56Z</time>
      </trkpt>
      <trkpt lat="47.08724" lon="6.05585">
        <ele>372.8</ele>
        <time>2026-07-08T13:47:57Z</time>
      </trkpt>
      <trkpt lat="47.08724" lon="6.05583">
        <ele>372.8</ele>
        <time>2026-07-08T13:47:58Z</time>
      </trkpt>
      <trkpt lat="47.08723" lon="6.05582">
        <ele>373</ele>
        <time>2026-07-08T13:47:59Z</time>
      </trkpt>
      <trkpt lat="47.08723" lon="6.05581">
        <ele>373.2</ele>
        <time>2026-07-08T13:48:00Z</time>
      </trkpt>
      <trkpt lat="47.08721" lon="6.05579">
        <ele>373.4</ele>
        <time>2026-07-08T13:48:01Z</time>
      </trkpt>
      <trkpt lat="47.08721" lon="6.05579">
        <ele>373.6</ele>
        <time>2026-07-08T13:48:02Z</time>
      </trkpt>
      <trkpt lat="47.0872" lon="6.05579">
        <ele>373.8</ele>
        <time>2026-07-08T13:48:03Z</time>
      </trkpt>
      <trkpt lat="47.08719" lon="6.05578">
        <ele>374.2</ele>
        <time>2026-07-08T13:48:04Z</time>
      </trkpt>
      <trkpt lat="47.08718" lon="6.05577">
        <ele>374.4</ele>
        <time>2026-07-08T13:48:05Z</time>
      </trkpt>
      <trkpt lat="47.08717" lon="6.05577">
        <ele>374.6</ele>
        <time>2026-07-08T13:48:06Z</time>
      </trkpt>
      <trkpt lat="47.08716" lon="6.05576">
        <ele>374.8</ele>
        <time>2026-07-08T13:48:07Z</time>
      </trkpt>
      <trkpt lat="47.08715" lon="6.05576">
        <ele>375</ele>
        <time>2026-07-08T13:48:08Z</time>
      </trkpt>
      <trkpt lat="47.08714" lon="6.05575">
        <ele>375.2</ele>
        <time>2026-07-08T13:48:09Z</time>
      </trkpt>
      <trkpt lat="47.08713" lon="6.05575">
        <ele>375.4</ele>
        <time>2026-07-08T13:48:10Z</time>
      </trkpt>
      <trkpt lat="47.08712" lon="6.05576">
        <ele>375.6</ele>
        <time>2026-07-08T13:48:11Z</time>
      </trkpt>
      <trkpt lat="47.08711" lon="6.05576">
        <ele>375.8</ele>
        <time>2026-07-08T13:48:12Z</time>
      </trkpt>
      <trkpt lat="47.0871" lon="6.05576">
        <ele>375.8</ele>
        <time>2026-07-08T13:48:13Z</time>
      </trkpt>
      <trkpt lat="47.08708" lon="6.05575">
        <ele>376.2</ele>
        <time>2026-07-08T13:48:14Z</time>
      </trkpt>
      <trkpt lat="47.08707" lon="6.05575">
        <ele>376.2</ele>
        <time>2026-07-08T13:48:15Z</time>
      </trkpt>
      <trkpt lat="47.08706" lon="6.05575">
        <ele>376.2</ele>
        <time>2026-07-08T13:48:16Z</time>
      </trkpt>
      <trkpt lat="47.08704" lon="6.05575">
        <ele>376.6</ele>
        <time>2026-07-08T13:48:17Z</time>
      </trkpt>
      <trkpt lat="47.08703" lon="6.05574">
        <ele>376.8</ele>
        <time>2026-07-08T13:48:18Z</time>
      </trkpt>
      <trkpt lat="47.08701" lon="6.05574">
        <ele>377</ele>
        <time>2026-07-08T13:48:19Z</time>
      </trkpt>
      <trkpt lat="47.087" lon="6.05574">
        <ele>377.2</ele>
        <time>2026-07-08T13:48:20Z</time>
      </trkpt>
      <trkpt lat="47.08699" lon="6.05574">
        <ele>377.2</ele>
        <time>2026-07-08T13:48:21Z</time>
      </trkpt>
      <trkpt lat="47.08696" lon="6.05573">
        <ele>377.2</ele>
        <time>2026-07-08T13:48:22Z</time>
      </trkpt>
      <trkpt lat="47.08696" lon="6.05573">
        <ele>377.6</ele>
        <time>2026-07-08T13:48:23Z</time>
      </trkpt>
      <trkpt lat="47.08695" lon="6.05572">
        <ele>377.8</ele>
        <time>2026-07-08T13:48:24Z</time>
      </trkpt>
      <trkpt lat="47.08692" lon="6.05572">
        <ele>378</ele>
        <time>2026-07-08T13:48:25Z</time>
      </trkpt>
      <trkpt lat="47.08691" lon="6.05572">
        <ele>378.4</ele>
        <time>2026-07-08T13:48:26Z</time>
      </trkpt>
      <trkpt lat="47.08691" lon="6.05572">
        <ele>378.4</ele>
        <time>2026-07-08T13:48:27Z</time>
      </trkpt>
      <trkpt lat="47.0869" lon="6.05572">
        <ele>378.6</ele>
        <time>2026-07-08T13:48:28Z</time>
      </trkpt>
      <trkpt lat="47.08688" lon="6.05571">
        <ele>378.8</ele>
        <time>2026-07-08T13:48:29Z</time>
      </trkpt>
      <trkpt lat="47.08686" lon="6.0557">
        <ele>378.8</ele>
        <time>2026-07-08T13:48:30Z</time>
      </trkpt>
      <trkpt lat="47.08685" lon="6.0557">
        <ele>379</ele>
        <time>2026-07-08T13:48:31Z</time>
      </trkpt>
      <trkpt lat="47.08683" lon="6.0557">
        <ele>379</ele>
        <time>2026-07-08T13:48:32Z</time>
      </trkpt>
      <trkpt lat="47.08682" lon="6.0557">
        <ele>379.2</ele>
        <time>2026-07-08T13:48:33Z</time>
      </trkpt>
      <trkpt lat="47.08679" lon="6.05569">
        <ele>379.4</ele>
        <time>2026-07-08T13:48:34Z</time>
      </trkpt>
      <trkpt lat="47.08678" lon="6.05569">
        <ele>379.8</ele>
        <time>2026-07-08T13:48:35Z</time>
      </trkpt>
      <trkpt lat="47.08678" lon="6.05569">
        <ele>379.8</ele>
        <time>2026-07-08T13:48:36Z</time>
      </trkpt>
      <trkpt lat="47.08677" lon="6.05569">
        <ele>380</ele>
        <time>2026-07-08T13:48:37Z</time>
      </trkpt>
      <trkpt lat="47.08676" lon="6.05569">
        <ele>380</ele>
        <time>2026-07-08T13:48:38Z</time>
      </trkpt>
      <trkpt lat="47.08674" lon="6.05569">
        <ele>380.2</ele>
        <time>2026-07-08T13:48:39Z</time>
      </trkpt>
      <trkpt lat="47.08672" lon="6.05569">
        <ele>380.4</ele>
        <time>2026-07-08T13:48:40Z</time>
      </trkpt>
      <trkpt lat="47.0867" lon="6.05569">
        <ele>380.4</ele>
        <time>2026-07-08T13:48:41Z</time>
      </trkpt>
      <trkpt lat="47.0867" lon="6.05569">
        <ele>380.8</ele>
        <time>2026-07-08T13:48:42Z</time>
      </trkpt>
      <trkpt lat="47.08668" lon="6.05568">
        <ele>380.8</ele>
        <time>2026-07-08T13:48:43Z</time>
      </trkpt>
      <trkpt lat="47.08668" lon="6.05568">
        <ele>380.8</ele>
        <time>2026-07-08T13:48:44Z</time>
      </trkpt>
      <trkpt lat="47.08666" lon="6.05567">
        <ele>380.8</ele>
        <time>2026-07-08T13:48:45Z</time>
      </trkpt>
      <trkpt lat="47.08665" lon="6.05568">
        <ele>381</ele>
        <time>2026-07-08T13:48:46Z</time>
      </trkpt>
      <trkpt lat="47.08663" lon="6.05568">
        <ele>381.2</ele>
        <time>2026-07-08T13:48:47Z</time>
      </trkpt>
      <trkpt lat="47.08662" lon="6.05568">
        <ele>381.4</ele>
        <time>2026-07-08T13:48:48Z</time>
      </trkpt>
      <trkpt lat="47.0866" lon="6.05568">
        <ele>381.6</ele>
        <time>2026-07-08T13:48:49Z</time>
      </trkpt>
      <trkpt lat="47.08659" lon="6.05568">
        <ele>381.8</ele>
        <time>2026-07-08T13:48:50Z</time>
      </trkpt>
      <trkpt lat="47.08657" lon="6.05568">
        <ele>382</ele>
        <time>2026-07-08T13:48:51Z</time>
      </trkpt>
      <trkpt lat="47.08656" lon="6.05569">
        <ele>382.2</ele>
        <time>2026-07-08T13:48:52Z</time>
      </trkpt>
      <trkpt lat="47.08655" lon="6.05568">
        <ele>382.4</ele>
        <time>2026-07-08T13:48:53Z</time>
      </trkpt>
      <trkpt lat="47.08653" lon="6.05568">
        <ele>382.4</ele>
        <time>2026-07-08T13:48:54Z</time>
      </trkpt>
      <trkpt lat="47.08652" lon="6.05568">
        <ele>382.4</ele>
        <time>2026-07-08T13:48:55Z</time>
      </trkpt>
      <trkpt lat="47.08651" lon="6.05569">
        <ele>382.6</ele>
        <time>2026-07-08T13:48:56Z</time>
      </trkpt>
      <trkpt lat="47.08649" lon="6.05569">
        <ele>383</ele>
        <time>2026-07-08T13:48:57Z</time>
      </trkpt>
      <trkpt lat="47.08647" lon="6.05568">
        <ele>383.2</ele>
        <time>2026-07-08T13:48:58Z</time>
      </trkpt>
      <trkpt lat="47.08644" lon="6.05568">
        <ele>383.4</ele>
        <time>2026-07-08T13:48:59Z</time>
      </trkpt>
      <trkpt lat="47.08642" lon="6.05568">
        <ele>383.6</ele>
        <time>2026-07-08T13:49:00Z</time>
      </trkpt>
      <trkpt lat="47.08639" lon="6.05568">
        <ele>384</ele>
        <time>2026-07-08T13:49:01Z</time>
      </trkpt>
      <trkpt lat="47.08637" lon="6.05568">
        <ele>384.2</ele>
        <time>2026-07-08T13:49:02Z</time>
      </trkpt>
      <trkpt lat="47.08636" lon="6.05568">
        <ele>384.6</ele>
        <time>2026-07-08T13:49:03Z</time>
      </trkpt>
      <trkpt lat="47.08634" lon="6.05569">
        <ele>384.6</ele>
        <time>2026-07-08T13:49:04Z</time>
      </trkpt>
      <trkpt lat="47.08632" lon="6.05569">
        <ele>384.6</ele>
        <time>2026-07-08T13:49:05Z</time>
      </trkpt>
      <trkpt lat="47.0863" lon="6.05568">
        <ele>384.8</ele>
        <time>2026-07-08T13:49:06Z</time>
      </trkpt>
      <trkpt lat="47.08628" lon="6.05568">
        <ele>385</ele>
        <time>2026-07-08T13:49:07Z</time>
      </trkpt>
      <trkpt lat="47.08627" lon="6.05567">
        <ele>385.2</ele>
        <time>2026-07-08T13:49:08Z</time>
      </trkpt>
      <trkpt lat="47.08625" lon="6.05567">
        <ele>385.4</ele>
        <time>2026-07-08T13:49:09Z</time>
      </trkpt>
      <trkpt lat="47.08623" lon="6.05566">
        <ele>385.6</ele>
        <time>2026-07-08T13:49:10Z</time>
      </trkpt>
      <trkpt lat="47.08621" lon="6.05565">
        <ele>385.6</ele>
        <time>2026-07-08T13:49:11Z</time>
      </trkpt>
      <trkpt lat="47.0862" lon="6.05565">
        <ele>385.6</ele>
        <time>2026-07-08T13:49:12Z</time>
      </trkpt>
      <trkpt lat="47.08618" lon="6.05564">
        <ele>385.8</ele>
        <time>2026-07-08T13:49:13Z</time>
      </trkpt>
      <trkpt lat="47.08616" lon="6.05562">
        <ele>385.8</ele>
        <time>2026-07-08T13:49:14Z</time>
      </trkpt>
      <trkpt lat="47.08614" lon="6.05561">
        <ele>386</ele>
        <time>2026-07-08T13:49:15Z</time>
      </trkpt>
      <trkpt lat="47.08612" lon="6.05559">
        <ele>386.2</ele>
        <time>2026-07-08T13:49:16Z</time>
      </trkpt>
      <trkpt lat="47.0861" lon="6.05557">
        <ele>386.4</ele>
        <time>2026-07-08T13:49:17Z</time>
      </trkpt>
      <trkpt lat="47.08608" lon="6.05556">
        <ele>386.6</ele>
        <time>2026-07-08T13:49:18Z</time>
      </trkpt>
      <trkpt lat="47.08606" lon="6.05554">
        <ele>386.6</ele>
        <time>2026-07-08T13:49:19Z</time>
      </trkpt>
      <trkpt lat="47.08604" lon="6.05553">
        <ele>386.6</ele>
        <time>2026-07-08T13:49:20Z</time>
      </trkpt>
      <trkpt lat="47.08602" lon="6.05551">
        <ele>386.8</ele>
        <time>2026-07-08T13:49:21Z</time>
      </trkpt>
      <trkpt lat="47.08601" lon="6.05549">
        <ele>387</ele>
        <time>2026-07-08T13:49:22Z</time>
      </trkpt>
      <trkpt lat="47.08599" lon="6.05547">
        <ele>387.2</ele>
        <time>2026-07-08T13:49:23Z</time>
      </trkpt>
      <trkpt lat="47.08597" lon="6.05545">
        <ele>387.4</ele>
        <time>2026-07-08T13:49:24Z</time>
      </trkpt>
      <trkpt lat="47.08596" lon="6.05543">
        <ele>387.6</ele>
        <time>2026-07-08T13:49:25Z</time>
      </trkpt>
      <trkpt lat="47.08594" lon="6.0554">
        <ele>387.4</ele>
        <time>2026-07-08T13:49:26Z</time>
      </trkpt>
      <trkpt lat="47.08593" lon="6.05538">
        <ele>387.4</ele>
        <time>2026-07-08T13:49:27Z</time>
      </trkpt>
      <trkpt lat="47.08591" lon="6.05536">
        <ele>387.6</ele>
        <time>2026-07-08T13:49:28Z</time>
      </trkpt>
      <trkpt lat="47.08588" lon="6.05531">
        <ele>387.6</ele>
        <time>2026-07-08T13:49:29Z</time>
      </trkpt>
      <trkpt lat="47.08586" lon="6.05529">
        <ele>388</ele>
        <time>2026-07-08T13:49:30Z</time>
      </trkpt>
      <trkpt lat="47.08584" lon="6.05527">
        <ele>388</ele>
        <time>2026-07-08T13:49:31Z</time>
      </trkpt>
      <trkpt lat="47.08582" lon="6.05525">
        <ele>388.2</ele>
        <time>2026-07-08T13:49:32Z</time>
      </trkpt>
      <trkpt lat="47.0858" lon="6.05523">
        <ele>388.2</ele>
        <time>2026-07-08T13:49:33Z</time>
      </trkpt>
      <trkpt lat="47.08578" lon="6.05521">
        <ele>388.6</ele>
        <time>2026-07-08T13:49:34Z</time>
      </trkpt>
      <trkpt lat="47.08576" lon="6.05519">
        <ele>388.6</ele>
        <time>2026-07-08T13:49:35Z</time>
      </trkpt>
      <trkpt lat="47.08574" lon="6.05517">
        <ele>388.8</ele>
        <time>2026-07-08T13:49:36Z</time>
      </trkpt>
      <trkpt lat="47.08572" lon="6.05515">
        <ele>388.8</ele>
        <time>2026-07-08T13:49:37Z</time>
      </trkpt>
      <trkpt lat="47.0857" lon="6.05513">
        <ele>389</ele>
        <time>2026-07-08T13:49:38Z</time>
      </trkpt>
      <trkpt lat="47.08568" lon="6.05511">
        <ele>389.2</ele>
        <time>2026-07-08T13:49:39Z</time>
      </trkpt>
      <trkpt lat="47.08567" lon="6.05509">
        <ele>389.2</ele>
        <time>2026-07-08T13:49:40Z</time>
      </trkpt>
      <trkpt lat="47.08565" lon="6.05507">
        <ele>389.2</ele>
        <time>2026-07-08T13:49:41Z</time>
      </trkpt>
      <trkpt lat="47.08563" lon="6.05505">
        <ele>389.4</ele>
        <time>2026-07-08T13:49:42Z</time>
      </trkpt>
      <trkpt lat="47.08561" lon="6.05503">
        <ele>389.6</ele>
        <time>2026-07-08T13:49:43Z</time>
      </trkpt>
      <trkpt lat="47.0856" lon="6.05501">
        <ele>389.4</ele>
        <time>2026-07-08T13:49:44Z</time>
      </trkpt>
      <trkpt lat="47.08558" lon="6.05499">
        <ele>389.6</ele>
        <time>2026-07-08T13:49:45Z</time>
      </trkpt>
      <trkpt lat="47.08558" lon="6.05499">
        <ele>389.8</ele>
        <time>2026-07-08T13:49:46Z</time>
      </trkpt>
      <trkpt lat="47.08556" lon="6.05496">
        <ele>390</ele>
        <time>2026-07-08T13:49:47Z</time>
      </trkpt>
      <trkpt lat="47.08554" lon="6.05494">
        <ele>390.2</ele>
        <time>2026-07-08T13:49:48Z</time>
      </trkpt>
      <trkpt lat="47.08552" lon="6.05492">
        <ele>390.2</ele>
        <time>2026-07-08T13:49:49Z</time>
      </trkpt>
      <trkpt lat="47.08549" lon="6.0549">
        <ele>390.2</ele>
        <time>2026-07-08T13:49:50Z</time>
      </trkpt>
      <trkpt lat="47.08547" lon="6.05489">
        <ele>390.4</ele>
        <time>2026-07-08T13:49:51Z</time>
      </trkpt>
      <trkpt lat="47.08545" lon="6.05487">
        <ele>390.6</ele>
        <time>2026-07-08T13:49:52Z</time>
      </trkpt>
      <trkpt lat="47.08543" lon="6.05485">
        <ele>390.8</ele>
        <time>2026-07-08T13:49:53Z</time>
      </trkpt>
      <trkpt lat="47.08541" lon="6.05483">
        <ele>391.2</ele>
        <time>2026-07-08T13:49:54Z</time>
      </trkpt>
      <trkpt lat="47.08539" lon="6.05481">
        <ele>391.4</ele>
        <time>2026-07-08T13:49:55Z</time>
      </trkpt>
      <trkpt lat="47.08537" lon="6.05479">
        <ele>391.6</ele>
        <time>2026-07-08T13:49:56Z</time>
      </trkpt>
      <trkpt lat="47.08535" lon="6.05477">
        <ele>392</ele>
        <time>2026-07-08T13:49:57Z</time>
      </trkpt>
      <trkpt lat="47.08533" lon="6.05474">
        <ele>392</ele>
        <time>2026-07-08T13:49:58Z</time>
      </trkpt>
      <trkpt lat="47.0853" lon="6.05472">
        <ele>392.2</ele>
        <time>2026-07-08T13:49:59Z</time>
      </trkpt>
      <trkpt lat="47.08529" lon="6.05469">
        <ele>392.2</ele>
        <time>2026-07-08T13:50:00Z</time>
      </trkpt>
      <trkpt lat="47.08527" lon="6.05466">
        <ele>392.2</ele>
        <time>2026-07-08T13:50:01Z</time>
      </trkpt>
      <trkpt lat="47.08525" lon="6.05464">
        <ele>392.4</ele>
        <time>2026-07-08T13:50:02Z</time>
      </trkpt>
      <trkpt lat="47.08523" lon="6.05461">
        <ele>392.8</ele>
        <time>2026-07-08T13:50:03Z</time>
      </trkpt>
      <trkpt lat="47.08521" lon="6.05458">
        <ele>393</ele>
        <time>2026-07-08T13:50:04Z</time>
      </trkpt>
      <trkpt lat="47.08519" lon="6.05456">
        <ele>393.2</ele>
        <time>2026-07-08T13:50:05Z</time>
      </trkpt>
      <trkpt lat="47.08517" lon="6.05453">
        <ele>393.2</ele>
        <time>2026-07-08T13:50:06Z</time>
      </trkpt>
      <trkpt lat="47.08515" lon="6.0545">
        <ele>393.4</ele>
        <time>2026-07-08T13:50:07Z</time>
      </trkpt>
      <trkpt lat="47.08513" lon="6.05448">
        <ele>393.6</ele>
        <time>2026-07-08T13:50:08Z</time>
      </trkpt>
      <trkpt lat="47.0851" lon="6.05446">
        <ele>393.6</ele>
        <time>2026-07-08T13:50:09Z</time>
      </trkpt>
      <trkpt lat="47.08508" lon="6.05444">
        <ele>393.8</ele>
        <time>2026-07-08T13:50:10Z</time>
      </trkpt>
      <trkpt lat="47.08506" lon="6.05442">
        <ele>394</ele>
        <time>2026-07-08T13:50:11Z</time>
      </trkpt>
      <trkpt lat="47.08504" lon="6.05439">
        <ele>394</ele>
        <time>2026-07-08T13:50:12Z</time>
      </trkpt>
      <trkpt lat="47.08502" lon="6.05437">
        <ele>394</ele>
        <time>2026-07-08T13:50:13Z</time>
      </trkpt>
      <trkpt lat="47.085" lon="6.05435">
        <ele>394.4</ele>
        <time>2026-07-08T13:50:14Z</time>
      </trkpt>
      <trkpt lat="47.08498" lon="6.05433">
        <ele>394.4</ele>
        <time>2026-07-08T13:50:15Z</time>
      </trkpt>
      <trkpt lat="47.08496" lon="6.05431">
        <ele>394.8</ele>
        <time>2026-07-08T13:50:16Z</time>
      </trkpt>
      <trkpt lat="47.08494" lon="6.05429">
        <ele>395</ele>
        <time>2026-07-08T13:50:17Z</time>
      </trkpt>
      <trkpt lat="47.08492" lon="6.05426">
        <ele>395.2</ele>
        <time>2026-07-08T13:50:18Z</time>
      </trkpt>
      <trkpt lat="47.08489" lon="6.05424">
        <ele>395.2</ele>
        <time>2026-07-08T13:50:19Z</time>
      </trkpt>
      <trkpt lat="47.08486" lon="6.05422">
        <ele>395.2</ele>
        <time>2026-07-08T13:50:20Z</time>
      </trkpt>
      <trkpt lat="47.08484" lon="6.0542">
        <ele>395.4</ele>
        <time>2026-07-08T13:50:21Z</time>
      </trkpt>
      <trkpt lat="47.08482" lon="6.05418">
        <ele>395.8</ele>
        <time>2026-07-08T13:50:22Z</time>
      </trkpt>
      <trkpt lat="47.0848" lon="6.05415">
        <ele>395.8</ele>
        <time>2026-07-08T13:50:23Z</time>
      </trkpt>
      <trkpt lat="47.08478" lon="6.05413">
        <ele>396</ele>
        <time>2026-07-08T13:50:24Z</time>
      </trkpt>
      <trkpt lat="47.08476" lon="6.05411">
        <ele>396.2</ele>
        <time>2026-07-08T13:50:25Z</time>
      </trkpt>
      <trkpt lat="47.08473" lon="6.05408">
        <ele>396.6</ele>
        <time>2026-07-08T13:50:26Z</time>
      </trkpt>
      <trkpt lat="47.08471" lon="6.05406">
        <ele>396.8</ele>
        <time>2026-07-08T13:50:27Z</time>
      </trkpt>
      <trkpt lat="47.08469" lon="6.05403">
        <ele>397</ele>
        <time>2026-07-08T13:50:28Z</time>
      </trkpt>
      <trkpt lat="47.08467" lon="6.054">
        <ele>397.2</ele>
        <time>2026-07-08T13:50:29Z</time>
      </trkpt>
      <trkpt lat="47.08465" lon="6.05398">
        <ele>397.4</ele>
        <time>2026-07-08T13:50:30Z</time>
      </trkpt>
      <trkpt lat="47.08463" lon="6.05395">
        <ele>397.6</ele>
        <time>2026-07-08T13:50:31Z</time>
      </trkpt>
      <trkpt lat="47.08461" lon="6.05392">
        <ele>397.6</ele>
        <time>2026-07-08T13:50:32Z</time>
      </trkpt>
      <trkpt lat="47.08459" lon="6.0539">
        <ele>397.8</ele>
        <time>2026-07-08T13:50:33Z</time>
      </trkpt>
      <trkpt lat="47.08457" lon="6.05387">
        <ele>397.8</ele>
        <time>2026-07-08T13:50:34Z</time>
      </trkpt>
      <trkpt lat="47.08455" lon="6.05385">
        <ele>398</ele>
        <time>2026-07-08T13:50:35Z</time>
      </trkpt>
      <trkpt lat="47.08454" lon="6.05383">
        <ele>398.2</ele>
        <time>2026-07-08T13:50:36Z</time>
      </trkpt>
      <trkpt lat="47.08452" lon="6.05381">
        <ele>398.4</ele>
        <time>2026-07-08T13:50:37Z</time>
      </trkpt>
      <trkpt lat="47.0845" lon="6.05378">
        <ele>398.6</ele>
        <time>2026-07-08T13:50:38Z</time>
      </trkpt>
      <trkpt lat="47.08448" lon="6.05375">
        <ele>398.8</ele>
        <time>2026-07-08T13:50:39Z</time>
      </trkpt>
      <trkpt lat="47.08446" lon="6.05373">
        <ele>398.8</ele>
        <time>2026-07-08T13:50:40Z</time>
      </trkpt>
      <trkpt lat="47.08444" lon="6.0537">
        <ele>399</ele>
        <time>2026-07-08T13:50:41Z</time>
      </trkpt>
      <trkpt lat="47.08442" lon="6.05367">
        <ele>399.2</ele>
        <time>2026-07-08T13:50:42Z</time>
      </trkpt>
      <trkpt lat="47.0844" lon="6.05364">
        <ele>399.4</ele>
        <time>2026-07-08T13:50:43Z</time>
      </trkpt>
      <trkpt lat="47.08438" lon="6.05361">
        <ele>399.6</ele>
        <time>2026-07-08T13:50:44Z</time>
      </trkpt>
      <trkpt lat="47.08436" lon="6.05358">
        <ele>399.6</ele>
        <time>2026-07-08T13:50:45Z</time>
      </trkpt>
      <trkpt lat="47.08434" lon="6.05356">
        <ele>399.8</ele>
        <time>2026-07-08T13:50:46Z</time>
      </trkpt>
      <trkpt lat="47.08433" lon="6.05353">
        <ele>400</ele>
        <time>2026-07-08T13:50:47Z</time>
      </trkpt>
      <trkpt lat="47.0843" lon="6.05347">
        <ele>400.2</ele>
        <time>2026-07-08T13:50:48Z</time>
      </trkpt>
      <trkpt lat="47.0843" lon="6.05347">
        <ele>400.4</ele>
        <time>2026-07-08T13:50:49Z</time>
      </trkpt>
      <trkpt lat="47.08427" lon="6.05344">
        <ele>400.6</ele>
        <time>2026-07-08T13:50:50Z</time>
      </trkpt>
      <trkpt lat="47.08426" lon="6.05341">
        <ele>400.8</ele>
        <time>2026-07-08T13:50:51Z</time>
      </trkpt>
      <trkpt lat="47.08424" lon="6.05338">
        <ele>400.8</ele>
        <time>2026-07-08T13:50:52Z</time>
      </trkpt>
      <trkpt lat="47.08422" lon="6.05335">
        <ele>401</ele>
        <time>2026-07-08T13:50:53Z</time>
      </trkpt>
      <trkpt lat="47.08421" lon="6.05333">
        <ele>401.2</ele>
        <time>2026-07-08T13:50:54Z</time>
      </trkpt>
      <trkpt lat="47.08419" lon="6.0533">
        <ele>401.4</ele>
        <time>2026-07-08T13:50:55Z</time>
      </trkpt>
      <trkpt lat="47.08417" lon="6.05328">
        <ele>401.4</ele>
        <time>2026-07-08T13:50:56Z</time>
      </trkpt>
      <trkpt lat="47.08415" lon="6.05325">
        <ele>401.4</ele>
        <time>2026-07-08T13:50:57Z</time>
      </trkpt>
      <trkpt lat="47.08413" lon="6.05323">
        <ele>401.6</ele>
        <time>2026-07-08T13:50:58Z</time>
      </trkpt>
      <trkpt lat="47.08411" lon="6.0532">
        <ele>401.6</ele>
        <time>2026-07-08T13:50:59Z</time>
      </trkpt>
      <trkpt lat="47.08408" lon="6.05318">
        <ele>401.8</ele>
        <time>2026-07-08T13:51:00Z</time>
      </trkpt>
      <trkpt lat="47.08406" lon="6.05315">
        <ele>401.8</ele>
        <time>2026-07-08T13:51:01Z</time>
      </trkpt>
      <trkpt lat="47.08404" lon="6.05312">
        <ele>402.2</ele>
        <time>2026-07-08T13:51:02Z</time>
      </trkpt>
      <trkpt lat="47.08402" lon="6.0531">
        <ele>402.4</ele>
        <time>2026-07-08T13:51:03Z</time>
      </trkpt>
      <trkpt lat="47.084" lon="6.05307">
        <ele>402.4</ele>
        <time>2026-07-08T13:51:04Z</time>
      </trkpt>
      <trkpt lat="47.08399" lon="6.05304">
        <ele>402.6</ele>
        <time>2026-07-08T13:51:05Z</time>
      </trkpt>
      <trkpt lat="47.08397" lon="6.05301">
        <ele>402.8</ele>
        <time>2026-07-08T13:51:06Z</time>
      </trkpt>
      <trkpt lat="47.08395" lon="6.05299">
        <ele>402.8</ele>
        <time>2026-07-08T13:51:07Z</time>
      </trkpt>
      <trkpt lat="47.08393" lon="6.05296">
        <ele>403</ele>
        <time>2026-07-08T13:51:08Z</time>
      </trkpt>
      <trkpt lat="47.08391" lon="6.05293">
        <ele>403</ele>
        <time>2026-07-08T13:51:09Z</time>
      </trkpt>
      <trkpt lat="47.0839" lon="6.05291">
        <ele>403.2</ele>
        <time>2026-07-08T13:51:10Z</time>
      </trkpt>
      <trkpt lat="47.08388" lon="6.05289">
        <ele>403.4</ele>
        <time>2026-07-08T13:51:11Z</time>
      </trkpt>
      <trkpt lat="47.08386" lon="6.05287">
        <ele>403.6</ele>
        <time>2026-07-08T13:51:12Z</time>
      </trkpt>
      <trkpt lat="47.08385" lon="6.05285">
        <ele>403.8</ele>
        <time>2026-07-08T13:51:13Z</time>
      </trkpt>
      <trkpt lat="47.08383" lon="6.05282">
        <ele>403.8</ele>
        <time>2026-07-08T13:51:14Z</time>
      </trkpt>
      <trkpt lat="47.08382" lon="6.0528">
        <ele>403.8</ele>
        <time>2026-07-08T13:51:15Z</time>
      </trkpt>
      <trkpt lat="47.08381" lon="6.05278">
        <ele>404.2</ele>
        <time>2026-07-08T13:51:16Z</time>
      </trkpt>
      <trkpt lat="47.08379" lon="6.05276">
        <ele>404.4</ele>
        <time>2026-07-08T13:51:17Z</time>
      </trkpt>
      <trkpt lat="47.08378" lon="6.05273">
        <ele>404.6</ele>
        <time>2026-07-08T13:51:18Z</time>
      </trkpt>
      <trkpt lat="47.08377" lon="6.05271">
        <ele>404.6</ele>
        <time>2026-07-08T13:51:19Z</time>
      </trkpt>
      <trkpt lat="47.08375" lon="6.05269">
        <ele>404.6</ele>
        <time>2026-07-08T13:51:20Z</time>
      </trkpt>
      <trkpt lat="47.08374" lon="6.05266">
        <ele>404.6</ele>
        <time>2026-07-08T13:51:21Z</time>
      </trkpt>
      <trkpt lat="47.08372" lon="6.05263">
        <ele>405</ele>
        <time>2026-07-08T13:51:22Z</time>
      </trkpt>
      <trkpt lat="47.08371" lon="6.0526">
        <ele>405.4</ele>
        <time>2026-07-08T13:51:23Z</time>
      </trkpt>
      <trkpt lat="47.08369" lon="6.05257">
        <ele>405.6</ele>
        <time>2026-07-08T13:51:24Z</time>
      </trkpt>
      <trkpt lat="47.08367" lon="6.05255">
        <ele>405.6</ele>
        <time>2026-07-08T13:51:25Z</time>
      </trkpt>
      <trkpt lat="47.08365" lon="6.05252">
        <ele>405.8</ele>
        <time>2026-07-08T13:51:26Z</time>
      </trkpt>
      <trkpt lat="47.08364" lon="6.0525">
        <ele>406</ele>
        <time>2026-07-08T13:51:27Z</time>
      </trkpt>
      <trkpt lat="47.08362" lon="6.05248">
        <ele>406.2</ele>
        <time>2026-07-08T13:51:28Z</time>
      </trkpt>
      <trkpt lat="47.0836" lon="6.05245">
        <ele>406.4</ele>
        <time>2026-07-08T13:51:29Z</time>
      </trkpt>
      <trkpt lat="47.08359" lon="6.05243">
        <ele>406.4</ele>
        <time>2026-07-08T13:51:30Z</time>
      </trkpt>
      <trkpt lat="47.08358" lon="6.0524">
        <ele>406.8</ele>
        <time>2026-07-08T13:51:31Z</time>
      </trkpt>
      <trkpt lat="47.08356" lon="6.05237">
        <ele>407</ele>
        <time>2026-07-08T13:51:32Z</time>
      </trkpt>
      <trkpt lat="47.08355" lon="6.05234">
        <ele>407</ele>
        <time>2026-07-08T13:51:33Z</time>
      </trkpt>
      <trkpt lat="47.08354" lon="6.05231">
        <ele>407.2</ele>
        <time>2026-07-08T13:51:34Z</time>
      </trkpt>
      <trkpt lat="47.08352" lon="6.05229">
        <ele>407.4</ele>
        <time>2026-07-08T13:51:35Z</time>
      </trkpt>
      <trkpt lat="47.0835" lon="6.05226">
        <ele>407.6</ele>
        <time>2026-07-08T13:51:36Z</time>
      </trkpt>
      <trkpt lat="47.08349" lon="6.05224">
        <ele>407.6</ele>
        <time>2026-07-08T13:51:37Z</time>
      </trkpt>
      <trkpt lat="47.08347" lon="6.05221">
        <ele>407.8</ele>
        <time>2026-07-08T13:51:38Z</time>
      </trkpt>
      <trkpt lat="47.08345" lon="6.05219">
        <ele>407.8</ele>
        <time>2026-07-08T13:51:39Z</time>
      </trkpt>
      <trkpt lat="47.08343" lon="6.05217">
        <ele>408</ele>
        <time>2026-07-08T13:51:40Z</time>
      </trkpt>
      <trkpt lat="47.08341" lon="6.05215">
        <ele>408</ele>
        <time>2026-07-08T13:51:41Z</time>
      </trkpt>
      <trkpt lat="47.0834" lon="6.05212">
        <ele>408</ele>
        <time>2026-07-08T13:51:42Z</time>
      </trkpt>
      <trkpt lat="47.08338" lon="6.0521">
        <ele>408.2</ele>
        <time>2026-07-08T13:51:43Z</time>
      </trkpt>
      <trkpt lat="47.08337" lon="6.05208">
        <ele>408.4</ele>
        <time>2026-07-08T13:51:44Z</time>
      </trkpt>
      <trkpt lat="47.08335" lon="6.05205">
        <ele>408.4</ele>
        <time>2026-07-08T13:51:45Z</time>
      </trkpt>
      <trkpt lat="47.08334" lon="6.05203">
        <ele>408.4</ele>
        <time>2026-07-08T13:51:46Z</time>
      </trkpt>
      <trkpt lat="47.08332" lon="6.05201">
        <ele>408.8</ele>
        <time>2026-07-08T13:51:47Z</time>
      </trkpt>
      <trkpt lat="47.0833" lon="6.05199">
        <ele>408.8</ele>
        <time>2026-07-08T13:51:48Z</time>
      </trkpt>
      <trkpt lat="47.08329" lon="6.05197">
        <ele>409</ele>
        <time>2026-07-08T13:51:49Z</time>
      </trkpt>
      <trkpt lat="47.08327" lon="6.05194">
        <ele>409.4</ele>
        <time>2026-07-08T13:51:50Z</time>
      </trkpt>
      <trkpt lat="47.08325" lon="6.05192">
        <ele>409.4</ele>
        <time>2026-07-08T13:51:51Z</time>
      </trkpt>
      <trkpt lat="47.08323" lon="6.05189">
        <ele>409.6</ele>
        <time>2026-07-08T13:51:52Z</time>
      </trkpt>
      <trkpt lat="47.08321" lon="6.05187">
        <ele>409.6</ele>
        <time>2026-07-08T13:51:53Z</time>
      </trkpt>
      <trkpt lat="47.0832" lon="6.05185">
        <ele>409.8</ele>
        <time>2026-07-08T13:51:54Z</time>
      </trkpt>
      <trkpt lat="47.08318" lon="6.05182">
        <ele>410</ele>
        <time>2026-07-08T13:51:55Z</time>
      </trkpt>
      <trkpt lat="47.08316" lon="6.0518">
        <ele>410</ele>
        <time>2026-07-08T13:51:56Z</time>
      </trkpt>
      <trkpt lat="47.08315" lon="6.05178">
        <ele>410.2</ele>
        <time>2026-07-08T13:51:57Z</time>
      </trkpt>
      <trkpt lat="47.08313" lon="6.05175">
        <ele>410.2</ele>
        <time>2026-07-08T13:51:58Z</time>
      </trkpt>
      <trkpt lat="47.08311" lon="6.05173">
        <ele>410.6</ele>
        <time>2026-07-08T13:51:59Z</time>
      </trkpt>
      <trkpt lat="47.0831" lon="6.0517">
        <ele>410.6</ele>
        <time>2026-07-08T13:52:00Z</time>
      </trkpt>
      <trkpt lat="47.08308" lon="6.05168">
        <ele>410.8</ele>
        <time>2026-07-08T13:52:01Z</time>
      </trkpt>
      <trkpt lat="47.08306" lon="6.05165">
        <ele>410.8</ele>
        <time>2026-07-08T13:52:02Z</time>
      </trkpt>
      <trkpt lat="47.08304" lon="6.05163">
        <ele>411</ele>
        <time>2026-07-08T13:52:03Z</time>
      </trkpt>
      <trkpt lat="47.08303" lon="6.05161">
        <ele>411</ele>
        <time>2026-07-08T13:52:04Z</time>
      </trkpt>
      <trkpt lat="47.08301" lon="6.05158">
        <ele>411.2</ele>
        <time>2026-07-08T13:52:05Z</time>
      </trkpt>
      <trkpt lat="47.08299" lon="6.05156">
        <ele>411.2</ele>
        <time>2026-07-08T13:52:06Z</time>
      </trkpt>
      <trkpt lat="47.08297" lon="6.05154">
        <ele>411.4</ele>
        <time>2026-07-08T13:52:07Z</time>
      </trkpt>
      <trkpt lat="47.08295" lon="6.05151">
        <ele>411.6</ele>
        <time>2026-07-08T13:52:08Z</time>
      </trkpt>
      <trkpt lat="47.08293" lon="6.05149">
        <ele>412</ele>
        <time>2026-07-08T13:52:09Z</time>
      </trkpt>
      <trkpt lat="47.08291" lon="6.05146">
        <ele>412</ele>
        <time>2026-07-08T13:52:10Z</time>
      </trkpt>
      <trkpt lat="47.0829" lon="6.05144">
        <ele>412.2</ele>
        <time>2026-07-08T13:52:11Z</time>
      </trkpt>
      <trkpt lat="47.08288" lon="6.05142">
        <ele>412.2</ele>
        <time>2026-07-08T13:52:12Z</time>
      </trkpt>
      <trkpt lat="47.08286" lon="6.05139">
        <ele>412.4</ele>
        <time>2026-07-08T13:52:13Z</time>
      </trkpt>
      <trkpt lat="47.08284" lon="6.05137">
        <ele>412.6</ele>
        <time>2026-07-08T13:52:14Z</time>
      </trkpt>
      <trkpt lat="47.08282" lon="6.05134">
        <ele>412.6</ele>
        <time>2026-07-08T13:52:15Z</time>
      </trkpt>
      <trkpt lat="47.08281" lon="6.05132">
        <ele>412.8</ele>
        <time>2026-07-08T13:52:16Z</time>
      </trkpt>
      <trkpt lat="47.08279" lon="6.0513">
        <ele>413</ele>
        <time>2026-07-08T13:52:17Z</time>
      </trkpt>
      <trkpt lat="47.08278" lon="6.05127">
        <ele>413</ele>
        <time>2026-07-08T13:52:18Z</time>
      </trkpt>
      <trkpt lat="47.08277" lon="6.05124">
        <ele>413</ele>
        <time>2026-07-08T13:52:19Z</time>
      </trkpt>
      <trkpt lat="47.08274" lon="6.05121">
        <ele>413.2</ele>
        <time>2026-07-08T13:52:20Z</time>
      </trkpt>
      <trkpt lat="47.08273" lon="6.05119">
        <ele>413.4</ele>
        <time>2026-07-08T13:52:21Z</time>
      </trkpt>
      <trkpt lat="47.0827" lon="6.05114">
        <ele>413.4</ele>
        <time>2026-07-08T13:52:22Z</time>
      </trkpt>
      <trkpt lat="47.0827" lon="6.05114">
        <ele>413.8</ele>
        <time>2026-07-08T13:52:23Z</time>
      </trkpt>
      <trkpt lat="47.08268" lon="6.05111">
        <ele>413.8</ele>
        <time>2026-07-08T13:52:24Z</time>
      </trkpt>
      <trkpt lat="47.08267" lon="6.05108">
        <ele>414.2</ele>
        <time>2026-07-08T13:52:25Z</time>
      </trkpt>
      <trkpt lat="47.08265" lon="6.05106">
        <ele>414.2</ele>
        <time>2026-07-08T13:52:26Z</time>
      </trkpt>
      <trkpt lat="47.08264" lon="6.05103">
        <ele>414.2</ele>
        <time>2026-07-08T13:52:27Z</time>
      </trkpt>
      <trkpt lat="47.08262" lon="6.05101">
        <ele>414.6</ele>
        <time>2026-07-08T13:52:28Z</time>
      </trkpt>
      <trkpt lat="47.08261" lon="6.05098">
        <ele>414.6</ele>
        <time>2026-07-08T13:52:29Z</time>
      </trkpt>
      <trkpt lat="47.08259" lon="6.05095">
        <ele>414.8</ele>
        <time>2026-07-08T13:52:30Z</time>
      </trkpt>
      <trkpt lat="47.08258" lon="6.05092">
        <ele>415</ele>
        <time>2026-07-08T13:52:31Z</time>
      </trkpt>
      <trkpt lat="47.08257" lon="6.0509">
        <ele>415</ele>
        <time>2026-07-08T13:52:32Z</time>
      </trkpt>
      <trkpt lat="47.08255" lon="6.05087">
        <ele>415.2</ele>
        <time>2026-07-08T13:52:33Z</time>
      </trkpt>
      <trkpt lat="47.08254" lon="6.05084">
        <ele>415.4</ele>
        <time>2026-07-08T13:52:34Z</time>
      </trkpt>
      <trkpt lat="47.08252" lon="6.05082">
        <ele>415.4</ele>
        <time>2026-07-08T13:52:35Z</time>
      </trkpt>
      <trkpt lat="47.08251" lon="6.05079">
        <ele>415.6</ele>
        <time>2026-07-08T13:52:36Z</time>
      </trkpt>
      <trkpt lat="47.08249" lon="6.05076">
        <ele>415.8</ele>
        <time>2026-07-08T13:52:37Z</time>
      </trkpt>
      <trkpt lat="47.08247" lon="6.05074">
        <ele>416</ele>
        <time>2026-07-08T13:52:38Z</time>
      </trkpt>
      <trkpt lat="47.08244" lon="6.05069">
        <ele>416.2</ele>
        <time>2026-07-08T13:52:39Z</time>
      </trkpt>
      <trkpt lat="47.08244" lon="6.05069">
        <ele>416.2</ele>
        <time>2026-07-08T13:52:40Z</time>
      </trkpt>
      <trkpt lat="47.08243" lon="6.05067">
        <ele>416.2</ele>
        <time>2026-07-08T13:52:41Z</time>
      </trkpt>
      <trkpt lat="47.08241" lon="6.05064">
        <ele>416.6</ele>
        <time>2026-07-08T13:52:42Z</time>
      </trkpt>
      <trkpt lat="47.0824" lon="6.05062">
        <ele>417</ele>
        <time>2026-07-08T13:52:43Z</time>
      </trkpt>
      <trkpt lat="47.08239" lon="6.0506">
        <ele>417</ele>
        <time>2026-07-08T13:52:44Z</time>
      </trkpt>
      <trkpt lat="47.08237" lon="6.05058">
        <ele>417.2</ele>
        <time>2026-07-08T13:52:45Z</time>
      </trkpt>
      <trkpt lat="47.08236" lon="6.05055">
        <ele>417.2</ele>
        <time>2026-07-08T13:52:46Z</time>
      </trkpt>
      <trkpt lat="47.08234" lon="6.05053">
        <ele>417.4</ele>
        <time>2026-07-08T13:52:47Z</time>
      </trkpt>
      <trkpt lat="47.08232" lon="6.05051">
        <ele>417.4</ele>
        <time>2026-07-08T13:52:48Z</time>
      </trkpt>
      <trkpt lat="47.0823" lon="6.05048">
        <ele>417.4</ele>
        <time>2026-07-08T13:52:49Z</time>
      </trkpt>
      <trkpt lat="47.08229" lon="6.05046">
        <ele>417.6</ele>
        <time>2026-07-08T13:52:50Z</time>
      </trkpt>
      <trkpt lat="47.08227" lon="6.05044">
        <ele>417.6</ele>
        <time>2026-07-08T13:52:51Z</time>
      </trkpt>
      <trkpt lat="47.08225" lon="6.05042">
        <ele>417.8</ele>
        <time>2026-07-08T13:52:52Z</time>
      </trkpt>
      <trkpt lat="47.08224" lon="6.05039">
        <ele>418</ele>
        <time>2026-07-08T13:52:53Z</time>
      </trkpt>
      <trkpt lat="47.08222" lon="6.05037">
        <ele>418.2</ele>
        <time>2026-07-08T13:52:54Z</time>
      </trkpt>
      <trkpt lat="47.0822" lon="6.05035">
        <ele>418.2</ele>
        <time>2026-07-08T13:52:55Z</time>
      </trkpt>
      <trkpt lat="47.08219" lon="6.05032">
        <ele>418.6</ele>
        <time>2026-07-08T13:52:56Z</time>
      </trkpt>
      <trkpt lat="47.08215" lon="6.05028">
        <ele>418.6</ele>
        <time>2026-07-08T13:52:57Z</time>
      </trkpt>
      <trkpt lat="47.08215" lon="6.05028">
        <ele>418.8</ele>
        <time>2026-07-08T13:52:58Z</time>
      </trkpt>
      <trkpt lat="47.08213" lon="6.05025">
        <ele>418.8</ele>
        <time>2026-07-08T13:52:59Z</time>
      </trkpt>
      <trkpt lat="47.08212" lon="6.05022">
        <ele>419</ele>
        <time>2026-07-08T13:53:00Z</time>
      </trkpt>
      <trkpt lat="47.0821" lon="6.0502">
        <ele>419.2</ele>
        <time>2026-07-08T13:53:01Z</time>
      </trkpt>
      <trkpt lat="47.08208" lon="6.05017">
        <ele>419.2</ele>
        <time>2026-07-08T13:53:02Z</time>
      </trkpt>
      <trkpt lat="47.08207" lon="6.05015">
        <ele>419.6</ele>
        <time>2026-07-08T13:53:03Z</time>
      </trkpt>
      <trkpt lat="47.08205" lon="6.05013">
        <ele>419.8</ele>
        <time>2026-07-08T13:53:04Z</time>
      </trkpt>
      <trkpt lat="47.08203" lon="6.0501">
        <ele>419.8</ele>
        <time>2026-07-08T13:53:05Z</time>
      </trkpt>
      <trkpt lat="47.08202" lon="6.05008">
        <ele>420</ele>
        <time>2026-07-08T13:53:06Z</time>
      </trkpt>
      <trkpt lat="47.082" lon="6.05006">
        <ele>420.2</ele>
        <time>2026-07-08T13:53:07Z</time>
      </trkpt>
      <trkpt lat="47.08199" lon="6.05003">
        <ele>420.4</ele>
        <time>2026-07-08T13:53:08Z</time>
      </trkpt>
      <trkpt lat="47.08197" lon="6.05001">
        <ele>420.4</ele>
        <time>2026-07-08T13:53:09Z</time>
      </trkpt>
      <trkpt lat="47.08195" lon="6.04998">
        <ele>420.6</ele>
        <time>2026-07-08T13:53:10Z</time>
      </trkpt>
      <trkpt lat="47.08194" lon="6.04996">
        <ele>420.6</ele>
        <time>2026-07-08T13:53:11Z</time>
      </trkpt>
      <trkpt lat="47.08192" lon="6.04993">
        <ele>420.8</ele>
        <time>2026-07-08T13:53:12Z</time>
      </trkpt>
      <trkpt lat="47.08191" lon="6.04991">
        <ele>421</ele>
        <time>2026-07-08T13:53:13Z</time>
      </trkpt>
      <trkpt lat="47.08189" lon="6.04988">
        <ele>421</ele>
        <time>2026-07-08T13:53:14Z</time>
      </trkpt>
      <trkpt lat="47.08187" lon="6.04986">
        <ele>421.2</ele>
        <time>2026-07-08T13:53:15Z</time>
      </trkpt>
      <trkpt lat="47.08185" lon="6.04984">
        <ele>421.2</ele>
        <time>2026-07-08T13:53:16Z</time>
      </trkpt>
      <trkpt lat="47.08184" lon="6.04982">
        <ele>421.4</ele>
        <time>2026-07-08T13:53:17Z</time>
      </trkpt>
      <trkpt lat="47.08182" lon="6.0498">
        <ele>421.8</ele>
        <time>2026-07-08T13:53:18Z</time>
      </trkpt>
      <trkpt lat="47.08181" lon="6.04979">
        <ele>421.8</ele>
        <time>2026-07-08T13:53:19Z</time>
      </trkpt>
      <trkpt lat="47.0818" lon="6.04977">
        <ele>421.8</ele>
        <time>2026-07-08T13:53:20Z</time>
      </trkpt>
      <trkpt lat="47.08178" lon="6.04976">
        <ele>422</ele>
        <time>2026-07-08T13:53:21Z</time>
      </trkpt>
      <trkpt lat="47.08177" lon="6.04974">
        <ele>422.2</ele>
        <time>2026-07-08T13:53:22Z</time>
      </trkpt>
      <trkpt lat="47.08175" lon="6.04972">
        <ele>422.2</ele>
        <time>2026-07-08T13:53:23Z</time>
      </trkpt>
      <trkpt lat="47.08172" lon="6.04972">
        <ele>422.4</ele>
        <time>2026-07-08T13:53:24Z</time>
      </trkpt>
      <trkpt lat="47.08171" lon="6.0497">
        <ele>422.8</ele>
        <time>2026-07-08T13:53:25Z</time>
      </trkpt>
      <trkpt lat="47.08169" lon="6.04969">
        <ele>422.8</ele>
        <time>2026-07-08T13:53:26Z</time>
      </trkpt>
      <trkpt lat="47.08167" lon="6.04967">
        <ele>423.2</ele>
        <time>2026-07-08T13:53:27Z</time>
      </trkpt>
      <trkpt lat="47.08166" lon="6.04965">
        <ele>423.2</ele>
        <time>2026-07-08T13:53:28Z</time>
      </trkpt>
      <trkpt lat="47.08164" lon="6.04963">
        <ele>423.4</ele>
        <time>2026-07-08T13:53:29Z</time>
      </trkpt>
      <trkpt lat="47.08162" lon="6.0496">
        <ele>423.4</ele>
        <time>2026-07-08T13:53:30Z</time>
      </trkpt>
      <trkpt lat="47.08161" lon="6.04958">
        <ele>423.6</ele>
        <time>2026-07-08T13:53:31Z</time>
      </trkpt>
      <trkpt lat="47.08159" lon="6.04955">
        <ele>423.6</ele>
        <time>2026-07-08T13:53:32Z</time>
      </trkpt>
      <trkpt lat="47.08158" lon="6.04953">
        <ele>423.6</ele>
        <time>2026-07-08T13:53:33Z</time>
      </trkpt>
      <trkpt lat="47.08156" lon="6.04951">
        <ele>424</ele>
        <time>2026-07-08T13:53:34Z</time>
      </trkpt>
      <trkpt lat="47.08154" lon="6.04949">
        <ele>424</ele>
        <time>2026-07-08T13:53:35Z</time>
      </trkpt>
      <trkpt lat="47.08152" lon="6.04947">
        <ele>424.4</ele>
        <time>2026-07-08T13:53:36Z</time>
      </trkpt>
      <trkpt lat="47.08149" lon="6.04944">
        <ele>424.6</ele>
        <time>2026-07-08T13:53:37Z</time>
      </trkpt>
      <trkpt lat="47.08149" lon="6.04944">
        <ele>424.4</ele>
        <time>2026-07-08T13:53:38Z</time>
      </trkpt>
      <trkpt lat="47.08147" lon="6.04942">
        <ele>424.6</ele>
        <time>2026-07-08T13:53:39Z</time>
      </trkpt>
      <trkpt lat="47.08146" lon="6.0494">
        <ele>424.8</ele>
        <time>2026-07-08T13:53:40Z</time>
      </trkpt>
      <trkpt lat="47.08144" lon="6.04938">
        <ele>425.2</ele>
        <time>2026-07-08T13:53:41Z</time>
      </trkpt>
      <trkpt lat="47.08143" lon="6.04936">
        <ele>425.4</ele>
        <time>2026-07-08T13:53:42Z</time>
      </trkpt>
      <trkpt lat="47.08139" lon="6.04933">
        <ele>425.6</ele>
        <time>2026-07-08T13:53:43Z</time>
      </trkpt>
      <trkpt lat="47.08137" lon="6.04931">
        <ele>425.8</ele>
        <time>2026-07-08T13:53:44Z</time>
      </trkpt>
      <trkpt lat="47.08135" lon="6.04929">
        <ele>425.8</ele>
        <time>2026-07-08T13:53:45Z</time>
      </trkpt>
      <trkpt lat="47.08134" lon="6.04928">
        <ele>426</ele>
        <time>2026-07-08T13:53:46Z</time>
      </trkpt>
      <trkpt lat="47.08132" lon="6.04926">
        <ele>426</ele>
        <time>2026-07-08T13:53:47Z</time>
      </trkpt>
      <trkpt lat="47.0813" lon="6.04925">
        <ele>426.2</ele>
        <time>2026-07-08T13:53:48Z</time>
      </trkpt>
      <trkpt lat="47.08128" lon="6.04923">
        <ele>426.4</ele>
        <time>2026-07-08T13:53:49Z</time>
      </trkpt>
      <trkpt lat="47.08126" lon="6.04921">
        <ele>426.4</ele>
        <time>2026-07-08T13:53:50Z</time>
      </trkpt>
      <trkpt lat="47.08124" lon="6.04919">
        <ele>426.4</ele>
        <time>2026-07-08T13:53:51Z</time>
      </trkpt>
      <trkpt lat="47.08122" lon="6.04918">
        <ele>426.8</ele>
        <time>2026-07-08T13:53:52Z</time>
      </trkpt>
      <trkpt lat="47.0812" lon="6.04916">
        <ele>426.8</ele>
        <time>2026-07-08T13:53:53Z</time>
      </trkpt>
      <trkpt lat="47.08118" lon="6.04915">
        <ele>427</ele>
        <time>2026-07-08T13:53:54Z</time>
      </trkpt>
      <trkpt lat="47.08116" lon="6.04913">
        <ele>427.2</ele>
        <time>2026-07-08T13:53:55Z</time>
      </trkpt>
      <trkpt lat="47.08113" lon="6.04912">
        <ele>427.2</ele>
        <time>2026-07-08T13:53:56Z</time>
      </trkpt>
      <trkpt lat="47.08111" lon="6.0491">
        <ele>427.2</ele>
        <time>2026-07-08T13:53:57Z</time>
      </trkpt>
      <trkpt lat="47.08108" lon="6.04909">
        <ele>427.4</ele>
        <time>2026-07-08T13:53:58Z</time>
      </trkpt>
      <trkpt lat="47.08106" lon="6.04907">
        <ele>427.6</ele>
        <time>2026-07-08T13:53:59Z</time>
      </trkpt>
      <trkpt lat="47.08104" lon="6.04905">
        <ele>427.8</ele>
        <time>2026-07-08T13:54:00Z</time>
      </trkpt>
      <trkpt lat="47.08102" lon="6.04904">
        <ele>427.8</ele>
        <time>2026-07-08T13:54:01Z</time>
      </trkpt>
      <trkpt lat="47.081" lon="6.04902">
        <ele>428</ele>
        <time>2026-07-08T13:54:02Z</time>
      </trkpt>
      <trkpt lat="47.08098" lon="6.049">
        <ele>428.2</ele>
        <time>2026-07-08T13:54:03Z</time>
      </trkpt>
      <trkpt lat="47.08096" lon="6.04899">
        <ele>428.4</ele>
        <time>2026-07-08T13:54:04Z</time>
      </trkpt>
      <trkpt lat="47.08094" lon="6.04897">
        <ele>428.4</ele>
        <time>2026-07-08T13:54:05Z</time>
      </trkpt>
      <trkpt lat="47.08092" lon="6.04895">
        <ele>428.6</ele>
        <time>2026-07-08T13:54:06Z</time>
      </trkpt>
      <trkpt lat="47.0809" lon="6.04893">
        <ele>428.6</ele>
        <time>2026-07-08T13:54:07Z</time>
      </trkpt>
      <trkpt lat="47.08088" lon="6.04891">
        <ele>429</ele>
        <time>2026-07-08T13:54:08Z</time>
      </trkpt>
      <trkpt lat="47.08085" lon="6.0489">
        <ele>429.2</ele>
        <time>2026-07-08T13:54:09Z</time>
      </trkpt>
      <trkpt lat="47.08083" lon="6.04888">
        <ele>429.2</ele>
        <time>2026-07-08T13:54:10Z</time>
      </trkpt>
      <trkpt lat="47.08081" lon="6.04886">
        <ele>429.6</ele>
        <time>2026-07-08T13:54:11Z</time>
      </trkpt>
      <trkpt lat="47.08078" lon="6.04885">
        <ele>429.6</ele>
        <time>2026-07-08T13:54:12Z</time>
      </trkpt>
      <trkpt lat="47.08076" lon="6.04885">
        <ele>429.8</ele>
        <time>2026-07-08T13:54:13Z</time>
      </trkpt>
      <trkpt lat="47.08074" lon="6.04884">
        <ele>430</ele>
        <time>2026-07-08T13:54:14Z</time>
      </trkpt>
      <trkpt lat="47.08072" lon="6.04882">
        <ele>430.4</ele>
        <time>2026-07-08T13:54:15Z</time>
      </trkpt>
      <trkpt lat="47.0807" lon="6.04881">
        <ele>430.6</ele>
        <time>2026-07-08T13:54:16Z</time>
      </trkpt>
      <trkpt lat="47.08068" lon="6.04879">
        <ele>430.8</ele>
        <time>2026-07-08T13:54:17Z</time>
      </trkpt>
      <trkpt lat="47.08066" lon="6.04878">
        <ele>430.8</ele>
        <time>2026-07-08T13:54:18Z</time>
      </trkpt>
      <trkpt lat="47.08065" lon="6.04877">
        <ele>431</ele>
        <time>2026-07-08T13:54:19Z</time>
      </trkpt>
      <trkpt lat="47.08064" lon="6.04877">
        <ele>431</ele>
        <time>2026-07-08T13:54:20Z</time>
      </trkpt>
      <trkpt lat="47.08064" lon="6.04877">
        <ele>431.2</ele>
        <time>2026-07-08T13:54:21Z</time>
      </trkpt>
      <trkpt lat="47.08064" lon="6.04877">
        <ele>431.4</ele>
        <time>2026-07-08T13:54:22Z</time>
      </trkpt>
      <trkpt lat="47.08055" lon="6.0487">
        <ele>432.8</ele>
        <time>2026-07-08T13:54:42Z</time>
      </trkpt>
      <trkpt lat="47.08054" lon="6.04868">
        <ele>432.6</ele>
        <time>2026-07-08T13:54:43Z</time>
      </trkpt>
      <trkpt lat="47.08052" lon="6.04866">
        <ele>432.8</ele>
        <time>2026-07-08T13:54:44Z</time>
      </trkpt>
      <trkpt lat="47.0805" lon="6.04864">
        <ele>432.8</ele>
        <time>2026-07-08T13:54:45Z</time>
      </trkpt>
      <trkpt lat="47.08049" lon="6.04862">
        <ele>432.8</ele>
        <time>2026-07-08T13:54:46Z</time>
      </trkpt>
      <trkpt lat="47.08047" lon="6.0486">
        <ele>433</ele>
        <time>2026-07-08T13:54:47Z</time>
      </trkpt>
      <trkpt lat="47.08045" lon="6.04858">
        <ele>433</ele>
        <time>2026-07-08T13:54:48Z</time>
      </trkpt>
      <trkpt lat="47.08042" lon="6.04857">
        <ele>433</ele>
        <time>2026-07-08T13:54:49Z</time>
      </trkpt>
      <trkpt lat="47.0804" lon="6.04855">
        <ele>433</ele>
        <time>2026-07-08T13:54:50Z</time>
      </trkpt>
      <trkpt lat="47.08038" lon="6.04854">
        <ele>433.2</ele>
        <time>2026-07-08T13:54:51Z</time>
      </trkpt>
      <trkpt lat="47.08036" lon="6.04853">
        <ele>433.2</ele>
        <time>2026-07-08T13:54:52Z</time>
      </trkpt>
      <trkpt lat="47.08034" lon="6.04851">
        <ele>433.4</ele>
        <time>2026-07-08T13:54:53Z</time>
      </trkpt>
      <trkpt lat="47.08031" lon="6.04849">
        <ele>433.6</ele>
        <time>2026-07-08T13:54:54Z</time>
      </trkpt>
      <trkpt lat="47.08029" lon="6.04847">
        <ele>433.4</ele>
        <time>2026-07-08T13:54:55Z</time>
      </trkpt>
      <trkpt lat="47.08027" lon="6.04845">
        <ele>433.6</ele>
        <time>2026-07-08T13:54:56Z</time>
      </trkpt>
      <trkpt lat="47.08025" lon="6.04843">
        <ele>433.6</ele>
        <time>2026-07-08T13:54:57Z</time>
      </trkpt>
      <trkpt lat="47.08023" lon="6.04841">
        <ele>434</ele>
        <time>2026-07-08T13:54:58Z</time>
      </trkpt>
      <trkpt lat="47.0802" lon="6.04839">
        <ele>434</ele>
        <time>2026-07-08T13:54:59Z</time>
      </trkpt>
      <trkpt lat="47.08018" lon="6.04837">
        <ele>434</ele>
        <time>2026-07-08T13:55:00Z</time>
      </trkpt>
      <trkpt lat="47.08016" lon="6.04835">
        <ele>434.2</ele>
        <time>2026-07-08T13:55:01Z</time>
      </trkpt>
      <trkpt lat="47.08013" lon="6.04834">
        <ele>434.4</ele>
        <time>2026-07-08T13:55:02Z</time>
      </trkpt>
      <trkpt lat="47.08011" lon="6.04832">
        <ele>434.6</ele>
        <time>2026-07-08T13:55:03Z</time>
      </trkpt>
      <trkpt lat="47.08011" lon="6.04832">
        <ele>434.6</ele>
        <time>2026-07-08T13:55:04Z</time>
      </trkpt>
      <trkpt lat="47.08008" lon="6.0483">
        <ele>434.8</ele>
        <time>2026-07-08T13:55:05Z</time>
      </trkpt>
      <trkpt lat="47.08005" lon="6.04829">
        <ele>434.8</ele>
        <time>2026-07-08T13:55:06Z</time>
      </trkpt>
      <trkpt lat="47.08" lon="6.04825">
        <ele>435</ele>
        <time>2026-07-08T13:55:07Z</time>
      </trkpt>
      <trkpt lat="47.08" lon="6.04825">
        <ele>435.2</ele>
        <time>2026-07-08T13:55:08Z</time>
      </trkpt>
      <trkpt lat="47.07996" lon="6.04821">
        <ele>435.4</ele>
        <time>2026-07-08T13:55:09Z</time>
      </trkpt>
      <trkpt lat="47.07994" lon="6.04819">
        <ele>435.2</ele>
        <time>2026-07-08T13:55:10Z</time>
      </trkpt>
      <trkpt lat="47.07992" lon="6.04817">
        <ele>435.4</ele>
        <time>2026-07-08T13:55:11Z</time>
      </trkpt>
      <trkpt lat="47.07992" lon="6.04817">
        <ele>435.6</ele>
        <time>2026-07-08T13:55:12Z</time>
      </trkpt>
      <trkpt lat="47.0799" lon="6.04815">
        <ele>435.8</ele>
        <time>2026-07-08T13:55:13Z</time>
      </trkpt>
      <trkpt lat="47.07988" lon="6.04814">
        <ele>436</ele>
        <time>2026-07-08T13:55:14Z</time>
      </trkpt>
      <trkpt lat="47.07984" lon="6.0481">
        <ele>436.2</ele>
        <time>2026-07-08T13:55:15Z</time>
      </trkpt>
      <trkpt lat="47.07984" lon="6.0481">
        <ele>436.2</ele>
        <time>2026-07-08T13:55:16Z</time>
      </trkpt>
      <trkpt lat="47.07982" lon="6.04808">
        <ele>436.4</ele>
        <time>2026-07-08T13:55:17Z</time>
      </trkpt>
      <trkpt lat="47.07978" lon="6.04804">
        <ele>436.4</ele>
        <time>2026-07-08T13:55:18Z</time>
      </trkpt>
      <trkpt lat="47.07976" lon="6.04802">
        <ele>436.4</ele>
        <time>2026-07-08T13:55:19Z</time>
      </trkpt>
      <trkpt lat="47.07976" lon="6.04802">
        <ele>436.6</ele>
        <time>2026-07-08T13:55:20Z</time>
      </trkpt>
      <trkpt lat="47.07974" lon="6.048">
        <ele>436.6</ele>
        <time>2026-07-08T13:55:21Z</time>
      </trkpt>
      <trkpt lat="47.07972" lon="6.04798">
        <ele>436.6</ele>
        <time>2026-07-08T13:55:22Z</time>
      </trkpt>
      <trkpt lat="47.07968" lon="6.04795">
        <ele>436.8</ele>
        <time>2026-07-08T13:55:23Z</time>
      </trkpt>
      <trkpt lat="47.07968" lon="6.04795">
        <ele>437</ele>
        <time>2026-07-08T13:55:24Z</time>
      </trkpt>
      <trkpt lat="47.07966" lon="6.04793">
        <ele>437</ele>
        <time>2026-07-08T13:55:25Z</time>
      </trkpt>
      <trkpt lat="47.07964" lon="6.04791">
        <ele>437.2</ele>
        <time>2026-07-08T13:55:26Z</time>
      </trkpt>
      <trkpt lat="47.07962" lon="6.04789">
        <ele>437.2</ele>
        <time>2026-07-08T13:55:27Z</time>
      </trkpt>
      <trkpt lat="47.0796" lon="6.04786">
        <ele>437.4</ele>
        <time>2026-07-08T13:55:28Z</time>
      </trkpt>
      <trkpt lat="47.07959" lon="6.04784">
        <ele>437.6</ele>
        <time>2026-07-08T13:55:29Z</time>
      </trkpt>
      <trkpt lat="47.07957" lon="6.04782">
        <ele>438</ele>
        <time>2026-07-08T13:55:30Z</time>
      </trkpt>
      <trkpt lat="47.07953" lon="6.04776">
        <ele>438.2</ele>
        <time>2026-07-08T13:55:31Z</time>
      </trkpt>
      <trkpt lat="47.07953" lon="6.04776">
        <ele>438.4</ele>
        <time>2026-07-08T13:55:32Z</time>
      </trkpt>
      <trkpt lat="47.07951" lon="6.04774">
        <ele>438.8</ele>
        <time>2026-07-08T13:55:33Z</time>
      </trkpt>
      <trkpt lat="47.0795" lon="6.04771">
        <ele>438.8</ele>
        <time>2026-07-08T13:55:34Z</time>
      </trkpt>
      <trkpt lat="47.07948" lon="6.04769">
        <ele>439</ele>
        <time>2026-07-08T13:55:35Z</time>
      </trkpt>
      <trkpt lat="47.07947" lon="6.04767">
        <ele>439.2</ele>
        <time>2026-07-08T13:55:36Z</time>
      </trkpt>
      <trkpt lat="47.07945" lon="6.04764">
        <ele>439.2</ele>
        <time>2026-07-08T13:55:37Z</time>
      </trkpt>
      <trkpt lat="47.07944" lon="6.04762">
        <ele>439.4</ele>
        <time>2026-07-08T13:55:38Z</time>
      </trkpt>
      <trkpt lat="47.07942" lon="6.0476">
        <ele>439.4</ele>
        <time>2026-07-08T13:55:39Z</time>
      </trkpt>
      <trkpt lat="47.07941" lon="6.04757">
        <ele>439.4</ele>
        <time>2026-07-08T13:55:40Z</time>
      </trkpt>
      <trkpt lat="47.0794" lon="6.04755">
        <ele>439.8</ele>
        <time>2026-07-08T13:55:41Z</time>
      </trkpt>
      <trkpt lat="47.07938" lon="6.04753">
        <ele>440</ele>
        <time>2026-07-08T13:55:42Z</time>
      </trkpt>
      <trkpt lat="47.07935" lon="6.04748">
        <ele>440</ele>
        <time>2026-07-08T13:55:43Z</time>
      </trkpt>
      <trkpt lat="47.07935" lon="6.04748">
        <ele>440.2</ele>
        <time>2026-07-08T13:55:44Z</time>
      </trkpt>
      <trkpt lat="47.07933" lon="6.04746">
        <ele>440.2</ele>
        <time>2026-07-08T13:55:45Z</time>
      </trkpt>
      <trkpt lat="47.07932" lon="6.04744">
        <ele>440.4</ele>
        <time>2026-07-08T13:55:46Z</time>
      </trkpt>
      <trkpt lat="47.07931" lon="6.04742">
        <ele>440.6</ele>
        <time>2026-07-08T13:55:47Z</time>
      </trkpt>
      <trkpt lat="47.07929" lon="6.0474">
        <ele>441</ele>
        <time>2026-07-08T13:55:48Z</time>
      </trkpt>
      <trkpt lat="47.07928" lon="6.04737">
        <ele>441</ele>
        <time>2026-07-08T13:55:49Z</time>
      </trkpt>
      <trkpt lat="47.07927" lon="6.04734">
        <ele>441</ele>
        <time>2026-07-08T13:55:50Z</time>
      </trkpt>
      <trkpt lat="47.07925" lon="6.04732">
        <ele>441.4</ele>
        <time>2026-07-08T13:55:51Z</time>
      </trkpt>
      <trkpt lat="47.07923" lon="6.0473">
        <ele>441.6</ele>
        <time>2026-07-08T13:55:52Z</time>
      </trkpt>
      <trkpt lat="47.07922" lon="6.04727">
        <ele>441.6</ele>
        <time>2026-07-08T13:55:53Z</time>
      </trkpt>
      <trkpt lat="47.0792" lon="6.04724">
        <ele>442</ele>
        <time>2026-07-08T13:55:54Z</time>
      </trkpt>
      <trkpt lat="47.07919" lon="6.04721">
        <ele>442</ele>
        <time>2026-07-08T13:55:55Z</time>
      </trkpt>
      <trkpt lat="47.07917" lon="6.04719">
        <ele>442.2</ele>
        <time>2026-07-08T13:55:56Z</time>
      </trkpt>
      <trkpt lat="47.07913" lon="6.04713">
        <ele>442.4</ele>
        <time>2026-07-08T13:55:57Z</time>
      </trkpt>
      <trkpt lat="47.07913" lon="6.04713">
        <ele>442.4</ele>
        <time>2026-07-08T13:55:58Z</time>
      </trkpt>
      <trkpt lat="47.07911" lon="6.04711">
        <ele>442.4</ele>
        <time>2026-07-08T13:55:59Z</time>
      </trkpt>
      <trkpt lat="47.0791" lon="6.04708">
        <ele>442.6</ele>
        <time>2026-07-08T13:56:00Z</time>
      </trkpt>
      <trkpt lat="47.07908" lon="6.04706">
        <ele>442.8</ele>
        <time>2026-07-08T13:56:01Z</time>
      </trkpt>
      <trkpt lat="47.07907" lon="6.04704">
        <ele>442.8</ele>
        <time>2026-07-08T13:56:02Z</time>
      </trkpt>
      <trkpt lat="47.07905" lon="6.04701">
        <ele>443</ele>
        <time>2026-07-08T13:56:03Z</time>
      </trkpt>
      <trkpt lat="47.07901" lon="6.04697">
        <ele>443.2</ele>
        <time>2026-07-08T13:56:04Z</time>
      </trkpt>
      <trkpt lat="47.07901" lon="6.04697">
        <ele>443.2</ele>
        <time>2026-07-08T13:56:05Z</time>
      </trkpt>
      <trkpt lat="47.07899" lon="6.04695">
        <ele>443.4</ele>
        <time>2026-07-08T13:56:06Z</time>
      </trkpt>
      <trkpt lat="47.07897" lon="6.04693">
        <ele>443.4</ele>
        <time>2026-07-08T13:56:07Z</time>
      </trkpt>
      <trkpt lat="47.07894" lon="6.04691">
        <ele>443.6</ele>
        <time>2026-07-08T13:56:08Z</time>
      </trkpt>
      <trkpt lat="47.07892" lon="6.04689">
        <ele>443.8</ele>
        <time>2026-07-08T13:56:09Z</time>
      </trkpt>
      <trkpt lat="47.0789" lon="6.04686">
        <ele>443.8</ele>
        <time>2026-07-08T13:56:10Z</time>
      </trkpt>
      <trkpt lat="47.07886" lon="6.04681">
        <ele>444</ele>
        <time>2026-07-08T13:56:11Z</time>
      </trkpt>
      <trkpt lat="47.07886" lon="6.04681">
        <ele>444.2</ele>
        <time>2026-07-08T13:56:12Z</time>
      </trkpt>
      <trkpt lat="47.07882" lon="6.04678">
        <ele>444.2</ele>
        <time>2026-07-08T13:56:13Z</time>
      </trkpt>
      <trkpt lat="47.0788" lon="6.04676">
        <ele>444.2</ele>
        <time>2026-07-08T13:56:14Z</time>
      </trkpt>
      <trkpt lat="47.0788" lon="6.04676">
        <ele>444.2</ele>
        <time>2026-07-08T13:56:15Z</time>
      </trkpt>
      <trkpt lat="47.07878" lon="6.04674">
        <ele>444.4</ele>
        <time>2026-07-08T13:56:16Z</time>
      </trkpt>
      <trkpt lat="47.07876" lon="6.04673">
        <ele>444.6</ele>
        <time>2026-07-08T13:56:17Z</time>
      </trkpt>
      <trkpt lat="47.07874" lon="6.04671">
        <ele>445</ele>
        <time>2026-07-08T13:56:18Z</time>
      </trkpt>
      <trkpt lat="47.0787" lon="6.04668">
        <ele>445</ele>
        <time>2026-07-08T13:56:19Z</time>
      </trkpt>
      <trkpt lat="47.0787" lon="6.04668">
        <ele>445.2</ele>
        <time>2026-07-08T13:56:20Z</time>
      </trkpt>
      <trkpt lat="47.07868" lon="6.04666">
        <ele>445.4</ele>
        <time>2026-07-08T13:56:21Z</time>
      </trkpt>
      <trkpt lat="47.07866" lon="6.04665">
        <ele>445.4</ele>
        <time>2026-07-08T13:56:22Z</time>
      </trkpt>
      <trkpt lat="47.07864" lon="6.04663">
        <ele>445.6</ele>
        <time>2026-07-08T13:56:23Z</time>
      </trkpt>
      <trkpt lat="47.07863" lon="6.04661">
        <ele>445.8</ele>
        <time>2026-07-08T13:56:24Z</time>
      </trkpt>
      <trkpt lat="47.07859" lon="6.04658">
        <ele>446</ele>
        <time>2026-07-08T13:56:25Z</time>
      </trkpt>
      <trkpt lat="47.07859" lon="6.04658">
        <ele>446.2</ele>
        <time>2026-07-08T13:56:26Z</time>
      </trkpt>
      <trkpt lat="47.07857" lon="6.04656">
        <ele>446.2</ele>
        <time>2026-07-08T13:56:27Z</time>
      </trkpt>
      <trkpt lat="47.07853" lon="6.04653">
        <ele>446.4</ele>
        <time>2026-07-08T13:56:28Z</time>
      </trkpt>
      <trkpt lat="47.07851" lon="6.04651">
        <ele>446.6</ele>
        <time>2026-07-08T13:56:29Z</time>
      </trkpt>
      <trkpt lat="47.07849" lon="6.04649">
        <ele>446.8</ele>
        <time>2026-07-08T13:56:30Z</time>
      </trkpt>
      <trkpt lat="47.07846" lon="6.04646">
        <ele>447</ele>
        <time>2026-07-08T13:56:31Z</time>
      </trkpt>
      <trkpt lat="47.07844" lon="6.04644">
        <ele>447.2</ele>
        <time>2026-07-08T13:56:32Z</time>
      </trkpt>
      <trkpt lat="47.07844" lon="6.04644">
        <ele>447.2</ele>
        <time>2026-07-08T13:56:33Z</time>
      </trkpt>
      <trkpt lat="47.07843" lon="6.04642">
        <ele>447.2</ele>
        <time>2026-07-08T13:56:34Z</time>
      </trkpt>
      <trkpt lat="47.0784" lon="6.04638">
        <ele>447.8</ele>
        <time>2026-07-08T13:56:35Z</time>
      </trkpt>
      <trkpt lat="47.07838" lon="6.04636">
        <ele>448</ele>
        <time>2026-07-08T13:56:36Z</time>
      </trkpt>
      <trkpt lat="47.07836" lon="6.04634">
        <ele>448</ele>
        <time>2026-07-08T13:56:37Z</time>
      </trkpt>
      <trkpt lat="47.07834" lon="6.04632">
        <ele>448.2</ele>
        <time>2026-07-08T13:56:38Z</time>
      </trkpt>
      <trkpt lat="47.07834" lon="6.04632">
        <ele>448.2</ele>
        <time>2026-07-08T13:56:39Z</time>
      </trkpt>
      <trkpt lat="47.07832" lon="6.04631">
        <ele>448.6</ele>
        <time>2026-07-08T13:56:40Z</time>
      </trkpt>
      <trkpt lat="47.07828" lon="6.04627">
        <ele>448.6</ele>
        <time>2026-07-08T13:56:41Z</time>
      </trkpt>
      <trkpt lat="47.07826" lon="6.04624">
        <ele>448.8</ele>
        <time>2026-07-08T13:56:42Z</time>
      </trkpt>
      <trkpt lat="47.07824" lon="6.04622">
        <ele>449</ele>
        <time>2026-07-08T13:56:43Z</time>
      </trkpt>
      <trkpt lat="47.07824" lon="6.04622">
        <ele>449.2</ele>
        <time>2026-07-08T13:56:44Z</time>
      </trkpt>
      <trkpt lat="47.07822" lon="6.0462">
        <ele>449.4</ele>
        <time>2026-07-08T13:56:45Z</time>
      </trkpt>
      <trkpt lat="47.07819" lon="6.04616">
        <ele>449.6</ele>
        <time>2026-07-08T13:56:46Z</time>
      </trkpt>
      <trkpt lat="47.07819" lon="6.04616">
        <ele>449.8</ele>
        <time>2026-07-08T13:56:47Z</time>
      </trkpt>
      <trkpt lat="47.07817" lon="6.04614">
        <ele>449.8</ele>
        <time>2026-07-08T13:56:48Z</time>
      </trkpt>
      <trkpt lat="47.07813" lon="6.04611">
        <ele>450</ele>
        <time>2026-07-08T13:56:49Z</time>
      </trkpt>
      <trkpt lat="47.07812" lon="6.0461">
        <ele>450</ele>
        <time>2026-07-08T13:56:50Z</time>
      </trkpt>
      <trkpt lat="47.07812" lon="6.0461">
        <ele>450</ele>
        <time>2026-07-08T13:56:51Z</time>
      </trkpt>
      <trkpt lat="47.07807" lon="6.04607">
        <ele>450.2</ele>
        <time>2026-07-08T13:56:52Z</time>
      </trkpt>
      <trkpt lat="47.07805" lon="6.04605">
        <ele>450.2</ele>
        <time>2026-07-08T13:56:53Z</time>
      </trkpt>
      <trkpt lat="47.07803" lon="6.04603">
        <ele>450.6</ele>
        <time>2026-07-08T13:56:54Z</time>
      </trkpt>
      <trkpt lat="47.07801" lon="6.04601">
        <ele>450.8</ele>
        <time>2026-07-08T13:56:55Z</time>
      </trkpt>
      <trkpt lat="47.07801" lon="6.04601">
        <ele>451</ele>
        <time>2026-07-08T13:56:56Z</time>
      </trkpt>
      <trkpt lat="47.078" lon="6.04599">
        <ele>451.2</ele>
        <time>2026-07-08T13:56:57Z</time>
      </trkpt>
      <trkpt lat="47.07796" lon="6.04596">
        <ele>451.2</ele>
        <time>2026-07-08T13:56:58Z</time>
      </trkpt>
      <trkpt lat="47.07796" lon="6.04596">
        <ele>451.2</ele>
        <time>2026-07-08T13:56:59Z</time>
      </trkpt>
      <trkpt lat="47.07794" lon="6.04594">
        <ele>451.2</ele>
        <time>2026-07-08T13:57:00Z</time>
      </trkpt>
      <trkpt lat="47.07789" lon="6.0459">
        <ele>451.6</ele>
        <time>2026-07-08T13:57:01Z</time>
      </trkpt>
      <trkpt lat="47.07789" lon="6.0459">
        <ele>451.6</ele>
        <time>2026-07-08T13:57:02Z</time>
      </trkpt>
      <trkpt lat="47.07787" lon="6.04588">
        <ele>451.8</ele>
        <time>2026-07-08T13:57:03Z</time>
      </trkpt>
      <trkpt lat="47.07785" lon="6.04586">
        <ele>452</ele>
        <time>2026-07-08T13:57:04Z</time>
      </trkpt>
      <trkpt lat="47.07783" lon="6.04584">
        <ele>452</ele>
        <time>2026-07-08T13:57:05Z</time>
      </trkpt>
      <trkpt lat="47.07781" lon="6.04582">
        <ele>452.2</ele>
        <time>2026-07-08T13:57:06Z</time>
      </trkpt>
      <trkpt lat="47.07779" lon="6.0458">
        <ele>452.2</ele>
        <time>2026-07-08T13:57:07Z</time>
      </trkpt>
      <trkpt lat="47.07776" lon="6.04578">
        <ele>452.4</ele>
        <time>2026-07-08T13:57:08Z</time>
      </trkpt>
      <trkpt lat="47.07775" lon="6.04576">
        <ele>452.6</ele>
        <time>2026-07-08T13:57:09Z</time>
      </trkpt>
      <trkpt lat="47.07775" lon="6.04576">
        <ele>452.6</ele>
        <time>2026-07-08T13:57:10Z</time>
      </trkpt>
      <trkpt lat="47.07771" lon="6.04573">
        <ele>452.8</ele>
        <time>2026-07-08T13:57:11Z</time>
      </trkpt>
      <trkpt lat="47.07771" lon="6.04573">
        <ele>452.8</ele>
        <time>2026-07-08T13:57:12Z</time>
      </trkpt>
      <trkpt lat="47.07768" lon="6.0457">
        <ele>453</ele>
        <time>2026-07-08T13:57:13Z</time>
      </trkpt>
      <trkpt lat="47.07768" lon="6.0457">
        <ele>453</ele>
        <time>2026-07-08T13:57:14Z</time>
      </trkpt>
      <trkpt lat="47.07765" lon="6.04568">
        <ele>453.4</ele>
        <time>2026-07-08T13:57:15Z</time>
      </trkpt>
      <trkpt lat="47.07761" lon="6.04565">
        <ele>453.8</ele>
        <time>2026-07-08T13:57:16Z</time>
      </trkpt>
      <trkpt lat="47.07759" lon="6.04563">
        <ele>453.8</ele>
        <time>2026-07-08T13:57:17Z</time>
      </trkpt>
      <trkpt lat="47.07759" lon="6.04563">
        <ele>454</ele>
        <time>2026-07-08T13:57:18Z</time>
      </trkpt>
      <trkpt lat="47.07757" lon="6.04562">
        <ele>454</ele>
        <time>2026-07-08T13:57:19Z</time>
      </trkpt>
      <trkpt lat="47.07755" lon="6.0456">
        <ele>454.2</ele>
        <time>2026-07-08T13:57:20Z</time>
      </trkpt>
      <trkpt lat="47.07753" lon="6.04559">
        <ele>454.4</ele>
        <time>2026-07-08T13:57:21Z</time>
      </trkpt>
      <trkpt lat="47.07749" lon="6.04555">
        <ele>454.2</ele>
        <time>2026-07-08T13:57:22Z</time>
      </trkpt>
      <trkpt lat="47.07747" lon="6.04553">
        <ele>454.4</ele>
        <time>2026-07-08T13:57:23Z</time>
      </trkpt>
      <trkpt lat="47.07747" lon="6.04553">
        <ele>454.8</ele>
        <time>2026-07-08T13:57:24Z</time>
      </trkpt>
      <trkpt lat="47.07744" lon="6.0455">
        <ele>454.8</ele>
        <time>2026-07-08T13:57:25Z</time>
      </trkpt>
      <trkpt lat="47.07744" lon="6.0455">
        <ele>455</ele>
        <time>2026-07-08T13:57:26Z</time>
      </trkpt>
      <trkpt lat="47.07742" lon="6.04549">
        <ele>455.2</ele>
        <time>2026-07-08T13:57:27Z</time>
      </trkpt>
      <trkpt lat="47.0774" lon="6.04547">
        <ele>455.2</ele>
        <time>2026-07-08T13:57:28Z</time>
      </trkpt>
      <trkpt lat="47.07738" lon="6.04546">
        <ele>455.4</ele>
        <time>2026-07-08T13:57:29Z</time>
      </trkpt>
      <trkpt lat="47.07736" lon="6.04544">
        <ele>455.4</ele>
        <time>2026-07-08T13:57:30Z</time>
      </trkpt>
      <trkpt lat="47.07733" lon="6.0454">
        <ele>455.6</ele>
        <time>2026-07-08T13:57:31Z</time>
      </trkpt>
      <trkpt lat="47.07733" lon="6.0454">
        <ele>455.8</ele>
        <time>2026-07-08T13:57:32Z</time>
      </trkpt>
      <trkpt lat="47.07732" lon="6.04539">
        <ele>456</ele>
        <time>2026-07-08T13:57:33Z</time>
      </trkpt>
      <trkpt lat="47.0773" lon="6.04537">
        <ele>456.2</ele>
        <time>2026-07-08T13:57:34Z</time>
      </trkpt>
      <trkpt lat="47.07728" lon="6.04535">
        <ele>456.2</ele>
        <time>2026-07-08T13:57:35Z</time>
      </trkpt>
      <trkpt lat="47.07726" lon="6.04533">
        <ele>456.4</ele>
        <time>2026-07-08T13:57:36Z</time>
      </trkpt>
      <trkpt lat="47.07723" lon="6.0453">
        <ele>456.8</ele>
        <time>2026-07-08T13:57:37Z</time>
      </trkpt>
      <trkpt lat="47.07723" lon="6.0453">
        <ele>457</ele>
        <time>2026-07-08T13:57:38Z</time>
      </trkpt>
      <trkpt lat="47.07721" lon="6.04528">
        <ele>456.8</ele>
        <time>2026-07-08T13:57:39Z</time>
      </trkpt>
      <trkpt lat="47.07718" lon="6.04525">
        <ele>457</ele>
        <time>2026-07-08T13:57:40Z</time>
      </trkpt>
      <trkpt lat="47.07718" lon="6.04525">
        <ele>457.2</ele>
        <time>2026-07-08T13:57:41Z</time>
      </trkpt>
      <trkpt lat="47.07715" lon="6.04523">
        <ele>457.4</ele>
        <time>2026-07-08T13:57:42Z</time>
      </trkpt>
      <trkpt lat="47.07714" lon="6.04521">
        <ele>457.6</ele>
        <time>2026-07-08T13:57:43Z</time>
      </trkpt>
      <trkpt lat="47.0771" lon="6.04517">
        <ele>457.6</ele>
        <time>2026-07-08T13:57:44Z</time>
      </trkpt>
      <trkpt lat="47.0771" lon="6.04517">
        <ele>458</ele>
        <time>2026-07-08T13:57:45Z</time>
      </trkpt>
      <trkpt lat="47.07707" lon="6.04513">
        <ele>458</ele>
        <time>2026-07-08T13:57:46Z</time>
      </trkpt>
      <trkpt lat="47.07707" lon="6.04513">
        <ele>458.4</ele>
        <time>2026-07-08T13:57:47Z</time>
      </trkpt>
      <trkpt lat="47.07705" lon="6.0451">
        <ele>458.4</ele>
        <time>2026-07-08T13:57:48Z</time>
      </trkpt>
      <trkpt lat="47.07703" lon="6.04505">
        <ele>458.6</ele>
        <time>2026-07-08T13:57:49Z</time>
      </trkpt>
      <trkpt lat="47.07703" lon="6.04505">
        <ele>458.6</ele>
        <time>2026-07-08T13:57:50Z</time>
      </trkpt>
      <trkpt lat="47.07702" lon="6.04503">
        <ele>458.8</ele>
        <time>2026-07-08T13:57:51Z</time>
      </trkpt>
      <trkpt lat="47.07701" lon="6.04501">
        <ele>458.8</ele>
        <time>2026-07-08T13:57:52Z</time>
      </trkpt>
      <trkpt lat="47.077" lon="6.04498">
        <ele>459</ele>
        <time>2026-07-08T13:57:53Z</time>
      </trkpt>
      <trkpt lat="47.07698" lon="6.04496">
        <ele>459.2</ele>
        <time>2026-07-08T13:57:54Z</time>
      </trkpt>
      <trkpt lat="47.07696" lon="6.04491">
        <ele>459.4</ele>
        <time>2026-07-08T13:57:55Z</time>
      </trkpt>
      <trkpt lat="47.07695" lon="6.04489">
        <ele>459.6</ele>
        <time>2026-07-08T13:57:56Z</time>
      </trkpt>
      <trkpt lat="47.07695" lon="6.04489">
        <ele>459.6</ele>
        <time>2026-07-08T13:57:57Z</time>
      </trkpt>
      <trkpt lat="47.07694" lon="6.04487">
        <ele>459.8</ele>
        <time>2026-07-08T13:57:58Z</time>
      </trkpt>
      <trkpt lat="47.07693" lon="6.04484">
        <ele>459.8</ele>
        <time>2026-07-08T13:57:59Z</time>
      </trkpt>
      <trkpt lat="47.07692" lon="6.04482">
        <ele>459.8</ele>
        <time>2026-07-08T13:58:00Z</time>
      </trkpt>
      <trkpt lat="47.07691" lon="6.04479">
        <ele>460</ele>
        <time>2026-07-08T13:58:01Z</time>
      </trkpt>
      <trkpt lat="47.0769" lon="6.04474">
        <ele>460.2</ele>
        <time>2026-07-08T13:58:02Z</time>
      </trkpt>
      <trkpt lat="47.0769" lon="6.04474">
        <ele>460.2</ele>
        <time>2026-07-08T13:58:03Z</time>
      </trkpt>
      <trkpt lat="47.07689" lon="6.04471">
        <ele>460.4</ele>
        <time>2026-07-08T13:58:04Z</time>
      </trkpt>
      <trkpt lat="47.07688" lon="6.04468">
        <ele>460.6</ele>
        <time>2026-07-08T13:58:05Z</time>
      </trkpt>
      <trkpt lat="47.07687" lon="6.04465">
        <ele>460.6</ele>
        <time>2026-07-08T13:58:06Z</time>
      </trkpt>
      <trkpt lat="47.07686" lon="6.04462">
        <ele>460.8</ele>
        <time>2026-07-08T13:58:07Z</time>
      </trkpt>
      <trkpt lat="47.07685" lon="6.04459">
        <ele>460.8</ele>
        <time>2026-07-08T13:58:08Z</time>
      </trkpt>
      <trkpt lat="47.07684" lon="6.04456">
        <ele>460.8</ele>
        <time>2026-07-08T13:58:09Z</time>
      </trkpt>
      <trkpt lat="47.07683" lon="6.04453">
        <ele>460.8</ele>
        <time>2026-07-08T13:58:10Z</time>
      </trkpt>
      <trkpt lat="47.07682" lon="6.0445">
        <ele>461</ele>
        <time>2026-07-08T13:58:11Z</time>
      </trkpt>
      <trkpt lat="47.07681" lon="6.04444">
        <ele>461.2</ele>
        <time>2026-07-08T13:58:12Z</time>
      </trkpt>
      <trkpt lat="47.07679" lon="6.04441">
        <ele>461.4</ele>
        <time>2026-07-08T13:58:13Z</time>
      </trkpt>
      <trkpt lat="47.07678" lon="6.04438">
        <ele>461.4</ele>
        <time>2026-07-08T13:58:14Z</time>
      </trkpt>
      <trkpt lat="47.07678" lon="6.04438">
        <ele>461.6</ele>
        <time>2026-07-08T13:58:15Z</time>
      </trkpt>
      <trkpt lat="47.07676" lon="6.04432">
        <ele>461.8</ele>
        <time>2026-07-08T13:58:16Z</time>
      </trkpt>
      <trkpt lat="47.07675" lon="6.04429">
        <ele>462</ele>
        <time>2026-07-08T13:58:17Z</time>
      </trkpt>
      <trkpt lat="47.07674" lon="6.04426">
        <ele>462.2</ele>
        <time>2026-07-08T13:58:18Z</time>
      </trkpt>
      <trkpt lat="47.07674" lon="6.04426">
        <ele>462.4</ele>
        <time>2026-07-08T13:58:19Z</time>
      </trkpt>
      <trkpt lat="47.07673" lon="6.04421">
        <ele>462.4</ele>
        <time>2026-07-08T13:58:20Z</time>
      </trkpt>
      <trkpt lat="47.07672" lon="6.04418">
        <ele>462.4</ele>
        <time>2026-07-08T13:58:21Z</time>
      </trkpt>
      <trkpt lat="47.07671" lon="6.04415">
        <ele>462.6</ele>
        <time>2026-07-08T13:58:22Z</time>
      </trkpt>
      <trkpt lat="47.07671" lon="6.04413">
        <ele>462.6</ele>
        <time>2026-07-08T13:58:23Z</time>
      </trkpt>
      <trkpt lat="47.0767" lon="6.0441">
        <ele>462.8</ele>
        <time>2026-07-08T13:58:24Z</time>
      </trkpt>
      <trkpt lat="47.07669" lon="6.04408">
        <ele>463</ele>
        <time>2026-07-08T13:58:25Z</time>
      </trkpt>
      <trkpt lat="47.07669" lon="6.04405">
        <ele>463</ele>
        <time>2026-07-08T13:58:26Z</time>
      </trkpt>
      <trkpt lat="47.07668" lon="6.04402">
        <ele>463.2</ele>
        <time>2026-07-08T13:58:27Z</time>
      </trkpt>
      <trkpt lat="47.07667" lon="6.04399">
        <ele>463.2</ele>
        <time>2026-07-08T13:58:28Z</time>
      </trkpt>
      <trkpt lat="47.07665" lon="6.04397">
        <ele>463.4</ele>
        <time>2026-07-08T13:58:29Z</time>
      </trkpt>
      <trkpt lat="47.07664" lon="6.04394">
        <ele>463.4</ele>
        <time>2026-07-08T13:58:30Z</time>
      </trkpt>
      <trkpt lat="47.07663" lon="6.04391">
        <ele>463.6</ele>
        <time>2026-07-08T13:58:31Z</time>
      </trkpt>
      <trkpt lat="47.07662" lon="6.04387">
        <ele>464</ele>
        <time>2026-07-08T13:58:32Z</time>
      </trkpt>
      <trkpt lat="47.0766" lon="6.04384">
        <ele>464.2</ele>
        <time>2026-07-08T13:58:33Z</time>
      </trkpt>
      <trkpt lat="47.0766" lon="6.04384">
        <ele>464.4</ele>
        <time>2026-07-08T13:58:34Z</time>
      </trkpt>
      <trkpt lat="47.07659" lon="6.04381">
        <ele>464.6</ele>
        <time>2026-07-08T13:58:35Z</time>
      </trkpt>
      <trkpt lat="47.07657" lon="6.04378">
        <ele>464.8</ele>
        <time>2026-07-08T13:58:36Z</time>
      </trkpt>
      <trkpt lat="47.07655" lon="6.04375">
        <ele>464.8</ele>
        <time>2026-07-08T13:58:37Z</time>
      </trkpt>
      <trkpt lat="47.07654" lon="6.04372">
        <ele>465</ele>
        <time>2026-07-08T13:58:38Z</time>
      </trkpt>
      <trkpt lat="47.07653" lon="6.0437">
        <ele>465</ele>
        <time>2026-07-08T13:58:39Z</time>
      </trkpt>
      <trkpt lat="47.07652" lon="6.04369">
        <ele>465</ele>
        <time>2026-07-08T13:58:40Z</time>
      </trkpt>
      <trkpt lat="47.07651" lon="6.04367">
        <ele>465.2</ele>
        <time>2026-07-08T13:58:41Z</time>
      </trkpt>
      <trkpt lat="47.07648" lon="6.04363">
        <ele>465.2</ele>
        <time>2026-07-08T13:58:42Z</time>
      </trkpt>
      <trkpt lat="47.07648" lon="6.04363">
        <ele>465.2</ele>
        <time>2026-07-08T13:58:43Z</time>
      </trkpt>
      <trkpt lat="47.07645" lon="6.04359">
        <ele>465.4</ele>
        <time>2026-07-08T13:58:44Z</time>
      </trkpt>
      <trkpt lat="47.07645" lon="6.04359">
        <ele>465.6</ele>
        <time>2026-07-08T13:58:45Z</time>
      </trkpt>
      <trkpt lat="47.07643" lon="6.04357">
        <ele>465.8</ele>
        <time>2026-07-08T13:58:46Z</time>
      </trkpt>
      <trkpt lat="47.07642" lon="6.04355">
        <ele>465.8</ele>
        <time>2026-07-08T13:58:47Z</time>
      </trkpt>
      <trkpt lat="47.0764" lon="6.04354">
        <ele>466</ele>
        <time>2026-07-08T13:58:48Z</time>
      </trkpt>
      <trkpt lat="47.07638" lon="6.04352">
        <ele>466</ele>
        <time>2026-07-08T13:58:49Z</time>
      </trkpt>
      <trkpt lat="47.07638" lon="6.04352">
        <ele>466.2</ele>
        <time>2026-07-08T13:58:50Z</time>
      </trkpt>
      <trkpt lat="47.07638" lon="6.04351">
        <ele>466.4</ele>
        <time>2026-07-08T13:58:51Z</time>
      </trkpt>
      <trkpt lat="47.07638" lon="6.04352">
        <ele>466.6</ele>
        <time>2026-07-08T13:58:52Z</time>
      </trkpt>
      <trkpt lat="47.07638" lon="6.04352">
        <ele>466.6</ele>
        <time>2026-07-08T13:58:53Z</time>
      </trkpt>
      <trkpt lat="47.07638" lon="6.04352">
        <ele>466.8</ele>
        <time>2026-07-08T13:58:54Z</time>
      </trkpt>
      <trkpt lat="47.07638" lon="6.04352">
        <ele>466.8</ele>
        <time>2026-07-08T13:58:55Z</time>
      </trkpt>
      <trkpt lat="47.07638" lon="6.04352">
        <ele>466.8</ele>
        <time>2026-07-08T13:58:56Z</time>
      </trkpt>
      <trkpt lat="47.07638" lon="6.04352">
        <ele>466.8</ele>
        <time>2026-07-08T13:58:57Z</time>
      </trkpt>
      <trkpt lat="47.07623" lon="6.04352">
        <ele>467.6</ele>
        <time>2026-07-08T13:59:22Z</time>
      </trkpt>
      <trkpt lat="47.07623" lon="6.04352">
        <ele>467.6</ele>
        <time>2026-07-08T13:59:23Z</time>
      </trkpt>
      <trkpt lat="47.07621" lon="6.04353">
        <ele>467.6</ele>
        <time>2026-07-08T13:59:24Z</time>
      </trkpt>
      <trkpt lat="47.0762" lon="6.04354">
        <ele>467.6</ele>
        <time>2026-07-08T13:59:25Z</time>
      </trkpt>
      <trkpt lat="47.07618" lon="6.04354">
        <ele>467.6</ele>
        <time>2026-07-08T13:59:26Z</time>
      </trkpt>
      <trkpt lat="47.07617" lon="6.04354">
        <ele>467.6</ele>
        <time>2026-07-08T13:59:27Z</time>
      </trkpt>
      <trkpt lat="47.07615" lon="6.04354">
        <ele>467.6</ele>
        <time>2026-07-08T13:59:28Z</time>
      </trkpt>
      <trkpt lat="47.07613" lon="6.04353">
        <ele>467.8</ele>
        <time>2026-07-08T13:59:29Z</time>
      </trkpt>
      <trkpt lat="47.07613" lon="6.04353">
        <ele>468</ele>
        <time>2026-07-08T13:59:30Z</time>
      </trkpt>
      <trkpt lat="47.07611" lon="6.04351">
        <ele>468.2</ele>
        <time>2026-07-08T13:59:31Z</time>
      </trkpt>
      <trkpt lat="47.0761" lon="6.0435">
        <ele>468.2</ele>
        <time>2026-07-08T13:59:32Z</time>
      </trkpt>
      <trkpt lat="47.07608" lon="6.0435">
        <ele>468.4</ele>
        <time>2026-07-08T13:59:33Z</time>
      </trkpt>
      <trkpt lat="47.07607" lon="6.04349">
        <ele>468.6</ele>
        <time>2026-07-08T13:59:34Z</time>
      </trkpt>
      <trkpt lat="47.07607" lon="6.04349">
        <ele>468.6</ele>
        <time>2026-07-08T13:59:35Z</time>
      </trkpt>
      <trkpt lat="47.07604" lon="6.04352">
        <ele>468.8</ele>
        <time>2026-07-08T13:59:36Z</time>
      </trkpt>
      <trkpt lat="47.07602" lon="6.04353">
        <ele>468.8</ele>
        <time>2026-07-08T13:59:37Z</time>
      </trkpt>
      <trkpt lat="47.076" lon="6.04354">
        <ele>469</ele>
        <time>2026-07-08T13:59:38Z</time>
      </trkpt>
      <trkpt lat="47.076" lon="6.04354">
        <ele>469</ele>
        <time>2026-07-08T13:59:39Z</time>
      </trkpt>
      <trkpt lat="47.07593" lon="6.04357">
        <ele>469.4</ele>
        <time>2026-07-08T13:59:40Z</time>
      </trkpt>
      <trkpt lat="47.0759" lon="6.04359">
        <ele>469.4</ele>
        <time>2026-07-08T13:59:41Z</time>
      </trkpt>
      <trkpt lat="47.0759" lon="6.04359">
        <ele>469.4</ele>
        <time>2026-07-08T13:59:42Z</time>
      </trkpt>
      <trkpt lat="47.07586" lon="6.0436">
        <ele>469.6</ele>
        <time>2026-07-08T13:59:43Z</time>
      </trkpt>
      <trkpt lat="47.07583" lon="6.04361">
        <ele>469.6</ele>
        <time>2026-07-08T13:59:44Z</time>
      </trkpt>
      <trkpt lat="47.07577" lon="6.04363">
        <ele>469.6</ele>
        <time>2026-07-08T13:59:45Z</time>
      </trkpt>
      <trkpt lat="47.07577" lon="6.04363">
        <ele>469.8</ele>
        <time>2026-07-08T13:59:46Z</time>
      </trkpt>
      <trkpt lat="47.07572" lon="6.04364">
        <ele>469.8</ele>
        <time>2026-07-08T13:59:47Z</time>
      </trkpt>
      <trkpt lat="47.0757" lon="6.04364">
        <ele>469.8</ele>
        <time>2026-07-08T13:59:48Z</time>
      </trkpt>
      <trkpt lat="47.0757" lon="6.04364">
        <ele>469.8</ele>
        <time>2026-07-08T13:59:49Z</time>
      </trkpt>
      <trkpt lat="47.07564" lon="6.04364">
        <ele>469.8</ele>
        <time>2026-07-08T13:59:50Z</time>
      </trkpt>
      <trkpt lat="47.07564" lon="6.04364">
        <ele>470</ele>
        <time>2026-07-08T13:59:51Z</time>
      </trkpt>
      <trkpt lat="47.0756" lon="6.04365">
        <ele>470</ele>
        <time>2026-07-08T13:59:52Z</time>
      </trkpt>
      <trkpt lat="47.07558" lon="6.04366">
        <ele>470.2</ele>
        <time>2026-07-08T13:59:53Z</time>
      </trkpt>
      <trkpt lat="47.07556" lon="6.04367">
        <ele>470</ele>
        <time>2026-07-08T13:59:54Z</time>
      </trkpt>
      <trkpt lat="47.07555" lon="6.04368">
        <ele>470.2</ele>
        <time>2026-07-08T13:59:55Z</time>
      </trkpt>
      <trkpt lat="47.07554" lon="6.04369">
        <ele>470.4</ele>
        <time>2026-07-08T13:59:56Z</time>
      </trkpt>
      <trkpt lat="47.07554" lon="6.04369">
        <ele>470.4</ele>
        <time>2026-07-08T13:59:57Z</time>
      </trkpt>
      <trkpt lat="47.0755" lon="6.04369">
        <ele>470.8</ele>
        <time>2026-07-08T13:59:58Z</time>
      </trkpt>
      <trkpt lat="47.0755" lon="6.04369">
        <ele>470.8</ele>
        <time>2026-07-08T13:59:59Z</time>
      </trkpt>
      <trkpt lat="47.07549" lon="6.0437">
        <ele>471</ele>
        <time>2026-07-08T14:00:00Z</time>
      </trkpt>
      <trkpt lat="47.07545" lon="6.04371">
        <ele>471</ele>
        <time>2026-07-08T14:00:01Z</time>
      </trkpt>
      <trkpt lat="47.07545" lon="6.04371">
        <ele>471.4</ele>
        <time>2026-07-08T14:00:02Z</time>
      </trkpt>
      <trkpt lat="47.07543" lon="6.04371">
        <ele>471.8</ele>
        <time>2026-07-08T14:00:03Z</time>
      </trkpt>
      <trkpt lat="47.07539" lon="6.0437">
        <ele>472</ele>
        <time>2026-07-08T14:00:04Z</time>
      </trkpt>
      <trkpt lat="47.07539" lon="6.0437">
        <ele>472.4</ele>
        <time>2026-07-08T14:00:05Z</time>
      </trkpt>
      <trkpt lat="47.07538" lon="6.0437">
        <ele>472.6</ele>
        <time>2026-07-08T14:00:06Z</time>
      </trkpt>
      <trkpt lat="47.07535" lon="6.04371">
        <ele>472.6</ele>
        <time>2026-07-08T14:00:07Z</time>
      </trkpt>
      <trkpt lat="47.07535" lon="6.04371">
        <ele>473</ele>
        <time>2026-07-08T14:00:08Z</time>
      </trkpt>
      <trkpt lat="47.07532" lon="6.04372">
        <ele>473</ele>
        <time>2026-07-08T14:00:09Z</time>
      </trkpt>
      <trkpt lat="47.07532" lon="6.04372">
        <ele>473.2</ele>
        <time>2026-07-08T14:00:10Z</time>
      </trkpt>
      <trkpt lat="47.07528" lon="6.04371">
        <ele>473.2</ele>
        <time>2026-07-08T14:00:11Z</time>
      </trkpt>
      <trkpt lat="47.07528" lon="6.04371">
        <ele>473.4</ele>
        <time>2026-07-08T14:00:12Z</time>
      </trkpt>
      <trkpt lat="47.07524" lon="6.04369">
        <ele>473.6</ele>
        <time>2026-07-08T14:00:13Z</time>
      </trkpt>
      <trkpt lat="47.07524" lon="6.04369">
        <ele>473.8</ele>
        <time>2026-07-08T14:00:14Z</time>
      </trkpt>
      <trkpt lat="47.07521" lon="6.04367">
        <ele>473.8</ele>
        <time>2026-07-08T14:00:15Z</time>
      </trkpt>
      <trkpt lat="47.07519" lon="6.04367">
        <ele>474.2</ele>
        <time>2026-07-08T14:00:16Z</time>
      </trkpt>
      <trkpt lat="47.07519" lon="6.04367">
        <ele>474.4</ele>
        <time>2026-07-08T14:00:17Z</time>
      </trkpt>
      <trkpt lat="47.07518" lon="6.04366">
        <ele>474.6</ele>
        <time>2026-07-08T14:00:18Z</time>
      </trkpt>
      <trkpt lat="47.07516" lon="6.04363">
        <ele>474.8</ele>
        <time>2026-07-08T14:00:19Z</time>
      </trkpt>
      <trkpt lat="47.07516" lon="6.04363">
        <ele>474.8</ele>
        <time>2026-07-08T14:00:20Z</time>
      </trkpt>
      <trkpt lat="47.07514" lon="6.04362">
        <ele>475</ele>
        <time>2026-07-08T14:00:21Z</time>
      </trkpt>
      <trkpt lat="47.07514" lon="6.04361">
        <ele>475.4</ele>
        <time>2026-07-08T14:00:22Z</time>
      </trkpt>
      <trkpt lat="47.07512" lon="6.0436">
        <ele>475.6</ele>
        <time>2026-07-08T14:00:23Z</time>
      </trkpt>
      <trkpt lat="47.0751" lon="6.04356">
        <ele>475.6</ele>
        <time>2026-07-08T14:00:24Z</time>
      </trkpt>
      <trkpt lat="47.0751" lon="6.04356">
        <ele>476</ele>
        <time>2026-07-08T14:00:25Z</time>
      </trkpt>
      <trkpt lat="47.07508" lon="6.04353">
        <ele>476.2</ele>
        <time>2026-07-08T14:00:26Z</time>
      </trkpt>
      <trkpt lat="47.07508" lon="6.04353">
        <ele>476.4</ele>
        <time>2026-07-08T14:00:27Z</time>
      </trkpt>
      <trkpt lat="47.07507" lon="6.04352">
        <ele>476.6</ele>
        <time>2026-07-08T14:00:28Z</time>
      </trkpt>
      <trkpt lat="47.07505" lon="6.04349">
        <ele>477</ele>
        <time>2026-07-08T14:00:29Z</time>
      </trkpt>
      <trkpt lat="47.07505" lon="6.04349">
        <ele>477.2</ele>
        <time>2026-07-08T14:00:30Z</time>
      </trkpt>
      <trkpt lat="47.07504" lon="6.04348">
        <ele>477.2</ele>
        <time>2026-07-08T14:00:31Z</time>
      </trkpt>
      <trkpt lat="47.07503" lon="6.04347">
        <ele>477.4</ele>
        <time>2026-07-08T14:00:32Z</time>
      </trkpt>
      <trkpt lat="47.07501" lon="6.04346">
        <ele>477.6</ele>
        <time>2026-07-08T14:00:33Z</time>
      </trkpt>
      <trkpt lat="47.075" lon="6.04345">
        <ele>477.8</ele>
        <time>2026-07-08T14:00:34Z</time>
      </trkpt>
      <trkpt lat="47.07498" lon="6.04345">
        <ele>478</ele>
        <time>2026-07-08T14:00:35Z</time>
      </trkpt>
      <trkpt lat="47.07497" lon="6.04345">
        <ele>478.2</ele>
        <time>2026-07-08T14:00:36Z</time>
      </trkpt>
      <trkpt lat="47.07496" lon="6.04344">
        <ele>478.4</ele>
        <time>2026-07-08T14:00:37Z</time>
      </trkpt>
      <trkpt lat="47.07495" lon="6.04344">
        <ele>478.4</ele>
        <time>2026-07-08T14:00:38Z</time>
      </trkpt>
      <trkpt lat="47.07493" lon="6.04342">
        <ele>478.4</ele>
        <time>2026-07-08T14:00:39Z</time>
      </trkpt>
      <trkpt lat="47.07491" lon="6.04341">
        <ele>478.6</ele>
        <time>2026-07-08T14:00:40Z</time>
      </trkpt>
      <trkpt lat="47.07489" lon="6.0434">
        <ele>478.6</ele>
        <time>2026-07-08T14:00:41Z</time>
      </trkpt>
      <trkpt lat="47.07487" lon="6.04339">
        <ele>478.8</ele>
        <time>2026-07-08T14:00:42Z</time>
      </trkpt>
      <trkpt lat="47.07486" lon="6.04338">
        <ele>478.8</ele>
        <time>2026-07-08T14:00:43Z</time>
      </trkpt>
      <trkpt lat="47.07485" lon="6.04336">
        <ele>479</ele>
        <time>2026-07-08T14:00:44Z</time>
      </trkpt>
      <trkpt lat="47.07483" lon="6.04336">
        <ele>479</ele>
        <time>2026-07-08T14:00:45Z</time>
      </trkpt>
      <trkpt lat="47.07482" lon="6.04335">
        <ele>479.2</ele>
        <time>2026-07-08T14:00:46Z</time>
      </trkpt>
      <trkpt lat="47.07481" lon="6.04335">
        <ele>479.4</ele>
        <time>2026-07-08T14:00:47Z</time>
      </trkpt>
      <trkpt lat="47.07479" lon="6.04334">
        <ele>479.6</ele>
        <time>2026-07-08T14:00:48Z</time>
      </trkpt>
      <trkpt lat="47.07478" lon="6.04333">
        <ele>480</ele>
        <time>2026-07-08T14:00:49Z</time>
      </trkpt>
      <trkpt lat="47.07477" lon="6.04333">
        <ele>480.2</ele>
        <time>2026-07-08T14:00:50Z</time>
      </trkpt>
      <trkpt lat="47.07476" lon="6.04332">
        <ele>480.2</ele>
        <time>2026-07-08T14:00:51Z</time>
      </trkpt>
      <trkpt lat="47.07475" lon="6.04331">
        <ele>480.4</ele>
        <time>2026-07-08T14:00:52Z</time>
      </trkpt>
      <trkpt lat="47.07474" lon="6.0433">
        <ele>480.8</ele>
        <time>2026-07-08T14:00:53Z</time>
      </trkpt>
      <trkpt lat="47.07473" lon="6.04329">
        <ele>480.8</ele>
        <time>2026-07-08T14:00:54Z</time>
      </trkpt>
      <trkpt lat="47.07471" lon="6.04328">
        <ele>481</ele>
        <time>2026-07-08T14:00:55Z</time>
      </trkpt>
      <trkpt lat="47.0747" lon="6.04327">
        <ele>481.2</ele>
        <time>2026-07-08T14:00:56Z</time>
      </trkpt>
      <trkpt lat="47.0747" lon="6.04327">
        <ele>481.6</ele>
        <time>2026-07-08T14:00:57Z</time>
      </trkpt>
      <trkpt lat="47.07467" lon="6.04324">
        <ele>481.8</ele>
        <time>2026-07-08T14:00:58Z</time>
      </trkpt>
      <trkpt lat="47.07465" lon="6.04323">
        <ele>482</ele>
        <time>2026-07-08T14:00:59Z</time>
      </trkpt>
      <trkpt lat="47.07464" lon="6.04322">
        <ele>482.4</ele>
        <time>2026-07-08T14:01:00Z</time>
      </trkpt>
      <trkpt lat="47.07462" lon="6.04321">
        <ele>482.8</ele>
        <time>2026-07-08T14:01:01Z</time>
      </trkpt>
      <trkpt lat="47.07461" lon="6.0432">
        <ele>483</ele>
        <time>2026-07-08T14:01:02Z</time>
      </trkpt>
      <trkpt lat="47.0746" lon="6.04318">
        <ele>483</ele>
        <time>2026-07-08T14:01:03Z</time>
      </trkpt>
      <trkpt lat="47.07459" lon="6.04317">
        <ele>483.4</ele>
        <time>2026-07-08T14:01:04Z</time>
      </trkpt>
      <trkpt lat="47.07457" lon="6.04315">
        <ele>483.6</ele>
        <time>2026-07-08T14:01:05Z</time>
      </trkpt>
      <trkpt lat="47.07457" lon="6.04315">
        <ele>483.8</ele>
        <time>2026-07-08T14:01:06Z</time>
      </trkpt>
      <trkpt lat="47.07455" lon="6.04314">
        <ele>484</ele>
        <time>2026-07-08T14:01:07Z</time>
      </trkpt>
      <trkpt lat="47.07454" lon="6.04313">
        <ele>484.4</ele>
        <time>2026-07-08T14:01:08Z</time>
      </trkpt>
      <trkpt lat="47.07453" lon="6.04313">
        <ele>484.6</ele>
        <time>2026-07-08T14:01:09Z</time>
      </trkpt>
      <trkpt lat="47.07452" lon="6.04312">
        <ele>484.8</ele>
        <time>2026-07-08T14:01:10Z</time>
      </trkpt>
      <trkpt lat="47.07451" lon="6.04312">
        <ele>485</ele>
        <time>2026-07-08T14:01:11Z</time>
      </trkpt>
      <trkpt lat="47.07449" lon="6.04311">
        <ele>485.2</ele>
        <time>2026-07-08T14:01:12Z</time>
      </trkpt>
      <trkpt lat="47.07448" lon="6.04311">
        <ele>485.6</ele>
        <time>2026-07-08T14:01:13Z</time>
      </trkpt>
      <trkpt lat="47.07447" lon="6.0431">
        <ele>485.8</ele>
        <time>2026-07-08T14:01:14Z</time>
      </trkpt>
      <trkpt lat="47.07446" lon="6.04309">
        <ele>486.2</ele>
        <time>2026-07-08T14:01:15Z</time>
      </trkpt>
      <trkpt lat="47.07445" lon="6.04308">
        <ele>486.2</ele>
        <time>2026-07-08T14:01:16Z</time>
      </trkpt>
      <trkpt lat="47.07444" lon="6.04307">
        <ele>486.6</ele>
        <time>2026-07-08T14:01:17Z</time>
      </trkpt>
      <trkpt lat="47.07443" lon="6.04306">
        <ele>486.8</ele>
        <time>2026-07-08T14:01:18Z</time>
      </trkpt>
      <trkpt lat="47.07441" lon="6.04305">
        <ele>487</ele>
        <time>2026-07-08T14:01:19Z</time>
      </trkpt>
      <trkpt lat="47.0744" lon="6.04305">
        <ele>487.2</ele>
        <time>2026-07-08T14:01:20Z</time>
      </trkpt>
      <trkpt lat="47.07439" lon="6.04304">
        <ele>487.4</ele>
        <time>2026-07-08T14:01:21Z</time>
      </trkpt>
      <trkpt lat="47.07438" lon="6.04304">
        <ele>487.6</ele>
        <time>2026-07-08T14:01:22Z</time>
      </trkpt>
      <trkpt lat="47.07438" lon="6.04304">
        <ele>488</ele>
        <time>2026-07-08T14:01:23Z</time>
      </trkpt>
      <trkpt lat="47.07437" lon="6.04304">
        <ele>488.4</ele>
        <time>2026-07-08T14:01:24Z</time>
      </trkpt>
      <trkpt lat="47.07436" lon="6.04303">
        <ele>488.6</ele>
        <time>2026-07-08T14:01:25Z</time>
      </trkpt>
      <trkpt lat="47.07435" lon="6.04303">
        <ele>489</ele>
        <time>2026-07-08T14:01:26Z</time>
      </trkpt>
      <trkpt lat="47.07433" lon="6.04302">
        <ele>489.2</ele>
        <time>2026-07-08T14:01:27Z</time>
      </trkpt>
      <trkpt lat="47.07433" lon="6.04302">
        <ele>489.6</ele>
        <time>2026-07-08T14:01:28Z</time>
      </trkpt>
      <trkpt lat="47.07432" lon="6.043">
        <ele>489.8</ele>
        <time>2026-07-08T14:01:29Z</time>
      </trkpt>
      <trkpt lat="47.07431" lon="6.043">
        <ele>490</ele>
        <time>2026-07-08T14:01:30Z</time>
      </trkpt>
      <trkpt lat="47.07429" lon="6.04299">
        <ele>490</ele>
        <time>2026-07-08T14:01:31Z</time>
      </trkpt>
      <trkpt lat="47.07428" lon="6.04299">
        <ele>490.4</ele>
        <time>2026-07-08T14:01:32Z</time>
      </trkpt>
      <trkpt lat="47.07426" lon="6.04298">
        <ele>490.6</ele>
        <time>2026-07-08T14:01:33Z</time>
      </trkpt>
      <trkpt lat="47.07425" lon="6.04297">
        <ele>491</ele>
        <time>2026-07-08T14:01:34Z</time>
      </trkpt>
      <trkpt lat="47.07423" lon="6.04296">
        <ele>491</ele>
        <time>2026-07-08T14:01:35Z</time>
      </trkpt>
      <trkpt lat="47.07422" lon="6.04295">
        <ele>491.4</ele>
        <time>2026-07-08T14:01:36Z</time>
      </trkpt>
      <trkpt lat="47.07421" lon="6.04294">
        <ele>491.4</ele>
        <time>2026-07-08T14:01:37Z</time>
      </trkpt>
      <trkpt lat="47.07421" lon="6.04294">
        <ele>491.4</ele>
        <time>2026-07-08T14:01:38Z</time>
      </trkpt>
      <trkpt lat="47.07418" lon="6.04293">
        <ele>491.8</ele>
        <time>2026-07-08T14:01:39Z</time>
      </trkpt>
      <trkpt lat="47.07417" lon="6.04293">
        <ele>492</ele>
        <time>2026-07-08T14:01:40Z</time>
      </trkpt>
      <trkpt lat="47.07416" lon="6.04293">
        <ele>492.2</ele>
        <time>2026-07-08T14:01:41Z</time>
      </trkpt>
      <trkpt lat="47.07415" lon="6.04294">
        <ele>492.4</ele>
        <time>2026-07-08T14:01:42Z</time>
      </trkpt>
      <trkpt lat="47.07414" lon="6.04294">
        <ele>492.8</ele>
        <time>2026-07-08T14:01:43Z</time>
      </trkpt>
      <trkpt lat="47.07413" lon="6.04294">
        <ele>493</ele>
        <time>2026-07-08T14:01:44Z</time>
      </trkpt>
      <trkpt lat="47.07412" lon="6.04294">
        <ele>493.2</ele>
        <time>2026-07-08T14:01:45Z</time>
      </trkpt>
      <trkpt lat="47.07411" lon="6.04294">
        <ele>493.4</ele>
        <time>2026-07-08T14:01:46Z</time>
      </trkpt>
      <trkpt lat="47.0741" lon="6.04294">
        <ele>493.6</ele>
        <time>2026-07-08T14:01:47Z</time>
      </trkpt>
      <trkpt lat="47.07409" lon="6.04293">
        <ele>493.8</ele>
        <time>2026-07-08T14:01:48Z</time>
      </trkpt>
      <trkpt lat="47.07408" lon="6.04294">
        <ele>493.8</ele>
        <time>2026-07-08T14:01:49Z</time>
      </trkpt>
      <trkpt lat="47.07406" lon="6.04294">
        <ele>494</ele>
        <time>2026-07-08T14:01:50Z</time>
      </trkpt>
      <trkpt lat="47.07405" lon="6.04294">
        <ele>494.2</ele>
        <time>2026-07-08T14:01:51Z</time>
      </trkpt>
      <trkpt lat="47.07404" lon="6.04294">
        <ele>494.2</ele>
        <time>2026-07-08T14:01:52Z</time>
      </trkpt>
      <trkpt lat="47.07404" lon="6.04294">
        <ele>494.2</ele>
        <time>2026-07-08T14:01:53Z</time>
      </trkpt>
      <trkpt lat="47.07401" lon="6.04293">
        <ele>494.4</ele>
        <time>2026-07-08T14:01:54Z</time>
      </trkpt>
      <trkpt lat="47.074" lon="6.04293">
        <ele>494.4</ele>
        <time>2026-07-08T14:01:55Z</time>
      </trkpt>
      <trkpt lat="47.07399" lon="6.04293">
        <ele>494.6</ele>
        <time>2026-07-08T14:01:56Z</time>
      </trkpt>
      <trkpt lat="47.07397" lon="6.04294">
        <ele>494.8</ele>
        <time>2026-07-08T14:01:57Z</time>
      </trkpt>
      <trkpt lat="47.07396" lon="6.04294">
        <ele>495</ele>
        <time>2026-07-08T14:01:58Z</time>
      </trkpt>
      <trkpt lat="47.07395" lon="6.04294">
        <ele>495</ele>
        <time>2026-07-08T14:01:59Z</time>
      </trkpt>
      <trkpt lat="47.07393" lon="6.04294">
        <ele>495.4</ele>
        <time>2026-07-08T14:02:00Z</time>
      </trkpt>
      <trkpt lat="47.07392" lon="6.04294">
        <ele>495.4</ele>
        <time>2026-07-08T14:02:01Z</time>
      </trkpt>
      <trkpt lat="47.07392" lon="6.04294">
        <ele>495.6</ele>
        <time>2026-07-08T14:02:02Z</time>
      </trkpt>
      <trkpt lat="47.0739" lon="6.04295">
        <ele>495.8</ele>
        <time>2026-07-08T14:02:03Z</time>
      </trkpt>
      <trkpt lat="47.07389" lon="6.04296">
        <ele>496</ele>
        <time>2026-07-08T14:02:04Z</time>
      </trkpt>
      <trkpt lat="47.07387" lon="6.04297">
        <ele>496.2</ele>
        <time>2026-07-08T14:02:05Z</time>
      </trkpt>
      <trkpt lat="47.07386" lon="6.04297">
        <ele>496.2</ele>
        <time>2026-07-08T14:02:06Z</time>
      </trkpt>
      <trkpt lat="47.07385" lon="6.04297">
        <ele>496.4</ele>
        <time>2026-07-08T14:02:07Z</time>
      </trkpt>
      <trkpt lat="47.07384" lon="6.04297">
        <ele>496.4</ele>
        <time>2026-07-08T14:02:08Z</time>
      </trkpt>
      <trkpt lat="47.07383" lon="6.04298">
        <ele>496.6</ele>
        <time>2026-07-08T14:02:09Z</time>
      </trkpt>
      <trkpt lat="47.07382" lon="6.04298">
        <ele>496.6</ele>
        <time>2026-07-08T14:02:10Z</time>
      </trkpt>
      <trkpt lat="47.07381" lon="6.04299">
        <ele>496.6</ele>
        <time>2026-07-08T14:02:11Z</time>
      </trkpt>
      <trkpt lat="47.0738" lon="6.04299">
        <ele>496.8</ele>
        <time>2026-07-08T14:02:12Z</time>
      </trkpt>
      <trkpt lat="47.07379" lon="6.04299">
        <ele>496.8</ele>
        <time>2026-07-08T14:02:13Z</time>
      </trkpt>
      <trkpt lat="47.07378" lon="6.043">
        <ele>497</ele>
        <time>2026-07-08T14:02:14Z</time>
      </trkpt>
      <trkpt lat="47.07376" lon="6.043">
        <ele>497.2</ele>
        <time>2026-07-08T14:02:15Z</time>
      </trkpt>
      <trkpt lat="47.07375" lon="6.04301">
        <ele>497.4</ele>
        <time>2026-07-08T14:02:16Z</time>
      </trkpt>
      <trkpt lat="47.07375" lon="6.04301">
        <ele>497.6</ele>
        <time>2026-07-08T14:02:17Z</time>
      </trkpt>
      <trkpt lat="47.07372" lon="6.043">
        <ele>497.8</ele>
        <time>2026-07-08T14:02:18Z</time>
      </trkpt>
      <trkpt lat="47.0737" lon="6.04301">
        <ele>497.8</ele>
        <time>2026-07-08T14:02:19Z</time>
      </trkpt>
      <trkpt lat="47.07369" lon="6.04301">
        <ele>498</ele>
        <time>2026-07-08T14:02:20Z</time>
      </trkpt>
      <trkpt lat="47.07368" lon="6.04301">
        <ele>498.2</ele>
        <time>2026-07-08T14:02:21Z</time>
      </trkpt>
      <trkpt lat="47.07366" lon="6.04301">
        <ele>498.4</ele>
        <time>2026-07-08T14:02:22Z</time>
      </trkpt>
      <trkpt lat="47.07365" lon="6.043">
        <ele>498.4</ele>
        <time>2026-07-08T14:02:23Z</time>
      </trkpt>
      <trkpt lat="47.07364" lon="6.04299">
        <ele>498.4</ele>
        <time>2026-07-08T14:02:24Z</time>
      </trkpt>
      <trkpt lat="47.07363" lon="6.04298">
        <ele>498.6</ele>
        <time>2026-07-08T14:02:25Z</time>
      </trkpt>
      <trkpt lat="47.07362" lon="6.04297">
        <ele>498.8</ele>
        <time>2026-07-08T14:02:26Z</time>
      </trkpt>
      <trkpt lat="47.07361" lon="6.04297">
        <ele>498.8</ele>
        <time>2026-07-08T14:02:27Z</time>
      </trkpt>
      <trkpt lat="47.07359" lon="6.04296">
        <ele>499</ele>
        <time>2026-07-08T14:02:28Z</time>
      </trkpt>
      <trkpt lat="47.07359" lon="6.04296">
        <ele>499.2</ele>
        <time>2026-07-08T14:02:29Z</time>
      </trkpt>
      <trkpt lat="47.07357" lon="6.04297">
        <ele>499.2</ele>
        <time>2026-07-08T14:02:30Z</time>
      </trkpt>
      <trkpt lat="47.07355" lon="6.04296">
        <ele>499.4</ele>
        <time>2026-07-08T14:02:31Z</time>
      </trkpt>
      <trkpt lat="47.07355" lon="6.04296">
        <ele>499.6</ele>
        <time>2026-07-08T14:02:32Z</time>
      </trkpt>
      <trkpt lat="47.07351" lon="6.04295">
        <ele>499.8</ele>
        <time>2026-07-08T14:02:33Z</time>
      </trkpt>
      <trkpt lat="47.07349" lon="6.04295">
        <ele>500</ele>
        <time>2026-07-08T14:02:34Z</time>
      </trkpt>
      <trkpt lat="47.07348" lon="6.04294">
        <ele>500</ele>
        <time>2026-07-08T14:02:35Z</time>
      </trkpt>
      <trkpt lat="47.07346" lon="6.04294">
        <ele>500</ele>
        <time>2026-07-08T14:02:36Z</time>
      </trkpt>
      <trkpt lat="47.07345" lon="6.04293">
        <ele>500.2</ele>
        <time>2026-07-08T14:02:37Z</time>
      </trkpt>
      <trkpt lat="47.07345" lon="6.04293">
        <ele>500.2</ele>
        <time>2026-07-08T14:02:38Z</time>
      </trkpt>
      <trkpt lat="47.07342" lon="6.04292">
        <ele>500.4</ele>
        <time>2026-07-08T14:02:39Z</time>
      </trkpt>
      <trkpt lat="47.0734" lon="6.04291">
        <ele>500.6</ele>
        <time>2026-07-08T14:02:40Z</time>
      </trkpt>
      <trkpt lat="47.07338" lon="6.04291">
        <ele>500.8</ele>
        <time>2026-07-08T14:02:41Z</time>
      </trkpt>
      <trkpt lat="47.07336" lon="6.04291">
        <ele>501</ele>
        <time>2026-07-08T14:02:42Z</time>
      </trkpt>
      <trkpt lat="47.07334" lon="6.04291">
        <ele>501.6</ele>
        <time>2026-07-08T14:02:43Z</time>
      </trkpt>
      <trkpt lat="47.07333" lon="6.04292">
        <ele>501.8</ele>
        <time>2026-07-08T14:02:44Z</time>
      </trkpt>
      <trkpt lat="47.07331" lon="6.04292">
        <ele>501.8</ele>
        <time>2026-07-08T14:02:45Z</time>
      </trkpt>
      <trkpt lat="47.07329" lon="6.04293">
        <ele>502.2</ele>
        <time>2026-07-08T14:02:46Z</time>
      </trkpt>
      <trkpt lat="47.07328" lon="6.04294">
        <ele>502.6</ele>
        <time>2026-07-08T14:02:47Z</time>
      </trkpt>
      <trkpt lat="47.07326" lon="6.04294">
        <ele>502.6</ele>
        <time>2026-07-08T14:02:48Z</time>
      </trkpt>
      <trkpt lat="47.07325" lon="6.04295">
        <ele>502.8</ele>
        <time>2026-07-08T14:02:49Z</time>
      </trkpt>
      <trkpt lat="47.07323" lon="6.04295">
        <ele>503</ele>
        <time>2026-07-08T14:02:50Z</time>
      </trkpt>
      <trkpt lat="47.07322" lon="6.04296">
        <ele>503.4</ele>
        <time>2026-07-08T14:02:51Z</time>
      </trkpt>
      <trkpt lat="47.07321" lon="6.04297">
        <ele>503.6</ele>
        <time>2026-07-08T14:02:52Z</time>
      </trkpt>
      <trkpt lat="47.0732" lon="6.04298">
        <ele>503.8</ele>
        <time>2026-07-08T14:02:53Z</time>
      </trkpt>
      <trkpt lat="47.0732" lon="6.04298">
        <ele>503.8</ele>
        <time>2026-07-08T14:02:54Z</time>
      </trkpt>
      <trkpt lat="47.07319" lon="6.04301">
        <ele>504</ele>
        <time>2026-07-08T14:02:55Z</time>
      </trkpt>
      <trkpt lat="47.07319" lon="6.04301">
        <ele>504.2</ele>
        <time>2026-07-08T14:02:56Z</time>
      </trkpt>
      <trkpt lat="47.07317" lon="6.04303">
        <ele>504.4</ele>
        <time>2026-07-08T14:02:57Z</time>
      </trkpt>
      <trkpt lat="47.07316" lon="6.04305">
        <ele>504.6</ele>
        <time>2026-07-08T14:02:58Z</time>
      </trkpt>
      <trkpt lat="47.07316" lon="6.04307">
        <ele>505</ele>
        <time>2026-07-08T14:02:59Z</time>
      </trkpt>
      <trkpt lat="47.07315" lon="6.04308">
        <ele>505</ele>
        <time>2026-07-08T14:03:00Z</time>
      </trkpt>
      <trkpt lat="47.07313" lon="6.04309">
        <ele>505.4</ele>
        <time>2026-07-08T14:03:01Z</time>
      </trkpt>
      <trkpt lat="47.07313" lon="6.0431">
        <ele>505.4</ele>
        <time>2026-07-08T14:03:02Z</time>
      </trkpt>
      <trkpt lat="47.07311" lon="6.04312">
        <ele>505.6</ele>
        <time>2026-07-08T14:03:03Z</time>
      </trkpt>
      <trkpt lat="47.0731" lon="6.04313">
        <ele>505.8</ele>
        <time>2026-07-08T14:03:04Z</time>
      </trkpt>
      <trkpt lat="47.07309" lon="6.04313">
        <ele>506.2</ele>
        <time>2026-07-08T14:03:05Z</time>
      </trkpt>
      <trkpt lat="47.07308" lon="6.04314">
        <ele>506.2</ele>
        <time>2026-07-08T14:03:06Z</time>
      </trkpt>
      <trkpt lat="47.07307" lon="6.04315">
        <ele>506.2</ele>
        <time>2026-07-08T14:03:07Z</time>
      </trkpt>
      <trkpt lat="47.07307" lon="6.04317">
        <ele>506.2</ele>
        <time>2026-07-08T14:03:08Z</time>
      </trkpt>
      <trkpt lat="47.07306" lon="6.04319">
        <ele>506.6</ele>
        <time>2026-07-08T14:03:09Z</time>
      </trkpt>
      <trkpt lat="47.07306" lon="6.04321">
        <ele>506.8</ele>
        <time>2026-07-08T14:03:10Z</time>
      </trkpt>
      <trkpt lat="47.07306" lon="6.04323">
        <ele>507</ele>
        <time>2026-07-08T14:03:11Z</time>
      </trkpt>
      <trkpt lat="47.07305" lon="6.04325">
        <ele>507</ele>
        <time>2026-07-08T14:03:12Z</time>
      </trkpt>
      <trkpt lat="47.07305" lon="6.04327">
        <ele>507.4</ele>
        <time>2026-07-08T14:03:13Z</time>
      </trkpt>
      <trkpt lat="47.07304" lon="6.04329">
        <ele>507.4</ele>
        <time>2026-07-08T14:03:14Z</time>
      </trkpt>
      <trkpt lat="47.07303" lon="6.0433">
        <ele>507.6</ele>
        <time>2026-07-08T14:03:15Z</time>
      </trkpt>
      <trkpt lat="47.07303" lon="6.04331">
        <ele>508</ele>
        <time>2026-07-08T14:03:16Z</time>
      </trkpt>
      <trkpt lat="47.07302" lon="6.04332">
        <ele>508.2</ele>
        <time>2026-07-08T14:03:17Z</time>
      </trkpt>
      <trkpt lat="47.07301" lon="6.04333">
        <ele>508.2</ele>
        <time>2026-07-08T14:03:18Z</time>
      </trkpt>
      <trkpt lat="47.07301" lon="6.04336">
        <ele>508.4</ele>
        <time>2026-07-08T14:03:19Z</time>
      </trkpt>
      <trkpt lat="47.07301" lon="6.04337">
        <ele>508.6</ele>
        <time>2026-07-08T14:03:20Z</time>
      </trkpt>
      <trkpt lat="47.073" lon="6.04338">
        <ele>508.8</ele>
        <time>2026-07-08T14:03:21Z</time>
      </trkpt>
      <trkpt lat="47.07299" lon="6.0434">
        <ele>509.2</ele>
        <time>2026-07-08T14:03:22Z</time>
      </trkpt>
      <trkpt lat="47.07298" lon="6.04341">
        <ele>509.4</ele>
        <time>2026-07-08T14:03:23Z</time>
      </trkpt>
      <trkpt lat="47.07297" lon="6.04341">
        <ele>509.4</ele>
        <time>2026-07-08T14:03:24Z</time>
      </trkpt>
      <trkpt lat="47.07296" lon="6.04341">
        <ele>509.8</ele>
        <time>2026-07-08T14:03:25Z</time>
      </trkpt>
      <trkpt lat="47.07295" lon="6.04342">
        <ele>510</ele>
        <time>2026-07-08T14:03:26Z</time>
      </trkpt>
      <trkpt lat="47.07294" lon="6.04342">
        <ele>510</ele>
        <time>2026-07-08T14:03:27Z</time>
      </trkpt>
      <trkpt lat="47.07292" lon="6.04342">
        <ele>510.4</ele>
        <time>2026-07-08T14:03:28Z</time>
      </trkpt>
      <trkpt lat="47.07291" lon="6.04343">
        <ele>510.6</ele>
        <time>2026-07-08T14:03:29Z</time>
      </trkpt>
      <trkpt lat="47.07291" lon="6.04344">
        <ele>510.6</ele>
        <time>2026-07-08T14:03:30Z</time>
      </trkpt>
      <trkpt lat="47.0729" lon="6.04344">
        <ele>510.8</ele>
        <time>2026-07-08T14:03:31Z</time>
      </trkpt>
      <trkpt lat="47.07289" lon="6.04345">
        <ele>511.2</ele>
        <time>2026-07-08T14:03:32Z</time>
      </trkpt>
      <trkpt lat="47.07288" lon="6.04346">
        <ele>511.4</ele>
        <time>2026-07-08T14:03:33Z</time>
      </trkpt>
      <trkpt lat="47.07287" lon="6.04347">
        <ele>511.6</ele>
        <time>2026-07-08T14:03:34Z</time>
      </trkpt>
      <trkpt lat="47.07287" lon="6.04347">
        <ele>511.8</ele>
        <time>2026-07-08T14:03:35Z</time>
      </trkpt>
      <trkpt lat="47.07284" lon="6.04349">
        <ele>512.2</ele>
        <time>2026-07-08T14:03:36Z</time>
      </trkpt>
      <trkpt lat="47.07284" lon="6.0435">
        <ele>512.2</ele>
        <time>2026-07-08T14:03:37Z</time>
      </trkpt>
      <trkpt lat="47.07284" lon="6.04351">
        <ele>512.4</ele>
        <time>2026-07-08T14:03:38Z</time>
      </trkpt>
      <trkpt lat="47.07284" lon="6.04353">
        <ele>512.6</ele>
        <time>2026-07-08T14:03:39Z</time>
      </trkpt>
      <trkpt lat="47.07284" lon="6.04354">
        <ele>513</ele>
        <time>2026-07-08T14:03:40Z</time>
      </trkpt>
      <trkpt lat="47.07284" lon="6.04354">
        <ele>513.2</ele>
        <time>2026-07-08T14:03:41Z</time>
      </trkpt>
      <trkpt lat="47.07283" lon="6.04357">
        <ele>513.6</ele>
        <time>2026-07-08T14:03:42Z</time>
      </trkpt>
      <trkpt lat="47.07283" lon="6.04359">
        <ele>513.8</ele>
        <time>2026-07-08T14:03:43Z</time>
      </trkpt>
      <trkpt lat="47.07283" lon="6.04361">
        <ele>514</ele>
        <time>2026-07-08T14:03:44Z</time>
      </trkpt>
      <trkpt lat="47.07282" lon="6.04363">
        <ele>514.2</ele>
        <time>2026-07-08T14:03:45Z</time>
      </trkpt>
      <trkpt lat="47.07282" lon="6.04362">
        <ele>514.4</ele>
        <time>2026-07-08T14:03:46Z</time>
      </trkpt>
      <trkpt lat="47.07281" lon="6.04365">
        <ele>514.8</ele>
        <time>2026-07-08T14:03:47Z</time>
      </trkpt>
      <trkpt lat="47.07281" lon="6.04366">
        <ele>515</ele>
        <time>2026-07-08T14:03:48Z</time>
      </trkpt>
      <trkpt lat="47.0728" lon="6.04367">
        <ele>515.2</ele>
        <time>2026-07-08T14:03:49Z</time>
      </trkpt>
      <trkpt lat="47.07279" lon="6.04369">
        <ele>515.4</ele>
        <time>2026-07-08T14:03:50Z</time>
      </trkpt>
      <trkpt lat="47.07279" lon="6.04371">
        <ele>515.6</ele>
        <time>2026-07-08T14:03:51Z</time>
      </trkpt>
      <trkpt lat="47.07278" lon="6.04373">
        <ele>515.8</ele>
        <time>2026-07-08T14:03:52Z</time>
      </trkpt>
      <trkpt lat="47.07278" lon="6.04377">
        <ele>515.8</ele>
        <time>2026-07-08T14:03:53Z</time>
      </trkpt>
      <trkpt lat="47.07277" lon="6.04378">
        <ele>516</ele>
        <time>2026-07-08T14:03:54Z</time>
      </trkpt>
      <trkpt lat="47.07276" lon="6.04379">
        <ele>516.2</ele>
        <time>2026-07-08T14:03:55Z</time>
      </trkpt>
      <trkpt lat="47.07275" lon="6.04379">
        <ele>516.8</ele>
        <time>2026-07-08T14:03:56Z</time>
      </trkpt>
      <trkpt lat="47.07274" lon="6.0438">
        <ele>517</ele>
        <time>2026-07-08T14:03:57Z</time>
      </trkpt>
      <trkpt lat="47.07273" lon="6.0438">
        <ele>517.2</ele>
        <time>2026-07-08T14:03:58Z</time>
      </trkpt>
      <trkpt lat="47.07273" lon="6.04381">
        <ele>517.4</ele>
        <time>2026-07-08T14:03:59Z</time>
      </trkpt>
      <trkpt lat="47.07273" lon="6.04383">
        <ele>517.8</ele>
        <time>2026-07-08T14:04:00Z</time>
      </trkpt>
      <trkpt lat="47.07272" lon="6.04385">
        <ele>517.8</ele>
        <time>2026-07-08T14:04:01Z</time>
      </trkpt>
      <trkpt lat="47.07272" lon="6.04387">
        <ele>517.8</ele>
        <time>2026-07-08T14:04:02Z</time>
      </trkpt>
      <trkpt lat="47.07272" lon="6.04389">
        <ele>518</ele>
        <time>2026-07-08T14:04:03Z</time>
      </trkpt>
      <trkpt lat="47.07272" lon="6.04391">
        <ele>518.6</ele>
        <time>2026-07-08T14:04:04Z</time>
      </trkpt>
      <trkpt lat="47.07272" lon="6.04393">
        <ele>518.6</ele>
        <time>2026-07-08T14:04:05Z</time>
      </trkpt>
      <trkpt lat="47.07273" lon="6.04395">
        <ele>519.2</ele>
        <time>2026-07-08T14:04:06Z</time>
      </trkpt>
      <trkpt lat="47.07273" lon="6.04397">
        <ele>519.4</ele>
        <time>2026-07-08T14:04:07Z</time>
      </trkpt>
      <trkpt lat="47.07272" lon="6.04399">
        <ele>519.6</ele>
        <time>2026-07-08T14:04:08Z</time>
      </trkpt>
      <trkpt lat="47.07272" lon="6.04401">
        <ele>519.8</ele>
        <time>2026-07-08T14:04:09Z</time>
      </trkpt>
      <trkpt lat="47.07272" lon="6.04403">
        <ele>520</ele>
        <time>2026-07-08T14:04:10Z</time>
      </trkpt>
      <trkpt lat="47.07272" lon="6.04405">
        <ele>520.2</ele>
        <time>2026-07-08T14:04:11Z</time>
      </trkpt>
      <trkpt lat="47.07271" lon="6.04405">
        <ele>520.4</ele>
        <time>2026-07-08T14:04:12Z</time>
      </trkpt>
      <trkpt lat="47.07271" lon="6.04406">
        <ele>520.6</ele>
        <time>2026-07-08T14:04:13Z</time>
      </trkpt>
      <trkpt lat="47.07272" lon="6.04407">
        <ele>520.8</ele>
        <time>2026-07-08T14:04:14Z</time>
      </trkpt>
      <trkpt lat="47.07272" lon="6.0441">
        <ele>520.8</ele>
        <time>2026-07-08T14:04:15Z</time>
      </trkpt>
      <trkpt lat="47.07273" lon="6.04414">
        <ele>521</ele>
        <time>2026-07-08T14:04:16Z</time>
      </trkpt>
      <trkpt lat="47.07272" lon="6.04417">
        <ele>521</ele>
        <time>2026-07-08T14:04:17Z</time>
      </trkpt>
      <trkpt lat="47.07272" lon="6.04421">
        <ele>521.2</ele>
        <time>2026-07-08T14:04:18Z</time>
      </trkpt>
      <trkpt lat="47.07272" lon="6.04425">
        <ele>521.2</ele>
        <time>2026-07-08T14:04:19Z</time>
      </trkpt>
      <trkpt lat="47.07273" lon="6.04432">
        <ele>521.4</ele>
        <time>2026-07-08T14:04:20Z</time>
      </trkpt>
      <trkpt lat="47.07274" lon="6.04439">
        <ele>521.4</ele>
        <time>2026-07-08T14:04:21Z</time>
      </trkpt>
      <trkpt lat="47.07274" lon="6.04445">
        <ele>521.4</ele>
        <time>2026-07-08T14:04:22Z</time>
      </trkpt>
      <trkpt lat="47.07275" lon="6.04449">
        <ele>521.4</ele>
        <time>2026-07-08T14:04:23Z</time>
      </trkpt>
      <trkpt lat="47.07275" lon="6.04455">
        <ele>521.4</ele>
        <time>2026-07-08T14:04:24Z</time>
      </trkpt>
      <trkpt lat="47.07275" lon="6.0446">
        <ele>521.4</ele>
        <time>2026-07-08T14:04:25Z</time>
      </trkpt>
      <trkpt lat="47.07275" lon="6.04468">
        <ele>521.4</ele>
        <time>2026-07-08T14:04:26Z</time>
      </trkpt>
      <trkpt lat="47.07274" lon="6.04474">
        <ele>521.4</ele>
        <time>2026-07-08T14:04:27Z</time>
      </trkpt>
      <trkpt lat="47.07274" lon="6.0448">
        <ele>521.2</ele>
        <time>2026-07-08T14:04:28Z</time>
      </trkpt>
      <trkpt lat="47.07273" lon="6.04489">
        <ele>521</ele>
        <time>2026-07-08T14:04:29Z</time>
      </trkpt>
      <trkpt lat="47.07272" lon="6.04499">
        <ele>520.6</ele>
        <time>2026-07-08T14:04:30Z</time>
      </trkpt>
      <trkpt lat="47.0727" lon="6.04509">
        <ele>520</ele>
        <time>2026-07-08T14:04:31Z</time>
      </trkpt>
      <trkpt lat="47.07268" lon="6.04519">
        <ele>519.6</ele>
        <time>2026-07-08T14:04:32Z</time>
      </trkpt>
      <trkpt lat="47.07266" lon="6.04529">
        <ele>519</ele>
        <time>2026-07-08T14:04:33Z</time>
      </trkpt>
      <trkpt lat="47.07263" lon="6.04543">
        <ele>518.6</ele>
        <time>2026-07-08T14:04:34Z</time>
      </trkpt>
      <trkpt lat="47.07259" lon="6.04555">
        <ele>518</ele>
        <time>2026-07-08T14:04:35Z</time>
      </trkpt>
      <trkpt lat="47.07255" lon="6.04568">
        <ele>517</ele>
        <time>2026-07-08T14:04:36Z</time>
      </trkpt>
      <trkpt lat="47.07252" lon="6.04579">
        <ele>517</ele>
        <time>2026-07-08T14:04:37Z</time>
      </trkpt>
      <trkpt lat="47.07248" lon="6.0459">
        <ele>516.6</ele>
        <time>2026-07-08T14:04:38Z</time>
      </trkpt>
      <trkpt lat="47.07243" lon="6.04601">
        <ele>515.8</ele>
        <time>2026-07-08T14:04:39Z</time>
      </trkpt>
      <trkpt lat="47.07238" lon="6.04613">
        <ele>514.4</ele>
        <time>2026-07-08T14:04:40Z</time>
      </trkpt>
      <trkpt lat="47.07233" lon="6.04625">
        <ele>513.4</ele>
        <time>2026-07-08T14:04:41Z</time>
      </trkpt>
      <trkpt lat="47.07228" lon="6.04639">
        <ele>512.2</ele>
        <time>2026-07-08T14:04:42Z</time>
      </trkpt>
      <trkpt lat="47.07223" lon="6.04649">
        <ele>511</ele>
        <time>2026-07-08T14:04:43Z</time>
      </trkpt>
      <trkpt lat="47.07218" lon="6.04659">
        <ele>509.8</ele>
        <time>2026-07-08T14:04:44Z</time>
      </trkpt>
      <trkpt lat="47.07213" lon="6.04669">
        <ele>508.8</ele>
        <time>2026-07-08T14:04:45Z</time>
      </trkpt>
      <trkpt lat="47.07208" lon="6.04678">
        <ele>507.6</ele>
        <time>2026-07-08T14:04:46Z</time>
      </trkpt>
      <trkpt lat="47.07204" lon="6.04688">
        <ele>506.6</ele>
        <time>2026-07-08T14:04:47Z</time>
      </trkpt>
      <trkpt lat="47.07201" lon="6.04696">
        <ele>505.6</ele>
        <time>2026-07-08T14:04:48Z</time>
      </trkpt>
      <trkpt lat="47.07198" lon="6.04702">
        <ele>504.4</ele>
        <time>2026-07-08T14:04:49Z</time>
      </trkpt>
      <trkpt lat="47.07196" lon="6.04706">
        <ele>502.8</ele>
        <time>2026-07-08T14:04:50Z</time>
      </trkpt>
      <trkpt lat="47.07194" lon="6.04709">
        <ele>501.4</ele>
        <time>2026-07-08T14:04:51Z</time>
      </trkpt>
      <trkpt lat="47.07194" lon="6.04711">
        <ele>500.4</ele>
        <time>2026-07-08T14:04:52Z</time>
      </trkpt>
      <trkpt lat="47.07193" lon="6.04712">
        <ele>499.6</ele>
        <time>2026-07-08T14:04:53Z</time>
      </trkpt>
      <trkpt lat="47.07193" lon="6.04713">
        <ele>498.8</ele>
        <time>2026-07-08T14:04:54Z</time>
      </trkpt>
      <trkpt lat="47.07191" lon="6.0471">
        <ele>493.6</ele>
        <time>2026-07-08T14:05:01Z</time>
      </trkpt>
      <trkpt lat="47.0719" lon="6.0471">
        <ele>493.6</ele>
        <time>2026-07-08T14:05:02Z</time>
      </trkpt>
      <trkpt lat="47.07188" lon="6.0471">
        <ele>493.6</ele>
        <time>2026-07-08T14:05:03Z</time>
      </trkpt>
      <trkpt lat="47.07187" lon="6.0471">
        <ele>493.6</ele>
        <time>2026-07-08T14:05:04Z</time>
      </trkpt>
      <trkpt lat="47.07185" lon="6.04711">
        <ele>493.6</ele>
        <time>2026-07-08T14:05:05Z</time>
      </trkpt>
      <trkpt lat="47.07183" lon="6.04711">
        <ele>493.4</ele>
        <time>2026-07-08T14:05:06Z</time>
      </trkpt>
      <trkpt lat="47.0718" lon="6.04712">
        <ele>493.4</ele>
        <time>2026-07-08T14:05:07Z</time>
      </trkpt>
      <trkpt lat="47.07178" lon="6.04713">
        <ele>493.4</ele>
        <time>2026-07-08T14:05:08Z</time>
      </trkpt>
      <trkpt lat="47.07175" lon="6.04713">
        <ele>493.6</ele>
        <time>2026-07-08T14:05:09Z</time>
      </trkpt>
      <trkpt lat="47.07172" lon="6.04714">
        <ele>493.8</ele>
        <time>2026-07-08T14:05:10Z</time>
      </trkpt>
      <trkpt lat="47.07169" lon="6.04715">
        <ele>493.6</ele>
        <time>2026-07-08T14:05:11Z</time>
      </trkpt>
      <trkpt lat="47.07167" lon="6.04715">
        <ele>493.8</ele>
        <time>2026-07-08T14:05:12Z</time>
      </trkpt>
      <trkpt lat="47.07167" lon="6.04715">
        <ele>494</ele>
        <time>2026-07-08T14:05:13Z</time>
      </trkpt>
      <trkpt lat="47.07162" lon="6.04715">
        <ele>494</ele>
        <time>2026-07-08T14:05:14Z</time>
      </trkpt>
      <trkpt lat="47.07159" lon="6.04716">
        <ele>494</ele>
        <time>2026-07-08T14:05:15Z</time>
      </trkpt>
      <trkpt lat="47.07157" lon="6.04717">
        <ele>494.2</ele>
        <time>2026-07-08T14:05:16Z</time>
      </trkpt>
      <trkpt lat="47.07154" lon="6.04718">
        <ele>494</ele>
        <time>2026-07-08T14:05:17Z</time>
      </trkpt>
      <trkpt lat="47.07152" lon="6.04718">
        <ele>494.2</ele>
        <time>2026-07-08T14:05:18Z</time>
      </trkpt>
      <trkpt lat="47.0715" lon="6.04719">
        <ele>494.4</ele>
        <time>2026-07-08T14:05:19Z</time>
      </trkpt>
      <trkpt lat="47.07148" lon="6.0472">
        <ele>494.4</ele>
        <time>2026-07-08T14:05:20Z</time>
      </trkpt>
      <trkpt lat="47.07146" lon="6.04721">
        <ele>494.4</ele>
        <time>2026-07-08T14:05:21Z</time>
      </trkpt>
      <trkpt lat="47.07144" lon="6.04724">
        <ele>494.6</ele>
        <time>2026-07-08T14:05:22Z</time>
      </trkpt>
      <trkpt lat="47.07142" lon="6.04726">
        <ele>494.6</ele>
        <time>2026-07-08T14:05:23Z</time>
      </trkpt>
      <trkpt lat="47.0714" lon="6.04728">
        <ele>495</ele>
        <time>2026-07-08T14:05:24Z</time>
      </trkpt>
      <trkpt lat="47.07138" lon="6.04731">
        <ele>495</ele>
        <time>2026-07-08T14:05:25Z</time>
      </trkpt>
      <trkpt lat="47.07135" lon="6.04733">
        <ele>495.2</ele>
        <time>2026-07-08T14:05:26Z</time>
      </trkpt>
      <trkpt lat="47.07133" lon="6.04736">
        <ele>495.4</ele>
        <time>2026-07-08T14:05:27Z</time>
      </trkpt>
      <trkpt lat="47.07131" lon="6.04738">
        <ele>495.4</ele>
        <time>2026-07-08T14:05:28Z</time>
      </trkpt>
      <trkpt lat="47.07129" lon="6.0474">
        <ele>495.4</ele>
        <time>2026-07-08T14:05:29Z</time>
      </trkpt>
      <trkpt lat="47.07127" lon="6.04741">
        <ele>495.4</ele>
        <time>2026-07-08T14:05:30Z</time>
      </trkpt>
      <trkpt lat="47.07125" lon="6.04743">
        <ele>495.6</ele>
        <time>2026-07-08T14:05:31Z</time>
      </trkpt>
      <trkpt lat="47.07123" lon="6.04745">
        <ele>495.8</ele>
        <time>2026-07-08T14:05:32Z</time>
      </trkpt>
      <trkpt lat="47.07122" lon="6.04747">
        <ele>496</ele>
        <time>2026-07-08T14:05:33Z</time>
      </trkpt>
      <trkpt lat="47.07122" lon="6.04747">
        <ele>496</ele>
        <time>2026-07-08T14:05:34Z</time>
      </trkpt>
      <trkpt lat="47.07119" lon="6.04752">
        <ele>496.2</ele>
        <time>2026-07-08T14:05:35Z</time>
      </trkpt>
      <trkpt lat="47.07118" lon="6.04754">
        <ele>496.2</ele>
        <time>2026-07-08T14:05:36Z</time>
      </trkpt>
      <trkpt lat="47.07117" lon="6.04756">
        <ele>496.4</ele>
        <time>2026-07-08T14:05:37Z</time>
      </trkpt>
      <trkpt lat="47.07115" lon="6.04758">
        <ele>496.6</ele>
        <time>2026-07-08T14:05:38Z</time>
      </trkpt>
      <trkpt lat="47.07113" lon="6.0476">
        <ele>496.6</ele>
        <time>2026-07-08T14:05:39Z</time>
      </trkpt>
      <trkpt lat="47.07111" lon="6.04761">
        <ele>496.8</ele>
        <time>2026-07-08T14:05:40Z</time>
      </trkpt>
      <trkpt lat="47.07111" lon="6.04761">
        <ele>497</ele>
        <time>2026-07-08T14:05:41Z</time>
      </trkpt>
      <trkpt lat="47.07108" lon="6.04763">
        <ele>497</ele>
        <time>2026-07-08T14:05:42Z</time>
      </trkpt>
      <trkpt lat="47.07106" lon="6.04765">
        <ele>497</ele>
        <time>2026-07-08T14:05:43Z</time>
      </trkpt>
      <trkpt lat="47.07105" lon="6.04767">
        <ele>497.2</ele>
        <time>2026-07-08T14:05:44Z</time>
      </trkpt>
      <trkpt lat="47.07103" lon="6.04769">
        <ele>497</ele>
        <time>2026-07-08T14:05:45Z</time>
      </trkpt>
      <trkpt lat="47.07102" lon="6.04771">
        <ele>497</ele>
        <time>2026-07-08T14:05:46Z</time>
      </trkpt>
      <trkpt lat="47.071" lon="6.04773">
        <ele>497.2</ele>
        <time>2026-07-08T14:05:47Z</time>
      </trkpt>
      <trkpt lat="47.07098" lon="6.04774">
        <ele>497</ele>
        <time>2026-07-08T14:05:48Z</time>
      </trkpt>
      <trkpt lat="47.07096" lon="6.04776">
        <ele>497.2</ele>
        <time>2026-07-08T14:05:49Z</time>
      </trkpt>
      <trkpt lat="47.07094" lon="6.04778">
        <ele>497.2</ele>
        <time>2026-07-08T14:05:50Z</time>
      </trkpt>
      <trkpt lat="47.07093" lon="6.0478">
        <ele>497.4</ele>
        <time>2026-07-08T14:05:51Z</time>
      </trkpt>
      <trkpt lat="47.07091" lon="6.04782">
        <ele>497.4</ele>
        <time>2026-07-08T14:05:52Z</time>
      </trkpt>
      <trkpt lat="47.07089" lon="6.04784">
        <ele>497.6</ele>
        <time>2026-07-08T14:05:53Z</time>
      </trkpt>
      <trkpt lat="47.07086" lon="6.04786">
        <ele>497.8</ele>
        <time>2026-07-08T14:05:54Z</time>
      </trkpt>
      <trkpt lat="47.07084" lon="6.04788">
        <ele>497.6</ele>
        <time>2026-07-08T14:05:55Z</time>
      </trkpt>
      <trkpt lat="47.07081" lon="6.04791">
        <ele>497.8</ele>
        <time>2026-07-08T14:05:56Z</time>
      </trkpt>
      <trkpt lat="47.07079" lon="6.04793">
        <ele>497.8</ele>
        <time>2026-07-08T14:05:57Z</time>
      </trkpt>
      <trkpt lat="47.07076" lon="6.04795">
        <ele>498</ele>
        <time>2026-07-08T14:05:58Z</time>
      </trkpt>
      <trkpt lat="47.07075" lon="6.04797">
        <ele>498.4</ele>
        <time>2026-07-08T14:05:59Z</time>
      </trkpt>
      <trkpt lat="47.07075" lon="6.04797">
        <ele>498.6</ele>
        <time>2026-07-08T14:06:00Z</time>
      </trkpt>
      <trkpt lat="47.07072" lon="6.04802">
        <ele>498.6</ele>
        <time>2026-07-08T14:06:01Z</time>
      </trkpt>
      <trkpt lat="47.07072" lon="6.04802">
        <ele>498.6</ele>
        <time>2026-07-08T14:06:02Z</time>
      </trkpt>
      <trkpt lat="47.07067" lon="6.04806">
        <ele>499</ele>
        <time>2026-07-08T14:06:03Z</time>
      </trkpt>
      <trkpt lat="47.07065" lon="6.04809">
        <ele>499</ele>
        <time>2026-07-08T14:06:04Z</time>
      </trkpt>
      <trkpt lat="47.07065" lon="6.04809">
        <ele>499</ele>
        <time>2026-07-08T14:06:05Z</time>
      </trkpt>
      <trkpt lat="47.07059" lon="6.04813">
        <ele>499</ele>
        <time>2026-07-08T14:06:06Z</time>
      </trkpt>
      <trkpt lat="47.07056" lon="6.04816">
        <ele>499.2</ele>
        <time>2026-07-08T14:06:07Z</time>
      </trkpt>
      <trkpt lat="47.07053" lon="6.04819">
        <ele>499.2</ele>
        <time>2026-07-08T14:06:08Z</time>
      </trkpt>
      <trkpt lat="47.07053" lon="6.04819">
        <ele>499.4</ele>
        <time>2026-07-08T14:06:09Z</time>
      </trkpt>
      <trkpt lat="47.07051" lon="6.04822">
        <ele>499.4</ele>
        <time>2026-07-08T14:06:10Z</time>
      </trkpt>
      <trkpt lat="47.07046" lon="6.04829">
        <ele>499.6</ele>
        <time>2026-07-08T14:06:11Z</time>
      </trkpt>
      <trkpt lat="47.07044" lon="6.04831">
        <ele>499.6</ele>
        <time>2026-07-08T14:06:12Z</time>
      </trkpt>
      <trkpt lat="47.07042" lon="6.04833">
        <ele>499.6</ele>
        <time>2026-07-08T14:06:13Z</time>
      </trkpt>
      <trkpt lat="47.07041" lon="6.04835">
        <ele>500</ele>
        <time>2026-07-08T14:06:14Z</time>
      </trkpt>
      <trkpt lat="47.0704" lon="6.04838">
        <ele>500</ele>
        <time>2026-07-08T14:06:15Z</time>
      </trkpt>
      <trkpt lat="47.07039" lon="6.0484">
        <ele>500</ele>
        <time>2026-07-08T14:06:16Z</time>
      </trkpt>
      <trkpt lat="47.07039" lon="6.0484">
        <ele>500</ele>
        <time>2026-07-08T14:06:17Z</time>
      </trkpt>
      <trkpt lat="47.07036" lon="6.04845">
        <ele>500.2</ele>
        <time>2026-07-08T14:06:18Z</time>
      </trkpt>
      <trkpt lat="47.07033" lon="6.04847">
        <ele>500.2</ele>
        <time>2026-07-08T14:06:19Z</time>
      </trkpt>
      <trkpt lat="47.07032" lon="6.04851">
        <ele>500.4</ele>
        <time>2026-07-08T14:06:20Z</time>
      </trkpt>
      <trkpt lat="47.07032" lon="6.04851">
        <ele>500.4</ele>
        <time>2026-07-08T14:06:21Z</time>
      </trkpt>
      <trkpt lat="47.07029" lon="6.04854">
        <ele>500.6</ele>
        <time>2026-07-08T14:06:22Z</time>
      </trkpt>
      <trkpt lat="47.07028" lon="6.04857">
        <ele>500.6</ele>
        <time>2026-07-08T14:06:23Z</time>
      </trkpt>
      <trkpt lat="47.07026" lon="6.04859">
        <ele>500.6</ele>
        <time>2026-07-08T14:06:24Z</time>
      </trkpt>
      <trkpt lat="47.07024" lon="6.04863">
        <ele>500.8</ele>
        <time>2026-07-08T14:06:25Z</time>
      </trkpt>
      <trkpt lat="47.0702" lon="6.04867">
        <ele>500.8</ele>
        <time>2026-07-08T14:06:26Z</time>
      </trkpt>
      <trkpt lat="47.07018" lon="6.04869">
        <ele>500.8</ele>
        <time>2026-07-08T14:06:27Z</time>
      </trkpt>
      <trkpt lat="47.07016" lon="6.04871">
        <ele>500.8</ele>
        <time>2026-07-08T14:06:28Z</time>
      </trkpt>
      <trkpt lat="47.07014" lon="6.04873">
        <ele>500.8</ele>
        <time>2026-07-08T14:06:29Z</time>
      </trkpt>
      <trkpt lat="47.07014" lon="6.04873">
        <ele>501</ele>
        <time>2026-07-08T14:06:30Z</time>
      </trkpt>
      <trkpt lat="47.07011" lon="6.04876">
        <ele>501</ele>
        <time>2026-07-08T14:06:31Z</time>
      </trkpt>
      <trkpt lat="47.07009" lon="6.04878">
        <ele>501</ele>
        <time>2026-07-08T14:06:32Z</time>
      </trkpt>
      <trkpt lat="47.07007" lon="6.04879">
        <ele>501.2</ele>
        <time>2026-07-08T14:06:33Z</time>
      </trkpt>
      <trkpt lat="47.07007" lon="6.04879">
        <ele>501.2</ele>
        <time>2026-07-08T14:06:34Z</time>
      </trkpt>
      <trkpt lat="47.07005" lon="6.0488">
        <ele>501.4</ele>
        <time>2026-07-08T14:06:35Z</time>
      </trkpt>
      <trkpt lat="47.07003" lon="6.04881">
        <ele>501.2</ele>
        <time>2026-07-08T14:06:36Z</time>
      </trkpt>
      <trkpt lat="47.06999" lon="6.04884">
        <ele>501.4</ele>
        <time>2026-07-08T14:06:37Z</time>
      </trkpt>
      <trkpt lat="47.06996" lon="6.04886">
        <ele>501.2</ele>
        <time>2026-07-08T14:06:38Z</time>
      </trkpt>
      <trkpt lat="47.06994" lon="6.04887">
        <ele>501.4</ele>
        <time>2026-07-08T14:06:39Z</time>
      </trkpt>
      <trkpt lat="47.06991" lon="6.04889">
        <ele>501.4</ele>
        <time>2026-07-08T14:06:40Z</time>
      </trkpt>
      <trkpt lat="47.0699" lon="6.04891">
        <ele>501.8</ele>
        <time>2026-07-08T14:06:41Z</time>
      </trkpt>
      <trkpt lat="47.06988" lon="6.04893">
        <ele>501.8</ele>
        <time>2026-07-08T14:06:42Z</time>
      </trkpt>
      <trkpt lat="47.06986" lon="6.04896">
        <ele>502</ele>
        <time>2026-07-08T14:06:43Z</time>
      </trkpt>
      <trkpt lat="47.06985" lon="6.04899">
        <ele>502.2</ele>
        <time>2026-07-08T14:06:44Z</time>
      </trkpt>
      <trkpt lat="47.06985" lon="6.04899">
        <ele>502.4</ele>
        <time>2026-07-08T14:06:45Z</time>
      </trkpt>
      <trkpt lat="47.06983" lon="6.04903">
        <ele>502.4</ele>
        <time>2026-07-08T14:06:46Z</time>
      </trkpt>
      <trkpt lat="47.06982" lon="6.04906">
        <ele>502.6</ele>
        <time>2026-07-08T14:06:47Z</time>
      </trkpt>
      <trkpt lat="47.06982" lon="6.04906">
        <ele>502.8</ele>
        <time>2026-07-08T14:06:48Z</time>
      </trkpt>
      <trkpt lat="47.0698" lon="6.04908">
        <ele>503</ele>
        <time>2026-07-08T14:06:49Z</time>
      </trkpt>
      <trkpt lat="47.06976" lon="6.04912">
        <ele>503.2</ele>
        <time>2026-07-08T14:06:50Z</time>
      </trkpt>
      <trkpt lat="47.06975" lon="6.04913">
        <ele>503.4</ele>
        <time>2026-07-08T14:06:51Z</time>
      </trkpt>
      <trkpt lat="47.06975" lon="6.04913">
        <ele>503.2</ele>
        <time>2026-07-08T14:06:52Z</time>
      </trkpt>
      <trkpt lat="47.06972" lon="6.04917">
        <ele>503.4</ele>
        <time>2026-07-08T14:06:53Z</time>
      </trkpt>
      <trkpt lat="47.06971" lon="6.04921">
        <ele>503.6</ele>
        <time>2026-07-08T14:06:54Z</time>
      </trkpt>
      <trkpt lat="47.06969" lon="6.04924">
        <ele>503.6</ele>
        <time>2026-07-08T14:06:55Z</time>
      </trkpt>
      <trkpt lat="47.06969" lon="6.04924">
        <ele>503.6</ele>
        <time>2026-07-08T14:06:56Z</time>
      </trkpt>
      <trkpt lat="47.06965" lon="6.04928">
        <ele>503.8</ele>
        <time>2026-07-08T14:06:57Z</time>
      </trkpt>
      <trkpt lat="47.06964" lon="6.0493">
        <ele>504</ele>
        <time>2026-07-08T14:06:58Z</time>
      </trkpt>
      <trkpt lat="47.06963" lon="6.04933">
        <ele>504</ele>
        <time>2026-07-08T14:06:59Z</time>
      </trkpt>
      <trkpt lat="47.06962" lon="6.04935">
        <ele>504</ele>
        <time>2026-07-08T14:07:00Z</time>
      </trkpt>
      <trkpt lat="47.06961" lon="6.04939">
        <ele>504.2</ele>
        <time>2026-07-08T14:07:01Z</time>
      </trkpt>
      <trkpt lat="47.06961" lon="6.04939">
        <ele>504.2</ele>
        <time>2026-07-08T14:07:02Z</time>
      </trkpt>
      <trkpt lat="47.06957" lon="6.04944">
        <ele>504.2</ele>
        <time>2026-07-08T14:07:03Z</time>
      </trkpt>
      <trkpt lat="47.06957" lon="6.04944">
        <ele>504.4</ele>
        <time>2026-07-08T14:07:04Z</time>
      </trkpt>
      <trkpt lat="47.06951" lon="6.04949">
        <ele>504.6</ele>
        <time>2026-07-08T14:07:05Z</time>
      </trkpt>
      <trkpt lat="47.06951" lon="6.04949">
        <ele>504.6</ele>
        <time>2026-07-08T14:07:06Z</time>
      </trkpt>
      <trkpt lat="47.06946" lon="6.04955">
        <ele>504.8</ele>
        <time>2026-07-08T14:07:07Z</time>
      </trkpt>
      <trkpt lat="47.06944" lon="6.04958">
        <ele>505</ele>
        <time>2026-07-08T14:07:08Z</time>
      </trkpt>
      <trkpt lat="47.06944" lon="6.04958">
        <ele>505</ele>
        <time>2026-07-08T14:07:09Z</time>
      </trkpt>
      <trkpt lat="47.06937" lon="6.04961">
        <ele>505.2</ele>
        <time>2026-07-08T14:07:10Z</time>
      </trkpt>
      <trkpt lat="47.06934" lon="6.04962">
        <ele>505.2</ele>
        <time>2026-07-08T14:07:11Z</time>
      </trkpt>
      <trkpt lat="47.06931" lon="6.04963">
        <ele>505.4</ele>
        <time>2026-07-08T14:07:12Z</time>
      </trkpt>
      <trkpt lat="47.06929" lon="6.04964">
        <ele>505.6</ele>
        <time>2026-07-08T14:07:13Z</time>
      </trkpt>
      <trkpt lat="47.06927" lon="6.04966">
        <ele>505.8</ele>
        <time>2026-07-08T14:07:14Z</time>
      </trkpt>
      <trkpt lat="47.06925" lon="6.04968">
        <ele>505.6</ele>
        <time>2026-07-08T14:07:15Z</time>
      </trkpt>
      <trkpt lat="47.06922" lon="6.0497">
        <ele>505.8</ele>
        <time>2026-07-08T14:07:16Z</time>
      </trkpt>
      <trkpt lat="47.06922" lon="6.0497">
        <ele>505.8</ele>
        <time>2026-07-08T14:07:17Z</time>
      </trkpt>
      <trkpt lat="47.06921" lon="6.04972">
        <ele>505.8</ele>
        <time>2026-07-08T14:07:18Z</time>
      </trkpt>
      <trkpt lat="47.06914" lon="6.04976">
        <ele>505.8</ele>
        <time>2026-07-08T14:07:19Z</time>
      </trkpt>
      <trkpt lat="47.06911" lon="6.04978">
        <ele>506</ele>
        <time>2026-07-08T14:07:20Z</time>
      </trkpt>
      <trkpt lat="47.06908" lon="6.0498">
        <ele>506.2</ele>
        <time>2026-07-08T14:07:21Z</time>
      </trkpt>
      <trkpt lat="47.06906" lon="6.04982">
        <ele>506.4</ele>
        <time>2026-07-08T14:07:22Z</time>
      </trkpt>
      <trkpt lat="47.06904" lon="6.04985">
        <ele>506.4</ele>
        <time>2026-07-08T14:07:23Z</time>
      </trkpt>
      <trkpt lat="47.06904" lon="6.04985">
        <ele>506.6</ele>
        <time>2026-07-08T14:07:24Z</time>
      </trkpt>
      <trkpt lat="47.06902" lon="6.04988">
        <ele>506.6</ele>
        <time>2026-07-08T14:07:25Z</time>
      </trkpt>
      <trkpt lat="47.06898" lon="6.04992">
        <ele>506.6</ele>
        <time>2026-07-08T14:07:26Z</time>
      </trkpt>
      <trkpt lat="47.06898" lon="6.04992">
        <ele>506.6</ele>
        <time>2026-07-08T14:07:27Z</time>
      </trkpt>
      <trkpt lat="47.06892" lon="6.04995">
        <ele>506.6</ele>
        <time>2026-07-08T14:07:28Z</time>
      </trkpt>
      <trkpt lat="47.06889" lon="6.04997">
        <ele>506.8</ele>
        <time>2026-07-08T14:07:29Z</time>
      </trkpt>
      <trkpt lat="47.06887" lon="6.04999">
        <ele>506.8</ele>
        <time>2026-07-08T14:07:30Z</time>
      </trkpt>
      <trkpt lat="47.06884" lon="6.05">
        <ele>507</ele>
        <time>2026-07-08T14:07:31Z</time>
      </trkpt>
      <trkpt lat="47.06882" lon="6.05003">
        <ele>507</ele>
        <time>2026-07-08T14:07:32Z</time>
      </trkpt>
      <trkpt lat="47.0688" lon="6.05005">
        <ele>507</ele>
        <time>2026-07-08T14:07:33Z</time>
      </trkpt>
      <trkpt lat="47.06878" lon="6.05007">
        <ele>507.2</ele>
        <time>2026-07-08T14:07:34Z</time>
      </trkpt>
      <trkpt lat="47.06876" lon="6.05009">
        <ele>507.4</ele>
        <time>2026-07-08T14:07:35Z</time>
      </trkpt>
      <trkpt lat="47.06873" lon="6.05011">
        <ele>507.4</ele>
        <time>2026-07-08T14:07:36Z</time>
      </trkpt>
      <trkpt lat="47.0687" lon="6.05012">
        <ele>507.4</ele>
        <time>2026-07-08T14:07:37Z</time>
      </trkpt>
      <trkpt lat="47.06869" lon="6.05014">
        <ele>507.4</ele>
        <time>2026-07-08T14:07:38Z</time>
      </trkpt>
      <trkpt lat="47.06866" lon="6.05015">
        <ele>507.6</ele>
        <time>2026-07-08T14:07:39Z</time>
      </trkpt>
      <trkpt lat="47.06864" lon="6.05016">
        <ele>507.6</ele>
        <time>2026-07-08T14:07:40Z</time>
      </trkpt>
      <trkpt lat="47.06862" lon="6.05017">
        <ele>507.6</ele>
        <time>2026-07-08T14:07:41Z</time>
      </trkpt>
      <trkpt lat="47.0686" lon="6.05019">
        <ele>507.8</ele>
        <time>2026-07-08T14:07:42Z</time>
      </trkpt>
      <trkpt lat="47.06858" lon="6.05021">
        <ele>508</ele>
        <time>2026-07-08T14:07:43Z</time>
      </trkpt>
      <trkpt lat="47.06856" lon="6.05023">
        <ele>508</ele>
        <time>2026-07-08T14:07:44Z</time>
      </trkpt>
      <trkpt lat="47.06854" lon="6.05025">
        <ele>508</ele>
        <time>2026-07-08T14:07:45Z</time>
      </trkpt>
      <trkpt lat="47.06853" lon="6.05028">
        <ele>508.4</ele>
        <time>2026-07-08T14:07:46Z</time>
      </trkpt>
      <trkpt lat="47.06852" lon="6.05031">
        <ele>508.4</ele>
        <time>2026-07-08T14:07:47Z</time>
      </trkpt>
      <trkpt lat="47.06852" lon="6.05031">
        <ele>508.4</ele>
        <time>2026-07-08T14:07:48Z</time>
      </trkpt>
      <trkpt lat="47.06847" lon="6.05034">
        <ele>508.6</ele>
        <time>2026-07-08T14:07:49Z</time>
      </trkpt>
      <trkpt lat="47.06845" lon="6.05036">
        <ele>508.6</ele>
        <time>2026-07-08T14:07:50Z</time>
      </trkpt>
      <trkpt lat="47.06843" lon="6.05038">
        <ele>508.8</ele>
        <time>2026-07-08T14:07:51Z</time>
      </trkpt>
      <trkpt lat="47.06842" lon="6.0504">
        <ele>509</ele>
        <time>2026-07-08T14:07:52Z</time>
      </trkpt>
      <trkpt lat="47.06841" lon="6.05042">
        <ele>509</ele>
        <time>2026-07-08T14:07:53Z</time>
      </trkpt>
      <trkpt lat="47.06839" lon="6.05044">
        <ele>509</ele>
        <time>2026-07-08T14:07:54Z</time>
      </trkpt>
      <trkpt lat="47.06837" lon="6.05046">
        <ele>509.4</ele>
        <time>2026-07-08T14:07:55Z</time>
      </trkpt>
      <trkpt lat="47.06837" lon="6.05046">
        <ele>509.2</ele>
        <time>2026-07-08T14:07:56Z</time>
      </trkpt>
      <trkpt lat="47.06833" lon="6.0505">
        <ele>509.6</ele>
        <time>2026-07-08T14:07:57Z</time>
      </trkpt>
      <trkpt lat="47.0683" lon="6.05052">
        <ele>509.6</ele>
        <time>2026-07-08T14:07:58Z</time>
      </trkpt>
      <trkpt lat="47.0683" lon="6.05052">
        <ele>509.8</ele>
        <time>2026-07-08T14:07:59Z</time>
      </trkpt>
      <trkpt lat="47.06827" lon="6.05053">
        <ele>509.8</ele>
        <time>2026-07-08T14:08:00Z</time>
      </trkpt>
      <trkpt lat="47.06822" lon="6.05056">
        <ele>510</ele>
        <time>2026-07-08T14:08:01Z</time>
      </trkpt>
      <trkpt lat="47.0682" lon="6.05058">
        <ele>510.2</ele>
        <time>2026-07-08T14:08:02Z</time>
      </trkpt>
      <trkpt lat="47.06817" lon="6.0506">
        <ele>510</ele>
        <time>2026-07-08T14:08:03Z</time>
      </trkpt>
      <trkpt lat="47.06815" lon="6.05062">
        <ele>510</ele>
        <time>2026-07-08T14:08:04Z</time>
      </trkpt>
      <trkpt lat="47.06812" lon="6.05065">
        <ele>510.2</ele>
        <time>2026-07-08T14:08:05Z</time>
      </trkpt>
      <trkpt lat="47.06809" lon="6.05067">
        <ele>510.4</ele>
        <time>2026-07-08T14:08:06Z</time>
      </trkpt>
      <trkpt lat="47.06807" lon="6.05069">
        <ele>510.4</ele>
        <time>2026-07-08T14:08:07Z</time>
      </trkpt>
      <trkpt lat="47.06805" lon="6.05072">
        <ele>510.6</ele>
        <time>2026-07-08T14:08:08Z</time>
      </trkpt>
      <trkpt lat="47.06803" lon="6.05073">
        <ele>510.8</ele>
        <time>2026-07-08T14:08:09Z</time>
      </trkpt>
      <trkpt lat="47.068" lon="6.05074">
        <ele>510.8</ele>
        <time>2026-07-08T14:08:10Z</time>
      </trkpt>
      <trkpt lat="47.06798" lon="6.05075">
        <ele>511</ele>
        <time>2026-07-08T14:08:11Z</time>
      </trkpt>
      <trkpt lat="47.06796" lon="6.05076">
        <ele>511.2</ele>
        <time>2026-07-08T14:08:12Z</time>
      </trkpt>
      <trkpt lat="47.06794" lon="6.05076">
        <ele>511.2</ele>
        <time>2026-07-08T14:08:13Z</time>
      </trkpt>
      <trkpt lat="47.06794" lon="6.05076">
        <ele>511.2</ele>
        <time>2026-07-08T14:08:14Z</time>
      </trkpt>
      <trkpt lat="47.06791" lon="6.05078">
        <ele>511.2</ele>
        <time>2026-07-08T14:08:15Z</time>
      </trkpt>
      <trkpt lat="47.06788" lon="6.05081">
        <ele>511.2</ele>
        <time>2026-07-08T14:08:16Z</time>
      </trkpt>
      <trkpt lat="47.06786" lon="6.05083">
        <ele>511.6</ele>
        <time>2026-07-08T14:08:17Z</time>
      </trkpt>
      <trkpt lat="47.06785" lon="6.05086">
        <ele>511.6</ele>
        <time>2026-07-08T14:08:18Z</time>
      </trkpt>
      <trkpt lat="47.06783" lon="6.05087">
        <ele>511.8</ele>
        <time>2026-07-08T14:08:19Z</time>
      </trkpt>
      <trkpt lat="47.06782" lon="6.05088">
        <ele>511.8</ele>
        <time>2026-07-08T14:08:20Z</time>
      </trkpt>
      <trkpt lat="47.06781" lon="6.05091">
        <ele>512</ele>
        <time>2026-07-08T14:08:21Z</time>
      </trkpt>
      <trkpt lat="47.0678" lon="6.05092">
        <ele>512.2</ele>
        <time>2026-07-08T14:08:22Z</time>
      </trkpt>
      <trkpt lat="47.06779" lon="6.05095">
        <ele>512.2</ele>
        <time>2026-07-08T14:08:23Z</time>
      </trkpt>
      <trkpt lat="47.06777" lon="6.05096">
        <ele>512.2</ele>
        <time>2026-07-08T14:08:24Z</time>
      </trkpt>
      <trkpt lat="47.06773" lon="6.05101">
        <ele>512.4</ele>
        <time>2026-07-08T14:08:25Z</time>
      </trkpt>
      <trkpt lat="47.06771" lon="6.05104">
        <ele>512.4</ele>
        <time>2026-07-08T14:08:26Z</time>
      </trkpt>
      <trkpt lat="47.06768" lon="6.05107">
        <ele>512.4</ele>
        <time>2026-07-08T14:08:27Z</time>
      </trkpt>
      <trkpt lat="47.06765" lon="6.05109">
        <ele>512.4</ele>
        <time>2026-07-08T14:08:28Z</time>
      </trkpt>
      <trkpt lat="47.06763" lon="6.05111">
        <ele>512.6</ele>
        <time>2026-07-08T14:08:29Z</time>
      </trkpt>
      <trkpt lat="47.06761" lon="6.05113">
        <ele>512.8</ele>
        <time>2026-07-08T14:08:30Z</time>
      </trkpt>
      <trkpt lat="47.06759" lon="6.05115">
        <ele>512.8</ele>
        <time>2026-07-08T14:08:31Z</time>
      </trkpt>
      <trkpt lat="47.06757" lon="6.05117">
        <ele>513</ele>
        <time>2026-07-08T14:08:32Z</time>
      </trkpt>
      <trkpt lat="47.06754" lon="6.05118">
        <ele>513</ele>
        <time>2026-07-08T14:08:33Z</time>
      </trkpt>
      <trkpt lat="47.06752" lon="6.05119">
        <ele>513.2</ele>
        <time>2026-07-08T14:08:34Z</time>
      </trkpt>
      <trkpt lat="47.0675" lon="6.05122">
        <ele>513.2</ele>
        <time>2026-07-08T14:08:35Z</time>
      </trkpt>
      <trkpt lat="47.06748" lon="6.05123">
        <ele>513.2</ele>
        <time>2026-07-08T14:08:36Z</time>
      </trkpt>
      <trkpt lat="47.06746" lon="6.05125">
        <ele>513.4</ele>
        <time>2026-07-08T14:08:37Z</time>
      </trkpt>
      <trkpt lat="47.06744" lon="6.05127">
        <ele>513.4</ele>
        <time>2026-07-08T14:08:38Z</time>
      </trkpt>
      <trkpt lat="47.06742" lon="6.05128">
        <ele>513.4</ele>
        <time>2026-07-08T14:08:39Z</time>
      </trkpt>
      <trkpt lat="47.06741" lon="6.0513">
        <ele>513.6</ele>
        <time>2026-07-08T14:08:40Z</time>
      </trkpt>
      <trkpt lat="47.06741" lon="6.0513">
        <ele>513.8</ele>
        <time>2026-07-08T14:08:41Z</time>
      </trkpt>
      <trkpt lat="47.06741" lon="6.05132">
        <ele>513.8</ele>
        <time>2026-07-08T14:08:42Z</time>
      </trkpt>
      <trkpt lat="47.06739" lon="6.05134">
        <ele>514</ele>
        <time>2026-07-08T14:08:43Z</time>
      </trkpt>
      <trkpt lat="47.06737" lon="6.05137">
        <ele>514</ele>
        <time>2026-07-08T14:08:44Z</time>
      </trkpt>
      <trkpt lat="47.06735" lon="6.05139">
        <ele>514</ele>
        <time>2026-07-08T14:08:45Z</time>
      </trkpt>
      <trkpt lat="47.06734" lon="6.05141">
        <ele>514</ele>
        <time>2026-07-08T14:08:46Z</time>
      </trkpt>
      <trkpt lat="47.06733" lon="6.05144">
        <ele>514</ele>
        <time>2026-07-08T14:08:47Z</time>
      </trkpt>
      <trkpt lat="47.06731" lon="6.05146">
        <ele>514</ele>
        <time>2026-07-08T14:08:48Z</time>
      </trkpt>
      <trkpt lat="47.06729" lon="6.0515">
        <ele>514.2</ele>
        <time>2026-07-08T14:08:49Z</time>
      </trkpt>
      <trkpt lat="47.06726" lon="6.05153">
        <ele>514.2</ele>
        <time>2026-07-08T14:08:50Z</time>
      </trkpt>
      <trkpt lat="47.06723" lon="6.05156">
        <ele>514.4</ele>
        <time>2026-07-08T14:08:51Z</time>
      </trkpt>
      <trkpt lat="47.06721" lon="6.05158">
        <ele>514.4</ele>
        <time>2026-07-08T14:08:52Z</time>
      </trkpt>
      <trkpt lat="47.06719" lon="6.0516">
        <ele>514.6</ele>
        <time>2026-07-08T14:08:53Z</time>
      </trkpt>
      <trkpt lat="47.06717" lon="6.05162">
        <ele>514.6</ele>
        <time>2026-07-08T14:08:54Z</time>
      </trkpt>
      <trkpt lat="47.06715" lon="6.05163">
        <ele>515</ele>
        <time>2026-07-08T14:08:55Z</time>
      </trkpt>
      <trkpt lat="47.06713" lon="6.05164">
        <ele>515.2</ele>
        <time>2026-07-08T14:08:56Z</time>
      </trkpt>
      <trkpt lat="47.06711" lon="6.05166">
        <ele>515.4</ele>
        <time>2026-07-08T14:08:57Z</time>
      </trkpt>
      <trkpt lat="47.06709" lon="6.05169">
        <ele>515.4</ele>
        <time>2026-07-08T14:08:58Z</time>
      </trkpt>
      <trkpt lat="47.06707" lon="6.05172">
        <ele>515.6</ele>
        <time>2026-07-08T14:08:59Z</time>
      </trkpt>
      <trkpt lat="47.06704" lon="6.05173">
        <ele>515.8</ele>
        <time>2026-07-08T14:09:00Z</time>
      </trkpt>
      <trkpt lat="47.06702" lon="6.05174">
        <ele>515.8</ele>
        <time>2026-07-08T14:09:01Z</time>
      </trkpt>
      <trkpt lat="47.067" lon="6.05177">
        <ele>515.8</ele>
        <time>2026-07-08T14:09:02Z</time>
      </trkpt>
      <trkpt lat="47.067" lon="6.05177">
        <ele>516.2</ele>
        <time>2026-07-08T14:09:03Z</time>
      </trkpt>
      <trkpt lat="47.06697" lon="6.05178">
        <ele>516.4</ele>
        <time>2026-07-08T14:09:04Z</time>
      </trkpt>
      <trkpt lat="47.06692" lon="6.05182">
        <ele>516.6</ele>
        <time>2026-07-08T14:09:05Z</time>
      </trkpt>
      <trkpt lat="47.06691" lon="6.05184">
        <ele>516.8</ele>
        <time>2026-07-08T14:09:06Z</time>
      </trkpt>
      <trkpt lat="47.06689" lon="6.05186">
        <ele>516.8</ele>
        <time>2026-07-08T14:09:07Z</time>
      </trkpt>
      <trkpt lat="47.06688" lon="6.05188">
        <ele>517</ele>
        <time>2026-07-08T14:09:08Z</time>
      </trkpt>
      <trkpt lat="47.06687" lon="6.05192">
        <ele>517</ele>
        <time>2026-07-08T14:09:09Z</time>
      </trkpt>
      <trkpt lat="47.06687" lon="6.05192">
        <ele>517</ele>
        <time>2026-07-08T14:09:10Z</time>
      </trkpt>
      <trkpt lat="47.06685" lon="6.05198">
        <ele>517</ele>
        <time>2026-07-08T14:09:11Z</time>
      </trkpt>
      <trkpt lat="47.06684" lon="6.052">
        <ele>517</ele>
        <time>2026-07-08T14:09:12Z</time>
      </trkpt>
      <trkpt lat="47.06682" lon="6.05202">
        <ele>517.2</ele>
        <time>2026-07-08T14:09:13Z</time>
      </trkpt>
      <trkpt lat="47.06681" lon="6.05204">
        <ele>517.2</ele>
        <time>2026-07-08T14:09:14Z</time>
      </trkpt>
      <trkpt lat="47.06681" lon="6.05209">
        <ele>517.2</ele>
        <time>2026-07-08T14:09:15Z</time>
      </trkpt>
      <trkpt lat="47.06679" lon="6.05213">
        <ele>517.4</ele>
        <time>2026-07-08T14:09:16Z</time>
      </trkpt>
      <trkpt lat="47.06679" lon="6.05216">
        <ele>517.6</ele>
        <time>2026-07-08T14:09:17Z</time>
      </trkpt>
      <trkpt lat="47.06678" lon="6.05219">
        <ele>517.8</ele>
        <time>2026-07-08T14:09:18Z</time>
      </trkpt>
      <trkpt lat="47.06677" lon="6.05224">
        <ele>517.8</ele>
        <time>2026-07-08T14:09:19Z</time>
      </trkpt>
      <trkpt lat="47.06676" lon="6.05227">
        <ele>518</ele>
        <time>2026-07-08T14:09:20Z</time>
      </trkpt>
      <trkpt lat="47.06675" lon="6.05231">
        <ele>518</ele>
        <time>2026-07-08T14:09:21Z</time>
      </trkpt>
      <trkpt lat="47.06674" lon="6.05234">
        <ele>518.2</ele>
        <time>2026-07-08T14:09:22Z</time>
      </trkpt>
      <trkpt lat="47.06673" lon="6.05238">
        <ele>518.2</ele>
        <time>2026-07-08T14:09:23Z</time>
      </trkpt>
      <trkpt lat="47.06672" lon="6.05242">
        <ele>518.2</ele>
        <time>2026-07-08T14:09:24Z</time>
      </trkpt>
      <trkpt lat="47.06671" lon="6.05246">
        <ele>518.4</ele>
        <time>2026-07-08T14:09:25Z</time>
      </trkpt>
      <trkpt lat="47.06671" lon="6.05249">
        <ele>518.4</ele>
        <time>2026-07-08T14:09:26Z</time>
      </trkpt>
      <trkpt lat="47.0667" lon="6.05254">
        <ele>518.6</ele>
        <time>2026-07-08T14:09:27Z</time>
      </trkpt>
      <trkpt lat="47.06669" lon="6.05257">
        <ele>518.6</ele>
        <time>2026-07-08T14:09:28Z</time>
      </trkpt>
      <trkpt lat="47.06669" lon="6.05261">
        <ele>519</ele>
        <time>2026-07-08T14:09:29Z</time>
      </trkpt>
      <trkpt lat="47.06668" lon="6.05265">
        <ele>519</ele>
        <time>2026-07-08T14:09:30Z</time>
      </trkpt>
      <trkpt lat="47.06668" lon="6.05265">
        <ele>519</ele>
        <time>2026-07-08T14:09:31Z</time>
      </trkpt>
      <trkpt lat="47.06669" lon="6.05274">
        <ele>519.2</ele>
        <time>2026-07-08T14:09:32Z</time>
      </trkpt>
      <trkpt lat="47.06668" lon="6.05279">
        <ele>519.2</ele>
        <time>2026-07-08T14:09:33Z</time>
      </trkpt>
      <trkpt lat="47.06668" lon="6.05279">
        <ele>519.4</ele>
        <time>2026-07-08T14:09:34Z</time>
      </trkpt>
      <trkpt lat="47.06663" lon="6.05289">
        <ele>519.4</ele>
        <time>2026-07-08T14:09:35Z</time>
      </trkpt>
      <trkpt lat="47.06662" lon="6.05292">
        <ele>519.6</ele>
        <time>2026-07-08T14:09:36Z</time>
      </trkpt>
      <trkpt lat="47.06661" lon="6.05295">
        <ele>519.8</ele>
        <time>2026-07-08T14:09:37Z</time>
      </trkpt>
      <trkpt lat="47.0666" lon="6.05299">
        <ele>519.8</ele>
        <time>2026-07-08T14:09:38Z</time>
      </trkpt>
      <trkpt lat="47.0666" lon="6.05302">
        <ele>520</ele>
        <time>2026-07-08T14:09:39Z</time>
      </trkpt>
      <trkpt lat="47.06659" lon="6.05305">
        <ele>520</ele>
        <time>2026-07-08T14:09:40Z</time>
      </trkpt>
      <trkpt lat="47.06658" lon="6.05309">
        <ele>520.2</ele>
        <time>2026-07-08T14:09:41Z</time>
      </trkpt>
      <trkpt lat="47.06657" lon="6.05312">
        <ele>520.4</ele>
        <time>2026-07-08T14:09:42Z</time>
      </trkpt>
      <trkpt lat="47.06656" lon="6.05316">
        <ele>520.4</ele>
        <time>2026-07-08T14:09:43Z</time>
      </trkpt>
      <trkpt lat="47.06655" lon="6.0532">
        <ele>520.4</ele>
        <time>2026-07-08T14:09:44Z</time>
      </trkpt>
      <trkpt lat="47.06655" lon="6.05324">
        <ele>520.6</ele>
        <time>2026-07-08T14:09:45Z</time>
      </trkpt>
      <trkpt lat="47.06654" lon="6.05328">
        <ele>520.6</ele>
        <time>2026-07-08T14:09:46Z</time>
      </trkpt>
      <trkpt lat="47.06654" lon="6.05328">
        <ele>520.8</ele>
        <time>2026-07-08T14:09:47Z</time>
      </trkpt>
      <trkpt lat="47.06652" lon="6.05336">
        <ele>520.8</ele>
        <time>2026-07-08T14:09:48Z</time>
      </trkpt>
      <trkpt lat="47.06652" lon="6.05336">
        <ele>521</ele>
        <time>2026-07-08T14:09:49Z</time>
      </trkpt>
      <trkpt lat="47.06651" lon="6.05343">
        <ele>521</ele>
        <time>2026-07-08T14:09:50Z</time>
      </trkpt>
      <trkpt lat="47.06651" lon="6.05346">
        <ele>521.2</ele>
        <time>2026-07-08T14:09:51Z</time>
      </trkpt>
      <trkpt lat="47.06649" lon="6.0535">
        <ele>521.4</ele>
        <time>2026-07-08T14:09:52Z</time>
      </trkpt>
      <trkpt lat="47.06649" lon="6.05353">
        <ele>521.2</ele>
        <time>2026-07-08T14:09:53Z</time>
      </trkpt>
      <trkpt lat="47.06648" lon="6.05356">
        <ele>521.4</ele>
        <time>2026-07-08T14:09:54Z</time>
      </trkpt>
      <trkpt lat="47.06647" lon="6.05359">
        <ele>521.4</ele>
        <time>2026-07-08T14:09:55Z</time>
      </trkpt>
      <trkpt lat="47.06646" lon="6.05362">
        <ele>521.6</ele>
        <time>2026-07-08T14:09:56Z</time>
      </trkpt>
      <trkpt lat="47.06645" lon="6.05364">
        <ele>521.8</ele>
        <time>2026-07-08T14:09:57Z</time>
      </trkpt>
      <trkpt lat="47.06644" lon="6.05366">
        <ele>522</ele>
        <time>2026-07-08T14:09:58Z</time>
      </trkpt>
      <trkpt lat="47.06644" lon="6.05366">
        <ele>522.2</ele>
        <time>2026-07-08T14:09:59Z</time>
      </trkpt>
      <trkpt lat="47.06643" lon="6.05367">
        <ele>522.4</ele>
        <time>2026-07-08T14:10:00Z</time>
      </trkpt>
      <trkpt lat="47.06643" lon="6.0537">
        <ele>522.4</ele>
        <time>2026-07-08T14:10:01Z</time>
      </trkpt>
      <trkpt lat="47.0664" lon="6.05377">
        <ele>522.4</ele>
        <time>2026-07-08T14:10:02Z</time>
      </trkpt>
      <trkpt lat="47.06638" lon="6.0538">
        <ele>522.4</ele>
        <time>2026-07-08T14:10:03Z</time>
      </trkpt>
      <trkpt lat="47.06637" lon="6.05385">
        <ele>522.6</ele>
        <time>2026-07-08T14:10:04Z</time>
      </trkpt>
      <trkpt lat="47.06634" lon="6.05389">
        <ele>522.6</ele>
        <time>2026-07-08T14:10:05Z</time>
      </trkpt>
      <trkpt lat="47.06633" lon="6.05393">
        <ele>522.6</ele>
        <time>2026-07-08T14:10:06Z</time>
      </trkpt>
      <trkpt lat="47.06633" lon="6.05393">
        <ele>522.8</ele>
        <time>2026-07-08T14:10:07Z</time>
      </trkpt>
      <trkpt lat="47.06629" lon="6.05401">
        <ele>523.2</ele>
        <time>2026-07-08T14:10:08Z</time>
      </trkpt>
      <trkpt lat="47.06628" lon="6.05404">
        <ele>523.4</ele>
        <time>2026-07-08T14:10:09Z</time>
      </trkpt>
      <trkpt lat="47.06626" lon="6.05408">
        <ele>523.4</ele>
        <time>2026-07-08T14:10:10Z</time>
      </trkpt>
      <trkpt lat="47.06624" lon="6.05412">
        <ele>523.6</ele>
        <time>2026-07-08T14:10:11Z</time>
      </trkpt>
      <trkpt lat="47.06621" lon="6.05416">
        <ele>523.6</ele>
        <time>2026-07-08T14:10:12Z</time>
      </trkpt>
      <trkpt lat="47.0662" lon="6.05419">
        <ele>523.4</ele>
        <time>2026-07-08T14:10:13Z</time>
      </trkpt>
      <trkpt lat="47.06619" lon="6.05423">
        <ele>523.8</ele>
        <time>2026-07-08T14:10:14Z</time>
      </trkpt>
      <trkpt lat="47.06619" lon="6.05423">
        <ele>523.8</ele>
        <time>2026-07-08T14:10:15Z</time>
      </trkpt>
      <trkpt lat="47.06616" lon="6.05428">
        <ele>524</ele>
        <time>2026-07-08T14:10:16Z</time>
      </trkpt>
      <trkpt lat="47.06614" lon="6.05431">
        <ele>524</ele>
        <time>2026-07-08T14:10:17Z</time>
      </trkpt>
      <trkpt lat="47.06613" lon="6.05433">
        <ele>524</ele>
        <time>2026-07-08T14:10:18Z</time>
      </trkpt>
      <trkpt lat="47.06612" lon="6.05435">
        <ele>524.2</ele>
        <time>2026-07-08T14:10:19Z</time>
      </trkpt>
      <trkpt lat="47.06611" lon="6.05437">
        <ele>524.2</ele>
        <time>2026-07-08T14:10:20Z</time>
      </trkpt>
      <trkpt lat="47.06609" lon="6.05439">
        <ele>524.6</ele>
        <time>2026-07-08T14:10:21Z</time>
      </trkpt>
      <trkpt lat="47.06608" lon="6.05441">
        <ele>524.6</ele>
        <time>2026-07-08T14:10:22Z</time>
      </trkpt>
      <trkpt lat="47.06607" lon="6.05444">
        <ele>524.6</ele>
        <time>2026-07-08T14:10:23Z</time>
      </trkpt>
      <trkpt lat="47.06605" lon="6.05447">
        <ele>524.6</ele>
        <time>2026-07-08T14:10:24Z</time>
      </trkpt>
      <trkpt lat="47.06603" lon="6.0545">
        <ele>524.8</ele>
        <time>2026-07-08T14:10:25Z</time>
      </trkpt>
      <trkpt lat="47.06601" lon="6.05452">
        <ele>524.8</ele>
        <time>2026-07-08T14:10:26Z</time>
      </trkpt>
      <trkpt lat="47.06598" lon="6.05454">
        <ele>525</ele>
        <time>2026-07-08T14:10:27Z</time>
      </trkpt>
      <trkpt lat="47.06596" lon="6.05456">
        <ele>525</ele>
        <time>2026-07-08T14:10:28Z</time>
      </trkpt>
      <trkpt lat="47.06594" lon="6.05457">
        <ele>525</ele>
        <time>2026-07-08T14:10:29Z</time>
      </trkpt>
      <trkpt lat="47.06591" lon="6.05458">
        <ele>525.2</ele>
        <time>2026-07-08T14:10:30Z</time>
      </trkpt>
      <trkpt lat="47.06588" lon="6.05461">
        <ele>525.2</ele>
        <time>2026-07-08T14:10:31Z</time>
      </trkpt>
      <trkpt lat="47.06585" lon="6.05464">
        <ele>525.4</ele>
        <time>2026-07-08T14:10:32Z</time>
      </trkpt>
      <trkpt lat="47.06582" lon="6.05466">
        <ele>525.6</ele>
        <time>2026-07-08T14:10:33Z</time>
      </trkpt>
      <trkpt lat="47.0658" lon="6.05468">
        <ele>525.4</ele>
        <time>2026-07-08T14:10:34Z</time>
      </trkpt>
      <trkpt lat="47.06577" lon="6.05469">
        <ele>525.6</ele>
        <time>2026-07-08T14:10:35Z</time>
      </trkpt>
      <trkpt lat="47.06574" lon="6.05471">
        <ele>525.6</ele>
        <time>2026-07-08T14:10:36Z</time>
      </trkpt>
      <trkpt lat="47.06571" lon="6.05473">
        <ele>525.8</ele>
        <time>2026-07-08T14:10:37Z</time>
      </trkpt>
      <trkpt lat="47.06568" lon="6.05475">
        <ele>525.8</ele>
        <time>2026-07-08T14:10:38Z</time>
      </trkpt>
      <trkpt lat="47.06566" lon="6.05476">
        <ele>525.8</ele>
        <time>2026-07-08T14:10:39Z</time>
      </trkpt>
      <trkpt lat="47.06563" lon="6.05477">
        <ele>526.2</ele>
        <time>2026-07-08T14:10:40Z</time>
      </trkpt>
      <trkpt lat="47.06561" lon="6.05479">
        <ele>526.2</ele>
        <time>2026-07-08T14:10:41Z</time>
      </trkpt>
      <trkpt lat="47.06559" lon="6.0548">
        <ele>526.4</ele>
        <time>2026-07-08T14:10:42Z</time>
      </trkpt>
      <trkpt lat="47.06558" lon="6.05481">
        <ele>526.6</ele>
        <time>2026-07-08T14:10:43Z</time>
      </trkpt>
      <trkpt lat="47.06556" lon="6.05483">
        <ele>526.6</ele>
        <time>2026-07-08T14:10:44Z</time>
      </trkpt>
      <trkpt lat="47.06556" lon="6.05483">
        <ele>526.6</ele>
        <time>2026-07-08T14:10:45Z</time>
      </trkpt>
      <trkpt lat="47.06553" lon="6.05486">
        <ele>526.8</ele>
        <time>2026-07-08T14:10:46Z</time>
      </trkpt>
      <trkpt lat="47.06552" lon="6.05488">
        <ele>527</ele>
        <time>2026-07-08T14:10:47Z</time>
      </trkpt>
      <trkpt lat="47.0655" lon="6.05489">
        <ele>526.8</ele>
        <time>2026-07-08T14:10:48Z</time>
      </trkpt>
      <trkpt lat="47.06548" lon="6.05491">
        <ele>527</ele>
        <time>2026-07-08T14:10:49Z</time>
      </trkpt>
      <trkpt lat="47.06546" lon="6.05493">
        <ele>527</ele>
        <time>2026-07-08T14:10:50Z</time>
      </trkpt>
      <trkpt lat="47.06545" lon="6.05494">
        <ele>527.2</ele>
        <time>2026-07-08T14:10:51Z</time>
      </trkpt>
      <trkpt lat="47.06543" lon="6.05494">
        <ele>527.2</ele>
        <time>2026-07-08T14:10:52Z</time>
      </trkpt>
      <trkpt lat="47.06541" lon="6.05495">
        <ele>527.4</ele>
        <time>2026-07-08T14:10:53Z</time>
      </trkpt>
      <trkpt lat="47.06539" lon="6.05496">
        <ele>527.4</ele>
        <time>2026-07-08T14:10:54Z</time>
      </trkpt>
      <trkpt lat="47.06537" lon="6.05496">
        <ele>527.4</ele>
        <time>2026-07-08T14:10:55Z</time>
      </trkpt>
      <trkpt lat="47.06534" lon="6.05497">
        <ele>527.4</ele>
        <time>2026-07-08T14:10:56Z</time>
      </trkpt>
      <trkpt lat="47.06532" lon="6.05498">
        <ele>527.8</ele>
        <time>2026-07-08T14:10:57Z</time>
      </trkpt>
      <trkpt lat="47.0653" lon="6.05499">
        <ele>527.8</ele>
        <time>2026-07-08T14:10:58Z</time>
      </trkpt>
      <trkpt lat="47.06528" lon="6.055">
        <ele>527.8</ele>
        <time>2026-07-08T14:10:59Z</time>
      </trkpt>
      <trkpt lat="47.06525" lon="6.05501">
        <ele>527.8</ele>
        <time>2026-07-08T14:11:00Z</time>
      </trkpt>
      <trkpt lat="47.06523" lon="6.05502">
        <ele>528</ele>
        <time>2026-07-08T14:11:01Z</time>
      </trkpt>
      <trkpt lat="47.06521" lon="6.05503">
        <ele>528</ele>
        <time>2026-07-08T14:11:02Z</time>
      </trkpt>
      <trkpt lat="47.06519" lon="6.05504">
        <ele>528.2</ele>
        <time>2026-07-08T14:11:03Z</time>
      </trkpt>
      <trkpt lat="47.06517" lon="6.05504">
        <ele>528.2</ele>
        <time>2026-07-08T14:11:04Z</time>
      </trkpt>
      <trkpt lat="47.06516" lon="6.05506">
        <ele>528.2</ele>
        <time>2026-07-08T14:11:05Z</time>
      </trkpt>
      <trkpt lat="47.06514" lon="6.05507">
        <ele>528.2</ele>
        <time>2026-07-08T14:11:06Z</time>
      </trkpt>
      <trkpt lat="47.06512" lon="6.05508">
        <ele>528.4</ele>
        <time>2026-07-08T14:11:07Z</time>
      </trkpt>
      <trkpt lat="47.0651" lon="6.0551">
        <ele>528.6</ele>
        <time>2026-07-08T14:11:08Z</time>
      </trkpt>
      <trkpt lat="47.06508" lon="6.05512">
        <ele>528.4</ele>
        <time>2026-07-08T14:11:09Z</time>
      </trkpt>
      <trkpt lat="47.06506" lon="6.05514">
        <ele>528.6</ele>
        <time>2026-07-08T14:11:10Z</time>
      </trkpt>
      <trkpt lat="47.06505" lon="6.05515">
        <ele>528.8</ele>
        <time>2026-07-08T14:11:11Z</time>
      </trkpt>
      <trkpt lat="47.06502" lon="6.05515">
        <ele>528.8</ele>
        <time>2026-07-08T14:11:12Z</time>
      </trkpt>
      <trkpt lat="47.06499" lon="6.05516">
        <ele>529</ele>
        <time>2026-07-08T14:11:13Z</time>
      </trkpt>
      <trkpt lat="47.06496" lon="6.05517">
        <ele>529.2</ele>
        <time>2026-07-08T14:11:14Z</time>
      </trkpt>
      <trkpt lat="47.06493" lon="6.05518">
        <ele>529.2</ele>
        <time>2026-07-08T14:11:15Z</time>
      </trkpt>
      <trkpt lat="47.06491" lon="6.0552">
        <ele>529.4</ele>
        <time>2026-07-08T14:11:16Z</time>
      </trkpt>
      <trkpt lat="47.06488" lon="6.05521">
        <ele>529.4</ele>
        <time>2026-07-08T14:11:17Z</time>
      </trkpt>
      <trkpt lat="47.06485" lon="6.05522">
        <ele>529.4</ele>
        <time>2026-07-08T14:11:18Z</time>
      </trkpt>
      <trkpt lat="47.06482" lon="6.05522">
        <ele>529.6</ele>
        <time>2026-07-08T14:11:19Z</time>
      </trkpt>
      <trkpt lat="47.06478" lon="6.05522">
        <ele>529.6</ele>
        <time>2026-07-08T14:11:20Z</time>
      </trkpt>
      <trkpt lat="47.06475" lon="6.05523">
        <ele>529.6</ele>
        <time>2026-07-08T14:11:21Z</time>
      </trkpt>
      <trkpt lat="47.06471" lon="6.05523">
        <ele>529.8</ele>
        <time>2026-07-08T14:11:22Z</time>
      </trkpt>
      <trkpt lat="47.06469" lon="6.05523">
        <ele>529.8</ele>
        <time>2026-07-08T14:11:23Z</time>
      </trkpt>
      <trkpt lat="47.06466" lon="6.05524">
        <ele>529.8</ele>
        <time>2026-07-08T14:11:24Z</time>
      </trkpt>
      <trkpt lat="47.06464" lon="6.05525">
        <ele>529.8</ele>
        <time>2026-07-08T14:11:25Z</time>
      </trkpt>
      <trkpt lat="47.06461" lon="6.05526">
        <ele>530.2</ele>
        <time>2026-07-08T14:11:26Z</time>
      </trkpt>
      <trkpt lat="47.06458" lon="6.05526">
        <ele>530.2</ele>
        <time>2026-07-08T14:11:27Z</time>
      </trkpt>
      <trkpt lat="47.06455" lon="6.05526">
        <ele>530.2</ele>
        <time>2026-07-08T14:11:28Z</time>
      </trkpt>
      <trkpt lat="47.06453" lon="6.05527">
        <ele>530.6</ele>
        <time>2026-07-08T14:11:29Z</time>
      </trkpt>
      <trkpt lat="47.06452" lon="6.05529">
        <ele>530.8</ele>
        <time>2026-07-08T14:11:30Z</time>
      </trkpt>
      <trkpt lat="47.0645" lon="6.05531">
        <ele>530.8</ele>
        <time>2026-07-08T14:11:31Z</time>
      </trkpt>
      <trkpt lat="47.0645" lon="6.05531">
        <ele>531</ele>
        <time>2026-07-08T14:11:32Z</time>
      </trkpt>
      <trkpt lat="47.06446" lon="6.05533">
        <ele>531</ele>
        <time>2026-07-08T14:11:33Z</time>
      </trkpt>
      <trkpt lat="47.06444" lon="6.05534">
        <ele>531.2</ele>
        <time>2026-07-08T14:11:34Z</time>
      </trkpt>
      <trkpt lat="47.06441" lon="6.05535">
        <ele>531.4</ele>
        <time>2026-07-08T14:11:35Z</time>
      </trkpt>
      <trkpt lat="47.06438" lon="6.05536">
        <ele>531.2</ele>
        <time>2026-07-08T14:11:36Z</time>
      </trkpt>
      <trkpt lat="47.06436" lon="6.05538">
        <ele>531.4</ele>
        <time>2026-07-08T14:11:37Z</time>
      </trkpt>
      <trkpt lat="47.06433" lon="6.05539">
        <ele>531.6</ele>
        <time>2026-07-08T14:11:38Z</time>
      </trkpt>
      <trkpt lat="47.06431" lon="6.0554">
        <ele>531.8</ele>
        <time>2026-07-08T14:11:39Z</time>
      </trkpt>
      <trkpt lat="47.06429" lon="6.0554">
        <ele>531.6</ele>
        <time>2026-07-08T14:11:40Z</time>
      </trkpt>
      <trkpt lat="47.06427" lon="6.05541">
        <ele>531.8</ele>
        <time>2026-07-08T14:11:41Z</time>
      </trkpt>
      <trkpt lat="47.06425" lon="6.05543">
        <ele>531.8</ele>
        <time>2026-07-08T14:11:42Z</time>
      </trkpt>
      <trkpt lat="47.06423" lon="6.05543">
        <ele>531.8</ele>
        <time>2026-07-08T14:11:43Z</time>
      </trkpt>
      <trkpt lat="47.0642" lon="6.05543">
        <ele>532.2</ele>
        <time>2026-07-08T14:11:44Z</time>
      </trkpt>
      <trkpt lat="47.06418" lon="6.05543">
        <ele>532.2</ele>
        <time>2026-07-08T14:11:45Z</time>
      </trkpt>
      <trkpt lat="47.06416" lon="6.05546">
        <ele>532.2</ele>
        <time>2026-07-08T14:11:46Z</time>
      </trkpt>
      <trkpt lat="47.06416" lon="6.05546">
        <ele>532.2</ele>
        <time>2026-07-08T14:11:47Z</time>
      </trkpt>
      <trkpt lat="47.06411" lon="6.05547">
        <ele>532.4</ele>
        <time>2026-07-08T14:11:48Z</time>
      </trkpt>
      <trkpt lat="47.06409" lon="6.05548">
        <ele>532.6</ele>
        <time>2026-07-08T14:11:49Z</time>
      </trkpt>
      <trkpt lat="47.06407" lon="6.05548">
        <ele>532.6</ele>
        <time>2026-07-08T14:11:50Z</time>
      </trkpt>
      <trkpt lat="47.06405" lon="6.05548">
        <ele>532.6</ele>
        <time>2026-07-08T14:11:51Z</time>
      </trkpt>
      <trkpt lat="47.06402" lon="6.05549">
        <ele>532.8</ele>
        <time>2026-07-08T14:11:52Z</time>
      </trkpt>
      <trkpt lat="47.064" lon="6.0555">
        <ele>533</ele>
        <time>2026-07-08T14:11:53Z</time>
      </trkpt>
      <trkpt lat="47.06398" lon="6.0555">
        <ele>533</ele>
        <time>2026-07-08T14:11:54Z</time>
      </trkpt>
      <trkpt lat="47.06396" lon="6.05551">
        <ele>532.8</ele>
        <time>2026-07-08T14:11:55Z</time>
      </trkpt>
      <trkpt lat="47.06393" lon="6.05552">
        <ele>533</ele>
        <time>2026-07-08T14:11:56Z</time>
      </trkpt>
      <trkpt lat="47.0639" lon="6.05553">
        <ele>533.2</ele>
        <time>2026-07-08T14:11:57Z</time>
      </trkpt>
      <trkpt lat="47.06387" lon="6.05554">
        <ele>533</ele>
        <time>2026-07-08T14:11:58Z</time>
      </trkpt>
      <trkpt lat="47.06384" lon="6.05555">
        <ele>533.2</ele>
        <time>2026-07-08T14:11:59Z</time>
      </trkpt>
      <trkpt lat="47.06381" lon="6.05556">
        <ele>533.2</ele>
        <time>2026-07-08T14:12:00Z</time>
      </trkpt>
      <trkpt lat="47.06379" lon="6.05557">
        <ele>533.2</ele>
        <time>2026-07-08T14:12:01Z</time>
      </trkpt>
      <trkpt lat="47.06376" lon="6.05558">
        <ele>533.4</ele>
        <time>2026-07-08T14:12:02Z</time>
      </trkpt>
      <trkpt lat="47.06374" lon="6.05559">
        <ele>533.4</ele>
        <time>2026-07-08T14:12:03Z</time>
      </trkpt>
      <trkpt lat="47.06372" lon="6.05561">
        <ele>533.6</ele>
        <time>2026-07-08T14:12:04Z</time>
      </trkpt>
      <trkpt lat="47.0637" lon="6.05562">
        <ele>533.6</ele>
        <time>2026-07-08T14:12:05Z</time>
      </trkpt>
      <trkpt lat="47.06368" lon="6.05563">
        <ele>533.8</ele>
        <time>2026-07-08T14:12:06Z</time>
      </trkpt>
      <trkpt lat="47.06366" lon="6.05566">
        <ele>534</ele>
        <time>2026-07-08T14:12:07Z</time>
      </trkpt>
      <trkpt lat="47.06364" lon="6.05568">
        <ele>534</ele>
        <time>2026-07-08T14:12:08Z</time>
      </trkpt>
      <trkpt lat="47.06362" lon="6.0557">
        <ele>533.8</ele>
        <time>2026-07-08T14:12:09Z</time>
      </trkpt>
      <trkpt lat="47.06361" lon="6.05572">
        <ele>534.2</ele>
        <time>2026-07-08T14:12:10Z</time>
      </trkpt>
      <trkpt lat="47.06359" lon="6.05574">
        <ele>534.2</ele>
        <time>2026-07-08T14:12:11Z</time>
      </trkpt>
      <trkpt lat="47.06358" lon="6.05574">
        <ele>534.2</ele>
        <time>2026-07-08T14:12:12Z</time>
      </trkpt>
      <trkpt lat="47.06358" lon="6.05575">
        <ele>534.6</ele>
        <time>2026-07-08T14:12:13Z</time>
      </trkpt>
      <trkpt lat="47.06357" lon="6.05576">
        <ele>534.8</ele>
        <time>2026-07-08T14:12:14Z</time>
      </trkpt>
      <trkpt lat="47.06358" lon="6.05579">
        <ele>535</ele>
        <time>2026-07-08T14:12:41Z</time>
      </trkpt>
      <trkpt lat="47.06358" lon="6.05578">
        <ele>534.8</ele>
        <time>2026-07-08T14:12:42Z</time>
      </trkpt>
      <trkpt lat="47.06358" lon="6.05579">
        <ele>534.8</ele>
        <time>2026-07-08T14:12:43Z</time>
      </trkpt>
      <trkpt lat="47.06358" lon="6.05579">
        <ele>534.8</ele>
        <time>2026-07-08T14:12:44Z</time>
      </trkpt>
      <trkpt lat="47.06342" lon="6.05585">
        <ele>535</ele>
        <time>2026-07-08T14:15:01Z</time>
      </trkpt>
      <trkpt lat="47.06342" lon="6.05585">
        <ele>535.2</ele>
        <time>2026-07-08T14:15:02Z</time>
      </trkpt>
      <trkpt lat="47.06342" lon="6.05585">
        <ele>535</ele>
        <time>2026-07-08T14:15:03Z</time>
      </trkpt>
      <trkpt lat="47.06342" lon="6.05585">
        <ele>535.2</ele>
        <time>2026-07-08T14:15:04Z</time>
      </trkpt>
      <trkpt lat="47.06342" lon="6.05586">
        <ele>535</ele>
        <time>2026-07-08T14:15:05Z</time>
      </trkpt>
      <trkpt lat="47.06345" lon="6.05589">
        <ele>535</ele>
        <time>2026-07-08T14:15:06Z</time>
      </trkpt>
      <trkpt lat="47.06346" lon="6.0559">
        <ele>535</ele>
        <time>2026-07-08T14:15:07Z</time>
      </trkpt>
      <trkpt lat="47.06346" lon="6.0559">
        <ele>535.2</ele>
        <time>2026-07-08T14:15:08Z</time>
      </trkpt>
      <trkpt lat="47.06346" lon="6.05589">
        <ele>535</ele>
        <time>2026-07-08T14:15:09Z</time>
      </trkpt>
      <trkpt lat="47.06346" lon="6.05589">
        <ele>535</ele>
        <time>2026-07-08T14:15:10Z</time>
      </trkpt>
      <trkpt lat="47.06345" lon="6.0559">
        <ele>535.2</ele>
        <time>2026-07-08T14:15:11Z</time>
      </trkpt>
      <trkpt lat="47.06343" lon="6.05591">
        <ele>535</ele>
        <time>2026-07-08T14:15:12Z</time>
      </trkpt>
      <trkpt lat="47.06343" lon="6.05592">
        <ele>535.2</ele>
        <time>2026-07-08T14:15:13Z</time>
      </trkpt>
      <trkpt lat="47.06342" lon="6.05593">
        <ele>535</ele>
        <time>2026-07-08T14:15:14Z</time>
      </trkpt>
      <trkpt lat="47.06342" lon="6.05594">
        <ele>535</ele>
        <time>2026-07-08T14:15:15Z</time>
      </trkpt>
      <trkpt lat="47.06341" lon="6.05595">
        <ele>535</ele>
        <time>2026-07-08T14:15:16Z</time>
      </trkpt>
      <trkpt lat="47.06339" lon="6.05596">
        <ele>535</ele>
        <time>2026-07-08T14:15:17Z</time>
      </trkpt>
      <trkpt lat="47.06338" lon="6.05596">
        <ele>535</ele>
        <time>2026-07-08T14:15:18Z</time>
      </trkpt>
      <trkpt lat="47.06337" lon="6.05598">
        <ele>535</ele>
        <time>2026-07-08T14:15:19Z</time>
      </trkpt>
      <trkpt lat="47.06335" lon="6.05599">
        <ele>535.2</ele>
        <time>2026-07-08T14:15:20Z</time>
      </trkpt>
      <trkpt lat="47.06334" lon="6.056">
        <ele>535.2</ele>
        <time>2026-07-08T14:15:21Z</time>
      </trkpt>
      <trkpt lat="47.06333" lon="6.05601">
        <ele>535.2</ele>
        <time>2026-07-08T14:15:22Z</time>
      </trkpt>
      <trkpt lat="47.06333" lon="6.05603">
        <ele>535.2</ele>
        <time>2026-07-08T14:15:23Z</time>
      </trkpt>
      <trkpt lat="47.06332" lon="6.05604">
        <ele>535.4</ele>
        <time>2026-07-08T14:15:24Z</time>
      </trkpt>
      <trkpt lat="47.06332" lon="6.05605">
        <ele>535.4</ele>
        <time>2026-07-08T14:15:25Z</time>
      </trkpt>
      <trkpt lat="47.06331" lon="6.05606">
        <ele>535.6</ele>
        <time>2026-07-08T14:15:26Z</time>
      </trkpt>
      <trkpt lat="47.0633" lon="6.05607">
        <ele>535.8</ele>
        <time>2026-07-08T14:15:27Z</time>
      </trkpt>
      <trkpt lat="47.06329" lon="6.05608">
        <ele>535.8</ele>
        <time>2026-07-08T14:15:28Z</time>
      </trkpt>
      <trkpt lat="47.06328" lon="6.05609">
        <ele>535.8</ele>
        <time>2026-07-08T14:15:29Z</time>
      </trkpt>
      <trkpt lat="47.06327" lon="6.05611">
        <ele>536</ele>
        <time>2026-07-08T14:15:30Z</time>
      </trkpt>
      <trkpt lat="47.06325" lon="6.05612">
        <ele>536.2</ele>
        <time>2026-07-08T14:15:31Z</time>
      </trkpt>
      <trkpt lat="47.06324" lon="6.05613">
        <ele>536.2</ele>
        <time>2026-07-08T14:15:32Z</time>
      </trkpt>
      <trkpt lat="47.06323" lon="6.05614">
        <ele>536.2</ele>
        <time>2026-07-08T14:15:33Z</time>
      </trkpt>
      <trkpt lat="47.06321" lon="6.05616">
        <ele>536.2</ele>
        <time>2026-07-08T14:15:34Z</time>
      </trkpt>
      <trkpt lat="47.0632" lon="6.05618">
        <ele>536.2</ele>
        <time>2026-07-08T14:15:35Z</time>
      </trkpt>
      <trkpt lat="47.0632" lon="6.0562">
        <ele>536.4</ele>
        <time>2026-07-08T14:15:36Z</time>
      </trkpt>
      <trkpt lat="47.06319" lon="6.05622">
        <ele>536.6</ele>
        <time>2026-07-08T14:15:37Z</time>
      </trkpt>
      <trkpt lat="47.06318" lon="6.05624">
        <ele>536.4</ele>
        <time>2026-07-08T14:15:38Z</time>
      </trkpt>
      <trkpt lat="47.06317" lon="6.05626">
        <ele>536.4</ele>
        <time>2026-07-08T14:15:39Z</time>
      </trkpt>
      <trkpt lat="47.06316" lon="6.05627">
        <ele>536.4</ele>
        <time>2026-07-08T14:15:40Z</time>
      </trkpt>
      <trkpt lat="47.06315" lon="6.05627">
        <ele>536.6</ele>
        <time>2026-07-08T14:15:41Z</time>
      </trkpt>
      <trkpt lat="47.06313" lon="6.05629">
        <ele>536.6</ele>
        <time>2026-07-08T14:15:42Z</time>
      </trkpt>
      <trkpt lat="47.06311" lon="6.05631">
        <ele>536.8</ele>
        <time>2026-07-08T14:15:43Z</time>
      </trkpt>
      <trkpt lat="47.06309" lon="6.05633">
        <ele>536.8</ele>
        <time>2026-07-08T14:15:44Z</time>
      </trkpt>
      <trkpt lat="47.06307" lon="6.05632">
        <ele>537</ele>
        <time>2026-07-08T14:15:45Z</time>
      </trkpt>
      <trkpt lat="47.06305" lon="6.05633">
        <ele>537</ele>
        <time>2026-07-08T14:15:46Z</time>
      </trkpt>
      <trkpt lat="47.06303" lon="6.05634">
        <ele>537.2</ele>
        <time>2026-07-08T14:15:47Z</time>
      </trkpt>
      <trkpt lat="47.06302" lon="6.05636">
        <ele>537.2</ele>
        <time>2026-07-08T14:15:48Z</time>
      </trkpt>
      <trkpt lat="47.06301" lon="6.0564">
        <ele>537.6</ele>
        <time>2026-07-08T14:15:49Z</time>
      </trkpt>
      <trkpt lat="47.06299" lon="6.05642">
        <ele>537.8</ele>
        <time>2026-07-08T14:15:50Z</time>
      </trkpt>
      <trkpt lat="47.06297" lon="6.05644">
        <ele>538</ele>
        <time>2026-07-08T14:15:51Z</time>
      </trkpt>
      <trkpt lat="47.06295" lon="6.05647">
        <ele>538</ele>
        <time>2026-07-08T14:15:52Z</time>
      </trkpt>
      <trkpt lat="47.06293" lon="6.05649">
        <ele>538.2</ele>
        <time>2026-07-08T14:15:53Z</time>
      </trkpt>
      <trkpt lat="47.06291" lon="6.05652">
        <ele>538.6</ele>
        <time>2026-07-08T14:15:54Z</time>
      </trkpt>
      <trkpt lat="47.06289" lon="6.05654">
        <ele>538.8</ele>
        <time>2026-07-08T14:15:55Z</time>
      </trkpt>
      <trkpt lat="47.06288" lon="6.05656">
        <ele>538.8</ele>
        <time>2026-07-08T14:15:56Z</time>
      </trkpt>
      <trkpt lat="47.06287" lon="6.05657">
        <ele>538.8</ele>
        <time>2026-07-08T14:15:57Z</time>
      </trkpt>
      <trkpt lat="47.06286" lon="6.0566">
        <ele>538.8</ele>
        <time>2026-07-08T14:15:58Z</time>
      </trkpt>
      <trkpt lat="47.06285" lon="6.05661">
        <ele>539</ele>
        <time>2026-07-08T14:15:59Z</time>
      </trkpt>
      <trkpt lat="47.06284" lon="6.05663">
        <ele>539</ele>
        <time>2026-07-08T14:16:00Z</time>
      </trkpt>
      <trkpt lat="47.06283" lon="6.05666">
        <ele>539</ele>
        <time>2026-07-08T14:16:01Z</time>
      </trkpt>
      <trkpt lat="47.06283" lon="6.05668">
        <ele>539.2</ele>
        <time>2026-07-08T14:16:02Z</time>
      </trkpt>
      <trkpt lat="47.06282" lon="6.0567">
        <ele>539</ele>
        <time>2026-07-08T14:16:03Z</time>
      </trkpt>
      <trkpt lat="47.06281" lon="6.05673">
        <ele>539.2</ele>
        <time>2026-07-08T14:16:04Z</time>
      </trkpt>
      <trkpt lat="47.06281" lon="6.05675">
        <ele>539.2</ele>
        <time>2026-07-08T14:16:05Z</time>
      </trkpt>
      <trkpt lat="47.06281" lon="6.05678">
        <ele>539.2</ele>
        <time>2026-07-08T14:16:06Z</time>
      </trkpt>
      <trkpt lat="47.0628" lon="6.05679">
        <ele>539.4</ele>
        <time>2026-07-08T14:16:07Z</time>
      </trkpt>
      <trkpt lat="47.06278" lon="6.05683">
        <ele>539.6</ele>
        <time>2026-07-08T14:16:08Z</time>
      </trkpt>
      <trkpt lat="47.06277" lon="6.05685">
        <ele>539.6</ele>
        <time>2026-07-08T14:16:09Z</time>
      </trkpt>
      <trkpt lat="47.06275" lon="6.05688">
        <ele>539.8</ele>
        <time>2026-07-08T14:16:10Z</time>
      </trkpt>
      <trkpt lat="47.06274" lon="6.0569">
        <ele>539.8</ele>
        <time>2026-07-08T14:16:11Z</time>
      </trkpt>
      <trkpt lat="47.06273" lon="6.05692">
        <ele>540</ele>
        <time>2026-07-08T14:16:12Z</time>
      </trkpt>
      <trkpt lat="47.06273" lon="6.05694">
        <ele>540</ele>
        <time>2026-07-08T14:16:13Z</time>
      </trkpt>
      <trkpt lat="47.06272" lon="6.05695">
        <ele>540</ele>
        <time>2026-07-08T14:16:14Z</time>
      </trkpt>
      <trkpt lat="47.06271" lon="6.05697">
        <ele>540.2</ele>
        <time>2026-07-08T14:16:15Z</time>
      </trkpt>
      <trkpt lat="47.0627" lon="6.057">
        <ele>540.2</ele>
        <time>2026-07-08T14:16:16Z</time>
      </trkpt>
      <trkpt lat="47.06269" lon="6.05702">
        <ele>540.2</ele>
        <time>2026-07-08T14:16:17Z</time>
      </trkpt>
      <trkpt lat="47.06268" lon="6.05706">
        <ele>540.4</ele>
        <time>2026-07-08T14:16:18Z</time>
      </trkpt>
      <trkpt lat="47.06267" lon="6.05708">
        <ele>540.6</ele>
        <time>2026-07-08T14:16:19Z</time>
      </trkpt>
      <trkpt lat="47.06266" lon="6.0571">
        <ele>540.8</ele>
        <time>2026-07-08T14:16:20Z</time>
      </trkpt>
      <trkpt lat="47.06265" lon="6.05712">
        <ele>540.8</ele>
        <time>2026-07-08T14:16:21Z</time>
      </trkpt>
      <trkpt lat="47.06264" lon="6.05714">
        <ele>541</ele>
        <time>2026-07-08T14:16:22Z</time>
      </trkpt>
      <trkpt lat="47.06261" lon="6.0572">
        <ele>541</ele>
        <time>2026-07-08T14:16:23Z</time>
      </trkpt>
      <trkpt lat="47.06259" lon="6.05724">
        <ele>540.8</ele>
        <time>2026-07-08T14:16:24Z</time>
      </trkpt>
      <trkpt lat="47.06257" lon="6.05727">
        <ele>541</ele>
        <time>2026-07-08T14:16:25Z</time>
      </trkpt>
      <trkpt lat="47.06256" lon="6.0573">
        <ele>541.2</ele>
        <time>2026-07-08T14:16:26Z</time>
      </trkpt>
      <trkpt lat="47.06255" lon="6.05733">
        <ele>541.2</ele>
        <time>2026-07-08T14:16:27Z</time>
      </trkpt>
      <trkpt lat="47.06254" lon="6.05735">
        <ele>541.4</ele>
        <time>2026-07-08T14:16:28Z</time>
      </trkpt>
      <trkpt lat="47.06252" lon="6.05739">
        <ele>541.4</ele>
        <time>2026-07-08T14:16:29Z</time>
      </trkpt>
      <trkpt lat="47.06251" lon="6.05742">
        <ele>541.4</ele>
        <time>2026-07-08T14:16:30Z</time>
      </trkpt>
      <trkpt lat="47.0625" lon="6.05746">
        <ele>541.4</ele>
        <time>2026-07-08T14:16:31Z</time>
      </trkpt>
      <trkpt lat="47.06249" lon="6.05748">
        <ele>541.6</ele>
        <time>2026-07-08T14:16:32Z</time>
      </trkpt>
      <trkpt lat="47.06248" lon="6.05751">
        <ele>541.8</ele>
        <time>2026-07-08T14:16:33Z</time>
      </trkpt>
      <trkpt lat="47.06248" lon="6.05754">
        <ele>541.8</ele>
        <time>2026-07-08T14:16:34Z</time>
      </trkpt>
      <trkpt lat="47.06246" lon="6.05758">
        <ele>541.8</ele>
        <time>2026-07-08T14:16:35Z</time>
      </trkpt>
      <trkpt lat="47.06245" lon="6.05761">
        <ele>542</ele>
        <time>2026-07-08T14:16:36Z</time>
      </trkpt>
      <trkpt lat="47.06243" lon="6.05765">
        <ele>542</ele>
        <time>2026-07-08T14:16:37Z</time>
      </trkpt>
      <trkpt lat="47.06242" lon="6.05768">
        <ele>542</ele>
        <time>2026-07-08T14:16:38Z</time>
      </trkpt>
      <trkpt lat="47.0624" lon="6.05771">
        <ele>542</ele>
        <time>2026-07-08T14:16:39Z</time>
      </trkpt>
      <trkpt lat="47.06239" lon="6.05774">
        <ele>542.2</ele>
        <time>2026-07-08T14:16:40Z</time>
      </trkpt>
      <trkpt lat="47.06236" lon="6.05779">
        <ele>542.2</ele>
        <time>2026-07-08T14:16:41Z</time>
      </trkpt>
      <trkpt lat="47.06235" lon="6.05781">
        <ele>542.4</ele>
        <time>2026-07-08T14:16:42Z</time>
      </trkpt>
      <trkpt lat="47.06234" lon="6.05784">
        <ele>542.4</ele>
        <time>2026-07-08T14:16:43Z</time>
      </trkpt>
      <trkpt lat="47.06233" lon="6.05787">
        <ele>542.4</ele>
        <time>2026-07-08T14:16:44Z</time>
      </trkpt>
      <trkpt lat="47.06231" lon="6.0579">
        <ele>542.4</ele>
        <time>2026-07-08T14:16:45Z</time>
      </trkpt>
      <trkpt lat="47.06229" lon="6.05794">
        <ele>542.6</ele>
        <time>2026-07-08T14:16:46Z</time>
      </trkpt>
      <trkpt lat="47.06227" lon="6.05797">
        <ele>543</ele>
        <time>2026-07-08T14:16:47Z</time>
      </trkpt>
      <trkpt lat="47.06225" lon="6.05801">
        <ele>543</ele>
        <time>2026-07-08T14:16:48Z</time>
      </trkpt>
      <trkpt lat="47.06224" lon="6.05804">
        <ele>543.2</ele>
        <time>2026-07-08T14:16:49Z</time>
      </trkpt>
      <trkpt lat="47.06222" lon="6.05807">
        <ele>543.4</ele>
        <time>2026-07-08T14:16:50Z</time>
      </trkpt>
      <trkpt lat="47.06221" lon="6.0581">
        <ele>543.2</ele>
        <time>2026-07-08T14:16:51Z</time>
      </trkpt>
      <trkpt lat="47.06219" lon="6.05814">
        <ele>543.4</ele>
        <time>2026-07-08T14:16:52Z</time>
      </trkpt>
      <trkpt lat="47.06216" lon="6.05819">
        <ele>543.6</ele>
        <time>2026-07-08T14:16:53Z</time>
      </trkpt>
      <trkpt lat="47.06214" lon="6.05823">
        <ele>543.8</ele>
        <time>2026-07-08T14:16:54Z</time>
      </trkpt>
      <trkpt lat="47.06213" lon="6.05828">
        <ele>543.8</ele>
        <time>2026-07-08T14:16:55Z</time>
      </trkpt>
      <trkpt lat="47.06211" lon="6.05832">
        <ele>543.8</ele>
        <time>2026-07-08T14:16:56Z</time>
      </trkpt>
      <trkpt lat="47.06209" lon="6.05836">
        <ele>544</ele>
        <time>2026-07-08T14:16:57Z</time>
      </trkpt>
      <trkpt lat="47.06208" lon="6.05839">
        <ele>544</ele>
        <time>2026-07-08T14:16:58Z</time>
      </trkpt>
      <trkpt lat="47.06206" lon="6.05842">
        <ele>544</ele>
        <time>2026-07-08T14:16:59Z</time>
      </trkpt>
      <trkpt lat="47.06204" lon="6.05844">
        <ele>544</ele>
        <time>2026-07-08T14:17:00Z</time>
      </trkpt>
      <trkpt lat="47.06203" lon="6.05847">
        <ele>544.2</ele>
        <time>2026-07-08T14:17:01Z</time>
      </trkpt>
      <trkpt lat="47.06202" lon="6.0585">
        <ele>544.4</ele>
        <time>2026-07-08T14:17:02Z</time>
      </trkpt>
      <trkpt lat="47.062" lon="6.05854">
        <ele>544.4</ele>
        <time>2026-07-08T14:17:03Z</time>
      </trkpt>
      <trkpt lat="47.06198" lon="6.05857">
        <ele>544.6</ele>
        <time>2026-07-08T14:17:04Z</time>
      </trkpt>
      <trkpt lat="47.06196" lon="6.05859">
        <ele>544.6</ele>
        <time>2026-07-08T14:17:05Z</time>
      </trkpt>
      <trkpt lat="47.06195" lon="6.05862">
        <ele>544.8</ele>
        <time>2026-07-08T14:17:06Z</time>
      </trkpt>
      <trkpt lat="47.06193" lon="6.05865">
        <ele>545</ele>
        <time>2026-07-08T14:17:07Z</time>
      </trkpt>
      <trkpt lat="47.06191" lon="6.05867">
        <ele>545</ele>
        <time>2026-07-08T14:17:08Z</time>
      </trkpt>
      <trkpt lat="47.06189" lon="6.0587">
        <ele>545.2</ele>
        <time>2026-07-08T14:17:09Z</time>
      </trkpt>
      <trkpt lat="47.06188" lon="6.05873">
        <ele>545.2</ele>
        <time>2026-07-08T14:17:10Z</time>
      </trkpt>
      <trkpt lat="47.06185" lon="6.05876">
        <ele>545.4</ele>
        <time>2026-07-08T14:17:11Z</time>
      </trkpt>
      <trkpt lat="47.06183" lon="6.05878">
        <ele>545.4</ele>
        <time>2026-07-08T14:17:12Z</time>
      </trkpt>
      <trkpt lat="47.06181" lon="6.05879">
        <ele>545.6</ele>
        <time>2026-07-08T14:17:13Z</time>
      </trkpt>
      <trkpt lat="47.06178" lon="6.05881">
        <ele>545.8</ele>
        <time>2026-07-08T14:17:14Z</time>
      </trkpt>
      <trkpt lat="47.06175" lon="6.05882">
        <ele>546</ele>
        <time>2026-07-08T14:17:15Z</time>
      </trkpt>
      <trkpt lat="47.06171" lon="6.05882">
        <ele>546</ele>
        <time>2026-07-08T14:17:16Z</time>
      </trkpt>
      <trkpt lat="47.06167" lon="6.05883">
        <ele>546.2</ele>
        <time>2026-07-08T14:17:17Z</time>
      </trkpt>
      <trkpt lat="47.06165" lon="6.05884">
        <ele>546.2</ele>
        <time>2026-07-08T14:17:18Z</time>
      </trkpt>
      <trkpt lat="47.06163" lon="6.05885">
        <ele>546.4</ele>
        <time>2026-07-08T14:17:19Z</time>
      </trkpt>
      <trkpt lat="47.0616" lon="6.05886">
        <ele>546.6</ele>
        <time>2026-07-08T14:17:20Z</time>
      </trkpt>
      <trkpt lat="47.06158" lon="6.05886">
        <ele>546.6</ele>
        <time>2026-07-08T14:17:21Z</time>
      </trkpt>
      <trkpt lat="47.06156" lon="6.05887">
        <ele>546.8</ele>
        <time>2026-07-08T14:17:22Z</time>
      </trkpt>
      <trkpt lat="47.06154" lon="6.05889">
        <ele>547</ele>
        <time>2026-07-08T14:17:23Z</time>
      </trkpt>
      <trkpt lat="47.06152" lon="6.0589">
        <ele>547</ele>
        <time>2026-07-08T14:17:24Z</time>
      </trkpt>
      <trkpt lat="47.06151" lon="6.05891">
        <ele>546.8</ele>
        <time>2026-07-08T14:17:25Z</time>
      </trkpt>
      <trkpt lat="47.06149" lon="6.05892">
        <ele>547</ele>
        <time>2026-07-08T14:17:26Z</time>
      </trkpt>
      <trkpt lat="47.06146" lon="6.05893">
        <ele>547.2</ele>
        <time>2026-07-08T14:17:27Z</time>
      </trkpt>
      <trkpt lat="47.06143" lon="6.05894">
        <ele>547.2</ele>
        <time>2026-07-08T14:17:28Z</time>
      </trkpt>
      <trkpt lat="47.06141" lon="6.05893">
        <ele>547.4</ele>
        <time>2026-07-08T14:17:29Z</time>
      </trkpt>
      <trkpt lat="47.06139" lon="6.05894">
        <ele>547.4</ele>
        <time>2026-07-08T14:17:30Z</time>
      </trkpt>
      <trkpt lat="47.06136" lon="6.05894">
        <ele>547.4</ele>
        <time>2026-07-08T14:17:31Z</time>
      </trkpt>
      <trkpt lat="47.06133" lon="6.05895">
        <ele>547.4</ele>
        <time>2026-07-08T14:17:32Z</time>
      </trkpt>
      <trkpt lat="47.0613" lon="6.05895">
        <ele>547.4</ele>
        <time>2026-07-08T14:17:33Z</time>
      </trkpt>
      <trkpt lat="47.06128" lon="6.05897">
        <ele>547.6</ele>
        <time>2026-07-08T14:17:34Z</time>
      </trkpt>
      <trkpt lat="47.06126" lon="6.05898">
        <ele>547.6</ele>
        <time>2026-07-08T14:17:35Z</time>
      </trkpt>
      <trkpt lat="47.06122" lon="6.05899">
        <ele>547.8</ele>
        <time>2026-07-08T14:17:36Z</time>
      </trkpt>
      <trkpt lat="47.0612" lon="6.059">
        <ele>547.8</ele>
        <time>2026-07-08T14:17:37Z</time>
      </trkpt>
      <trkpt lat="47.06116" lon="6.059">
        <ele>547.8</ele>
        <time>2026-07-08T14:17:38Z</time>
      </trkpt>
      <trkpt lat="47.06114" lon="6.059">
        <ele>548</ele>
        <time>2026-07-08T14:17:39Z</time>
      </trkpt>
      <trkpt lat="47.06111" lon="6.059">
        <ele>548</ele>
        <time>2026-07-08T14:17:40Z</time>
      </trkpt>
      <trkpt lat="47.06108" lon="6.05902">
        <ele>548.2</ele>
        <time>2026-07-08T14:17:41Z</time>
      </trkpt>
      <trkpt lat="47.06106" lon="6.05904">
        <ele>548.2</ele>
        <time>2026-07-08T14:17:42Z</time>
      </trkpt>
      <trkpt lat="47.06104" lon="6.05905">
        <ele>548.4</ele>
        <time>2026-07-08T14:17:43Z</time>
      </trkpt>
      <trkpt lat="47.06101" lon="6.05905">
        <ele>548.6</ele>
        <time>2026-07-08T14:17:44Z</time>
      </trkpt>
      <trkpt lat="47.06098" lon="6.05905">
        <ele>548.6</ele>
        <time>2026-07-08T14:17:45Z</time>
      </trkpt>
      <trkpt lat="47.06096" lon="6.05905">
        <ele>548.8</ele>
        <time>2026-07-08T14:17:46Z</time>
      </trkpt>
      <trkpt lat="47.06094" lon="6.05905">
        <ele>549</ele>
        <time>2026-07-08T14:17:47Z</time>
      </trkpt>
      <trkpt lat="47.06091" lon="6.05905">
        <ele>549</ele>
        <time>2026-07-08T14:17:48Z</time>
      </trkpt>
      <trkpt lat="47.06089" lon="6.05905">
        <ele>549</ele>
        <time>2026-07-08T14:17:49Z</time>
      </trkpt>
      <trkpt lat="47.06087" lon="6.05905">
        <ele>549.2</ele>
        <time>2026-07-08T14:17:50Z</time>
      </trkpt>
      <trkpt lat="47.06084" lon="6.05905">
        <ele>549.2</ele>
        <time>2026-07-08T14:17:51Z</time>
      </trkpt>
      <trkpt lat="47.06081" lon="6.05905">
        <ele>549.2</ele>
        <time>2026-07-08T14:17:52Z</time>
      </trkpt>
      <trkpt lat="47.06079" lon="6.05905">
        <ele>549.4</ele>
        <time>2026-07-08T14:17:53Z</time>
      </trkpt>
      <trkpt lat="47.06076" lon="6.05905">
        <ele>549.4</ele>
        <time>2026-07-08T14:17:54Z</time>
      </trkpt>
      <trkpt lat="47.06073" lon="6.05905">
        <ele>549.6</ele>
        <time>2026-07-08T14:17:55Z</time>
      </trkpt>
      <trkpt lat="47.06071" lon="6.05906">
        <ele>550</ele>
        <time>2026-07-08T14:17:56Z</time>
      </trkpt>
      <trkpt lat="47.06068" lon="6.05906">
        <ele>550</ele>
        <time>2026-07-08T14:17:57Z</time>
      </trkpt>
      <trkpt lat="47.06066" lon="6.05907">
        <ele>550.2</ele>
        <time>2026-07-08T14:17:58Z</time>
      </trkpt>
      <trkpt lat="47.06063" lon="6.05908">
        <ele>550.2</ele>
        <time>2026-07-08T14:17:59Z</time>
      </trkpt>
      <trkpt lat="47.06061" lon="6.05909">
        <ele>550.2</ele>
        <time>2026-07-08T14:18:00Z</time>
      </trkpt>
      <trkpt lat="47.06059" lon="6.0591">
        <ele>550.4</ele>
        <time>2026-07-08T14:18:01Z</time>
      </trkpt>
      <trkpt lat="47.06057" lon="6.05911">
        <ele>550.4</ele>
        <time>2026-07-08T14:18:02Z</time>
      </trkpt>
      <trkpt lat="47.06055" lon="6.05911">
        <ele>550.6</ele>
        <time>2026-07-08T14:18:03Z</time>
      </trkpt>
      <trkpt lat="47.06053" lon="6.05912">
        <ele>550.6</ele>
        <time>2026-07-08T14:18:04Z</time>
      </trkpt>
      <trkpt lat="47.06051" lon="6.05913">
        <ele>550.6</ele>
        <time>2026-07-08T14:18:05Z</time>
      </trkpt>
      <trkpt lat="47.06048" lon="6.05914">
        <ele>550.8</ele>
        <time>2026-07-08T14:18:06Z</time>
      </trkpt>
      <trkpt lat="47.06045" lon="6.05914">
        <ele>551</ele>
        <time>2026-07-08T14:18:07Z</time>
      </trkpt>
      <trkpt lat="47.06042" lon="6.05914">
        <ele>551</ele>
        <time>2026-07-08T14:18:08Z</time>
      </trkpt>
      <trkpt lat="47.0604" lon="6.05914">
        <ele>551.4</ele>
        <time>2026-07-08T14:18:09Z</time>
      </trkpt>
      <trkpt lat="47.06037" lon="6.05914">
        <ele>551.4</ele>
        <time>2026-07-08T14:18:10Z</time>
      </trkpt>
      <trkpt lat="47.06034" lon="6.05914">
        <ele>551.6</ele>
        <time>2026-07-08T14:18:11Z</time>
      </trkpt>
      <trkpt lat="47.06031" lon="6.05914">
        <ele>551.6</ele>
        <time>2026-07-08T14:18:12Z</time>
      </trkpt>
      <trkpt lat="47.06028" lon="6.05914">
        <ele>551.6</ele>
        <time>2026-07-08T14:18:13Z</time>
      </trkpt>
      <trkpt lat="47.06026" lon="6.05914">
        <ele>551.8</ele>
        <time>2026-07-08T14:18:14Z</time>
      </trkpt>
      <trkpt lat="47.06023" lon="6.05914">
        <ele>551.8</ele>
        <time>2026-07-08T14:18:15Z</time>
      </trkpt>
      <trkpt lat="47.0602" lon="6.05914">
        <ele>551.8</ele>
        <time>2026-07-08T14:18:16Z</time>
      </trkpt>
      <trkpt lat="47.06017" lon="6.05914">
        <ele>551.8</ele>
        <time>2026-07-08T14:18:17Z</time>
      </trkpt>
      <trkpt lat="47.06014" lon="6.05914">
        <ele>551.8</ele>
        <time>2026-07-08T14:18:18Z</time>
      </trkpt>
      <trkpt lat="47.06012" lon="6.05914">
        <ele>552</ele>
        <time>2026-07-08T14:18:19Z</time>
      </trkpt>
      <trkpt lat="47.06009" lon="6.05913">
        <ele>552</ele>
        <time>2026-07-08T14:18:20Z</time>
      </trkpt>
      <trkpt lat="47.06006" lon="6.05912">
        <ele>552</ele>
        <time>2026-07-08T14:18:21Z</time>
      </trkpt>
      <trkpt lat="47.06004" lon="6.05911">
        <ele>552.4</ele>
        <time>2026-07-08T14:18:22Z</time>
      </trkpt>
      <trkpt lat="47.06002" lon="6.05911">
        <ele>552.6</ele>
        <time>2026-07-08T14:18:23Z</time>
      </trkpt>
      <trkpt lat="47.05999" lon="6.05911">
        <ele>552.6</ele>
        <time>2026-07-08T14:18:24Z</time>
      </trkpt>
      <trkpt lat="47.05997" lon="6.0591">
        <ele>552.6</ele>
        <time>2026-07-08T14:18:25Z</time>
      </trkpt>
      <trkpt lat="47.05995" lon="6.05909">
        <ele>552.8</ele>
        <time>2026-07-08T14:18:26Z</time>
      </trkpt>
      <trkpt lat="47.05992" lon="6.05909">
        <ele>553.2</ele>
        <time>2026-07-08T14:18:27Z</time>
      </trkpt>
      <trkpt lat="47.05989" lon="6.0591">
        <ele>553.4</ele>
        <time>2026-07-08T14:18:28Z</time>
      </trkpt>
      <trkpt lat="47.05987" lon="6.0591">
        <ele>553.2</ele>
        <time>2026-07-08T14:18:29Z</time>
      </trkpt>
      <trkpt lat="47.05985" lon="6.0591">
        <ele>553.4</ele>
        <time>2026-07-08T14:18:30Z</time>
      </trkpt>
      <trkpt lat="47.05982" lon="6.05912">
        <ele>553.6</ele>
        <time>2026-07-08T14:18:31Z</time>
      </trkpt>
      <trkpt lat="47.05979" lon="6.05915">
        <ele>553.8</ele>
        <time>2026-07-08T14:18:32Z</time>
      </trkpt>
      <trkpt lat="47.05976" lon="6.05915">
        <ele>553.8</ele>
        <time>2026-07-08T14:18:33Z</time>
      </trkpt>
      <trkpt lat="47.05974" lon="6.05917">
        <ele>553.8</ele>
        <time>2026-07-08T14:18:34Z</time>
      </trkpt>
      <trkpt lat="47.05971" lon="6.05919">
        <ele>553.8</ele>
        <time>2026-07-08T14:18:35Z</time>
      </trkpt>
      <trkpt lat="47.05968" lon="6.05922">
        <ele>554</ele>
        <time>2026-07-08T14:18:36Z</time>
      </trkpt>
      <trkpt lat="47.05965" lon="6.05923">
        <ele>554</ele>
        <time>2026-07-08T14:18:37Z</time>
      </trkpt>
      <trkpt lat="47.05963" lon="6.05924">
        <ele>554.2</ele>
        <time>2026-07-08T14:18:38Z</time>
      </trkpt>
      <trkpt lat="47.0596" lon="6.05925">
        <ele>554.2</ele>
        <time>2026-07-08T14:18:39Z</time>
      </trkpt>
      <trkpt lat="47.05958" lon="6.05926">
        <ele>554.4</ele>
        <time>2026-07-08T14:18:40Z</time>
      </trkpt>
      <trkpt lat="47.05956" lon="6.05926">
        <ele>554.4</ele>
        <time>2026-07-08T14:18:41Z</time>
      </trkpt>
      <trkpt lat="47.05953" lon="6.05925">
        <ele>554.6</ele>
        <time>2026-07-08T14:18:42Z</time>
      </trkpt>
      <trkpt lat="47.05951" lon="6.05925">
        <ele>554.8</ele>
        <time>2026-07-08T14:18:43Z</time>
      </trkpt>
      <trkpt lat="47.05948" lon="6.05926">
        <ele>554.6</ele>
        <time>2026-07-08T14:18:44Z</time>
      </trkpt>
      <trkpt lat="47.05946" lon="6.05926">
        <ele>555</ele>
        <time>2026-07-08T14:18:45Z</time>
      </trkpt>
      <trkpt lat="47.05943" lon="6.05927">
        <ele>555</ele>
        <time>2026-07-08T14:18:46Z</time>
      </trkpt>
      <trkpt lat="47.05941" lon="6.05927">
        <ele>555</ele>
        <time>2026-07-08T14:18:47Z</time>
      </trkpt>
      <trkpt lat="47.05938" lon="6.05928">
        <ele>555.2</ele>
        <time>2026-07-08T14:18:48Z</time>
      </trkpt>
      <trkpt lat="47.05936" lon="6.05929">
        <ele>555.2</ele>
        <time>2026-07-08T14:18:49Z</time>
      </trkpt>
      <trkpt lat="47.05934" lon="6.05929">
        <ele>555.2</ele>
        <time>2026-07-08T14:18:50Z</time>
      </trkpt>
      <trkpt lat="47.05932" lon="6.05929">
        <ele>555.4</ele>
        <time>2026-07-08T14:18:51Z</time>
      </trkpt>
      <trkpt lat="47.0593" lon="6.0593">
        <ele>555.4</ele>
        <time>2026-07-08T14:18:52Z</time>
      </trkpt>
      <trkpt lat="47.05927" lon="6.05931">
        <ele>555.6</ele>
        <time>2026-07-08T14:18:53Z</time>
      </trkpt>
      <trkpt lat="47.05925" lon="6.05931">
        <ele>555.8</ele>
        <time>2026-07-08T14:18:54Z</time>
      </trkpt>
      <trkpt lat="47.05922" lon="6.05932">
        <ele>555.8</ele>
        <time>2026-07-08T14:18:55Z</time>
      </trkpt>
      <trkpt lat="47.0592" lon="6.05933">
        <ele>556.2</ele>
        <time>2026-07-08T14:18:56Z</time>
      </trkpt>
      <trkpt lat="47.05917" lon="6.05934">
        <ele>556.4</ele>
        <time>2026-07-08T14:18:57Z</time>
      </trkpt>
      <trkpt lat="47.05915" lon="6.05933">
        <ele>556.6</ele>
        <time>2026-07-08T14:18:58Z</time>
      </trkpt>
      <trkpt lat="47.05913" lon="6.05933">
        <ele>556.6</ele>
        <time>2026-07-08T14:18:59Z</time>
      </trkpt>
      <trkpt lat="47.05911" lon="6.05933">
        <ele>556.6</ele>
        <time>2026-07-08T14:19:00Z</time>
      </trkpt>
      <trkpt lat="47.05909" lon="6.05934">
        <ele>556.6</ele>
        <time>2026-07-08T14:19:01Z</time>
      </trkpt>
      <trkpt lat="47.05907" lon="6.05935">
        <ele>556.8</ele>
        <time>2026-07-08T14:19:02Z</time>
      </trkpt>
      <trkpt lat="47.05904" lon="6.05936">
        <ele>556.8</ele>
        <time>2026-07-08T14:19:03Z</time>
      </trkpt>
      <trkpt lat="47.05903" lon="6.05936">
        <ele>556.8</ele>
        <time>2026-07-08T14:19:04Z</time>
      </trkpt>
      <trkpt lat="47.05901" lon="6.05936">
        <ele>557</ele>
        <time>2026-07-08T14:19:05Z</time>
      </trkpt>
      <trkpt lat="47.05899" lon="6.05936">
        <ele>557.2</ele>
        <time>2026-07-08T14:19:06Z</time>
      </trkpt>
      <trkpt lat="47.05897" lon="6.05936">
        <ele>557.2</ele>
        <time>2026-07-08T14:19:07Z</time>
      </trkpt>
      <trkpt lat="47.05895" lon="6.05938">
        <ele>557.2</ele>
        <time>2026-07-08T14:19:08Z</time>
      </trkpt>
      <trkpt lat="47.05893" lon="6.05939">
        <ele>557.2</ele>
        <time>2026-07-08T14:19:09Z</time>
      </trkpt>
      <trkpt lat="47.05891" lon="6.0594">
        <ele>557.2</ele>
        <time>2026-07-08T14:19:10Z</time>
      </trkpt>
      <trkpt lat="47.05889" lon="6.05941">
        <ele>557.2</ele>
        <time>2026-07-08T14:19:11Z</time>
      </trkpt>
      <trkpt lat="47.05887" lon="6.05941">
        <ele>557.2</ele>
        <time>2026-07-08T14:19:12Z</time>
      </trkpt>
      <trkpt lat="47.05884" lon="6.05942">
        <ele>557.4</ele>
        <time>2026-07-08T14:19:13Z</time>
      </trkpt>
      <trkpt lat="47.05881" lon="6.05943">
        <ele>557.2</ele>
        <time>2026-07-08T14:19:14Z</time>
      </trkpt>
      <trkpt lat="47.05879" lon="6.05943">
        <ele>557.4</ele>
        <time>2026-07-08T14:19:15Z</time>
      </trkpt>
      <trkpt lat="47.05876" lon="6.05943">
        <ele>557.4</ele>
        <time>2026-07-08T14:19:16Z</time>
      </trkpt>
      <trkpt lat="47.05874" lon="6.05943">
        <ele>557.6</ele>
        <time>2026-07-08T14:19:17Z</time>
      </trkpt>
      <trkpt lat="47.05872" lon="6.05944">
        <ele>557.8</ele>
        <time>2026-07-08T14:19:18Z</time>
      </trkpt>
      <trkpt lat="47.0587" lon="6.05945">
        <ele>558</ele>
        <time>2026-07-08T14:19:19Z</time>
      </trkpt>
      <trkpt lat="47.05867" lon="6.05946">
        <ele>558.2</ele>
        <time>2026-07-08T14:19:20Z</time>
      </trkpt>
      <trkpt lat="47.05865" lon="6.05947">
        <ele>558.2</ele>
        <time>2026-07-08T14:19:21Z</time>
      </trkpt>
      <trkpt lat="47.05863" lon="6.05948">
        <ele>558.2</ele>
        <time>2026-07-08T14:19:22Z</time>
      </trkpt>
      <trkpt lat="47.05861" lon="6.0595">
        <ele>558.4</ele>
        <time>2026-07-08T14:19:23Z</time>
      </trkpt>
      <trkpt lat="47.05859" lon="6.05953">
        <ele>558.6</ele>
        <time>2026-07-08T14:19:24Z</time>
      </trkpt>
      <trkpt lat="47.05857" lon="6.05955">
        <ele>558.6</ele>
        <time>2026-07-08T14:19:25Z</time>
      </trkpt>
      <trkpt lat="47.05855" lon="6.05957">
        <ele>558.8</ele>
        <time>2026-07-08T14:19:26Z</time>
      </trkpt>
      <trkpt lat="47.05853" lon="6.05959">
        <ele>559</ele>
        <time>2026-07-08T14:19:27Z</time>
      </trkpt>
      <trkpt lat="47.05851" lon="6.05961">
        <ele>559</ele>
        <time>2026-07-08T14:19:28Z</time>
      </trkpt>
      <trkpt lat="47.05848" lon="6.05963">
        <ele>559</ele>
        <time>2026-07-08T14:19:29Z</time>
      </trkpt>
      <trkpt lat="47.05846" lon="6.05964">
        <ele>559</ele>
        <time>2026-07-08T14:19:30Z</time>
      </trkpt>
      <trkpt lat="47.05845" lon="6.05965">
        <ele>559</ele>
        <time>2026-07-08T14:19:31Z</time>
      </trkpt>
      <trkpt lat="47.05842" lon="6.05966">
        <ele>559</ele>
        <time>2026-07-08T14:19:32Z</time>
      </trkpt>
      <trkpt lat="47.0584" lon="6.05968">
        <ele>559.4</ele>
        <time>2026-07-08T14:19:33Z</time>
      </trkpt>
      <trkpt lat="47.05837" lon="6.05969">
        <ele>559.4</ele>
        <time>2026-07-08T14:19:34Z</time>
      </trkpt>
      <trkpt lat="47.05835" lon="6.0597">
        <ele>559.4</ele>
        <time>2026-07-08T14:19:35Z</time>
      </trkpt>
      <trkpt lat="47.05832" lon="6.0597">
        <ele>559.4</ele>
        <time>2026-07-08T14:19:36Z</time>
      </trkpt>
      <trkpt lat="47.05829" lon="6.05972">
        <ele>559.6</ele>
        <time>2026-07-08T14:19:37Z</time>
      </trkpt>
      <trkpt lat="47.05827" lon="6.05974">
        <ele>559.8</ele>
        <time>2026-07-08T14:19:38Z</time>
      </trkpt>
      <trkpt lat="47.05824" lon="6.05977">
        <ele>559.8</ele>
        <time>2026-07-08T14:19:39Z</time>
      </trkpt>
      <trkpt lat="47.05822" lon="6.05978">
        <ele>559.8</ele>
        <time>2026-07-08T14:19:40Z</time>
      </trkpt>
      <trkpt lat="47.0582" lon="6.0598">
        <ele>560</ele>
        <time>2026-07-08T14:19:41Z</time>
      </trkpt>
      <trkpt lat="47.05817" lon="6.05982">
        <ele>560.2</ele>
        <time>2026-07-08T14:19:42Z</time>
      </trkpt>
      <trkpt lat="47.05814" lon="6.05984">
        <ele>560.2</ele>
        <time>2026-07-08T14:19:43Z</time>
      </trkpt>
      <trkpt lat="47.05811" lon="6.05985">
        <ele>560.4</ele>
        <time>2026-07-08T14:19:44Z</time>
      </trkpt>
      <trkpt lat="47.05809" lon="6.05985">
        <ele>560.4</ele>
        <time>2026-07-08T14:19:45Z</time>
      </trkpt>
      <trkpt lat="47.05807" lon="6.05985">
        <ele>560.4</ele>
        <time>2026-07-08T14:19:46Z</time>
      </trkpt>
      <trkpt lat="47.05804" lon="6.05986">
        <ele>560.6</ele>
        <time>2026-07-08T14:19:47Z</time>
      </trkpt>
      <trkpt lat="47.05802" lon="6.05988">
        <ele>560.8</ele>
        <time>2026-07-08T14:19:48Z</time>
      </trkpt>
      <trkpt lat="47.05799" lon="6.05989">
        <ele>561</ele>
        <time>2026-07-08T14:19:49Z</time>
      </trkpt>
      <trkpt lat="47.05796" lon="6.0599">
        <ele>561.2</ele>
        <time>2026-07-08T14:19:50Z</time>
      </trkpt>
      <trkpt lat="47.05794" lon="6.0599">
        <ele>561.2</ele>
        <time>2026-07-08T14:19:51Z</time>
      </trkpt>
      <trkpt lat="47.05791" lon="6.05991">
        <ele>561</ele>
        <time>2026-07-08T14:19:52Z</time>
      </trkpt>
      <trkpt lat="47.05789" lon="6.05992">
        <ele>561.4</ele>
        <time>2026-07-08T14:19:53Z</time>
      </trkpt>
      <trkpt lat="47.05786" lon="6.05993">
        <ele>561.4</ele>
        <time>2026-07-08T14:19:54Z</time>
      </trkpt>
      <trkpt lat="47.05783" lon="6.05994">
        <ele>561.6</ele>
        <time>2026-07-08T14:19:55Z</time>
      </trkpt>
      <trkpt lat="47.0578" lon="6.05996">
        <ele>561.6</ele>
        <time>2026-07-08T14:19:56Z</time>
      </trkpt>
      <trkpt lat="47.05777" lon="6.05998">
        <ele>561.6</ele>
        <time>2026-07-08T14:19:57Z</time>
      </trkpt>
      <trkpt lat="47.05774" lon="6.05999">
        <ele>561.6</ele>
        <time>2026-07-08T14:19:58Z</time>
      </trkpt>
      <trkpt lat="47.05771" lon="6.06001">
        <ele>561.8</ele>
        <time>2026-07-08T14:19:59Z</time>
      </trkpt>
      <trkpt lat="47.05769" lon="6.06003">
        <ele>561.8</ele>
        <time>2026-07-08T14:20:00Z</time>
      </trkpt>
      <trkpt lat="47.05766" lon="6.06003">
        <ele>562</ele>
        <time>2026-07-08T14:20:01Z</time>
      </trkpt>
      <trkpt lat="47.05763" lon="6.06004">
        <ele>562</ele>
        <time>2026-07-08T14:20:02Z</time>
      </trkpt>
      <trkpt lat="47.0576" lon="6.06005">
        <ele>562.4</ele>
        <time>2026-07-08T14:20:03Z</time>
      </trkpt>
      <trkpt lat="47.05757" lon="6.06006">
        <ele>562.4</ele>
        <time>2026-07-08T14:20:04Z</time>
      </trkpt>
      <trkpt lat="47.05755" lon="6.06007">
        <ele>562.4</ele>
        <time>2026-07-08T14:20:05Z</time>
      </trkpt>
      <trkpt lat="47.05753" lon="6.0601">
        <ele>562.2</ele>
        <time>2026-07-08T14:20:06Z</time>
      </trkpt>
      <trkpt lat="47.05751" lon="6.06012">
        <ele>562.6</ele>
        <time>2026-07-08T14:20:07Z</time>
      </trkpt>
      <trkpt lat="47.05749" lon="6.06015">
        <ele>562.6</ele>
        <time>2026-07-08T14:20:08Z</time>
      </trkpt>
      <trkpt lat="47.05746" lon="6.06018">
        <ele>562.8</ele>
        <time>2026-07-08T14:20:09Z</time>
      </trkpt>
      <trkpt lat="47.05744" lon="6.0602">
        <ele>562.8</ele>
        <time>2026-07-08T14:20:10Z</time>
      </trkpt>
      <trkpt lat="47.05742" lon="6.06022">
        <ele>563</ele>
        <time>2026-07-08T14:20:11Z</time>
      </trkpt>
      <trkpt lat="47.05739" lon="6.06025">
        <ele>563.2</ele>
        <time>2026-07-08T14:20:12Z</time>
      </trkpt>
      <trkpt lat="47.05737" lon="6.06027">
        <ele>563.2</ele>
        <time>2026-07-08T14:20:13Z</time>
      </trkpt>
      <trkpt lat="47.05734" lon="6.06029">
        <ele>563.4</ele>
        <time>2026-07-08T14:20:14Z</time>
      </trkpt>
      <trkpt lat="47.05732" lon="6.06031">
        <ele>563.6</ele>
        <time>2026-07-08T14:20:15Z</time>
      </trkpt>
      <trkpt lat="47.0573" lon="6.06033">
        <ele>563.6</ele>
        <time>2026-07-08T14:20:16Z</time>
      </trkpt>
      <trkpt lat="47.05727" lon="6.06034">
        <ele>563.6</ele>
        <time>2026-07-08T14:20:17Z</time>
      </trkpt>
      <trkpt lat="47.05725" lon="6.06036">
        <ele>563.8</ele>
        <time>2026-07-08T14:20:18Z</time>
      </trkpt>
      <trkpt lat="47.05722" lon="6.06037">
        <ele>564</ele>
        <time>2026-07-08T14:20:19Z</time>
      </trkpt>
      <trkpt lat="47.0572" lon="6.06039">
        <ele>564</ele>
        <time>2026-07-08T14:20:20Z</time>
      </trkpt>
      <trkpt lat="47.05717" lon="6.06041">
        <ele>564.2</ele>
        <time>2026-07-08T14:20:21Z</time>
      </trkpt>
      <trkpt lat="47.05714" lon="6.06043">
        <ele>564.2</ele>
        <time>2026-07-08T14:20:22Z</time>
      </trkpt>
      <trkpt lat="47.05712" lon="6.06044">
        <ele>564</ele>
        <time>2026-07-08T14:20:23Z</time>
      </trkpt>
      <trkpt lat="47.0571" lon="6.06046">
        <ele>564.2</ele>
        <time>2026-07-08T14:20:24Z</time>
      </trkpt>
      <trkpt lat="47.05708" lon="6.06048">
        <ele>564.2</ele>
        <time>2026-07-08T14:20:25Z</time>
      </trkpt>
      <trkpt lat="47.05705" lon="6.06049">
        <ele>564.4</ele>
        <time>2026-07-08T14:20:26Z</time>
      </trkpt>
      <trkpt lat="47.05703" lon="6.0605">
        <ele>564.2</ele>
        <time>2026-07-08T14:20:27Z</time>
      </trkpt>
      <trkpt lat="47.057" lon="6.06052">
        <ele>564.2</ele>
        <time>2026-07-08T14:20:28Z</time>
      </trkpt>
      <trkpt lat="47.05698" lon="6.06054">
        <ele>564.6</ele>
        <time>2026-07-08T14:20:29Z</time>
      </trkpt>
      <trkpt lat="47.05696" lon="6.06057">
        <ele>564.4</ele>
        <time>2026-07-08T14:20:30Z</time>
      </trkpt>
      <trkpt lat="47.05694" lon="6.06058">
        <ele>564.4</ele>
        <time>2026-07-08T14:20:31Z</time>
      </trkpt>
      <trkpt lat="47.05692" lon="6.06059">
        <ele>564.8</ele>
        <time>2026-07-08T14:20:32Z</time>
      </trkpt>
      <trkpt lat="47.05689" lon="6.0606">
        <ele>565</ele>
        <time>2026-07-08T14:20:33Z</time>
      </trkpt>
      <trkpt lat="47.05687" lon="6.06061">
        <ele>565</ele>
        <time>2026-07-08T14:20:34Z</time>
      </trkpt>
      <trkpt lat="47.05684" lon="6.06062">
        <ele>565.2</ele>
        <time>2026-07-08T14:20:35Z</time>
      </trkpt>
      <trkpt lat="47.05681" lon="6.06063">
        <ele>565.2</ele>
        <time>2026-07-08T14:20:36Z</time>
      </trkpt>
      <trkpt lat="47.05679" lon="6.06064">
        <ele>565.4</ele>
        <time>2026-07-08T14:20:37Z</time>
      </trkpt>
      <trkpt lat="47.05676" lon="6.06065">
        <ele>565.6</ele>
        <time>2026-07-08T14:20:38Z</time>
      </trkpt>
      <trkpt lat="47.05673" lon="6.06066">
        <ele>565.8</ele>
        <time>2026-07-08T14:20:39Z</time>
      </trkpt>
      <trkpt lat="47.05671" lon="6.06066">
        <ele>566</ele>
        <time>2026-07-08T14:20:40Z</time>
      </trkpt>
      <trkpt lat="47.05668" lon="6.06066">
        <ele>566</ele>
        <time>2026-07-08T14:20:41Z</time>
      </trkpt>
      <trkpt lat="47.05666" lon="6.06067">
        <ele>566.2</ele>
        <time>2026-07-08T14:20:42Z</time>
      </trkpt>
      <trkpt lat="47.05664" lon="6.06067">
        <ele>566.4</ele>
        <time>2026-07-08T14:20:43Z</time>
      </trkpt>
      <trkpt lat="47.05662" lon="6.06068">
        <ele>566.4</ele>
        <time>2026-07-08T14:20:44Z</time>
      </trkpt>
      <trkpt lat="47.05659" lon="6.06069">
        <ele>566.6</ele>
        <time>2026-07-08T14:20:45Z</time>
      </trkpt>
      <trkpt lat="47.05657" lon="6.0607">
        <ele>566.6</ele>
        <time>2026-07-08T14:20:46Z</time>
      </trkpt>
      <trkpt lat="47.05654" lon="6.06072">
        <ele>566.6</ele>
        <time>2026-07-08T14:20:47Z</time>
      </trkpt>
      <trkpt lat="47.05652" lon="6.06073">
        <ele>566.8</ele>
        <time>2026-07-08T14:20:48Z</time>
      </trkpt>
      <trkpt lat="47.05649" lon="6.06074">
        <ele>567</ele>
        <time>2026-07-08T14:20:49Z</time>
      </trkpt>
      <trkpt lat="47.05647" lon="6.06076">
        <ele>567</ele>
        <time>2026-07-08T14:20:50Z</time>
      </trkpt>
      <trkpt lat="47.05645" lon="6.06077">
        <ele>567.2</ele>
        <time>2026-07-08T14:20:51Z</time>
      </trkpt>
      <trkpt lat="47.05642" lon="6.06078">
        <ele>567.2</ele>
        <time>2026-07-08T14:20:52Z</time>
      </trkpt>
      <trkpt lat="47.0564" lon="6.06079">
        <ele>567.4</ele>
        <time>2026-07-08T14:20:53Z</time>
      </trkpt>
      <trkpt lat="47.05638" lon="6.06081">
        <ele>567.4</ele>
        <time>2026-07-08T14:20:54Z</time>
      </trkpt>
      <trkpt lat="47.05636" lon="6.06083">
        <ele>567.6</ele>
        <time>2026-07-08T14:20:55Z</time>
      </trkpt>
      <trkpt lat="47.05633" lon="6.06083">
        <ele>567.6</ele>
        <time>2026-07-08T14:20:56Z</time>
      </trkpt>
      <trkpt lat="47.05631" lon="6.06084">
        <ele>567.6</ele>
        <time>2026-07-08T14:20:57Z</time>
      </trkpt>
      <trkpt lat="47.05629" lon="6.06085">
        <ele>568</ele>
        <time>2026-07-08T14:20:58Z</time>
      </trkpt>
      <trkpt lat="47.05627" lon="6.06085">
        <ele>568.4</ele>
        <time>2026-07-08T14:20:59Z</time>
      </trkpt>
      <trkpt lat="47.05625" lon="6.06085">
        <ele>568.2</ele>
        <time>2026-07-08T14:21:00Z</time>
      </trkpt>
      <trkpt lat="47.05623" lon="6.06087">
        <ele>568.4</ele>
        <time>2026-07-08T14:21:01Z</time>
      </trkpt>
      <trkpt lat="47.05621" lon="6.06088">
        <ele>568.6</ele>
        <time>2026-07-08T14:21:02Z</time>
      </trkpt>
      <trkpt lat="47.05619" lon="6.06089">
        <ele>568.6</ele>
        <time>2026-07-08T14:21:03Z</time>
      </trkpt>
      <trkpt lat="47.05617" lon="6.0609">
        <ele>568.8</ele>
        <time>2026-07-08T14:21:04Z</time>
      </trkpt>
      <trkpt lat="47.05615" lon="6.06091">
        <ele>569</ele>
        <time>2026-07-08T14:21:05Z</time>
      </trkpt>
      <trkpt lat="47.05613" lon="6.06091">
        <ele>569</ele>
        <time>2026-07-08T14:21:06Z</time>
      </trkpt>
      <trkpt lat="47.05611" lon="6.06092">
        <ele>569.2</ele>
        <time>2026-07-08T14:21:07Z</time>
      </trkpt>
      <trkpt lat="47.05608" lon="6.06093">
        <ele>569.4</ele>
        <time>2026-07-08T14:21:08Z</time>
      </trkpt>
      <trkpt lat="47.05606" lon="6.06094">
        <ele>569.6</ele>
        <time>2026-07-08T14:21:09Z</time>
      </trkpt>
      <trkpt lat="47.05604" lon="6.06095">
        <ele>569.4</ele>
        <time>2026-07-08T14:21:10Z</time>
      </trkpt>
      <trkpt lat="47.05602" lon="6.06096">
        <ele>569.6</ele>
        <time>2026-07-08T14:21:11Z</time>
      </trkpt>
      <trkpt lat="47.056" lon="6.06097">
        <ele>569.6</ele>
        <time>2026-07-08T14:21:12Z</time>
      </trkpt>
      <trkpt lat="47.05597" lon="6.06098">
        <ele>569.6</ele>
        <time>2026-07-08T14:21:13Z</time>
      </trkpt>
      <trkpt lat="47.05595" lon="6.06099">
        <ele>570</ele>
        <time>2026-07-08T14:21:14Z</time>
      </trkpt>
      <trkpt lat="47.05592" lon="6.061">
        <ele>570</ele>
        <time>2026-07-08T14:21:15Z</time>
      </trkpt>
      <trkpt lat="47.05589" lon="6.06101">
        <ele>570</ele>
        <time>2026-07-08T14:21:16Z</time>
      </trkpt>
      <trkpt lat="47.05586" lon="6.06103">
        <ele>570.2</ele>
        <time>2026-07-08T14:21:17Z</time>
      </trkpt>
      <trkpt lat="47.05583" lon="6.06106">
        <ele>570.2</ele>
        <time>2026-07-08T14:21:18Z</time>
      </trkpt>
      <trkpt lat="47.0558" lon="6.06109">
        <ele>570.2</ele>
        <time>2026-07-08T14:21:19Z</time>
      </trkpt>
      <trkpt lat="47.05577" lon="6.06114">
        <ele>570.2</ele>
        <time>2026-07-08T14:21:20Z</time>
      </trkpt>
      <trkpt lat="47.05575" lon="6.06115">
        <ele>570.2</ele>
        <time>2026-07-08T14:21:21Z</time>
      </trkpt>
      <trkpt lat="47.05572" lon="6.06118">
        <ele>570.2</ele>
        <time>2026-07-08T14:21:22Z</time>
      </trkpt>
      <trkpt lat="47.0557" lon="6.06119">
        <ele>570.4</ele>
        <time>2026-07-08T14:21:23Z</time>
      </trkpt>
      <trkpt lat="47.05568" lon="6.0612">
        <ele>570.4</ele>
        <time>2026-07-08T14:21:24Z</time>
      </trkpt>
      <trkpt lat="47.05566" lon="6.06123">
        <ele>570.6</ele>
        <time>2026-07-08T14:21:25Z</time>
      </trkpt>
      <trkpt lat="47.05563" lon="6.06125">
        <ele>570.6</ele>
        <time>2026-07-08T14:21:26Z</time>
      </trkpt>
      <trkpt lat="47.05561" lon="6.06126">
        <ele>570.6</ele>
        <time>2026-07-08T14:21:27Z</time>
      </trkpt>
      <trkpt lat="47.05558" lon="6.06127">
        <ele>570.8</ele>
        <time>2026-07-08T14:21:28Z</time>
      </trkpt>
      <trkpt lat="47.05556" lon="6.06128">
        <ele>571</ele>
        <time>2026-07-08T14:21:29Z</time>
      </trkpt>
      <trkpt lat="47.05554" lon="6.0613">
        <ele>571</ele>
        <time>2026-07-08T14:21:30Z</time>
      </trkpt>
      <trkpt lat="47.05551" lon="6.0613">
        <ele>571.2</ele>
        <time>2026-07-08T14:21:31Z</time>
      </trkpt>
      <trkpt lat="47.05549" lon="6.0613">
        <ele>571.4</ele>
        <time>2026-07-08T14:21:32Z</time>
      </trkpt>
      <trkpt lat="47.05546" lon="6.0613">
        <ele>571.4</ele>
        <time>2026-07-08T14:21:33Z</time>
      </trkpt>
      <trkpt lat="47.05544" lon="6.0613">
        <ele>571.4</ele>
        <time>2026-07-08T14:21:34Z</time>
      </trkpt>
      <trkpt lat="47.05541" lon="6.06131">
        <ele>571.6</ele>
        <time>2026-07-08T14:21:35Z</time>
      </trkpt>
      <trkpt lat="47.05539" lon="6.06132">
        <ele>571.6</ele>
        <time>2026-07-08T14:21:36Z</time>
      </trkpt>
      <trkpt lat="47.05537" lon="6.06132">
        <ele>571.8</ele>
        <time>2026-07-08T14:21:37Z</time>
      </trkpt>
      <trkpt lat="47.05534" lon="6.06133">
        <ele>572</ele>
        <time>2026-07-08T14:21:38Z</time>
      </trkpt>
      <trkpt lat="47.05532" lon="6.06135">
        <ele>571.8</ele>
        <time>2026-07-08T14:21:39Z</time>
      </trkpt>
      <trkpt lat="47.05531" lon="6.06137">
        <ele>572</ele>
        <time>2026-07-08T14:21:40Z</time>
      </trkpt>
      <trkpt lat="47.05529" lon="6.06138">
        <ele>572</ele>
        <time>2026-07-08T14:21:41Z</time>
      </trkpt>
      <trkpt lat="47.05527" lon="6.06139">
        <ele>572.2</ele>
        <time>2026-07-08T14:21:42Z</time>
      </trkpt>
      <trkpt lat="47.05525" lon="6.06138">
        <ele>572.2</ele>
        <time>2026-07-08T14:21:43Z</time>
      </trkpt>
      <trkpt lat="47.05522" lon="6.06138">
        <ele>572.6</ele>
        <time>2026-07-08T14:21:44Z</time>
      </trkpt>
      <trkpt lat="47.05519" lon="6.06138">
        <ele>572.8</ele>
        <time>2026-07-08T14:21:45Z</time>
      </trkpt>
      <trkpt lat="47.05517" lon="6.06139">
        <ele>573</ele>
        <time>2026-07-08T14:21:46Z</time>
      </trkpt>
      <trkpt lat="47.05514" lon="6.0614">
        <ele>573</ele>
        <time>2026-07-08T14:21:47Z</time>
      </trkpt>
      <trkpt lat="47.05511" lon="6.06141">
        <ele>573</ele>
        <time>2026-07-08T14:21:48Z</time>
      </trkpt>
      <trkpt lat="47.05509" lon="6.06141">
        <ele>573.2</ele>
        <time>2026-07-08T14:21:49Z</time>
      </trkpt>
      <trkpt lat="47.05506" lon="6.06142">
        <ele>573.2</ele>
        <time>2026-07-08T14:21:50Z</time>
      </trkpt>
      <trkpt lat="47.05504" lon="6.06144">
        <ele>573.2</ele>
        <time>2026-07-08T14:21:51Z</time>
      </trkpt>
      <trkpt lat="47.05502" lon="6.06145">
        <ele>573.4</ele>
        <time>2026-07-08T14:21:52Z</time>
      </trkpt>
      <trkpt lat="47.05499" lon="6.06146">
        <ele>573.6</ele>
        <time>2026-07-08T14:21:53Z</time>
      </trkpt>
      <trkpt lat="47.05497" lon="6.06148">
        <ele>573.4</ele>
        <time>2026-07-08T14:21:54Z</time>
      </trkpt>
      <trkpt lat="47.05494" lon="6.0615">
        <ele>573.8</ele>
        <time>2026-07-08T14:21:55Z</time>
      </trkpt>
      <trkpt lat="47.05492" lon="6.06152">
        <ele>573.8</ele>
        <time>2026-07-08T14:21:56Z</time>
      </trkpt>
      <trkpt lat="47.05489" lon="6.06154">
        <ele>573.8</ele>
        <time>2026-07-08T14:21:57Z</time>
      </trkpt>
      <trkpt lat="47.05486" lon="6.06156">
        <ele>573.8</ele>
        <time>2026-07-08T14:21:58Z</time>
      </trkpt>
      <trkpt lat="47.05483" lon="6.06158">
        <ele>574</ele>
        <time>2026-07-08T14:21:59Z</time>
      </trkpt>
      <trkpt lat="47.0548" lon="6.06159">
        <ele>574</ele>
        <time>2026-07-08T14:22:00Z</time>
      </trkpt>
      <trkpt lat="47.05477" lon="6.06161">
        <ele>574.2</ele>
        <time>2026-07-08T14:22:01Z</time>
      </trkpt>
      <trkpt lat="47.05474" lon="6.06162">
        <ele>574.2</ele>
        <time>2026-07-08T14:22:02Z</time>
      </trkpt>
      <trkpt lat="47.05471" lon="6.06164">
        <ele>574.4</ele>
        <time>2026-07-08T14:22:03Z</time>
      </trkpt>
      <trkpt lat="47.05467" lon="6.06165">
        <ele>574.4</ele>
        <time>2026-07-08T14:22:04Z</time>
      </trkpt>
      <trkpt lat="47.05464" lon="6.06166">
        <ele>574.6</ele>
        <time>2026-07-08T14:22:05Z</time>
      </trkpt>
      <trkpt lat="47.0546" lon="6.06167">
        <ele>574.4</ele>
        <time>2026-07-08T14:22:06Z</time>
      </trkpt>
      <trkpt lat="47.05457" lon="6.06168">
        <ele>574.4</ele>
        <time>2026-07-08T14:22:07Z</time>
      </trkpt>
      <trkpt lat="47.05454" lon="6.0617">
        <ele>574.6</ele>
        <time>2026-07-08T14:22:08Z</time>
      </trkpt>
      <trkpt lat="47.0545" lon="6.06172">
        <ele>574.8</ele>
        <time>2026-07-08T14:22:09Z</time>
      </trkpt>
      <trkpt lat="47.05446" lon="6.06173">
        <ele>574.8</ele>
        <time>2026-07-08T14:22:10Z</time>
      </trkpt>
      <trkpt lat="47.05442" lon="6.06174">
        <ele>574.8</ele>
        <time>2026-07-08T14:22:11Z</time>
      </trkpt>
      <trkpt lat="47.05439" lon="6.06176">
        <ele>574.8</ele>
        <time>2026-07-08T14:22:12Z</time>
      </trkpt>
      <trkpt lat="47.05435" lon="6.06178">
        <ele>574.6</ele>
        <time>2026-07-08T14:22:13Z</time>
      </trkpt>
      <trkpt lat="47.05431" lon="6.06179">
        <ele>574.8</ele>
        <time>2026-07-08T14:22:14Z</time>
      </trkpt>
      <trkpt lat="47.05428" lon="6.06181">
        <ele>574.8</ele>
        <time>2026-07-08T14:22:15Z</time>
      </trkpt>
      <trkpt lat="47.05425" lon="6.06184">
        <ele>574.8</ele>
        <time>2026-07-08T14:22:16Z</time>
      </trkpt>
      <trkpt lat="47.05421" lon="6.06188">
        <ele>575</ele>
        <time>2026-07-08T14:22:17Z</time>
      </trkpt>
      <trkpt lat="47.05417" lon="6.06191">
        <ele>574.8</ele>
        <time>2026-07-08T14:22:18Z</time>
      </trkpt>
      <trkpt lat="47.05413" lon="6.06193">
        <ele>574.8</ele>
        <time>2026-07-08T14:22:19Z</time>
      </trkpt>
      <trkpt lat="47.0541" lon="6.06195">
        <ele>575</ele>
        <time>2026-07-08T14:22:20Z</time>
      </trkpt>
      <trkpt lat="47.05407" lon="6.06197">
        <ele>574.8</ele>
        <time>2026-07-08T14:22:21Z</time>
      </trkpt>
      <trkpt lat="47.05404" lon="6.062">
        <ele>574.8</ele>
        <time>2026-07-08T14:22:22Z</time>
      </trkpt>
      <trkpt lat="47.05401" lon="6.06201">
        <ele>574.8</ele>
        <time>2026-07-08T14:22:23Z</time>
      </trkpt>
      <trkpt lat="47.05398" lon="6.06204">
        <ele>574.6</ele>
        <time>2026-07-08T14:22:24Z</time>
      </trkpt>
      <trkpt lat="47.05394" lon="6.06207">
        <ele>574.6</ele>
        <time>2026-07-08T14:22:25Z</time>
      </trkpt>
      <trkpt lat="47.05391" lon="6.06209">
        <ele>574.4</ele>
        <time>2026-07-08T14:22:26Z</time>
      </trkpt>
      <trkpt lat="47.05387" lon="6.06212">
        <ele>574.2</ele>
        <time>2026-07-08T14:22:27Z</time>
      </trkpt>
      <trkpt lat="47.05383" lon="6.06214">
        <ele>574.2</ele>
        <time>2026-07-08T14:22:28Z</time>
      </trkpt>
      <trkpt lat="47.0538" lon="6.06216">
        <ele>574.2</ele>
        <time>2026-07-08T14:22:29Z</time>
      </trkpt>
      <trkpt lat="47.05376" lon="6.06217">
        <ele>574.2</ele>
        <time>2026-07-08T14:22:30Z</time>
      </trkpt>
      <trkpt lat="47.05372" lon="6.06218">
        <ele>574</ele>
        <time>2026-07-08T14:22:31Z</time>
      </trkpt>
      <trkpt lat="47.05369" lon="6.06219">
        <ele>574.2</ele>
        <time>2026-07-08T14:22:32Z</time>
      </trkpt>
      <trkpt lat="47.05365" lon="6.06221">
        <ele>574</ele>
        <time>2026-07-08T14:22:33Z</time>
      </trkpt>
      <trkpt lat="47.05362" lon="6.06224">
        <ele>574</ele>
        <time>2026-07-08T14:22:34Z</time>
      </trkpt>
      <trkpt lat="47.05359" lon="6.06226">
        <ele>574</ele>
        <time>2026-07-08T14:22:35Z</time>
      </trkpt>
      <trkpt lat="47.05356" lon="6.06228">
        <ele>573.8</ele>
        <time>2026-07-08T14:22:36Z</time>
      </trkpt>
      <trkpt lat="47.05352" lon="6.06231">
        <ele>573.8</ele>
        <time>2026-07-08T14:22:37Z</time>
      </trkpt>
      <trkpt lat="47.05349" lon="6.06234">
        <ele>573.8</ele>
        <time>2026-07-08T14:22:38Z</time>
      </trkpt>
      <trkpt lat="47.05346" lon="6.06237">
        <ele>573.8</ele>
        <time>2026-07-08T14:22:39Z</time>
      </trkpt>
      <trkpt lat="47.05342" lon="6.06239">
        <ele>573.8</ele>
        <time>2026-07-08T14:22:40Z</time>
      </trkpt>
      <trkpt lat="47.05339" lon="6.0624">
        <ele>573.8</ele>
        <time>2026-07-08T14:22:41Z</time>
      </trkpt>
      <trkpt lat="47.05336" lon="6.06242">
        <ele>573.8</ele>
        <time>2026-07-08T14:22:42Z</time>
      </trkpt>
      <trkpt lat="47.05333" lon="6.06244">
        <ele>573.8</ele>
        <time>2026-07-08T14:22:43Z</time>
      </trkpt>
      <trkpt lat="47.0533" lon="6.06248">
        <ele>573.8</ele>
        <time>2026-07-08T14:22:44Z</time>
      </trkpt>
      <trkpt lat="47.05327" lon="6.06251">
        <ele>573.8</ele>
        <time>2026-07-08T14:22:45Z</time>
      </trkpt>
      <trkpt lat="47.05325" lon="6.06255">
        <ele>573.8</ele>
        <time>2026-07-08T14:22:46Z</time>
      </trkpt>
      <trkpt lat="47.05322" lon="6.0626">
        <ele>573.8</ele>
        <time>2026-07-08T14:22:47Z</time>
      </trkpt>
      <trkpt lat="47.05319" lon="6.06264">
        <ele>573.8</ele>
        <time>2026-07-08T14:22:48Z</time>
      </trkpt>
      <trkpt lat="47.05316" lon="6.06269">
        <ele>574</ele>
        <time>2026-07-08T14:22:49Z</time>
      </trkpt>
      <trkpt lat="47.05314" lon="6.06273">
        <ele>574</ele>
        <time>2026-07-08T14:22:50Z</time>
      </trkpt>
      <trkpt lat="47.05311" lon="6.06278">
        <ele>574</ele>
        <time>2026-07-08T14:22:51Z</time>
      </trkpt>
      <trkpt lat="47.05308" lon="6.06283">
        <ele>573.8</ele>
        <time>2026-07-08T14:22:52Z</time>
      </trkpt>
      <trkpt lat="47.05305" lon="6.06288">
        <ele>574</ele>
        <time>2026-07-08T14:22:53Z</time>
      </trkpt>
      <trkpt lat="47.05302" lon="6.06293">
        <ele>573.8</ele>
        <time>2026-07-08T14:22:54Z</time>
      </trkpt>
      <trkpt lat="47.05299" lon="6.06298">
        <ele>573.8</ele>
        <time>2026-07-08T14:22:55Z</time>
      </trkpt>
      <trkpt lat="47.05296" lon="6.06301">
        <ele>573.8</ele>
        <time>2026-07-08T14:22:56Z</time>
      </trkpt>
      <trkpt lat="47.05292" lon="6.06306">
        <ele>574</ele>
        <time>2026-07-08T14:22:57Z</time>
      </trkpt>
      <trkpt lat="47.05289" lon="6.06309">
        <ele>574</ele>
        <time>2026-07-08T14:22:58Z</time>
      </trkpt>
      <trkpt lat="47.05285" lon="6.06314">
        <ele>573.8</ele>
        <time>2026-07-08T14:22:59Z</time>
      </trkpt>
      <trkpt lat="47.05282" lon="6.06318">
        <ele>574</ele>
        <time>2026-07-08T14:23:00Z</time>
      </trkpt>
      <trkpt lat="47.0528" lon="6.06322">
        <ele>573.8</ele>
        <time>2026-07-08T14:23:01Z</time>
      </trkpt>
      <trkpt lat="47.05278" lon="6.06326">
        <ele>573.8</ele>
        <time>2026-07-08T14:23:02Z</time>
      </trkpt>
      <trkpt lat="47.05276" lon="6.06329">
        <ele>573.8</ele>
        <time>2026-07-08T14:23:03Z</time>
      </trkpt>
      <trkpt lat="47.05275" lon="6.06334">
        <ele>574</ele>
        <time>2026-07-08T14:23:04Z</time>
      </trkpt>
      <trkpt lat="47.05273" lon="6.06338">
        <ele>574</ele>
        <time>2026-07-08T14:23:05Z</time>
      </trkpt>
      <trkpt lat="47.05271" lon="6.06343">
        <ele>574</ele>
        <time>2026-07-08T14:23:06Z</time>
      </trkpt>
      <trkpt lat="47.05269" lon="6.06346">
        <ele>573.8</ele>
        <time>2026-07-08T14:23:07Z</time>
      </trkpt>
      <trkpt lat="47.05266" lon="6.0635">
        <ele>574</ele>
        <time>2026-07-08T14:23:08Z</time>
      </trkpt>
      <trkpt lat="47.05264" lon="6.06354">
        <ele>574</ele>
        <time>2026-07-08T14:23:09Z</time>
      </trkpt>
      <trkpt lat="47.05262" lon="6.06358">
        <ele>574</ele>
        <time>2026-07-08T14:23:10Z</time>
      </trkpt>
      <trkpt lat="47.0526" lon="6.06362">
        <ele>574.2</ele>
        <time>2026-07-08T14:23:11Z</time>
      </trkpt>
      <trkpt lat="47.05258" lon="6.06365">
        <ele>574.4</ele>
        <time>2026-07-08T14:23:12Z</time>
      </trkpt>
      <trkpt lat="47.05256" lon="6.06368">
        <ele>574.4</ele>
        <time>2026-07-08T14:23:13Z</time>
      </trkpt>
      <trkpt lat="47.05253" lon="6.0637">
        <ele>574.6</ele>
        <time>2026-07-08T14:23:14Z</time>
      </trkpt>
      <trkpt lat="47.05251" lon="6.06372">
        <ele>574.8</ele>
        <time>2026-07-08T14:23:15Z</time>
      </trkpt>
      <trkpt lat="47.05248" lon="6.06374">
        <ele>574.8</ele>
        <time>2026-07-08T14:23:16Z</time>
      </trkpt>
      <trkpt lat="47.05246" lon="6.06375">
        <ele>574.8</ele>
        <time>2026-07-08T14:23:17Z</time>
      </trkpt>
      <trkpt lat="47.05243" lon="6.06377">
        <ele>574.8</ele>
        <time>2026-07-08T14:23:18Z</time>
      </trkpt>
      <trkpt lat="47.05241" lon="6.06379">
        <ele>575</ele>
        <time>2026-07-08T14:23:19Z</time>
      </trkpt>
      <trkpt lat="47.0524" lon="6.06381">
        <ele>575</ele>
        <time>2026-07-08T14:23:20Z</time>
      </trkpt>
      <trkpt lat="47.0524" lon="6.06383">
        <ele>575</ele>
        <time>2026-07-08T14:23:21Z</time>
      </trkpt>
      <trkpt lat="47.0524" lon="6.06384">
        <ele>575.2</ele>
        <time>2026-07-08T14:23:22Z</time>
      </trkpt>
      <trkpt lat="47.0524" lon="6.06385">
        <ele>575.2</ele>
        <time>2026-07-08T14:23:23Z</time>
      </trkpt>
      <trkpt lat="47.0524" lon="6.06386">
        <ele>575.2</ele>
        <time>2026-07-08T14:23:24Z</time>
      </trkpt>
      <trkpt lat="47.0524" lon="6.06386">
        <ele>575.2</ele>
        <time>2026-07-08T14:23:25Z</time>
      </trkpt>
      <trkpt lat="47.05248" lon="6.06381">
        <ele>575.6</ele>
        <time>2026-07-08T14:23:40Z</time>
      </trkpt>
      <trkpt lat="47.0525" lon="6.06381">
        <ele>575.6</ele>
        <time>2026-07-08T14:23:41Z</time>
      </trkpt>
      <trkpt lat="47.05253" lon="6.06382">
        <ele>575.6</ele>
        <time>2026-07-08T14:23:42Z</time>
      </trkpt>
      <trkpt lat="47.05256" lon="6.06383">
        <ele>575.6</ele>
        <time>2026-07-08T14:23:43Z</time>
      </trkpt>
      <trkpt lat="47.05259" lon="6.06384">
        <ele>575.6</ele>
        <time>2026-07-08T14:23:44Z</time>
      </trkpt>
      <trkpt lat="47.05262" lon="6.06385">
        <ele>575.6</ele>
        <time>2026-07-08T14:23:45Z</time>
      </trkpt>
      <trkpt lat="47.05264" lon="6.06386">
        <ele>575.6</ele>
        <time>2026-07-08T14:23:46Z</time>
      </trkpt>
      <trkpt lat="47.05268" lon="6.06386">
        <ele>575.8</ele>
        <time>2026-07-08T14:23:47Z</time>
      </trkpt>
      <trkpt lat="47.05271" lon="6.06386">
        <ele>575.8</ele>
        <time>2026-07-08T14:23:48Z</time>
      </trkpt>
      <trkpt lat="47.05275" lon="6.06385">
        <ele>575.8</ele>
        <time>2026-07-08T14:23:49Z</time>
      </trkpt>
      <trkpt lat="47.05278" lon="6.06385">
        <ele>575.8</ele>
        <time>2026-07-08T14:23:50Z</time>
      </trkpt>
      <trkpt lat="47.05281" lon="6.06384">
        <ele>575.8</ele>
        <time>2026-07-08T14:23:51Z</time>
      </trkpt>
      <trkpt lat="47.05284" lon="6.06383">
        <ele>575.8</ele>
        <time>2026-07-08T14:23:52Z</time>
      </trkpt>
      <trkpt lat="47.05286" lon="6.06382">
        <ele>575.6</ele>
        <time>2026-07-08T14:23:53Z</time>
      </trkpt>
      <trkpt lat="47.05288" lon="6.06382">
        <ele>575.6</ele>
        <time>2026-07-08T14:23:54Z</time>
      </trkpt>
      <trkpt lat="47.0529" lon="6.06381">
        <ele>575.8</ele>
        <time>2026-07-08T14:23:55Z</time>
      </trkpt>
      <trkpt lat="47.05289" lon="6.06379">
        <ele>575.8</ele>
        <time>2026-07-08T14:23:56Z</time>
      </trkpt>
      <trkpt lat="47.05288" lon="6.06377">
        <ele>575.8</ele>
        <time>2026-07-08T14:23:57Z</time>
      </trkpt>
      <trkpt lat="47.05286" lon="6.06376">
        <ele>575.8</ele>
        <time>2026-07-08T14:23:58Z</time>
      </trkpt>
      <trkpt lat="47.05284" lon="6.06376">
        <ele>575.6</ele>
        <time>2026-07-08T14:23:59Z</time>
      </trkpt>
      <trkpt lat="47.05282" lon="6.06376">
        <ele>575.6</ele>
        <time>2026-07-08T14:24:00Z</time>
      </trkpt>
      <trkpt lat="47.05279" lon="6.06377">
        <ele>575.4</ele>
        <time>2026-07-08T14:24:01Z</time>
      </trkpt>
      <trkpt lat="47.05276" lon="6.06378">
        <ele>575.2</ele>
        <time>2026-07-08T14:24:02Z</time>
      </trkpt>
      <trkpt lat="47.05274" lon="6.06379">
        <ele>575</ele>
        <time>2026-07-08T14:24:03Z</time>
      </trkpt>
      <trkpt lat="47.05271" lon="6.0638">
        <ele>575</ele>
        <time>2026-07-08T14:24:04Z</time>
      </trkpt>
      <trkpt lat="47.05268" lon="6.06381">
        <ele>574.8</ele>
        <time>2026-07-08T14:24:05Z</time>
      </trkpt>
      <trkpt lat="47.05266" lon="6.06383">
        <ele>575</ele>
        <time>2026-07-08T14:24:06Z</time>
      </trkpt>
      <trkpt lat="47.05263" lon="6.06384">
        <ele>574.8</ele>
        <time>2026-07-08T14:24:07Z</time>
      </trkpt>
      <trkpt lat="47.05261" lon="6.06385">
        <ele>574.8</ele>
        <time>2026-07-08T14:24:08Z</time>
      </trkpt>
      <trkpt lat="47.05258" lon="6.06386">
        <ele>574.8</ele>
        <time>2026-07-08T14:24:09Z</time>
      </trkpt>
      <trkpt lat="47.05256" lon="6.06387">
        <ele>574.8</ele>
        <time>2026-07-08T14:24:10Z</time>
      </trkpt>
      <trkpt lat="47.05253" lon="6.06389">
        <ele>574.8</ele>
        <time>2026-07-08T14:24:11Z</time>
      </trkpt>
      <trkpt lat="47.05251" lon="6.06392">
        <ele>574.8</ele>
        <time>2026-07-08T14:24:12Z</time>
      </trkpt>
      <trkpt lat="47.05248" lon="6.06394">
        <ele>575</ele>
        <time>2026-07-08T14:24:13Z</time>
      </trkpt>
      <trkpt lat="47.05246" lon="6.06397">
        <ele>575</ele>
        <time>2026-07-08T14:24:14Z</time>
      </trkpt>
      <trkpt lat="47.05244" lon="6.064">
        <ele>575.2</ele>
        <time>2026-07-08T14:24:15Z</time>
      </trkpt>
      <trkpt lat="47.05242" lon="6.06402">
        <ele>575.2</ele>
        <time>2026-07-08T14:24:16Z</time>
      </trkpt>
      <trkpt lat="47.0524" lon="6.06405">
        <ele>575.6</ele>
        <time>2026-07-08T14:24:17Z</time>
      </trkpt>
      <trkpt lat="47.05238" lon="6.06407">
        <ele>575.8</ele>
        <time>2026-07-08T14:24:18Z</time>
      </trkpt>
      <trkpt lat="47.05236" lon="6.0641">
        <ele>576</ele>
        <time>2026-07-08T14:24:19Z</time>
      </trkpt>
      <trkpt lat="47.05234" lon="6.06413">
        <ele>576</ele>
        <time>2026-07-08T14:24:20Z</time>
      </trkpt>
      <trkpt lat="47.05232" lon="6.06415">
        <ele>576.2</ele>
        <time>2026-07-08T14:24:21Z</time>
      </trkpt>
      <trkpt lat="47.05231" lon="6.06418">
        <ele>576.4</ele>
        <time>2026-07-08T14:24:22Z</time>
      </trkpt>
      <trkpt lat="47.05229" lon="6.06421">
        <ele>576.4</ele>
        <time>2026-07-08T14:24:23Z</time>
      </trkpt>
      <trkpt lat="47.05227" lon="6.06424">
        <ele>576.6</ele>
        <time>2026-07-08T14:24:24Z</time>
      </trkpt>
      <trkpt lat="47.05226" lon="6.06427">
        <ele>576.6</ele>
        <time>2026-07-08T14:24:25Z</time>
      </trkpt>
      <trkpt lat="47.05224" lon="6.0643">
        <ele>576.8</ele>
        <time>2026-07-08T14:24:26Z</time>
      </trkpt>
      <trkpt lat="47.05223" lon="6.06433">
        <ele>576.8</ele>
        <time>2026-07-08T14:24:27Z</time>
      </trkpt>
      <trkpt lat="47.05221" lon="6.06436">
        <ele>576.8</ele>
        <time>2026-07-08T14:24:28Z</time>
      </trkpt>
      <trkpt lat="47.05219" lon="6.06439">
        <ele>577</ele>
        <time>2026-07-08T14:24:29Z</time>
      </trkpt>
      <trkpt lat="47.05217" lon="6.06442">
        <ele>577</ele>
        <time>2026-07-08T14:24:30Z</time>
      </trkpt>
      <trkpt lat="47.05216" lon="6.06445">
        <ele>577.2</ele>
        <time>2026-07-08T14:24:31Z</time>
      </trkpt>
      <trkpt lat="47.05214" lon="6.06448">
        <ele>577.2</ele>
        <time>2026-07-08T14:24:32Z</time>
      </trkpt>
      <trkpt lat="47.05212" lon="6.0645">
        <ele>577.2</ele>
        <time>2026-07-08T14:24:33Z</time>
      </trkpt>
      <trkpt lat="47.05211" lon="6.06452">
        <ele>577.2</ele>
        <time>2026-07-08T14:24:34Z</time>
      </trkpt>
      <trkpt lat="47.0521" lon="6.06455">
        <ele>577.4</ele>
        <time>2026-07-08T14:24:35Z</time>
      </trkpt>
      <trkpt lat="47.05209" lon="6.06458">
        <ele>577.4</ele>
        <time>2026-07-08T14:24:36Z</time>
      </trkpt>
      <trkpt lat="47.05209" lon="6.06461">
        <ele>577.4</ele>
        <time>2026-07-08T14:24:37Z</time>
      </trkpt>
      <trkpt lat="47.05211" lon="6.06464">
        <ele>577.6</ele>
        <time>2026-07-08T14:24:38Z</time>
      </trkpt>
      <trkpt lat="47.05212" lon="6.06467">
        <ele>577.6</ele>
        <time>2026-07-08T14:24:39Z</time>
      </trkpt>
      <trkpt lat="47.05215" lon="6.06468">
        <ele>577.6</ele>
        <time>2026-07-08T14:24:40Z</time>
      </trkpt>
      <trkpt lat="47.05217" lon="6.0647">
        <ele>577.8</ele>
        <time>2026-07-08T14:24:41Z</time>
      </trkpt>
      <trkpt lat="47.05219" lon="6.06472">
        <ele>578</ele>
        <time>2026-07-08T14:24:42Z</time>
      </trkpt>
      <trkpt lat="47.05222" lon="6.06474">
        <ele>578.2</ele>
        <time>2026-07-08T14:24:43Z</time>
      </trkpt>
      <trkpt lat="47.05224" lon="6.06476">
        <ele>578.2</ele>
        <time>2026-07-08T14:24:44Z</time>
      </trkpt>
      <trkpt lat="47.05227" lon="6.06478">
        <ele>578.2</ele>
        <time>2026-07-08T14:24:45Z</time>
      </trkpt>
      <trkpt lat="47.05229" lon="6.06479">
        <ele>578.6</ele>
        <time>2026-07-08T14:24:46Z</time>
      </trkpt>
      <trkpt lat="47.05232" lon="6.06481">
        <ele>579</ele>
        <time>2026-07-08T14:24:47Z</time>
      </trkpt>
      <trkpt lat="47.05235" lon="6.06482">
        <ele>579</ele>
        <time>2026-07-08T14:24:48Z</time>
      </trkpt>
      <trkpt lat="47.05238" lon="6.06484">
        <ele>579.2</ele>
        <time>2026-07-08T14:24:49Z</time>
      </trkpt>
      <trkpt lat="47.0524" lon="6.06485">
        <ele>579.4</ele>
        <time>2026-07-08T14:24:50Z</time>
      </trkpt>
      <trkpt lat="47.05243" lon="6.06486">
        <ele>579.4</ele>
        <time>2026-07-08T14:24:51Z</time>
      </trkpt>
      <trkpt lat="47.05246" lon="6.06488">
        <ele>579.6</ele>
        <time>2026-07-08T14:24:52Z</time>
      </trkpt>
      <trkpt lat="47.05248" lon="6.0649">
        <ele>579.8</ele>
        <time>2026-07-08T14:24:53Z</time>
      </trkpt>
      <trkpt lat="47.05251" lon="6.06492">
        <ele>579.8</ele>
        <time>2026-07-08T14:24:54Z</time>
      </trkpt>
      <trkpt lat="47.05253" lon="6.06493">
        <ele>580.2</ele>
        <time>2026-07-08T14:24:55Z</time>
      </trkpt>
      <trkpt lat="47.05255" lon="6.06496">
        <ele>580</ele>
        <time>2026-07-08T14:24:56Z</time>
      </trkpt>
      <trkpt lat="47.05257" lon="6.06499">
        <ele>580.2</ele>
        <time>2026-07-08T14:24:57Z</time>
      </trkpt>
      <trkpt lat="47.05259" lon="6.06501">
        <ele>580.4</ele>
        <time>2026-07-08T14:24:58Z</time>
      </trkpt>
      <trkpt lat="47.05261" lon="6.06503">
        <ele>580.6</ele>
        <time>2026-07-08T14:24:59Z</time>
      </trkpt>
      <trkpt lat="47.05263" lon="6.06505">
        <ele>580.8</ele>
        <time>2026-07-08T14:25:00Z</time>
      </trkpt>
      <trkpt lat="47.05265" lon="6.06507">
        <ele>580.8</ele>
        <time>2026-07-08T14:25:01Z</time>
      </trkpt>
      <trkpt lat="47.05267" lon="6.06508">
        <ele>580.8</ele>
        <time>2026-07-08T14:25:02Z</time>
      </trkpt>
      <trkpt lat="47.0527" lon="6.06509">
        <ele>581.2</ele>
        <time>2026-07-08T14:25:03Z</time>
      </trkpt>
      <trkpt lat="47.05272" lon="6.06509">
        <ele>581.4</ele>
        <time>2026-07-08T14:25:04Z</time>
      </trkpt>
      <trkpt lat="47.05275" lon="6.0651">
        <ele>582</ele>
        <time>2026-07-08T14:25:05Z</time>
      </trkpt>
      <trkpt lat="47.05278" lon="6.06511">
        <ele>582.2</ele>
        <time>2026-07-08T14:25:06Z</time>
      </trkpt>
      <trkpt lat="47.05282" lon="6.06513">
        <ele>582.2</ele>
        <time>2026-07-08T14:25:07Z</time>
      </trkpt>
      <trkpt lat="47.05284" lon="6.06515">
        <ele>582.6</ele>
        <time>2026-07-08T14:25:08Z</time>
      </trkpt>
      <trkpt lat="47.05288" lon="6.06517">
        <ele>582.8</ele>
        <time>2026-07-08T14:25:09Z</time>
      </trkpt>
      <trkpt lat="47.0529" lon="6.0652">
        <ele>583.2</ele>
        <time>2026-07-08T14:25:10Z</time>
      </trkpt>
      <trkpt lat="47.05293" lon="6.06523">
        <ele>583.2</ele>
        <time>2026-07-08T14:25:11Z</time>
      </trkpt>
      <trkpt lat="47.05295" lon="6.06525">
        <ele>583.6</ele>
        <time>2026-07-08T14:25:12Z</time>
      </trkpt>
      <trkpt lat="47.05296" lon="6.06528">
        <ele>583.6</ele>
        <time>2026-07-08T14:25:13Z</time>
      </trkpt>
      <trkpt lat="47.05297" lon="6.06531">
        <ele>583.6</ele>
        <time>2026-07-08T14:25:14Z</time>
      </trkpt>
      <trkpt lat="47.05298" lon="6.06534">
        <ele>583.6</ele>
        <time>2026-07-08T14:25:15Z</time>
      </trkpt>
      <trkpt lat="47.05299" lon="6.06536">
        <ele>583.8</ele>
        <time>2026-07-08T14:25:16Z</time>
      </trkpt>
      <trkpt lat="47.053" lon="6.06539">
        <ele>583.8</ele>
        <time>2026-07-08T14:25:17Z</time>
      </trkpt>
      <trkpt lat="47.05301" lon="6.06543">
        <ele>584</ele>
        <time>2026-07-08T14:25:18Z</time>
      </trkpt>
      <trkpt lat="47.05301" lon="6.06546">
        <ele>584.2</ele>
        <time>2026-07-08T14:25:19Z</time>
      </trkpt>
      <trkpt lat="47.05301" lon="6.0655">
        <ele>584.2</ele>
        <time>2026-07-08T14:25:20Z</time>
      </trkpt>
      <trkpt lat="47.05301" lon="6.06554">
        <ele>584.4</ele>
        <time>2026-07-08T14:25:21Z</time>
      </trkpt>
      <trkpt lat="47.053" lon="6.06557">
        <ele>584.4</ele>
        <time>2026-07-08T14:25:22Z</time>
      </trkpt>
      <trkpt lat="47.05299" lon="6.06561">
        <ele>584.6</ele>
        <time>2026-07-08T14:25:23Z</time>
      </trkpt>
      <trkpt lat="47.05298" lon="6.06564">
        <ele>584.8</ele>
        <time>2026-07-08T14:25:24Z</time>
      </trkpt>
      <trkpt lat="47.05297" lon="6.06568">
        <ele>585</ele>
        <time>2026-07-08T14:25:25Z</time>
      </trkpt>
      <trkpt lat="47.05296" lon="6.06571">
        <ele>585</ele>
        <time>2026-07-08T14:25:26Z</time>
      </trkpt>
      <trkpt lat="47.05295" lon="6.06575">
        <ele>585.4</ele>
        <time>2026-07-08T14:25:27Z</time>
      </trkpt>
      <trkpt lat="47.05293" lon="6.06578">
        <ele>585.8</ele>
        <time>2026-07-08T14:25:28Z</time>
      </trkpt>
      <trkpt lat="47.05291" lon="6.06581">
        <ele>586</ele>
        <time>2026-07-08T14:25:29Z</time>
      </trkpt>
      <trkpt lat="47.05289" lon="6.06585">
        <ele>586</ele>
        <time>2026-07-08T14:25:30Z</time>
      </trkpt>
      <trkpt lat="47.05287" lon="6.06588">
        <ele>586.2</ele>
        <time>2026-07-08T14:25:31Z</time>
      </trkpt>
      <trkpt lat="47.05285" lon="6.06592">
        <ele>586.2</ele>
        <time>2026-07-08T14:25:32Z</time>
      </trkpt>
      <trkpt lat="47.05283" lon="6.06595">
        <ele>586.4</ele>
        <time>2026-07-08T14:25:33Z</time>
      </trkpt>
      <trkpt lat="47.0528" lon="6.06598">
        <ele>586.6</ele>
        <time>2026-07-08T14:25:34Z</time>
      </trkpt>
      <trkpt lat="47.05278" lon="6.06601">
        <ele>586.6</ele>
        <time>2026-07-08T14:25:35Z</time>
      </trkpt>
      <trkpt lat="47.05276" lon="6.06604">
        <ele>586.8</ele>
        <time>2026-07-08T14:25:36Z</time>
      </trkpt>
      <trkpt lat="47.05274" lon="6.06606">
        <ele>586.8</ele>
        <time>2026-07-08T14:25:37Z</time>
      </trkpt>
      <trkpt lat="47.05271" lon="6.06609">
        <ele>587</ele>
        <time>2026-07-08T14:25:38Z</time>
      </trkpt>
      <trkpt lat="47.05269" lon="6.06612">
        <ele>587</ele>
        <time>2026-07-08T14:25:39Z</time>
      </trkpt>
      <trkpt lat="47.05266" lon="6.06614">
        <ele>587.2</ele>
        <time>2026-07-08T14:25:40Z</time>
      </trkpt>
      <trkpt lat="47.05263" lon="6.06616">
        <ele>587.2</ele>
        <time>2026-07-08T14:25:41Z</time>
      </trkpt>
      <trkpt lat="47.0526" lon="6.06618">
        <ele>587.4</ele>
        <time>2026-07-08T14:25:42Z</time>
      </trkpt>
      <trkpt lat="47.05257" lon="6.0662">
        <ele>587.2</ele>
        <time>2026-07-08T14:25:43Z</time>
      </trkpt>
      <trkpt lat="47.05254" lon="6.06622">
        <ele>587.4</ele>
        <time>2026-07-08T14:25:44Z</time>
      </trkpt>
      <trkpt lat="47.05251" lon="6.06624">
        <ele>587.6</ele>
        <time>2026-07-08T14:25:45Z</time>
      </trkpt>
      <trkpt lat="47.05247" lon="6.06627">
        <ele>587.6</ele>
        <time>2026-07-08T14:25:46Z</time>
      </trkpt>
      <trkpt lat="47.05244" lon="6.06629">
        <ele>588</ele>
        <time>2026-07-08T14:25:47Z</time>
      </trkpt>
      <trkpt lat="47.0524" lon="6.06632">
        <ele>588.2</ele>
        <time>2026-07-08T14:25:48Z</time>
      </trkpt>
      <trkpt lat="47.05236" lon="6.06635">
        <ele>588.2</ele>
        <time>2026-07-08T14:25:49Z</time>
      </trkpt>
      <trkpt lat="47.05233" lon="6.06638">
        <ele>588.2</ele>
        <time>2026-07-08T14:25:50Z</time>
      </trkpt>
      <trkpt lat="47.05229" lon="6.06641">
        <ele>588.4</ele>
        <time>2026-07-08T14:25:51Z</time>
      </trkpt>
      <trkpt lat="47.05225" lon="6.06644">
        <ele>588.4</ele>
        <time>2026-07-08T14:25:52Z</time>
      </trkpt>
      <trkpt lat="47.05221" lon="6.06647">
        <ele>588.4</ele>
        <time>2026-07-08T14:25:53Z</time>
      </trkpt>
      <trkpt lat="47.05218" lon="6.0665">
        <ele>588.6</ele>
        <time>2026-07-08T14:25:54Z</time>
      </trkpt>
      <trkpt lat="47.05213" lon="6.06653">
        <ele>588.4</ele>
        <time>2026-07-08T14:25:55Z</time>
      </trkpt>
      <trkpt lat="47.05209" lon="6.06656">
        <ele>588.6</ele>
        <time>2026-07-08T14:25:56Z</time>
      </trkpt>
      <trkpt lat="47.05205" lon="6.06659">
        <ele>588.6</ele>
        <time>2026-07-08T14:25:57Z</time>
      </trkpt>
      <trkpt lat="47.05202" lon="6.06663">
        <ele>588.6</ele>
        <time>2026-07-08T14:25:58Z</time>
      </trkpt>
      <trkpt lat="47.05198" lon="6.06666">
        <ele>588.6</ele>
        <time>2026-07-08T14:25:59Z</time>
      </trkpt>
      <trkpt lat="47.05194" lon="6.0667">
        <ele>588.6</ele>
        <time>2026-07-08T14:26:00Z</time>
      </trkpt>
      <trkpt lat="47.05191" lon="6.06672">
        <ele>588.6</ele>
        <time>2026-07-08T14:26:01Z</time>
      </trkpt>
      <trkpt lat="47.05188" lon="6.06675">
        <ele>588.6</ele>
        <time>2026-07-08T14:26:02Z</time>
      </trkpt>
      <trkpt lat="47.05184" lon="6.06676">
        <ele>588.4</ele>
        <time>2026-07-08T14:26:03Z</time>
      </trkpt>
      <trkpt lat="47.05179" lon="6.06676">
        <ele>588.6</ele>
        <time>2026-07-08T14:26:04Z</time>
      </trkpt>
      <trkpt lat="47.05175" lon="6.06676">
        <ele>588.6</ele>
        <time>2026-07-08T14:26:05Z</time>
      </trkpt>
      <trkpt lat="47.0517" lon="6.06676">
        <ele>588.6</ele>
        <time>2026-07-08T14:26:06Z</time>
      </trkpt>
      <trkpt lat="47.05165" lon="6.06676">
        <ele>588.6</ele>
        <time>2026-07-08T14:26:07Z</time>
      </trkpt>
      <trkpt lat="47.0516" lon="6.06677">
        <ele>588.4</ele>
        <time>2026-07-08T14:26:08Z</time>
      </trkpt>
      <trkpt lat="47.05155" lon="6.06678">
        <ele>588.6</ele>
        <time>2026-07-08T14:26:09Z</time>
      </trkpt>
      <trkpt lat="47.0515" lon="6.06681">
        <ele>588.6</ele>
        <time>2026-07-08T14:26:10Z</time>
      </trkpt>
      <trkpt lat="47.05146" lon="6.06684">
        <ele>588.4</ele>
        <time>2026-07-08T14:26:11Z</time>
      </trkpt>
      <trkpt lat="47.05142" lon="6.06688">
        <ele>588.6</ele>
        <time>2026-07-08T14:26:12Z</time>
      </trkpt>
      <trkpt lat="47.05138" lon="6.06692">
        <ele>588.6</ele>
        <time>2026-07-08T14:26:13Z</time>
      </trkpt>
      <trkpt lat="47.05134" lon="6.06695">
        <ele>588.6</ele>
        <time>2026-07-08T14:26:14Z</time>
      </trkpt>
      <trkpt lat="47.0513" lon="6.06698">
        <ele>588.6</ele>
        <time>2026-07-08T14:26:15Z</time>
      </trkpt>
      <trkpt lat="47.05126" lon="6.06701">
        <ele>588.6</ele>
        <time>2026-07-08T14:26:16Z</time>
      </trkpt>
      <trkpt lat="47.05123" lon="6.06704">
        <ele>588.6</ele>
        <time>2026-07-08T14:26:17Z</time>
      </trkpt>
      <trkpt lat="47.05119" lon="6.06706">
        <ele>588.4</ele>
        <time>2026-07-08T14:26:18Z</time>
      </trkpt>
      <trkpt lat="47.05115" lon="6.06709">
        <ele>588.6</ele>
        <time>2026-07-08T14:26:19Z</time>
      </trkpt>
      <trkpt lat="47.05111" lon="6.06711">
        <ele>588.6</ele>
        <time>2026-07-08T14:26:20Z</time>
      </trkpt>
      <trkpt lat="47.05108" lon="6.06713">
        <ele>588.6</ele>
        <time>2026-07-08T14:26:21Z</time>
      </trkpt>
      <trkpt lat="47.05105" lon="6.06715">
        <ele>588.8</ele>
        <time>2026-07-08T14:26:22Z</time>
      </trkpt>
      <trkpt lat="47.05102" lon="6.06717">
        <ele>588.8</ele>
        <time>2026-07-08T14:26:23Z</time>
      </trkpt>
      <trkpt lat="47.05099" lon="6.0672">
        <ele>589</ele>
        <time>2026-07-08T14:26:24Z</time>
      </trkpt>
      <trkpt lat="47.05096" lon="6.06721">
        <ele>588.8</ele>
        <time>2026-07-08T14:26:25Z</time>
      </trkpt>
      <trkpt lat="47.05093" lon="6.06723">
        <ele>588.8</ele>
        <time>2026-07-08T14:26:26Z</time>
      </trkpt>
      <trkpt lat="47.0509" lon="6.06724">
        <ele>589</ele>
        <time>2026-07-08T14:26:27Z</time>
      </trkpt>
      <trkpt lat="47.05087" lon="6.06726">
        <ele>589.2</ele>
        <time>2026-07-08T14:26:28Z</time>
      </trkpt>
      <trkpt lat="47.05084" lon="6.06728">
        <ele>589</ele>
        <time>2026-07-08T14:26:29Z</time>
      </trkpt>
      <trkpt lat="47.05081" lon="6.0673">
        <ele>589.2</ele>
        <time>2026-07-08T14:26:30Z</time>
      </trkpt>
      <trkpt lat="47.05078" lon="6.06732">
        <ele>589.2</ele>
        <time>2026-07-08T14:26:31Z</time>
      </trkpt>
      <trkpt lat="47.05075" lon="6.06733">
        <ele>589.6</ele>
        <time>2026-07-08T14:26:32Z</time>
      </trkpt>
      <trkpt lat="47.05072" lon="6.06735">
        <ele>589.8</ele>
        <time>2026-07-08T14:26:33Z</time>
      </trkpt>
      <trkpt lat="47.05069" lon="6.06736">
        <ele>590</ele>
        <time>2026-07-08T14:26:34Z</time>
      </trkpt>
      <trkpt lat="47.05066" lon="6.06738">
        <ele>590.2</ele>
        <time>2026-07-08T14:26:35Z</time>
      </trkpt>
      <trkpt lat="47.05062" lon="6.0674">
        <ele>590.2</ele>
        <time>2026-07-08T14:26:36Z</time>
      </trkpt>
      <trkpt lat="47.05059" lon="6.0674">
        <ele>590.2</ele>
        <time>2026-07-08T14:26:37Z</time>
      </trkpt>
      <trkpt lat="47.05056" lon="6.06741">
        <ele>590.4</ele>
        <time>2026-07-08T14:26:38Z</time>
      </trkpt>
      <trkpt lat="47.05053" lon="6.06742">
        <ele>590.8</ele>
        <time>2026-07-08T14:26:39Z</time>
      </trkpt>
      <trkpt lat="47.0505" lon="6.06744">
        <ele>590.8</ele>
        <time>2026-07-08T14:26:40Z</time>
      </trkpt>
      <trkpt lat="47.05048" lon="6.06745">
        <ele>591.2</ele>
        <time>2026-07-08T14:26:41Z</time>
      </trkpt>
      <trkpt lat="47.05045" lon="6.06747">
        <ele>591.2</ele>
        <time>2026-07-08T14:26:42Z</time>
      </trkpt>
      <trkpt lat="47.05041" lon="6.06748">
        <ele>591.6</ele>
        <time>2026-07-08T14:26:43Z</time>
      </trkpt>
      <trkpt lat="47.05038" lon="6.06749">
        <ele>591.8</ele>
        <time>2026-07-08T14:26:44Z</time>
      </trkpt>
      <trkpt lat="47.05035" lon="6.0675">
        <ele>592</ele>
        <time>2026-07-08T14:26:45Z</time>
      </trkpt>
      <trkpt lat="47.05031" lon="6.06751">
        <ele>592.2</ele>
        <time>2026-07-08T14:26:46Z</time>
      </trkpt>
      <trkpt lat="47.05027" lon="6.06752">
        <ele>592.4</ele>
        <time>2026-07-08T14:26:47Z</time>
      </trkpt>
      <trkpt lat="47.05023" lon="6.06753">
        <ele>592.6</ele>
        <time>2026-07-08T14:26:48Z</time>
      </trkpt>
      <trkpt lat="47.05019" lon="6.06754">
        <ele>592.8</ele>
        <time>2026-07-08T14:26:49Z</time>
      </trkpt>
      <trkpt lat="47.05016" lon="6.06755">
        <ele>593</ele>
        <time>2026-07-08T14:26:50Z</time>
      </trkpt>
      <trkpt lat="47.05012" lon="6.06756">
        <ele>593.2</ele>
        <time>2026-07-08T14:26:51Z</time>
      </trkpt>
      <trkpt lat="47.05008" lon="6.06756">
        <ele>593.4</ele>
        <time>2026-07-08T14:26:52Z</time>
      </trkpt>
      <trkpt lat="47.05004" lon="6.06757">
        <ele>593.6</ele>
        <time>2026-07-08T14:26:53Z</time>
      </trkpt>
      <trkpt lat="47.05" lon="6.06758">
        <ele>593.6</ele>
        <time>2026-07-08T14:26:54Z</time>
      </trkpt>
      <trkpt lat="47.04997" lon="6.06759">
        <ele>593.8</ele>
        <time>2026-07-08T14:26:55Z</time>
      </trkpt>
      <trkpt lat="47.04993" lon="6.0676">
        <ele>593.8</ele>
        <time>2026-07-08T14:26:56Z</time>
      </trkpt>
      <trkpt lat="47.0499" lon="6.06761">
        <ele>594</ele>
        <time>2026-07-08T14:26:57Z</time>
      </trkpt>
      <trkpt lat="47.04986" lon="6.06761">
        <ele>594</ele>
        <time>2026-07-08T14:26:58Z</time>
      </trkpt>
      <trkpt lat="47.04982" lon="6.06762">
        <ele>594</ele>
        <time>2026-07-08T14:26:59Z</time>
      </trkpt>
      <trkpt lat="47.04979" lon="6.06762">
        <ele>594</ele>
        <time>2026-07-08T14:27:00Z</time>
      </trkpt>
      <trkpt lat="47.04976" lon="6.06762">
        <ele>594.2</ele>
        <time>2026-07-08T14:27:01Z</time>
      </trkpt>
      <trkpt lat="47.04973" lon="6.06761">
        <ele>594.4</ele>
        <time>2026-07-08T14:27:02Z</time>
      </trkpt>
      <trkpt lat="47.0497" lon="6.06761">
        <ele>594.4</ele>
        <time>2026-07-08T14:27:03Z</time>
      </trkpt>
      <trkpt lat="47.04966" lon="6.06761">
        <ele>594.4</ele>
        <time>2026-07-08T14:27:04Z</time>
      </trkpt>
      <trkpt lat="47.04963" lon="6.0676">
        <ele>594.4</ele>
        <time>2026-07-08T14:27:05Z</time>
      </trkpt>
      <trkpt lat="47.0496" lon="6.06759">
        <ele>594.4</ele>
        <time>2026-07-08T14:27:06Z</time>
      </trkpt>
      <trkpt lat="47.04957" lon="6.06758">
        <ele>594.6</ele>
        <time>2026-07-08T14:27:07Z</time>
      </trkpt>
      <trkpt lat="47.04953" lon="6.06757">
        <ele>595</ele>
        <time>2026-07-08T14:27:08Z</time>
      </trkpt>
      <trkpt lat="47.0495" lon="6.06757">
        <ele>595.4</ele>
        <time>2026-07-08T14:27:09Z</time>
      </trkpt>
      <trkpt lat="47.04947" lon="6.06757">
        <ele>595.4</ele>
        <time>2026-07-08T14:27:10Z</time>
      </trkpt>
      <trkpt lat="47.04944" lon="6.06757">
        <ele>595.6</ele>
        <time>2026-07-08T14:27:11Z</time>
      </trkpt>
      <trkpt lat="47.04941" lon="6.06756">
        <ele>595.8</ele>
        <time>2026-07-08T14:27:12Z</time>
      </trkpt>
      <trkpt lat="47.04938" lon="6.06756">
        <ele>596</ele>
        <time>2026-07-08T14:27:13Z</time>
      </trkpt>
      <trkpt lat="47.04934" lon="6.06756">
        <ele>596</ele>
        <time>2026-07-08T14:27:14Z</time>
      </trkpt>
      <trkpt lat="47.04931" lon="6.06756">
        <ele>596</ele>
        <time>2026-07-08T14:27:15Z</time>
      </trkpt>
      <trkpt lat="47.04928" lon="6.06756">
        <ele>596.2</ele>
        <time>2026-07-08T14:27:16Z</time>
      </trkpt>
      <trkpt lat="47.04924" lon="6.06756">
        <ele>596.2</ele>
        <time>2026-07-08T14:27:17Z</time>
      </trkpt>
      <trkpt lat="47.04921" lon="6.06755">
        <ele>596.2</ele>
        <time>2026-07-08T14:27:18Z</time>
      </trkpt>
      <trkpt lat="47.04918" lon="6.06755">
        <ele>596.4</ele>
        <time>2026-07-08T14:27:19Z</time>
      </trkpt>
      <trkpt lat="47.04914" lon="6.06755">
        <ele>596.6</ele>
        <time>2026-07-08T14:27:20Z</time>
      </trkpt>
      <trkpt lat="47.04911" lon="6.06755">
        <ele>596.8</ele>
        <time>2026-07-08T14:27:21Z</time>
      </trkpt>
      <trkpt lat="47.04907" lon="6.06755">
        <ele>596.8</ele>
        <time>2026-07-08T14:27:22Z</time>
      </trkpt>
      <trkpt lat="47.04903" lon="6.06755">
        <ele>596.8</ele>
        <time>2026-07-08T14:27:23Z</time>
      </trkpt>
      <trkpt lat="47.049" lon="6.06756">
        <ele>597</ele>
        <time>2026-07-08T14:27:24Z</time>
      </trkpt>
      <trkpt lat="47.04896" lon="6.06757">
        <ele>597.2</ele>
        <time>2026-07-08T14:27:25Z</time>
      </trkpt>
      <trkpt lat="47.04892" lon="6.06757">
        <ele>597.4</ele>
        <time>2026-07-08T14:27:26Z</time>
      </trkpt>
      <trkpt lat="47.04888" lon="6.06758">
        <ele>597.6</ele>
        <time>2026-07-08T14:27:27Z</time>
      </trkpt>
      <trkpt lat="47.04884" lon="6.06759">
        <ele>597.8</ele>
        <time>2026-07-08T14:27:28Z</time>
      </trkpt>
      <trkpt lat="47.0488" lon="6.0676">
        <ele>598</ele>
        <time>2026-07-08T14:27:29Z</time>
      </trkpt>
      <trkpt lat="47.04876" lon="6.06761">
        <ele>598</ele>
        <time>2026-07-08T14:27:30Z</time>
      </trkpt>
      <trkpt lat="47.04873" lon="6.06763">
        <ele>598.2</ele>
        <time>2026-07-08T14:27:31Z</time>
      </trkpt>
      <trkpt lat="47.04869" lon="6.06764">
        <ele>598.2</ele>
        <time>2026-07-08T14:27:32Z</time>
      </trkpt>
      <trkpt lat="47.04865" lon="6.06767">
        <ele>598.2</ele>
        <time>2026-07-08T14:27:33Z</time>
      </trkpt>
      <trkpt lat="47.04862" lon="6.06769">
        <ele>598.4</ele>
        <time>2026-07-08T14:27:34Z</time>
      </trkpt>
      <trkpt lat="47.04858" lon="6.06772">
        <ele>598.4</ele>
        <time>2026-07-08T14:27:35Z</time>
      </trkpt>
      <trkpt lat="47.04854" lon="6.06776">
        <ele>598.4</ele>
        <time>2026-07-08T14:27:36Z</time>
      </trkpt>
      <trkpt lat="47.04851" lon="6.06779">
        <ele>598.4</ele>
        <time>2026-07-08T14:27:37Z</time>
      </trkpt>
      <trkpt lat="47.04848" lon="6.06783">
        <ele>598.6</ele>
        <time>2026-07-08T14:27:38Z</time>
      </trkpt>
      <trkpt lat="47.04845" lon="6.06786">
        <ele>598.8</ele>
        <time>2026-07-08T14:27:39Z</time>
      </trkpt>
      <trkpt lat="47.04842" lon="6.06789">
        <ele>598.8</ele>
        <time>2026-07-08T14:27:40Z</time>
      </trkpt>
      <trkpt lat="47.04839" lon="6.06793">
        <ele>599.2</ele>
        <time>2026-07-08T14:27:41Z</time>
      </trkpt>
      <trkpt lat="47.04837" lon="6.06797">
        <ele>599.4</ele>
        <time>2026-07-08T14:27:42Z</time>
      </trkpt>
      <trkpt lat="47.04834" lon="6.068">
        <ele>599.4</ele>
        <time>2026-07-08T14:27:43Z</time>
      </trkpt>
      <trkpt lat="47.04831" lon="6.06804">
        <ele>599.4</ele>
        <time>2026-07-08T14:27:44Z</time>
      </trkpt>
      <trkpt lat="47.04828" lon="6.06807">
        <ele>599.6</ele>
        <time>2026-07-08T14:27:45Z</time>
      </trkpt>
      <trkpt lat="47.04825" lon="6.0681">
        <ele>599.6</ele>
        <time>2026-07-08T14:27:46Z</time>
      </trkpt>
      <trkpt lat="47.04822" lon="6.06814">
        <ele>599.6</ele>
        <time>2026-07-08T14:27:47Z</time>
      </trkpt>
      <trkpt lat="47.04819" lon="6.06817">
        <ele>599.8</ele>
        <time>2026-07-08T14:27:48Z</time>
      </trkpt>
      <trkpt lat="47.04815" lon="6.0682">
        <ele>600</ele>
        <time>2026-07-08T14:27:49Z</time>
      </trkpt>
      <trkpt lat="47.04812" lon="6.06824">
        <ele>600</ele>
        <time>2026-07-08T14:27:50Z</time>
      </trkpt>
      <trkpt lat="47.04808" lon="6.06827">
        <ele>600.4</ele>
        <time>2026-07-08T14:27:51Z</time>
      </trkpt>
      <trkpt lat="47.04805" lon="6.06831">
        <ele>600.6</ele>
        <time>2026-07-08T14:27:52Z</time>
      </trkpt>
      <trkpt lat="47.04801" lon="6.06834">
        <ele>601</ele>
        <time>2026-07-08T14:27:53Z</time>
      </trkpt>
      <trkpt lat="47.04797" lon="6.06837">
        <ele>601</ele>
        <time>2026-07-08T14:27:54Z</time>
      </trkpt>
      <trkpt lat="47.04793" lon="6.06839">
        <ele>601.2</ele>
        <time>2026-07-08T14:27:55Z</time>
      </trkpt>
      <trkpt lat="47.0479" lon="6.06842">
        <ele>601.4</ele>
        <time>2026-07-08T14:27:56Z</time>
      </trkpt>
      <trkpt lat="47.04786" lon="6.06845">
        <ele>601.6</ele>
        <time>2026-07-08T14:27:57Z</time>
      </trkpt>
      <trkpt lat="47.04782" lon="6.06848">
        <ele>601.8</ele>
        <time>2026-07-08T14:27:58Z</time>
      </trkpt>
      <trkpt lat="47.04779" lon="6.06851">
        <ele>602</ele>
        <time>2026-07-08T14:27:59Z</time>
      </trkpt>
      <trkpt lat="47.04775" lon="6.06854">
        <ele>602</ele>
        <time>2026-07-08T14:28:00Z</time>
      </trkpt>
      <trkpt lat="47.04772" lon="6.06857">
        <ele>602.2</ele>
        <time>2026-07-08T14:28:01Z</time>
      </trkpt>
      <trkpt lat="47.04768" lon="6.06859">
        <ele>602.4</ele>
        <time>2026-07-08T14:28:02Z</time>
      </trkpt>
      <trkpt lat="47.04765" lon="6.06862">
        <ele>602.6</ele>
        <time>2026-07-08T14:28:03Z</time>
      </trkpt>
      <trkpt lat="47.04761" lon="6.06864">
        <ele>602.8</ele>
        <time>2026-07-08T14:28:04Z</time>
      </trkpt>
      <trkpt lat="47.04758" lon="6.06867">
        <ele>603</ele>
        <time>2026-07-08T14:28:05Z</time>
      </trkpt>
      <trkpt lat="47.04755" lon="6.06871">
        <ele>603</ele>
        <time>2026-07-08T14:28:06Z</time>
      </trkpt>
      <trkpt lat="47.04752" lon="6.06875">
        <ele>603.2</ele>
        <time>2026-07-08T14:28:07Z</time>
      </trkpt>
      <trkpt lat="47.04748" lon="6.06878">
        <ele>603.4</ele>
        <time>2026-07-08T14:28:08Z</time>
      </trkpt>
      <trkpt lat="47.04745" lon="6.0688">
        <ele>603.6</ele>
        <time>2026-07-08T14:28:09Z</time>
      </trkpt>
      <trkpt lat="47.04741" lon="6.06883">
        <ele>603.8</ele>
        <time>2026-07-08T14:28:10Z</time>
      </trkpt>
      <trkpt lat="47.04738" lon="6.06887">
        <ele>604</ele>
        <time>2026-07-08T14:28:11Z</time>
      </trkpt>
      <trkpt lat="47.04735" lon="6.0689">
        <ele>604</ele>
        <time>2026-07-08T14:28:12Z</time>
      </trkpt>
      <trkpt lat="47.04732" lon="6.06893">
        <ele>604</ele>
        <time>2026-07-08T14:28:13Z</time>
      </trkpt>
      <trkpt lat="47.04729" lon="6.06896">
        <ele>604.2</ele>
        <time>2026-07-08T14:28:14Z</time>
      </trkpt>
      <trkpt lat="47.04726" lon="6.06899">
        <ele>604.6</ele>
        <time>2026-07-08T14:28:15Z</time>
      </trkpt>
      <trkpt lat="47.04723" lon="6.06902">
        <ele>604.6</ele>
        <time>2026-07-08T14:28:16Z</time>
      </trkpt>
      <trkpt lat="47.0472" lon="6.06906">
        <ele>604.8</ele>
        <time>2026-07-08T14:28:17Z</time>
      </trkpt>
      <trkpt lat="47.04717" lon="6.0691">
        <ele>604.8</ele>
        <time>2026-07-08T14:28:18Z</time>
      </trkpt>
      <trkpt lat="47.04714" lon="6.06914">
        <ele>605</ele>
        <time>2026-07-08T14:28:19Z</time>
      </trkpt>
      <trkpt lat="47.04711" lon="6.06917">
        <ele>605.2</ele>
        <time>2026-07-08T14:28:20Z</time>
      </trkpt>
      <trkpt lat="47.04708" lon="6.06921">
        <ele>605.4</ele>
        <time>2026-07-08T14:28:21Z</time>
      </trkpt>
      <trkpt lat="47.04704" lon="6.06924">
        <ele>605.6</ele>
        <time>2026-07-08T14:28:22Z</time>
      </trkpt>
      <trkpt lat="47.047" lon="6.06927">
        <ele>605.4</ele>
        <time>2026-07-08T14:28:23Z</time>
      </trkpt>
      <trkpt lat="47.04696" lon="6.06929">
        <ele>605.6</ele>
        <time>2026-07-08T14:28:24Z</time>
      </trkpt>
      <trkpt lat="47.04692" lon="6.06931">
        <ele>605.8</ele>
        <time>2026-07-08T14:28:25Z</time>
      </trkpt>
      <trkpt lat="47.04688" lon="6.06933">
        <ele>606</ele>
        <time>2026-07-08T14:28:26Z</time>
      </trkpt>
      <trkpt lat="47.04684" lon="6.06935">
        <ele>606</ele>
        <time>2026-07-08T14:28:27Z</time>
      </trkpt>
      <trkpt lat="47.0468" lon="6.06938">
        <ele>606</ele>
        <time>2026-07-08T14:28:28Z</time>
      </trkpt>
      <trkpt lat="47.04676" lon="6.06939">
        <ele>606</ele>
        <time>2026-07-08T14:28:29Z</time>
      </trkpt>
      <trkpt lat="47.04672" lon="6.06942">
        <ele>606.2</ele>
        <time>2026-07-08T14:28:30Z</time>
      </trkpt>
      <trkpt lat="47.04668" lon="6.06943">
        <ele>606.2</ele>
        <time>2026-07-08T14:28:31Z</time>
      </trkpt>
      <trkpt lat="47.04663" lon="6.06945">
        <ele>606.2</ele>
        <time>2026-07-08T14:28:32Z</time>
      </trkpt>
      <trkpt lat="47.04659" lon="6.06947">
        <ele>606.4</ele>
        <time>2026-07-08T14:28:33Z</time>
      </trkpt>
      <trkpt lat="47.04655" lon="6.06948">
        <ele>606.8</ele>
        <time>2026-07-08T14:28:34Z</time>
      </trkpt>
      <trkpt lat="47.04651" lon="6.0695">
        <ele>606.8</ele>
        <time>2026-07-08T14:28:35Z</time>
      </trkpt>
      <trkpt lat="47.04647" lon="6.06952">
        <ele>607</ele>
        <time>2026-07-08T14:28:36Z</time>
      </trkpt>
      <trkpt lat="47.04643" lon="6.06954">
        <ele>607</ele>
        <time>2026-07-08T14:28:37Z</time>
      </trkpt>
      <trkpt lat="47.0464" lon="6.06955">
        <ele>607</ele>
        <time>2026-07-08T14:28:38Z</time>
      </trkpt>
      <trkpt lat="47.04636" lon="6.06956">
        <ele>607.2</ele>
        <time>2026-07-08T14:28:39Z</time>
      </trkpt>
      <trkpt lat="47.04632" lon="6.06958">
        <ele>607.4</ele>
        <time>2026-07-08T14:28:40Z</time>
      </trkpt>
      <trkpt lat="47.04628" lon="6.0696">
        <ele>607.6</ele>
        <time>2026-07-08T14:28:41Z</time>
      </trkpt>
      <trkpt lat="47.04624" lon="6.06962">
        <ele>607.8</ele>
        <time>2026-07-08T14:28:42Z</time>
      </trkpt>
      <trkpt lat="47.0462" lon="6.06964">
        <ele>607.8</ele>
        <time>2026-07-08T14:28:43Z</time>
      </trkpt>
      <trkpt lat="47.04616" lon="6.06965">
        <ele>607.8</ele>
        <time>2026-07-08T14:28:44Z</time>
      </trkpt>
      <trkpt lat="47.04612" lon="6.06967">
        <ele>608</ele>
        <time>2026-07-08T14:28:45Z</time>
      </trkpt>
      <trkpt lat="47.04608" lon="6.06968">
        <ele>608.2</ele>
        <time>2026-07-08T14:28:46Z</time>
      </trkpt>
      <trkpt lat="47.04604" lon="6.0697">
        <ele>608.4</ele>
        <time>2026-07-08T14:28:47Z</time>
      </trkpt>
      <trkpt lat="47.046" lon="6.06972">
        <ele>608.6</ele>
        <time>2026-07-08T14:28:48Z</time>
      </trkpt>
      <trkpt lat="47.04596" lon="6.06973">
        <ele>608.8</ele>
        <time>2026-07-08T14:28:49Z</time>
      </trkpt>
      <trkpt lat="47.04593" lon="6.06975">
        <ele>608.8</ele>
        <time>2026-07-08T14:28:50Z</time>
      </trkpt>
      <trkpt lat="47.04589" lon="6.06977">
        <ele>608.8</ele>
        <time>2026-07-08T14:28:51Z</time>
      </trkpt>
      <trkpt lat="47.04585" lon="6.06978">
        <ele>608.8</ele>
        <time>2026-07-08T14:28:52Z</time>
      </trkpt>
      <trkpt lat="47.04581" lon="6.0698">
        <ele>609.2</ele>
        <time>2026-07-08T14:28:53Z</time>
      </trkpt>
      <trkpt lat="47.04578" lon="6.06981">
        <ele>609.4</ele>
        <time>2026-07-08T14:28:54Z</time>
      </trkpt>
      <trkpt lat="47.04574" lon="6.06983">
        <ele>609.4</ele>
        <time>2026-07-08T14:28:55Z</time>
      </trkpt>
      <trkpt lat="47.0457" lon="6.06984">
        <ele>609.6</ele>
        <time>2026-07-08T14:28:56Z</time>
      </trkpt>
      <trkpt lat="47.04566" lon="6.06986">
        <ele>609.8</ele>
        <time>2026-07-08T14:28:57Z</time>
      </trkpt>
      <trkpt lat="47.04562" lon="6.06988">
        <ele>610</ele>
        <time>2026-07-08T14:28:58Z</time>
      </trkpt>
      <trkpt lat="47.04558" lon="6.0699">
        <ele>610</ele>
        <time>2026-07-08T14:28:59Z</time>
      </trkpt>
      <trkpt lat="47.04554" lon="6.06992">
        <ele>610.2</ele>
        <time>2026-07-08T14:29:00Z</time>
      </trkpt>
      <trkpt lat="47.04549" lon="6.06993">
        <ele>610.4</ele>
        <time>2026-07-08T14:29:01Z</time>
      </trkpt>
      <trkpt lat="47.04545" lon="6.06995">
        <ele>610.6</ele>
        <time>2026-07-08T14:29:02Z</time>
      </trkpt>
      <trkpt lat="47.04541" lon="6.06997">
        <ele>610.6</ele>
        <time>2026-07-08T14:29:03Z</time>
      </trkpt>
      <trkpt lat="47.04536" lon="6.06999">
        <ele>610.6</ele>
        <time>2026-07-08T14:29:04Z</time>
      </trkpt>
      <trkpt lat="47.04532" lon="6.07001">
        <ele>610.8</ele>
        <time>2026-07-08T14:29:05Z</time>
      </trkpt>
      <trkpt lat="47.04528" lon="6.07003">
        <ele>610.8</ele>
        <time>2026-07-08T14:29:06Z</time>
      </trkpt>
      <trkpt lat="47.04524" lon="6.07005">
        <ele>611.2</ele>
        <time>2026-07-08T14:29:07Z</time>
      </trkpt>
      <trkpt lat="47.0452" lon="6.07008">
        <ele>611.2</ele>
        <time>2026-07-08T14:29:08Z</time>
      </trkpt>
      <trkpt lat="47.04516" lon="6.0701">
        <ele>611.4</ele>
        <time>2026-07-08T14:29:09Z</time>
      </trkpt>
      <trkpt lat="47.04512" lon="6.07013">
        <ele>611.4</ele>
        <time>2026-07-08T14:29:10Z</time>
      </trkpt>
      <trkpt lat="47.04508" lon="6.07015">
        <ele>611.6</ele>
        <time>2026-07-08T14:29:11Z</time>
      </trkpt>
      <trkpt lat="47.04504" lon="6.07018">
        <ele>611.6</ele>
        <time>2026-07-08T14:29:12Z</time>
      </trkpt>
      <trkpt lat="47.045" lon="6.07021">
        <ele>611.6</ele>
        <time>2026-07-08T14:29:13Z</time>
      </trkpt>
      <trkpt lat="47.04496" lon="6.07023">
        <ele>611.6</ele>
        <time>2026-07-08T14:29:14Z</time>
      </trkpt>
      <trkpt lat="47.04493" lon="6.07025">
        <ele>611.8</ele>
        <time>2026-07-08T14:29:15Z</time>
      </trkpt>
      <trkpt lat="47.04489" lon="6.07028">
        <ele>612</ele>
        <time>2026-07-08T14:29:16Z</time>
      </trkpt>
      <trkpt lat="47.04485" lon="6.07029">
        <ele>612</ele>
        <time>2026-07-08T14:29:17Z</time>
      </trkpt>
      <trkpt lat="47.04481" lon="6.07031">
        <ele>612</ele>
        <time>2026-07-08T14:29:18Z</time>
      </trkpt>
      <trkpt lat="47.04477" lon="6.07033">
        <ele>612</ele>
        <time>2026-07-08T14:29:19Z</time>
      </trkpt>
      <trkpt lat="47.04473" lon="6.07035">
        <ele>612.2</ele>
        <time>2026-07-08T14:29:20Z</time>
      </trkpt>
      <trkpt lat="47.0447" lon="6.07038">
        <ele>612.2</ele>
        <time>2026-07-08T14:29:21Z</time>
      </trkpt>
      <trkpt lat="47.04466" lon="6.0704">
        <ele>612.2</ele>
        <time>2026-07-08T14:29:22Z</time>
      </trkpt>
      <trkpt lat="47.04462" lon="6.07043">
        <ele>612.4</ele>
        <time>2026-07-08T14:29:23Z</time>
      </trkpt>
      <trkpt lat="47.04458" lon="6.07046">
        <ele>612.6</ele>
        <time>2026-07-08T14:29:24Z</time>
      </trkpt>
      <trkpt lat="47.04455" lon="6.07049">
        <ele>612.6</ele>
        <time>2026-07-08T14:29:25Z</time>
      </trkpt>
      <trkpt lat="47.04451" lon="6.07052">
        <ele>612.6</ele>
        <time>2026-07-08T14:29:26Z</time>
      </trkpt>
      <trkpt lat="47.04448" lon="6.07056">
        <ele>612.6</ele>
        <time>2026-07-08T14:29:27Z</time>
      </trkpt>
      <trkpt lat="47.04446" lon="6.0706">
        <ele>613</ele>
        <time>2026-07-08T14:29:28Z</time>
      </trkpt>
      <trkpt lat="47.04443" lon="6.07064">
        <ele>613</ele>
        <time>2026-07-08T14:29:29Z</time>
      </trkpt>
      <trkpt lat="47.0444" lon="6.07068">
        <ele>613</ele>
        <time>2026-07-08T14:29:30Z</time>
      </trkpt>
      <trkpt lat="47.04437" lon="6.07072">
        <ele>613.2</ele>
        <time>2026-07-08T14:29:31Z</time>
      </trkpt>
      <trkpt lat="47.04434" lon="6.07076">
        <ele>613.4</ele>
        <time>2026-07-08T14:29:32Z</time>
      </trkpt>
      <trkpt lat="47.04432" lon="6.0708">
        <ele>613.6</ele>
        <time>2026-07-08T14:29:33Z</time>
      </trkpt>
      <trkpt lat="47.04429" lon="6.07083">
        <ele>613.6</ele>
        <time>2026-07-08T14:29:34Z</time>
      </trkpt>
      <trkpt lat="47.04426" lon="6.07087">
        <ele>613.6</ele>
        <time>2026-07-08T14:29:35Z</time>
      </trkpt>
      <trkpt lat="47.04422" lon="6.0709">
        <ele>613.8</ele>
        <time>2026-07-08T14:29:36Z</time>
      </trkpt>
      <trkpt lat="47.04419" lon="6.07092">
        <ele>614</ele>
        <time>2026-07-08T14:29:37Z</time>
      </trkpt>
      <trkpt lat="47.04415" lon="6.07094">
        <ele>614</ele>
        <time>2026-07-08T14:29:38Z</time>
      </trkpt>
      <trkpt lat="47.04411" lon="6.07097">
        <ele>614.2</ele>
        <time>2026-07-08T14:29:39Z</time>
      </trkpt>
      <trkpt lat="47.04407" lon="6.07099">
        <ele>614.4</ele>
        <time>2026-07-08T14:29:40Z</time>
      </trkpt>
      <trkpt lat="47.04404" lon="6.07101">
        <ele>614.8</ele>
        <time>2026-07-08T14:29:41Z</time>
      </trkpt>
      <trkpt lat="47.044" lon="6.07103">
        <ele>615</ele>
        <time>2026-07-08T14:29:42Z</time>
      </trkpt>
      <trkpt lat="47.04396" lon="6.07105">
        <ele>615.2</ele>
        <time>2026-07-08T14:29:43Z</time>
      </trkpt>
      <trkpt lat="47.04392" lon="6.07107">
        <ele>615.4</ele>
        <time>2026-07-08T14:29:44Z</time>
      </trkpt>
      <trkpt lat="47.04388" lon="6.07109">
        <ele>615.4</ele>
        <time>2026-07-08T14:29:45Z</time>
      </trkpt>
      <trkpt lat="47.04385" lon="6.0711">
        <ele>615.6</ele>
        <time>2026-07-08T14:29:46Z</time>
      </trkpt>
      <trkpt lat="47.04381" lon="6.07112">
        <ele>615.8</ele>
        <time>2026-07-08T14:29:47Z</time>
      </trkpt>
      <trkpt lat="47.04377" lon="6.07114">
        <ele>615.8</ele>
        <time>2026-07-08T14:29:48Z</time>
      </trkpt>
      <trkpt lat="47.04373" lon="6.07117">
        <ele>616</ele>
        <time>2026-07-08T14:29:49Z</time>
      </trkpt>
      <trkpt lat="47.04369" lon="6.07119">
        <ele>616</ele>
        <time>2026-07-08T14:29:50Z</time>
      </trkpt>
      <trkpt lat="47.04365" lon="6.07121">
        <ele>616.2</ele>
        <time>2026-07-08T14:29:51Z</time>
      </trkpt>
      <trkpt lat="47.04361" lon="6.07123">
        <ele>616.6</ele>
        <time>2026-07-08T14:29:52Z</time>
      </trkpt>
      <trkpt lat="47.04357" lon="6.07124">
        <ele>616.6</ele>
        <time>2026-07-08T14:29:53Z</time>
      </trkpt>
      <trkpt lat="47.04353" lon="6.07126">
        <ele>616.6</ele>
        <time>2026-07-08T14:29:54Z</time>
      </trkpt>
      <trkpt lat="47.04348" lon="6.07127">
        <ele>616.8</ele>
        <time>2026-07-08T14:29:55Z</time>
      </trkpt>
      <trkpt lat="47.04344" lon="6.07128">
        <ele>616.8</ele>
        <time>2026-07-08T14:29:56Z</time>
      </trkpt>
      <trkpt lat="47.0434" lon="6.07129">
        <ele>617</ele>
        <time>2026-07-08T14:29:57Z</time>
      </trkpt>
      <trkpt lat="47.04336" lon="6.0713">
        <ele>617</ele>
        <time>2026-07-08T14:29:58Z</time>
      </trkpt>
      <trkpt lat="47.04331" lon="6.07131">
        <ele>617.2</ele>
        <time>2026-07-08T14:29:59Z</time>
      </trkpt>
      <trkpt lat="47.04327" lon="6.07132">
        <ele>617.4</ele>
        <time>2026-07-08T14:30:00Z</time>
      </trkpt>
      <trkpt lat="47.04323" lon="6.07133">
        <ele>617.4</ele>
        <time>2026-07-08T14:30:01Z</time>
      </trkpt>
      <trkpt lat="47.04319" lon="6.07133">
        <ele>617.6</ele>
        <time>2026-07-08T14:30:02Z</time>
      </trkpt>
      <trkpt lat="47.04315" lon="6.07134">
        <ele>617.8</ele>
        <time>2026-07-08T14:30:03Z</time>
      </trkpt>
      <trkpt lat="47.04311" lon="6.07135">
        <ele>617.8</ele>
        <time>2026-07-08T14:30:04Z</time>
      </trkpt>
      <trkpt lat="47.04307" lon="6.07136">
        <ele>618</ele>
        <time>2026-07-08T14:30:05Z</time>
      </trkpt>
      <trkpt lat="47.04304" lon="6.07137">
        <ele>618</ele>
        <time>2026-07-08T14:30:06Z</time>
      </trkpt>
      <trkpt lat="47.04299" lon="6.07138">
        <ele>618.2</ele>
        <time>2026-07-08T14:30:07Z</time>
      </trkpt>
      <trkpt lat="47.04295" lon="6.0714">
        <ele>618.6</ele>
        <time>2026-07-08T14:30:08Z</time>
      </trkpt>
      <trkpt lat="47.04291" lon="6.07141">
        <ele>618.6</ele>
        <time>2026-07-08T14:30:09Z</time>
      </trkpt>
      <trkpt lat="47.04287" lon="6.07142">
        <ele>618.6</ele>
        <time>2026-07-08T14:30:10Z</time>
      </trkpt>
      <trkpt lat="47.04284" lon="6.07144">
        <ele>618.8</ele>
        <time>2026-07-08T14:30:11Z</time>
      </trkpt>
      <trkpt lat="47.0428" lon="6.07145">
        <ele>619</ele>
        <time>2026-07-08T14:30:12Z</time>
      </trkpt>
      <trkpt lat="47.04276" lon="6.07146">
        <ele>618.8</ele>
        <time>2026-07-08T14:30:13Z</time>
      </trkpt>
      <trkpt lat="47.04271" lon="6.07146">
        <ele>619</ele>
        <time>2026-07-08T14:30:14Z</time>
      </trkpt>
      <trkpt lat="47.04267" lon="6.07147">
        <ele>619</ele>
        <time>2026-07-08T14:30:15Z</time>
      </trkpt>
      <trkpt lat="47.04263" lon="6.07148">
        <ele>619</ele>
        <time>2026-07-08T14:30:16Z</time>
      </trkpt>
      <trkpt lat="47.04259" lon="6.07149">
        <ele>619.2</ele>
        <time>2026-07-08T14:30:17Z</time>
      </trkpt>
      <trkpt lat="47.04254" lon="6.07149">
        <ele>619</ele>
        <time>2026-07-08T14:30:18Z</time>
      </trkpt>
      <trkpt lat="47.0425" lon="6.0715">
        <ele>619.2</ele>
        <time>2026-07-08T14:30:19Z</time>
      </trkpt>
      <trkpt lat="47.04246" lon="6.0715">
        <ele>619.2</ele>
        <time>2026-07-08T14:30:20Z</time>
      </trkpt>
      <trkpt lat="47.04241" lon="6.07151">
        <ele>619.2</ele>
        <time>2026-07-08T14:30:21Z</time>
      </trkpt>
      <trkpt lat="47.04237" lon="6.07152">
        <ele>619.4</ele>
        <time>2026-07-08T14:30:22Z</time>
      </trkpt>
      <trkpt lat="47.04233" lon="6.07153">
        <ele>619.4</ele>
        <time>2026-07-08T14:30:23Z</time>
      </trkpt>
      <trkpt lat="47.04229" lon="6.07155">
        <ele>619.6</ele>
        <time>2026-07-08T14:30:24Z</time>
      </trkpt>
      <trkpt lat="47.04225" lon="6.07156">
        <ele>619.6</ele>
        <time>2026-07-08T14:30:25Z</time>
      </trkpt>
      <trkpt lat="47.04221" lon="6.07156">
        <ele>619.8</ele>
        <time>2026-07-08T14:30:26Z</time>
      </trkpt>
      <trkpt lat="47.04217" lon="6.07156">
        <ele>620</ele>
        <time>2026-07-08T14:30:27Z</time>
      </trkpt>
      <trkpt lat="47.04213" lon="6.07157">
        <ele>620</ele>
        <time>2026-07-08T14:30:28Z</time>
      </trkpt>
      <trkpt lat="47.04209" lon="6.07158">
        <ele>620.2</ele>
        <time>2026-07-08T14:30:29Z</time>
      </trkpt>
      <trkpt lat="47.04205" lon="6.07158">
        <ele>620.2</ele>
        <time>2026-07-08T14:30:30Z</time>
      </trkpt>
      <trkpt lat="47.042" lon="6.07158">
        <ele>620.2</ele>
        <time>2026-07-08T14:30:31Z</time>
      </trkpt>
      <trkpt lat="47.04196" lon="6.07158">
        <ele>620.2</ele>
        <time>2026-07-08T14:30:32Z</time>
      </trkpt>
      <trkpt lat="47.04192" lon="6.07159">
        <ele>620.4</ele>
        <time>2026-07-08T14:30:33Z</time>
      </trkpt>
      <trkpt lat="47.04188" lon="6.07159">
        <ele>620.6</ele>
        <time>2026-07-08T14:30:34Z</time>
      </trkpt>
      <trkpt lat="47.04183" lon="6.07159">
        <ele>620.6</ele>
        <time>2026-07-08T14:30:35Z</time>
      </trkpt>
      <trkpt lat="47.04179" lon="6.07159">
        <ele>620.6</ele>
        <time>2026-07-08T14:30:36Z</time>
      </trkpt>
      <trkpt lat="47.04174" lon="6.07159">
        <ele>620.8</ele>
        <time>2026-07-08T14:30:37Z</time>
      </trkpt>
      <trkpt lat="47.0417" lon="6.07159">
        <ele>621</ele>
        <time>2026-07-08T14:30:38Z</time>
      </trkpt>
      <trkpt lat="47.04165" lon="6.07159">
        <ele>621</ele>
        <time>2026-07-08T14:30:39Z</time>
      </trkpt>
      <trkpt lat="47.0416" lon="6.07158">
        <ele>621</ele>
        <time>2026-07-08T14:30:40Z</time>
      </trkpt>
      <trkpt lat="47.04156" lon="6.07158">
        <ele>621.2</ele>
        <time>2026-07-08T14:30:41Z</time>
      </trkpt>
      <trkpt lat="47.04151" lon="6.07157">
        <ele>621.2</ele>
        <time>2026-07-08T14:30:42Z</time>
      </trkpt>
      <trkpt lat="47.04146" lon="6.07157">
        <ele>621.2</ele>
        <time>2026-07-08T14:30:43Z</time>
      </trkpt>
      <trkpt lat="47.04141" lon="6.07157">
        <ele>621.2</ele>
        <time>2026-07-08T14:30:44Z</time>
      </trkpt>
      <trkpt lat="47.04136" lon="6.07157">
        <ele>621</ele>
        <time>2026-07-08T14:30:45Z</time>
      </trkpt>
      <trkpt lat="47.04132" lon="6.07156">
        <ele>621.4</ele>
        <time>2026-07-08T14:30:46Z</time>
      </trkpt>
      <trkpt lat="47.04127" lon="6.07156">
        <ele>621.2</ele>
        <time>2026-07-08T14:30:47Z</time>
      </trkpt>
      <trkpt lat="47.04122" lon="6.07155">
        <ele>621.4</ele>
        <time>2026-07-08T14:30:48Z</time>
      </trkpt>
      <trkpt lat="47.04117" lon="6.07155">
        <ele>621.6</ele>
        <time>2026-07-08T14:30:49Z</time>
      </trkpt>
      <trkpt lat="47.04112" lon="6.07155">
        <ele>621.6</ele>
        <time>2026-07-08T14:30:50Z</time>
      </trkpt>
      <trkpt lat="47.04107" lon="6.07155">
        <ele>621.8</ele>
        <time>2026-07-08T14:30:51Z</time>
      </trkpt>
      <trkpt lat="47.04102" lon="6.07155">
        <ele>621.8</ele>
        <time>2026-07-08T14:30:52Z</time>
      </trkpt>
      <trkpt lat="47.04098" lon="6.07156">
        <ele>621.8</ele>
        <time>2026-07-08T14:30:53Z</time>
      </trkpt>
      <trkpt lat="47.04093" lon="6.07157">
        <ele>622</ele>
        <time>2026-07-08T14:30:54Z</time>
      </trkpt>
      <trkpt lat="47.04088" lon="6.07159">
        <ele>621.8</ele>
        <time>2026-07-08T14:30:55Z</time>
      </trkpt>
      <trkpt lat="47.04083" lon="6.07161">
        <ele>622</ele>
        <time>2026-07-08T14:30:56Z</time>
      </trkpt>
      <trkpt lat="47.04078" lon="6.07163">
        <ele>622</ele>
        <time>2026-07-08T14:30:57Z</time>
      </trkpt>
      <trkpt lat="47.04074" lon="6.07165">
        <ele>622</ele>
        <time>2026-07-08T14:30:58Z</time>
      </trkpt>
      <trkpt lat="47.04069" lon="6.07167">
        <ele>622</ele>
        <time>2026-07-08T14:30:59Z</time>
      </trkpt>
      <trkpt lat="47.04064" lon="6.07169">
        <ele>622</ele>
        <time>2026-07-08T14:31:00Z</time>
      </trkpt>
      <trkpt lat="47.0406" lon="6.07172">
        <ele>622</ele>
        <time>2026-07-08T14:31:01Z</time>
      </trkpt>
      <trkpt lat="47.04055" lon="6.07174">
        <ele>622</ele>
        <time>2026-07-08T14:31:02Z</time>
      </trkpt>
      <trkpt lat="47.0405" lon="6.07176">
        <ele>622</ele>
        <time>2026-07-08T14:31:03Z</time>
      </trkpt>
      <trkpt lat="47.04046" lon="6.07178">
        <ele>622</ele>
        <time>2026-07-08T14:31:04Z</time>
      </trkpt>
      <trkpt lat="47.04041" lon="6.07181">
        <ele>622</ele>
        <time>2026-07-08T14:31:05Z</time>
      </trkpt>
      <trkpt lat="47.04037" lon="6.07183">
        <ele>622.2</ele>
        <time>2026-07-08T14:31:06Z</time>
      </trkpt>
      <trkpt lat="47.04032" lon="6.07185">
        <ele>622.2</ele>
        <time>2026-07-08T14:31:07Z</time>
      </trkpt>
      <trkpt lat="47.04028" lon="6.07188">
        <ele>622.2</ele>
        <time>2026-07-08T14:31:08Z</time>
      </trkpt>
      <trkpt lat="47.04023" lon="6.0719">
        <ele>622.2</ele>
        <time>2026-07-08T14:31:09Z</time>
      </trkpt>
      <trkpt lat="47.04019" lon="6.07192">
        <ele>622.4</ele>
        <time>2026-07-08T14:31:10Z</time>
      </trkpt>
      <trkpt lat="47.04014" lon="6.07194">
        <ele>622.4</ele>
        <time>2026-07-08T14:31:11Z</time>
      </trkpt>
      <trkpt lat="47.04009" lon="6.07195">
        <ele>622.6</ele>
        <time>2026-07-08T14:31:12Z</time>
      </trkpt>
      <trkpt lat="47.04004" lon="6.07197">
        <ele>622.6</ele>
        <time>2026-07-08T14:31:13Z</time>
      </trkpt>
      <trkpt lat="47.03999" lon="6.07198">
        <ele>622.8</ele>
        <time>2026-07-08T14:31:14Z</time>
      </trkpt>
      <trkpt lat="47.03995" lon="6.07199">
        <ele>622.6</ele>
        <time>2026-07-08T14:31:15Z</time>
      </trkpt>
      <trkpt lat="47.03991" lon="6.072">
        <ele>622.8</ele>
        <time>2026-07-08T14:31:16Z</time>
      </trkpt>
      <trkpt lat="47.03987" lon="6.07201">
        <ele>622.8</ele>
        <time>2026-07-08T14:31:17Z</time>
      </trkpt>
      <trkpt lat="47.03983" lon="6.07201">
        <ele>622.6</ele>
        <time>2026-07-08T14:31:18Z</time>
      </trkpt>
      <trkpt lat="47.03979" lon="6.07201">
        <ele>622.8</ele>
        <time>2026-07-08T14:31:19Z</time>
      </trkpt>
      <trkpt lat="47.03974" lon="6.07202">
        <ele>622.8</ele>
        <time>2026-07-08T14:31:20Z</time>
      </trkpt>
      <trkpt lat="47.0397" lon="6.07202">
        <ele>622.8</ele>
        <time>2026-07-08T14:31:21Z</time>
      </trkpt>
      <trkpt lat="47.03966" lon="6.07202">
        <ele>623</ele>
        <time>2026-07-08T14:31:22Z</time>
      </trkpt>
      <trkpt lat="47.03961" lon="6.07202">
        <ele>623.2</ele>
        <time>2026-07-08T14:31:23Z</time>
      </trkpt>
      <trkpt lat="47.03957" lon="6.07202">
        <ele>623.2</ele>
        <time>2026-07-08T14:31:24Z</time>
      </trkpt>
      <trkpt lat="47.03952" lon="6.07202">
        <ele>623.2</ele>
        <time>2026-07-08T14:31:25Z</time>
      </trkpt>
      <trkpt lat="47.03948" lon="6.07201">
        <ele>623.4</ele>
        <time>2026-07-08T14:31:26Z</time>
      </trkpt>
      <trkpt lat="47.03943" lon="6.072">
        <ele>623.4</ele>
        <time>2026-07-08T14:31:27Z</time>
      </trkpt>
      <trkpt lat="47.03938" lon="6.072">
        <ele>623.4</ele>
        <time>2026-07-08T14:31:28Z</time>
      </trkpt>
      <trkpt lat="47.03934" lon="6.07199">
        <ele>623.4</ele>
        <time>2026-07-08T14:31:29Z</time>
      </trkpt>
      <trkpt lat="47.0393" lon="6.07198">
        <ele>623.6</ele>
        <time>2026-07-08T14:31:30Z</time>
      </trkpt>
      <trkpt lat="47.03925" lon="6.07197">
        <ele>623.4</ele>
        <time>2026-07-08T14:31:31Z</time>
      </trkpt>
      <trkpt lat="47.03921" lon="6.07196">
        <ele>623.4</ele>
        <time>2026-07-08T14:31:32Z</time>
      </trkpt>
      <trkpt lat="47.03917" lon="6.07196">
        <ele>623.6</ele>
        <time>2026-07-08T14:31:33Z</time>
      </trkpt>
      <trkpt lat="47.03913" lon="6.07196">
        <ele>623.6</ele>
        <time>2026-07-08T14:31:34Z</time>
      </trkpt>
      <trkpt lat="47.03909" lon="6.07196">
        <ele>623.6</ele>
        <time>2026-07-08T14:31:35Z</time>
      </trkpt>
      <trkpt lat="47.03905" lon="6.07195">
        <ele>623.8</ele>
        <time>2026-07-08T14:31:36Z</time>
      </trkpt>
      <trkpt lat="47.03902" lon="6.07195">
        <ele>623.8</ele>
        <time>2026-07-08T14:31:37Z</time>
      </trkpt>
      <trkpt lat="47.03898" lon="6.07195">
        <ele>624</ele>
        <time>2026-07-08T14:31:38Z</time>
      </trkpt>
      <trkpt lat="47.03895" lon="6.07195">
        <ele>624.2</ele>
        <time>2026-07-08T14:31:39Z</time>
      </trkpt>
      <trkpt lat="47.03893" lon="6.07195">
        <ele>624.2</ele>
        <time>2026-07-08T14:31:40Z</time>
      </trkpt>
      <trkpt lat="47.03891" lon="6.07195">
        <ele>624.4</ele>
        <time>2026-07-08T14:31:41Z</time>
      </trkpt>
      <trkpt lat="47.0389" lon="6.07195">
        <ele>624.6</ele>
        <time>2026-07-08T14:31:42Z</time>
      </trkpt>
      <trkpt lat="47.03889" lon="6.07196">
        <ele>624.6</ele>
        <time>2026-07-08T14:31:43Z</time>
      </trkpt>
      <trkpt lat="47.03889" lon="6.07197">
        <ele>624.6</ele>
        <time>2026-07-08T14:31:44Z</time>
      </trkpt>
      <trkpt lat="47.0389" lon="6.07199">
        <ele>624.8</ele>
        <time>2026-07-08T14:31:45Z</time>
      </trkpt>
      <trkpt lat="47.03891" lon="6.072">
        <ele>624.8</ele>
        <time>2026-07-08T14:31:46Z</time>
      </trkpt>
      <trkpt lat="47.03892" lon="6.07199">
        <ele>624.8</ele>
        <time>2026-07-08T14:31:47Z</time>
      </trkpt>
      <trkpt lat="47.03893" lon="6.07199">
        <ele>624.6</ele>
        <time>2026-07-08T14:31:48Z</time>
      </trkpt>
      <trkpt lat="47.03894" lon="6.07199">
        <ele>624.8</ele>
        <time>2026-07-08T14:31:49Z</time>
      </trkpt>
      <trkpt lat="47.03896" lon="6.072">
        <ele>624.8</ele>
        <time>2026-07-08T14:31:50Z</time>
      </trkpt>
      <trkpt lat="47.03898" lon="6.072">
        <ele>624.8</ele>
        <time>2026-07-08T14:31:51Z</time>
      </trkpt>
      <trkpt lat="47.039" lon="6.072">
        <ele>624.8</ele>
        <time>2026-07-08T14:31:52Z</time>
      </trkpt>
      <trkpt lat="47.03902" lon="6.072">
        <ele>624.8</ele>
        <time>2026-07-08T14:31:53Z</time>
      </trkpt>
      <trkpt lat="47.03905" lon="6.072">
        <ele>624.8</ele>
        <time>2026-07-08T14:31:54Z</time>
      </trkpt>
      <trkpt lat="47.03908" lon="6.07201">
        <ele>624.8</ele>
        <time>2026-07-08T14:31:55Z</time>
      </trkpt>
      <trkpt lat="47.03911" lon="6.07201">
        <ele>624.6</ele>
        <time>2026-07-08T14:31:56Z</time>
      </trkpt>
      <trkpt lat="47.03914" lon="6.07201">
        <ele>624.8</ele>
        <time>2026-07-08T14:31:57Z</time>
      </trkpt>
      <trkpt lat="47.03918" lon="6.07202">
        <ele>624.8</ele>
        <time>2026-07-08T14:31:58Z</time>
      </trkpt>
      <trkpt lat="47.03921" lon="6.07203">
        <ele>624.8</ele>
        <time>2026-07-08T14:31:59Z</time>
      </trkpt>
      <trkpt lat="47.03925" lon="6.07203">
        <ele>624.8</ele>
        <time>2026-07-08T14:32:00Z</time>
      </trkpt>
      <trkpt lat="47.03928" lon="6.07204">
        <ele>624.8</ele>
        <time>2026-07-08T14:32:01Z</time>
      </trkpt>
      <trkpt lat="47.03932" lon="6.07203">
        <ele>624.8</ele>
        <time>2026-07-08T14:32:02Z</time>
      </trkpt>
      <trkpt lat="47.03936" lon="6.07203">
        <ele>624.8</ele>
        <time>2026-07-08T14:32:03Z</time>
      </trkpt>
      <trkpt lat="47.0394" lon="6.07203">
        <ele>624.8</ele>
        <time>2026-07-08T14:32:04Z</time>
      </trkpt>
      <trkpt lat="47.03944" lon="6.07203">
        <ele>624.6</ele>
        <time>2026-07-08T14:32:05Z</time>
      </trkpt>
      <trkpt lat="47.03948" lon="6.07203">
        <ele>624.8</ele>
        <time>2026-07-08T14:32:06Z</time>
      </trkpt>
      <trkpt lat="47.03953" lon="6.07203">
        <ele>624.6</ele>
        <time>2026-07-08T14:32:07Z</time>
      </trkpt>
      <trkpt lat="47.03957" lon="6.07203">
        <ele>624.6</ele>
        <time>2026-07-08T14:32:08Z</time>
      </trkpt>
      <trkpt lat="47.03961" lon="6.07204">
        <ele>624.6</ele>
        <time>2026-07-08T14:32:09Z</time>
      </trkpt>
      <trkpt lat="47.03965" lon="6.07204">
        <ele>624.6</ele>
        <time>2026-07-08T14:32:10Z</time>
      </trkpt>
      <trkpt lat="47.03969" lon="6.07204">
        <ele>624.2</ele>
        <time>2026-07-08T14:32:11Z</time>
      </trkpt>
      <trkpt lat="47.03973" lon="6.07203">
        <ele>624.2</ele>
        <time>2026-07-08T14:32:12Z</time>
      </trkpt>
      <trkpt lat="47.03977" lon="6.07203">
        <ele>624.2</ele>
        <time>2026-07-08T14:32:13Z</time>
      </trkpt>
      <trkpt lat="47.0398" lon="6.07203">
        <ele>624.2</ele>
        <time>2026-07-08T14:32:14Z</time>
      </trkpt>
      <trkpt lat="47.03984" lon="6.07204">
        <ele>624</ele>
        <time>2026-07-08T14:32:15Z</time>
      </trkpt>
      <trkpt lat="47.03987" lon="6.07204">
        <ele>623.8</ele>
        <time>2026-07-08T14:32:16Z</time>
      </trkpt>
      <trkpt lat="47.03989" lon="6.07203">
        <ele>623.8</ele>
        <time>2026-07-08T14:32:17Z</time>
      </trkpt>
      <trkpt lat="47.03991" lon="6.07203">
        <ele>623.8</ele>
        <time>2026-07-08T14:32:18Z</time>
      </trkpt>
      <trkpt lat="47.03994" lon="6.07202">
        <ele>623.6</ele>
        <time>2026-07-08T14:32:19Z</time>
      </trkpt>
      <trkpt lat="47.03995" lon="6.07201">
        <ele>623.6</ele>
        <time>2026-07-08T14:32:20Z</time>
      </trkpt>
      <trkpt lat="47.03997" lon="6.07201">
        <ele>623.6</ele>
        <time>2026-07-08T14:32:21Z</time>
      </trkpt>
      <trkpt lat="47.03999" lon="6.072">
        <ele>623.6</ele>
        <time>2026-07-08T14:32:22Z</time>
      </trkpt>
      <trkpt lat="47.04002" lon="6.072">
        <ele>623.6</ele>
        <time>2026-07-08T14:32:23Z</time>
      </trkpt>
      <trkpt lat="47.04004" lon="6.072">
        <ele>623.6</ele>
        <time>2026-07-08T14:32:24Z</time>
      </trkpt>
      <trkpt lat="47.04007" lon="6.07199">
        <ele>623.6</ele>
        <time>2026-07-08T14:32:25Z</time>
      </trkpt>
      <trkpt lat="47.04009" lon="6.07198">
        <ele>623.4</ele>
        <time>2026-07-08T14:32:26Z</time>
      </trkpt>
      <trkpt lat="47.04012" lon="6.07197">
        <ele>623.6</ele>
        <time>2026-07-08T14:32:27Z</time>
      </trkpt>
      <trkpt lat="47.04014" lon="6.07196">
        <ele>623.6</ele>
        <time>2026-07-08T14:32:28Z</time>
      </trkpt>
      <trkpt lat="47.04017" lon="6.07195">
        <ele>623.6</ele>
        <time>2026-07-08T14:32:29Z</time>
      </trkpt>
      <trkpt lat="47.0402" lon="6.07194">
        <ele>623.6</ele>
        <time>2026-07-08T14:32:30Z</time>
      </trkpt>
      <trkpt lat="47.04022" lon="6.07194">
        <ele>623.4</ele>
        <time>2026-07-08T14:32:31Z</time>
      </trkpt>
      <trkpt lat="47.04024" lon="6.07194">
        <ele>623.4</ele>
        <time>2026-07-08T14:32:32Z</time>
      </trkpt>
      <trkpt lat="47.04024" lon="6.07194">
        <ele>623.6</ele>
        <time>2026-07-08T14:32:33Z</time>
      </trkpt>
      <trkpt lat="47.04024" lon="6.07194">
        <ele>623.4</ele>
        <time>2026-07-08T14:32:34Z</time>
      </trkpt>
      <trkpt lat="47.04024" lon="6.07194">
        <ele>623.4</ele>
        <time>2026-07-08T14:32:35Z</time>
      </trkpt>
      <trkpt lat="47.04032" lon="6.07188">
        <ele>622.4</ele>
        <time>2026-07-08T14:33:16Z</time>
      </trkpt>
      <trkpt lat="47.04034" lon="6.07187">
        <ele>622.4</ele>
        <time>2026-07-08T14:33:17Z</time>
      </trkpt>
      <trkpt lat="47.04037" lon="6.07186">
        <ele>622.4</ele>
        <time>2026-07-08T14:33:18Z</time>
      </trkpt>
      <trkpt lat="47.0404" lon="6.07185">
        <ele>622.4</ele>
        <time>2026-07-08T14:33:19Z</time>
      </trkpt>
      <trkpt lat="47.04043" lon="6.07184">
        <ele>622.6</ele>
        <time>2026-07-08T14:33:20Z</time>
      </trkpt>
      <trkpt lat="47.04047" lon="6.07182">
        <ele>622.4</ele>
        <time>2026-07-08T14:33:21Z</time>
      </trkpt>
      <trkpt lat="47.0405" lon="6.0718">
        <ele>622.4</ele>
        <time>2026-07-08T14:33:22Z</time>
      </trkpt>
      <trkpt lat="47.04054" lon="6.07178">
        <ele>622.6</ele>
        <time>2026-07-08T14:33:23Z</time>
      </trkpt>
      <trkpt lat="47.04058" lon="6.07177">
        <ele>622.4</ele>
        <time>2026-07-08T14:33:24Z</time>
      </trkpt>
      <trkpt lat="47.04062" lon="6.07175">
        <ele>622.4</ele>
        <time>2026-07-08T14:33:25Z</time>
      </trkpt>
      <trkpt lat="47.04066" lon="6.07174">
        <ele>622.4</ele>
        <time>2026-07-08T14:33:26Z</time>
      </trkpt>
      <trkpt lat="47.0407" lon="6.07173">
        <ele>622.6</ele>
        <time>2026-07-08T14:33:27Z</time>
      </trkpt>
      <trkpt lat="47.04073" lon="6.07171">
        <ele>622.4</ele>
        <time>2026-07-08T14:33:28Z</time>
      </trkpt>
      <trkpt lat="47.04077" lon="6.0717">
        <ele>622.4</ele>
        <time>2026-07-08T14:33:29Z</time>
      </trkpt>
      <trkpt lat="47.04081" lon="6.07168">
        <ele>622.4</ele>
        <time>2026-07-08T14:33:30Z</time>
      </trkpt>
      <trkpt lat="47.04085" lon="6.07167">
        <ele>622.4</ele>
        <time>2026-07-08T14:33:31Z</time>
      </trkpt>
      <trkpt lat="47.04089" lon="6.07165">
        <ele>622.4</ele>
        <time>2026-07-08T14:33:32Z</time>
      </trkpt>
      <trkpt lat="47.04093" lon="6.07163">
        <ele>622.4</ele>
        <time>2026-07-08T14:33:33Z</time>
      </trkpt>
      <trkpt lat="47.04097" lon="6.07162">
        <ele>622.2</ele>
        <time>2026-07-08T14:33:34Z</time>
      </trkpt>
      <trkpt lat="47.04102" lon="6.07161">
        <ele>622.4</ele>
        <time>2026-07-08T14:33:35Z</time>
      </trkpt>
      <trkpt lat="47.04107" lon="6.0716">
        <ele>622.2</ele>
        <time>2026-07-08T14:33:36Z</time>
      </trkpt>
      <trkpt lat="47.04112" lon="6.07159">
        <ele>622.4</ele>
        <time>2026-07-08T14:33:37Z</time>
      </trkpt>
      <trkpt lat="47.04116" lon="6.07159">
        <ele>622.2</ele>
        <time>2026-07-08T14:33:38Z</time>
      </trkpt>
      <trkpt lat="47.04121" lon="6.0716">
        <ele>622</ele>
        <time>2026-07-08T14:33:39Z</time>
      </trkpt>
      <trkpt lat="47.04126" lon="6.0716">
        <ele>622</ele>
        <time>2026-07-08T14:33:40Z</time>
      </trkpt>
      <trkpt lat="47.0413" lon="6.07161">
        <ele>622</ele>
        <time>2026-07-08T14:33:41Z</time>
      </trkpt>
      <trkpt lat="47.04135" lon="6.07161">
        <ele>622</ele>
        <time>2026-07-08T14:33:42Z</time>
      </trkpt>
      <trkpt lat="47.0414" lon="6.07162">
        <ele>622</ele>
        <time>2026-07-08T14:33:43Z</time>
      </trkpt>
      <trkpt lat="47.04145" lon="6.07162">
        <ele>622</ele>
        <time>2026-07-08T14:33:44Z</time>
      </trkpt>
      <trkpt lat="47.0415" lon="6.07162">
        <ele>621.8</ele>
        <time>2026-07-08T14:33:45Z</time>
      </trkpt>
      <trkpt lat="47.04155" lon="6.07163">
        <ele>621.8</ele>
        <time>2026-07-08T14:33:46Z</time>
      </trkpt>
      <trkpt lat="47.0416" lon="6.07163">
        <ele>621.8</ele>
        <time>2026-07-08T14:33:47Z</time>
      </trkpt>
      <trkpt lat="47.04165" lon="6.07164">
        <ele>621.8</ele>
        <time>2026-07-08T14:33:48Z</time>
      </trkpt>
      <trkpt lat="47.0417" lon="6.07164">
        <ele>621.6</ele>
        <time>2026-07-08T14:33:49Z</time>
      </trkpt>
      <trkpt lat="47.04175" lon="6.07164">
        <ele>621.6</ele>
        <time>2026-07-08T14:33:50Z</time>
      </trkpt>
      <trkpt lat="47.04179" lon="6.07164">
        <ele>621.8</ele>
        <time>2026-07-08T14:33:51Z</time>
      </trkpt>
      <trkpt lat="47.04184" lon="6.07164">
        <ele>621.6</ele>
        <time>2026-07-08T14:33:52Z</time>
      </trkpt>
      <trkpt lat="47.04188" lon="6.07164">
        <ele>621.6</ele>
        <time>2026-07-08T14:33:53Z</time>
      </trkpt>
      <trkpt lat="47.04193" lon="6.07163">
        <ele>621.6</ele>
        <time>2026-07-08T14:33:54Z</time>
      </trkpt>
      <trkpt lat="47.04197" lon="6.07163">
        <ele>621.6</ele>
        <time>2026-07-08T14:33:55Z</time>
      </trkpt>
      <trkpt lat="47.04201" lon="6.07162">
        <ele>621.6</ele>
        <time>2026-07-08T14:33:56Z</time>
      </trkpt>
      <trkpt lat="47.04206" lon="6.07162">
        <ele>621.6</ele>
        <time>2026-07-08T14:33:57Z</time>
      </trkpt>
      <trkpt lat="47.04209" lon="6.07161">
        <ele>621.6</ele>
        <time>2026-07-08T14:33:58Z</time>
      </trkpt>
      <trkpt lat="47.04213" lon="6.07161">
        <ele>621.4</ele>
        <time>2026-07-08T14:33:59Z</time>
      </trkpt>
      <trkpt lat="47.04217" lon="6.07161">
        <ele>621.4</ele>
        <time>2026-07-08T14:34:00Z</time>
      </trkpt>
      <trkpt lat="47.0422" lon="6.0716">
        <ele>621.2</ele>
        <time>2026-07-08T14:34:01Z</time>
      </trkpt>
      <trkpt lat="47.04224" lon="6.07159">
        <ele>621.2</ele>
        <time>2026-07-08T14:34:02Z</time>
      </trkpt>
      <trkpt lat="47.04226" lon="6.07157">
        <ele>621.2</ele>
        <time>2026-07-08T14:34:03Z</time>
      </trkpt>
      <trkpt lat="47.04228" lon="6.07154">
        <ele>621.2</ele>
        <time>2026-07-08T14:34:04Z</time>
      </trkpt>
      <trkpt lat="47.04229" lon="6.0715">
        <ele>621.2</ele>
        <time>2026-07-08T14:34:05Z</time>
      </trkpt>
      <trkpt lat="47.04229" lon="6.07144">
        <ele>621</ele>
        <time>2026-07-08T14:34:06Z</time>
      </trkpt>
      <trkpt lat="47.04229" lon="6.07138">
        <ele>621</ele>
        <time>2026-07-08T14:34:07Z</time>
      </trkpt>
      <trkpt lat="47.04229" lon="6.07132">
        <ele>621</ele>
        <time>2026-07-08T14:34:08Z</time>
      </trkpt>
      <trkpt lat="47.04228" lon="6.07125">
        <ele>621.2</ele>
        <time>2026-07-08T14:34:09Z</time>
      </trkpt>
      <trkpt lat="47.04228" lon="6.07119">
        <ele>621</ele>
        <time>2026-07-08T14:34:10Z</time>
      </trkpt>
      <trkpt lat="47.04227" lon="6.07112">
        <ele>621</ele>
        <time>2026-07-08T14:34:11Z</time>
      </trkpt>
      <trkpt lat="47.04227" lon="6.07105">
        <ele>621</ele>
        <time>2026-07-08T14:34:12Z</time>
      </trkpt>
      <trkpt lat="47.04226" lon="6.07098">
        <ele>620.8</ele>
        <time>2026-07-08T14:34:13Z</time>
      </trkpt>
      <trkpt lat="47.04226" lon="6.07091">
        <ele>620.6</ele>
        <time>2026-07-08T14:34:14Z</time>
      </trkpt>
      <trkpt lat="47.04226" lon="6.07084">
        <ele>620.6</ele>
        <time>2026-07-08T14:34:15Z</time>
      </trkpt>
      <trkpt lat="47.04226" lon="6.07077">
        <ele>620.2</ele>
        <time>2026-07-08T14:34:16Z</time>
      </trkpt>
      <trkpt lat="47.04226" lon="6.07071">
        <ele>620.2</ele>
        <time>2026-07-08T14:34:17Z</time>
      </trkpt>
      <trkpt lat="47.04226" lon="6.07065">
        <ele>620.2</ele>
        <time>2026-07-08T14:34:18Z</time>
      </trkpt>
      <trkpt lat="47.04226" lon="6.07058">
        <ele>619.8</ele>
        <time>2026-07-08T14:34:19Z</time>
      </trkpt>
      <trkpt lat="47.04226" lon="6.07053">
        <ele>619.6</ele>
        <time>2026-07-08T14:34:20Z</time>
      </trkpt>
      <trkpt lat="47.04226" lon="6.07047">
        <ele>619.6</ele>
        <time>2026-07-08T14:34:21Z</time>
      </trkpt>
      <trkpt lat="47.04226" lon="6.07041">
        <ele>619.6</ele>
        <time>2026-07-08T14:34:22Z</time>
      </trkpt>
      <trkpt lat="47.04225" lon="6.07036">
        <ele>619.6</ele>
        <time>2026-07-08T14:34:23Z</time>
      </trkpt>
      <trkpt lat="47.04225" lon="6.07032">
        <ele>619.4</ele>
        <time>2026-07-08T14:34:24Z</time>
      </trkpt>
      <trkpt lat="47.04225" lon="6.07027">
        <ele>619.2</ele>
        <time>2026-07-08T14:34:25Z</time>
      </trkpt>
      <trkpt lat="47.04224" lon="6.07023">
        <ele>619.2</ele>
        <time>2026-07-08T14:34:26Z</time>
      </trkpt>
      <trkpt lat="47.04224" lon="6.0702">
        <ele>619.2</ele>
        <time>2026-07-08T14:34:27Z</time>
      </trkpt>
      <trkpt lat="47.04225" lon="6.07017">
        <ele>619</ele>
        <time>2026-07-08T14:34:28Z</time>
      </trkpt>
      <trkpt lat="47.04225" lon="6.07013">
        <ele>618.8</ele>
        <time>2026-07-08T14:34:29Z</time>
      </trkpt>
      <trkpt lat="47.04224" lon="6.07009">
        <ele>619</ele>
        <time>2026-07-08T14:34:30Z</time>
      </trkpt>
      <trkpt lat="47.04225" lon="6.07005">
        <ele>619</ele>
        <time>2026-07-08T14:34:31Z</time>
      </trkpt>
      <trkpt lat="47.04225" lon="6.07">
        <ele>618.8</ele>
        <time>2026-07-08T14:34:32Z</time>
      </trkpt>
      <trkpt lat="47.04226" lon="6.06996">
        <ele>618.8</ele>
        <time>2026-07-08T14:34:33Z</time>
      </trkpt>
      <trkpt lat="47.04227" lon="6.06992">
        <ele>618.6</ele>
        <time>2026-07-08T14:34:34Z</time>
      </trkpt>
      <trkpt lat="47.04226" lon="6.06988">
        <ele>618.8</ele>
        <time>2026-07-08T14:34:35Z</time>
      </trkpt>
      <trkpt lat="47.04226" lon="6.06984">
        <ele>618.8</ele>
        <time>2026-07-08T14:34:36Z</time>
      </trkpt>
      <trkpt lat="47.04225" lon="6.06982">
        <ele>618.6</ele>
        <time>2026-07-08T14:34:37Z</time>
      </trkpt>
      <trkpt lat="47.04225" lon="6.06979">
        <ele>618.8</ele>
        <time>2026-07-08T14:34:38Z</time>
      </trkpt>
      <trkpt lat="47.04225" lon="6.06976">
        <ele>618.8</ele>
        <time>2026-07-08T14:34:39Z</time>
      </trkpt>
      <trkpt lat="47.04225" lon="6.06972">
        <ele>618.6</ele>
        <time>2026-07-08T14:34:40Z</time>
      </trkpt>
      <trkpt lat="47.04225" lon="6.06968">
        <ele>618.6</ele>
        <time>2026-07-08T14:34:41Z</time>
      </trkpt>
      <trkpt lat="47.04226" lon="6.06964">
        <ele>618.8</ele>
        <time>2026-07-08T14:34:42Z</time>
      </trkpt>
      <trkpt lat="47.04226" lon="6.06961">
        <ele>618.8</ele>
        <time>2026-07-08T14:34:43Z</time>
      </trkpt>
      <trkpt lat="47.04226" lon="6.06957">
        <ele>618.8</ele>
        <time>2026-07-08T14:34:44Z</time>
      </trkpt>
      <trkpt lat="47.04227" lon="6.06955">
        <ele>618.8</ele>
        <time>2026-07-08T14:34:45Z</time>
      </trkpt>
      <trkpt lat="47.04228" lon="6.06953">
        <ele>618.8</ele>
        <time>2026-07-08T14:34:46Z</time>
      </trkpt>
      <trkpt lat="47.04229" lon="6.06953">
        <ele>618.8</ele>
        <time>2026-07-08T14:34:47Z</time>
      </trkpt>
      <trkpt lat="47.0423" lon="6.06953">
        <ele>618.6</ele>
        <time>2026-07-08T14:34:48Z</time>
      </trkpt>
      <trkpt lat="47.04231" lon="6.06953">
        <ele>618.8</ele>
        <time>2026-07-08T14:34:49Z</time>
      </trkpt>
      <trkpt lat="47.04231" lon="6.06953">
        <ele>618.8</ele>
        <time>2026-07-08T14:34:50Z</time>
      </trkpt>
      <trkpt lat="47.04231" lon="6.06953">
        <ele>619</ele>
        <time>2026-07-08T14:34:51Z</time>
      </trkpt>
      <trkpt lat="47.04231" lon="6.06953">
        <ele>619.2</ele>
        <time>2026-07-08T14:34:52Z</time>
      </trkpt>
      <trkpt lat="47.04231" lon="6.06953">
        <ele>619.2</ele>
        <time>2026-07-08T14:34:53Z</time>
      </trkpt>
      <trkpt lat="47.04231" lon="6.06953">
        <ele>619.2</ele>
        <time>2026-07-08T14:34:54Z</time>
      </trkpt>
      <trkpt lat="47.04231" lon="6.06953">
        <ele>619.4</ele>
        <time>2026-07-08T14:34:55Z</time>
      </trkpt>
      <trkpt lat="47.04226" lon="6.0696">
        <ele>620.2</ele>
        <time>2026-07-08T14:38:06Z</time>
      </trkpt>
      <trkpt lat="47.04226" lon="6.06965">
        <ele>620.2</ele>
        <time>2026-07-08T14:38:07Z</time>
      </trkpt>
      <trkpt lat="47.04227" lon="6.06969">
        <ele>620.2</ele>
        <time>2026-07-08T14:38:08Z</time>
      </trkpt>
      <trkpt lat="47.04227" lon="6.06973">
        <ele>620.2</ele>
        <time>2026-07-08T14:38:09Z</time>
      </trkpt>
      <trkpt lat="47.04227" lon="6.06976">
        <ele>620.2</ele>
        <time>2026-07-08T14:38:10Z</time>
      </trkpt>
      <trkpt lat="47.04228" lon="6.06978">
        <ele>620</ele>
        <time>2026-07-08T14:38:11Z</time>
      </trkpt>
      <trkpt lat="47.04229" lon="6.0698">
        <ele>620.2</ele>
        <time>2026-07-08T14:38:12Z</time>
      </trkpt>
      <trkpt lat="47.0423" lon="6.0698">
        <ele>620.2</ele>
        <time>2026-07-08T14:38:13Z</time>
      </trkpt>
      <trkpt lat="47.0423" lon="6.0698">
        <ele>620</ele>
        <time>2026-07-08T14:38:14Z</time>
      </trkpt>
      <trkpt lat="47.0423" lon="6.0698">
        <ele>620</ele>
        <time>2026-07-08T14:38:15Z</time>
      </trkpt>
      <trkpt lat="47.0423" lon="6.06981">
        <ele>620.2</ele>
        <time>2026-07-08T14:38:16Z</time>
      </trkpt>
      <trkpt lat="47.04226" lon="6.06994">
        <ele>619.4</ele>
        <time>2026-07-08T14:38:27Z</time>
      </trkpt>
      <trkpt lat="47.04226" lon="6.06997">
        <ele>619.4</ele>
        <time>2026-07-08T14:38:28Z</time>
      </trkpt>
      <trkpt lat="47.04226" lon="6.07001">
        <ele>619.4</ele>
        <time>2026-07-08T14:38:29Z</time>
      </trkpt>
      <trkpt lat="47.04226" lon="6.07006">
        <ele>619.4</ele>
        <time>2026-07-08T14:38:30Z</time>
      </trkpt>
      <trkpt lat="47.04226" lon="6.07011">
        <ele>619.6</ele>
        <time>2026-07-08T14:38:31Z</time>
      </trkpt>
      <trkpt lat="47.04227" lon="6.07016">
        <ele>619.4</ele>
        <time>2026-07-08T14:38:32Z</time>
      </trkpt>
      <trkpt lat="47.04227" lon="6.07022">
        <ele>619.6</ele>
        <time>2026-07-08T14:38:33Z</time>
      </trkpt>
      <trkpt lat="47.04227" lon="6.07027">
        <ele>619.4</ele>
        <time>2026-07-08T14:38:34Z</time>
      </trkpt>
      <trkpt lat="47.04228" lon="6.07032">
        <ele>619.6</ele>
        <time>2026-07-08T14:38:35Z</time>
      </trkpt>
      <trkpt lat="47.04228" lon="6.07037">
        <ele>619.8</ele>
        <time>2026-07-08T14:38:36Z</time>
      </trkpt>
      <trkpt lat="47.04228" lon="6.07042">
        <ele>619.6</ele>
        <time>2026-07-08T14:38:37Z</time>
      </trkpt>
      <trkpt lat="47.04228" lon="6.07047">
        <ele>619.6</ele>
        <time>2026-07-08T14:38:38Z</time>
      </trkpt>
      <trkpt lat="47.04228" lon="6.07053">
        <ele>619.6</ele>
        <time>2026-07-08T14:38:39Z</time>
      </trkpt>
      <trkpt lat="47.04228" lon="6.07059">
        <ele>619.4</ele>
        <time>2026-07-08T14:38:40Z</time>
      </trkpt>
      <trkpt lat="47.04228" lon="6.07065">
        <ele>619.4</ele>
        <time>2026-07-08T14:38:41Z</time>
      </trkpt>
      <trkpt lat="47.04228" lon="6.07071">
        <ele>619.6</ele>
        <time>2026-07-08T14:38:42Z</time>
      </trkpt>
      <trkpt lat="47.04228" lon="6.07076">
        <ele>619.6</ele>
        <time>2026-07-08T14:38:43Z</time>
      </trkpt>
      <trkpt lat="47.04228" lon="6.07082">
        <ele>619.6</ele>
        <time>2026-07-08T14:38:44Z</time>
      </trkpt>
      <trkpt lat="47.04228" lon="6.07087">
        <ele>619.6</ele>
        <time>2026-07-08T14:38:45Z</time>
      </trkpt>
      <trkpt lat="47.04228" lon="6.07093">
        <ele>619.4</ele>
        <time>2026-07-08T14:38:46Z</time>
      </trkpt>
      <trkpt lat="47.04228" lon="6.07099">
        <ele>619.4</ele>
        <time>2026-07-08T14:38:47Z</time>
      </trkpt>
      <trkpt lat="47.04228" lon="6.07104">
        <ele>619.4</ele>
        <time>2026-07-08T14:38:48Z</time>
      </trkpt>
      <trkpt lat="47.04228" lon="6.0711">
        <ele>619.4</ele>
        <time>2026-07-08T14:38:49Z</time>
      </trkpt>
      <trkpt lat="47.04228" lon="6.07115">
        <ele>619.4</ele>
        <time>2026-07-08T14:38:50Z</time>
      </trkpt>
      <trkpt lat="47.04228" lon="6.0712">
        <ele>619.4</ele>
        <time>2026-07-08T14:38:51Z</time>
      </trkpt>
      <trkpt lat="47.04228" lon="6.07125">
        <ele>619.2</ele>
        <time>2026-07-08T14:38:52Z</time>
      </trkpt>
      <trkpt lat="47.04228" lon="6.07129">
        <ele>619.4</ele>
        <time>2026-07-08T14:38:53Z</time>
      </trkpt>
      <trkpt lat="47.04228" lon="6.07134">
        <ele>619.4</ele>
        <time>2026-07-08T14:38:54Z</time>
      </trkpt>
      <trkpt lat="47.04228" lon="6.07138">
        <ele>619.4</ele>
        <time>2026-07-08T14:38:55Z</time>
      </trkpt>
      <trkpt lat="47.04229" lon="6.07143">
        <ele>619.4</ele>
        <time>2026-07-08T14:38:56Z</time>
      </trkpt>
      <trkpt lat="47.0423" lon="6.07147">
        <ele>619.6</ele>
        <time>2026-07-08T14:38:57Z</time>
      </trkpt>
      <trkpt lat="47.04232" lon="6.0715">
        <ele>619.6</ele>
        <time>2026-07-08T14:38:58Z</time>
      </trkpt>
      <trkpt lat="47.04235" lon="6.07152">
        <ele>619.6</ele>
        <time>2026-07-08T14:38:59Z</time>
      </trkpt>
      <trkpt lat="47.04239" lon="6.07153">
        <ele>619.8</ele>
        <time>2026-07-08T14:39:00Z</time>
      </trkpt>
      <trkpt lat="47.04243" lon="6.07153">
        <ele>620</ele>
        <time>2026-07-08T14:39:01Z</time>
      </trkpt>
      <trkpt lat="47.04247" lon="6.07151">
        <ele>620</ele>
        <time>2026-07-08T14:39:02Z</time>
      </trkpt>
      <trkpt lat="47.04251" lon="6.0715">
        <ele>620.2</ele>
        <time>2026-07-08T14:39:03Z</time>
      </trkpt>
      <trkpt lat="47.04255" lon="6.07148">
        <ele>620.2</ele>
        <time>2026-07-08T14:39:04Z</time>
      </trkpt>
      <trkpt lat="47.0426" lon="6.07147">
        <ele>620.2</ele>
        <time>2026-07-08T14:39:05Z</time>
      </trkpt>
      <trkpt lat="47.04264" lon="6.07146">
        <ele>620.2</ele>
        <time>2026-07-08T14:39:06Z</time>
      </trkpt>
      <trkpt lat="47.04268" lon="6.07146">
        <ele>620.4</ele>
        <time>2026-07-08T14:39:07Z</time>
      </trkpt>
      <trkpt lat="47.04272" lon="6.07145">
        <ele>620.2</ele>
        <time>2026-07-08T14:39:08Z</time>
      </trkpt>
      <trkpt lat="47.04277" lon="6.07144">
        <ele>620.4</ele>
        <time>2026-07-08T14:39:09Z</time>
      </trkpt>
      <trkpt lat="47.0428" lon="6.07143">
        <ele>620.2</ele>
        <time>2026-07-08T14:39:10Z</time>
      </trkpt>
      <trkpt lat="47.04284" lon="6.07142">
        <ele>620.4</ele>
        <time>2026-07-08T14:39:11Z</time>
      </trkpt>
      <trkpt lat="47.04288" lon="6.07141">
        <ele>620.4</ele>
        <time>2026-07-08T14:39:12Z</time>
      </trkpt>
      <trkpt lat="47.04293" lon="6.0714">
        <ele>620.4</ele>
        <time>2026-07-08T14:39:13Z</time>
      </trkpt>
      <trkpt lat="47.04296" lon="6.07139">
        <ele>620.4</ele>
        <time>2026-07-08T14:39:14Z</time>
      </trkpt>
      <trkpt lat="47.04299" lon="6.07138">
        <ele>620.2</ele>
        <time>2026-07-08T14:39:15Z</time>
      </trkpt>
      <trkpt lat="47.04302" lon="6.07137">
        <ele>620.4</ele>
        <time>2026-07-08T14:39:16Z</time>
      </trkpt>
      <trkpt lat="47.04304" lon="6.07134">
        <ele>620.2</ele>
        <time>2026-07-08T14:39:17Z</time>
      </trkpt>
      <trkpt lat="47.04306" lon="6.07129">
        <ele>620.4</ele>
        <time>2026-07-08T14:39:18Z</time>
      </trkpt>
      <trkpt lat="47.04307" lon="6.07122">
        <ele>620.2</ele>
        <time>2026-07-08T14:39:19Z</time>
      </trkpt>
      <trkpt lat="47.04307" lon="6.07113">
        <ele>620</ele>
        <time>2026-07-08T14:39:20Z</time>
      </trkpt>
      <trkpt lat="47.04307" lon="6.07105">
        <ele>620</ele>
        <time>2026-07-08T14:39:21Z</time>
      </trkpt>
      <trkpt lat="47.04306" lon="6.07098">
        <ele>620</ele>
        <time>2026-07-08T14:39:22Z</time>
      </trkpt>
      <trkpt lat="47.04305" lon="6.0709">
        <ele>620</ele>
        <time>2026-07-08T14:39:23Z</time>
      </trkpt>
      <trkpt lat="47.04304" lon="6.07083">
        <ele>619.8</ele>
        <time>2026-07-08T14:39:24Z</time>
      </trkpt>
      <trkpt lat="47.04303" lon="6.07077">
        <ele>619.6</ele>
        <time>2026-07-08T14:39:25Z</time>
      </trkpt>
      <trkpt lat="47.04303" lon="6.07071">
        <ele>619.6</ele>
        <time>2026-07-08T14:39:26Z</time>
      </trkpt>
      <trkpt lat="47.04303" lon="6.07067">
        <ele>619.4</ele>
        <time>2026-07-08T14:39:27Z</time>
      </trkpt>
      <trkpt lat="47.04303" lon="6.07062">
        <ele>619.4</ele>
        <time>2026-07-08T14:39:28Z</time>
      </trkpt>
      <trkpt lat="47.04304" lon="6.07059">
        <ele>619</ele>
        <time>2026-07-08T14:39:29Z</time>
      </trkpt>
      <trkpt lat="47.04304" lon="6.07055">
        <ele>619</ele>
        <time>2026-07-08T14:39:30Z</time>
      </trkpt>
      <trkpt lat="47.04306" lon="6.07053">
        <ele>618.8</ele>
        <time>2026-07-08T14:39:31Z</time>
      </trkpt>
      <trkpt lat="47.04307" lon="6.0705">
        <ele>618.6</ele>
        <time>2026-07-08T14:39:32Z</time>
      </trkpt>
      <trkpt lat="47.04309" lon="6.07048">
        <ele>618.6</ele>
        <time>2026-07-08T14:39:33Z</time>
      </trkpt>
      <trkpt lat="47.04311" lon="6.07047">
        <ele>618.6</ele>
        <time>2026-07-08T14:39:34Z</time>
      </trkpt>
      <trkpt lat="47.04313" lon="6.07047">
        <ele>618.4</ele>
        <time>2026-07-08T14:39:35Z</time>
      </trkpt>
      <trkpt lat="47.04316" lon="6.07046">
        <ele>618.4</ele>
        <time>2026-07-08T14:39:36Z</time>
      </trkpt>
      <trkpt lat="47.04319" lon="6.07045">
        <ele>618.2</ele>
        <time>2026-07-08T14:39:37Z</time>
      </trkpt>
      <trkpt lat="47.04322" lon="6.07044">
        <ele>618.2</ele>
        <time>2026-07-08T14:39:38Z</time>
      </trkpt>
      <trkpt lat="47.04325" lon="6.07044">
        <ele>618.2</ele>
        <time>2026-07-08T14:39:39Z</time>
      </trkpt>
      <trkpt lat="47.04328" lon="6.07043">
        <ele>618.2</ele>
        <time>2026-07-08T14:39:40Z</time>
      </trkpt>
      <trkpt lat="47.04332" lon="6.07042">
        <ele>618</ele>
        <time>2026-07-08T14:39:41Z</time>
      </trkpt>
      <trkpt lat="47.04335" lon="6.07043">
        <ele>618.2</ele>
        <time>2026-07-08T14:39:42Z</time>
      </trkpt>
      <trkpt lat="47.04339" lon="6.07045">
        <ele>618.2</ele>
        <time>2026-07-08T14:39:43Z</time>
      </trkpt>
      <trkpt lat="47.04342" lon="6.07047">
        <ele>618.2</ele>
        <time>2026-07-08T14:39:44Z</time>
      </trkpt>
      <trkpt lat="47.04345" lon="6.07051">
        <ele>618.2</ele>
        <time>2026-07-08T14:39:45Z</time>
      </trkpt>
      <trkpt lat="47.04347" lon="6.07056">
        <ele>618.2</ele>
        <time>2026-07-08T14:39:46Z</time>
      </trkpt>
      <trkpt lat="47.04349" lon="6.07062">
        <ele>618.2</ele>
        <time>2026-07-08T14:39:47Z</time>
      </trkpt>
      <trkpt lat="47.0435" lon="6.07068">
        <ele>618.2</ele>
        <time>2026-07-08T14:39:48Z</time>
      </trkpt>
      <trkpt lat="47.04351" lon="6.07075">
        <ele>618</ele>
        <time>2026-07-08T14:39:49Z</time>
      </trkpt>
      <trkpt lat="47.04352" lon="6.07081">
        <ele>618.2</ele>
        <time>2026-07-08T14:39:50Z</time>
      </trkpt>
      <trkpt lat="47.04352" lon="6.07087">
        <ele>618.2</ele>
        <time>2026-07-08T14:39:51Z</time>
      </trkpt>
      <trkpt lat="47.04352" lon="6.07093">
        <ele>618</ele>
        <time>2026-07-08T14:39:52Z</time>
      </trkpt>
      <trkpt lat="47.04352" lon="6.07099">
        <ele>618</ele>
        <time>2026-07-08T14:39:53Z</time>
      </trkpt>
      <trkpt lat="47.04351" lon="6.07105">
        <ele>618.2</ele>
        <time>2026-07-08T14:39:54Z</time>
      </trkpt>
      <trkpt lat="47.0435" lon="6.07111">
        <ele>618.2</ele>
        <time>2026-07-08T14:39:55Z</time>
      </trkpt>
      <trkpt lat="47.04348" lon="6.07117">
        <ele>618.2</ele>
        <time>2026-07-08T14:39:56Z</time>
      </trkpt>
      <trkpt lat="47.04346" lon="6.07121">
        <ele>618.2</ele>
        <time>2026-07-08T14:39:57Z</time>
      </trkpt>
      <trkpt lat="47.04343" lon="6.07125">
        <ele>618.2</ele>
        <time>2026-07-08T14:39:58Z</time>
      </trkpt>
      <trkpt lat="47.0434" lon="6.07128">
        <ele>618.2</ele>
        <time>2026-07-08T14:39:59Z</time>
      </trkpt>
      <trkpt lat="47.04337" lon="6.0713">
        <ele>618.2</ele>
        <time>2026-07-08T14:40:00Z</time>
      </trkpt>
      <trkpt lat="47.04333" lon="6.0713">
        <ele>618.2</ele>
        <time>2026-07-08T14:40:01Z</time>
      </trkpt>
      <trkpt lat="47.0433" lon="6.0713">
        <ele>618.2</ele>
        <time>2026-07-08T14:40:02Z</time>
      </trkpt>
      <trkpt lat="47.04327" lon="6.0713">
        <ele>618.2</ele>
        <time>2026-07-08T14:40:03Z</time>
      </trkpt>
      <trkpt lat="47.04323" lon="6.07132">
        <ele>618.2</ele>
        <time>2026-07-08T14:40:04Z</time>
      </trkpt>
      <trkpt lat="47.04319" lon="6.07132">
        <ele>618.2</ele>
        <time>2026-07-08T14:40:05Z</time>
      </trkpt>
      <trkpt lat="47.04315" lon="6.07133">
        <ele>618.6</ele>
        <time>2026-07-08T14:40:06Z</time>
      </trkpt>
      <trkpt lat="47.0431" lon="6.07134">
        <ele>618.6</ele>
        <time>2026-07-08T14:40:07Z</time>
      </trkpt>
      <trkpt lat="47.04306" lon="6.07134">
        <ele>618.8</ele>
        <time>2026-07-08T14:40:08Z</time>
      </trkpt>
      <trkpt lat="47.04301" lon="6.07135">
        <ele>619</ele>
        <time>2026-07-08T14:40:09Z</time>
      </trkpt>
      <trkpt lat="47.04296" lon="6.07136">
        <ele>619.2</ele>
        <time>2026-07-08T14:40:10Z</time>
      </trkpt>
      <trkpt lat="47.04292" lon="6.07137">
        <ele>619.2</ele>
        <time>2026-07-08T14:40:11Z</time>
      </trkpt>
      <trkpt lat="47.04287" lon="6.07137">
        <ele>619.2</ele>
        <time>2026-07-08T14:40:12Z</time>
      </trkpt>
      <trkpt lat="47.04282" lon="6.07138">
        <ele>619.2</ele>
        <time>2026-07-08T14:40:13Z</time>
      </trkpt>
      <trkpt lat="47.04278" lon="6.07138">
        <ele>619.2</ele>
        <time>2026-07-08T14:40:14Z</time>
      </trkpt>
      <trkpt lat="47.04274" lon="6.07139">
        <ele>619.4</ele>
        <time>2026-07-08T14:40:15Z</time>
      </trkpt>
      <trkpt lat="47.04269" lon="6.07141">
        <ele>619.4</ele>
        <time>2026-07-08T14:40:16Z</time>
      </trkpt>
      <trkpt lat="47.04264" lon="6.07142">
        <ele>619.4</ele>
        <time>2026-07-08T14:40:17Z</time>
      </trkpt>
      <trkpt lat="47.04259" lon="6.07143">
        <ele>619.6</ele>
        <time>2026-07-08T14:40:18Z</time>
      </trkpt>
      <trkpt lat="47.04255" lon="6.07144">
        <ele>619.8</ele>
        <time>2026-07-08T14:40:19Z</time>
      </trkpt>
      <trkpt lat="47.0425" lon="6.07145">
        <ele>620</ele>
        <time>2026-07-08T14:40:20Z</time>
      </trkpt>
      <trkpt lat="47.04245" lon="6.07146">
        <ele>620.2</ele>
        <time>2026-07-08T14:40:21Z</time>
      </trkpt>
      <trkpt lat="47.0424" lon="6.07148">
        <ele>620.2</ele>
        <time>2026-07-08T14:40:22Z</time>
      </trkpt>
      <trkpt lat="47.04235" lon="6.07149">
        <ele>620.4</ele>
        <time>2026-07-08T14:40:23Z</time>
      </trkpt>
      <trkpt lat="47.0423" lon="6.0715">
        <ele>620.6</ele>
        <time>2026-07-08T14:40:24Z</time>
      </trkpt>
      <trkpt lat="47.04226" lon="6.07151">
        <ele>620.8</ele>
        <time>2026-07-08T14:40:25Z</time>
      </trkpt>
      <trkpt lat="47.04221" lon="6.07152">
        <ele>620.8</ele>
        <time>2026-07-08T14:40:26Z</time>
      </trkpt>
      <trkpt lat="47.04217" lon="6.07153">
        <ele>621</ele>
        <time>2026-07-08T14:40:27Z</time>
      </trkpt>
      <trkpt lat="47.04212" lon="6.07153">
        <ele>621.2</ele>
        <time>2026-07-08T14:40:28Z</time>
      </trkpt>
      <trkpt lat="47.04208" lon="6.07154">
        <ele>621.4</ele>
        <time>2026-07-08T14:40:29Z</time>
      </trkpt>
      <trkpt lat="47.04204" lon="6.07154">
        <ele>621.6</ele>
        <time>2026-07-08T14:40:30Z</time>
      </trkpt>
      <trkpt lat="47.042" lon="6.07154">
        <ele>621.8</ele>
        <time>2026-07-08T14:40:31Z</time>
      </trkpt>
      <trkpt lat="47.04195" lon="6.07154">
        <ele>621.8</ele>
        <time>2026-07-08T14:40:32Z</time>
      </trkpt>
      <trkpt lat="47.0419" lon="6.07154">
        <ele>621.8</ele>
        <time>2026-07-08T14:40:33Z</time>
      </trkpt>
      <trkpt lat="47.04185" lon="6.07154">
        <ele>621.8</ele>
        <time>2026-07-08T14:40:34Z</time>
      </trkpt>
      <trkpt lat="47.0418" lon="6.07154">
        <ele>621.8</ele>
        <time>2026-07-08T14:40:35Z</time>
      </trkpt>
      <trkpt lat="47.04175" lon="6.07154">
        <ele>621.8</ele>
        <time>2026-07-08T14:40:36Z</time>
      </trkpt>
      <trkpt lat="47.04169" lon="6.07154">
        <ele>621.8</ele>
        <time>2026-07-08T14:40:37Z</time>
      </trkpt>
      <trkpt lat="47.04164" lon="6.07153">
        <ele>622</ele>
        <time>2026-07-08T14:40:38Z</time>
      </trkpt>
      <trkpt lat="47.04159" lon="6.07153">
        <ele>621.8</ele>
        <time>2026-07-08T14:40:39Z</time>
      </trkpt>
      <trkpt lat="47.04153" lon="6.07152">
        <ele>622</ele>
        <time>2026-07-08T14:40:40Z</time>
      </trkpt>
      <trkpt lat="47.04148" lon="6.07152">
        <ele>622</ele>
        <time>2026-07-08T14:40:41Z</time>
      </trkpt>
      <trkpt lat="47.04142" lon="6.07152">
        <ele>622</ele>
        <time>2026-07-08T14:40:42Z</time>
      </trkpt>
      <trkpt lat="47.04137" lon="6.07152">
        <ele>622</ele>
        <time>2026-07-08T14:40:43Z</time>
      </trkpt>
      <trkpt lat="47.04131" lon="6.07151">
        <ele>622.2</ele>
        <time>2026-07-08T14:40:44Z</time>
      </trkpt>
      <trkpt lat="47.04126" lon="6.07151">
        <ele>622</ele>
        <time>2026-07-08T14:40:45Z</time>
      </trkpt>
      <trkpt lat="47.0412" lon="6.07151">
        <ele>622.2</ele>
        <time>2026-07-08T14:40:46Z</time>
      </trkpt>
      <trkpt lat="47.04115" lon="6.07151">
        <ele>622.2</ele>
        <time>2026-07-08T14:40:47Z</time>
      </trkpt>
      <trkpt lat="47.0411" lon="6.07151">
        <ele>622.2</ele>
        <time>2026-07-08T14:40:48Z</time>
      </trkpt>
      <trkpt lat="47.04105" lon="6.07152">
        <ele>622.2</ele>
        <time>2026-07-08T14:40:49Z</time>
      </trkpt>
      <trkpt lat="47.04099" lon="6.07153">
        <ele>622.4</ele>
        <time>2026-07-08T14:40:50Z</time>
      </trkpt>
      <trkpt lat="47.04094" lon="6.07154">
        <ele>622.4</ele>
        <time>2026-07-08T14:40:51Z</time>
      </trkpt>
      <trkpt lat="47.04089" lon="6.07157">
        <ele>622.2</ele>
        <time>2026-07-08T14:40:52Z</time>
      </trkpt>
      <trkpt lat="47.04083" lon="6.07159">
        <ele>622.4</ele>
        <time>2026-07-08T14:40:53Z</time>
      </trkpt>
      <trkpt lat="47.04078" lon="6.07162">
        <ele>622.4</ele>
        <time>2026-07-08T14:40:54Z</time>
      </trkpt>
      <trkpt lat="47.04073" lon="6.07164">
        <ele>622.4</ele>
        <time>2026-07-08T14:40:55Z</time>
      </trkpt>
      <trkpt lat="47.04069" lon="6.07166">
        <ele>622.4</ele>
        <time>2026-07-08T14:40:56Z</time>
      </trkpt>
      <trkpt lat="47.04064" lon="6.07168">
        <ele>622.4</ele>
        <time>2026-07-08T14:40:57Z</time>
      </trkpt>
      <trkpt lat="47.04059" lon="6.0717">
        <ele>622.4</ele>
        <time>2026-07-08T14:40:58Z</time>
      </trkpt>
      <trkpt lat="47.04055" lon="6.07173">
        <ele>622.4</ele>
        <time>2026-07-08T14:40:59Z</time>
      </trkpt>
      <trkpt lat="47.0405" lon="6.07175">
        <ele>622.4</ele>
        <time>2026-07-08T14:41:00Z</time>
      </trkpt>
      <trkpt lat="47.04046" lon="6.07177">
        <ele>622.6</ele>
        <time>2026-07-08T14:41:01Z</time>
      </trkpt>
      <trkpt lat="47.04041" lon="6.0718">
        <ele>622.6</ele>
        <time>2026-07-08T14:41:02Z</time>
      </trkpt>
      <trkpt lat="47.04037" lon="6.07183">
        <ele>622.8</ele>
        <time>2026-07-08T14:41:03Z</time>
      </trkpt>
      <trkpt lat="47.04032" lon="6.07185">
        <ele>622.6</ele>
        <time>2026-07-08T14:41:04Z</time>
      </trkpt>
      <trkpt lat="47.04027" lon="6.07187">
        <ele>622.8</ele>
        <time>2026-07-08T14:41:05Z</time>
      </trkpt>
      <trkpt lat="47.04023" lon="6.07189">
        <ele>623</ele>
        <time>2026-07-08T14:41:06Z</time>
      </trkpt>
      <trkpt lat="47.04019" lon="6.07191">
        <ele>623</ele>
        <time>2026-07-08T14:41:07Z</time>
      </trkpt>
      <trkpt lat="47.04014" lon="6.07193">
        <ele>623.2</ele>
        <time>2026-07-08T14:41:08Z</time>
      </trkpt>
      <trkpt lat="47.04009" lon="6.07194">
        <ele>623.2</ele>
        <time>2026-07-08T14:41:09Z</time>
      </trkpt>
      <trkpt lat="47.04005" lon="6.07195">
        <ele>623.4</ele>
        <time>2026-07-08T14:41:10Z</time>
      </trkpt>
      <trkpt lat="47.04001" lon="6.07196">
        <ele>623.4</ele>
        <time>2026-07-08T14:41:11Z</time>
      </trkpt>
      <trkpt lat="47.03996" lon="6.07196">
        <ele>623.4</ele>
        <time>2026-07-08T14:41:12Z</time>
      </trkpt>
      <trkpt lat="47.03992" lon="6.07197">
        <ele>623.6</ele>
        <time>2026-07-08T14:41:13Z</time>
      </trkpt>
      <trkpt lat="47.03988" lon="6.07197">
        <ele>623.6</ele>
        <time>2026-07-08T14:41:14Z</time>
      </trkpt>
      <trkpt lat="47.03983" lon="6.07197">
        <ele>623.8</ele>
        <time>2026-07-08T14:41:15Z</time>
      </trkpt>
      <trkpt lat="47.03979" lon="6.07197">
        <ele>623.8</ele>
        <time>2026-07-08T14:41:16Z</time>
      </trkpt>
      <trkpt lat="47.03975" lon="6.07198">
        <ele>624</ele>
        <time>2026-07-08T14:41:17Z</time>
      </trkpt>
      <trkpt lat="47.0397" lon="6.07197">
        <ele>624</ele>
        <time>2026-07-08T14:41:18Z</time>
      </trkpt>
      <trkpt lat="47.03965" lon="6.07197">
        <ele>624</ele>
        <time>2026-07-08T14:41:19Z</time>
      </trkpt>
      <trkpt lat="47.03961" lon="6.07197">
        <ele>623.8</ele>
        <time>2026-07-08T14:41:20Z</time>
      </trkpt>
      <trkpt lat="47.03956" lon="6.07198">
        <ele>624</ele>
        <time>2026-07-08T14:41:21Z</time>
      </trkpt>
      <trkpt lat="47.03951" lon="6.07198">
        <ele>624</ele>
        <time>2026-07-08T14:41:22Z</time>
      </trkpt>
      <trkpt lat="47.03946" lon="6.07198">
        <ele>624.2</ele>
        <time>2026-07-08T14:41:23Z</time>
      </trkpt>
      <trkpt lat="47.0394" lon="6.07198">
        <ele>624.2</ele>
        <time>2026-07-08T14:41:24Z</time>
      </trkpt>
      <trkpt lat="47.03935" lon="6.07197">
        <ele>624</ele>
        <time>2026-07-08T14:41:25Z</time>
      </trkpt>
      <trkpt lat="47.03931" lon="6.07197">
        <ele>624.2</ele>
        <time>2026-07-08T14:41:26Z</time>
      </trkpt>
      <trkpt lat="47.03926" lon="6.07197">
        <ele>624.2</ele>
        <time>2026-07-08T14:41:27Z</time>
      </trkpt>
      <trkpt lat="47.03922" lon="6.07197">
        <ele>624.4</ele>
        <time>2026-07-08T14:41:28Z</time>
      </trkpt>
      <trkpt lat="47.03917" lon="6.07196">
        <ele>624.4</ele>
        <time>2026-07-08T14:41:29Z</time>
      </trkpt>
      <trkpt lat="47.03913" lon="6.07196">
        <ele>624.6</ele>
        <time>2026-07-08T14:41:30Z</time>
      </trkpt>
      <trkpt lat="47.03909" lon="6.07195">
        <ele>624.6</ele>
        <time>2026-07-08T14:41:31Z</time>
      </trkpt>
      <trkpt lat="47.03904" lon="6.07195">
        <ele>624.8</ele>
        <time>2026-07-08T14:41:32Z</time>
      </trkpt>
      <trkpt lat="47.03901" lon="6.07194">
        <ele>624.8</ele>
        <time>2026-07-08T14:41:33Z</time>
      </trkpt>
      <trkpt lat="47.03897" lon="6.07193">
        <ele>625</ele>
        <time>2026-07-08T14:41:34Z</time>
      </trkpt>
      <trkpt lat="47.03894" lon="6.07192">
        <ele>625</ele>
        <time>2026-07-08T14:41:35Z</time>
      </trkpt>
      <trkpt lat="47.03891" lon="6.07191">
        <ele>625.2</ele>
        <time>2026-07-08T14:41:36Z</time>
      </trkpt>
      <trkpt lat="47.03888" lon="6.07189">
        <ele>625.2</ele>
        <time>2026-07-08T14:41:37Z</time>
      </trkpt>
      <trkpt lat="47.03884" lon="6.07186">
        <ele>625.2</ele>
        <time>2026-07-08T14:41:38Z</time>
      </trkpt>
      <trkpt lat="47.0388" lon="6.07184">
        <ele>625.2</ele>
        <time>2026-07-08T14:41:39Z</time>
      </trkpt>
      <trkpt lat="47.03877" lon="6.07182">
        <ele>625.2</ele>
        <time>2026-07-08T14:41:40Z</time>
      </trkpt>
      <trkpt lat="47.03873" lon="6.07179">
        <ele>625.4</ele>
        <time>2026-07-08T14:41:41Z</time>
      </trkpt>
      <trkpt lat="47.03869" lon="6.07176">
        <ele>625.4</ele>
        <time>2026-07-08T14:41:42Z</time>
      </trkpt>
      <trkpt lat="47.03866" lon="6.07173">
        <ele>625.6</ele>
        <time>2026-07-08T14:41:43Z</time>
      </trkpt>
      <trkpt lat="47.03864" lon="6.0717">
        <ele>625.6</ele>
        <time>2026-07-08T14:41:44Z</time>
      </trkpt>
      <trkpt lat="47.03861" lon="6.07167">
        <ele>625.6</ele>
        <time>2026-07-08T14:41:45Z</time>
      </trkpt>
      <trkpt lat="47.03858" lon="6.07165">
        <ele>625.8</ele>
        <time>2026-07-08T14:41:46Z</time>
      </trkpt>
      <trkpt lat="47.03855" lon="6.07163">
        <ele>625.8</ele>
        <time>2026-07-08T14:41:47Z</time>
      </trkpt>
      <trkpt lat="47.03852" lon="6.0716">
        <ele>625.8</ele>
        <time>2026-07-08T14:41:48Z</time>
      </trkpt>
      <trkpt lat="47.03849" lon="6.07157">
        <ele>626</ele>
        <time>2026-07-08T14:41:49Z</time>
      </trkpt>
      <trkpt lat="47.03846" lon="6.07154">
        <ele>626</ele>
        <time>2026-07-08T14:41:50Z</time>
      </trkpt>
      <trkpt lat="47.03843" lon="6.0715">
        <ele>626</ele>
        <time>2026-07-08T14:41:51Z</time>
      </trkpt>
      <trkpt lat="47.0384" lon="6.07147">
        <ele>626</ele>
        <time>2026-07-08T14:41:52Z</time>
      </trkpt>
      <trkpt lat="47.03836" lon="6.07144">
        <ele>626.2</ele>
        <time>2026-07-08T14:41:53Z</time>
      </trkpt>
      <trkpt lat="47.03833" lon="6.07142">
        <ele>626</ele>
        <time>2026-07-08T14:41:54Z</time>
      </trkpt>
      <trkpt lat="47.0383" lon="6.07139">
        <ele>626.2</ele>
        <time>2026-07-08T14:41:55Z</time>
      </trkpt>
      <trkpt lat="47.03827" lon="6.07136">
        <ele>626.2</ele>
        <time>2026-07-08T14:41:56Z</time>
      </trkpt>
      <trkpt lat="47.03825" lon="6.07133">
        <ele>626.2</ele>
        <time>2026-07-08T14:41:57Z</time>
      </trkpt>
      <trkpt lat="47.03823" lon="6.0713">
        <ele>626.4</ele>
        <time>2026-07-08T14:41:58Z</time>
      </trkpt>
      <trkpt lat="47.03822" lon="6.07127">
        <ele>626.4</ele>
        <time>2026-07-08T14:41:59Z</time>
      </trkpt>
      <trkpt lat="47.03822" lon="6.07124">
        <ele>626.4</ele>
        <time>2026-07-08T14:42:00Z</time>
      </trkpt>
      <trkpt lat="47.03821" lon="6.07122">
        <ele>626.6</ele>
        <time>2026-07-08T14:42:01Z</time>
      </trkpt>
      <trkpt lat="47.03821" lon="6.07121">
        <ele>626.6</ele>
        <time>2026-07-08T14:42:02Z</time>
      </trkpt>
      <trkpt lat="47.03821" lon="6.07119">
        <ele>626.6</ele>
        <time>2026-07-08T14:42:03Z</time>
      </trkpt>
      <trkpt lat="47.03821" lon="6.07119">
        <ele>626.6</ele>
        <time>2026-07-08T14:42:04Z</time>
      </trkpt>
      <trkpt lat="47.0382" lon="6.07118">
        <ele>626.8</ele>
        <time>2026-07-08T14:42:05Z</time>
      </trkpt>
      <trkpt lat="47.03819" lon="6.07118">
        <ele>626.8</ele>
        <time>2026-07-08T14:42:06Z</time>
      </trkpt>
      <trkpt lat="47.03818" lon="6.07117">
        <ele>627</ele>
        <time>2026-07-08T14:42:07Z</time>
      </trkpt>
      <trkpt lat="47.03817" lon="6.07116">
        <ele>627</ele>
        <time>2026-07-08T14:42:08Z</time>
      </trkpt>
      <trkpt lat="47.03815" lon="6.07115">
        <ele>627</ele>
        <time>2026-07-08T14:42:09Z</time>
      </trkpt>
      <trkpt lat="47.03814" lon="6.07114">
        <ele>627</ele>
        <time>2026-07-08T14:42:10Z</time>
      </trkpt>
      <trkpt lat="47.03812" lon="6.07113">
        <ele>627</ele>
        <time>2026-07-08T14:42:11Z</time>
      </trkpt>
      <trkpt lat="47.03811" lon="6.07111">
        <ele>627</ele>
        <time>2026-07-08T14:42:12Z</time>
      </trkpt>
      <trkpt lat="47.03811" lon="6.07109">
        <ele>627.2</ele>
        <time>2026-07-08T14:42:13Z</time>
      </trkpt>
      <trkpt lat="47.03811" lon="6.07107">
        <ele>627.2</ele>
        <time>2026-07-08T14:42:14Z</time>
      </trkpt>
      <trkpt lat="47.03811" lon="6.07104">
        <ele>627.2</ele>
        <time>2026-07-08T14:42:15Z</time>
      </trkpt>
      <trkpt lat="47.03812" lon="6.07102">
        <ele>627.2</ele>
        <time>2026-07-08T14:42:16Z</time>
      </trkpt>
      <trkpt lat="47.03812" lon="6.07099">
        <ele>627.4</ele>
        <time>2026-07-08T14:42:17Z</time>
      </trkpt>
      <trkpt lat="47.03813" lon="6.07095">
        <ele>627.6</ele>
        <time>2026-07-08T14:42:18Z</time>
      </trkpt>
      <trkpt lat="47.03814" lon="6.07092">
        <ele>627.6</ele>
        <time>2026-07-08T14:42:19Z</time>
      </trkpt>
      <trkpt lat="47.03814" lon="6.07088">
        <ele>627.4</ele>
        <time>2026-07-08T14:42:20Z</time>
      </trkpt>
      <trkpt lat="47.03814" lon="6.07085">
        <ele>627.4</ele>
        <time>2026-07-08T14:42:21Z</time>
      </trkpt>
      <trkpt lat="47.03813" lon="6.07081">
        <ele>627.6</ele>
        <time>2026-07-08T14:42:22Z</time>
      </trkpt>
      <trkpt lat="47.03812" lon="6.07077">
        <ele>627.6</ele>
        <time>2026-07-08T14:42:23Z</time>
      </trkpt>
      <trkpt lat="47.03812" lon="6.07074">
        <ele>627.4</ele>
        <time>2026-07-08T14:42:24Z</time>
      </trkpt>
      <trkpt lat="47.0381" lon="6.0707">
        <ele>627.4</ele>
        <time>2026-07-08T14:42:25Z</time>
      </trkpt>
      <trkpt lat="47.03809" lon="6.07067">
        <ele>627.6</ele>
        <time>2026-07-08T14:42:26Z</time>
      </trkpt>
      <trkpt lat="47.03808" lon="6.07065">
        <ele>627.6</ele>
        <time>2026-07-08T14:42:27Z</time>
      </trkpt>
      <trkpt lat="47.03807" lon="6.07063">
        <ele>627.8</ele>
        <time>2026-07-08T14:42:28Z</time>
      </trkpt>
      <trkpt lat="47.03806" lon="6.07062">
        <ele>627.6</ele>
        <time>2026-07-08T14:42:29Z</time>
      </trkpt>
      <trkpt lat="47.03805" lon="6.0706">
        <ele>627.6</ele>
        <time>2026-07-08T14:42:30Z</time>
      </trkpt>
      <trkpt lat="47.03803" lon="6.0706">
        <ele>627.6</ele>
        <time>2026-07-08T14:42:31Z</time>
      </trkpt>
      <trkpt lat="47.03801" lon="6.07059">
        <ele>627.6</ele>
        <time>2026-07-08T14:42:32Z</time>
      </trkpt>
      <trkpt lat="47.038" lon="6.07057">
        <ele>627.8</ele>
        <time>2026-07-08T14:42:33Z</time>
      </trkpt>
      <trkpt lat="47.03798" lon="6.07056">
        <ele>627.6</ele>
        <time>2026-07-08T14:42:34Z</time>
      </trkpt>
      <trkpt lat="47.03796" lon="6.07056">
        <ele>627.6</ele>
        <time>2026-07-08T14:42:35Z</time>
      </trkpt>
      <trkpt lat="47.03794" lon="6.07055">
        <ele>627.8</ele>
        <time>2026-07-08T14:42:36Z</time>
      </trkpt>
      <trkpt lat="47.03792" lon="6.07053">
        <ele>628</ele>
        <time>2026-07-08T14:42:37Z</time>
      </trkpt>
      <trkpt lat="47.03791" lon="6.07052">
        <ele>628</ele>
        <time>2026-07-08T14:42:38Z</time>
      </trkpt>
      <trkpt lat="47.03789" lon="6.07051">
        <ele>628</ele>
        <time>2026-07-08T14:42:39Z</time>
      </trkpt>
      <trkpt lat="47.03787" lon="6.0705">
        <ele>628</ele>
        <time>2026-07-08T14:42:40Z</time>
      </trkpt>
      <trkpt lat="47.03786" lon="6.0705">
        <ele>628.2</ele>
        <time>2026-07-08T14:42:41Z</time>
      </trkpt>
      <trkpt lat="47.03784" lon="6.0705">
        <ele>628.2</ele>
        <time>2026-07-08T14:42:42Z</time>
      </trkpt>
      <trkpt lat="47.03783" lon="6.0705">
        <ele>628.4</ele>
        <time>2026-07-08T14:42:43Z</time>
      </trkpt>
      <trkpt lat="47.03781" lon="6.07052">
        <ele>628.4</ele>
        <time>2026-07-08T14:42:44Z</time>
      </trkpt>
      <trkpt lat="47.03779" lon="6.07053">
        <ele>628.4</ele>
        <time>2026-07-08T14:42:45Z</time>
      </trkpt>
      <trkpt lat="47.03777" lon="6.07055">
        <ele>628.8</ele>
        <time>2026-07-08T14:42:46Z</time>
      </trkpt>
      <trkpt lat="47.03775" lon="6.07056">
        <ele>628.8</ele>
        <time>2026-07-08T14:42:47Z</time>
      </trkpt>
      <trkpt lat="47.03774" lon="6.07058">
        <ele>628.8</ele>
        <time>2026-07-08T14:42:48Z</time>
      </trkpt>
      <trkpt lat="47.03772" lon="6.07059">
        <ele>628.8</ele>
        <time>2026-07-08T14:42:49Z</time>
      </trkpt>
      <trkpt lat="47.03771" lon="6.07061">
        <ele>629</ele>
        <time>2026-07-08T14:42:50Z</time>
      </trkpt>
      <trkpt lat="47.0377" lon="6.07062">
        <ele>629</ele>
        <time>2026-07-08T14:42:51Z</time>
      </trkpt>
      <trkpt lat="47.03768" lon="6.07064">
        <ele>629</ele>
        <time>2026-07-08T14:42:52Z</time>
      </trkpt>
      <trkpt lat="47.03766" lon="6.07066">
        <ele>629.2</ele>
        <time>2026-07-08T14:42:53Z</time>
      </trkpt>
      <trkpt lat="47.03764" lon="6.07068">
        <ele>629.2</ele>
        <time>2026-07-08T14:42:54Z</time>
      </trkpt>
      <trkpt lat="47.03763" lon="6.07071">
        <ele>629.2</ele>
        <time>2026-07-08T14:42:55Z</time>
      </trkpt>
      <trkpt lat="47.03761" lon="6.07074">
        <ele>629.4</ele>
        <time>2026-07-08T14:42:56Z</time>
      </trkpt>
      <trkpt lat="47.0376" lon="6.07077">
        <ele>629.6</ele>
        <time>2026-07-08T14:42:57Z</time>
      </trkpt>
      <trkpt lat="47.03759" lon="6.0708">
        <ele>629.6</ele>
        <time>2026-07-08T14:42:58Z</time>
      </trkpt>
      <trkpt lat="47.03759" lon="6.07084">
        <ele>629.6</ele>
        <time>2026-07-08T14:42:59Z</time>
      </trkpt>
      <trkpt lat="47.03759" lon="6.07087">
        <ele>629.8</ele>
        <time>2026-07-08T14:43:00Z</time>
      </trkpt>
      <trkpt lat="47.03759" lon="6.0709">
        <ele>629.8</ele>
        <time>2026-07-08T14:43:01Z</time>
      </trkpt>
      <trkpt lat="47.0376" lon="6.07093">
        <ele>629.8</ele>
        <time>2026-07-08T14:43:02Z</time>
      </trkpt>
      <trkpt lat="47.0376" lon="6.07095">
        <ele>629.8</ele>
        <time>2026-07-08T14:43:03Z</time>
      </trkpt>
      <trkpt lat="47.0376" lon="6.07097">
        <ele>629.8</ele>
        <time>2026-07-08T14:43:04Z</time>
      </trkpt>
      <trkpt lat="47.0376" lon="6.07098">
        <ele>629.8</ele>
        <time>2026-07-08T14:43:05Z</time>
      </trkpt>
      <trkpt lat="47.0376" lon="6.07099">
        <ele>630</ele>
        <time>2026-07-08T14:43:06Z</time>
      </trkpt>
      <trkpt lat="47.0376" lon="6.07099">
        <ele>629.8</ele>
        <time>2026-07-08T14:43:07Z</time>
      </trkpt>
      <trkpt lat="47.03761" lon="6.071">
        <ele>629.8</ele>
        <time>2026-07-08T14:43:08Z</time>
      </trkpt>
      <trkpt lat="47.03761" lon="6.071">
        <ele>629.8</ele>
        <time>2026-07-08T14:43:09Z</time>
      </trkpt>
      <trkpt lat="47.0377" lon="6.07127">
        <ele>630.4</ele>
        <time>2026-07-08T14:44:22Z</time>
      </trkpt>
      <trkpt lat="47.03769" lon="6.07129">
        <ele>630.4</ele>
        <time>2026-07-08T14:44:23Z</time>
      </trkpt>
      <trkpt lat="47.03769" lon="6.07132">
        <ele>630.4</ele>
        <time>2026-07-08T14:44:24Z</time>
      </trkpt>
      <trkpt lat="47.0377" lon="6.07132">
        <ele>630.4</ele>
        <time>2026-07-08T14:44:25Z</time>
      </trkpt>
      <trkpt lat="47.0377" lon="6.07131">
        <ele>630.4</ele>
        <time>2026-07-08T14:44:26Z</time>
      </trkpt>
      <trkpt lat="47.03772" lon="6.0713">
        <ele>630.2</ele>
        <time>2026-07-08T14:44:27Z</time>
      </trkpt>
      <trkpt lat="47.03761" lon="6.07117">
        <ele>630.2</ele>
        <time>2026-07-08T14:44:30Z</time>
      </trkpt>
      <trkpt lat="47.03758" lon="6.07116">
        <ele>630.2</ele>
        <time>2026-07-08T14:44:31Z</time>
      </trkpt>
      <trkpt lat="47.03755" lon="6.07113">
        <ele>630.2</ele>
        <time>2026-07-08T14:44:32Z</time>
      </trkpt>
      <trkpt lat="47.03755" lon="6.07114">
        <ele>630.2</ele>
        <time>2026-07-08T14:44:33Z</time>
      </trkpt>
      <trkpt lat="47.03756" lon="6.07115">
        <ele>630.2</ele>
        <time>2026-07-08T14:44:34Z</time>
      </trkpt>
      <trkpt lat="47.03756" lon="6.07116">
        <ele>630.4</ele>
        <time>2026-07-08T14:44:35Z</time>
      </trkpt>
      <trkpt lat="47.03756" lon="6.07117">
        <ele>630.4</ele>
        <time>2026-07-08T14:44:36Z</time>
      </trkpt>
      <trkpt lat="47.03757" lon="6.07119">
        <ele>630.4</ele>
        <time>2026-07-08T14:44:37Z</time>
      </trkpt>
      <trkpt lat="47.03758" lon="6.0712">
        <ele>630.4</ele>
        <time>2026-07-08T14:44:38Z</time>
      </trkpt>
      <trkpt lat="47.03758" lon="6.07122">
        <ele>630.4</ele>
        <time>2026-07-08T14:44:39Z</time>
      </trkpt>
      <trkpt lat="47.03759" lon="6.07122">
        <ele>630.4</ele>
        <time>2026-07-08T14:44:40Z</time>
      </trkpt>
      <trkpt lat="47.03761" lon="6.07123">
        <ele>630.2</ele>
        <time>2026-07-08T14:44:41Z</time>
      </trkpt>
      <trkpt lat="47.03762" lon="6.07125">
        <ele>630.2</ele>
        <time>2026-07-08T14:44:42Z</time>
      </trkpt>
      <trkpt lat="47.03764" lon="6.07126">
        <ele>630.4</ele>
        <time>2026-07-08T14:44:43Z</time>
      </trkpt>
      <trkpt lat="47.03766" lon="6.07128">
        <ele>630.4</ele>
        <time>2026-07-08T14:44:44Z</time>
      </trkpt>
      <trkpt lat="47.03769" lon="6.07131">
        <ele>630.4</ele>
        <time>2026-07-08T14:44:45Z</time>
      </trkpt>
      <trkpt lat="47.03771" lon="6.07132">
        <ele>630.6</ele>
        <time>2026-07-08T14:44:46Z</time>
      </trkpt>
      <trkpt lat="47.03775" lon="6.07132">
        <ele>630.6</ele>
        <time>2026-07-08T14:44:47Z</time>
      </trkpt>
      <trkpt lat="47.03778" lon="6.07132">
        <ele>630.6</ele>
        <time>2026-07-08T14:44:48Z</time>
      </trkpt>
      <trkpt lat="47.03782" lon="6.07131">
        <ele>630.4</ele>
        <time>2026-07-08T14:44:49Z</time>
      </trkpt>
      <trkpt lat="47.03786" lon="6.07129">
        <ele>630.6</ele>
        <time>2026-07-08T14:44:50Z</time>
      </trkpt>
      <trkpt lat="47.0379" lon="6.07129">
        <ele>630.4</ele>
        <time>2026-07-08T14:44:51Z</time>
      </trkpt>
      <trkpt lat="47.03795" lon="6.07128">
        <ele>630.4</ele>
        <time>2026-07-08T14:44:52Z</time>
      </trkpt>
      <trkpt lat="47.038" lon="6.07127">
        <ele>630.4</ele>
        <time>2026-07-08T14:44:53Z</time>
      </trkpt>
      <trkpt lat="47.03804" lon="6.07127">
        <ele>630.4</ele>
        <time>2026-07-08T14:44:54Z</time>
      </trkpt>
      <trkpt lat="47.03808" lon="6.07128">
        <ele>630.2</ele>
        <time>2026-07-08T14:44:55Z</time>
      </trkpt>
      <trkpt lat="47.03812" lon="6.07129">
        <ele>630.4</ele>
        <time>2026-07-08T14:44:56Z</time>
      </trkpt>
      <trkpt lat="47.03815" lon="6.07132">
        <ele>630.2</ele>
        <time>2026-07-08T14:44:57Z</time>
      </trkpt>
      <trkpt lat="47.03818" lon="6.07134">
        <ele>630</ele>
        <time>2026-07-08T14:44:58Z</time>
      </trkpt>
      <trkpt lat="47.03821" lon="6.07137">
        <ele>629.8</ele>
        <time>2026-07-08T14:44:59Z</time>
      </trkpt>
      <trkpt lat="47.03824" lon="6.07139">
        <ele>629.6</ele>
        <time>2026-07-08T14:45:00Z</time>
      </trkpt>
      <trkpt lat="47.03827" lon="6.07142">
        <ele>629.6</ele>
        <time>2026-07-08T14:45:01Z</time>
      </trkpt>
      <trkpt lat="47.03831" lon="6.07144">
        <ele>629.2</ele>
        <time>2026-07-08T14:45:02Z</time>
      </trkpt>
      <trkpt lat="47.03834" lon="6.07146">
        <ele>628.8</ele>
        <time>2026-07-08T14:45:03Z</time>
      </trkpt>
      <trkpt lat="47.03836" lon="6.07148">
        <ele>628.8</ele>
        <time>2026-07-08T14:45:04Z</time>
      </trkpt>
      <trkpt lat="47.03839" lon="6.0715">
        <ele>628.6</ele>
        <time>2026-07-08T14:45:05Z</time>
      </trkpt>
      <trkpt lat="47.03843" lon="6.07153">
        <ele>628.2</ele>
        <time>2026-07-08T14:45:06Z</time>
      </trkpt>
      <trkpt lat="47.03846" lon="6.07155">
        <ele>628.4</ele>
        <time>2026-07-08T14:45:07Z</time>
      </trkpt>
      <trkpt lat="47.03849" lon="6.07158">
        <ele>628.2</ele>
        <time>2026-07-08T14:45:08Z</time>
      </trkpt>
      <trkpt lat="47.03852" lon="6.0716">
        <ele>628</ele>
        <time>2026-07-08T14:45:09Z</time>
      </trkpt>
      <trkpt lat="47.03856" lon="6.07163">
        <ele>628</ele>
        <time>2026-07-08T14:45:10Z</time>
      </trkpt>
      <trkpt lat="47.03859" lon="6.07166">
        <ele>627.8</ele>
        <time>2026-07-08T14:45:11Z</time>
      </trkpt>
      <trkpt lat="47.03862" lon="6.07169">
        <ele>627.6</ele>
        <time>2026-07-08T14:45:12Z</time>
      </trkpt>
      <trkpt lat="47.03865" lon="6.07172">
        <ele>627.4</ele>
        <time>2026-07-08T14:45:13Z</time>
      </trkpt>
      <trkpt lat="47.03869" lon="6.07175">
        <ele>627.4</ele>
        <time>2026-07-08T14:45:14Z</time>
      </trkpt>
      <trkpt lat="47.03872" lon="6.07178">
        <ele>627.4</ele>
        <time>2026-07-08T14:45:15Z</time>
      </trkpt>
      <trkpt lat="47.03875" lon="6.07182">
        <ele>627.2</ele>
        <time>2026-07-08T14:45:16Z</time>
      </trkpt>
      <trkpt lat="47.03879" lon="6.07186">
        <ele>627.2</ele>
        <time>2026-07-08T14:45:17Z</time>
      </trkpt>
      <trkpt lat="47.03883" lon="6.07189">
        <ele>626.8</ele>
        <time>2026-07-08T14:45:18Z</time>
      </trkpt>
      <trkpt lat="47.03887" lon="6.07192">
        <ele>627</ele>
        <time>2026-07-08T14:45:19Z</time>
      </trkpt>
      <trkpt lat="47.0389" lon="6.07195">
        <ele>626.8</ele>
        <time>2026-07-08T14:45:20Z</time>
      </trkpt>
      <trkpt lat="47.03893" lon="6.07197">
        <ele>626.6</ele>
        <time>2026-07-08T14:45:21Z</time>
      </trkpt>
      <trkpt lat="47.03897" lon="6.07198">
        <ele>626.6</ele>
        <time>2026-07-08T14:45:22Z</time>
      </trkpt>
      <trkpt lat="47.039" lon="6.07198">
        <ele>626.4</ele>
        <time>2026-07-08T14:45:23Z</time>
      </trkpt>
      <trkpt lat="47.03904" lon="6.07198">
        <ele>626.6</ele>
        <time>2026-07-08T14:45:24Z</time>
      </trkpt>
      <trkpt lat="47.03908" lon="6.07198">
        <ele>626.6</ele>
        <time>2026-07-08T14:45:25Z</time>
      </trkpt>
      <trkpt lat="47.03911" lon="6.07197">
        <ele>626.4</ele>
        <time>2026-07-08T14:45:26Z</time>
      </trkpt>
      <trkpt lat="47.03915" lon="6.07198">
        <ele>626.4</ele>
        <time>2026-07-08T14:45:27Z</time>
      </trkpt>
      <trkpt lat="47.03919" lon="6.07198">
        <ele>626.4</ele>
        <time>2026-07-08T14:45:28Z</time>
      </trkpt>
      <trkpt lat="47.03922" lon="6.07199">
        <ele>626.2</ele>
        <time>2026-07-08T14:45:29Z</time>
      </trkpt>
      <trkpt lat="47.03925" lon="6.07199">
        <ele>626.2</ele>
        <time>2026-07-08T14:45:30Z</time>
      </trkpt>
      <trkpt lat="47.03929" lon="6.072">
        <ele>626.2</ele>
        <time>2026-07-08T14:45:31Z</time>
      </trkpt>
      <trkpt lat="47.03932" lon="6.07201">
        <ele>626.2</ele>
        <time>2026-07-08T14:45:32Z</time>
      </trkpt>
      <trkpt lat="47.03935" lon="6.072">
        <ele>626.2</ele>
        <time>2026-07-08T14:45:33Z</time>
      </trkpt>
      <trkpt lat="47.03938" lon="6.072">
        <ele>626.2</ele>
        <time>2026-07-08T14:45:34Z</time>
      </trkpt>
      <trkpt lat="47.03941" lon="6.072">
        <ele>626.2</ele>
        <time>2026-07-08T14:45:35Z</time>
      </trkpt>
      <trkpt lat="47.03944" lon="6.07197">
        <ele>626.2</ele>
        <time>2026-07-08T14:45:36Z</time>
      </trkpt>
      <trkpt lat="47.03945" lon="6.07192">
        <ele>626.2</ele>
        <time>2026-07-08T14:45:37Z</time>
      </trkpt>
      <trkpt lat="47.03945" lon="6.07187">
        <ele>626.2</ele>
        <time>2026-07-08T14:45:38Z</time>
      </trkpt>
      <trkpt lat="47.03945" lon="6.07181">
        <ele>626</ele>
        <time>2026-07-08T14:45:39Z</time>
      </trkpt>
      <trkpt lat="47.03943" lon="6.07175">
        <ele>626</ele>
        <time>2026-07-08T14:45:40Z</time>
      </trkpt>
      <trkpt lat="47.03942" lon="6.07169">
        <ele>626</ele>
        <time>2026-07-08T14:45:41Z</time>
      </trkpt>
      <trkpt lat="47.03941" lon="6.07163">
        <ele>625.8</ele>
        <time>2026-07-08T14:45:42Z</time>
      </trkpt>
      <trkpt lat="47.0394" lon="6.07157">
        <ele>625.8</ele>
        <time>2026-07-08T14:45:43Z</time>
      </trkpt>
      <trkpt lat="47.03939" lon="6.07151">
        <ele>625.6</ele>
        <time>2026-07-08T14:45:44Z</time>
      </trkpt>
      <trkpt lat="47.03938" lon="6.07145">
        <ele>625.4</ele>
        <time>2026-07-08T14:45:45Z</time>
      </trkpt>
      <trkpt lat="47.03937" lon="6.07139">
        <ele>625.2</ele>
        <time>2026-07-08T14:45:46Z</time>
      </trkpt>
      <trkpt lat="47.03936" lon="6.07133">
        <ele>625.2</ele>
        <time>2026-07-08T14:45:47Z</time>
      </trkpt>
      <trkpt lat="47.03935" lon="6.07128">
        <ele>625.2</ele>
        <time>2026-07-08T14:45:48Z</time>
      </trkpt>
      <trkpt lat="47.03935" lon="6.07123">
        <ele>625</ele>
        <time>2026-07-08T14:45:49Z</time>
      </trkpt>
      <trkpt lat="47.03934" lon="6.07119">
        <ele>625</ele>
        <time>2026-07-08T14:45:50Z</time>
      </trkpt>
      <trkpt lat="47.03934" lon="6.07116">
        <ele>625</ele>
        <time>2026-07-08T14:45:51Z</time>
      </trkpt>
      <trkpt lat="47.03934" lon="6.07112">
        <ele>625</ele>
        <time>2026-07-08T14:45:52Z</time>
      </trkpt>
      <trkpt lat="47.03933" lon="6.07108">
        <ele>624.8</ele>
        <time>2026-07-08T14:45:53Z</time>
      </trkpt>
      <trkpt lat="47.03933" lon="6.07104">
        <ele>625</ele>
        <time>2026-07-08T14:45:54Z</time>
      </trkpt>
      <trkpt lat="47.03933" lon="6.07101">
        <ele>624.8</ele>
        <time>2026-07-08T14:45:55Z</time>
      </trkpt>
      <trkpt lat="47.03932" lon="6.07097">
        <ele>624.8</ele>
        <time>2026-07-08T14:45:56Z</time>
      </trkpt>
      <trkpt lat="47.03931" lon="6.07094">
        <ele>625</ele>
        <time>2026-07-08T14:45:57Z</time>
      </trkpt>
      <trkpt lat="47.03931" lon="6.07091">
        <ele>624.8</ele>
        <time>2026-07-08T14:45:58Z</time>
      </trkpt>
      <trkpt lat="47.0393" lon="6.07088">
        <ele>625</ele>
        <time>2026-07-08T14:45:59Z</time>
      </trkpt>
      <trkpt lat="47.03929" lon="6.07085">
        <ele>625</ele>
        <time>2026-07-08T14:46:00Z</time>
      </trkpt>
      <trkpt lat="47.03928" lon="6.07081">
        <ele>624.8</ele>
        <time>2026-07-08T14:46:01Z</time>
      </trkpt>
      <trkpt lat="47.03927" lon="6.07078">
        <ele>625</ele>
        <time>2026-07-08T14:46:02Z</time>
      </trkpt>
      <trkpt lat="47.03925" lon="6.07075">
        <ele>624.8</ele>
        <time>2026-07-08T14:46:03Z</time>
      </trkpt>
      <trkpt lat="47.03923" lon="6.07074">
        <ele>625</ele>
        <time>2026-07-08T14:46:04Z</time>
      </trkpt>
      <trkpt lat="47.0392" lon="6.07074">
        <ele>625</ele>
        <time>2026-07-08T14:46:05Z</time>
      </trkpt>
      <trkpt lat="47.03918" lon="6.07074">
        <ele>624.8</ele>
        <time>2026-07-08T14:46:06Z</time>
      </trkpt>
      <trkpt lat="47.03916" lon="6.07074">
        <ele>624.8</ele>
        <time>2026-07-08T14:46:07Z</time>
      </trkpt>
      <trkpt lat="47.03913" lon="6.07075">
        <ele>625</ele>
        <time>2026-07-08T14:46:08Z</time>
      </trkpt>
      <trkpt lat="47.03911" lon="6.07076">
        <ele>624.8</ele>
        <time>2026-07-08T14:46:09Z</time>
      </trkpt>
      <trkpt lat="47.03909" lon="6.07076">
        <ele>624.8</ele>
        <time>2026-07-08T14:46:10Z</time>
      </trkpt>
      <trkpt lat="47.03908" lon="6.07076">
        <ele>624.8</ele>
        <time>2026-07-08T14:46:11Z</time>
      </trkpt>
      <trkpt lat="47.03907" lon="6.07077">
        <ele>624.8</ele>
        <time>2026-07-08T14:46:12Z</time>
      </trkpt>
      <trkpt lat="47.03905" lon="6.07077">
        <ele>625</ele>
        <time>2026-07-08T14:46:13Z</time>
      </trkpt>
      <trkpt lat="47.03905" lon="6.07077">
        <ele>625</ele>
        <time>2026-07-08T14:46:14Z</time>
      </trkpt>
      <trkpt lat="47.03904" lon="6.07077">
        <ele>624.8</ele>
        <time>2026-07-08T14:46:15Z</time>
      </trkpt>
      <trkpt lat="47.03904" lon="6.07076">
        <ele>625</ele>
        <time>2026-07-08T14:46:16Z</time>
      </trkpt>
    </trkseg>
  </trk>
</gpx>